<?xml version='1.0' encoding='UTF-8'?><gpx version="1.1" creator="JPX - https://github.com/jenetics/jpx" xmlns="http://www.topografix.com/GPX/1/1"><trk><trkseg><trkpt lat="45.16669190856342" lon="8.278512479602082"><ele>235.0</ele><time>2026-04-09T07:03:36Z</time></trkpt><trkpt lat="45.166618302745285" lon="8.278607401329817"><ele>235.0</ele><time>2026-04-09T07:03:37Z</time></trkpt><trkpt lat="45.166540181515366" lon="8.278713884609068"><ele>235.0</ele><time>2026-04-09T07:03:38Z</time></trkpt><trkpt lat="45.166466337950055" lon="8.278822270233324"><ele>235.0</ele><time>2026-04-09T07:03:39Z</time></trkpt><trkpt lat="45.16638190475811" lon="8.278930623111284"><ele>235.0</ele><time>2026-04-09T07:03:40Z</time></trkpt><trkpt lat="45.16630916294386" lon="8.279052872384765"><ele>236.25</ele><time>2026-04-09T07:03:41Z</time></trkpt><trkpt lat="45.166232031042306" lon="8.279181454780177"><ele>237.5</ele><time>2026-04-09T07:03:42Z</time></trkpt><trkpt lat="45.166160483237654" lon="8.279323746832704"><ele>238.75</ele><time>2026-04-09T07:03:43Z</time></trkpt><trkpt lat="45.16607001757046" lon="8.27946992968889"><ele>240.0</ele><time>2026-04-09T07:03:44Z</time></trkpt><trkpt lat="45.165989249315544" lon="8.279612829508459"><ele>240.0</ele><time>2026-04-09T07:03:45Z</time></trkpt><trkpt lat="45.16590458891315" lon="8.279764013557456"><ele>240.0</ele><time>2026-04-09T07:03:46Z</time></trkpt><trkpt lat="45.1658134560336" lon="8.279917841237012"><ele>240.0</ele><time>2026-04-09T07:03:47Z</time></trkpt><trkpt lat="45.16573517260134" lon="8.280070059219062"><ele>240.0</ele><time>2026-04-09T07:03:48Z</time></trkpt><trkpt lat="45.165669152088256" lon="8.280229257450166"><ele>243.5</ele><time>2026-04-09T07:03:49Z</time></trkpt><trkpt lat="45.16560400974466" lon="8.28039679572522"><ele>247.0</ele><time>2026-04-09T07:03:50Z</time></trkpt><trkpt lat="45.16553741099993" lon="8.280566535452875"><ele>250.5</ele><time>2026-04-09T07:03:51Z</time></trkpt><trkpt lat="45.16548272936419" lon="8.280749865634306"><ele>254.0</ele><time>2026-04-09T07:03:52Z</time></trkpt><trkpt lat="45.165419547353224" lon="8.280930429974712"><ele>254.0</ele><time>2026-04-09T07:03:53Z</time></trkpt><trkpt lat="45.16536394735325" lon="8.281111636907118"><ele>254.0</ele><time>2026-04-09T07:03:54Z</time></trkpt><trkpt lat="45.16530540782475" lon="8.281282910813083"><ele>254.0</ele><time>2026-04-09T07:03:55Z</time></trkpt><trkpt lat="45.16525502564314" lon="8.281439313933392"><ele>254.0</ele><time>2026-04-09T07:03:56Z</time></trkpt><trkpt lat="45.165204898892014" lon="8.281582923298867"><ele>256.4</ele><time>2026-04-09T07:03:57Z</time></trkpt><trkpt lat="45.16514768288341" lon="8.281710763610779"><ele>258.79999999999995</ele><time>2026-04-09T07:03:58Z</time></trkpt><trkpt lat="45.16506617597389" lon="8.281802873130133"><ele>261.20000000000005</ele><time>2026-04-09T07:03:59Z</time></trkpt><trkpt lat="45.16498343864474" lon="8.281888919533525"><ele>263.6</ele><time>2026-04-09T07:04:00Z</time></trkpt><trkpt lat="45.16487940463447" lon="8.28193776386151"><ele>266.0</ele><time>2026-04-09T07:04:01Z</time></trkpt><trkpt lat="45.16477567806621" lon="8.281948452922688"><ele>266.0</ele><time>2026-04-09T07:04:02Z</time></trkpt><trkpt lat="45.16464430844949" lon="8.281959979654589"><ele>266.0</ele><time>2026-04-09T07:04:03Z</time></trkpt><trkpt lat="45.164526537120516" lon="8.282025687928561"><ele>266.0</ele><time>2026-04-09T07:04:04Z</time></trkpt><trkpt lat="45.16442788456092" lon="8.282143485281502"><ele>266.0</ele><time>2026-04-09T07:04:05Z</time></trkpt><trkpt lat="45.164338640250264" lon="8.282265160218333"><ele>262.5</ele><time>2026-04-09T07:04:06Z</time></trkpt><trkpt lat="45.16427231461128" lon="8.282403636470221"><ele>259.0</ele><time>2026-04-09T07:04:06.999Z</time></trkpt><trkpt lat="45.16422834457035" lon="8.28255395567835"><ele>255.5</ele><time>2026-04-09T07:04:07.999Z</time></trkpt><trkpt lat="45.16417597091864" lon="8.282690915227683"><ele>252.0</ele><time>2026-04-09T07:04:08.999Z</time></trkpt><trkpt lat="45.164199062792704" lon="8.28284664372934"><ele>252.0</ele><time>2026-04-09T07:04:09.999Z</time></trkpt><trkpt lat="45.16424982796067" lon="8.282984171630165"><ele>252.0</ele><time>2026-04-09T07:04:10.999Z</time></trkpt><trkpt lat="45.16434302699299" lon="8.283081185479091"><ele>252.0</ele><time>2026-04-09T07:04:11.999Z</time></trkpt><trkpt lat="45.164452617080656" lon="8.283136985472684"><ele>252.0</ele><time>2026-04-09T07:04:13Z</time></trkpt><trkpt lat="45.16459121344086" lon="8.283186883094649"><ele>251.25</ele><time>2026-04-09T07:04:14Z</time></trkpt><trkpt lat="45.16471429548215" lon="8.283269046709218"><ele>250.5</ele><time>2026-04-09T07:04:15Z</time></trkpt><trkpt lat="45.16482288820932" lon="8.283393954182852"><ele>249.75</ele><time>2026-04-09T07:04:16Z</time></trkpt><trkpt lat="45.164949077263884" lon="8.283480987178333"><ele>249.0</ele><time>2026-04-09T07:04:17Z</time></trkpt><trkpt lat="45.16506475238309" lon="8.283595339572587"><ele>248.5</ele><time>2026-04-09T07:04:18Z</time></trkpt><trkpt lat="45.165161111899266" lon="8.283732395964394"><ele>248.0</ele><time>2026-04-09T07:04:19Z</time></trkpt><trkpt lat="45.16524529292787" lon="8.283861110390827"><ele>247.5</ele><time>2026-04-09T07:04:20Z</time></trkpt><trkpt lat="45.16532552512" lon="8.283969201368699"><ele>247.0</ele><time>2026-04-09T07:04:21Z</time></trkpt><trkpt lat="45.16536563269989" lon="8.284107078604732"><ele>247.0</ele><time>2026-04-09T07:04:22Z</time></trkpt><trkpt lat="45.165375084789694" lon="8.284257379056822"><ele>247.0</ele><time>2026-04-09T07:04:23Z</time></trkpt><trkpt lat="45.16535068031226" lon="8.284408392917433"><ele>247.0</ele><time>2026-04-09T07:04:24Z</time></trkpt><trkpt lat="45.165295468636884" lon="8.28453638618162"><ele>247.0</ele><time>2026-04-09T07:04:25Z</time></trkpt><trkpt lat="45.16520145551844" lon="8.28460681120365"><ele>247.0</ele><time>2026-04-09T07:04:26Z</time></trkpt><trkpt lat="45.16508532255817" lon="8.284604595666968"><ele>247.0</ele><time>2026-04-09T07:04:27Z</time></trkpt><trkpt lat="45.16497218649819" lon="8.284651974510052"><ele>247.0</ele><time>2026-04-09T07:04:28Z</time></trkpt><trkpt lat="45.1648519739196" lon="8.284704986332"><ele>247.0</ele><time>2026-04-09T07:04:29Z</time></trkpt><trkpt lat="45.164732248624624" lon="8.2847925845671"><ele>247.0</ele><time>2026-04-09T07:04:30Z</time></trkpt><trkpt lat="45.164624112822736" lon="8.284906988246409"><ele>249.5</ele><time>2026-04-09T07:04:31Z</time></trkpt><trkpt lat="45.16453681308126" lon="8.285052666333131"><ele>252.0</ele><time>2026-04-09T07:04:32Z</time></trkpt><trkpt lat="45.16447536942899" lon="8.285225529463538"><ele>254.5</ele><time>2026-04-09T07:04:33Z</time></trkpt><trkpt lat="45.16443954002657" lon="8.28541840461859"><ele>257.0</ele><time>2026-04-09T07:04:34Z</time></trkpt><trkpt lat="45.16442053188361" lon="8.285615450345697"><ele>257.0</ele><time>2026-04-09T07:04:35Z</time></trkpt><trkpt lat="45.16438319097702" lon="8.285800786742554"><ele>257.0</ele><time>2026-04-09T07:04:36Z</time></trkpt><trkpt lat="45.164306808684984" lon="8.285953368820804"><ele>257.0</ele><time>2026-04-09T07:04:37Z</time></trkpt><trkpt lat="45.16423180196577" lon="8.286087661474982"><ele>257.0</ele><time>2026-04-09T07:04:38Z</time></trkpt><trkpt lat="45.1641709663697" lon="8.286215013496946"><ele>257.0</ele><time>2026-04-09T07:04:39Z</time></trkpt><trkpt lat="45.164085403433575" lon="8.286299102320829"><ele>257.0</ele><time>2026-04-09T07:04:40Z</time></trkpt><trkpt lat="45.16399819730137" lon="8.286361404021939"><ele>257.0</ele><time>2026-04-09T07:04:41Z</time></trkpt><trkpt lat="45.163896500725386" lon="8.286413681466112"><ele>257.0</ele><time>2026-04-09T07:04:42Z</time></trkpt><trkpt lat="45.16378208077316" lon="8.286473173502623"><ele>257.0</ele><time>2026-04-09T07:04:43Z</time></trkpt><trkpt lat="45.16365581036757" lon="8.286540259709847"><ele>256.5</ele><time>2026-04-09T07:04:44Z</time></trkpt><trkpt lat="45.16352614318426" lon="8.286609883675997"><ele>256.0</ele><time>2026-04-09T07:04:45Z</time></trkpt><trkpt lat="45.1633923784069" lon="8.286680506736925"><ele>255.5</ele><time>2026-04-09T07:04:46Z</time></trkpt><trkpt lat="45.163258533207355" lon="8.286754769703176"><ele>255.0</ele><time>2026-04-09T07:04:47Z</time></trkpt><trkpt lat="45.163128443011" lon="8.286827726902064"><ele>254.5</ele><time>2026-04-09T07:04:48Z</time></trkpt><trkpt lat="45.16300901898402" lon="8.286886637790072"><ele>254.0</ele><time>2026-04-09T07:04:49Z</time></trkpt><trkpt lat="45.1628950725933" lon="8.286942697586204"><ele>253.5</ele><time>2026-04-09T07:04:50Z</time></trkpt><trkpt lat="45.16278758981881" lon="8.287000979233365"><ele>253.0</ele><time>2026-04-09T07:04:51Z</time></trkpt><trkpt lat="45.16268785732992" lon="8.2870554856991"><ele>252.99999999999997</ele><time>2026-04-09T07:04:52Z</time></trkpt><trkpt lat="45.16260127765468" lon="8.28710241129382"><ele>253.0</ele><time>2026-04-09T07:04:53Z</time></trkpt><trkpt lat="45.16251905751358" lon="8.287148324242327"><ele>253.0</ele><time>2026-04-09T07:04:54Z</time></trkpt><trkpt lat="45.16244566714825" lon="8.28718181668524"><ele>253.0</ele><time>2026-04-09T07:04:55Z</time></trkpt><trkpt lat="45.162355527608355" lon="8.287206082675162"><ele>252.99999999999997</ele><time>2026-04-09T07:04:57Z</time></trkpt><trkpt lat="45.16227050082841" lon="8.287194642301346"><ele>253.0</ele><time>2026-04-09T07:05:01Z</time></trkpt><trkpt lat="45.162229218124736" lon="8.287363721685328"><ele>249.4</ele><time>2026-04-09T07:05:02Z</time></trkpt><trkpt lat="45.16220860109977" lon="8.287485547745352"><ele>245.8</ele><time>2026-04-09T07:05:03Z</time></trkpt><trkpt lat="45.1621728177686" lon="8.287625009065202"><ele>242.2</ele><time>2026-04-09T07:05:04Z</time></trkpt><trkpt lat="45.16212605579331" lon="8.28777868167652"><ele>238.6</ele><time>2026-04-09T07:05:05Z</time></trkpt><trkpt lat="45.162076295143244" lon="8.28792825923835"><ele>235.0</ele><time>2026-04-09T07:05:06Z</time></trkpt><trkpt lat="45.16201713737113" lon="8.28809694622061"><ele>234.0</ele><time>2026-04-09T07:05:07Z</time></trkpt><trkpt lat="45.16196100029081" lon="8.288277070000081"><ele>233.0</ele><time>2026-04-09T07:05:08Z</time></trkpt><trkpt lat="45.16190086456786" lon="8.28846694927975"><ele>232.0</ele><time>2026-04-09T07:05:09Z</time></trkpt><trkpt lat="45.161844189638494" lon="8.288673147049545"><ele>231.0</ele><time>2026-04-09T07:05:10Z</time></trkpt><trkpt lat="45.161782324268636" lon="8.28888568280891"><ele>230.33333333333331</ele><time>2026-04-09T07:05:11Z</time></trkpt><trkpt lat="45.16171881690516" lon="8.289103526805613"><ele>229.66666666666666</ele><time>2026-04-09T07:05:12Z</time></trkpt><trkpt lat="45.16165371987703" lon="8.289318958360454"><ele>229.0</ele><time>2026-04-09T07:05:13Z</time></trkpt><trkpt lat="45.16159049065425" lon="8.28952857541262"><ele>229.0</ele><time>2026-04-09T07:05:14Z</time></trkpt><trkpt lat="45.16153389311322" lon="8.289721583351227"><ele>229.0</ele><time>2026-04-09T07:05:15Z</time></trkpt><trkpt lat="45.16148604440317" lon="8.28990527648329"><ele>229.0</ele><time>2026-04-09T07:05:16Z</time></trkpt><trkpt lat="45.16143126620596" lon="8.29007991057953"><ele>229.0</ele><time>2026-04-09T07:05:17Z</time></trkpt><trkpt lat="45.161357571733255" lon="8.290216865471388"><ele>228.0</ele><time>2026-04-09T07:05:18Z</time></trkpt><trkpt lat="45.16126813857729" lon="8.290314581977627"><ele>226.99999999999997</ele><time>2026-04-09T07:05:19Z</time></trkpt><trkpt lat="45.161165766172395" lon="8.290370992796166"><ele>225.99999999999997</ele><time>2026-04-09T07:05:20Z</time></trkpt><trkpt lat="45.161055979196036" lon="8.290402142403012"><ele>225.0</ele><time>2026-04-09T07:05:21Z</time></trkpt><trkpt lat="45.1609473654354" lon="8.290436905993335"><ele>224.0</ele><time>2026-04-09T07:05:22Z</time></trkpt><trkpt lat="45.16083719765415" lon="8.290479927706944"><ele>224.0</ele><time>2026-04-09T07:05:23Z</time></trkpt><trkpt lat="45.16072227897036" lon="8.290538843902604"><ele>224.0</ele><time>2026-04-09T07:05:24Z</time></trkpt><trkpt lat="45.16061049600585" lon="8.290612045916834"><ele>224.0</ele><time>2026-04-09T07:05:25Z</time></trkpt><trkpt lat="45.1605011918288" lon="8.290703624705959"><ele>224.0</ele><time>2026-04-09T07:05:26Z</time></trkpt><trkpt lat="45.16039617378545" lon="8.290804127658522"><ele>223.25</ele><time>2026-04-09T07:05:27Z</time></trkpt><trkpt lat="45.16028859452006" lon="8.290907547568873"><ele>222.5</ele><time>2026-04-09T07:05:28Z</time></trkpt><trkpt lat="45.160189432489695" lon="8.291005875342902"><ele>221.75</ele><time>2026-04-09T07:05:29Z</time></trkpt><trkpt lat="45.16010219258256" lon="8.291120344888173"><ele>221.0</ele><time>2026-04-09T07:05:30Z</time></trkpt><trkpt lat="45.16002092493415" lon="8.291229574159583"><ele>221.00000000000003</ele><time>2026-04-09T07:05:31Z</time></trkpt><trkpt lat="45.15996166235441" lon="8.291331077929208"><ele>221.0</ele><time>2026-04-09T07:05:32Z</time></trkpt><trkpt lat="45.15991111589751" lon="8.291431730384398"><ele>221.0</ele><time>2026-04-09T07:05:33Z</time></trkpt><trkpt lat="45.159869701826544" lon="8.291526134226055"><ele>221.0</ele><time>2026-04-09T07:05:34Z</time></trkpt><trkpt lat="45.159823013811824" lon="8.291600260295244"><ele>221.00000000000003</ele><time>2026-04-09T07:05:35Z</time></trkpt><trkpt lat="45.15975680794542" lon="8.291644819156884"><ele>221.0</ele><time>2026-04-09T07:05:36Z</time></trkpt><trkpt lat="45.15969808587296" lon="8.291689532027899"><ele>220.8</ele><time>2026-04-09T07:05:37Z</time></trkpt><trkpt lat="45.159629744669026" lon="8.291715901691274"><ele>220.60000000000002</ele><time>2026-04-09T07:05:38Z</time></trkpt><trkpt lat="45.15951351746566" lon="8.291633752944165"><ele>220.4</ele><time>2026-04-09T07:05:39Z</time></trkpt><trkpt lat="45.15939843899419" lon="8.29165979146903"><ele>220.2</ele><time>2026-04-09T07:05:40Z</time></trkpt><trkpt lat="45.15927438314362" lon="8.291657581437883"><ele>220.0</ele><time>2026-04-09T07:05:41Z</time></trkpt><trkpt lat="45.15914011016207" lon="8.291677833887483"><ele>217.75</ele><time>2026-04-09T07:05:42Z</time></trkpt><trkpt lat="45.15900155219895" lon="8.291690440731207"><ele>215.5</ele><time>2026-04-09T07:05:43Z</time></trkpt><trkpt lat="45.158862894559256" lon="8.291712552841693"><ele>213.25</ele><time>2026-04-09T07:05:44Z</time></trkpt><trkpt lat="45.1587201439983" lon="8.291749022470533"><ele>211.0</ele><time>2026-04-09T07:05:45Z</time></trkpt><trkpt lat="45.15858054760891" lon="8.291810295170764"><ele>211.0</ele><time>2026-04-09T07:05:46Z</time></trkpt><trkpt lat="45.15843046758708" lon="8.291885358982041"><ele>211.0</ele><time>2026-04-09T07:05:47Z</time></trkpt><trkpt lat="45.15827944492694" lon="8.291971682623716"><ele>211.0</ele><time>2026-04-09T07:05:48Z</time></trkpt><trkpt lat="45.15812247350223" lon="8.292059387334259"><ele>212.33333333333331</ele><time>2026-04-09T07:05:49Z</time></trkpt><trkpt lat="45.157959436352634" lon="8.292151320777513"><ele>213.66666666666669</ele><time>2026-04-09T07:05:50Z</time></trkpt><trkpt lat="45.15780340625369" lon="8.292237350773295"><ele>215.0</ele><time>2026-04-09T07:05:51Z</time></trkpt><trkpt lat="45.15764204521238" lon="8.292332663159566"><ele>215.0</ele><time>2026-04-09T07:05:52Z</time></trkpt><trkpt lat="45.15748298847393" lon="8.292445680489415"><ele>215.0</ele><time>2026-04-09T07:05:53Z</time></trkpt><trkpt lat="45.157329412083406" lon="8.292554750372453"><ele>215.0</ele><time>2026-04-09T07:05:54Z</time></trkpt><trkpt lat="45.15717718021437" lon="8.292687752157326"><ele>212.66666666666669</ele><time>2026-04-09T07:05:55Z</time></trkpt><trkpt lat="45.157027095159215" lon="8.292810771313551"><ele>210.33333333333331</ele><time>2026-04-09T07:05:56Z</time></trkpt><trkpt lat="45.15687493732108" lon="8.29292391267103"><ele>208.0</ele><time>2026-04-09T07:05:57Z</time></trkpt><trkpt lat="45.156706259450644" lon="8.292976797502595"><ele>208.0</ele><time>2026-04-09T07:05:58Z</time></trkpt><trkpt lat="45.15654197703483" lon="8.29299136165612"><ele>208.0</ele><time>2026-04-09T07:05:59Z</time></trkpt><trkpt lat="45.156365528704434" lon="8.292997256359731"><ele>208.0</ele><time>2026-04-09T07:06:00Z</time></trkpt><trkpt lat="45.15618698887328" lon="8.293024506404052"><ele>205.33333333333331</ele><time>2026-04-09T07:06:01Z</time></trkpt><trkpt lat="45.156005800767105" lon="8.293022328222412"><ele>202.66666666666669</ele><time>2026-04-09T07:06:02Z</time></trkpt><trkpt lat="45.15582422947904" lon="8.293018318142249"><ele>200.0</ele><time>2026-04-09T07:06:03Z</time></trkpt><trkpt lat="45.155645380795214" lon="8.29303070842317"><ele>199.0</ele><time>2026-04-09T07:06:04Z</time></trkpt><trkpt lat="45.1554634944674" lon="8.293037383845668"><ele>198.0</ele><time>2026-04-09T07:06:05Z</time></trkpt><trkpt lat="45.15528934949389" lon="8.293039886188142"><ele>197.0</ele><time>2026-04-09T07:06:06Z</time></trkpt><trkpt lat="45.15511715085008" lon="8.293032361791436"><ele>197.0</ele><time>2026-04-09T07:06:07Z</time></trkpt><trkpt lat="45.154954785027094" lon="8.292985025106619"><ele>197.0</ele><time>2026-04-09T07:06:08Z</time></trkpt><trkpt lat="45.15478740274886" lon="8.292970166016332"><ele>197.0</ele><time>2026-04-09T07:06:09Z</time></trkpt><trkpt lat="45.15462848794975" lon="8.292927687302862"><ele>196.75</ele><time>2026-04-09T07:06:10Z</time></trkpt><trkpt lat="45.15447936333262" lon="8.292891977594905"><ele>196.5</ele><time>2026-04-09T07:06:11Z</time></trkpt><trkpt lat="45.15434593298076" lon="8.292867565971582"><ele>196.25</ele><time>2026-04-09T07:06:12Z</time></trkpt><trkpt lat="45.15422881086251" lon="8.292859660860364"><ele>196.0</ele><time>2026-04-09T07:06:13Z</time></trkpt><trkpt lat="45.1541107644898" lon="8.292877668704978"><ele>195.25</ele><time>2026-04-09T07:06:14Z</time></trkpt><trkpt lat="45.153989889525754" lon="8.29293155031163"><ele>194.5</ele><time>2026-04-09T07:06:15Z</time></trkpt><trkpt lat="45.153875737527166" lon="8.293028342778076"><ele>193.75</ele><time>2026-04-09T07:06:16Z</time></trkpt><trkpt lat="45.15376793368835" lon="8.29316442091933"><ele>193.0</ele><time>2026-04-09T07:06:17Z</time></trkpt><trkpt lat="45.15367476553142" lon="8.293332473637255"><ele>193.0</ele><time>2026-04-09T07:06:18Z</time></trkpt><trkpt lat="45.1535996877248" lon="8.29352507921789"><ele>193.0</ele><time>2026-04-09T07:06:19Z</time></trkpt><trkpt lat="45.15355186016507" lon="8.293736851305832"><ele>193.0</ele><time>2026-04-09T07:06:20Z</time></trkpt><trkpt lat="45.15353511472309" lon="8.293962892576038"><ele>193.0</ele><time>2026-04-09T07:06:21Z</time></trkpt><trkpt lat="45.15355350976415" lon="8.294181279635067"><ele>193.0</ele><time>2026-04-09T07:06:22Z</time></trkpt><trkpt lat="45.15360424246833" lon="8.294386573929087"><ele>193.0</ele><time>2026-04-09T07:06:23Z</time></trkpt><trkpt lat="45.15369389107496" lon="8.294571525789392"><ele>193.0</ele><time>2026-04-09T07:06:24Z</time></trkpt><trkpt lat="45.153808996435025" lon="8.294732775508445"><ele>193.0</ele><time>2026-04-09T07:06:25Z</time></trkpt><trkpt lat="45.15394375427317" lon="8.294873827443968"><ele>193.0</ele><time>2026-04-09T07:06:26Z</time></trkpt><trkpt lat="45.154079957847586" lon="8.29501296658748"><ele>194.0</ele><time>2026-04-09T07:06:27Z</time></trkpt><trkpt lat="45.1542081041119" lon="8.295161228251402"><ele>195.0</ele><time>2026-04-09T07:06:28Z</time></trkpt><trkpt lat="45.154321666038776" lon="8.29531828631635"><ele>196.0</ele><time>2026-04-09T07:06:29Z</time></trkpt><trkpt lat="45.15441994576437" lon="8.295500863813391"><ele>193.33333333333331</ele><time>2026-04-09T07:06:30Z</time></trkpt><trkpt lat="45.15447627806043" lon="8.29571582459706"><ele>190.66666666666666</ele><time>2026-04-09T07:06:31Z</time></trkpt><trkpt lat="45.154513617313945" lon="8.29593400814834"><ele>188.0</ele><time>2026-04-09T07:06:32Z</time></trkpt><trkpt lat="45.154519791798755" lon="8.296154511440198"><ele>188.0</ele><time>2026-04-09T07:06:33Z</time></trkpt><trkpt lat="45.15449978191189" lon="8.296375915175604"><ele>188.0</ele><time>2026-04-09T07:06:34Z</time></trkpt><trkpt lat="45.154462685196734" lon="8.296593198481181"><ele>188.0</ele><time>2026-04-09T07:06:35Z</time></trkpt><trkpt lat="45.154398570967075" lon="8.296792305718709"><ele>188.33333333333331</ele><time>2026-04-09T07:06:36Z</time></trkpt><trkpt lat="45.154305940205326" lon="8.296965060137305"><ele>188.66666666666666</ele><time>2026-04-09T07:06:37Z</time></trkpt><trkpt lat="45.1541917633354" lon="8.297122235489304"><ele>189.0</ele><time>2026-04-09T07:06:38Z</time></trkpt><trkpt lat="45.1540771147589" lon="8.29728531579909"><ele>186.33333333333334</ele><time>2026-04-09T07:06:39Z</time></trkpt><trkpt lat="45.153979912134176" lon="8.297473239739686"><ele>183.66666666666669</ele><time>2026-04-09T07:06:40Z</time></trkpt><trkpt lat="45.15387715370305" lon="8.297654864775842"><ele>181.0</ele><time>2026-04-09T07:06:41Z</time></trkpt><trkpt lat="45.15376869091544" lon="8.297821534376666"><ele>181.0</ele><time>2026-04-09T07:06:42Z</time></trkpt><trkpt lat="45.153626586622764" lon="8.297923873714515"><ele>181.0</ele><time>2026-04-09T07:06:43Z</time></trkpt><trkpt lat="45.15347761106306" lon="8.298004044595347"><ele>181.0</ele><time>2026-04-09T07:06:44Z</time></trkpt><trkpt lat="45.153314743812956" lon="8.298022786908183"><ele>180.0</ele><time>2026-04-09T07:06:45Z</time></trkpt><trkpt lat="45.153154724530424" lon="8.297989918161619"><ele>179.0</ele><time>2026-04-09T07:06:46Z</time></trkpt><trkpt lat="45.152992562435315" lon="8.297924443258717"><ele>178.0</ele><time>2026-04-09T07:06:47Z</time></trkpt><trkpt lat="45.15282476023313" lon="8.297843836945487"><ele>178.0</ele><time>2026-04-09T07:06:48Z</time></trkpt><trkpt lat="45.15265334471653" lon="8.29777464085849"><ele>178.0</ele><time>2026-04-09T07:06:49Z</time></trkpt><trkpt lat="45.15248249978198" lon="8.297683579941747"><ele>178.0</ele><time>2026-04-09T07:06:50Z</time></trkpt><trkpt lat="45.15231144997274" lon="8.297599441537074"><ele>178.0</ele><time>2026-04-09T07:06:51Z</time></trkpt><trkpt lat="45.152141543993025" lon="8.297523995558539"><ele>178.0</ele><time>2026-04-09T07:06:52Z</time></trkpt><trkpt lat="45.15197509923934" lon="8.297461813159318"><ele>178.0</ele><time>2026-04-09T07:06:53Z</time></trkpt><trkpt lat="45.15180868279378" lon="8.297433758886521"><ele>178.0</ele><time>2026-04-09T07:06:54Z</time></trkpt><trkpt lat="45.15163924709384" lon="8.297441576672012"><ele>178.0</ele><time>2026-04-09T07:06:55Z</time></trkpt><trkpt lat="45.15147023649035" lon="8.2974867438144"><ele>178.0</ele><time>2026-04-09T07:06:56Z</time></trkpt><trkpt lat="45.15130455115961" lon="8.297554945822457"><ele>176.33333333333334</ele><time>2026-04-09T07:06:57Z</time></trkpt><trkpt lat="45.15114304469713" lon="8.297643126893913"><ele>174.66666666666666</ele><time>2026-04-09T07:06:58Z</time></trkpt><trkpt lat="45.15099276170894" lon="8.297766098788111"><ele>173.0</ele><time>2026-04-09T07:06:59Z</time></trkpt><trkpt lat="45.150863850224006" lon="8.297934295033688"><ele>174.33333333333331</ele><time>2026-04-09T07:07:00Z</time></trkpt><trkpt lat="45.150750056839975" lon="8.298130004256656"><ele>175.66666666666666</ele><time>2026-04-09T07:07:01Z</time></trkpt><trkpt lat="45.1506528032337" lon="8.29834317260171"><ele>177.0</ele><time>2026-04-09T07:07:02Z</time></trkpt><trkpt lat="45.15057439738228" lon="8.298567602226665"><ele>173.0</ele><time>2026-04-09T07:07:03Z</time></trkpt><trkpt lat="45.150505081341755" lon="8.298808014808692"><ele>169.0</ele><time>2026-04-09T07:07:04Z</time></trkpt><trkpt lat="45.15043889345376" lon="8.299050076441196"><ele>165.0</ele><time>2026-04-09T07:07:05Z</time></trkpt><trkpt lat="45.15037274143923" lon="8.299288270278362"><ele>165.0</ele><time>2026-04-09T07:07:06Z</time></trkpt><trkpt lat="45.15029693973946" lon="8.299510046904581"><ele>165.0</ele><time>2026-04-09T07:07:07Z</time></trkpt><trkpt lat="45.15018478268272" lon="8.29969868520653"><ele>165.0</ele><time>2026-04-09T07:07:08Z</time></trkpt><trkpt lat="45.15006110528203" lon="8.299864919992475"><ele>163.66666666666666</ele><time>2026-04-09T07:07:09Z</time></trkpt><trkpt lat="45.14991602610522" lon="8.30000211515406"><ele>162.33333333333331</ele><time>2026-04-09T07:07:10Z</time></trkpt><trkpt lat="45.14975030619114" lon="8.300120974776783"><ele>161.0</ele><time>2026-04-09T07:07:11Z</time></trkpt><trkpt lat="45.14959571675748" lon="8.300269670455748"><ele>161.0</ele><time>2026-04-09T07:07:12Z</time></trkpt><trkpt lat="45.14944238126951" lon="8.30043085716041"><ele>161.0</ele><time>2026-04-09T07:07:13Z</time></trkpt><trkpt lat="45.14930287780677" lon="8.300627353448965"><ele>161.0</ele><time>2026-04-09T07:07:14Z</time></trkpt><trkpt lat="45.1491687224163" lon="8.300838499318061"><ele>160.66666666666666</ele><time>2026-04-09T07:07:15Z</time></trkpt><trkpt lat="45.14902758658294" lon="8.301052347080425"><ele>160.33333333333334</ele><time>2026-04-09T07:07:16Z</time></trkpt><trkpt lat="45.14886613568679" lon="8.301239379639258"><ele>160.0</ele><time>2026-04-09T07:07:17Z</time></trkpt><trkpt lat="45.14870538355953" lon="8.301429931323499"><ele>160.33333333333334</ele><time>2026-04-09T07:07:18Z</time></trkpt><trkpt lat="45.148531678418685" lon="8.30159994108521"><ele>160.66666666666666</ele><time>2026-04-09T07:07:19Z</time></trkpt><trkpt lat="45.14835256352777" lon="8.301763544155948"><ele>161.0</ele><time>2026-04-09T07:07:20Z</time></trkpt><trkpt lat="45.14818122977732" lon="8.301920040283266"><ele>161.0</ele><time>2026-04-09T07:07:21Z</time></trkpt><trkpt lat="45.14801734142855" lon="8.30209612841767"><ele>161.0</ele><time>2026-04-09T07:07:22Z</time></trkpt><trkpt lat="45.147840006923715" lon="8.302254377050174"><ele>161.0</ele><time>2026-04-09T07:07:23Z</time></trkpt><trkpt lat="45.1476643548203" lon="8.302420344648542"><ele>160.33333333333331</ele><time>2026-04-09T07:07:24Z</time></trkpt><trkpt lat="45.14748677891412" lon="8.302586001365619"><ele>159.66666666666666</ele><time>2026-04-09T07:07:25Z</time></trkpt><trkpt lat="45.147308501172674" lon="8.302752697928536"><ele>159.0</ele><time>2026-04-09T07:07:26Z</time></trkpt><trkpt lat="45.14713406925893" lon="8.302929931290052"><ele>159.0</ele><time>2026-04-09T07:07:27Z</time></trkpt><trkpt lat="45.14697151990704" lon="8.303129427813403"><ele>159.0</ele><time>2026-04-09T07:07:28Z</time></trkpt><trkpt lat="45.14682273903937" lon="8.303354594568761"><ele>159.0</ele><time>2026-04-09T07:07:29Z</time></trkpt><trkpt lat="45.146693046014796" lon="8.303599825632926"><ele>159.0</ele><time>2026-04-09T07:07:30Z</time></trkpt><trkpt lat="45.1465758176724" lon="8.303854276419747"><ele>159.0</ele><time>2026-04-09T07:07:31Z</time></trkpt><trkpt lat="45.14647250048057" lon="8.304120533854897"><ele>159.0</ele><time>2026-04-09T07:07:32Z</time></trkpt><trkpt lat="45.14637835199474" lon="8.304391639165756"><ele>157.66666666666666</ele><time>2026-04-09T07:07:33Z</time></trkpt><trkpt lat="45.14629065821294" lon="8.30466944369726"><ele>156.33333333333331</ele><time>2026-04-09T07:07:34Z</time></trkpt><trkpt lat="45.14621134804098" lon="8.304952687200116"><ele>155.0</ele><time>2026-04-09T07:07:35Z</time></trkpt><trkpt lat="45.14613481636058" lon="8.305237839850335"><ele>155.0</ele><time>2026-04-09T07:07:36Z</time></trkpt><trkpt lat="45.146052442767" lon="8.30552271774123"><ele>155.0</ele><time>2026-04-09T07:07:37Z</time></trkpt><trkpt lat="45.14596713103253" lon="8.305805195174493"><ele>155.0</ele><time>2026-04-09T07:07:38Z</time></trkpt><trkpt lat="45.14588392686329" lon="8.306087605352529"><ele>155.0</ele><time>2026-04-09T07:07:39Z</time></trkpt><trkpt lat="45.14580443401993" lon="8.306368900661063"><ele>155.0</ele><time>2026-04-09T07:07:40Z</time></trkpt><trkpt lat="45.14572543396443" lon="8.306646403711134"><ele>155.0</ele><time>2026-04-09T07:07:41Z</time></trkpt><trkpt lat="45.14564636953276" lon="8.30691809504853"><ele>154.33333333333331</ele><time>2026-04-09T07:07:42Z</time></trkpt><trkpt lat="45.14556492305551" lon="8.307184847395252"><ele>153.66666666666666</ele><time>2026-04-09T07:07:43Z</time></trkpt><trkpt lat="45.145468994198716" lon="8.307436833061702"><ele>153.0</ele><time>2026-04-09T07:07:44Z</time></trkpt><trkpt lat="45.145326127329696" lon="8.307639297163037"><ele>153.0</ele><time>2026-04-09T07:07:45Z</time></trkpt><trkpt lat="45.14517096546575" lon="8.3078340641974"><ele>153.0</ele><time>2026-04-09T07:07:46Z</time></trkpt><trkpt lat="45.145022668001694" lon="8.308045017822732"><ele>153.0</ele><time>2026-04-09T07:07:47Z</time></trkpt><trkpt lat="45.14485501980851" lon="8.308228964593512"><ele>154.0</ele><time>2026-04-09T07:07:48Z</time></trkpt><trkpt lat="45.144692046805886" lon="8.308423280879303"><ele>155.0</ele><time>2026-04-09T07:07:49Z</time></trkpt><trkpt lat="45.14452839060469" lon="8.308625380395648"><ele>156.0</ele><time>2026-04-09T07:07:50Z</time></trkpt><trkpt lat="45.14436108574771" lon="8.308829050829926"><ele>156.33333333333334</ele><time>2026-04-09T07:07:51Z</time></trkpt><trkpt lat="45.14419303229377" lon="8.309030459486822"><ele>156.66666666666669</ele><time>2026-04-09T07:07:52Z</time></trkpt><trkpt lat="45.14402962135659" lon="8.309226874522066"><ele>157.0</ele><time>2026-04-09T07:07:53Z</time></trkpt><trkpt lat="45.14386998302519" lon="8.309426311843987"><ele>155.33333333333334</ele><time>2026-04-09T07:07:54Z</time></trkpt><trkpt lat="45.143708698017264" lon="8.309629661533963"><ele>153.66666666666666</ele><time>2026-04-09T07:07:55Z</time></trkpt><trkpt lat="45.1435448952052" lon="8.30983076337979"><ele>152.0</ele><time>2026-04-09T07:07:56Z</time></trkpt><trkpt lat="45.1433804082787" lon="8.310030467162143"><ele>152.0</ele><time>2026-04-09T07:07:57Z</time></trkpt><trkpt lat="45.1432163080779" lon="8.310229736246663"><ele>152.0</ele><time>2026-04-09T07:07:58Z</time></trkpt><trkpt lat="45.14305302793162" lon="8.310427628135514"><ele>152.0</ele><time>2026-04-09T07:07:59Z</time></trkpt><trkpt lat="45.14289083176214" lon="8.310626466317354"><ele>150.66666666666666</ele><time>2026-04-09T07:08:00Z</time></trkpt><trkpt lat="45.142738558392786" lon="8.310835684278807"><ele>149.33333333333334</ele><time>2026-04-09T07:08:01Z</time></trkpt><trkpt lat="45.14260559868988" lon="8.311071172710767"><ele>148.0</ele><time>2026-04-09T07:08:02Z</time></trkpt><trkpt lat="45.14248709513166" lon="8.311322284011842"><ele>147.0</ele><time>2026-04-09T07:08:03Z</time></trkpt><trkpt lat="45.1423814894009" lon="8.311588352156809"><ele>146.0</ele><time>2026-04-09T07:08:04Z</time></trkpt><trkpt lat="45.1422864710374" lon="8.311859031961772"><ele>145.0</ele><time>2026-04-09T07:08:05Z</time></trkpt><trkpt lat="45.142193279088495" lon="8.312132161776821"><ele>145.33333333333334</ele><time>2026-04-09T07:08:06Z</time></trkpt><trkpt lat="45.14209902154705" lon="8.312406057340867"><ele>145.66666666666666</ele><time>2026-04-09T07:08:07Z</time></trkpt><trkpt lat="45.14200290002992" lon="8.312679304785195"><ele>146.0</ele><time>2026-04-09T07:08:08Z</time></trkpt><trkpt lat="45.14190920742501" lon="8.312939394277949"><ele>146.0</ele><time>2026-04-09T07:08:09Z</time></trkpt><trkpt lat="45.1418118266498" lon="8.313207066254197"><ele>146.0</ele><time>2026-04-09T07:08:10Z</time></trkpt><trkpt lat="45.14171741588915" lon="8.313469248162313"><ele>146.0</ele><time>2026-04-09T07:08:11Z</time></trkpt><trkpt lat="45.14162264390151" lon="8.313735387853683"><ele>146.33333333333331</ele><time>2026-04-09T07:08:12Z</time></trkpt><trkpt lat="45.14152460462652" lon="8.314002092135956"><ele>146.66666666666666</ele><time>2026-04-09T07:08:13Z</time></trkpt><trkpt lat="45.14142412852074" lon="8.314269056149792"><ele>147.0</ele><time>2026-04-09T07:08:14Z</time></trkpt><trkpt lat="45.14132922320835" lon="8.314538785394788"><ele>146.66666666666666</ele><time>2026-04-09T07:08:15Z</time></trkpt><trkpt lat="45.141235384956566" lon="8.314810464836446"><ele>146.33333333333331</ele><time>2026-04-09T07:08:16Z</time></trkpt><trkpt lat="45.14113708524549" lon="8.31508317314159"><ele>146.0</ele><time>2026-04-09T07:08:17Z</time></trkpt><trkpt lat="45.14103924753649" lon="8.315358541992738"><ele>146.0</ele><time>2026-04-09T07:08:18Z</time></trkpt><trkpt lat="45.14094212241162" lon="8.315638545524106"><ele>146.0</ele><time>2026-04-09T07:08:19.001Z</time></trkpt><trkpt lat="45.14085011005191" lon="8.315912539059555"><ele>146.0</ele><time>2026-04-09T07:08:20.001Z</time></trkpt><trkpt lat="45.140764294563276" lon="8.316166902506431"><ele>146.0</ele><time>2026-04-09T07:08:21.001Z</time></trkpt><trkpt lat="45.14067917576733" lon="8.316409577877337"><ele>146.0</ele><time>2026-04-09T07:08:22.001Z</time></trkpt><trkpt lat="45.1406002627441" lon="8.31664180652346"><ele>146.0</ele><time>2026-04-09T07:08:23.001Z</time></trkpt><trkpt lat="45.14052434095746" lon="8.316860466474639"><ele>146.0</ele><time>2026-04-09T07:08:24.001Z</time></trkpt><trkpt lat="45.14044225496537" lon="8.317063461907969"><ele>146.0</ele><time>2026-04-09T07:08:25.001Z</time></trkpt><trkpt lat="45.14040191405324" lon="8.317274215347373"><ele>146.0</ele><time>2026-04-09T07:08:26.001Z</time></trkpt><trkpt lat="45.14035561261027" lon="8.31747544626084"><ele>145.0</ele><time>2026-04-09T07:08:27.001Z</time></trkpt><trkpt lat="45.14030275058975" lon="8.317663222248482"><ele>144.0</ele><time>2026-04-09T07:08:28.001Z</time></trkpt><trkpt lat="45.140251296934814" lon="8.317875013108253"><ele>143.0</ele><time>2026-04-09T07:08:29.001Z</time></trkpt><trkpt lat="45.14019834009427" lon="8.31809777808996"><ele>143.0</ele><time>2026-04-09T07:08:30.001Z</time></trkpt><trkpt lat="45.14014678583449" lon="8.31833881254975"><ele>143.0</ele><time>2026-04-09T07:08:31.001Z</time></trkpt><trkpt lat="45.14011545616907" lon="8.31859511725107"><ele>143.0</ele><time>2026-04-09T07:08:32.001Z</time></trkpt><trkpt lat="45.14008866255095" lon="8.318864604984558"><ele>142.33333333333331</ele><time>2026-04-09T07:08:33Z</time></trkpt><trkpt lat="45.14006956161492" lon="8.319153612405977"><ele>141.66666666666666</ele><time>2026-04-09T07:08:34Z</time></trkpt><trkpt lat="45.14005722884838" lon="8.31944745626091"><ele>141.0</ele><time>2026-04-09T07:08:35Z</time></trkpt><trkpt lat="45.14005332532832" lon="8.31974973111179"><ele>141.0</ele><time>2026-04-09T07:08:36Z</time></trkpt><trkpt lat="45.14005431247455" lon="8.320057456073455"><ele>141.0</ele><time>2026-04-09T07:08:37Z</time></trkpt><trkpt lat="45.140054317413764" lon="8.320361002725532"><ele>141.0</ele><time>2026-04-09T07:08:38Z</time></trkpt><trkpt lat="45.1400550973704" lon="8.32064794990922"><ele>141.0</ele><time>2026-04-09T07:08:39Z</time></trkpt><trkpt lat="45.14006943534957" lon="8.320911383359261"><ele>141.0</ele><time>2026-04-09T07:08:40Z</time></trkpt><trkpt lat="45.140079722544485" lon="8.321164733772545"><ele>141.0</ele><time>2026-04-09T07:08:41Z</time></trkpt><trkpt lat="45.140090445027035" lon="8.321406294384275"><ele>140.66666666666666</ele><time>2026-04-09T07:08:42Z</time></trkpt><trkpt lat="45.14009774822853" lon="8.32165016104449"><ele>140.33333333333331</ele><time>2026-04-09T07:08:43Z</time></trkpt><trkpt lat="45.140100482400086" lon="8.321902787061486"><ele>140.0</ele><time>2026-04-09T07:08:44Z</time></trkpt><trkpt lat="45.14010055951919" lon="8.322156708200987"><ele>139.66666666666666</ele><time>2026-04-09T07:08:45Z</time></trkpt><trkpt lat="45.14010330040156" lon="8.322407269016892"><ele>139.33333333333334</ele><time>2026-04-09T07:08:46Z</time></trkpt><trkpt lat="45.14010885717891" lon="8.322660736340259"><ele>139.0</ele><time>2026-04-09T07:08:47Z</time></trkpt><trkpt lat="45.140114272989535" lon="8.322907865367382"><ele>139.0</ele><time>2026-04-09T07:08:48Z</time></trkpt><trkpt lat="45.14011434751368" lon="8.323143646126873"><ele>139.0</ele><time>2026-04-09T07:08:49Z</time></trkpt><trkpt lat="45.14011767042002" lon="8.323368230159607"><ele>139.0</ele><time>2026-04-09T07:08:50Z</time></trkpt><trkpt lat="45.14012555230859" lon="8.323586031477923"><ele>139.0</ele><time>2026-04-09T07:08:51Z</time></trkpt><trkpt lat="45.14013944530264" lon="8.323805199761797"><ele>139.0</ele><time>2026-04-09T07:08:52Z</time></trkpt><trkpt lat="45.14016148734243" lon="8.324031815386201"><ele>139.0</ele><time>2026-04-09T07:08:53Z</time></trkpt><trkpt lat="45.14019643677033" lon="8.32426976763109"><ele>139.66666666666669</ele><time>2026-04-09T07:08:54Z</time></trkpt><trkpt lat="45.14023541494091" lon="8.324507568463574"><ele>140.33333333333334</ele><time>2026-04-09T07:08:55Z</time></trkpt><trkpt lat="45.140277598836676" lon="8.324747408780244"><ele>141.0</ele><time>2026-04-09T07:08:56Z</time></trkpt><trkpt lat="45.14032032380063" lon="8.324990272602635"><ele>141.0</ele><time>2026-04-09T07:08:57Z</time></trkpt><trkpt lat="45.14036275337807" lon="8.325228744600691"><ele>141.0</ele><time>2026-04-09T07:08:58Z</time></trkpt><trkpt lat="45.14040238189076" lon="8.325463045732649"><ele>141.0</ele><time>2026-04-09T07:08:59Z</time></trkpt><trkpt lat="45.14044080093977" lon="8.325690435930573"><ele>140.66666666666666</ele><time>2026-04-09T07:09:00Z</time></trkpt><trkpt lat="45.14047958967098" lon="8.32591274608523"><ele>140.33333333333331</ele><time>2026-04-09T07:09:01Z</time></trkpt><trkpt lat="45.14051788485068" lon="8.326128580051911"><ele>140.0</ele><time>2026-04-09T07:09:02Z</time></trkpt><trkpt lat="45.14056695219541" lon="8.326335708668616"><ele>139.0</ele><time>2026-04-09T07:09:03Z</time></trkpt><trkpt lat="45.140631380590825" lon="8.32653206752227"><ele>138.0</ele><time>2026-04-09T07:09:04Z</time></trkpt><trkpt lat="45.14070957895012" lon="8.326723901130745"><ele>137.0</ele><time>2026-04-09T07:09:05Z</time></trkpt><trkpt lat="45.14080057962378" lon="8.326911369260326"><ele>139.66666666666666</ele><time>2026-04-09T07:09:06Z</time></trkpt><trkpt lat="45.140889403795136" lon="8.327093414564883"><ele>142.33333333333334</ele><time>2026-04-09T07:09:07Z</time></trkpt><trkpt lat="45.14098352182714" lon="8.327275031705467"><ele>145.0</ele><time>2026-04-09T07:09:08Z</time></trkpt><trkpt lat="45.14108002656575" lon="8.327454162273675"><ele>145.0</ele><time>2026-04-09T07:09:09Z</time></trkpt><trkpt lat="45.14117613710473" lon="8.327631858484162"><ele>145.0</ele><time>2026-04-09T07:09:10Z</time></trkpt><trkpt lat="45.14126855935895" lon="8.327799697512509"><ele>145.0</ele><time>2026-04-09T07:09:11Z</time></trkpt><trkpt lat="45.141351527212365" lon="8.327954572240237"><ele>145.0</ele><time>2026-04-09T07:09:12Z</time></trkpt><trkpt lat="45.1414327260721" lon="8.32809942241151"><ele>145.0</ele><time>2026-04-09T07:09:13Z</time></trkpt><trkpt lat="45.14150296078677" lon="8.328236326076299"><ele>145.0</ele><time>2026-04-09T07:09:14Z</time></trkpt><trkpt lat="45.141570051547994" lon="8.32836791028159"><ele>145.0</ele><time>2026-04-09T07:09:15Z</time></trkpt><trkpt lat="45.141635744493435" lon="8.328485863625735"><ele>145.0</ele><time>2026-04-09T07:09:16Z</time></trkpt><trkpt lat="45.14170021811663" lon="8.32859749674783"><ele>145.0</ele><time>2026-04-09T07:09:17Z</time></trkpt><trkpt lat="45.141767761569206" lon="8.328704628927268"><ele>145.2</ele><time>2026-04-09T07:09:18Z</time></trkpt><trkpt lat="45.14183692835526" lon="8.328814058310689"><ele>145.4</ele><time>2026-04-09T07:09:19Z</time></trkpt><trkpt lat="45.14191467153642" lon="8.328922278029388"><ele>145.6</ele><time>2026-04-09T07:09:20Z</time></trkpt><trkpt lat="45.141991357186576" lon="8.329031547369196"><ele>145.8</ele><time>2026-04-09T07:09:21Z</time></trkpt><trkpt lat="45.1420632071312" lon="8.329138379626253"><ele>146.0</ele><time>2026-04-09T07:09:22Z</time></trkpt><trkpt lat="45.14212712882419" lon="8.329229564346008"><ele>146.0</ele><time>2026-04-09T07:09:23Z</time></trkpt><trkpt lat="45.142176625307776" lon="8.329311011200296"><ele>146.0</ele><time>2026-04-09T07:09:24Z</time></trkpt><trkpt lat="45.14223900851989" lon="8.329444521430236"><ele>146.0</ele><time>2026-04-09T07:09:26Z</time></trkpt><trkpt lat="45.142176992781025" lon="8.32958340219931"><ele>146.0</ele><time>2026-04-09T07:09:28Z</time></trkpt><trkpt lat="45.14209090275509" lon="8.32964070151076"><ele>146.0</ele><time>2026-04-09T07:09:29Z</time></trkpt><trkpt lat="45.14200963290097" lon="8.329735046125647"><ele>145.8</ele><time>2026-04-09T07:09:30Z</time></trkpt><trkpt lat="45.141916826945454" lon="8.329827854559078"><ele>145.6</ele><time>2026-04-09T07:09:31Z</time></trkpt><trkpt lat="45.141824976311895" lon="8.329907787062254"><ele>145.4</ele><time>2026-04-09T07:09:32Z</time></trkpt><trkpt lat="45.14174943602751" lon="8.329980801710798"><ele>145.2</ele><time>2026-04-09T07:09:33Z</time></trkpt><trkpt lat="45.14168298722544" lon="8.330094183502172"><ele>145.0</ele><time>2026-04-09T07:09:34Z</time></trkpt><trkpt lat="45.14161634559595" lon="8.330223817199808"><ele>145.0</ele><time>2026-04-09T07:09:35Z</time></trkpt><trkpt lat="45.14156772312036" lon="8.330377467248146"><ele>145.0</ele><time>2026-04-09T07:09:36Z</time></trkpt><trkpt lat="45.141535785519935" lon="8.33053916591337"><ele>145.0</ele><time>2026-04-09T07:09:37Z</time></trkpt><trkpt lat="45.1415243418751" lon="8.330705854900375"><ele>145.0</ele><time>2026-04-09T07:09:38Z</time></trkpt><trkpt lat="45.141534687608114" lon="8.330873639684999"><ele>144.75</ele><time>2026-04-09T07:09:39Z</time></trkpt><trkpt lat="45.14153176926515" lon="8.33103774090587"><ele>144.5</ele><time>2026-04-09T07:09:40Z</time></trkpt><trkpt lat="45.14154838892573" lon="8.331212251626967"><ele>144.25</ele><time>2026-04-09T07:09:41Z</time></trkpt><trkpt lat="45.14156430454405" lon="8.331380875462646"><ele>144.0</ele><time>2026-04-09T07:09:42Z</time></trkpt><trkpt lat="45.141598375959454" lon="8.331566143461712"><ele>143.66666666666666</ele><time>2026-04-09T07:09:43Z</time></trkpt><trkpt lat="45.141638813699814" lon="8.331772140514323"><ele>143.33333333333331</ele><time>2026-04-09T07:09:44Z</time></trkpt><trkpt lat="45.141659492627284" lon="8.331993230579608"><ele>143.0</ele><time>2026-04-09T07:09:45Z</time></trkpt><trkpt lat="45.14169570291822" lon="8.332189134160705"><ele>142.66666666666666</ele><time>2026-04-09T07:09:46Z</time></trkpt><trkpt lat="45.14173695198246" lon="8.332408339108888"><ele>142.33333333333334</ele><time>2026-04-09T07:09:47Z</time></trkpt><trkpt lat="45.141791904503386" lon="8.332640310469294"><ele>142.0</ele><time>2026-04-09T07:09:48Z</time></trkpt><trkpt lat="45.14184980331507" lon="8.332878613683427"><ele>141.75</ele><time>2026-04-09T07:09:49Z</time></trkpt><trkpt lat="45.141870658379325" lon="8.333124788192745"><ele>141.5</ele><time>2026-04-09T07:09:50Z</time></trkpt><trkpt lat="45.1418978330458" lon="8.33325107550027"><ele>141.25</ele><time>2026-04-09T07:09:52Z</time></trkpt><trkpt lat="45.14191352630397" lon="8.333428678756203"><ele>141.0</ele><time>2026-04-09T07:09:53Z</time></trkpt><trkpt lat="45.14194563895932" lon="8.333599418245258"><ele>141.0</ele><time>2026-04-09T07:09:54Z</time></trkpt><trkpt lat="45.14198001610903" lon="8.333769006886106"><ele>141.0</ele><time>2026-04-09T07:09:55Z</time></trkpt><trkpt lat="45.142015631444316" lon="8.333943975949998"><ele>141.0</ele><time>2026-04-09T07:09:56Z</time></trkpt><trkpt lat="45.14205204891817" lon="8.334122887594285"><ele>141.0</ele><time>2026-04-09T07:09:57Z</time></trkpt><trkpt lat="45.1420879642323" lon="8.334292170435628"><ele>140.66666666666666</ele><time>2026-04-09T07:09:58Z</time></trkpt><trkpt lat="45.14211896096678" lon="8.334440313436888"><ele>140.33333333333334</ele><time>2026-04-09T07:09:59Z</time></trkpt><trkpt lat="45.14214693142648" lon="8.334568581970947"><ele>140.0</ele><time>2026-04-09T07:10:00Z</time></trkpt><trkpt lat="45.14217106465636" lon="8.334678814123219"><ele>139.66666666666669</ele><time>2026-04-09T07:10:01Z</time></trkpt><trkpt lat="45.14219358691157" lon="8.33478016960818"><ele>139.33333333333334</ele><time>2026-04-09T07:10:02Z</time></trkpt><trkpt lat="45.14223076444113" lon="8.33486305368572"><ele>139.0</ele><time>2026-04-09T07:10:03Z</time></trkpt><trkpt lat="45.14226025539368" lon="8.335043176632478"><ele>138.8</ele><time>2026-04-09T07:10:05Z</time></trkpt><trkpt lat="45.14229252745733" lon="8.335162876192589"><ele>138.60000000000002</ele><time>2026-04-09T07:10:06Z</time></trkpt><trkpt lat="45.14232725026329" lon="8.33530271673053"><ele>138.4</ele><time>2026-04-09T07:10:07Z</time></trkpt><trkpt lat="45.142376214778416" lon="8.33545657524348"><ele>138.20000000000002</ele><time>2026-04-09T07:10:08Z</time></trkpt><trkpt lat="45.14239146975593" lon="8.335635096043095"><ele>138.0</ele><time>2026-04-09T07:10:09Z</time></trkpt><trkpt lat="45.1424001361919" lon="8.335820682792843"><ele>137.75</ele><time>2026-04-09T07:10:10Z</time></trkpt><trkpt lat="45.142378649571334" lon="8.335995516829565"><ele>137.5</ele><time>2026-04-09T07:10:11Z</time></trkpt><trkpt lat="45.14233711358241" lon="8.336177466021002"><ele>137.25</ele><time>2026-04-09T07:10:12Z</time></trkpt><trkpt lat="45.14228248323259" lon="8.336366523781695"><ele>137.0</ele><time>2026-04-09T07:10:13Z</time></trkpt><trkpt lat="45.142235899759434" lon="8.336593916423409"><ele>136.33333333333331</ele><time>2026-04-09T07:10:14Z</time></trkpt><trkpt lat="45.14216759607634" lon="8.336790526965645"><ele>135.66666666666666</ele><time>2026-04-09T07:10:15Z</time></trkpt><trkpt lat="45.142112098836215" lon="8.336990669157917"><ele>135.0</ele><time>2026-04-09T07:10:16Z</time></trkpt><trkpt lat="45.14205241372984" lon="8.337199266220757"><ele>134.0</ele><time>2026-04-09T07:10:17Z</time></trkpt><trkpt lat="45.14199367707175" lon="8.337422423834703"><ele>133.0</ele><time>2026-04-09T07:10:18Z</time></trkpt><trkpt lat="45.14193578648584" lon="8.337639934821258"><ele>132.0</ele><time>2026-04-09T07:10:19Z</time></trkpt><trkpt lat="45.1418771429571" lon="8.337856745229422"><ele>131.66666666666666</ele><time>2026-04-09T07:10:20Z</time></trkpt><trkpt lat="45.14181281504275" lon="8.338074141722863"><ele>131.33333333333331</ele><time>2026-04-09T07:10:21Z</time></trkpt><trkpt lat="45.141747293222636" lon="8.338295952187789"><ele>131.0</ele><time>2026-04-09T07:10:22Z</time></trkpt><trkpt lat="45.14168409081022" lon="8.338522179453157"><ele>131.0</ele><time>2026-04-09T07:10:23Z</time></trkpt><trkpt lat="45.14162135322529" lon="8.338758549641572"><ele>131.0</ele><time>2026-04-09T07:10:24Z</time></trkpt><trkpt lat="45.14155516774482" lon="8.339001658850165"><ele>131.0</ele><time>2026-04-09T07:10:25.001Z</time></trkpt><trkpt lat="45.14148610215989" lon="8.339250462981829"><ele>131.33333333333331</ele><time>2026-04-09T07:10:26.001Z</time></trkpt><trkpt lat="45.14141822437447" lon="8.339482848664916"><ele>131.66666666666666</ele><time>2026-04-09T07:10:27.001Z</time></trkpt><trkpt lat="45.141348652536315" lon="8.339715982443314"><ele>132.0</ele><time>2026-04-09T07:10:28.001Z</time></trkpt><trkpt lat="45.141283563148384" lon="8.339957476155112"><ele>130.66666666666666</ele><time>2026-04-09T07:10:29.001Z</time></trkpt><trkpt lat="45.14121699525544" lon="8.340198935011347"><ele>129.33333333333331</ele><time>2026-04-09T07:10:30.001Z</time></trkpt><trkpt lat="45.14114916112383" lon="8.340443977690573"><ele>128.0</ele><time>2026-04-09T07:10:31.001Z</time></trkpt><trkpt lat="45.14108118504558" lon="8.340689293681958"><ele>128.0</ele><time>2026-04-09T07:10:32.001Z</time></trkpt><trkpt lat="45.14101331107424" lon="8.340937566126334"><ele>128.0</ele><time>2026-04-09T07:10:33.001Z</time></trkpt><trkpt lat="45.1409478322916" lon="8.341187703445737"><ele>128.0</ele><time>2026-04-09T07:10:34.001Z</time></trkpt><trkpt lat="45.140878515632764" lon="8.341440630889846"><ele>128.0</ele><time>2026-04-09T07:10:35.001Z</time></trkpt><trkpt lat="45.14081143935853" lon="8.341691708901175"><ele>128.0</ele><time>2026-04-09T07:10:36.001Z</time></trkpt><trkpt lat="45.14074074243846" lon="8.341944463755722"><ele>128.0</ele><time>2026-04-09T07:10:37.001Z</time></trkpt><trkpt lat="45.14066921329765" lon="8.342194780864107"><ele>129.0</ele><time>2026-04-09T07:10:38.001Z</time></trkpt><trkpt lat="45.14059960050422" lon="8.342446273920965"><ele>130.0</ele><time>2026-04-09T07:10:39.001Z</time></trkpt><trkpt lat="45.14053014229633" lon="8.342699174420561"><ele>131.0</ele><time>2026-04-09T07:10:40.001Z</time></trkpt><trkpt lat="45.14046373252576" lon="8.342953515946549"><ele>130.33333333333331</ele><time>2026-04-09T07:10:41.001Z</time></trkpt><trkpt lat="45.14039396685257" lon="8.343209443195446"><ele>129.66666666666666</ele><time>2026-04-09T07:10:42.001Z</time></trkpt><trkpt lat="45.140328268228906" lon="8.34346715061846"><ele>129.0</ele><time>2026-04-09T07:10:43.001Z</time></trkpt><trkpt lat="45.14025780259094" lon="8.34372933104066"><ele>128.66666666666666</ele><time>2026-04-09T07:10:44.001Z</time></trkpt><trkpt lat="45.140187016408206" lon="8.343989256961732"><ele>128.33333333333331</ele><time>2026-04-09T07:10:45Z</time></trkpt><trkpt lat="45.14011542173839" lon="8.344248472779455"><ele>128.0</ele><time>2026-04-09T07:10:46Z</time></trkpt><trkpt lat="45.14004524581726" lon="8.344505319771017"><ele>127.66666666666666</ele><time>2026-04-09T07:10:47Z</time></trkpt><trkpt lat="45.13998533295775" lon="8.344756971693617"><ele>127.33333333333334</ele><time>2026-04-09T07:10:48Z</time></trkpt><trkpt lat="45.139900303728" lon="8.345026551302917"><ele>127.0</ele><time>2026-04-09T07:10:49Z</time></trkpt><trkpt lat="45.13982945367584" lon="8.345280182379552"><ele>126.66666666666667</ele><time>2026-04-09T07:10:50Z</time></trkpt><trkpt lat="45.13975745191901" lon="8.345537069818525"><ele>126.33333333333334</ele><time>2026-04-09T07:10:51Z</time></trkpt><trkpt lat="45.13968911065356" lon="8.345782334326632"><ele>126.0</ele><time>2026-04-09T07:10:52Z</time></trkpt><trkpt lat="45.13962435988503" lon="8.346004128438203"><ele>125.66666666666666</ele><time>2026-04-09T07:10:53Z</time></trkpt><trkpt lat="45.13956187573558" lon="8.346223616477563"><ele>125.33333333333333</ele><time>2026-04-09T07:10:54Z</time></trkpt><trkpt lat="45.13949692986341" lon="8.346451045510078"><ele>125.0</ele><time>2026-04-09T07:10:55Z</time></trkpt><trkpt lat="45.13943203432483" lon="8.346684190784872"><ele>125.0</ele><time>2026-04-09T07:10:56Z</time></trkpt><trkpt lat="45.139364723713705" lon="8.346915768040772"><ele>125.0</ele><time>2026-04-09T07:10:57Z</time></trkpt><trkpt lat="45.139295351008656" lon="8.347150206567822"><ele>125.0</ele><time>2026-04-09T07:10:58Z</time></trkpt><trkpt lat="45.1392283978283" lon="8.347381594287596"><ele>125.66666666666666</ele><time>2026-04-09T07:10:59Z</time></trkpt><trkpt lat="45.13916035073062" lon="8.347617967030288"><ele>126.33333333333334</ele><time>2026-04-09T07:11:00Z</time></trkpt><trkpt lat="45.13909209448727" lon="8.347849497941542"><ele>127.0</ele><time>2026-04-09T07:11:01Z</time></trkpt><trkpt lat="45.13902494701803" lon="8.348081063622327"><ele>128.66666666666669</ele><time>2026-04-09T07:11:02Z</time></trkpt><trkpt lat="45.13895903080659" lon="8.348310140536016"><ele>130.33333333333334</ele><time>2026-04-09T07:11:03Z</time></trkpt><trkpt lat="45.1388946581605" lon="8.348531469184666"><ele>132.0</ele><time>2026-04-09T07:11:04Z</time></trkpt><trkpt lat="45.1388293107033" lon="8.348745045487448"><ele>132.75</ele><time>2026-04-09T07:11:05Z</time></trkpt><trkpt lat="45.13876786198168" lon="8.34894898854465"><ele>133.5</ele><time>2026-04-09T07:11:06Z</time></trkpt><trkpt lat="45.138720271551755" lon="8.349143489448574"><ele>134.25</ele><time>2026-04-09T07:11:07Z</time></trkpt><trkpt lat="45.1386902282908" lon="8.349344516267589"><ele>135.0</ele><time>2026-04-09T07:11:08Z</time></trkpt><trkpt lat="45.1386982213986" lon="8.349549123932189"><ele>135.66666666666666</ele><time>2026-04-09T07:11:09Z</time></trkpt><trkpt lat="45.13873761624177" lon="8.34975508604492"><ele>136.33333333333331</ele><time>2026-04-09T07:11:10Z</time></trkpt><trkpt lat="45.138808922596354" lon="8.349948970178582"><ele>137.0</ele><time>2026-04-09T07:11:11Z</time></trkpt><trkpt lat="45.13888686554599" lon="8.350141793014426"><ele>137.0</ele><time>2026-04-09T07:11:12Z</time></trkpt><trkpt lat="45.13895566824364" lon="8.350338532784097"><ele>137.0</ele><time>2026-04-09T07:11:13Z</time></trkpt><trkpt lat="45.13902263351273" lon="8.350541492436674"><ele>137.0</ele><time>2026-04-09T07:11:14Z</time></trkpt><trkpt lat="45.139088983911925" lon="8.350739320571577"><ele>137.75</ele><time>2026-04-09T07:11:15Z</time></trkpt><trkpt lat="45.139150052131754" lon="8.350932162542911"><ele>138.5</ele><time>2026-04-09T07:11:16Z</time></trkpt><trkpt lat="45.1392011849178" lon="8.351106573002756"><ele>139.25</ele><time>2026-04-09T07:11:17Z</time></trkpt><trkpt lat="45.13923846610843" lon="8.351277391526954"><ele>140.0</ele><time>2026-04-09T07:11:18Z</time></trkpt><trkpt lat="45.1392479639326" lon="8.351447847736722"><ele>141.75</ele><time>2026-04-09T07:11:19Z</time></trkpt><trkpt lat="45.13922204243011" lon="8.351618338285892"><ele>143.5</ele><time>2026-04-09T07:11:20Z</time></trkpt><trkpt lat="45.139154881663984" lon="8.351774915348898"><ele>145.25</ele><time>2026-04-09T07:11:21Z</time></trkpt><trkpt lat="45.13906104254746" lon="8.351910483339154"><ele>147.0</ele><time>2026-04-09T07:11:22Z</time></trkpt><trkpt lat="45.13896725485408" lon="8.35204251104501"><ele>149.25</ele><time>2026-04-09T07:11:23Z</time></trkpt><trkpt lat="45.13888478105349" lon="8.352190728349454"><ele>151.5</ele><time>2026-04-09T07:11:24Z</time></trkpt><trkpt lat="45.13881973880754" lon="8.352353628878276"><ele>153.75</ele><time>2026-04-09T07:11:25Z</time></trkpt><trkpt lat="45.138781652333385" lon="8.352529964022306"><ele>156.0</ele><time>2026-04-09T07:11:26Z</time></trkpt><trkpt lat="45.13878526523808" lon="8.352711130476543"><ele>155.75</ele><time>2026-04-09T07:11:27Z</time></trkpt><trkpt lat="45.13882604564042" lon="8.352883798006081"><ele>155.5</ele><time>2026-04-09T07:11:28Z</time></trkpt><trkpt lat="45.1389094567221" lon="8.353028872757836"><ele>155.25</ele><time>2026-04-09T07:11:29Z</time></trkpt><trkpt lat="45.139026591313886" lon="8.353139846722337"><ele>155.0</ele><time>2026-04-09T07:11:30Z</time></trkpt><trkpt lat="45.13915791269671" lon="8.353211273607222"><ele>155.0</ele><time>2026-04-09T07:11:31Z</time></trkpt><trkpt lat="45.13929863472238" lon="8.353252643392686"><ele>155.0</ele><time>2026-04-09T07:11:32Z</time></trkpt><trkpt lat="45.139447132990284" lon="8.353271560672031"><ele>155.0</ele><time>2026-04-09T07:11:33Z</time></trkpt><trkpt lat="45.139599963168976" lon="8.353269579378159"><ele>155.0</ele><time>2026-04-09T07:11:34Z</time></trkpt><trkpt lat="45.139754494160144" lon="8.353248663730609"><ele>156.33333333333331</ele><time>2026-04-09T07:11:35Z</time></trkpt><trkpt lat="45.13990422334532" lon="8.353192321375754"><ele>157.66666666666666</ele><time>2026-04-09T07:11:36Z</time></trkpt><trkpt lat="45.14004090912684" lon="8.353092047323095"><ele>159.0</ele><time>2026-04-09T07:11:37Z</time></trkpt><trkpt lat="45.14015699897742" lon="8.352943593498987"><ele>159.0</ele><time>2026-04-09T07:11:38Z</time></trkpt><trkpt lat="45.14025236637278" lon="8.352765108519987"><ele>159.0</ele><time>2026-04-09T07:11:39Z</time></trkpt><trkpt lat="45.14032867608733" lon="8.352561272877924"><ele>159.0</ele><time>2026-04-09T07:11:40Z</time></trkpt><trkpt lat="45.140393846779574" lon="8.352358707675531"><ele>158.0</ele><time>2026-04-09T07:11:41Z</time></trkpt><trkpt lat="45.1404735608938" lon="8.352181807236258"><ele>157.0</ele><time>2026-04-09T07:11:42Z</time></trkpt><trkpt lat="45.14053699297275" lon="8.352014419848324"><ele>156.0</ele><time>2026-04-09T07:11:43Z</time></trkpt><trkpt lat="45.14059250394523" lon="8.351876926465456"><ele>155.0</ele><time>2026-04-09T07:11:44Z</time></trkpt><trkpt lat="45.14065379946353" lon="8.351780648498979"><ele>157.2</ele><time>2026-04-09T07:11:45Z</time></trkpt><trkpt lat="45.140726847352745" lon="8.35169938865747"><ele>159.4</ele><time>2026-04-09T07:11:46Z</time></trkpt><trkpt lat="45.14082636858865" lon="8.351696450085559"><ele>161.60000000000002</ele><time>2026-04-09T07:11:47Z</time></trkpt><trkpt lat="45.14092096199457" lon="8.351764759083352"><ele>163.8</ele><time>2026-04-09T07:11:48Z</time></trkpt><trkpt lat="45.14098902022654" lon="8.351890279302216"><ele>166.0</ele><time>2026-04-09T07:11:49Z</time></trkpt><trkpt lat="45.1410077925454" lon="8.352060061001742"><ele>167.33333333333334</ele><time>2026-04-09T07:11:50Z</time></trkpt><trkpt lat="45.14098669679522" lon="8.352257238219122"><ele>168.66666666666666</ele><time>2026-04-09T07:11:51Z</time></trkpt><trkpt lat="45.14094811886421" lon="8.352473865492232"><ele>170.0</ele><time>2026-04-09T07:11:52Z</time></trkpt><trkpt lat="45.14090740390514" lon="8.352690279794453"><ele>170.0</ele><time>2026-04-09T07:11:53Z</time></trkpt><trkpt lat="45.1408638519057" lon="8.352916320871389"><ele>170.0</ele><time>2026-04-09T07:11:54Z</time></trkpt><trkpt lat="45.140811308250335" lon="8.35316142476671"><ele>170.0</ele><time>2026-04-09T07:11:55Z</time></trkpt><trkpt lat="45.14075139223481" lon="8.353418128011636"><ele>170.0</ele><time>2026-04-09T07:11:56Z</time></trkpt><trkpt lat="45.14069416250224" lon="8.353676607393439"><ele>170.0</ele><time>2026-04-09T07:11:57Z</time></trkpt><trkpt lat="45.140640583754305" lon="8.353920309570693"><ele>170.0</ele><time>2026-04-09T07:11:58Z</time></trkpt><trkpt lat="45.14059393675684" lon="8.35415000666475"><ele>170.0</ele><time>2026-04-09T07:11:59Z</time></trkpt><trkpt lat="45.14055170209258" lon="8.354371284106646"><ele>170.0</ele><time>2026-04-09T07:12:00Z</time></trkpt><trkpt lat="45.14052373211802" lon="8.35460162415647"><ele>170.0</ele><time>2026-04-09T07:12:01Z</time></trkpt><trkpt lat="45.14050940478768" lon="8.35484806390388"><ele>172.33333333333331</ele><time>2026-04-09T07:12:02Z</time></trkpt><trkpt lat="45.14051058653998" lon="8.355124124321078"><ele>174.66666666666666</ele><time>2026-04-09T07:12:03Z</time></trkpt><trkpt lat="45.14052526550092" lon="8.355402868010483"><ele>177.0</ele><time>2026-04-09T07:12:04Z</time></trkpt><trkpt lat="45.14054195932159" lon="8.355655811607233"><ele>179.33333333333334</ele><time>2026-04-09T07:12:05Z</time></trkpt><trkpt lat="45.14055086426458" lon="8.355875689860557"><ele>181.66666666666669</ele><time>2026-04-09T07:12:06Z</time></trkpt><trkpt lat="45.140538465990254" lon="8.356087767253559"><ele>184.0</ele><time>2026-04-09T07:12:07Z</time></trkpt><trkpt lat="45.140465514961306" lon="8.356281733670084"><ele>187.0</ele><time>2026-04-09T07:12:08Z</time></trkpt><trkpt lat="45.14038122780036" lon="8.356467717376765"><ele>190.0</ele><time>2026-04-09T07:12:09Z</time></trkpt><trkpt lat="45.140272030455" lon="8.356641263021741"><ele>193.0</ele><time>2026-04-09T07:12:10Z</time></trkpt><trkpt lat="45.1401280721963" lon="8.35677501808739"><ele>193.0</ele><time>2026-04-09T07:12:11Z</time></trkpt><trkpt lat="45.139970507262085" lon="8.356880888455056"><ele>193.0</ele><time>2026-04-09T07:12:12Z</time></trkpt><trkpt lat="45.13980802580779" lon="8.356926596152409"><ele>193.0</ele><time>2026-04-09T07:12:13Z</time></trkpt><trkpt lat="45.13965315569495" lon="8.356930743403849"><ele>195.0</ele><time>2026-04-09T07:12:14Z</time></trkpt><trkpt lat="45.13949407042638" lon="8.356900911423882"><ele>197.0</ele><time>2026-04-09T07:12:15Z</time></trkpt><trkpt lat="45.139342768647886" lon="8.356829692148608"><ele>199.0</ele><time>2026-04-09T07:12:16Z</time></trkpt><trkpt lat="45.139202955944725" lon="8.356725789367509"><ele>199.0</ele><time>2026-04-09T07:12:17Z</time></trkpt><trkpt lat="45.13906681843029" lon="8.356650879151184"><ele>199.0</ele><time>2026-04-09T07:12:18Z</time></trkpt><trkpt lat="45.138951157378294" lon="8.356557790446153"><ele>199.0</ele><time>2026-04-09T07:12:19Z</time></trkpt><trkpt lat="45.138826973907186" lon="8.356500187325175"><ele>199.0</ele><time>2026-04-09T07:12:20Z</time></trkpt><trkpt lat="45.13870925815579" lon="8.35648301704738"><ele>199.0</ele><time>2026-04-09T07:12:21Z</time></trkpt><trkpt lat="45.13859578242272" lon="8.356501227531314"><ele>199.0</ele><time>2026-04-09T07:12:22Z</time></trkpt><trkpt lat="45.1384888651882" lon="8.356570201833987"><ele>199.0</ele><time>2026-04-09T07:12:23Z</time></trkpt><trkpt lat="45.13840961706764" lon="8.356717607165159"><ele>199.0</ele><time>2026-04-09T07:12:24Z</time></trkpt><trkpt lat="45.13837010527573" lon="8.356895535948368"><ele>199.0</ele><time>2026-04-09T07:12:25Z</time></trkpt><trkpt lat="45.138346946408994" lon="8.357086862307586"><ele>199.0</ele><time>2026-04-09T07:12:26Z</time></trkpt><trkpt lat="45.1383327678871" lon="8.35729708063874"><ele>199.0</ele><time>2026-04-09T07:12:27Z</time></trkpt><trkpt lat="45.13832139355258" lon="8.357512262399654"><ele>199.0</ele><time>2026-04-09T07:12:28Z</time></trkpt><trkpt lat="45.138315398296896" lon="8.357723166944133"><ele>202.0</ele><time>2026-04-09T07:12:29Z</time></trkpt><trkpt lat="45.13831630646768" lon="8.357961804388992"><ele>205.0</ele><time>2026-04-09T07:12:30Z</time></trkpt><trkpt lat="45.1383210552443" lon="8.358196581051303"><ele>208.0</ele><time>2026-04-09T07:12:31.001Z</time></trkpt><trkpt lat="45.13832766011032" lon="8.358427231751769"><ele>210.0</ele><time>2026-04-09T07:12:32.001Z</time></trkpt><trkpt lat="45.13833587229477" lon="8.358657154568158"><ele>212.0</ele><time>2026-04-09T07:12:33.001Z</time></trkpt><trkpt lat="45.138343434749906" lon="8.358880523593132"><ele>214.0</ele><time>2026-04-09T07:12:34.001Z</time></trkpt><trkpt lat="45.1383479228023" lon="8.359087095079671"><ele>214.75</ele><time>2026-04-09T07:12:35.001Z</time></trkpt><trkpt lat="45.138350943978864" lon="8.359279046012679"><ele>215.5</ele><time>2026-04-09T07:12:36.001Z</time></trkpt><trkpt lat="45.138367961398814" lon="8.35946084088141"><ele>216.25</ele><time>2026-04-09T07:12:37.001Z</time></trkpt><trkpt lat="45.138384747606345" lon="8.359641155075419"><ele>217.0</ele><time>2026-04-09T07:12:38.001Z</time></trkpt><trkpt lat="45.13841642302461" lon="8.359804677061772"><ele>217.6</ele><time>2026-04-09T07:12:39.001Z</time></trkpt><trkpt lat="45.13845514314513" lon="8.359947785639921"><ele>218.2</ele><time>2026-04-09T07:12:40.001Z</time></trkpt><trkpt lat="45.13848265748801" lon="8.360052447694903"><ele>218.8</ele><time>2026-04-09T07:12:41.001Z</time></trkpt><trkpt lat="45.13851374115054" lon="8.360218275366847"><ele>219.4</ele><time>2026-04-09T07:12:43.001Z</time></trkpt><trkpt lat="45.1385416493197" lon="8.360346835046546"><ele>220.0</ele><time>2026-04-09T07:12:44.001Z</time></trkpt><trkpt lat="45.138584286647145" lon="8.360512104975749"><ele>220.0</ele><time>2026-04-09T07:12:45Z</time></trkpt><trkpt lat="45.13862397507928" lon="8.360682266184108"><ele>220.0</ele><time>2026-04-09T07:12:46Z</time></trkpt><trkpt lat="45.138661657433545" lon="8.360850476429668"><ele>220.0</ele><time>2026-04-09T07:12:47Z</time></trkpt><trkpt lat="45.13870331821254" lon="8.361037451575113"><ele>220.0</ele><time>2026-04-09T07:12:48Z</time></trkpt><trkpt lat="45.13875810970712" lon="8.361232921502342"><ele>218.5</ele><time>2026-04-09T07:12:49Z</time></trkpt><trkpt lat="45.13879577026258" lon="8.361433685532418"><ele>217.0</ele><time>2026-04-09T07:12:50Z</time></trkpt><trkpt lat="45.13883244040232" lon="8.361637171496414"><ele>215.5</ele><time>2026-04-09T07:12:51Z</time></trkpt><trkpt lat="45.1388724216023" lon="8.361846656448513"><ele>214.0</ele><time>2026-04-09T07:12:52Z</time></trkpt><trkpt lat="45.138916596017005" lon="8.362057958689098"><ele>215.33333333333331</ele><time>2026-04-09T07:12:53Z</time></trkpt><trkpt lat="45.13896676581435" lon="8.36227519607299"><ele>216.66666666666669</ele><time>2026-04-09T07:12:54Z</time></trkpt><trkpt lat="45.139018293687954" lon="8.362491259433813"><ele>218.0</ele><time>2026-04-09T07:12:55Z</time></trkpt><trkpt lat="45.13906488670134" lon="8.362700556987205"><ele>218.0</ele><time>2026-04-09T07:12:56Z</time></trkpt><trkpt lat="45.139111110743926" lon="8.362905910568516"><ele>218.0</ele><time>2026-04-09T07:12:57Z</time></trkpt><trkpt lat="45.13916036115864" lon="8.363105616371332"><ele>218.0</ele><time>2026-04-09T07:12:58Z</time></trkpt><trkpt lat="45.13920430722666" lon="8.36330689533364"><ele>218.25</ele><time>2026-04-09T07:12:59Z</time></trkpt><trkpt lat="45.139248279048175" lon="8.363505585622939"><ele>218.5</ele><time>2026-04-09T07:13:00Z</time></trkpt><trkpt lat="45.139283859267934" lon="8.363701110882168"><ele>218.75</ele><time>2026-04-09T07:13:01Z</time></trkpt><trkpt lat="45.13930640979107" lon="8.363888597175535"><ele>219.0</ele><time>2026-04-09T07:13:02Z</time></trkpt><trkpt lat="45.13932941877626" lon="8.364072510700186"><ele>219.0</ele><time>2026-04-09T07:13:03Z</time></trkpt><trkpt lat="45.13934884358586" lon="8.364250811608535"><ele>219.0</ele><time>2026-04-09T07:13:04Z</time></trkpt><trkpt lat="45.13936822268401" lon="8.364421863294845"><ele>219.0</ele><time>2026-04-09T07:13:05Z</time></trkpt><trkpt lat="45.13937684720578" lon="8.364587062854927"><ele>219.0</ele><time>2026-04-09T07:13:06Z</time></trkpt><trkpt lat="45.13936878115774" lon="8.364745972407661"><ele>218.0</ele><time>2026-04-09T07:13:07Z</time></trkpt><trkpt lat="45.13932203803635" lon="8.36489284890375"><ele>216.99999999999997</ele><time>2026-04-09T07:13:08Z</time></trkpt><trkpt lat="45.1392821165465" lon="8.365034867221317"><ele>215.99999999999997</ele><time>2026-04-09T07:13:09Z</time></trkpt><trkpt lat="45.139241354826666" lon="8.365174991851523"><ele>215.0</ele><time>2026-04-09T07:13:10Z</time></trkpt><trkpt lat="45.13918649237609" lon="8.36530802658091"><ele>214.0</ele><time>2026-04-09T07:13:11Z</time></trkpt><trkpt lat="45.13912267537448" lon="8.365448241607545"><ele>212.25</ele><time>2026-04-09T07:13:12Z</time></trkpt><trkpt lat="45.13905156017919" lon="8.365586497553778"><ele>210.5</ele><time>2026-04-09T07:13:13Z</time></trkpt><trkpt lat="45.138972293027315" lon="8.365726430316075"><ele>208.75</ele><time>2026-04-09T07:13:14Z</time></trkpt><trkpt lat="45.138905959559025" lon="8.365879679947858"><ele>207.0</ele><time>2026-04-09T07:13:15Z</time></trkpt><trkpt lat="45.13885310430074" lon="8.366038180864257"><ele>206.5</ele><time>2026-04-09T07:13:16Z</time></trkpt><trkpt lat="45.13881456150965" lon="8.366202516321746"><ele>206.0</ele><time>2026-04-09T07:13:17Z</time></trkpt><trkpt lat="45.13878719126301" lon="8.366368160194973"><ele>205.5</ele><time>2026-04-09T07:13:18Z</time></trkpt><trkpt lat="45.13876750591015" lon="8.366537496195415"><ele>205.0</ele><time>2026-04-09T07:13:19Z</time></trkpt><trkpt lat="45.138754104175106" lon="8.36670904001592"><ele>205.0</ele><time>2026-04-09T07:13:20Z</time></trkpt><trkpt lat="45.13874386138872" lon="8.366879484763137"><ele>205.0</ele><time>2026-04-09T07:13:21Z</time></trkpt><trkpt lat="45.13873840955322" lon="8.36705019588661"><ele>205.0</ele><time>2026-04-09T07:13:22Z</time></trkpt><trkpt lat="45.13873637155238" lon="8.367219541407467"><ele>205.0</ele><time>2026-04-09T07:13:23Z</time></trkpt><trkpt lat="45.1387361644055" lon="8.367387530045454"><ele>205.0</ele><time>2026-04-09T07:13:24Z</time></trkpt><trkpt lat="45.138740166751646" lon="8.367555288183052"><ele>205.0</ele><time>2026-04-09T07:13:25Z</time></trkpt><trkpt lat="45.13874624909463" lon="8.367720748009626"><ele>205.0</ele><time>2026-04-09T07:13:26Z</time></trkpt><trkpt lat="45.138758673267716" lon="8.367881360601588"><ele>205.0</ele><time>2026-04-09T07:13:27Z</time></trkpt><trkpt lat="45.13877455147571" lon="8.368038871978301"><ele>205.0</ele><time>2026-04-09T07:13:28Z</time></trkpt><trkpt lat="45.13878940794552" lon="8.368197614828523"><ele>205.0</ele><time>2026-04-09T07:13:29Z</time></trkpt><trkpt lat="45.13879341609206" lon="8.368361701647698"><ele>205.0</ele><time>2026-04-09T07:13:30Z</time></trkpt><trkpt lat="45.13879056210812" lon="8.368531058144459"><ele>205.0</ele><time>2026-04-09T07:13:31Z</time></trkpt><trkpt lat="45.13878224652306" lon="8.36869957692654"><ele>203.5</ele><time>2026-04-09T07:13:32Z</time></trkpt><trkpt lat="45.13877378971194" lon="8.368865017187938"><ele>202.0</ele><time>2026-04-09T07:13:33Z</time></trkpt><trkpt lat="45.13876343361555" lon="8.36902866227081"><ele>200.5</ele><time>2026-04-09T07:13:34Z</time></trkpt><trkpt lat="45.13875144415389" lon="8.369193506951948"><ele>199.0</ele><time>2026-04-09T07:13:35Z</time></trkpt><trkpt lat="45.13874386045837" lon="8.369359392931122"><ele>199.0</ele><time>2026-04-09T07:13:36Z</time></trkpt><trkpt lat="45.138748403012656" lon="8.369534740914254"><ele>199.0</ele><time>2026-04-09T07:13:37Z</time></trkpt><trkpt lat="45.13876360281315" lon="8.36971014800303"><ele>199.0</ele><time>2026-04-09T07:13:38Z</time></trkpt><trkpt lat="45.138792084986825" lon="8.369885910585216"><ele>199.0</ele><time>2026-04-09T07:13:39Z</time></trkpt><trkpt lat="45.13883849722342" lon="8.370064662716153"><ele>197.75</ele><time>2026-04-09T07:13:40Z</time></trkpt><trkpt lat="45.13887617688432" lon="8.370257181501676"><ele>196.5</ele><time>2026-04-09T07:13:41Z</time></trkpt><trkpt lat="45.138907228714366" lon="8.370447707319574"><ele>195.25</ele><time>2026-04-09T07:13:42Z</time></trkpt><trkpt lat="45.13893937477741" lon="8.370653275187316"><ele>194.0</ele><time>2026-04-09T07:13:43Z</time></trkpt><trkpt lat="45.13897247712821" lon="8.370878143583688"><ele>192.33333333333334</ele><time>2026-04-09T07:13:44Z</time></trkpt><trkpt lat="45.13900360724051" lon="8.3711029177553"><ele>190.66666666666669</ele><time>2026-04-09T07:13:45Z</time></trkpt><trkpt lat="45.13903424753846" lon="8.371331719500976"><ele>189.0</ele><time>2026-04-09T07:13:46Z</time></trkpt><trkpt lat="45.139057939853764" lon="8.37156061891054"><ele>188.33333333333334</ele><time>2026-04-09T07:13:47Z</time></trkpt><trkpt lat="45.139081942625225" lon="8.371789523872877"><ele>187.66666666666669</ele><time>2026-04-09T07:13:48Z</time></trkpt><trkpt lat="45.13910492635618" lon="8.372016600165555"><ele>187.0</ele><time>2026-04-09T07:13:49Z</time></trkpt><trkpt lat="45.139124216367904" lon="8.372245209452192"><ele>187.0</ele><time>2026-04-09T07:13:50Z</time></trkpt><trkpt lat="45.139141404675456" lon="8.372471804065386"><ele>187.0</ele><time>2026-04-09T07:13:51Z</time></trkpt><trkpt lat="45.139158260619155" lon="8.372694204911063"><ele>187.0</ele><time>2026-04-09T07:13:52Z</time></trkpt><trkpt lat="45.13917638954217" lon="8.372919523391134"><ele>187.25</ele><time>2026-04-09T07:13:53Z</time></trkpt><trkpt lat="45.13919564696183" lon="8.373138776192501"><ele>187.5</ele><time>2026-04-09T07:13:54Z</time></trkpt><trkpt lat="45.13921115043533" lon="8.373343055720788"><ele>187.75</ele><time>2026-04-09T07:13:55Z</time></trkpt><trkpt lat="45.13923327793851" lon="8.373549529197758"><ele>188.0</ele><time>2026-04-09T07:13:56Z</time></trkpt><trkpt lat="45.139248846713414" lon="8.37374317519114"><ele>187.75</ele><time>2026-04-09T07:13:57Z</time></trkpt><trkpt lat="45.13925804760405" lon="8.373939267951567"><ele>187.5</ele><time>2026-04-09T07:13:58Z</time></trkpt><trkpt lat="45.139265570866286" lon="8.37414144146009"><ele>187.25</ele><time>2026-04-09T07:13:59Z</time></trkpt><trkpt lat="45.13927175188438" lon="8.37434822390144"><ele>187.0</ele><time>2026-04-09T07:14:00Z</time></trkpt><trkpt lat="45.139277085697536" lon="8.374560518939504"><ele>186.75</ele><time>2026-04-09T07:14:01Z</time></trkpt><trkpt lat="45.139280760123846" lon="8.374774400542266"><ele>186.5</ele><time>2026-04-09T07:14:02Z</time></trkpt><trkpt lat="45.139284172548344" lon="8.374983781000555"><ele>186.25</ele><time>2026-04-09T07:14:03Z</time></trkpt><trkpt lat="45.139289351095954" lon="8.375187728648942"><ele>186.0</ele><time>2026-04-09T07:14:04Z</time></trkpt><trkpt lat="45.1392956300931" lon="8.375389549464561"><ele>186.25</ele><time>2026-04-09T07:14:05Z</time></trkpt><trkpt lat="45.139302149389266" lon="8.37558749946434"><ele>186.5</ele><time>2026-04-09T07:14:06Z</time></trkpt><trkpt lat="45.139307302580384" lon="8.375782299289211"><ele>186.75</ele><time>2026-04-09T07:14:07Z</time></trkpt><trkpt lat="45.13931161543585" lon="8.37597706461967"><ele>187.0</ele><time>2026-04-09T07:14:08Z</time></trkpt><trkpt lat="45.139315769457305" lon="8.376168276310016"><ele>186.75</ele><time>2026-04-09T07:14:09Z</time></trkpt><trkpt lat="45.1393175149614" lon="8.376365079593647"><ele>186.5</ele><time>2026-04-09T07:14:10Z</time></trkpt><trkpt lat="45.13932460889164" lon="8.376573505358975"><ele>186.25</ele><time>2026-04-09T07:14:11Z</time></trkpt><trkpt lat="45.13934296523368" lon="8.3767928168037"><ele>186.0</ele><time>2026-04-09T07:14:12Z</time></trkpt><trkpt lat="45.1393761764304" lon="8.377017778649137"><ele>185.0</ele><time>2026-04-09T07:14:13Z</time></trkpt><trkpt lat="45.13942129894874" lon="8.377247991653602"><ele>184.0</ele><time>2026-04-09T07:14:14Z</time></trkpt><trkpt lat="45.13946988511803" lon="8.377477433305998"><ele>183.0</ele><time>2026-04-09T07:14:15Z</time></trkpt><trkpt lat="45.139511153682854" lon="8.377704772361907"><ele>183.0</ele><time>2026-04-09T07:14:16Z</time></trkpt><trkpt lat="45.13955310122476" lon="8.377935960500176"><ele>183.0</ele><time>2026-04-09T07:14:17Z</time></trkpt><trkpt lat="45.139601247554" lon="8.378163450648808"><ele>183.0</ele><time>2026-04-09T07:14:18Z</time></trkpt><trkpt lat="45.13964377799227" lon="8.378385354605221"><ele>181.0</ele><time>2026-04-09T07:14:19Z</time></trkpt><trkpt lat="45.13968603338011" lon="8.378606022745876"><ele>179.0</ele><time>2026-04-09T07:14:20Z</time></trkpt><trkpt lat="45.13972695255536" lon="8.378817919853654"><ele>177.0</ele><time>2026-04-09T07:14:21Z</time></trkpt><trkpt lat="45.139764822841244" lon="8.379018531190134"><ele>175.5</ele><time>2026-04-09T07:14:22Z</time></trkpt><trkpt lat="45.13980716126161" lon="8.37921999457695"><ele>174.0</ele><time>2026-04-09T07:14:23Z</time></trkpt><trkpt lat="45.13984613994906" lon="8.379418104177452"><ele>172.5</ele><time>2026-04-09T07:14:24Z</time></trkpt><trkpt lat="45.13988297607088" lon="8.379615806731204"><ele>171.0</ele><time>2026-04-09T07:14:25Z</time></trkpt><trkpt lat="45.13991783219927" lon="8.379814770237902"><ele>170.0</ele><time>2026-04-09T07:14:26Z</time></trkpt><trkpt lat="45.139948014003934" lon="8.379997309583493"><ele>169.0</ele><time>2026-04-09T07:14:27Z</time></trkpt><trkpt lat="45.13997885176309" lon="8.380170809279832"><ele>168.0</ele><time>2026-04-09T07:14:28Z</time></trkpt><trkpt lat="45.140001037290894" lon="8.380331415697757"><ele>167.0</ele><time>2026-04-09T07:14:29Z</time></trkpt><trkpt lat="45.14002702015554" lon="8.380481800805129"><ele>166.66666666666666</ele><time>2026-04-09T07:14:30Z</time></trkpt><trkpt lat="45.1400513000547" lon="8.380616171152864"><ele>166.33333333333331</ele><time>2026-04-09T07:14:31Z</time></trkpt><trkpt lat="45.14006990595258" lon="8.380728929677327"><ele>166.0</ele><time>2026-04-09T07:14:32Z</time></trkpt><trkpt lat="45.14007033933971" lon="8.380836178409181"><ele>165.66666666666666</ele><time>2026-04-09T07:14:33Z</time></trkpt><trkpt lat="45.14004625369279" lon="8.380929697712626"><ele>165.33333333333334</ele><time>2026-04-09T07:14:34Z</time></trkpt><trkpt lat="45.13998995970039" lon="8.381014659334385"><ele>165.0</ele><time>2026-04-09T07:14:35Z</time></trkpt><trkpt lat="45.13991217586559" lon="8.3810715695072"><ele>164.33333333333334</ele><time>2026-04-09T07:14:36Z</time></trkpt><trkpt lat="45.139834062468736" lon="8.381101974784386"><ele>163.66666666666666</ele><time>2026-04-09T07:14:37Z</time></trkpt><trkpt lat="45.13976404208583" lon="8.3811238688125"><ele>163.0</ele><time>2026-04-09T07:14:38Z</time></trkpt><trkpt lat="45.13969649577338" lon="8.381148010407196"><ele>162.33333333333331</ele><time>2026-04-09T07:14:39Z</time></trkpt><trkpt lat="45.13959483162934" lon="8.381241267660165"><ele>161.66666666666666</ele><time>2026-04-09T07:14:41Z</time></trkpt><trkpt lat="45.139587337608596" lon="8.381387893463588"><ele>161.0</ele><time>2026-04-09T07:14:43Z</time></trkpt><trkpt lat="45.139619130688025" lon="8.381466488984021"><ele>160.28571428571428</ele><time>2026-04-09T07:14:44Z</time></trkpt><trkpt lat="45.13967393309114" lon="8.381515586774306"><ele>159.57142857142856</ele><time>2026-04-09T07:14:45Z</time></trkpt><trkpt lat="45.1397414406331" lon="8.381562754663891"><ele>158.85714285714286</ele><time>2026-04-09T07:14:46Z</time></trkpt><trkpt lat="45.13980270896278" lon="8.381616857471977"><ele>158.14285714285714</ele><time>2026-04-09T07:14:47Z</time></trkpt><trkpt lat="45.13986061530872" lon="8.381669991080734"><ele>157.42857142857142</ele><time>2026-04-09T07:14:48Z</time></trkpt><trkpt lat="45.13991523004127" lon="8.381725111123382"><ele>156.71428571428572</ele><time>2026-04-09T07:14:49Z</time></trkpt><trkpt lat="45.13997365878793" lon="8.381776358884128"><ele>156.0</ele><time>2026-04-09T07:14:50Z</time></trkpt><trkpt lat="45.14003511415271" lon="8.381820806640707"><ele>156.0</ele><time>2026-04-09T07:14:51Z</time></trkpt><trkpt lat="45.14010250119368" lon="8.381861058472602"><ele>156.0</ele><time>2026-04-09T07:14:52Z</time></trkpt><trkpt lat="45.14016168287451" lon="8.381921062156383"><ele>156.0</ele><time>2026-04-09T07:14:53Z</time></trkpt><trkpt lat="45.14020219579202" lon="8.38201639091063"><ele>156.0</ele><time>2026-04-09T07:14:54Z</time></trkpt><trkpt lat="45.140215145245364" lon="8.382128428705766"><ele>156.0</ele><time>2026-04-09T07:14:55Z</time></trkpt><trkpt lat="45.14019251810889" lon="8.382223671337576"><ele>156.0</ele><time>2026-04-09T07:14:56Z</time></trkpt><trkpt lat="45.14013120152644" lon="8.382288496614974"><ele>154.66666666666666</ele><time>2026-04-09T07:14:57Z</time></trkpt><trkpt lat="45.14004498097404" lon="8.3823037739938"><ele>153.33333333333334</ele><time>2026-04-09T07:14:58Z</time></trkpt><trkpt lat="45.13995723735011" lon="8.382279435846435"><ele>152.0</ele><time>2026-04-09T07:14:59Z</time></trkpt><trkpt lat="45.139876704753284" lon="8.3822513820908"><ele>150.66666666666669</ele><time>2026-04-09T07:15:00Z</time></trkpt><trkpt lat="45.139801604548" lon="8.382228020514095"><ele>149.33333333333334</ele><time>2026-04-09T07:15:01Z</time></trkpt><trkpt lat="45.1397298585755" lon="8.38221254471273"><ele>148.0</ele><time>2026-04-09T07:15:02Z</time></trkpt><trkpt lat="45.139659539493586" lon="8.382212216748712"><ele>147.0</ele><time>2026-04-09T07:15:03Z</time></trkpt><trkpt lat="45.139596400668886" lon="8.382222951519543"><ele>146.0</ele><time>2026-04-09T07:15:04Z</time></trkpt><trkpt lat="45.139541329932584" lon="8.382268564711243"><ele>145.0</ele><time>2026-04-09T07:15:05Z</time></trkpt><trkpt lat="45.139501827067505" lon="8.382367464688262"><ele>144.0</ele><time>2026-04-09T07:15:06Z</time></trkpt><trkpt lat="45.13949965072621" lon="8.3824865370954"><ele>143.0</ele><time>2026-04-09T07:15:07Z</time></trkpt><trkpt lat="45.13953415692547" lon="8.382584440514965"><ele>142.0</ele><time>2026-04-09T07:15:08Z</time></trkpt><trkpt lat="45.13958780457907" lon="8.382679869512724"><ele>142.0</ele><time>2026-04-09T07:15:09Z</time></trkpt><trkpt lat="45.139657963272505" lon="8.38277368458282"><ele>142.0</ele><time>2026-04-09T07:15:10Z</time></trkpt><trkpt lat="45.13972178698104" lon="8.382872523919538"><ele>142.0</ele><time>2026-04-09T07:15:11Z</time></trkpt><trkpt lat="45.13978804873404" lon="8.382969573446568"><ele>142.0</ele><time>2026-04-09T07:15:12Z</time></trkpt><trkpt lat="45.13985517184985" lon="8.383060776915304"><ele>142.0</ele><time>2026-04-09T07:15:13Z</time></trkpt><trkpt lat="45.13991592263423" lon="8.383157835364461"><ele>141.4</ele><time>2026-04-09T07:15:14Z</time></trkpt><trkpt lat="45.13997384405501" lon="8.383254001565282"><ele>140.79999999999998</ele><time>2026-04-09T07:15:15Z</time></trkpt><trkpt lat="45.140022812393475" lon="8.383372836115477"><ele>140.2</ele><time>2026-04-09T07:15:16Z</time></trkpt><trkpt lat="45.140063488772675" lon="8.383507607965342"><ele>139.6</ele><time>2026-04-09T07:15:17Z</time></trkpt><trkpt lat="45.140090678365134" lon="8.38366769593927"><ele>139.0</ele><time>2026-04-09T07:15:18Z</time></trkpt><trkpt lat="45.14011093142152" lon="8.38384291230184"><ele>138.5</ele><time>2026-04-09T07:15:19Z</time></trkpt><trkpt lat="45.14013169557054" lon="8.384028817212156"><ele>138.0</ele><time>2026-04-09T07:15:20Z</time></trkpt><trkpt lat="45.140157685365224" lon="8.384202221809604"><ele>137.5</ele><time>2026-04-09T07:15:21Z</time></trkpt><trkpt lat="45.14017762177813" lon="8.38436800646188"><ele>137.0</ele><time>2026-04-09T07:15:22Z</time></trkpt><trkpt lat="45.14019426762307" lon="8.38452880093974"><ele>137.2</ele><time>2026-04-09T07:15:23Z</time></trkpt><trkpt lat="45.14021200259927" lon="8.384680254241054"><ele>137.39999999999998</ele><time>2026-04-09T07:15:24Z</time></trkpt><trkpt lat="45.14022869743622" lon="8.384823095854223"><ele>137.60000000000002</ele><time>2026-04-09T07:15:25Z</time></trkpt><trkpt lat="45.140241314780035" lon="8.384954490604215"><ele>137.8</ele><time>2026-04-09T07:15:26Z</time></trkpt><trkpt lat="45.14025531233205" lon="8.38508866768438"><ele>138.0</ele><time>2026-04-09T07:15:27Z</time></trkpt><trkpt lat="45.14026948811686" lon="8.385242613213206"><ele>138.0</ele><time>2026-04-09T07:15:28Z</time></trkpt><trkpt lat="45.140280234966184" lon="8.385416209219674"><ele>138.0</ele><time>2026-04-09T07:15:29Z</time></trkpt><trkpt lat="45.1402808702635" lon="8.38560537369017"><ele>138.0</ele><time>2026-04-09T07:15:30Z</time></trkpt><trkpt lat="45.14026624798863" lon="8.38581164999162"><ele>138.0</ele><time>2026-04-09T07:15:31Z</time></trkpt><trkpt lat="45.14023840578478" lon="8.386002976269744"><ele>138.0</ele><time>2026-04-09T07:15:32Z</time></trkpt><trkpt lat="45.140206597770266" lon="8.386199705156004"><ele>138.0</ele><time>2026-04-09T07:15:33Z</time></trkpt><trkpt lat="45.14015771221109" lon="8.386402304241573"><ele>138.0</ele><time>2026-04-09T07:15:34Z</time></trkpt><trkpt lat="45.14010462829005" lon="8.386614442377008"><ele>137.66666666666666</ele><time>2026-04-09T07:15:35Z</time></trkpt><trkpt lat="45.140046367962306" lon="8.386847574540566"><ele>137.33333333333331</ele><time>2026-04-09T07:15:36Z</time></trkpt><trkpt lat="45.13996901860755" lon="8.38709985047128"><ele>137.0</ele><time>2026-04-09T07:15:37Z</time></trkpt><trkpt lat="45.13989130993931" lon="8.387388720261242"><ele>138.66666666666666</ele><time>2026-04-09T07:15:38Z</time></trkpt><trkpt lat="45.139825133570625" lon="8.3876920196252"><ele>140.33333333333334</ele><time>2026-04-09T07:15:39Z</time></trkpt><trkpt lat="45.13974041261367" lon="8.38797323615574"><ele>142.0</ele><time>2026-04-09T07:15:40Z</time></trkpt><trkpt lat="45.13965914166165" lon="8.3882571001779"><ele>142.0</ele><time>2026-04-09T07:15:41Z</time></trkpt><trkpt lat="45.13957577184356" lon="8.388541542426637"><ele>142.0</ele><time>2026-04-09T07:15:42Z</time></trkpt><trkpt lat="45.13948346617669" lon="8.388818411126602"><ele>142.0</ele><time>2026-04-09T07:15:43Z</time></trkpt><trkpt lat="45.13937500371404" lon="8.389082377391459"><ele>141.33333333333334</ele><time>2026-04-09T07:15:44Z</time></trkpt><trkpt lat="45.13925388450446" lon="8.389336390378832"><ele>140.66666666666666</ele><time>2026-04-09T07:15:45Z</time></trkpt><trkpt lat="45.13912345443309" lon="8.38959402088351"><ele>140.0</ele><time>2026-04-09T07:15:46Z</time></trkpt><trkpt lat="45.13899960872356" lon="8.389847951078941"><ele>140.33333333333331</ele><time>2026-04-09T07:15:47Z</time></trkpt><trkpt lat="45.13888634541997" lon="8.390105028845587"><ele>140.66666666666666</ele><time>2026-04-09T07:15:48Z</time></trkpt><trkpt lat="45.138761274750294" lon="8.390364567737391"><ele>141.0</ele><time>2026-04-09T07:15:49Z</time></trkpt><trkpt lat="45.13863743706088" lon="8.390624955858314"><ele>141.0</ele><time>2026-04-09T07:15:50Z</time></trkpt><trkpt lat="45.13850892079111" lon="8.390885693598904"><ele>141.0</ele><time>2026-04-09T07:15:51Z</time></trkpt><trkpt lat="45.13837811945808" lon="8.391148598331915"><ele>141.5</ele><time>2026-04-09T07:15:52Z</time></trkpt><trkpt lat="45.138245456417124" lon="8.391413419678088"><ele>142.0</ele><time>2026-04-09T07:15:53Z</time></trkpt><trkpt lat="45.13812095245941" lon="8.391671351281605"><ele>142.0</ele><time>2026-04-09T07:15:54Z</time></trkpt><trkpt lat="45.13799788023031" lon="8.391932678243712"><ele>142.0</ele><time>2026-04-09T07:15:55Z</time></trkpt><trkpt lat="45.13787510901973" lon="8.392196761691237"><ele>142.0</ele><time>2026-04-09T07:15:56Z</time></trkpt><trkpt lat="45.137753287378146" lon="8.392459980875786"><ele>141.0</ele><time>2026-04-09T07:15:57Z</time></trkpt><trkpt lat="45.137630671700904" lon="8.39272294979835"><ele>140.0</ele><time>2026-04-09T07:15:58Z</time></trkpt><trkpt lat="45.137515204736594" lon="8.392990909699575"><ele>139.0</ele><time>2026-04-09T07:15:59Z</time></trkpt><trkpt lat="45.13740670307655" lon="8.393264349543465"><ele>139.0</ele><time>2026-04-09T07:16:00Z</time></trkpt><trkpt lat="45.13730953357615" lon="8.39354660698182"><ele>139.0</ele><time>2026-04-09T07:16:01Z</time></trkpt><trkpt lat="45.13722304087205" lon="8.39383704329927"><ele>139.0</ele><time>2026-04-09T07:16:02Z</time></trkpt><trkpt lat="45.1371461489042" lon="8.394133625885651"><ele>139.0</ele><time>2026-04-09T07:16:03Z</time></trkpt><trkpt lat="45.13708172025921" lon="8.39443914341425"><ele>139.0</ele><time>2026-04-09T07:16:04Z</time></trkpt><trkpt lat="45.1370202278256" lon="8.394742016470289"><ele>139.0</ele><time>2026-04-09T07:16:05Z</time></trkpt><trkpt lat="45.13696447132521" lon="8.39505094868974"><ele>138.0</ele><time>2026-04-09T07:16:06Z</time></trkpt><trkpt lat="45.136906405412255" lon="8.39535994512108"><ele>137.0</ele><time>2026-04-09T07:16:07Z</time></trkpt><trkpt lat="45.13684750329691" lon="8.395670711022216"><ele>136.0</ele><time>2026-04-09T07:16:08Z</time></trkpt><trkpt lat="45.136787315520515" lon="8.39598365656042"><ele>135.0</ele><time>2026-04-09T07:16:09Z</time></trkpt><trkpt lat="45.13672822338559" lon="8.396299229474538"><ele>133.0</ele><time>2026-04-09T07:16:10Z</time></trkpt><trkpt lat="45.13667108159724" lon="8.396617190092163"><ele>131.0</ele><time>2026-04-09T07:16:11Z</time></trkpt><trkpt lat="45.13661551009055" lon="8.396936818392636"><ele>132.0</ele><time>2026-04-09T07:16:12Z</time></trkpt><trkpt lat="45.13655898591631" lon="8.39725674106713"><ele>133.0</ele><time>2026-04-09T07:16:13Z</time></trkpt><trkpt lat="45.13650028690659" lon="8.39757809084405"><ele>136.5</ele><time>2026-04-09T07:16:14Z</time></trkpt><trkpt lat="45.13643837313194" lon="8.397897595755353"><ele>140.0</ele><time>2026-04-09T07:16:15Z</time></trkpt><trkpt lat="45.13637508596893" lon="8.398219447218306"><ele>140.0</ele><time>2026-04-09T07:16:16Z</time></trkpt><trkpt lat="45.13631130494955" lon="8.398542030903544"><ele>140.0</ele><time>2026-04-09T07:16:17Z</time></trkpt><trkpt lat="45.13625024820202" lon="8.398857896456835"><ele>138.5</ele><time>2026-04-09T07:16:18Z</time></trkpt><trkpt lat="45.136189048988065" lon="8.399175809642502"><ele>137.0</ele><time>2026-04-09T07:16:19Z</time></trkpt><trkpt lat="45.13612991744393" lon="8.399489766321942"><ele>137.33333333333331</ele><time>2026-04-09T07:16:20Z</time></trkpt><trkpt lat="45.13607292473134" lon="8.399797519970289"><ele>137.66666666666666</ele><time>2026-04-09T07:16:21Z</time></trkpt><trkpt lat="45.13601756861043" lon="8.400099806745802"><ele>138.0</ele><time>2026-04-09T07:16:22Z</time></trkpt><trkpt lat="45.13596208433481" lon="8.40039706218095"><ele>137.33333333333334</ele><time>2026-04-09T07:16:23Z</time></trkpt><trkpt lat="45.13590740603216" lon="8.40069108898034"><ele>136.66666666666669</ele><time>2026-04-09T07:16:24Z</time></trkpt><trkpt lat="45.13585186908401" lon="8.400984801013628"><ele>136.0</ele><time>2026-04-09T07:16:25Z</time></trkpt><trkpt lat="45.135790700131025" lon="8.401278343033159"><ele>135.33333333333334</ele><time>2026-04-09T07:16:26Z</time></trkpt><trkpt lat="45.13572398672491" lon="8.401571188978648"><ele>134.66666666666666</ele><time>2026-04-09T07:16:27Z</time></trkpt><trkpt lat="45.13562959456484" lon="8.401849505235779"><ele>134.0</ele><time>2026-04-09T07:16:28Z</time></trkpt><trkpt lat="45.13549728353779" lon="8.402070261107788"><ele>134.33333333333331</ele><time>2026-04-09T07:16:29Z</time></trkpt><trkpt lat="45.13535016166738" lon="8.402250746199126"><ele>134.66666666666666</ele><time>2026-04-09T07:16:30Z</time></trkpt><trkpt lat="45.1352205411887" lon="8.402448286760658"><ele>135.0</ele><time>2026-04-09T07:16:31Z</time></trkpt><trkpt lat="45.13510938541036" lon="8.402688495472605"><ele>135.0</ele><time>2026-04-09T07:16:32Z</time></trkpt><trkpt lat="45.135038498073456" lon="8.402954648212573"><ele>135.0</ele><time>2026-04-09T07:16:33Z</time></trkpt><trkpt lat="45.13498139716584" lon="8.4032399325961"><ele>135.0</ele><time>2026-04-09T07:16:34Z</time></trkpt><trkpt lat="45.13492493169645" lon="8.403538436124053"><ele>136.0</ele><time>2026-04-09T07:16:35Z</time></trkpt><trkpt lat="45.13486477716243" lon="8.403848150687482"><ele>137.0</ele><time>2026-04-09T07:16:36Z</time></trkpt><trkpt lat="45.134806780782704" lon="8.40416356643046"><ele>137.0</ele><time>2026-04-09T07:16:37Z</time></trkpt><trkpt lat="45.13474675594542" lon="8.404477016264847"><ele>137.0</ele><time>2026-04-09T07:16:38Z</time></trkpt><trkpt lat="45.13506496691607" lon="8.4047817252011"><ele>136.0</ele><time>2026-04-09T07:16:39Z</time></trkpt><trkpt lat="45.13504462649271" lon="8.405079943646474"><ele>135.0</ele><time>2026-04-09T07:16:40Z</time></trkpt><trkpt lat="45.13501714056586" lon="8.405367280876666"><ele>134.0</ele><time>2026-04-09T07:16:41Z</time></trkpt><trkpt lat="45.134467954451075" lon="8.405648690283261"><ele>138.66666666666666</ele><time>2026-04-09T07:16:42Z</time></trkpt><trkpt lat="45.1343760300248" lon="8.405927123116333"><ele>143.33333333333334</ele><time>2026-04-09T07:16:43Z</time></trkpt><trkpt lat="45.134281068428734" lon="8.406208691534644"><ele>148.0</ele><time>2026-04-09T07:16:44Z</time></trkpt><trkpt lat="45.13418471388027" lon="8.406492120481905"><ele>148.0</ele><time>2026-04-09T07:16:45Z</time></trkpt><trkpt lat="45.13408344712385" lon="8.406776326385549"><ele>148.0</ele><time>2026-04-09T07:16:46Z</time></trkpt><trkpt lat="45.13398332419793" lon="8.407060988247629"><ele>148.0</ele><time>2026-04-09T07:16:47Z</time></trkpt><trkpt lat="45.13388399628067" lon="8.407339266569508"><ele>152.0</ele><time>2026-04-09T07:16:48Z</time></trkpt><trkpt lat="45.13379242692536" lon="8.40761339046372"><ele>156.0</ele><time>2026-04-09T07:16:49Z</time></trkpt><trkpt lat="45.13370243071207" lon="8.407881874165815"><ele>160.0</ele><time>2026-04-09T07:16:50Z</time></trkpt><trkpt lat="45.13361831433547" lon="8.408149630319775"><ele>160.0</ele><time>2026-04-09T07:16:51Z</time></trkpt><trkpt lat="45.13353927556259" lon="8.408410887343344"><ele>160.0</ele><time>2026-04-09T07:16:52Z</time></trkpt><trkpt lat="45.13347388147725" lon="8.408646889321712"><ele>160.0</ele><time>2026-04-09T07:16:53Z</time></trkpt><trkpt lat="45.13343297131526" lon="8.408865874188297"><ele>159.66666666666669</ele><time>2026-04-09T07:16:54Z</time></trkpt><trkpt lat="45.133408327213886" lon="8.409084219655584"><ele>159.33333333333334</ele><time>2026-04-09T07:16:55Z</time></trkpt><trkpt lat="45.1334020412042" lon="8.409307144342312"><ele>159.0</ele><time>2026-04-09T07:16:56Z</time></trkpt><trkpt lat="45.133389311322816" lon="8.409528284639968"><ele>159.0</ele><time>2026-04-09T07:16:57Z</time></trkpt><trkpt lat="45.13336691762912" lon="8.409742371090548"><ele>159.0</ele><time>2026-04-09T07:16:58Z</time></trkpt><trkpt lat="45.133341102520276" lon="8.409938312309215"><ele>159.0</ele><time>2026-04-09T07:16:59Z</time></trkpt><trkpt lat="45.13332367923643" lon="8.410126159318013"><ele>159.0</ele><time>2026-04-09T07:17:00Z</time></trkpt><trkpt lat="45.1333319936179" lon="8.41031537042639"><ele>158.75</ele><time>2026-04-09T07:17:01Z</time></trkpt><trkpt lat="45.133368073123094" lon="8.410501051124104"><ele>158.5</ele><time>2026-04-09T07:17:02Z</time></trkpt><trkpt lat="45.133421898700036" lon="8.410657670701667"><ele>158.25</ele><time>2026-04-09T07:17:03Z</time></trkpt><trkpt lat="45.13350417291272" lon="8.410771183505439"><ele>158.0</ele><time>2026-04-09T07:17:04Z</time></trkpt><trkpt lat="45.133620338356934" lon="8.410828519586124"><ele>158.0</ele><time>2026-04-09T07:17:05Z</time></trkpt><trkpt lat="45.13375582367773" lon="8.410855289561823"><ele>158.0</ele><time>2026-04-09T07:17:06Z</time></trkpt><trkpt lat="45.13389466850703" lon="8.410903893389992"><ele>158.0</ele><time>2026-04-09T07:17:07Z</time></trkpt><trkpt lat="45.13402247308579" lon="8.411003672286785"><ele>158.0</ele><time>2026-04-09T07:17:08Z</time></trkpt><trkpt lat="45.13413266735238" lon="8.411154593836518"><ele>158.66666666666666</ele><time>2026-04-09T07:17:09Z</time></trkpt><trkpt lat="45.13421483061317" lon="8.411332570026824"><ele>159.33333333333334</ele><time>2026-04-09T07:17:10Z</time></trkpt><trkpt lat="45.13426954600908" lon="8.411534249386273"><ele>160.0</ele><time>2026-04-09T07:17:11Z</time></trkpt><trkpt lat="45.13429089668999" lon="8.411746551737147"><ele>160.0</ele><time>2026-04-09T07:17:12Z</time></trkpt><trkpt lat="45.13427254934736" lon="8.411964007489422"><ele>160.0</ele><time>2026-04-09T07:17:13Z</time></trkpt><trkpt lat="45.134241277945" lon="8.41218484589103"><ele>160.0</ele><time>2026-04-09T07:17:14Z</time></trkpt><trkpt lat="45.13421295579772" lon="8.412409815388763"><ele>160.66666666666669</ele><time>2026-04-09T07:17:15Z</time></trkpt><trkpt lat="45.13418510768987" lon="8.412634752746225"><ele>161.33333333333334</ele><time>2026-04-09T07:17:16Z</time></trkpt><trkpt lat="45.13414568046838" lon="8.41285974939859"><ele>162.0</ele><time>2026-04-09T07:17:17Z</time></trkpt><trkpt lat="45.134081766815186" lon="8.413082624363971"><ele>162.0</ele><time>2026-04-09T07:17:18Z</time></trkpt><trkpt lat="45.13400324760041" lon="8.413305943667"><ele>162.0</ele><time>2026-04-09T07:17:19Z</time></trkpt><trkpt lat="45.133913676286" lon="8.413519841125183"><ele>162.0</ele><time>2026-04-09T07:17:20Z</time></trkpt><trkpt lat="45.133816199261034" lon="8.413717217564814"><ele>160.33333333333334</ele><time>2026-04-09T07:17:21Z</time></trkpt><trkpt lat="45.133721620654775" lon="8.413902157793315"><ele>158.66666666666669</ele><time>2026-04-09T07:17:22Z</time></trkpt><trkpt lat="45.133640074603825" lon="8.414086446443907"><ele>157.0</ele><time>2026-04-09T07:17:23Z</time></trkpt><trkpt lat="45.13358251550418" lon="8.41427902657751"><ele>157.0</ele><time>2026-04-09T07:17:24Z</time></trkpt><trkpt lat="45.13354872978172" lon="8.414496535537626"><ele>157.0</ele><time>2026-04-09T07:17:25Z</time></trkpt><trkpt lat="45.133553610800796" lon="8.414716711273766"><ele>157.0</ele><time>2026-04-09T07:17:26Z</time></trkpt><trkpt lat="45.13359845259334" lon="8.414933422537946"><ele>157.66666666666669</ele><time>2026-04-09T07:17:27Z</time></trkpt><trkpt lat="45.133680908380136" lon="8.415133544055541"><ele>158.33333333333334</ele><time>2026-04-09T07:17:28Z</time></trkpt><trkpt lat="45.13378329168209" lon="8.415331298901126"><ele>159.0</ele><time>2026-04-09T07:17:29Z</time></trkpt><trkpt lat="45.13388926541774" lon="8.41553573495793"><ele>159.33333333333334</ele><time>2026-04-09T07:17:30Z</time></trkpt><trkpt lat="45.133992284465045" lon="8.415749666273905"><ele>159.66666666666669</ele><time>2026-04-09T07:17:31Z</time></trkpt><trkpt lat="45.13409387961016" lon="8.415963708728947"><ele>160.0</ele><time>2026-04-09T07:17:32Z</time></trkpt><trkpt lat="45.13419527138984" lon="8.416181098355322"><ele>157.0</ele><time>2026-04-09T07:17:33Z</time></trkpt><trkpt lat="45.13429149644204" lon="8.41638851107445"><ele>154.0</ele><time>2026-04-09T07:17:34Z</time></trkpt><trkpt lat="45.1343851362029" lon="8.416585360703033"><ele>151.0</ele><time>2026-04-09T07:17:35Z</time></trkpt><trkpt lat="45.13447019030994" lon="8.416782581686109"><ele>151.0</ele><time>2026-04-09T07:17:36Z</time></trkpt><trkpt lat="45.13452520393407" lon="8.416990549400332"><ele>151.0</ele><time>2026-04-09T07:17:37Z</time></trkpt><trkpt lat="45.134536009028416" lon="8.417206497225514"><ele>151.0</ele><time>2026-04-09T07:17:38Z</time></trkpt><trkpt lat="45.134514181743484" lon="8.417418319036386"><ele>149.0</ele><time>2026-04-09T07:17:39Z</time></trkpt><trkpt lat="45.13444962874789" lon="8.41760891774679"><ele>147.0</ele><time>2026-04-09T07:17:40Z</time></trkpt><trkpt lat="45.134363212469005" lon="8.4177901726787"><ele>145.0</ele><time>2026-04-09T07:17:41Z</time></trkpt><trkpt lat="45.13427883377174" lon="8.4179668853218"><ele>143.75</ele><time>2026-04-09T07:17:42Z</time></trkpt><trkpt lat="45.13421365107807" lon="8.418153781577072"><ele>142.5</ele><time>2026-04-09T07:17:43Z</time></trkpt><trkpt lat="45.13417541056227" lon="8.418356147732746"><ele>141.25</ele><time>2026-04-09T07:17:44Z</time></trkpt><trkpt lat="45.13417431600769" lon="8.418570935772605"><ele>140.0</ele><time>2026-04-09T07:17:45Z</time></trkpt><trkpt lat="45.13421400458174" lon="8.418786886631146"><ele>140.33333333333331</ele><time>2026-04-09T07:17:46Z</time></trkpt><trkpt lat="45.13429166031365" lon="8.418995868851896"><ele>140.66666666666666</ele><time>2026-04-09T07:17:47Z</time></trkpt><trkpt lat="45.13439381919616" lon="8.419189768598754"><ele>141.0</ele><time>2026-04-09T07:17:48Z</time></trkpt><trkpt lat="45.134506938413416" lon="8.419385210102678"><ele>141.0</ele><time>2026-04-09T07:17:49Z</time></trkpt><trkpt lat="45.13462624101111" lon="8.41958669724764"><ele>141.0</ele><time>2026-04-09T07:17:50Z</time></trkpt><trkpt lat="45.134747829009406" lon="8.419790851617643"><ele>141.0</ele><time>2026-04-09T07:17:51Z</time></trkpt><trkpt lat="45.13486456304713" lon="8.419988874691487"><ele>140.66666666666666</ele><time>2026-04-09T07:17:52Z</time></trkpt><trkpt lat="45.13498256336382" lon="8.420190734494444"><ele>140.33333333333331</ele><time>2026-04-09T07:17:53Z</time></trkpt><trkpt lat="45.13509880624492" lon="8.420396097498614"><ele>140.0</ele><time>2026-04-09T07:17:54Z</time></trkpt><trkpt lat="45.135202155823556" lon="8.420606854399507"><ele>140.66666666666666</ele><time>2026-04-09T07:17:55Z</time></trkpt><trkpt lat="45.135280814261044" lon="8.420831620193995"><ele>141.33333333333334</ele><time>2026-04-09T07:17:56Z</time></trkpt><trkpt lat="45.13533503577508" lon="8.421069199076523"><ele>142.0</ele><time>2026-04-09T07:17:57Z</time></trkpt><trkpt lat="45.13536405768653" lon="8.421318226212627"><ele>142.33333333333334</ele><time>2026-04-09T07:17:58Z</time></trkpt><trkpt lat="45.13536767790514" lon="8.421577077089884"><ele>142.66666666666666</ele><time>2026-04-09T07:17:59Z</time></trkpt><trkpt lat="45.135360151410026" lon="8.42184193349769"><ele>143.0</ele><time>2026-04-09T07:18:00Z</time></trkpt><trkpt lat="45.135348453563964" lon="8.42211148632617"><ele>142.66666666666666</ele><time>2026-04-09T07:18:01Z</time></trkpt><trkpt lat="45.13533629908821" lon="8.422387159014978"><ele>142.33333333333334</ele><time>2026-04-09T07:18:02Z</time></trkpt><trkpt lat="45.13532190447249" lon="8.422671154112603"><ele>142.0</ele><time>2026-04-09T07:18:03Z</time></trkpt><trkpt lat="45.1353062425878" lon="8.422960852745007"><ele>141.33333333333334</ele><time>2026-04-09T07:18:04Z</time></trkpt><trkpt lat="45.135292174666205" lon="8.423258062364093"><ele>140.66666666666666</ele><time>2026-04-09T07:18:05Z</time></trkpt><trkpt lat="45.13527444129616" lon="8.423560253648235"><ele>140.0</ele><time>2026-04-09T07:18:06Z</time></trkpt><trkpt lat="45.135256705663494" lon="8.423866044479553"><ele>140.0</ele><time>2026-04-09T07:18:07Z</time></trkpt><trkpt lat="45.13523613451459" lon="8.424176493140541"><ele>140.0</ele><time>2026-04-09T07:18:08Z</time></trkpt><trkpt lat="45.135217350737264" lon="8.424493922236891"><ele>140.0</ele><time>2026-04-09T07:18:09Z</time></trkpt><trkpt lat="45.13519841857093" lon="8.424813063236297"><ele>138.0</ele><time>2026-04-09T07:18:10Z</time></trkpt><trkpt lat="45.1351775372227" lon="8.425130305417825"><ele>136.0</ele><time>2026-04-09T07:18:11Z</time></trkpt><trkpt lat="45.135156251152395" lon="8.425442592347993"><ele>134.0</ele><time>2026-04-09T07:18:12Z</time></trkpt><trkpt lat="45.13513373932042" lon="8.425745143653083"><ele>133.33333333333331</ele><time>2026-04-09T07:18:13Z</time></trkpt><trkpt lat="45.13510021675622" lon="8.42603403357916"><ele>132.66666666666666</ele><time>2026-04-09T07:18:14Z</time></trkpt><trkpt lat="45.13504756294485" lon="8.426307530294741"><ele>132.0</ele><time>2026-04-09T07:18:15Z</time></trkpt><trkpt lat="45.13497195512976" lon="8.42657554139497"><ele>133.33333333333334</ele><time>2026-04-09T07:18:16Z</time></trkpt><trkpt lat="45.134878538408266" lon="8.426826781949298"><ele>134.66666666666669</ele><time>2026-04-09T07:18:17Z</time></trkpt><trkpt lat="45.1347588769228" lon="8.42705796737548"><ele>136.0</ele><time>2026-04-09T07:18:18Z</time></trkpt><trkpt lat="45.134622469100535" lon="8.427259122308689"><ele>136.0</ele><time>2026-04-09T07:18:19Z</time></trkpt><trkpt lat="45.134469662229066" lon="8.427436038390397"><ele>136.0</ele><time>2026-04-09T07:18:20Z</time></trkpt><trkpt lat="45.134313548772695" lon="8.42759953389059"><ele>136.0</ele><time>2026-04-09T07:18:21Z</time></trkpt><trkpt lat="45.13416609640746" lon="8.427751851661478"><ele>136.0</ele><time>2026-04-09T07:18:22Z</time></trkpt><trkpt lat="45.1340275748841" lon="8.42790676284739"><ele>136.0</ele><time>2026-04-09T07:18:23Z</time></trkpt><trkpt lat="45.13389994460944" lon="8.428067475838061"><ele>136.0</ele><time>2026-04-09T07:18:24Z</time></trkpt><trkpt lat="45.13378499169965" lon="8.428230012958783"><ele>135.25</ele><time>2026-04-09T07:18:25Z</time></trkpt><trkpt lat="45.13368020397806" lon="8.428395427260723"><ele>134.5</ele><time>2026-04-09T07:18:26Z</time></trkpt><trkpt lat="45.13359176166476" lon="8.42856044757325"><ele>133.75</ele><time>2026-04-09T07:18:27Z</time></trkpt><trkpt lat="45.13353160462184" lon="8.4287299476384"><ele>133.0</ele><time>2026-04-09T07:18:28Z</time></trkpt><trkpt lat="45.13349682462668" lon="8.428912047973988"><ele>132.75</ele><time>2026-04-09T07:18:29Z</time></trkpt><trkpt lat="45.13348968062508" lon="8.42909669904178"><ele>132.5</ele><time>2026-04-09T07:18:30Z</time></trkpt><trkpt lat="45.13351095929812" lon="8.429276593060258"><ele>132.25</ele><time>2026-04-09T07:18:31Z</time></trkpt><trkpt lat="45.13356272755894" lon="8.429451147121886"><ele>132.0</ele><time>2026-04-09T07:18:32Z</time></trkpt><trkpt lat="45.133637964808344" lon="8.429609958747138"><ele>132.0</ele><time>2026-04-09T07:18:33Z</time></trkpt><trkpt lat="45.13373354486017" lon="8.429748271882517"><ele>132.0</ele><time>2026-04-09T07:18:34Z</time></trkpt><trkpt lat="45.13384039225112" lon="8.429870601917004"><ele>132.0</ele><time>2026-04-09T07:18:35Z</time></trkpt><trkpt lat="45.1339452999753" lon="8.42999262598175"><ele>132.0</ele><time>2026-04-09T07:18:36Z</time></trkpt><trkpt lat="45.134044591240055" lon="8.430119079155952"><ele>132.5</ele><time>2026-04-09T07:18:37Z</time></trkpt><trkpt lat="45.13414393645245" lon="8.430247098525818"><ele>133.0</ele><time>2026-04-09T07:18:38Z</time></trkpt><trkpt lat="45.134245546454224" lon="8.43037575370465"><ele>133.5</ele><time>2026-04-09T07:18:39Z</time></trkpt><trkpt lat="45.134344800487824" lon="8.430499488712545"><ele>134.0</ele><time>2026-04-09T07:18:40Z</time></trkpt><trkpt lat="45.13443301604518" lon="8.430616779796413"><ele>132.75</ele><time>2026-04-09T07:18:41Z</time></trkpt><trkpt lat="45.13451520058572" lon="8.430747468014612"><ele>131.5</ele><time>2026-04-09T07:18:42Z</time></trkpt><trkpt lat="45.134582893478814" lon="8.430904513320385"><ele>130.25</ele><time>2026-04-09T07:18:43Z</time></trkpt><trkpt lat="45.13463354951609" lon="8.431076371811965"><ele>129.0</ele><time>2026-04-09T07:18:44Z</time></trkpt><trkpt lat="45.13467728211581" lon="8.431266070194113"><ele>129.75</ele><time>2026-04-09T07:18:45Z</time></trkpt><trkpt lat="45.134714391725794" lon="8.431463705697992"><ele>130.5</ele><time>2026-04-09T07:18:46Z</time></trkpt><trkpt lat="45.134749492342834" lon="8.431663048145575"><ele>131.25</ele><time>2026-04-09T07:18:47Z</time></trkpt><trkpt lat="45.13478386956571" lon="8.431871130026003"><ele>132.0</ele><time>2026-04-09T07:18:48Z</time></trkpt><trkpt lat="45.13482372026047" lon="8.432094620001347"><ele>131.0</ele><time>2026-04-09T07:18:49Z</time></trkpt><trkpt lat="45.134870925511194" lon="8.432353096707025"><ele>130.0</ele><time>2026-04-09T07:18:50Z</time></trkpt><trkpt lat="45.134903194912205" lon="8.432621110005867"><ele>129.0</ele><time>2026-04-09T07:18:51Z</time></trkpt><trkpt lat="45.13495006993422" lon="8.432842232952158"><ele>128.8</ele><time>2026-04-09T07:18:52Z</time></trkpt><trkpt lat="45.13498273290006" lon="8.43301684792204"><ele>128.60000000000002</ele><time>2026-04-09T07:18:53Z</time></trkpt><trkpt lat="45.13499216801389" lon="8.43316850951659"><ele>128.4</ele><time>2026-04-09T07:18:54Z</time></trkpt><trkpt lat="45.13498621143051" lon="8.433310392377555"><ele>128.20000000000002</ele><time>2026-04-09T07:18:55Z</time></trkpt><trkpt lat="45.134964614892056" lon="8.433448337122723"><ele>128.0</ele><time>2026-04-09T07:18:56Z</time></trkpt><trkpt lat="45.13499661252477" lon="8.433578878002733"><ele>128.0</ele><time>2026-04-09T07:18:57Z</time></trkpt><trkpt lat="45.135041408056544" lon="8.433725934443599"><ele>128.0</ele><time>2026-04-09T07:18:58Z</time></trkpt><trkpt lat="45.13510259869321" lon="8.433898443313096"><ele>128.0</ele><time>2026-04-09T07:18:59Z</time></trkpt><trkpt lat="45.135134782658945" lon="8.434120145542247"><ele>128.0</ele><time>2026-04-09T07:19:00Z</time></trkpt><trkpt lat="45.13517557514922" lon="8.434333835352465"><ele>127.66666666666666</ele><time>2026-04-09T07:19:01Z</time></trkpt><trkpt lat="45.13521120096257" lon="8.434551033786978"><ele>127.33333333333334</ele><time>2026-04-09T07:19:02Z</time></trkpt><trkpt lat="45.1352495113121" lon="8.434778188796491"><ele>127.0</ele><time>2026-04-09T07:19:03Z</time></trkpt><trkpt lat="45.13528350626281" lon="8.43501018525417"><ele>126.5</ele><time>2026-04-09T07:19:04Z</time></trkpt><trkpt lat="45.135313655085014" lon="8.43522647938519"><ele>126.0</ele><time>2026-04-09T07:19:05Z</time></trkpt><trkpt lat="45.13534751878838" lon="8.435436224199393"><ele>125.5</ele><time>2026-04-09T07:19:06Z</time></trkpt><trkpt lat="45.1353828821572" lon="8.435625188930116"><ele>125.0</ele><time>2026-04-09T07:19:07Z</time></trkpt><trkpt lat="45.135409646677" lon="8.435781307565374"><ele>124.4</ele><time>2026-04-09T07:19:08Z</time></trkpt><trkpt lat="45.135421051247896" lon="8.435925313075902"><ele>123.8</ele><time>2026-04-09T07:19:09Z</time></trkpt><trkpt lat="45.135407957209054" lon="8.436046682086983"><ele>123.19999999999999</ele><time>2026-04-09T07:19:10Z</time></trkpt><trkpt lat="45.135381315730086" lon="8.436155777212997"><ele>122.6</ele><time>2026-04-09T07:19:11Z</time></trkpt><trkpt lat="45.13539401900101" lon="8.436271020789956"><ele>122.0</ele><time>2026-04-09T07:19:12Z</time></trkpt><trkpt lat="45.13545309796" lon="8.4363845879308"><ele>121.75</ele><time>2026-04-09T07:19:13Z</time></trkpt><trkpt lat="45.135522857957675" lon="8.4365126871243"><ele>121.5</ele><time>2026-04-09T07:19:14Z</time></trkpt><trkpt lat="45.135552602026166" lon="8.436677139774343"><ele>121.25</ele><time>2026-04-09T07:19:15Z</time></trkpt><trkpt lat="45.13556758761913" lon="8.436862747245785"><ele>121.0</ele><time>2026-04-09T07:19:16Z</time></trkpt><trkpt lat="45.13558843566742" lon="8.437058831284915"><ele>120.5</ele><time>2026-04-09T07:19:17Z</time></trkpt><trkpt lat="45.13564543690788" lon="8.437250057194174"><ele>120.0</ele><time>2026-04-09T07:19:18Z</time></trkpt><trkpt lat="45.13572827300745" lon="8.43742177393534"><ele>119.5</ele><time>2026-04-09T07:19:19Z</time></trkpt><trkpt lat="45.13580989646689" lon="8.437599173618604"><ele>119.0</ele><time>2026-04-09T07:19:20Z</time></trkpt><trkpt lat="45.135855070303585" lon="8.437789962399492"><ele>118.5</ele><time>2026-04-09T07:19:21Z</time></trkpt><trkpt lat="45.13587741800613" lon="8.438000063717254"><ele>118.0</ele><time>2026-04-09T07:19:22Z</time></trkpt><trkpt lat="45.13589816081398" lon="8.438235526102138"><ele>117.5</ele><time>2026-04-09T07:19:23Z</time></trkpt><trkpt lat="45.13591704467133" lon="8.43842003400305"><ele>117.0</ele><time>2026-04-09T07:19:24Z</time></trkpt><trkpt lat="45.135927730908016" lon="8.438653003544315"><ele>116.66666666666666</ele><time>2026-04-09T07:19:25Z</time></trkpt><trkpt lat="45.13592857417905" lon="8.438890771674686"><ele>116.33333333333333</ele><time>2026-04-09T07:19:26Z</time></trkpt><trkpt lat="45.13593335903117" lon="8.439135077372663"><ele>116.0</ele><time>2026-04-09T07:19:27Z</time></trkpt><trkpt lat="45.135934945792755" lon="8.439365126719695"><ele>116.0</ele><time>2026-04-09T07:19:28Z</time></trkpt><trkpt lat="45.13593430761393" lon="8.439576323609078"><ele>116.0</ele><time>2026-04-09T07:19:29Z</time></trkpt><trkpt lat="45.135931747683706" lon="8.43977260363676"><ele>116.0</ele><time>2026-04-09T07:19:30Z</time></trkpt><trkpt lat="45.13593369397973" lon="8.439965223138804"><ele>116.0</ele><time>2026-04-09T07:19:31Z</time></trkpt><trkpt lat="45.13593118409044" lon="8.440143462723096"><ele>116.19999999999999</ele><time>2026-04-09T07:19:32Z</time></trkpt><trkpt lat="45.13593215769098" lon="8.440294939851906"><ele>116.39999999999999</ele><time>2026-04-09T07:19:33Z</time></trkpt><trkpt lat="45.13592899436564" lon="8.440428756297077"><ele>116.6</ele><time>2026-04-09T07:19:34Z</time></trkpt><trkpt lat="45.13592582815631" lon="8.440548705674143"><ele>116.8</ele><time>2026-04-09T07:19:35Z</time></trkpt><trkpt lat="45.1359236332123" lon="8.440645722584257"><ele>117.0</ele><time>2026-04-09T07:19:36Z</time></trkpt><trkpt lat="45.13591814552648" lon="8.440782574086036"><ele>117.0</ele><time>2026-04-09T07:19:38Z</time></trkpt><trkpt lat="45.135918251755434" lon="8.440916295579328"><ele>116.99999999999999</ele><time>2026-04-09T07:19:40Z</time></trkpt><trkpt lat="45.13591283774222" lon="8.441067946354213"><ele>116.99999999999999</ele><time>2026-04-09T07:19:42Z</time></trkpt><trkpt lat="45.135904545668296" lon="8.44121382755837"><ele>117.0</ele><time>2026-04-09T07:19:44Z</time></trkpt><trkpt lat="45.135900716275714" lon="8.441314985595328"><ele>117.0</ele><time>2026-04-09T07:19:45Z</time></trkpt><trkpt lat="45.135901369305365" lon="8.441421315785991"><ele>117.16666666666667</ele><time>2026-04-09T07:19:46Z</time></trkpt><trkpt lat="45.135888335625225" lon="8.441539405469243"><ele>117.33333333333334</ele><time>2026-04-09T07:19:47Z</time></trkpt><trkpt lat="45.135891881541994" lon="8.44165799533769"><ele>117.5</ele><time>2026-04-09T07:19:48Z</time></trkpt><trkpt lat="45.13589949555004" lon="8.441790252960153"><ele>117.66666666666667</ele><time>2026-04-09T07:19:49Z</time></trkpt><trkpt lat="45.13589826626635" lon="8.441910862770376"><ele>117.83333333333334</ele><time>2026-04-09T07:19:50Z</time></trkpt><trkpt lat="45.13589547365308" lon="8.442037312864793"><ele>118.0</ele><time>2026-04-09T07:19:51Z</time></trkpt><trkpt lat="45.13589006730163" lon="8.442150793378067"><ele>118.00000000000001</ele><time>2026-04-09T07:19:52Z</time></trkpt><trkpt lat="45.13588870909921" lon="8.442259529901609"><ele>118.0</ele><time>2026-04-09T07:19:53Z</time></trkpt><trkpt lat="45.13587699467379" lon="8.442395868878613"><ele>118.0</ele><time>2026-04-09T07:19:54Z</time></trkpt><trkpt lat="45.13587910976445" lon="8.44249999760639"><ele>118.0</ele><time>2026-04-09T07:19:55Z</time></trkpt><trkpt lat="45.135881887249916" lon="8.442598335702302"><ele>118.00000000000001</ele><time>2026-04-09T07:19:56Z</time></trkpt><trkpt lat="45.135886900724124" lon="8.442743539039922"><ele>118.0</ele><time>2026-04-09T07:19:58Z</time></trkpt><trkpt lat="45.13589361184587" lon="8.442889074586265"><ele>118.16666666666667</ele><time>2026-04-09T07:20:00Z</time></trkpt><trkpt lat="45.13588732500981" lon="8.443036629174019"><ele>118.33333333333334</ele><time>2026-04-09T07:20:02Z</time></trkpt><trkpt lat="45.135891556833016" lon="8.44321802610044"><ele>118.5</ele><time>2026-04-09T07:20:04Z</time></trkpt><trkpt lat="45.13588870178705" lon="8.443311527597924"><ele>118.66666666666666</ele><time>2026-04-09T07:20:05Z</time></trkpt><trkpt lat="45.13588787084898" lon="8.443409394818719"><ele>118.83333333333333</ele><time>2026-04-09T07:20:06Z</time></trkpt><trkpt lat="45.135893668886546" lon="8.443501514529137"><ele>119.0</ele><time>2026-04-09T07:20:07Z</time></trkpt><trkpt lat="45.13589593231194" lon="8.443598228085856"><ele>119.0</ele><time>2026-04-09T07:20:08Z</time></trkpt><trkpt lat="45.13590431234244" lon="8.44376587988416"><ele>119.0</ele><time>2026-04-09T07:20:10Z</time></trkpt><trkpt lat="45.13590629857253" lon="8.44389213417716"><ele>119.0</ele><time>2026-04-09T07:20:12Z</time></trkpt><trkpt lat="45.13590722028912" lon="8.44401086499632"><ele>119.0</ele><time>2026-04-09T07:20:14Z</time></trkpt><trkpt lat="45.13590630953783" lon="8.444131642254009"><ele>119.0</ele><time>2026-04-09T07:20:16Z</time></trkpt><trkpt lat="45.13588994523106" lon="8.444271970943698"><ele>118.80000000000001</ele><time>2026-04-09T07:20:18Z</time></trkpt><trkpt lat="45.13576061225561" lon="8.444277881491901"><ele>118.60000000000001</ele><time>2026-04-09T07:20:20Z</time></trkpt><trkpt lat="45.135640659059746" lon="8.44426396590886"><ele>118.4</ele><time>2026-04-09T07:20:22Z</time></trkpt><trkpt lat="45.13556804433481" lon="8.444260772171623"><ele>118.2</ele><time>2026-04-09T07:20:23Z</time></trkpt><trkpt lat="45.1354893919401" lon="8.444266467371321"><ele>118.0</ele><time>2026-04-09T07:20:24Z</time></trkpt><trkpt lat="45.135405904214046" lon="8.444269130642798"><ele>117.71428571428571</ele><time>2026-04-09T07:20:25Z</time></trkpt><trkpt lat="45.13532166719539" lon="8.444274437705898"><ele>117.42857142857144</ele><time>2026-04-09T07:20:26Z</time></trkpt><trkpt lat="45.13524520613075" lon="8.444262117748863"><ele>117.14285714285715</ele><time>2026-04-09T07:20:27Z</time></trkpt><trkpt lat="45.13516161368409" lon="8.444265371906436"><ele>116.85714285714286</ele><time>2026-04-09T07:20:28Z</time></trkpt><trkpt lat="45.13509033168796" lon="8.444268077794888"><ele>116.57142857142858</ele><time>2026-04-09T07:20:29Z</time></trkpt><trkpt lat="45.13502624870679" lon="8.44427615071755"><ele>116.2857142857143</ele><time>2026-04-09T07:20:30Z</time></trkpt><trkpt lat="45.13496310256363" lon="8.444287242028496"><ele>116.00000000000001</ele><time>2026-04-09T07:20:31Z</time></trkpt><trkpt lat="45.13486282941077" lon="8.444317743316693"><ele>116.0</ele><time>2026-04-09T07:20:33Z</time></trkpt><trkpt lat="45.134772334192576" lon="8.444316398824869"><ele>116.0</ele><time>2026-04-09T07:20:35Z</time></trkpt><trkpt lat="45.13466693393231" lon="8.444294449995661"><ele>116.0</ele><time>2026-04-09T07:20:37Z</time></trkpt><trkpt lat="45.134531562593224" lon="8.444310021879138"><ele>116.0</ele><time>2026-04-09T07:20:39Z</time></trkpt><trkpt lat="45.13444869924689" lon="8.44433097573643"><ele>116.0</ele><time>2026-04-09T07:20:40Z</time></trkpt><trkpt lat="45.13435259105016" lon="8.44433222956456"><ele>116.0</ele><time>2026-04-09T07:20:41Z</time></trkpt><trkpt lat="45.134229999845424" lon="8.444332271529227"><ele>116.0</ele><time>2026-04-09T07:20:42Z</time></trkpt><trkpt lat="45.13409564698826" lon="8.44435021307834"><ele>116.0</ele><time>2026-04-09T07:20:43Z</time></trkpt><trkpt lat="45.13396706783011" lon="8.444373908605185"><ele>116.0</ele><time>2026-04-09T07:20:44Z</time></trkpt><trkpt lat="45.13385336236673" lon="8.444406113076507"><ele>115.99999999999999</ele><time>2026-04-09T07:20:45Z</time></trkpt><trkpt lat="45.13375322671994" lon="8.444456797624959"><ele>116.0</ele><time>2026-04-09T07:20:46Z</time></trkpt><trkpt lat="45.133665098206" lon="8.444519618097132"><ele>116.0</ele><time>2026-04-09T07:20:47Z</time></trkpt><trkpt lat="45.13359204491825" lon="8.444585262557057"><ele>116.0</ele><time>2026-04-09T07:20:48Z</time></trkpt><trkpt lat="45.13352995806561" lon="8.44464371809585"><ele>115.99999999999999</ele><time>2026-04-09T07:20:49Z</time></trkpt><trkpt lat="45.1334704924652" lon="8.444682563392083"><ele>116.0</ele><time>2026-04-09T07:20:50Z</time></trkpt><trkpt lat="45.133408472721555" lon="8.444700083448346"><ele>116.00000000000001</ele><time>2026-04-09T07:20:50.999Z</time></trkpt><trkpt lat="45.13334314490764" lon="8.444690910486363"><ele>116.0</ele><time>2026-04-09T07:20:51.999Z</time></trkpt><trkpt lat="45.13329073282237" lon="8.44461764863681"><ele>116.00000000000001</ele><time>2026-04-09T07:20:52.999Z</time></trkpt><trkpt lat="45.13321692340937" lon="8.444592146305226"><ele>116.00000000000001</ele><time>2026-04-09T07:20:53.999Z</time></trkpt><trkpt lat="45.133161690958985" lon="8.444545607732579"><ele>116.0</ele><time>2026-04-09T07:20:55Z</time></trkpt><trkpt lat="45.133091480634434" lon="8.444497043516819"><ele>116.00000000000001</ele><time>2026-04-09T07:20:59Z</time></trkpt><trkpt lat="45.13302573949064" lon="8.444442609200635"><ele>116.00000000000001</ele><time>2026-04-09T07:21:01Z</time></trkpt><trkpt lat="45.132958771851605" lon="8.444601815458487"><ele>116.8</ele><time>2026-04-09T07:21:02Z</time></trkpt><trkpt lat="45.132921306811454" lon="8.444705395123604"><ele>117.6</ele><time>2026-04-09T07:21:03Z</time></trkpt><trkpt lat="45.1328786772595" lon="8.44481139559557"><ele>118.4</ele><time>2026-04-09T07:21:04Z</time></trkpt><trkpt lat="45.132822451827835" lon="8.444919421543906"><ele>119.2</ele><time>2026-04-09T07:21:05Z</time></trkpt><trkpt lat="45.13275211456516" lon="8.44503533273358"><ele>120.0</ele><time>2026-04-09T07:21:06Z</time></trkpt><trkpt lat="45.132672122723456" lon="8.445163795823294"><ele>120.0</ele><time>2026-04-09T07:21:07Z</time></trkpt><trkpt lat="45.13258465440153" lon="8.445298250262974"><ele>120.0</ele><time>2026-04-09T07:21:08Z</time></trkpt><trkpt lat="45.13249325127662" lon="8.445432337990757"><ele>120.0</ele><time>2026-04-09T07:21:09Z</time></trkpt><trkpt lat="45.13240174747633" lon="8.445573639289396"><ele>120.0</ele><time>2026-04-09T07:21:10Z</time></trkpt><trkpt lat="45.132301369589555" lon="8.445715849169428"><ele>119.0</ele><time>2026-04-09T07:21:11Z</time></trkpt><trkpt lat="45.13220299790689" lon="8.445860784069486"><ele>118.0</ele><time>2026-04-09T07:21:12Z</time></trkpt><trkpt lat="45.132109454047075" lon="8.445995958947998"><ele>117.0</ele><time>2026-04-09T07:21:13Z</time></trkpt><trkpt lat="45.13201865290463" lon="8.446134864469421"><ele>116.0</ele><time>2026-04-09T07:21:14Z</time></trkpt><trkpt lat="45.13193315654289" lon="8.446271884580922"><ele>116.0</ele><time>2026-04-09T07:21:15Z</time></trkpt><trkpt lat="45.13184748948441" lon="8.4463956216178"><ele>116.0</ele><time>2026-04-09T07:21:16Z</time></trkpt><trkpt lat="45.131762500132865" lon="8.446518996223757"><ele>116.0</ele><time>2026-04-09T07:21:17Z</time></trkpt><trkpt lat="45.13169353935652" lon="8.446645824691664"><ele>116.0</ele><time>2026-04-09T07:21:18Z</time></trkpt><trkpt lat="45.13161799472833" lon="8.446750455860242"><ele>116.19999999999999</ele><time>2026-04-09T07:21:19Z</time></trkpt><trkpt lat="45.131554992190694" lon="8.446852145937523"><ele>116.39999999999999</ele><time>2026-04-09T07:21:20Z</time></trkpt><trkpt lat="45.13149057838739" lon="8.446955390538552"><ele>116.6</ele><time>2026-04-09T07:21:21Z</time></trkpt><trkpt lat="45.13141561465538" lon="8.447048363184475"><ele>116.8</ele><time>2026-04-09T07:21:22Z</time></trkpt><trkpt lat="45.13134554607503" lon="8.447158133094227"><ele>117.0</ele><time>2026-04-09T07:21:23Z</time></trkpt><trkpt lat="45.13127560652262" lon="8.447266388898509"><ele>117.0</ele><time>2026-04-09T07:21:24Z</time></trkpt><trkpt lat="45.131199239225595" lon="8.4473802189354"><ele>116.99999999999999</ele><time>2026-04-09T07:21:25Z</time></trkpt><trkpt lat="45.13113043449499" lon="8.447483634036796"><ele>116.99999999999999</ele><time>2026-04-09T07:21:26Z</time></trkpt><trkpt lat="45.13106291071552" lon="8.44758303158918"><ele>117.0</ele><time>2026-04-09T07:21:27Z</time></trkpt><trkpt lat="45.13099434212369" lon="8.447672397629807"><ele>117.0</ele><time>2026-04-09T07:21:28Z</time></trkpt><trkpt lat="45.13093134852698" lon="8.447759684329696"><ele>117.0</ele><time>2026-04-09T07:21:29Z</time></trkpt><trkpt lat="45.13085967628939" lon="8.447836068180347"><ele>117.0</ele><time>2026-04-09T07:21:30Z</time></trkpt><trkpt lat="45.13079787782957" lon="8.447929885942232"><ele>117.0</ele><time>2026-04-09T07:21:31Z</time></trkpt><trkpt lat="45.13074121174758" lon="8.448016471856722"><ele>117.0</ele><time>2026-04-09T07:21:32Z</time></trkpt><trkpt lat="45.13067827193036" lon="8.448115953075128"><ele>117.0</ele><time>2026-04-09T07:21:33Z</time></trkpt><trkpt lat="45.1306266543009" lon="8.448195276458334"><ele>117.0</ele><time>2026-04-09T07:21:34Z</time></trkpt><trkpt lat="45.1305771195467" lon="8.448258433310386"><ele>117.5</ele><time>2026-04-09T07:21:35Z</time></trkpt><trkpt lat="45.130492209608256" lon="8.44837723841229"><ele>118.0</ele><time>2026-04-09T07:21:37Z</time></trkpt><trkpt lat="45.13040992700668" lon="8.448457198106"><ele>118.5</ele><time>2026-04-09T07:21:39Z</time></trkpt><trkpt lat="45.13031582016373" lon="8.44852715245796"><ele>119.0</ele><time>2026-04-09T07:21:41Z</time></trkpt><trkpt lat="45.13021761648421" lon="8.448651007691002"><ele>119.0</ele><time>2026-04-09T07:21:43Z</time></trkpt><trkpt lat="45.13018450233868" lon="8.448734617772121"><ele>119.0</ele><time>2026-04-09T07:21:44Z</time></trkpt><trkpt lat="45.13015558444166" lon="8.448818396136751"><ele>119.0</ele><time>2026-04-09T07:21:45Z</time></trkpt><trkpt lat="45.13012144583781" lon="8.448896770414827"><ele>119.0</ele><time>2026-04-09T07:21:46Z</time></trkpt><trkpt lat="45.130079313092644" lon="8.448966698634134"><ele>119.0</ele><time>2026-04-09T07:21:47Z</time></trkpt><trkpt lat="45.13003566949644" lon="8.449033602413783"><ele>119.0</ele><time>2026-04-09T07:21:48Z</time></trkpt><trkpt lat="45.129996464154594" lon="8.449104579858043"><ele>119.0</ele><time>2026-04-09T07:21:49Z</time></trkpt><trkpt lat="45.12994318379354" lon="8.449170951036947"><ele>119.0</ele><time>2026-04-09T07:21:50Z</time></trkpt><trkpt lat="45.12986760580978" lon="8.44929145486757"><ele>119.0</ele><time>2026-04-09T07:21:52Z</time></trkpt><trkpt lat="45.12981088583071" lon="8.449372712907909"><ele>119.0</ele><time>2026-04-09T07:21:54Z</time></trkpt><trkpt lat="45.12977078678949" lon="8.449457024475949"><ele>119.0</ele><time>2026-04-09T07:21:56Z</time></trkpt><trkpt lat="45.12969904513378" lon="8.449563869057714"><ele>119.0</ele><time>2026-04-09T07:21:58Z</time></trkpt><trkpt lat="45.12961131038742" lon="8.449669601065334"><ele>118.80000000000001</ele><time>2026-04-09T07:22:00Z</time></trkpt><trkpt lat="45.12956818090537" lon="8.449769815441634"><ele>118.60000000000001</ele><time>2026-04-09T07:22:02Z</time></trkpt><trkpt lat="45.12951619269696" lon="8.449827956164219"><ele>118.4</ele><time>2026-04-09T07:22:04Z</time></trkpt><trkpt lat="45.129455983768075" lon="8.449899140496102"><ele>118.2</ele><time>2026-04-09T07:22:06Z</time></trkpt><trkpt lat="45.12937149916842" lon="8.450017554371758"><ele>118.0</ele><time>2026-04-09T07:22:08Z</time></trkpt><trkpt lat="45.12928879044264" lon="8.450128635284134"><ele>118.0</ele><time>2026-04-09T07:22:10Z</time></trkpt><trkpt lat="45.129223404085145" lon="8.450226167833224"><ele>118.00000000000001</ele><time>2026-04-09T07:22:12Z</time></trkpt><trkpt lat="45.12918289130708" lon="8.45033158674884"><ele>118.00000000000001</ele><time>2026-04-09T07:22:17Z</time></trkpt><trkpt lat="45.12912182919828" lon="8.45046197052173"><ele>118.0</ele><time>2026-04-09T07:22:19Z</time></trkpt><trkpt lat="45.129067858365154" lon="8.450543755834893"><ele>118.0</ele><time>2026-04-09T07:22:20Z</time></trkpt><trkpt lat="45.12899838823346" lon="8.450609384432207"><ele>117.80000000000001</ele><time>2026-04-09T07:22:21Z</time></trkpt><trkpt lat="45.12892040639065" lon="8.450657776548889"><ele>117.60000000000001</ele><time>2026-04-09T07:22:22Z</time></trkpt><trkpt lat="45.128823712451904" lon="8.450678292047913"><ele>117.39999999999999</ele><time>2026-04-09T07:22:23Z</time></trkpt><trkpt lat="45.12873111394132" lon="8.450685730400304"><ele>117.19999999999999</ele><time>2026-04-09T07:22:24Z</time></trkpt><trkpt lat="45.128639916298816" lon="8.450692063601785"><ele>117.0</ele><time>2026-04-09T07:22:25Z</time></trkpt><trkpt lat="45.12855646828519" lon="8.450703021869481"><ele>117.0</ele><time>2026-04-09T07:22:26Z</time></trkpt><trkpt lat="45.12848087188232" lon="8.450716958181516"><ele>117.0</ele><time>2026-04-09T07:22:27Z</time></trkpt><trkpt lat="45.12841041680446" lon="8.450731522568104"><ele>117.0</ele><time>2026-04-09T07:22:28Z</time></trkpt><trkpt lat="45.128336287597335" lon="8.450746845863454"><ele>117.0</ele><time>2026-04-09T07:22:29Z</time></trkpt><trkpt lat="45.12826694151274" lon="8.450760450091797"><ele>117.0</ele><time>2026-04-09T07:22:30Z</time></trkpt><trkpt lat="45.12819445817239" lon="8.450747565601212"><ele>117.0</ele><time>2026-04-09T07:22:31Z</time></trkpt><trkpt lat="45.128081569496224" lon="8.450754258460655"><ele>117.0</ele><time>2026-04-09T07:22:33Z</time></trkpt><trkpt lat="45.12798638491476" lon="8.450759901699186"><ele>116.99999999999999</ele><time>2026-04-09T07:22:35Z</time></trkpt><trkpt lat="45.12789896956609" lon="8.450765084535474"><ele>116.99999999999999</ele><time>2026-04-09T07:22:37Z</time></trkpt><trkpt lat="45.127799474909565" lon="8.450771455437929"><ele>117.0</ele><time>2026-04-09T07:22:39Z</time></trkpt><trkpt lat="45.12770057564189" lon="8.45079488775064"><ele>117.0</ele><time>2026-04-09T07:22:41Z</time></trkpt><trkpt lat="45.12756730306477" lon="8.450782019725462"><ele>117.0</ele><time>2026-04-09T07:22:43Z</time></trkpt><trkpt lat="45.12749039433939" lon="8.450784531900682"><ele>117.0</ele><time>2026-04-09T07:22:44Z</time></trkpt><trkpt lat="45.12740827879684" lon="8.450796745290193"><ele>117.0</ele><time>2026-04-09T07:22:45Z</time></trkpt><trkpt lat="45.12732456503428" lon="8.450801469534962"><ele>117.0</ele><time>2026-04-09T07:22:46Z</time></trkpt><trkpt lat="45.12723911175279" lon="8.450801386733591"><ele>117.0</ele><time>2026-04-09T07:22:47Z</time></trkpt><trkpt lat="45.12716153826723" lon="8.450799485920935"><ele>117.0</ele><time>2026-04-09T07:22:48Z</time></trkpt><trkpt lat="45.1270892927721" lon="8.450796865478395"><ele>117.19999999999999</ele><time>2026-04-09T07:22:49Z</time></trkpt><trkpt lat="45.12695908167856" lon="8.450799786119987"><ele>117.39999999999999</ele><time>2026-04-09T07:22:51Z</time></trkpt><trkpt lat="45.12687395925512" lon="8.450794981806128"><ele>117.60000000000001</ele><time>2026-04-09T07:22:51.999Z</time></trkpt><trkpt lat="45.12678801674718" lon="8.450797026912564"><ele>117.80000000000001</ele><time>2026-04-09T07:22:52.999Z</time></trkpt><trkpt lat="45.12669113016801" lon="8.45079674866892"><ele>118.0</ele><time>2026-04-09T07:22:53.999Z</time></trkpt><trkpt lat="45.126592429510545" lon="8.450812636226763"><ele>118.0</ele><time>2026-04-09T07:22:54.999Z</time></trkpt><trkpt lat="45.12649099322813" lon="8.450823659008089"><ele>118.00000000000001</ele><time>2026-04-09T07:22:55.999Z</time></trkpt><trkpt lat="45.12639716850258" lon="8.450833678623614"><ele>118.00000000000001</ele><time>2026-04-09T07:22:56.999Z</time></trkpt><trkpt lat="45.12630606859591" lon="8.450840821621922"><ele>118.0</ele><time>2026-04-09T07:22:57.999Z</time></trkpt><trkpt lat="45.126222874786855" lon="8.45084260310766"><ele>118.0</ele><time>2026-04-09T07:22:58.999Z</time></trkpt><trkpt lat="45.12613147751993" lon="8.450852376310918"><ele>118.00000000000001</ele><time>2026-04-09T07:22:59.999Z</time></trkpt><trkpt lat="45.12603544329695" lon="8.450858771511754"><ele>118.0</ele><time>2026-04-09T07:23:01Z</time></trkpt><trkpt lat="45.12594852214598" lon="8.45086179160124"><ele>118.0</ele><time>2026-04-09T07:23:02Z</time></trkpt><trkpt lat="45.12586665216193" lon="8.45086676363112"><ele>118.0</ele><time>2026-04-09T07:23:03Z</time></trkpt><trkpt lat="45.12578787305547" lon="8.450871956238384"><ele>118.00000000000001</ele><time>2026-04-09T07:23:04Z</time></trkpt><trkpt lat="45.12570876671879" lon="8.450877366221293"><ele>118.0</ele><time>2026-04-09T07:23:05Z</time></trkpt><trkpt lat="45.12562889728985" lon="8.450882448721634"><ele>117.60000000000001</ele><time>2026-04-09T07:23:06Z</time></trkpt><trkpt lat="45.12555766197201" lon="8.450885812762355"><ele>117.20000000000002</ele><time>2026-04-09T07:23:07Z</time></trkpt><trkpt lat="45.125434414848314" lon="8.450890091729763"><ele>116.8</ele><time>2026-04-09T07:23:09Z</time></trkpt><trkpt lat="45.12530966196969" lon="8.450901914131508"><ele>116.4</ele><time>2026-04-09T07:23:11Z</time></trkpt><trkpt lat="45.12524179231474" lon="8.450908308247394"><ele>116.0</ele><time>2026-04-09T07:23:12Z</time></trkpt><trkpt lat="45.125169671686876" lon="8.450914394781664"><ele>115.99999999999999</ele><time>2026-04-09T07:23:13Z</time></trkpt><trkpt lat="45.12509621067781" lon="8.45092130284518"><ele>116.0</ele><time>2026-04-09T07:23:14Z</time></trkpt><trkpt lat="45.125022804280185" lon="8.450924741519122"><ele>116.0</ele><time>2026-04-09T07:23:15Z</time></trkpt><trkpt lat="45.12494665665584" lon="8.450928379828468"><ele>116.0</ele><time>2026-04-09T07:23:16Z</time></trkpt><trkpt lat="45.12486780835767" lon="8.450931697001083"><ele>115.99999999999999</ele><time>2026-04-09T07:23:17Z</time></trkpt><trkpt lat="45.12478645501152" lon="8.45093294993971"><ele>116.0</ele><time>2026-04-09T07:23:18Z</time></trkpt><trkpt lat="45.12470534124832" lon="8.45093119345955"><ele>115.99999999999999</ele><time>2026-04-09T07:23:19Z</time></trkpt><trkpt lat="45.12462876952042" lon="8.45092823412102"><ele>116.0</ele><time>2026-04-09T07:23:20Z</time></trkpt><trkpt lat="45.124562996605974" lon="8.45090881794898"><ele>116.0</ele><time>2026-04-09T07:23:21Z</time></trkpt><trkpt lat="45.124450791613015" lon="8.450910278193511"><ele>116.0</ele><time>2026-04-09T07:23:23Z</time></trkpt><trkpt lat="45.12436800387111" lon="8.45092137238342"><ele>115.99999999999999</ele><time>2026-04-09T07:23:25Z</time></trkpt><trkpt lat="45.124293802145495" lon="8.450935613946788"><ele>116.0</ele><time>2026-04-09T07:23:27Z</time></trkpt><trkpt lat="45.12418132486118" lon="8.450932800360118"><ele>116.0</ele><time>2026-04-09T07:23:29Z</time></trkpt><trkpt lat="45.12411643588506" lon="8.45093547406448"><ele>116.0</ele><time>2026-04-09T07:23:30Z</time></trkpt><trkpt lat="45.12400259737764" lon="8.45094744651172"><ele>116.0</ele><time>2026-04-09T07:23:32Z</time></trkpt><trkpt lat="45.123884412639796" lon="8.450958855198296"><ele>116.0</ele><time>2026-04-09T07:23:34Z</time></trkpt><trkpt lat="45.1237559332889" lon="8.450971909651347"><ele>116.0</ele><time>2026-04-09T07:23:36Z</time></trkpt><trkpt lat="45.12368495984784" lon="8.450977566272073"><ele>116.33333333333333</ele><time>2026-04-09T07:23:37Z</time></trkpt><trkpt lat="45.12360989942684" lon="8.450982630139054"><ele>116.66666666666666</ele><time>2026-04-09T07:23:38Z</time></trkpt><trkpt lat="45.12353308639817" lon="8.450986789702366"><ele>117.0</ele><time>2026-04-09T07:23:39Z</time></trkpt><trkpt lat="45.123454780345206" lon="8.450991075825709"><ele>117.33333333333334</ele><time>2026-04-09T07:23:40Z</time></trkpt><trkpt lat="45.123374276251454" lon="8.451001283356076"><ele>117.66666666666667</ele><time>2026-04-09T07:23:41Z</time></trkpt><trkpt lat="45.12329649806943" lon="8.451004084939722"><ele>118.0</ele><time>2026-04-09T07:23:42Z</time></trkpt><trkpt lat="45.123215830868844" lon="8.451009857953965"><ele>118.2</ele><time>2026-04-09T07:23:43Z</time></trkpt><trkpt lat="45.12312552154454" lon="8.451013596028815"><ele>118.4</ele><time>2026-04-09T07:23:44Z</time></trkpt><trkpt lat="45.12302495526555" lon="8.451022599830823"><ele>118.60000000000001</ele><time>2026-04-09T07:23:45Z</time></trkpt><trkpt lat="45.122925726900384" lon="8.451035591293593"><ele>118.80000000000001</ele><time>2026-04-09T07:23:46Z</time></trkpt><trkpt lat="45.122829366412965" lon="8.45104220763169"><ele>119.0</ele><time>2026-04-09T07:23:47Z</time></trkpt><trkpt lat="45.12274075709556" lon="8.451047880422811"><ele>118.99999999999999</ele><time>2026-04-09T07:23:48Z</time></trkpt><trkpt lat="45.122652422465265" lon="8.451051713677602"><ele>119.0</ele><time>2026-04-09T07:23:49Z</time></trkpt><trkpt lat="45.122574027290824" lon="8.451054694929127"><ele>119.0</ele><time>2026-04-09T07:23:50Z</time></trkpt><trkpt lat="45.122503579724594" lon="8.451058182773197"><ele>119.0</ele><time>2026-04-09T07:23:51Z</time></trkpt><trkpt lat="45.12237400282508" lon="8.451064505524553"><ele>118.99999999999999</ele><time>2026-04-09T07:23:53Z</time></trkpt><trkpt lat="45.12230785275362" lon="8.45107020707867"><ele>119.0</ele><time>2026-04-09T07:23:54Z</time></trkpt><trkpt lat="45.12224251858163" lon="8.451070353259109"><ele>119.2</ele><time>2026-04-09T07:23:55Z</time></trkpt><trkpt lat="45.12213700865409" lon="8.45107423018573"><ele>119.4</ele><time>2026-04-09T07:23:57Z</time></trkpt><trkpt lat="45.12203752766665" lon="8.451083709475522"><ele>119.6</ele><time>2026-04-09T07:23:59Z</time></trkpt><trkpt lat="45.121922306105546" lon="8.451072190173006"><ele>119.8</ele><time>2026-04-09T07:24:01Z</time></trkpt><trkpt lat="45.12185972448775" lon="8.451093342101638"><ele>120.0</ele><time>2026-04-09T07:24:02Z</time></trkpt><trkpt lat="45.12176042537163" lon="8.451024512008319"><ele>120.0</ele><time>2026-04-09T07:24:04Z</time></trkpt><trkpt lat="45.12166080725122" lon="8.450954136030145"><ele>120.0</ele><time>2026-04-09T07:24:06Z</time></trkpt><trkpt lat="45.121539750379135" lon="8.450964372898966"><ele>120.0</ele><time>2026-04-09T07:24:08Z</time></trkpt><trkpt lat="45.1214726822979" lon="8.45099007998014"><ele>120.0</ele><time>2026-04-09T07:24:09Z</time></trkpt><trkpt lat="45.12141101926061" lon="8.451041502126252"><ele>120.0</ele><time>2026-04-09T07:24:10Z</time></trkpt><trkpt lat="45.1213468529611" lon="8.45108997012255"><ele>120.0</ele><time>2026-04-09T07:24:11Z</time></trkpt><trkpt lat="45.12127527922568" lon="8.45111093897875"><ele>119.85714285714286</ele><time>2026-04-09T07:24:12Z</time></trkpt><trkpt lat="45.121201836798214" lon="8.451113584091761"><ele>119.71428571428571</ele><time>2026-04-09T07:24:13Z</time></trkpt><trkpt lat="45.12113184346412" lon="8.451121341087925"><ele>119.57142857142857</ele><time>2026-04-09T07:24:14Z</time></trkpt><trkpt lat="45.12106145049929" lon="8.451132618115704"><ele>119.42857142857143</ele><time>2026-04-09T07:24:15Z</time></trkpt><trkpt lat="45.120987184165806" lon="8.45113776549645"><ele>119.28571428571428</ele><time>2026-04-09T07:24:16Z</time></trkpt><trkpt lat="45.12091274248543" lon="8.451136669594161"><ele>119.14285714285714</ele><time>2026-04-09T07:24:17Z</time></trkpt><trkpt lat="45.12083457584427" lon="8.45113044790502"><ele>119.0</ele><time>2026-04-09T07:24:18Z</time></trkpt><trkpt lat="45.12075916624618" lon="8.451128860639619"><ele>119.16666666666666</ele><time>2026-04-09T07:24:19Z</time></trkpt><trkpt lat="45.120692800243056" lon="8.451120903826414"><ele>119.33333333333333</ele><time>2026-04-09T07:24:20Z</time></trkpt><trkpt lat="45.12058625797398" lon="8.451131356324426"><ele>119.5</ele><time>2026-04-09T07:24:22Z</time></trkpt><trkpt lat="45.120495935297974" lon="8.45112444275986"><ele>119.66666666666666</ele><time>2026-04-09T07:24:24Z</time></trkpt><trkpt lat="45.120426312695905" lon="8.451094789606932"><ele>119.83333333333333</ele><time>2026-04-09T07:24:26Z</time></trkpt><trkpt lat="45.12034747587182" lon="8.451024959459696"><ele>120.0</ele><time>2026-04-09T07:24:31Z</time></trkpt><trkpt lat="45.12027531322812" lon="8.451003979419804"><ele>120.0</ele><time>2026-04-09T07:24:33Z</time></trkpt><trkpt lat="45.12018262486984" lon="8.451083011034955"><ele>120.0</ele><time>2026-04-09T07:24:35Z</time></trkpt><trkpt lat="45.120129823970565" lon="8.451135737948793"><ele>120.0</ele><time>2026-04-09T07:24:36Z</time></trkpt><trkpt lat="45.120022711384536" lon="8.45119897440992"><ele>120.0</ele><time>2026-04-09T07:24:38Z</time></trkpt><trkpt lat="45.119907295698404" lon="8.451219256521942"><ele>120.0</ele><time>2026-04-09T07:24:40Z</time></trkpt><trkpt lat="45.119837418749384" lon="8.451223729697132"><ele>119.83333333333333</ele><time>2026-04-09T07:24:41Z</time></trkpt><trkpt lat="45.119762396946285" lon="8.451221760236024"><ele>119.66666666666666</ele><time>2026-04-09T07:24:42Z</time></trkpt><trkpt lat="45.11968008975067" lon="8.451220385338068"><ele>119.5</ele><time>2026-04-09T07:24:43Z</time></trkpt><trkpt lat="45.119596264080215" lon="8.451223220549783"><ele>119.33333333333333</ele><time>2026-04-09T07:24:44Z</time></trkpt><trkpt lat="45.119513246057146" lon="8.45122818135241"><ele>119.16666666666666</ele><time>2026-04-09T07:24:45Z</time></trkpt><trkpt lat="45.11943148363177" lon="8.451230186616518"><ele>119.0</ele><time>2026-04-09T07:24:46Z</time></trkpt><trkpt lat="45.11934913170926" lon="8.451235399138655"><ele>119.0</ele><time>2026-04-09T07:24:47Z</time></trkpt><trkpt lat="45.11925446523244" lon="8.4512403941505"><ele>119.0</ele><time>2026-04-09T07:24:48Z</time></trkpt><trkpt lat="45.11915049833134" lon="8.451243853797589"><ele>119.0</ele><time>2026-04-09T07:24:49Z</time></trkpt><trkpt lat="45.119034865308315" lon="8.451248480121448"><ele>119.0</ele><time>2026-04-09T07:24:50Z</time></trkpt><trkpt lat="45.11890875303006" lon="8.451255739480539"><ele>119.0</ele><time>2026-04-09T07:24:51Z</time></trkpt><trkpt lat="45.11877515465962" lon="8.45126335870925"><ele>119.0</ele><time>2026-04-09T07:24:52Z</time></trkpt><trkpt lat="45.11863786410489" lon="8.451272768319923"><ele>119.0</ele><time>2026-04-09T07:24:53Z</time></trkpt><trkpt lat="45.11849045114439" lon="8.451284974132067"><ele>119.0</ele><time>2026-04-09T07:24:54Z</time></trkpt><trkpt lat="45.11834130484361" lon="8.45129651608341"><ele>119.0</ele><time>2026-04-09T07:24:55Z</time></trkpt><trkpt lat="45.11818512642404" lon="8.45130711667885"><ele>118.5</ele><time>2026-04-09T07:24:56Z</time></trkpt><trkpt lat="45.118032495347215" lon="8.45131726690914"><ele>118.0</ele><time>2026-04-09T07:24:57Z</time></trkpt><trkpt lat="45.117883932436676" lon="8.451326038887705"><ele>117.5</ele><time>2026-04-09T07:24:58Z</time></trkpt><trkpt lat="45.11773777380332" lon="8.451311585969917"><ele>117.0</ele><time>2026-04-09T07:24:59Z</time></trkpt><trkpt lat="45.117593163024836" lon="8.451320061831117"><ele>117.0</ele><time>2026-04-09T07:25:00Z</time></trkpt><trkpt lat="45.11744626458692" lon="8.45132888343019"><ele>117.0</ele><time>2026-04-09T07:25:01Z</time></trkpt><trkpt lat="45.11729764511547" lon="8.45133789599853"><ele>117.0</ele><time>2026-04-09T07:25:02Z</time></trkpt><trkpt lat="45.117146057058726" lon="8.451346864554928"><ele>117.0</ele><time>2026-04-09T07:25:03Z</time></trkpt><trkpt lat="45.11698929212899" lon="8.451345053778022"><ele>117.0</ele><time>2026-04-09T07:25:04Z</time></trkpt><trkpt lat="45.11683555568561" lon="8.451363064425497"><ele>117.0</ele><time>2026-04-09T07:25:05Z</time></trkpt><trkpt lat="45.116689651" lon="8.451381930731001"><ele>117.0</ele><time>2026-04-09T07:25:06Z</time></trkpt><trkpt lat="45.11655293287397" lon="8.451393374024303"><ele>117.0</ele><time>2026-04-09T07:25:07Z</time></trkpt><trkpt lat="45.1164299689466" lon="8.45140286262412"><ele>117.0</ele><time>2026-04-09T07:25:08Z</time></trkpt><trkpt lat="45.11631807817181" lon="8.451410756265172"><ele>116.99999999999999</ele><time>2026-04-09T07:25:09Z</time></trkpt><trkpt lat="45.11621546626319" lon="8.451411075398159"><ele>116.99999999999999</ele><time>2026-04-09T07:25:10Z</time></trkpt><trkpt lat="45.116115938717705" lon="8.45139544075408"><ele>117.0</ele><time>2026-04-09T07:25:11Z</time></trkpt><trkpt lat="45.11601784230361" lon="8.451363057978309"><ele>117.0</ele><time>2026-04-09T07:25:12Z</time></trkpt><trkpt lat="45.11592532972317" lon="8.451297452503683"><ele>117.25</ele><time>2026-04-09T07:25:13Z</time></trkpt><trkpt lat="45.11583374541165" lon="8.451208429642593"><ele>117.5</ele><time>2026-04-09T07:25:14Z</time></trkpt><trkpt lat="45.11574975199563" lon="8.451095584427915"><ele>117.75</ele><time>2026-04-09T07:25:15Z</time></trkpt><trkpt lat="45.11567718262825" lon="8.450967680895834"><ele>118.0</ele><time>2026-04-09T07:25:16Z</time></trkpt><trkpt lat="45.115610639550205" lon="8.450838657074147"><ele>118.0</ele><time>2026-04-09T07:25:17Z</time></trkpt><trkpt lat="45.11553748571133" lon="8.450726874292412"><ele>118.00000000000001</ele><time>2026-04-09T07:25:18Z</time></trkpt><trkpt lat="45.11545071995753" lon="8.450649429228989"><ele>118.00000000000001</ele><time>2026-04-09T07:25:19Z</time></trkpt><trkpt lat="45.11535759548336" lon="8.450610642245087"><ele>118.0</ele><time>2026-04-09T07:25:20Z</time></trkpt><trkpt lat="45.11526550619597" lon="8.45061431819471"><ele>118.0</ele><time>2026-04-09T07:25:21Z</time></trkpt><trkpt lat="45.115183191803084" lon="8.450659560279606"><ele>118.0</ele><time>2026-04-09T07:25:22Z</time></trkpt><trkpt lat="45.115097646927715" lon="8.450725572716413"><ele>118.00000000000001</ele><time>2026-04-09T07:25:23Z</time></trkpt><trkpt lat="45.1150145284701" lon="8.450809085378676"><ele>118.00000000000001</ele><time>2026-04-09T07:25:24Z</time></trkpt><trkpt lat="45.11493346240018" lon="8.45089844940489"><ele>118.0</ele><time>2026-04-09T07:25:25Z</time></trkpt><trkpt lat="45.114852338818906" lon="8.450996038368531"><ele>118.0</ele><time>2026-04-09T07:25:26Z</time></trkpt><trkpt lat="45.114763968993785" lon="8.451090553500084"><ele>118.0</ele><time>2026-04-09T07:25:27Z</time></trkpt><trkpt lat="45.1146712979438" lon="8.451188887271895"><ele>118.0</ele><time>2026-04-09T07:25:28Z</time></trkpt><trkpt lat="45.11458104642826" lon="8.45127638905191"><ele>118.0</ele><time>2026-04-09T07:25:29Z</time></trkpt><trkpt lat="45.114473064516474" lon="8.451371184436685"><ele>118.0</ele><time>2026-04-09T07:25:30Z</time></trkpt><trkpt lat="45.11435569652453" lon="8.451447353415364"><ele>117.75</ele><time>2026-04-09T07:25:31Z</time></trkpt><trkpt lat="45.11422690587425" lon="8.451500496934337"><ele>117.5</ele><time>2026-04-09T07:25:32Z</time></trkpt><trkpt lat="45.114092054081816" lon="8.451504820289006"><ele>117.25</ele><time>2026-04-09T07:25:33Z</time></trkpt><trkpt lat="45.11395741015472" lon="8.451515027191189"><ele>117.0</ele><time>2026-04-09T07:25:34Z</time></trkpt><trkpt lat="45.11382301591165" lon="8.451541759419728"><ele>117.75</ele><time>2026-04-09T07:25:35Z</time></trkpt><trkpt lat="45.113690287264696" lon="8.451548911159438"><ele>118.5</ele><time>2026-04-09T07:25:36Z</time></trkpt><trkpt lat="45.11355566072037" lon="8.451554854071174"><ele>119.25</ele><time>2026-04-09T07:25:37Z</time></trkpt><trkpt lat="45.113418835907495" lon="8.451559811695642"><ele>120.0</ele><time>2026-04-09T07:25:38Z</time></trkpt><trkpt lat="45.11326880096489" lon="8.451565916741336"><ele>119.33333333333334</ele><time>2026-04-09T07:25:39Z</time></trkpt><trkpt lat="45.11311170224934" lon="8.451575135736416"><ele>118.66666666666667</ele><time>2026-04-09T07:25:40Z</time></trkpt><trkpt lat="45.11295603039096" lon="8.451583804731568"><ele>118.0</ele><time>2026-04-09T07:25:41Z</time></trkpt><trkpt lat="45.11280523924308" lon="8.451589739778676"><ele>118.0</ele><time>2026-04-09T07:25:42Z</time></trkpt><trkpt lat="45.11265644105466" lon="8.451595708413357"><ele>118.0</ele><time>2026-04-09T07:25:43Z</time></trkpt><trkpt lat="45.112503415702875" lon="8.451607116635225"><ele>118.0</ele><time>2026-04-09T07:25:44Z</time></trkpt><trkpt lat="45.11233503420107" lon="8.45161781331155"><ele>118.66666666666667</ele><time>2026-04-09T07:25:45Z</time></trkpt><trkpt lat="45.11215719799747" lon="8.451626376002752"><ele>119.33333333333334</ele><time>2026-04-09T07:25:46Z</time></trkpt><trkpt lat="45.111997039757696" lon="8.451632948276117"><ele>120.0</ele><time>2026-04-09T07:25:47Z</time></trkpt><trkpt lat="45.111850141927306" lon="8.451643548140458"><ele>120.0</ele><time>2026-04-09T07:25:48Z</time></trkpt><trkpt lat="45.11169709278118" lon="8.451654056397146"><ele>120.0</ele><time>2026-04-09T07:25:49Z</time></trkpt><trkpt lat="45.1115370789285" lon="8.451663340161982"><ele>120.0</ele><time>2026-04-09T07:25:50Z</time></trkpt><trkpt lat="45.11138189304496" lon="8.451669512694789"><ele>119.33333333333334</ele><time>2026-04-09T07:25:51Z</time></trkpt><trkpt lat="45.11123747556812" lon="8.451670609180518"><ele>118.66666666666667</ele><time>2026-04-09T07:25:52Z</time></trkpt><trkpt lat="45.11108659945712" lon="8.451675586305251"><ele>118.0</ele><time>2026-04-09T07:25:53Z</time></trkpt><trkpt lat="45.110929302022555" lon="8.451685907059321"><ele>118.0</ele><time>2026-04-09T07:25:54Z</time></trkpt><trkpt lat="45.11076017374469" lon="8.45170052002705"><ele>118.0</ele><time>2026-04-09T07:25:55Z</time></trkpt><trkpt lat="45.11059166254139" lon="8.451713691662594"><ele>118.0</ele><time>2026-04-09T07:25:56Z</time></trkpt><trkpt lat="45.11042313791429" lon="8.451710432297547"><ele>117.66666666666667</ele><time>2026-04-09T07:25:57Z</time></trkpt><trkpt lat="45.1102532187326" lon="8.451718387145409"><ele>117.33333333333334</ele><time>2026-04-09T07:25:58Z</time></trkpt><trkpt lat="45.11008245456597" lon="8.451726405719285"><ele>117.0</ele><time>2026-04-09T07:25:59Z</time></trkpt><trkpt lat="45.109912504210314" lon="8.451735417553202"><ele>117.33333333333334</ele><time>2026-04-09T07:26:00Z</time></trkpt><trkpt lat="45.10974028121955" lon="8.45174418209493"><ele>117.66666666666667</ele><time>2026-04-09T07:26:01Z</time></trkpt><trkpt lat="45.10956723104391" lon="8.451753127056575"><ele>118.0</ele><time>2026-04-09T07:26:02Z</time></trkpt><trkpt lat="45.10939620639914" lon="8.451760804211279"><ele>118.0</ele><time>2026-04-09T07:26:03Z</time></trkpt><trkpt lat="45.109225911820374" lon="8.451770285442695"><ele>118.0</ele><time>2026-04-09T07:26:04Z</time></trkpt><trkpt lat="45.109060697230916" lon="8.451782664388007"><ele>118.0</ele><time>2026-04-09T07:26:05Z</time></trkpt><trkpt lat="45.10889900746316" lon="8.451792869166988"><ele>118.33333333333334</ele><time>2026-04-09T07:26:06Z</time></trkpt><trkpt lat="45.10873471076782" lon="8.451803815223618"><ele>118.66666666666666</ele><time>2026-04-09T07:26:07Z</time></trkpt><trkpt lat="45.10857217776645" lon="8.451811563308201"><ele>119.0</ele><time>2026-04-09T07:26:08Z</time></trkpt><trkpt lat="45.108406363281546" lon="8.451823493344579"><ele>119.0</ele><time>2026-04-09T07:26:09Z</time></trkpt><trkpt lat="45.108239261414155" lon="8.451835591647308"><ele>119.0</ele><time>2026-04-09T07:26:10Z</time></trkpt><trkpt lat="45.10807227584376" lon="8.451847104464026"><ele>119.0</ele><time>2026-04-09T07:26:11Z</time></trkpt><trkpt lat="45.107902702066596" lon="8.451853046997835"><ele>119.0</ele><time>2026-04-09T07:26:12Z</time></trkpt><trkpt lat="45.107730001553364" lon="8.451859333538952"><ele>119.0</ele><time>2026-04-09T07:26:13Z</time></trkpt><trkpt lat="45.10755485766667" lon="8.451866520570723"><ele>119.0</ele><time>2026-04-09T07:26:14Z</time></trkpt><trkpt lat="45.1073721810167" lon="8.451873778744767"><ele>118.33333333333333</ele><time>2026-04-09T07:26:15Z</time></trkpt><trkpt lat="45.10719088740589" lon="8.451880340131265"><ele>117.66666666666666</ele><time>2026-04-09T07:26:16Z</time></trkpt><trkpt lat="45.10701092434011" lon="8.45188302314353"><ele>117.0</ele><time>2026-04-09T07:26:17Z</time></trkpt><trkpt lat="45.10682306281942" lon="8.451897104398755"><ele>117.0</ele><time>2026-04-09T07:26:18Z</time></trkpt><trkpt lat="45.106641021112026" lon="8.451905375346403"><ele>117.0</ele><time>2026-04-09T07:26:19Z</time></trkpt><trkpt lat="45.1064586103758" lon="8.451917887495526"><ele>117.0</ele><time>2026-04-09T07:26:20Z</time></trkpt><trkpt lat="45.1062836806131" lon="8.451933503103456"><ele>117.0</ele><time>2026-04-09T07:26:21Z</time></trkpt><trkpt lat="45.1061016838042" lon="8.451956090115567"><ele>117.0</ele><time>2026-04-09T07:26:22Z</time></trkpt><trkpt lat="45.10592714405631" lon="8.451978734475498"><ele>117.0</ele><time>2026-04-09T07:26:23Z</time></trkpt><trkpt lat="45.10575866761153" lon="8.452009419110556"><ele>117.66666666666666</ele><time>2026-04-09T07:26:24Z</time></trkpt><trkpt lat="45.10559216839139" lon="8.452034138484942"><ele>118.33333333333333</ele><time>2026-04-09T07:26:25Z</time></trkpt><trkpt lat="45.105428668358904" lon="8.452056350967872"><ele>119.0</ele><time>2026-04-09T07:26:26Z</time></trkpt><trkpt lat="45.10526699543627" lon="8.452076591775285"><ele>119.0</ele><time>2026-04-09T07:26:27Z</time></trkpt><trkpt lat="45.105106159320826" lon="8.45209808942367"><ele>119.0</ele><time>2026-04-09T07:26:28Z</time></trkpt><trkpt lat="45.10495065611139" lon="8.452118288764762"><ele>119.0</ele><time>2026-04-09T07:26:29Z</time></trkpt><trkpt lat="45.104794436929694" lon="8.452135609263406"><ele>118.33333333333333</ele><time>2026-04-09T07:26:30Z</time></trkpt><trkpt lat="45.10463828386855" lon="8.452159796539474"><ele>117.66666666666666</ele><time>2026-04-09T07:26:31Z</time></trkpt><trkpt lat="45.10448362601767" lon="8.452181475313289"><ele>117.0</ele><time>2026-04-09T07:26:32Z</time></trkpt><trkpt lat="45.104331072806104" lon="8.452204823052432"><ele>117.0</ele><time>2026-04-09T07:26:33Z</time></trkpt><trkpt lat="45.10418070319397" lon="8.452230501804761"><ele>117.0</ele><time>2026-04-09T07:26:34Z</time></trkpt><trkpt lat="45.104033778747336" lon="8.452254996745198"><ele>117.0</ele><time>2026-04-09T07:26:35Z</time></trkpt><trkpt lat="45.10388766236228" lon="8.452280517274724"><ele>117.0</ele><time>2026-04-09T07:26:36Z</time></trkpt><trkpt lat="45.10374651708203" lon="8.452307774052313"><ele>117.5</ele><time>2026-04-09T07:26:37Z</time></trkpt><trkpt lat="45.103613376016476" lon="8.452337248849501"><ele>118.0</ele><time>2026-04-09T07:26:38Z</time></trkpt><trkpt lat="45.103490663374494" lon="8.452363629929364"><ele>118.5</ele><time>2026-04-09T07:26:39Z</time></trkpt><trkpt lat="45.10337895382933" lon="8.45238872080634"><ele>119.0</ele><time>2026-04-09T07:26:40Z</time></trkpt><trkpt lat="45.10327511789074" lon="8.452409725602326"><ele>118.80000000000001</ele><time>2026-04-09T07:26:41Z</time></trkpt><trkpt lat="45.103179112058776" lon="8.452431246630395"><ele>118.60000000000001</ele><time>2026-04-09T07:26:42Z</time></trkpt><trkpt lat="45.10308686160243" lon="8.452452544132377"><ele>118.4</ele><time>2026-04-09T07:26:43Z</time></trkpt><trkpt lat="45.10299420616962" lon="8.452474617875145"><ele>118.2</ele><time>2026-04-09T07:26:44Z</time></trkpt><trkpt lat="45.102899582761225" lon="8.452493086339754"><ele>118.0</ele><time>2026-04-09T07:26:45Z</time></trkpt><trkpt lat="45.10281288674838" lon="8.452511015152922"><ele>118.0</ele><time>2026-04-09T07:26:46Z</time></trkpt><trkpt lat="45.10274651888045" lon="8.45251893205271"><ele>118.00000000000001</ele><time>2026-04-09T07:26:47Z</time></trkpt><trkpt lat="45.102667599672024" lon="8.452537655815929"><ele>118.00000000000001</ele><time>2026-04-09T07:26:49Z</time></trkpt><trkpt lat="45.10258205636995" lon="8.452654101940842"><ele>118.0</ele><time>2026-04-09T07:27:03Z</time></trkpt><trkpt lat="45.10263244690608" lon="8.45278610347641"><ele>118.0</ele><time>2026-04-09T07:27:05Z</time></trkpt><trkpt lat="45.10272188643915" lon="8.452825702390932"><ele>118.0</ele><time>2026-04-09T07:27:08Z</time></trkpt><trkpt lat="45.10278096225849" lon="8.45278051029978"><ele>118.00000000000001</ele><time>2026-04-09T07:30:27Z</time></trkpt><trkpt lat="45.1028464324136" lon="8.45276019063777"><ele>118.00000000000001</ele><time>2026-04-09T07:30:29Z</time></trkpt><trkpt lat="45.102952217673824" lon="8.452676803351045"><ele>118.0</ele><time>2026-04-09T07:30:31Z</time></trkpt><trkpt lat="45.10304217340829" lon="8.452638998133574"><ele>118.0</ele><time>2026-04-09T07:30:33Z</time></trkpt><trkpt lat="45.102949330069706" lon="8.452420724592102"><ele>118.00000000000001</ele><time>2026-04-09T07:30:38Z</time></trkpt><trkpt lat="45.102874859643805" lon="8.45244626344151"><ele>118.0</ele><time>2026-04-09T07:30:39Z</time></trkpt><trkpt lat="45.102798228775235" lon="8.452469605621769"><ele>118.0</ele><time>2026-04-09T07:30:40Z</time></trkpt><trkpt lat="45.10270920164822" lon="8.452494807746444"><ele>118.0</ele><time>2026-04-09T07:30:41Z</time></trkpt><trkpt lat="45.102620358405126" lon="8.452515322490461"><ele>118.00000000000001</ele><time>2026-04-09T07:30:42Z</time></trkpt><trkpt lat="45.10251668904992" lon="8.45253821762588"><ele>118.0</ele><time>2026-04-09T07:30:43Z</time></trkpt><trkpt lat="45.10240315096914" lon="8.452559746469632"><ele>117.75</ele><time>2026-04-09T07:30:44Z</time></trkpt><trkpt lat="45.102283452453655" lon="8.452584955168236"><ele>117.5</ele><time>2026-04-09T07:30:45Z</time></trkpt><trkpt lat="45.10216527867988" lon="8.452611149538317"><ele>117.25</ele><time>2026-04-09T07:30:46Z</time></trkpt><trkpt lat="45.10203912359005" lon="8.452638874648263"><ele>117.0</ele><time>2026-04-09T07:30:47Z</time></trkpt><trkpt lat="45.10190509092656" lon="8.452666249824631"><ele>117.0</ele><time>2026-04-09T07:30:48Z</time></trkpt><trkpt lat="45.101765066798905" lon="8.452692691249638"><ele>117.0</ele><time>2026-04-09T07:30:49Z</time></trkpt><trkpt lat="45.101623117275786" lon="8.452719858679268"><ele>117.0</ele><time>2026-04-09T07:30:50Z</time></trkpt><trkpt lat="45.10147917942944" lon="8.452752410106074"><ele>117.0</ele><time>2026-04-09T07:30:51Z</time></trkpt><trkpt lat="45.10134018510312" lon="8.452781410295144"><ele>117.5</ele><time>2026-04-09T07:30:52Z</time></trkpt><trkpt lat="45.10120580595856" lon="8.452812835030574"><ele>118.0</ele><time>2026-04-09T07:30:53Z</time></trkpt><trkpt lat="45.101076547177335" lon="8.452842289029858"><ele>118.5</ele><time>2026-04-09T07:30:54Z</time></trkpt><trkpt lat="45.10095330889705" lon="8.45287162011771"><ele>119.0</ele><time>2026-04-09T07:30:55Z</time></trkpt><trkpt lat="45.10084521902707" lon="8.452896730994544"><ele>118.99999999999999</ele><time>2026-04-09T07:30:56Z</time></trkpt><trkpt lat="45.10075548515092" lon="8.452910492436766"><ele>119.0</ele><time>2026-04-09T07:30:57Z</time></trkpt><trkpt lat="45.10067827309422" lon="8.452909544831583"><ele>119.0</ele><time>2026-04-09T07:30:58Z</time></trkpt><trkpt lat="45.10060943469397" lon="8.452883279402839"><ele>119.0</ele><time>2026-04-09T07:30:59Z</time></trkpt><trkpt lat="45.100502237211714" lon="8.452785981100948"><ele>118.99999999999999</ele><time>2026-04-09T07:31:01Z</time></trkpt><trkpt lat="45.10043321100376" lon="8.452804392958281"><ele>119.0</ele><time>2026-04-09T07:31:02Z</time></trkpt><trkpt lat="45.10037894512553" lon="8.452878306725177"><ele>118.80000000000001</ele><time>2026-04-09T07:31:03Z</time></trkpt><trkpt lat="45.10033088884537" lon="8.45297799332902"><ele>118.60000000000001</ele><time>2026-04-09T07:31:04Z</time></trkpt><trkpt lat="45.1002537810254" lon="8.453065666437315"><ele>118.4</ele><time>2026-04-09T07:31:05Z</time></trkpt><trkpt lat="45.100156044670996" lon="8.453140966593013"><ele>118.2</ele><time>2026-04-09T07:31:06Z</time></trkpt><trkpt lat="45.100050420493936" lon="8.453231575754367"><ele>118.0</ele><time>2026-04-09T07:31:07Z</time></trkpt><trkpt lat="45.09995748651259" lon="8.453337369109368"><ele>118.25</ele><time>2026-04-09T07:31:08Z</time></trkpt><trkpt lat="45.09985990464208" lon="8.453464540066301"><ele>118.5</ele><time>2026-04-09T07:31:09Z</time></trkpt><trkpt lat="45.099757647069914" lon="8.453600420654464"><ele>118.75</ele><time>2026-04-09T07:31:10Z</time></trkpt><trkpt lat="45.09964684959544" lon="8.453738492839188"><ele>119.0</ele><time>2026-04-09T07:31:11Z</time></trkpt><trkpt lat="45.099532842067326" lon="8.453884348761468"><ele>119.0</ele><time>2026-04-09T07:31:12Z</time></trkpt><trkpt lat="45.099418093138866" lon="8.454036775324694"><ele>119.0</ele><time>2026-04-09T07:31:13Z</time></trkpt><trkpt lat="45.09930054836407" lon="8.454192657394204"><ele>119.0</ele><time>2026-04-09T07:31:14Z</time></trkpt><trkpt lat="45.09918021492869" lon="8.454351240446028"><ele>119.66666666666666</ele><time>2026-04-09T07:31:15Z</time></trkpt><trkpt lat="45.099060299656436" lon="8.454508361642787"><ele>120.33333333333334</ele><time>2026-04-09T07:31:16Z</time></trkpt><trkpt lat="45.098944549436546" lon="8.45466388701997"><ele>121.0</ele><time>2026-04-09T07:31:17Z</time></trkpt><trkpt lat="45.0988325557535" lon="8.454814463472749"><ele>121.0</ele><time>2026-04-09T07:31:18Z</time></trkpt><trkpt lat="45.09872251392625" lon="8.454962611102061"><ele>121.0</ele><time>2026-04-09T07:31:19Z</time></trkpt><trkpt lat="45.09861541557294" lon="8.455104444913664"><ele>121.0</ele><time>2026-04-09T07:31:20Z</time></trkpt><trkpt lat="45.098511337018735" lon="8.455238922309363"><ele>121.0</ele><time>2026-04-09T07:31:21Z</time></trkpt><trkpt lat="45.09840962120524" lon="8.455372483308768"><ele>120.25</ele><time>2026-04-09T07:31:22Z</time></trkpt><trkpt lat="45.09831410368253" lon="8.455498589295114"><ele>119.5</ele><time>2026-04-09T07:31:23Z</time></trkpt><trkpt lat="45.098215859386315" lon="8.455624427425644"><ele>118.75</ele><time>2026-04-09T07:31:24Z</time></trkpt><trkpt lat="45.09811854947098" lon="8.45575272413569"><ele>118.0</ele><time>2026-04-09T07:31:25Z</time></trkpt><trkpt lat="45.098016827107074" lon="8.455880492094051"><ele>118.25</ele><time>2026-04-09T07:31:26Z</time></trkpt><trkpt lat="45.09791588692006" lon="8.456005771849137"><ele>118.5</ele><time>2026-04-09T07:31:27Z</time></trkpt><trkpt lat="45.09781265721908" lon="8.456138490433034"><ele>118.75</ele><time>2026-04-09T07:31:28Z</time></trkpt><trkpt lat="45.09770601899249" lon="8.45627765870036"><ele>119.0</ele><time>2026-04-09T07:31:29Z</time></trkpt><trkpt lat="45.097598556680936" lon="8.456421903815238"><ele>119.0</ele><time>2026-04-09T07:31:30Z</time></trkpt><trkpt lat="45.09748717085879" lon="8.456569448238211"><ele>119.0</ele><time>2026-04-09T07:31:31Z</time></trkpt><trkpt lat="45.09737509216021" lon="8.45671909351708"><ele>119.0</ele><time>2026-04-09T07:31:32Z</time></trkpt><trkpt lat="45.09725863407297" lon="8.456868828516768"><ele>119.0</ele><time>2026-04-09T07:31:33Z</time></trkpt><trkpt lat="45.09713943493621" lon="8.457020562628722"><ele>119.0</ele><time>2026-04-09T07:31:34Z</time></trkpt><trkpt lat="45.09702281507707" lon="8.457172370255565"><ele>119.0</ele><time>2026-04-09T07:31:35Z</time></trkpt><trkpt lat="45.09691095211476" lon="8.457315692643927"><ele>119.0</ele><time>2026-04-09T07:31:36Z</time></trkpt><trkpt lat="45.09679552301168" lon="8.45746752433972"><ele>119.0</ele><time>2026-04-09T07:31:37Z</time></trkpt><trkpt lat="45.09667745183939" lon="8.457621982065179"><ele>119.0</ele><time>2026-04-09T07:31:38Z</time></trkpt><trkpt lat="45.09655773544917" lon="8.457779839519421"><ele>120.66666666666666</ele><time>2026-04-09T07:31:39Z</time></trkpt><trkpt lat="45.0964402767804" lon="8.457940939760107"><ele>122.33333333333334</ele><time>2026-04-09T07:31:40Z</time></trkpt><trkpt lat="45.09632416182877" lon="8.458111447068253"><ele>124.0</ele><time>2026-04-09T07:31:41Z</time></trkpt><trkpt lat="45.09620189089357" lon="8.458276543431731"><ele>124.0</ele><time>2026-04-09T07:31:42Z</time></trkpt><trkpt lat="45.09608074669508" lon="8.458440666900865"><ele>124.0</ele><time>2026-04-09T07:31:43Z</time></trkpt><trkpt lat="45.09594168865618" lon="8.458601369974058"><ele>124.0</ele><time>2026-04-09T07:31:44Z</time></trkpt><trkpt lat="45.09580592019345" lon="8.45877335181416"><ele>122.0</ele><time>2026-04-09T07:31:45Z</time></trkpt><trkpt lat="45.09567322379618" lon="8.458947163938262"><ele>120.0</ele><time>2026-04-09T07:31:46Z</time></trkpt><trkpt lat="45.09553849536054" lon="8.459121344060582"><ele>118.0</ele><time>2026-04-09T07:31:47Z</time></trkpt><trkpt lat="45.095399541761324" lon="8.459288928767071"><ele>118.0</ele><time>2026-04-09T07:31:48Z</time></trkpt><trkpt lat="45.095254778351155" lon="8.459450067950565"><ele>118.0</ele><time>2026-04-09T07:31:49Z</time></trkpt><trkpt lat="45.09510646681479" lon="8.459603266367647"><ele>118.0</ele><time>2026-04-09T07:31:50Z</time></trkpt><trkpt lat="45.09495347428649" lon="8.459748263597316"><ele>117.33333333333334</ele><time>2026-04-09T07:31:51Z</time></trkpt><trkpt lat="45.094797912834984" lon="8.459886833495268"><ele>116.66666666666666</ele><time>2026-04-09T07:31:52Z</time></trkpt><trkpt lat="45.09464050207446" lon="8.460023924719637"><ele>116.0</ele><time>2026-04-09T07:31:53Z</time></trkpt><trkpt lat="45.09448352698403" lon="8.460158053487646"><ele>116.0</ele><time>2026-04-09T07:31:54Z</time></trkpt><trkpt lat="45.09432190812899" lon="8.460290149096947"><ele>116.0</ele><time>2026-04-09T07:31:55Z</time></trkpt><trkpt lat="45.09415937303489" lon="8.460422912533016"><ele>116.0</ele><time>2026-04-09T07:31:56Z</time></trkpt><trkpt lat="45.09399590085489" lon="8.460555730950176"><ele>115.66666666666666</ele><time>2026-04-09T07:31:57Z</time></trkpt><trkpt lat="45.09383358874631" lon="8.460689010209967"><ele>115.33333333333334</ele><time>2026-04-09T07:31:58Z</time></trkpt><trkpt lat="45.093673302521786" lon="8.460821781838975"><ele>115.0</ele><time>2026-04-09T07:31:59Z</time></trkpt><trkpt lat="45.09351306867587" lon="8.460952590334903"><ele>115.0</ele><time>2026-04-09T07:32:00Z</time></trkpt><trkpt lat="45.09335648911774" lon="8.461081537781707"><ele>115.0</ele><time>2026-04-09T07:32:01Z</time></trkpt><trkpt lat="45.09320216297895" lon="8.461210001461353"><ele>115.0</ele><time>2026-04-09T07:32:02Z</time></trkpt><trkpt lat="45.09304923315913" lon="8.461338118860557"><ele>114.33333333333334</ele><time>2026-04-09T07:32:03Z</time></trkpt><trkpt lat="45.09289778329404" lon="8.461464945037287"><ele>113.66666666666666</ele><time>2026-04-09T07:32:04Z</time></trkpt><trkpt lat="45.09275228017721" lon="8.461586055735767"><ele>113.0</ele><time>2026-04-09T07:32:05Z</time></trkpt><trkpt lat="45.09260861788113" lon="8.46170380989642"><ele>113.0</ele><time>2026-04-09T07:32:06Z</time></trkpt><trkpt lat="45.09246439850442" lon="8.46182010243096"><ele>113.0</ele><time>2026-04-09T07:32:07Z</time></trkpt><trkpt lat="45.092321787013596" lon="8.461936037434544"><ele>113.0</ele><time>2026-04-09T07:32:08Z</time></trkpt><trkpt lat="45.09218049053981" lon="8.462048084240026"><ele>112.0</ele><time>2026-04-09T07:32:09Z</time></trkpt><trkpt lat="45.09203821444037" lon="8.462155152876113"><ele>111.0</ele><time>2026-04-09T07:32:10Z</time></trkpt><trkpt lat="45.09189835942885" lon="8.462268717780464"><ele>110.0</ele><time>2026-04-09T07:32:11Z</time></trkpt><trkpt lat="45.091762955252385" lon="8.462380366296589"><ele>110.0</ele><time>2026-04-09T07:32:12Z</time></trkpt><trkpt lat="45.091626988541485" lon="8.462493572380268"><ele>110.0</ele><time>2026-04-09T07:32:13Z</time></trkpt><trkpt lat="45.09149387850968" lon="8.46260692862805"><ele>110.0</ele><time>2026-04-09T07:32:14Z</time></trkpt><trkpt lat="45.091357383210365" lon="8.462718372446771"><ele>110.33333333333333</ele><time>2026-04-09T07:32:15Z</time></trkpt><trkpt lat="45.09122049920058" lon="8.462835449068393"><ele>110.66666666666666</ele><time>2026-04-09T07:32:16Z</time></trkpt><trkpt lat="45.09108218855358" lon="8.462951187320465"><ele>111.0</ele><time>2026-04-09T07:32:17Z</time></trkpt><trkpt lat="45.09094353751024" lon="8.463069782938751"><ele>110.66666666666666</ele><time>2026-04-09T07:32:18Z</time></trkpt><trkpt lat="45.090804996052086" lon="8.46319027780367"><ele>110.33333333333333</ele><time>2026-04-09T07:32:19Z</time></trkpt><trkpt lat="45.09066198373708" lon="8.463310754913527"><ele>110.0</ele><time>2026-04-09T07:32:20Z</time></trkpt><trkpt lat="45.090517926526026" lon="8.463430440847203"><ele>110.0</ele><time>2026-04-09T07:32:21Z</time></trkpt><trkpt lat="45.09037617927738" lon="8.463549090283278"><ele>110.0</ele><time>2026-04-09T07:32:22Z</time></trkpt><trkpt lat="45.09023957081504" lon="8.463672914368486"><ele>110.0</ele><time>2026-04-09T07:32:23Z</time></trkpt><trkpt lat="45.090110895266555" lon="8.46379982864062"><ele>110.0</ele><time>2026-04-09T07:32:24Z</time></trkpt><trkpt lat="45.089986259620254" lon="8.463933760595234"><ele>110.0</ele><time>2026-04-09T07:32:25Z</time></trkpt><trkpt lat="45.08986674977521" lon="8.464074902733653"><ele>110.0</ele><time>2026-04-09T07:32:26Z</time></trkpt><trkpt lat="45.08974715379234" lon="8.464224693706878"><ele>110.0</ele><time>2026-04-09T07:32:27Z</time></trkpt><trkpt lat="45.0896298571032" lon="8.464379450543989"><ele>110.0</ele><time>2026-04-09T07:32:28Z</time></trkpt><trkpt lat="45.08951944590204" lon="8.464536188479824"><ele>110.0</ele><time>2026-04-09T07:32:29Z</time></trkpt><trkpt lat="45.089411649748" lon="8.464694138119409"><ele>110.0</ele><time>2026-04-09T07:32:30Z</time></trkpt><trkpt lat="45.089309037971354" lon="8.464851731430043"><ele>110.0</ele><time>2026-04-09T07:32:31Z</time></trkpt><trkpt lat="45.08920026993737" lon="8.465008793218594"><ele>110.0</ele><time>2026-04-09T07:32:32Z</time></trkpt><trkpt lat="45.089090895365715" lon="8.465167659329188"><ele>110.33333333333333</ele><time>2026-04-09T07:32:33Z</time></trkpt><trkpt lat="45.08898148876855" lon="8.46531967677467"><ele>110.66666666666666</ele><time>2026-04-09T07:32:34Z</time></trkpt><trkpt lat="45.088868392925384" lon="8.465482942194962"><ele>111.0</ele><time>2026-04-09T07:32:35Z</time></trkpt><trkpt lat="45.088755101521436" lon="8.465647128295757"><ele>111.0</ele><time>2026-04-09T07:32:36Z</time></trkpt><trkpt lat="45.08864622829755" lon="8.465805246222912"><ele>111.0</ele><time>2026-04-09T07:32:37Z</time></trkpt><trkpt lat="45.088535622060206" lon="8.465969188143372"><ele>111.0</ele><time>2026-04-09T07:32:38Z</time></trkpt><trkpt lat="45.08842630608697" lon="8.466134073721545"><ele>110.66666666666666</ele><time>2026-04-09T07:32:39Z</time></trkpt><trkpt lat="45.08831460344393" lon="8.46629434206866"><ele>110.33333333333333</ele><time>2026-04-09T07:32:40Z</time></trkpt><trkpt lat="45.088202863909956" lon="8.466448572311032"><ele>110.0</ele><time>2026-04-09T07:32:41Z</time></trkpt><trkpt lat="45.08809441230341" lon="8.466612347662133"><ele>111.33333333333333</ele><time>2026-04-09T07:32:42Z</time></trkpt><trkpt lat="45.08798496906819" lon="8.466767795066268"><ele>112.66666666666666</ele><time>2026-04-09T07:32:43Z</time></trkpt><trkpt lat="45.08787822762456" lon="8.466920820793481"><ele>114.0</ele><time>2026-04-09T07:32:44Z</time></trkpt><trkpt lat="45.087773207428874" lon="8.467074265733698"><ele>113.5</ele><time>2026-04-09T07:32:45Z</time></trkpt><trkpt lat="45.08767137930502" lon="8.467224661557303"><ele>113.0</ele><time>2026-04-09T07:32:46Z</time></trkpt><trkpt lat="45.08756863420672" lon="8.467377038185756"><ele>112.5</ele><time>2026-04-09T07:32:47Z</time></trkpt><trkpt lat="45.08746561691802" lon="8.467525047285891"><ele>112.0</ele><time>2026-04-09T07:32:48Z</time></trkpt><trkpt lat="45.087367720091514" lon="8.46767082689992"><ele>112.25</ele><time>2026-04-09T07:32:49Z</time></trkpt><trkpt lat="45.08727529534798" lon="8.467805136458038"><ele>112.5</ele><time>2026-04-09T07:32:50Z</time></trkpt><trkpt lat="45.08718397411867" lon="8.467933314007318"><ele>112.75</ele><time>2026-04-09T07:32:51Z</time></trkpt><trkpt lat="45.08709186466665" lon="8.468068628777578"><ele>113.0</ele><time>2026-04-09T07:32:52Z</time></trkpt><trkpt lat="45.08699206864681" lon="8.46819828010432"><ele>113.0</ele><time>2026-04-09T07:32:53Z</time></trkpt><trkpt lat="45.08690611145733" lon="8.468324507025129"><ele>113.00000000000001</ele><time>2026-04-09T07:32:54Z</time></trkpt><trkpt lat="45.08683562992937" lon="8.468447134770555"><ele>113.00000000000001</ele><time>2026-04-09T07:32:55Z</time></trkpt><trkpt lat="45.086774831362675" lon="8.46856584678009"><ele>113.0</ele><time>2026-04-09T07:32:56Z</time></trkpt><trkpt lat="45.08671999631047" lon="8.46866988911632"><ele>113.0</ele><time>2026-04-09T07:32:57Z</time></trkpt><trkpt lat="45.08665398295494" lon="8.468762733715623"><ele>113.0</ele><time>2026-04-09T07:32:58Z</time></trkpt><trkpt lat="45.086577540781576" lon="8.468838185514668"><ele>113.00000000000001</ele><time>2026-04-09T07:32:59Z</time></trkpt><trkpt lat="45.08649288139908" lon="8.46888563083191"><ele>113.00000000000001</ele><time>2026-04-09T07:33:00Z</time></trkpt><trkpt lat="45.08641956533026" lon="8.468959870289904"><ele>113.0</ele><time>2026-04-09T07:33:01Z</time></trkpt><trkpt lat="45.086375729342414" lon="8.469086811209547"><ele>113.0</ele><time>2026-04-09T07:33:02Z</time></trkpt><trkpt lat="45.08632745442544" lon="8.469231744278924"><ele>113.0</ele><time>2026-04-09T07:33:03Z</time></trkpt><trkpt lat="45.0862429005772" lon="8.469354048841685"><ele>113.0</ele><time>2026-04-09T07:33:04Z</time></trkpt><trkpt lat="45.08613419399117" lon="8.469480182712733"><ele>113.0</ele><time>2026-04-09T07:33:05Z</time></trkpt><trkpt lat="45.08601578609487" lon="8.469634349991379"><ele>113.0</ele><time>2026-04-09T07:33:06Z</time></trkpt><trkpt lat="45.08589788172955" lon="8.469790771406872"><ele>113.0</ele><time>2026-04-09T07:33:07Z</time></trkpt><trkpt lat="45.08577993302549" lon="8.469954542656165"><ele>113.0</ele><time>2026-04-09T07:33:08Z</time></trkpt><trkpt lat="45.08565653540087" lon="8.470130805379492"><ele>113.0</ele><time>2026-04-09T07:33:09Z</time></trkpt><trkpt lat="45.08553106697231" lon="8.470311052107746"><ele>113.33333333333333</ele><time>2026-04-09T07:33:10Z</time></trkpt><trkpt lat="45.085399976875316" lon="8.470499966160512"><ele>113.66666666666666</ele><time>2026-04-09T07:33:11Z</time></trkpt><trkpt lat="45.08526285452603" lon="8.470693903494988"><ele>114.0</ele><time>2026-04-09T07:33:12Z</time></trkpt><trkpt lat="45.08512044329541" lon="8.470894442865518"><ele>114.0</ele><time>2026-04-09T07:33:13Z</time></trkpt><trkpt lat="45.084979131606644" lon="8.471099454664252"><ele>114.0</ele><time>2026-04-09T07:33:14Z</time></trkpt><trkpt lat="45.08483107448531" lon="8.471313315048306"><ele>114.0</ele><time>2026-04-09T07:33:15Z</time></trkpt><trkpt lat="45.084685720356326" lon="8.471526925266303"><ele>114.0</ele><time>2026-04-09T07:33:16Z</time></trkpt><trkpt lat="45.084547443416255" lon="8.471733001227669"><ele>114.0</ele><time>2026-04-09T07:33:17Z</time></trkpt><trkpt lat="45.08440135374881" lon="8.471944860924646"><ele>114.0</ele><time>2026-04-09T07:33:18Z</time></trkpt><trkpt lat="45.08425461821566" lon="8.472157899109781"><ele>114.33333333333334</ele><time>2026-04-09T07:33:19Z</time></trkpt><trkpt lat="45.084104304873456" lon="8.47237290171311"><ele>114.66666666666667</ele><time>2026-04-09T07:33:20Z</time></trkpt><trkpt lat="45.083952853442625" lon="8.472587549723743"><ele>115.0</ele><time>2026-04-09T07:33:21Z</time></trkpt><trkpt lat="45.08380101521478" lon="8.472803936517094"><ele>114.0</ele><time>2026-04-09T07:33:22Z</time></trkpt><trkpt lat="45.08364884130331" lon="8.473021898090824"><ele>113.0</ele><time>2026-04-09T07:33:23Z</time></trkpt><trkpt lat="45.08349772259448" lon="8.473242402991223"><ele>112.0</ele><time>2026-04-09T07:33:24Z</time></trkpt><trkpt lat="45.08335081961583" lon="8.47345994600623"><ele>112.33333333333334</ele><time>2026-04-09T07:33:25Z</time></trkpt><trkpt lat="45.083206393361884" lon="8.473667756589146"><ele>112.66666666666666</ele><time>2026-04-09T07:33:26Z</time></trkpt><trkpt lat="45.08306171921901" lon="8.47387669928963"><ele>113.0</ele><time>2026-04-09T07:33:27Z</time></trkpt><trkpt lat="45.08291498471494" lon="8.474090412992629"><ele>113.0</ele><time>2026-04-09T07:33:28Z</time></trkpt><trkpt lat="45.08276726247963" lon="8.474302889864514"><ele>113.0</ele><time>2026-04-09T07:33:29Z</time></trkpt><trkpt lat="45.08261932322019" lon="8.474514845032006"><ele>113.0</ele><time>2026-04-09T07:33:30Z</time></trkpt><trkpt lat="45.08247106031406" lon="8.47473016583696"><ele>113.0</ele><time>2026-04-09T07:33:31Z</time></trkpt><trkpt lat="45.08232347877383" lon="8.474944385578175"><ele>113.0</ele><time>2026-04-09T07:33:32Z</time></trkpt><trkpt lat="45.082174639815754" lon="8.475159636009897"><ele>113.0</ele><time>2026-04-09T07:33:33Z</time></trkpt><trkpt lat="45.08202443884394" lon="8.475377649945692"><ele>113.0</ele><time>2026-04-09T07:33:34Z</time></trkpt><trkpt lat="45.08187695344717" lon="8.47559556049783"><ele>113.0</ele><time>2026-04-09T07:33:35Z</time></trkpt><trkpt lat="45.08172429511713" lon="8.475817411417822"><ele>113.0</ele><time>2026-04-09T07:33:36Z</time></trkpt><trkpt lat="45.08157333174788" lon="8.47603758504801"><ele>113.33333333333333</ele><time>2026-04-09T07:33:37Z</time></trkpt><trkpt lat="45.08142132395399" lon="8.476261067605298"><ele>113.66666666666666</ele><time>2026-04-09T07:33:38Z</time></trkpt><trkpt lat="45.0812627807689" lon="8.476481480666921"><ele>114.0</ele><time>2026-04-09T07:33:39Z</time></trkpt><trkpt lat="45.0811079478195" lon="8.476702418373783"><ele>113.33333333333334</ele><time>2026-04-09T07:33:40Z</time></trkpt><trkpt lat="45.08095220856204" lon="8.476924314480879"><ele>112.66666666666667</ele><time>2026-04-09T07:33:41Z</time></trkpt><trkpt lat="45.080795956237175" lon="8.477149368697564"><ele>112.0</ele><time>2026-04-09T07:33:42Z</time></trkpt><trkpt lat="45.08063939267597" lon="8.477375381239645"><ele>111.0</ele><time>2026-04-09T07:33:43Z</time></trkpt><trkpt lat="45.080481036693" lon="8.477599858423895"><ele>110.0</ele><time>2026-04-09T07:33:44Z</time></trkpt><trkpt lat="45.080324299635905" lon="8.477830328205124"><ele>110.5</ele><time>2026-04-09T07:33:45Z</time></trkpt><trkpt lat="45.0801683241905" lon="8.478059331493716"><ele>111.0</ele><time>2026-04-09T07:33:46Z</time></trkpt><trkpt lat="45.08001029025813" lon="8.478288273775856"><ele>110.5</ele><time>2026-04-09T07:33:47Z</time></trkpt><trkpt lat="45.07985093883054" lon="8.478520754927857"><ele>110.0</ele><time>2026-04-09T07:33:48Z</time></trkpt><trkpt lat="45.07968905854667" lon="8.478754937026686"><ele>110.5</ele><time>2026-04-09T07:33:49Z</time></trkpt><trkpt lat="45.079524245125526" lon="8.478990768431677"><ele>111.0</ele><time>2026-04-09T07:33:50Z</time></trkpt><trkpt lat="45.07935899113865" lon="8.479227980922664"><ele>111.0</ele><time>2026-04-09T07:33:51Z</time></trkpt><trkpt lat="45.079196518325006" lon="8.479465503470314"><ele>111.0</ele><time>2026-04-09T07:33:52Z</time></trkpt><trkpt lat="45.07903772193178" lon="8.47969912458076"><ele>110.5</ele><time>2026-04-09T07:33:53Z</time></trkpt><trkpt lat="45.078875503628915" lon="8.479932043614673"><ele>110.0</ele><time>2026-04-09T07:33:54Z</time></trkpt><trkpt lat="45.07871138236541" lon="8.480164514456753"><ele>110.0</ele><time>2026-04-09T07:33:55Z</time></trkpt><trkpt lat="45.078546155413896" lon="8.480401763913449"><ele>110.0</ele><time>2026-04-09T07:33:56Z</time></trkpt><trkpt lat="45.07838139959298" lon="8.480636153086289"><ele>110.0</ele><time>2026-04-09T07:33:57Z</time></trkpt><trkpt lat="45.078216621434144" lon="8.480872632612062"><ele>110.0</ele><time>2026-04-09T07:33:58Z</time></trkpt><trkpt lat="45.078050952352626" lon="8.481109528750004"><ele>111.5</ele><time>2026-04-09T07:33:59Z</time></trkpt><trkpt lat="45.07788621398501" lon="8.481348843731386"><ele>113.0</ele><time>2026-04-09T07:34:00Z</time></trkpt><trkpt lat="45.07772342090316" lon="8.481590310511619"><ele>113.0</ele><time>2026-04-09T07:34:01Z</time></trkpt><trkpt lat="45.07755976728629" lon="8.48183201986748"><ele>113.0</ele><time>2026-04-09T07:34:02Z</time></trkpt><trkpt lat="45.07739596994501" lon="8.482067805433205"><ele>109.0</ele><time>2026-04-09T07:34:03Z</time></trkpt><trkpt lat="45.07723037507174" lon="8.482302298853545"><ele>105.0</ele><time>2026-04-09T07:34:04Z</time></trkpt><trkpt lat="45.07706253857022" lon="8.482538722548709"><ele>105.0</ele><time>2026-04-09T07:34:05Z</time></trkpt><trkpt lat="45.07689521677852" lon="8.48277678495835"><ele>105.0</ele><time>2026-04-09T07:34:06Z</time></trkpt><trkpt lat="45.0767297871823" lon="8.483016025355347"><ele>106.0</ele><time>2026-04-09T07:34:07Z</time></trkpt><trkpt lat="45.07656278108309" lon="8.483257026020613"><ele>107.0</ele><time>2026-04-09T07:34:08Z</time></trkpt><trkpt lat="45.0764031703554" lon="8.483495103414763"><ele>107.0</ele><time>2026-04-09T07:34:09Z</time></trkpt><trkpt lat="45.07624157042704" lon="8.483731857817535"><ele>107.0</ele><time>2026-04-09T07:34:10Z</time></trkpt><trkpt lat="45.07608130660011" lon="8.483964806746325"><ele>108.33333333333333</ele><time>2026-04-09T07:34:11Z</time></trkpt><trkpt lat="45.07592234758054" lon="8.484194002024305"><ele>109.66666666666666</ele><time>2026-04-09T07:34:12Z</time></trkpt><trkpt lat="45.07577836274962" lon="8.484418026378547"><ele>111.0</ele><time>2026-04-09T07:34:13Z</time></trkpt><trkpt lat="45.07565990186391" lon="8.484591970841477"><ele>111.33333333333334</ele><time>2026-04-09T07:34:14Z</time></trkpt><trkpt lat="45.07551932649869" lon="8.484769537542658"><ele>111.66666666666667</ele><time>2026-04-09T07:34:15Z</time></trkpt><trkpt lat="45.07538742453088" lon="8.484953474382992"><ele>112.0</ele><time>2026-04-09T07:34:16Z</time></trkpt><trkpt lat="45.07525972030101" lon="8.48513401811239"><ele>112.0</ele><time>2026-04-09T07:34:17Z</time></trkpt><trkpt lat="45.075139079552955" lon="8.485310307629915"><ele>112.0</ele><time>2026-04-09T07:34:18Z</time></trkpt><trkpt lat="45.0750247743563" lon="8.48547846781115"><ele>112.0</ele><time>2026-04-09T07:34:19Z</time></trkpt><trkpt lat="45.07491235225041" lon="8.485634793277876"><ele>112.66666666666667</ele><time>2026-04-09T07:34:20Z</time></trkpt><trkpt lat="45.07480271469864" lon="8.485795717789046"><ele>113.33333333333334</ele><time>2026-04-09T07:34:21Z</time></trkpt><trkpt lat="45.074692344273124" lon="8.485957687347277"><ele>114.0</ele><time>2026-04-09T07:34:22Z</time></trkpt><trkpt lat="45.074580635649795" lon="8.486124959075783"><ele>113.33333333333334</ele><time>2026-04-09T07:34:23Z</time></trkpt><trkpt lat="45.074471210782605" lon="8.486294285452392"><ele>112.66666666666667</ele><time>2026-04-09T07:34:24Z</time></trkpt><trkpt lat="45.07435795122212" lon="8.486455780081787"><ele>112.0</ele><time>2026-04-09T07:34:25Z</time></trkpt><trkpt lat="45.07424169100396" lon="8.486617988785726"><ele>112.0</ele><time>2026-04-09T07:34:26Z</time></trkpt><trkpt lat="45.07413179571093" lon="8.486796964254907"><ele>112.0</ele><time>2026-04-09T07:34:27Z</time></trkpt><trkpt lat="45.074032548891495" lon="8.487007413557794"><ele>112.0</ele><time>2026-04-09T07:34:28Z</time></trkpt><trkpt lat="45.07394760989866" lon="8.487238126950167"><ele>112.33333333333334</ele><time>2026-04-09T07:34:29Z</time></trkpt><trkpt lat="45.0737835202501" lon="8.487293782654467"><ele>112.66666666666666</ele><time>2026-04-09T07:34:30Z</time></trkpt><trkpt lat="45.07366505454886" lon="8.487468475043041"><ele>113.0</ele><time>2026-04-09T07:34:31Z</time></trkpt><trkpt lat="45.073544416943044" lon="8.487644780362261"><ele>113.0</ele><time>2026-04-09T07:34:32Z</time></trkpt><trkpt lat="45.07342344651476" lon="8.487819008903823"><ele>113.0</ele><time>2026-04-09T07:34:33Z</time></trkpt><trkpt lat="45.07330294778928" lon="8.487999390389655"><ele>113.0</ele><time>2026-04-09T07:34:34Z</time></trkpt><trkpt lat="45.073180316778185" lon="8.488176377393316"><ele>113.66666666666666</ele><time>2026-04-09T07:34:35Z</time></trkpt><trkpt lat="45.07305748770372" lon="8.488356266149863"><ele>114.33333333333334</ele><time>2026-04-09T07:34:36Z</time></trkpt><trkpt lat="45.07293384796178" lon="8.488538413023807"><ele>115.0</ele><time>2026-04-09T07:34:37Z</time></trkpt><trkpt lat="45.07281107819298" lon="8.488715499382323"><ele>114.66666666666667</ele><time>2026-04-09T07:34:38Z</time></trkpt><trkpt lat="45.07268323355445" lon="8.488894831292958"><ele>114.33333333333334</ele><time>2026-04-09T07:34:39Z</time></trkpt><trkpt lat="45.07255657046961" lon="8.48907622754025"><ele>114.0</ele><time>2026-04-09T07:34:40Z</time></trkpt><trkpt lat="45.07243304808423" lon="8.489258552833354"><ele>114.0</ele><time>2026-04-09T07:34:41Z</time></trkpt><trkpt lat="45.07231381753169" lon="8.489439460555785"><ele>114.0</ele><time>2026-04-09T07:34:42Z</time></trkpt><trkpt lat="45.07219026083794" lon="8.48961799908114"><ele>114.0</ele><time>2026-04-09T07:34:43Z</time></trkpt><trkpt lat="45.07206331825497" lon="8.489799245325207"><ele>113.66666666666666</ele><time>2026-04-09T07:34:44Z</time></trkpt><trkpt lat="45.07193557412884" lon="8.48998248219735"><ele>113.33333333333333</ele><time>2026-04-09T07:34:45Z</time></trkpt><trkpt lat="45.071809234721385" lon="8.490164179041082"><ele>113.0</ele><time>2026-04-09T07:34:46Z</time></trkpt><trkpt lat="45.07168202463853" lon="8.490348999428095"><ele>113.33333333333333</ele><time>2026-04-09T07:34:47Z</time></trkpt><trkpt lat="45.07155517950124" lon="8.490533810708499"><ele>113.66666666666666</ele><time>2026-04-09T07:34:48Z</time></trkpt><trkpt lat="45.071430059221164" lon="8.490716159674578"><ele>114.0</ele><time>2026-04-09T07:34:49Z</time></trkpt><trkpt lat="45.071300761053855" lon="8.490902672438432"><ele>114.0</ele><time>2026-04-09T07:34:50Z</time></trkpt><trkpt lat="45.07117072583008" lon="8.491084577099238"><ele>114.0</ele><time>2026-04-09T07:34:51Z</time></trkpt><trkpt lat="45.071039797805035" lon="8.491263834444705"><ele>114.0</ele><time>2026-04-09T07:34:52Z</time></trkpt><trkpt lat="45.07090981100323" lon="8.491449765718443"><ele>113.66666666666666</ele><time>2026-04-09T07:34:53Z</time></trkpt><trkpt lat="45.070786942015175" lon="8.491634213029455"><ele>113.33333333333333</ele><time>2026-04-09T07:34:54Z</time></trkpt><trkpt lat="45.07066533455127" lon="8.491818179513919"><ele>113.0</ele><time>2026-04-09T07:34:55Z</time></trkpt><trkpt lat="45.07053785347418" lon="8.492001370954728"><ele>112.66666666666666</ele><time>2026-04-09T07:34:56Z</time></trkpt><trkpt lat="45.07041009947896" lon="8.492182353939016"><ele>112.33333333333334</ele><time>2026-04-09T07:34:57Z</time></trkpt><trkpt lat="45.07028134639677" lon="8.492362464912496"><ele>112.0</ele><time>2026-04-09T07:34:58Z</time></trkpt><trkpt lat="45.07014570500057" lon="8.492544643391353"><ele>112.0</ele><time>2026-04-09T07:34:59Z</time></trkpt><trkpt lat="45.070027612527596" lon="8.492727666498784"><ele>112.0</ele><time>2026-04-09T07:35:00Z</time></trkpt><trkpt lat="45.06990226796978" lon="8.492911401720777"><ele>112.0</ele><time>2026-04-09T07:35:01Z</time></trkpt><trkpt lat="45.069769923457045" lon="8.493092432738996"><ele>112.0</ele><time>2026-04-09T07:35:02Z</time></trkpt><trkpt lat="45.06964521572487" lon="8.493271694141178"><ele>112.0</ele><time>2026-04-09T07:35:03Z</time></trkpt><trkpt lat="45.06952101592428" lon="8.493458106210277"><ele>112.0</ele><time>2026-04-09T07:35:04Z</time></trkpt><trkpt lat="45.06940000369531" lon="8.493640957273769"><ele>112.0</ele><time>2026-04-09T07:35:05Z</time></trkpt><trkpt lat="45.06926835575805" lon="8.493820443060837"><ele>112.0</ele><time>2026-04-09T07:35:06Z</time></trkpt><trkpt lat="45.06914320478382" lon="8.493999921526026"><ele>112.0</ele><time>2026-04-09T07:35:07Z</time></trkpt><trkpt lat="45.069017849277635" lon="8.494181947593459"><ele>112.0</ele><time>2026-04-09T07:35:08Z</time></trkpt><trkpt lat="45.068896459625016" lon="8.494363721451785"><ele>112.0</ele><time>2026-04-09T07:35:09Z</time></trkpt><trkpt lat="45.06876880165517" lon="8.494544910380418"><ele>112.0</ele><time>2026-04-09T07:35:10Z</time></trkpt><trkpt lat="45.06864614622851" lon="8.494734139437677"><ele>112.0</ele><time>2026-04-09T07:35:11Z</time></trkpt><trkpt lat="45.06853418306816" lon="8.49488352576131"><ele>112.0</ele><time>2026-04-09T07:35:12Z</time></trkpt><trkpt lat="45.06842355818626" lon="8.495028346522108"><ele>112.0</ele><time>2026-04-09T07:35:13Z</time></trkpt><trkpt lat="45.06832962724696" lon="8.495174294690731"><ele>112.0</ele><time>2026-04-09T07:35:14Z</time></trkpt><trkpt lat="45.06823067896926" lon="8.495336094681683"><ele>111.66666666666667</ele><time>2026-04-09T07:35:15Z</time></trkpt><trkpt lat="45.06812285152388" lon="8.495494434501872"><ele>111.33333333333334</ele><time>2026-04-09T07:35:16Z</time></trkpt><trkpt lat="45.06801595397129" lon="8.495653346344524"><ele>111.0</ele><time>2026-04-09T07:35:17Z</time></trkpt><trkpt lat="45.06790664612568" lon="8.495816522849461"><ele>111.0</ele><time>2026-04-09T07:35:18Z</time></trkpt><trkpt lat="45.06779269909105" lon="8.495986872032482"><ele>111.0</ele><time>2026-04-09T07:35:19Z</time></trkpt><trkpt lat="45.06768764367874" lon="8.496161511955805"><ele>111.0</ele><time>2026-04-09T07:35:20Z</time></trkpt><trkpt lat="45.0675771645881" lon="8.496348468087271"><ele>111.33333333333334</ele><time>2026-04-09T07:35:21Z</time></trkpt><trkpt lat="45.06746263166013" lon="8.496535526805326"><ele>111.66666666666667</ele><time>2026-04-09T07:35:22Z</time></trkpt><trkpt lat="45.067347712925944" lon="8.49672618300684"><ele>112.0</ele><time>2026-04-09T07:35:23Z</time></trkpt><trkpt lat="45.067226996498874" lon="8.496923759282543"><ele>112.33333333333334</ele><time>2026-04-09T07:35:24Z</time></trkpt><trkpt lat="45.06710942047864" lon="8.49712486297494"><ele>112.66666666666666</ele><time>2026-04-09T07:35:25Z</time></trkpt><trkpt lat="45.06699663457063" lon="8.497330503767264"><ele>113.0</ele><time>2026-04-09T07:35:26Z</time></trkpt><trkpt lat="45.06687518121023" lon="8.497538816651389"><ele>113.0</ele><time>2026-04-09T07:35:27Z</time></trkpt><trkpt lat="45.06675380464201" lon="8.497746186931233"><ele>113.0</ele><time>2026-04-09T07:35:28Z</time></trkpt><trkpt lat="45.0666283257879" lon="8.49796091136945"><ele>113.0</ele><time>2026-04-09T07:35:29Z</time></trkpt><trkpt lat="45.06650245263905" lon="8.498179564175912"><ele>112.33333333333333</ele><time>2026-04-09T07:35:30Z</time></trkpt><trkpt lat="45.066370190326836" lon="8.498398278625842"><ele>111.66666666666666</ele><time>2026-04-09T07:35:31Z</time></trkpt><trkpt lat="45.0662404503902" lon="8.498621587694327"><ele>111.0</ele><time>2026-04-09T07:35:32Z</time></trkpt><trkpt lat="45.06611194425305" lon="8.49884439688208"><ele>111.0</ele><time>2026-04-09T07:35:33Z</time></trkpt><trkpt lat="45.06598292177325" lon="8.49907022424964"><ele>111.0</ele><time>2026-04-09T07:35:34Z</time></trkpt><trkpt lat="45.06585299597729" lon="8.499297875767212"><ele>111.0</ele><time>2026-04-09T07:35:35Z</time></trkpt><trkpt lat="45.065721683541746" lon="8.499525450979545"><ele>112.66666666666666</ele><time>2026-04-09T07:35:36Z</time></trkpt><trkpt lat="45.065591783860306" lon="8.499752650207954"><ele>114.33333333333333</ele><time>2026-04-09T07:35:37Z</time></trkpt><trkpt lat="45.065459298009195" lon="8.499975279808028"><ele>116.0</ele><time>2026-04-09T07:35:38Z</time></trkpt><trkpt lat="45.06533024128756" lon="8.500200727865565"><ele>115.66666666666666</ele><time>2026-04-09T07:35:39Z</time></trkpt><trkpt lat="45.06519464526123" lon="8.500427202201566"><ele>115.33333333333334</ele><time>2026-04-09T07:35:40Z</time></trkpt><trkpt lat="45.065065271310736" lon="8.500650468180037"><ele>115.0</ele><time>2026-04-09T07:35:41Z</time></trkpt><trkpt lat="45.0649316057104" lon="8.500874816892763"><ele>115.0</ele><time>2026-04-09T07:35:42Z</time></trkpt><trkpt lat="45.06480163416935" lon="8.501099660653253"><ele>115.0</ele><time>2026-04-09T07:35:43Z</time></trkpt><trkpt lat="45.06466922645413" lon="8.501324057111074"><ele>115.0</ele><time>2026-04-09T07:35:44Z</time></trkpt><trkpt lat="45.064536134848964" lon="8.501545600745748"><ele>114.0</ele><time>2026-04-09T07:35:45Z</time></trkpt><trkpt lat="45.06440542517009" lon="8.501766717423795"><ele>113.0</ele><time>2026-04-09T07:35:46Z</time></trkpt><trkpt lat="45.064274137168226" lon="8.501991509145633"><ele>112.0</ele><time>2026-04-09T07:35:47Z</time></trkpt><trkpt lat="45.06414649864642" lon="8.502216222086082"><ele>112.66666666666667</ele><time>2026-04-09T07:35:48Z</time></trkpt><trkpt lat="45.06402600689235" lon="8.502429809724637"><ele>113.33333333333334</ele><time>2026-04-09T07:35:49Z</time></trkpt><trkpt lat="45.06391320997585" lon="8.502627386009648"><ele>114.0</ele><time>2026-04-09T07:35:50Z</time></trkpt><trkpt lat="45.0638046120508" lon="8.502816053696733"><ele>112.66666666666666</ele><time>2026-04-09T07:35:51Z</time></trkpt><trkpt lat="45.06369988762581" lon="8.503003191287231"><ele>111.33333333333333</ele><time>2026-04-09T07:35:52Z</time></trkpt><trkpt lat="45.06359207236899" lon="8.5031715587923"><ele>110.0</ele><time>2026-04-09T07:35:53Z</time></trkpt><trkpt lat="45.06349413080241" lon="8.50334531978474"><ele>110.0</ele><time>2026-04-09T07:35:54Z</time></trkpt><trkpt lat="45.06339983453181" lon="8.503513160443909"><ele>110.0</ele><time>2026-04-09T07:35:55Z</time></trkpt><trkpt lat="45.06330377155335" lon="8.503676748998075"><ele>110.0</ele><time>2026-04-09T07:35:56Z</time></trkpt><trkpt lat="45.063215077347124" lon="8.503830335550738"><ele>110.0</ele><time>2026-04-09T07:35:57Z</time></trkpt><trkpt lat="45.06313029321941" lon="8.503976653239102"><ele>110.0</ele><time>2026-04-09T07:35:58Z</time></trkpt><trkpt lat="45.06304673879079" lon="8.50412394616385"><ele>110.0</ele><time>2026-04-09T07:35:59Z</time></trkpt><trkpt lat="45.06296597502344" lon="8.504263449704274"><ele>110.0</ele><time>2026-04-09T07:36:00Z</time></trkpt><trkpt lat="45.062884741059555" lon="8.504397378385088"><ele>110.0</ele><time>2026-04-09T07:36:01Z</time></trkpt><trkpt lat="45.06280278018589" lon="8.504528129317858"><ele>110.2</ele><time>2026-04-09T07:36:02Z</time></trkpt><trkpt lat="45.06273377662941" lon="8.504634694332058"><ele>110.4</ele><time>2026-04-09T07:36:03Z</time></trkpt><trkpt lat="45.06265093259111" lon="8.50473375523359"><ele>110.6</ele><time>2026-04-09T07:36:04Z</time></trkpt><trkpt lat="45.06259071554241" lon="8.504805127990972"><ele>110.8</ele><time>2026-04-09T07:36:05Z</time></trkpt><trkpt lat="45.06252390671402" lon="8.504858804376784"><ele>111.0</ele><time>2026-04-09T07:36:06Z</time></trkpt><trkpt lat="45.06244161755179" lon="8.504886930973964"><ele>111.75</ele><time>2026-04-09T07:36:07Z</time></trkpt><trkpt lat="45.062327329385894" lon="8.504902858221461"><ele>112.5</ele><time>2026-04-09T07:36:08Z</time></trkpt><trkpt lat="45.06221770430715" lon="8.504882878663196"><ele>113.25</ele><time>2026-04-09T07:36:09Z</time></trkpt><trkpt lat="45.062073199420915" lon="8.5048820244573"><ele>114.0</ele><time>2026-04-09T07:36:10Z</time></trkpt><trkpt lat="45.0619790436189" lon="8.50500692270907"><ele>114.0</ele><time>2026-04-09T07:36:11Z</time></trkpt><trkpt lat="45.06188971573566" lon="8.5050114142273"><ele>114.0</ele><time>2026-04-09T07:36:12Z</time></trkpt><trkpt lat="45.06176233016242" lon="8.504901806035138"><ele>114.0</ele><time>2026-04-09T07:36:13Z</time></trkpt><trkpt lat="45.06165028515577" lon="8.504814633864708"><ele>114.0</ele><time>2026-04-09T07:36:14Z</time></trkpt><trkpt lat="45.06152944729801" lon="8.504731659779907"><ele>114.0</ele><time>2026-04-09T07:36:15Z</time></trkpt><trkpt lat="45.06141164600371" lon="8.504652915816"><ele>114.0</ele><time>2026-04-09T07:36:16Z</time></trkpt><trkpt lat="45.06129194508587" lon="8.504584545819014"><ele>114.0</ele><time>2026-04-09T07:36:17Z</time></trkpt><trkpt lat="45.06117840165304" lon="8.50451641375321"><ele>114.0</ele><time>2026-04-09T07:36:18Z</time></trkpt><trkpt lat="45.06107347638723" lon="8.504448583144091"><ele>114.0</ele><time>2026-04-09T07:36:19Z</time></trkpt><trkpt lat="45.060970669896946" lon="8.50439644260525"><ele>114.0</ele><time>2026-04-09T07:36:20Z</time></trkpt><trkpt lat="45.060871754564765" lon="8.504392729726588"><ele>114.0</ele><time>2026-04-09T07:36:21Z</time></trkpt><trkpt lat="45.060777637588515" lon="8.504359543541149"><ele>114.0</ele><time>2026-04-09T07:36:22Z</time></trkpt><trkpt lat="45.06068506528858" lon="8.504380209906998"><ele>114.0</ele><time>2026-04-09T07:36:23Z</time></trkpt><trkpt lat="45.060605304636226" lon="8.504459261299687"><ele>114.25</ele><time>2026-04-09T07:36:24Z</time></trkpt><trkpt lat="45.06055191766626" lon="8.504594787455106"><ele>114.5</ele><time>2026-04-09T07:36:25Z</time></trkpt><trkpt lat="45.06048973670362" lon="8.504753085967412"><ele>114.75</ele><time>2026-04-09T07:36:26Z</time></trkpt><trkpt lat="45.060442921816666" lon="8.50493594656608"><ele>115.0</ele><time>2026-04-09T07:36:27Z</time></trkpt><trkpt lat="45.06039253093152" lon="8.505122718098487"><ele>115.0</ele><time>2026-04-09T07:36:28Z</time></trkpt><trkpt lat="45.06032442831991" lon="8.50531976232548"><ele>115.0</ele><time>2026-04-09T07:36:29Z</time></trkpt><trkpt lat="45.060267680929236" lon="8.505529308334973"><ele>115.0</ele><time>2026-04-09T07:36:30Z</time></trkpt><trkpt lat="45.060215554107316" lon="8.505723568474025"><ele>115.0</ele><time>2026-04-09T07:36:31Z</time></trkpt><trkpt lat="45.06015997862191" lon="8.505908055117084"><ele>115.0</ele><time>2026-04-09T07:36:32Z</time></trkpt><trkpt lat="45.06010396629529" lon="8.506085101337568"><ele>115.0</ele><time>2026-04-09T07:36:33Z</time></trkpt><trkpt lat="45.06005220554516" lon="8.50625197727669"><ele>115.0</ele><time>2026-04-09T07:36:34Z</time></trkpt><trkpt lat="45.0599980560976" lon="8.506412733122342"><ele>115.0</ele><time>2026-04-09T07:36:35Z</time></trkpt><trkpt lat="45.059953226903936" lon="8.506573824297213"><ele>115.0</ele><time>2026-04-09T07:36:36Z</time></trkpt><trkpt lat="45.059910205180564" lon="8.506730867341915"><ele>115.0</ele><time>2026-04-09T07:36:37Z</time></trkpt><trkpt lat="45.059867464481314" lon="8.506882649807142"><ele>115.0</ele><time>2026-04-09T07:36:38Z</time></trkpt><trkpt lat="45.059827844200825" lon="8.507030522437484"><ele>114.25</ele><time>2026-04-09T07:36:39Z</time></trkpt><trkpt lat="45.05977710157861" lon="8.507185995547017"><ele>113.5</ele><time>2026-04-09T07:36:40Z</time></trkpt><trkpt lat="45.05973683991212" lon="8.507354275046003"><ele>112.75</ele><time>2026-04-09T07:36:41Z</time></trkpt><trkpt lat="45.05968429850025" lon="8.507526700058555"><ele>112.0</ele><time>2026-04-09T07:36:42Z</time></trkpt><trkpt lat="45.05963169954618" lon="8.507707918245337"><ele>112.0</ele><time>2026-04-09T07:36:43Z</time></trkpt><trkpt lat="45.05957979114888" lon="8.50789290529214"><ele>112.0</ele><time>2026-04-09T07:36:44Z</time></trkpt><trkpt lat="45.05952019723659" lon="8.508084484098852"><ele>112.0</ele><time>2026-04-09T07:36:45Z</time></trkpt><trkpt lat="45.05946115285068" lon="8.508266000229389"><ele>112.0</ele><time>2026-04-09T07:36:46Z</time></trkpt><trkpt lat="45.059400546404895" lon="8.508453271812416"><ele>111.75</ele><time>2026-04-09T07:36:47Z</time></trkpt><trkpt lat="45.059343970193936" lon="8.508627292352303"><ele>111.5</ele><time>2026-04-09T07:36:48Z</time></trkpt><trkpt lat="45.05928780523132" lon="8.508801481303635"><ele>111.25</ele><time>2026-04-09T07:36:49Z</time></trkpt><trkpt lat="45.05923250268793" lon="8.508975986212553"><ele>111.0</ele><time>2026-04-09T07:36:50Z</time></trkpt><trkpt lat="45.059181723415264" lon="8.509142098478241"><ele>111.0</ele><time>2026-04-09T07:36:51Z</time></trkpt><trkpt lat="45.05912460452092" lon="8.509302116849176"><ele>111.0</ele><time>2026-04-09T07:36:52Z</time></trkpt><trkpt lat="45.059071029829894" lon="8.509460537888822"><ele>111.0</ele><time>2026-04-09T07:36:53Z</time></trkpt><trkpt lat="45.05901104656604" lon="8.50961781270914"><ele>111.0</ele><time>2026-04-09T07:36:54Z</time></trkpt><trkpt lat="45.05892686105847" lon="8.509770953375172"><ele>110.75</ele><time>2026-04-09T07:36:55Z</time></trkpt><trkpt lat="45.05882830097992" lon="8.509913694141137"><ele>110.5</ele><time>2026-04-09T07:36:56Z</time></trkpt><trkpt lat="45.05871258838444" lon="8.510040776129594"><ele>110.25</ele><time>2026-04-09T07:36:57Z</time></trkpt><trkpt lat="45.05857271385467" lon="8.510148082713831"><ele>110.0</ele><time>2026-04-09T07:36:58Z</time></trkpt><trkpt lat="45.058422894270166" lon="8.510251729218766"><ele>110.0</ele><time>2026-04-09T07:36:59Z</time></trkpt><trkpt lat="45.058265908542765" lon="8.510366671973268"><ele>110.0</ele><time>2026-04-09T07:37:00Z</time></trkpt><trkpt lat="45.05811484953384" lon="8.510484782321377"><ele>110.0</ele><time>2026-04-09T07:37:01Z</time></trkpt><trkpt lat="45.0579601662533" lon="8.51060385018832"><ele>110.0</ele><time>2026-04-09T07:37:02Z</time></trkpt><trkpt lat="45.05779486563591" lon="8.510727881868704"><ele>110.0</ele><time>2026-04-09T07:37:03Z</time></trkpt><trkpt lat="45.057621862852585" lon="8.51085731804901"><ele>110.0</ele><time>2026-04-09T07:37:04Z</time></trkpt><trkpt lat="45.057440693131504" lon="8.51099120235376"><ele>110.0</ele><time>2026-04-09T07:37:05Z</time></trkpt><trkpt lat="45.05725878780278" lon="8.511126436748713"><ele>110.0</ele><time>2026-04-09T07:37:06Z</time></trkpt><trkpt lat="45.057084216197076" lon="8.511256583033248"><ele>110.0</ele><time>2026-04-09T07:37:07Z</time></trkpt><trkpt lat="45.056906039657285" lon="8.511389720877979"><ele>109.0</ele><time>2026-04-09T07:37:08Z</time></trkpt><trkpt lat="45.056726750516" lon="8.511527258683476"><ele>108.0</ele><time>2026-04-09T07:37:09Z</time></trkpt><trkpt lat="45.05654179714498" lon="8.511669232638512"><ele>107.0</ele><time>2026-04-09T07:37:10Z</time></trkpt><trkpt lat="45.05635406536428" lon="8.511813980932114"><ele>107.0</ele><time>2026-04-09T07:37:11Z</time></trkpt><trkpt lat="45.056161264701984" lon="8.511963369470147"><ele>107.0</ele><time>2026-04-09T07:37:12Z</time></trkpt><trkpt lat="45.05596520231041" lon="8.512114790701935"><ele>107.0</ele><time>2026-04-09T07:37:13Z</time></trkpt><trkpt lat="45.0557644439164" lon="8.512268868376566"><ele>107.5</ele><time>2026-04-09T07:37:14Z</time></trkpt><trkpt lat="45.05556597257298" lon="8.512422019739438"><ele>108.0</ele><time>2026-04-09T07:37:15Z</time></trkpt><trkpt lat="45.05536017190751" lon="8.5125741957508"><ele>108.0</ele><time>2026-04-09T07:37:16Z</time></trkpt><trkpt lat="45.05515619230124" lon="8.512724861271822"><ele>108.0</ele><time>2026-04-09T07:37:17Z</time></trkpt><trkpt lat="45.054956893987566" lon="8.512878419161954"><ele>108.0</ele><time>2026-04-09T07:37:18Z</time></trkpt><trkpt lat="45.05474503562169" lon="8.513031065899561"><ele>108.0</ele><time>2026-04-09T07:37:19Z</time></trkpt><trkpt lat="45.05454698085015" lon="8.513185992814448"><ele>108.0</ele><time>2026-04-09T07:37:20Z</time></trkpt><trkpt lat="45.05434343672167" lon="8.51334675142651"><ele>108.0</ele><time>2026-04-09T07:37:21Z</time></trkpt><trkpt lat="45.05413658449562" lon="8.513494768878283"><ele>108.0</ele><time>2026-04-09T07:37:22Z</time></trkpt><trkpt lat="45.053929543792165" lon="8.513657201422003"><ele>108.0</ele><time>2026-04-09T07:37:23Z</time></trkpt><trkpt lat="45.05373367526759" lon="8.513800449942371"><ele>108.0</ele><time>2026-04-09T07:37:24Z</time></trkpt><trkpt lat="45.053530628299555" lon="8.513950187685989"><ele>108.0</ele><time>2026-04-09T07:37:25Z</time></trkpt><trkpt lat="45.05333257736157" lon="8.51410277641669"><ele>107.5</ele><time>2026-04-09T07:37:26Z</time></trkpt><trkpt lat="45.053132257129164" lon="8.514254596990812"><ele>107.0</ele><time>2026-04-09T07:37:27Z</time></trkpt><trkpt lat="45.052929859634276" lon="8.514408953168237"><ele>107.0</ele><time>2026-04-09T07:37:28Z</time></trkpt><trkpt lat="45.05272672175756" lon="8.514562485054745"><ele>107.0</ele><time>2026-04-09T07:37:29Z</time></trkpt><trkpt lat="45.052524842736915" lon="8.514714264064196"><ele>107.66666666666666</ele><time>2026-04-09T07:37:30Z</time></trkpt><trkpt lat="45.052328093506915" lon="8.51486249487253"><ele>108.33333333333334</ele><time>2026-04-09T07:37:31Z</time></trkpt><trkpt lat="45.05213452512411" lon="8.515016190150844"><ele>109.0</ele><time>2026-04-09T07:37:32Z</time></trkpt><trkpt lat="45.05193901684827" lon="8.515168214473956"><ele>109.0</ele><time>2026-04-09T07:37:33Z</time></trkpt><trkpt lat="45.051732790910684" lon="8.515319220468465"><ele>109.0</ele><time>2026-04-09T07:37:34Z</time></trkpt><trkpt lat="45.05153605335061" lon="8.515468504669451"><ele>109.0</ele><time>2026-04-09T07:37:35Z</time></trkpt><trkpt lat="45.05134371054379" lon="8.51561973588504"><ele>109.0</ele><time>2026-04-09T07:37:36Z</time></trkpt><trkpt lat="45.05115261860493" lon="8.51576284990238"><ele>109.0</ele><time>2026-04-09T07:37:37Z</time></trkpt><trkpt lat="45.05095060320209" lon="8.515914448281649"><ele>109.0</ele><time>2026-04-09T07:37:38Z</time></trkpt><trkpt lat="45.05075707372809" lon="8.516055493481115"><ele>109.0</ele><time>2026-04-09T07:37:39Z</time></trkpt><trkpt lat="45.05056664696959" lon="8.516210585724043"><ele>109.0</ele><time>2026-04-09T07:37:40Z</time></trkpt><trkpt lat="45.050372645325176" lon="8.51635650015749"><ele>108.66666666666667</ele><time>2026-04-09T07:37:41Z</time></trkpt><trkpt lat="45.050174616494694" lon="8.516504531732988"><ele>108.33333333333334</ele><time>2026-04-09T07:37:42Z</time></trkpt><trkpt lat="45.04997705330696" lon="8.516655362267324"><ele>108.0</ele><time>2026-04-09T07:37:43Z</time></trkpt><trkpt lat="45.049780100600515" lon="8.516806631997573"><ele>108.0</ele><time>2026-04-09T07:37:44Z</time></trkpt><trkpt lat="45.04957926937623" lon="8.516959393522619"><ele>108.0</ele><time>2026-04-09T07:37:45Z</time></trkpt><trkpt lat="45.04937477693945" lon="8.517110109538098"><ele>108.0</ele><time>2026-04-09T07:37:46Z</time></trkpt><trkpt lat="45.049165676623105" lon="8.517267442807386"><ele>108.0</ele><time>2026-04-09T07:37:47Z</time></trkpt><trkpt lat="45.048963518925774" lon="8.517422274566096"><ele>107.5</ele><time>2026-04-09T07:37:48Z</time></trkpt><trkpt lat="45.04875907861222" lon="8.517578770078263"><ele>107.0</ele><time>2026-04-09T07:37:49Z</time></trkpt><trkpt lat="45.04855335680052" lon="8.517739058509681"><ele>107.0</ele><time>2026-04-09T07:37:50Z</time></trkpt><trkpt lat="45.048347121512904" lon="8.517898558964854"><ele>107.0</ele><time>2026-04-09T07:37:51Z</time></trkpt><trkpt lat="45.048131189508055" lon="8.518052349052018"><ele>107.0</ele><time>2026-04-09T07:37:52Z</time></trkpt><trkpt lat="45.04792028443176" lon="8.51821563010023"><ele>107.0</ele><time>2026-04-09T07:37:53Z</time></trkpt><trkpt lat="45.0477072430541" lon="8.518374875743044"><ele>107.0</ele><time>2026-04-09T07:37:54Z</time></trkpt><trkpt lat="45.04749457565753" lon="8.518537622571317"><ele>107.0</ele><time>2026-04-09T07:37:55Z</time></trkpt><trkpt lat="45.04727732884261" lon="8.518698620241727"><ele>107.5</ele><time>2026-04-09T07:37:56Z</time></trkpt><trkpt lat="45.04706590418162" lon="8.51886250139224"><ele>108.0</ele><time>2026-04-09T07:37:57Z</time></trkpt><trkpt lat="45.0468513546784" lon="8.519024493330932"><ele>108.0</ele><time>2026-04-09T07:37:58Z</time></trkpt><trkpt lat="45.0466297152622" lon="8.51918919066834"><ele>108.0</ele><time>2026-04-09T07:37:59Z</time></trkpt><trkpt lat="45.04641937402905" lon="8.519359329905003"><ele>108.0</ele><time>2026-04-09T07:38:00Z</time></trkpt><trkpt lat="45.046196975396946" lon="8.519518275757914"><ele>108.0</ele><time>2026-04-09T07:38:01Z</time></trkpt><trkpt lat="45.04597799462123" lon="8.519683570077705"><ele>108.5</ele><time>2026-04-09T07:38:02Z</time></trkpt><trkpt lat="45.045761151671265" lon="8.519849410168908"><ele>109.0</ele><time>2026-04-09T07:38:03Z</time></trkpt><trkpt lat="45.04554148739619" lon="8.520016131928875"><ele>109.0</ele><time>2026-04-09T07:38:04Z</time></trkpt><trkpt lat="45.04532457354629" lon="8.520182521329025"><ele>109.0</ele><time>2026-04-09T07:38:05Z</time></trkpt><trkpt lat="45.045107763862276" lon="8.520348825669808"><ele>108.5</ele><time>2026-04-09T07:38:06Z</time></trkpt><trkpt lat="45.04489426735982" lon="8.520517803310705"><ele>108.0</ele><time>2026-04-09T07:38:07Z</time></trkpt><trkpt lat="45.044668456141544" lon="8.520672771861493"><ele>108.0</ele><time>2026-04-09T07:38:08Z</time></trkpt><trkpt lat="45.044452971281366" lon="8.52083887822581"><ele>108.0</ele><time>2026-04-09T07:38:09Z</time></trkpt><trkpt lat="45.04422797386938" lon="8.520996000327905"><ele>109.0</ele><time>2026-04-09T07:38:10Z</time></trkpt><trkpt lat="45.04400795507467" lon="8.521165110720126"><ele>110.0</ele><time>2026-04-09T07:38:11Z</time></trkpt><trkpt lat="45.043786976556206" lon="8.521335105340269"><ele>110.0</ele><time>2026-04-09T07:38:12Z</time></trkpt><trkpt lat="45.04357032038475" lon="8.521503692289174"><ele>110.0</ele><time>2026-04-09T07:38:13Z</time></trkpt><trkpt lat="45.04334658719048" lon="8.521664918721488"><ele>111.5</ele><time>2026-04-09T07:38:14Z</time></trkpt><trkpt lat="45.04313388402126" lon="8.521832775918352"><ele>113.0</ele><time>2026-04-09T07:38:15Z</time></trkpt><trkpt lat="45.04291539719658" lon="8.52199876864919"><ele>112.0</ele><time>2026-04-09T07:38:16Z</time></trkpt><trkpt lat="45.04269354879032" lon="8.522160420135956"><ele>111.0</ele><time>2026-04-09T07:38:17Z</time></trkpt><trkpt lat="45.042472548421586" lon="8.522326931262473"><ele>113.5</ele><time>2026-04-09T07:38:18Z</time></trkpt><trkpt lat="45.04225692355486" lon="8.522490853226351"><ele>116.0</ele><time>2026-04-09T07:38:19Z</time></trkpt><trkpt lat="45.04204403100581" lon="8.522661517770901"><ele>116.0</ele><time>2026-04-09T07:38:20Z</time></trkpt><trkpt lat="45.0418318428092" lon="8.522819914878665"><ele>116.0</ele><time>2026-04-09T07:38:21Z</time></trkpt><trkpt lat="45.04162310976771" lon="8.522975656095031"><ele>117.0</ele><time>2026-04-09T07:38:22Z</time></trkpt><trkpt lat="45.04141760562786" lon="8.523125973005612"><ele>118.0</ele><time>2026-04-09T07:38:23Z</time></trkpt><trkpt lat="45.04122354980493" lon="8.5232713737434"><ele>118.0</ele><time>2026-04-09T07:38:24Z</time></trkpt><trkpt lat="45.04104018736547" lon="8.523414822252736"><ele>118.0</ele><time>2026-04-09T07:38:25Z</time></trkpt><trkpt lat="45.0408626540342" lon="8.52354568010785"><ele>118.0</ele><time>2026-04-09T07:38:26Z</time></trkpt><trkpt lat="45.040693485953" lon="8.523674888165875"><ele>119.33333333333334</ele><time>2026-04-09T07:38:27Z</time></trkpt><trkpt lat="45.04053280608056" lon="8.523798216463494"><ele>120.66666666666666</ele><time>2026-04-09T07:38:28Z</time></trkpt><trkpt lat="45.04037366304465" lon="8.523916929331625"><ele>122.0</ele><time>2026-04-09T07:38:29Z</time></trkpt><trkpt lat="45.040221203856134" lon="8.52403336578686"><ele>122.0</ele><time>2026-04-09T07:38:30Z</time></trkpt><trkpt lat="45.04006555115105" lon="8.524149610378057"><ele>122.0</ele><time>2026-04-09T07:38:31Z</time></trkpt><trkpt lat="45.039911832339435" lon="8.524266263043572"><ele>122.0</ele><time>2026-04-09T07:38:32Z</time></trkpt><trkpt lat="45.039757299448354" lon="8.52438280131541"><ele>122.66666666666666</ele><time>2026-04-09T07:38:33Z</time></trkpt><trkpt lat="45.03960096664055" lon="8.524499978645254"><ele>123.33333333333334</ele><time>2026-04-09T07:38:34Z</time></trkpt><trkpt lat="45.039451843653886" lon="8.524617002850906"><ele>124.0</ele><time>2026-04-09T07:38:35Z</time></trkpt><trkpt lat="45.0393034020514" lon="8.524730840395224"><ele>124.0</ele><time>2026-04-09T07:38:36Z</time></trkpt><trkpt lat="45.03916031118754" lon="8.52483937308735"><ele>124.0</ele><time>2026-04-09T07:38:37Z</time></trkpt><trkpt lat="45.03902276649219" lon="8.52494558066027"><ele>124.0</ele><time>2026-04-09T07:38:38Z</time></trkpt><trkpt lat="45.03889070980584" lon="8.525042188861711"><ele>124.25</ele><time>2026-04-09T07:38:39Z</time></trkpt><trkpt lat="45.03875715061313" lon="8.525131650846763"><ele>124.5</ele><time>2026-04-09T07:38:40Z</time></trkpt><trkpt lat="45.03862652107634" lon="8.525203458236843"><ele>124.75</ele><time>2026-04-09T07:38:41Z</time></trkpt><trkpt lat="45.0384967085234" lon="8.525259398144721"><ele>125.0</ele><time>2026-04-09T07:38:42Z</time></trkpt><trkpt lat="45.03836540031301" lon="8.525293473588757"><ele>124.75</ele><time>2026-04-09T07:38:43Z</time></trkpt><trkpt lat="45.03823472505684" lon="8.525315957789006"><ele>124.5</ele><time>2026-04-09T07:38:44Z</time></trkpt><trkpt lat="45.038107210547224" lon="8.525317007055198"><ele>124.25</ele><time>2026-04-09T07:38:45Z</time></trkpt><trkpt lat="45.03797500095992" lon="8.52531131656364"><ele>124.0</ele><time>2026-04-09T07:38:46Z</time></trkpt><trkpt lat="45.03784772938867" lon="8.52531171666239"><ele>124.0</ele><time>2026-04-09T07:38:47Z</time></trkpt><trkpt lat="45.03771898254493" lon="8.525315578566854"><ele>124.0</ele><time>2026-04-09T07:38:48Z</time></trkpt><trkpt lat="45.0375861225229" lon="8.525321350694288"><ele>124.0</ele><time>2026-04-09T07:38:49Z</time></trkpt><trkpt lat="45.037457723583444" lon="8.52532408061507"><ele>124.0</ele><time>2026-04-09T07:38:50Z</time></trkpt><trkpt lat="45.037326649084285" lon="8.525321332096624"><ele>122.5</ele><time>2026-04-09T07:38:51Z</time></trkpt><trkpt lat="45.03719614498717" lon="8.525320022700052"><ele>121.0</ele><time>2026-04-09T07:38:52Z</time></trkpt><trkpt lat="45.037072399502534" lon="8.52531694707634"><ele>119.5</ele><time>2026-04-09T07:38:53Z</time></trkpt><trkpt lat="45.0369695338731" lon="8.52531611093285"><ele>118.0</ele><time>2026-04-09T07:38:54Z</time></trkpt><trkpt lat="45.03687224266803" lon="8.52532680477305"><ele>118.0</ele><time>2026-04-09T07:38:55Z</time></trkpt><trkpt lat="45.03677559884617" lon="8.525346294928676"><ele>118.00000000000001</ele><time>2026-04-09T07:38:56Z</time></trkpt><trkpt lat="45.036667522652905" lon="8.525331590982393"><ele>118.00000000000001</ele><time>2026-04-09T07:38:57Z</time></trkpt><trkpt lat="45.03656419211546" lon="8.525315424205862"><ele>118.0</ele><time>2026-04-09T07:38:58Z</time></trkpt><trkpt lat="45.03647671671396" lon="8.525303229272458"><ele>118.0</ele><time>2026-04-09T07:38:59Z</time></trkpt><trkpt lat="45.03639279799469" lon="8.525265575088584"><ele>118.0</ele><time>2026-04-09T07:39:00Z</time></trkpt><trkpt lat="45.03630807298309" lon="8.525225108669082"><ele>118.00000000000001</ele><time>2026-04-09T07:39:01Z</time></trkpt><trkpt lat="45.036221436012" lon="8.525158126846856"><ele>118.00000000000001</ele><time>2026-04-09T07:39:02Z</time></trkpt><trkpt lat="45.0361335495067" lon="8.525092515884882"><ele>118.0</ele><time>2026-04-09T07:39:03Z</time></trkpt><trkpt lat="45.03603702453421" lon="8.525030421674803"><ele>118.0</ele><time>2026-04-09T07:39:04Z</time></trkpt><trkpt lat="45.03595279533202" lon="8.524953486708748"><ele>118.0</ele><time>2026-04-09T07:39:05Z</time></trkpt><trkpt lat="45.03587151571659" lon="8.524863132885558"><ele>118.00000000000001</ele><time>2026-04-09T07:39:06Z</time></trkpt><trkpt lat="45.03580415127901" lon="8.524749740643257"><ele>118.00000000000001</ele><time>2026-04-09T07:39:07Z</time></trkpt><trkpt lat="45.03574925335271" lon="8.524632636794038"><ele>118.0</ele><time>2026-04-09T07:39:08Z</time></trkpt><trkpt lat="45.03569721164188" lon="8.524522663097425"><ele>118.0</ele><time>2026-04-09T07:39:09Z</time></trkpt><trkpt lat="45.03565134349702" lon="8.524415935285298"><ele>118.00000000000001</ele><time>2026-04-09T07:39:10Z</time></trkpt><trkpt lat="45.0356134493715" lon="8.524316947853219"><ele>118.0</ele><time>2026-04-09T07:39:11Z</time></trkpt><trkpt lat="45.03557591991033" lon="8.524225868430342"><ele>118.0</ele><time>2026-04-09T07:39:12Z</time></trkpt><trkpt lat="45.03551345718953" lon="8.524147591125521"><ele>118.0</ele><time>2026-04-09T07:39:13Z</time></trkpt><trkpt lat="45.03544223086573" lon="8.52408251282339"><ele>118.00000000000001</ele><time>2026-04-09T07:39:14Z</time></trkpt><trkpt lat="45.0353669667106" lon="8.52405287883065"><ele>118.0</ele><time>2026-04-09T07:39:15Z</time></trkpt><trkpt lat="45.03528260897616" lon="8.524075474332454"><ele>118.0</ele><time>2026-04-09T07:39:16Z</time></trkpt><trkpt lat="45.03520099028739" lon="8.524134570996006"><ele>118.00000000000001</ele><time>2026-04-09T07:39:17Z</time></trkpt><trkpt lat="45.03512990453802" lon="8.524230493092906"><ele>118.00000000000001</ele><time>2026-04-09T07:39:18Z</time></trkpt><trkpt lat="45.0350831998966" lon="8.524342073699572"><ele>118.0</ele><time>2026-04-09T07:39:19Z</time></trkpt><trkpt lat="45.03502065535933" lon="8.524450700163742"><ele>118.0</ele><time>2026-04-09T07:39:20Z</time></trkpt><trkpt lat="45.03496907261974" lon="8.524557683552247"><ele>118.80000000000001</ele><time>2026-04-09T07:39:21Z</time></trkpt><trkpt lat="45.03490923269133" lon="8.524672290215399"><ele>119.60000000000001</ele><time>2026-04-09T07:39:22Z</time></trkpt><trkpt lat="45.034844107433315" lon="8.524796335259891"><ele>120.39999999999999</ele><time>2026-04-09T07:39:23Z</time></trkpt><trkpt lat="45.03477997289317" lon="8.52492469140815"><ele>121.19999999999999</ele><time>2026-04-09T07:39:24Z</time></trkpt><trkpt lat="45.03469918886544" lon="8.525045557650722"><ele>122.0</ele><time>2026-04-09T07:39:25Z</time></trkpt><trkpt lat="45.03462519659446" lon="8.52517712510478"><ele>122.0</ele><time>2026-04-09T07:39:26Z</time></trkpt><trkpt lat="45.0345463487962" lon="8.525321769948137"><ele>122.0</ele><time>2026-04-09T07:39:27Z</time></trkpt><trkpt lat="45.03446957900327" lon="8.525466966891573"><ele>122.0</ele><time>2026-04-09T07:39:28Z</time></trkpt><trkpt lat="45.03439698655096" lon="8.525606850033434"><ele>122.0</ele><time>2026-04-09T07:39:29Z</time></trkpt><trkpt lat="45.03432424629012" lon="8.525741722584275"><ele>122.0</ele><time>2026-04-09T07:39:30Z</time></trkpt><trkpt lat="45.03423385845325" lon="8.525862171661176"><ele>122.0</ele><time>2026-04-09T07:39:31Z</time></trkpt><trkpt lat="45.034135426882926" lon="8.525983604812028"><ele>122.0</ele><time>2026-04-09T07:39:32Z</time></trkpt><trkpt lat="45.03403219550126" lon="8.526099014699698"><ele>122.0</ele><time>2026-04-09T07:39:33Z</time></trkpt><trkpt lat="45.03393482720416" lon="8.526217365100425"><ele>122.0</ele><time>2026-04-09T07:39:34Z</time></trkpt><trkpt lat="45.03383257849371" lon="8.526339362513985"><ele>122.0</ele><time>2026-04-09T07:39:35Z</time></trkpt><trkpt lat="45.03372287965867" lon="8.526465252299971"><ele>122.0</ele><time>2026-04-09T07:39:36Z</time></trkpt><trkpt lat="45.03361029675067" lon="8.526597149802347"><ele>122.0</ele><time>2026-04-09T07:39:37Z</time></trkpt><trkpt lat="45.03349643331511" lon="8.526728219952277"><ele>122.0</ele><time>2026-04-09T07:39:38Z</time></trkpt><trkpt lat="45.03339050306383" lon="8.52685550914118"><ele>122.0</ele><time>2026-04-09T07:39:39Z</time></trkpt><trkpt lat="45.03328864934654" lon="8.52697646736019"><ele>122.0</ele><time>2026-04-09T07:39:40Z</time></trkpt><trkpt lat="45.03319165990816" lon="8.527093550543105"><ele>122.0</ele><time>2026-04-09T07:39:41Z</time></trkpt><trkpt lat="45.033094814697876" lon="8.527202856146728"><ele>122.5</ele><time>2026-04-09T07:39:42Z</time></trkpt><trkpt lat="45.03300089110745" lon="8.527310563590609"><ele>123.0</ele><time>2026-04-09T07:39:43Z</time></trkpt><trkpt lat="45.03291313991137" lon="8.527418183072305"><ele>123.5</ele><time>2026-04-09T07:39:44Z</time></trkpt><trkpt lat="45.032823595423615" lon="8.527524449545947"><ele>124.0</ele><time>2026-04-09T07:39:45Z</time></trkpt><trkpt lat="45.032732226826134" lon="8.527633488002358"><ele>124.0</ele><time>2026-04-09T07:39:46Z</time></trkpt><trkpt lat="45.03264743182245" lon="8.527736980596114"><ele>124.0</ele><time>2026-04-09T07:39:47Z</time></trkpt><trkpt lat="45.03256678243428" lon="8.527836169162649"><ele>124.0</ele><time>2026-04-09T07:39:48Z</time></trkpt><trkpt lat="45.03248267013036" lon="8.527936416115041"><ele>124.0</ele><time>2026-04-09T07:39:49Z</time></trkpt><trkpt lat="45.032407379129815" lon="8.528026228271843"><ele>124.0</ele><time>2026-04-09T07:39:50Z</time></trkpt><trkpt lat="45.032343672627285" lon="8.528100483300921"><ele>124.4</ele><time>2026-04-09T07:39:51Z</time></trkpt><trkpt lat="45.03227727018177" lon="8.52817574419467"><ele>124.80000000000001</ele><time>2026-04-09T07:39:52Z</time></trkpt><trkpt lat="45.03220153095015" lon="8.528264649261601"><ele>125.19999999999999</ele><time>2026-04-09T07:39:53Z</time></trkpt><trkpt lat="45.03211437480787" lon="8.528360309084999"><ele>125.6</ele><time>2026-04-09T07:39:54Z</time></trkpt><trkpt lat="45.03202950963956" lon="8.528470949874501"><ele>126.0</ele><time>2026-04-09T07:39:55Z</time></trkpt><trkpt lat="45.031934222287845" lon="8.528588063124362"><ele>126.0</ele><time>2026-04-09T07:39:56Z</time></trkpt><trkpt lat="45.03183453185686" lon="8.528707225152425"><ele>126.0</ele><time>2026-04-09T07:39:57Z</time></trkpt><trkpt lat="45.03172176300952" lon="8.528839977149746"><ele>126.0</ele><time>2026-04-09T07:39:58Z</time></trkpt><trkpt lat="45.03160805972949" lon="8.528984002250011"><ele>126.0</ele><time>2026-04-09T07:39:59Z</time></trkpt><trkpt lat="45.031487098354965" lon="8.529129798535521"><ele>126.33333333333334</ele><time>2026-04-09T07:40:00Z</time></trkpt><trkpt lat="45.03136766182719" lon="8.529266136957816"><ele>126.66666666666667</ele><time>2026-04-09T07:40:01Z</time></trkpt><trkpt lat="45.03125119227367" lon="8.529412040208964"><ele>127.0</ele><time>2026-04-09T07:40:02Z</time></trkpt><trkpt lat="45.03113049600506" lon="8.529558882604979"><ele>126.33333333333334</ele><time>2026-04-09T07:40:03Z</time></trkpt><trkpt lat="45.031008295075324" lon="8.529697882639292"><ele>125.66666666666666</ele><time>2026-04-09T07:40:04Z</time></trkpt><trkpt lat="45.030884277183276" lon="8.529844022611819"><ele>125.0</ele><time>2026-04-09T07:40:05Z</time></trkpt><trkpt lat="45.03076275521371" lon="8.529993918195764"><ele>124.66666666666666</ele><time>2026-04-09T07:40:06Z</time></trkpt><trkpt lat="45.03064151246745" lon="8.530146062706699"><ele>124.33333333333334</ele><time>2026-04-09T07:40:07Z</time></trkpt><trkpt lat="45.03051429603606" lon="8.530302744265454"><ele>124.0</ele><time>2026-04-09T07:40:08Z</time></trkpt><trkpt lat="45.0303831891691" lon="8.530458869637556"><ele>124.0</ele><time>2026-04-09T07:40:09Z</time></trkpt><trkpt lat="45.03025143313385" lon="8.530614960990322"><ele>124.0</ele><time>2026-04-09T07:40:10Z</time></trkpt><trkpt lat="45.03011923624928" lon="8.530773501282274"><ele>124.0</ele><time>2026-04-09T07:40:11Z</time></trkpt><trkpt lat="45.02998768630769" lon="8.530934648996977"><ele>124.33333333333334</ele><time>2026-04-09T07:40:12Z</time></trkpt><trkpt lat="45.02985597101845" lon="8.531099473552215"><ele>124.66666666666666</ele><time>2026-04-09T07:40:13Z</time></trkpt><trkpt lat="45.02972607230082" lon="8.531271467902513"><ele>125.0</ele><time>2026-04-09T07:40:14Z</time></trkpt><trkpt lat="45.029590221281694" lon="8.531439482681241"><ele>125.0</ele><time>2026-04-09T07:40:15Z</time></trkpt><trkpt lat="45.02945408781848" lon="8.531606977150892"><ele>125.0</ele><time>2026-04-09T07:40:16Z</time></trkpt><trkpt lat="45.02931508376825" lon="8.531779073141113"><ele>125.0</ele><time>2026-04-09T07:40:17Z</time></trkpt><trkpt lat="45.02916718830736" lon="8.531954980874014"><ele>124.66666666666666</ele><time>2026-04-09T07:40:18Z</time></trkpt><trkpt lat="45.029020463057904" lon="8.532141293682203"><ele>124.33333333333334</ele><time>2026-04-09T07:40:19Z</time></trkpt><trkpt lat="45.028865103010936" lon="8.532343073669347"><ele>124.0</ele><time>2026-04-09T07:40:20Z</time></trkpt><trkpt lat="45.028695870146635" lon="8.532558110670506"><ele>124.0</ele><time>2026-04-09T07:40:21Z</time></trkpt><trkpt lat="45.02850554595588" lon="8.532787928528963"><ele>124.0</ele><time>2026-04-09T07:40:22Z</time></trkpt><trkpt lat="45.028312111249534" lon="8.533002250985128"><ele>123.0</ele><time>2026-04-09T07:40:23Z</time></trkpt><trkpt lat="45.02813312297143" lon="8.53319798449604"><ele>122.0</ele><time>2026-04-09T07:40:24Z</time></trkpt><trkpt lat="45.02796021651271" lon="8.533398208280817"><ele>122.0</ele><time>2026-04-09T07:40:25Z</time></trkpt><trkpt lat="45.02779189558915" lon="8.533600478732776"><ele>122.0</ele><time>2026-04-09T07:40:26Z</time></trkpt><trkpt lat="45.02763201094777" lon="8.533792714443045"><ele>122.0</ele><time>2026-04-09T07:40:27Z</time></trkpt><trkpt lat="45.027479607606075" lon="8.533977489564728"><ele>122.66666666666666</ele><time>2026-04-09T07:40:28Z</time></trkpt><trkpt lat="45.02733036373567" lon="8.534149707567297"><ele>123.33333333333334</ele><time>2026-04-09T07:40:29Z</time></trkpt><trkpt lat="45.02718618955238" lon="8.534322501244823"><ele>124.0</ele><time>2026-04-09T07:40:30Z</time></trkpt><trkpt lat="45.02704102817258" lon="8.534502340631867"><ele>124.0</ele><time>2026-04-09T07:40:31Z</time></trkpt><trkpt lat="45.026894712427854" lon="8.53469155163354"><ele>124.0</ele><time>2026-04-09T07:40:32Z</time></trkpt><trkpt lat="45.026745038386025" lon="8.534892582646613"><ele>124.0</ele><time>2026-04-09T07:40:33Z</time></trkpt><trkpt lat="45.02657778315732" lon="8.535109026820159"><ele>124.0</ele><time>2026-04-09T07:40:34Z</time></trkpt><trkpt lat="45.026388650718694" lon="8.535322235835448"><ele>124.0</ele><time>2026-04-09T07:40:35Z</time></trkpt><trkpt lat="45.026182855208646" lon="8.535539087249262"><ele>123.5</ele><time>2026-04-09T07:40:36Z</time></trkpt><trkpt lat="45.02598926933923" lon="8.535749108536061"><ele>123.0</ele><time>2026-04-09T07:40:37Z</time></trkpt><trkpt lat="45.02579875246333" lon="8.535968166634357"><ele>124.0</ele><time>2026-04-09T07:40:38Z</time></trkpt><trkpt lat="45.02560143746391" lon="8.536197563332879"><ele>125.0</ele><time>2026-04-09T07:40:39Z</time></trkpt><trkpt lat="45.025403010496504" lon="8.536432267391847"><ele>125.0</ele><time>2026-04-09T07:40:40Z</time></trkpt><trkpt lat="45.02520218602467" lon="8.536671086702333"><ele>125.0</ele><time>2026-04-09T07:40:41Z</time></trkpt><trkpt lat="45.024999496154344" lon="8.5369156692087"><ele>126.0</ele><time>2026-04-09T07:40:42Z</time></trkpt><trkpt lat="45.024799837069125" lon="8.53716705370256"><ele>127.0</ele><time>2026-04-09T07:40:43Z</time></trkpt><trkpt lat="45.02460672886873" lon="8.537419198768427"><ele>127.0</ele><time>2026-04-09T07:40:44Z</time></trkpt><trkpt lat="45.02440356409223" lon="8.537664157096607"><ele>127.0</ele><time>2026-04-09T07:40:45Z</time></trkpt><trkpt lat="45.024204506355325" lon="8.537899782314287"><ele>126.0</ele><time>2026-04-09T07:40:46Z</time></trkpt><trkpt lat="45.02400114202592" lon="8.538134392627034"><ele>125.0</ele><time>2026-04-09T07:40:47Z</time></trkpt><trkpt lat="45.02380097612989" lon="8.53837011730259"><ele>125.0</ele><time>2026-04-09T07:40:48Z</time></trkpt><trkpt lat="45.02360449582288" lon="8.538619582424452"><ele>125.0</ele><time>2026-04-09T07:40:49Z</time></trkpt><trkpt lat="45.02340393824121" lon="8.538863780000272"><ele>124.0</ele><time>2026-04-09T07:40:50Z</time></trkpt><trkpt lat="45.023198502836834" lon="8.53911247390965"><ele>123.0</ele><time>2026-04-09T07:40:51Z</time></trkpt><trkpt lat="45.02299016394478" lon="8.539361758931653"><ele>123.0</ele><time>2026-04-09T07:40:52Z</time></trkpt><trkpt lat="45.02278387228181" lon="8.539611869014283"><ele>123.0</ele><time>2026-04-09T07:40:53Z</time></trkpt><trkpt lat="45.02257618573787" lon="8.539858732340651"><ele>121.5</ele><time>2026-04-09T07:40:54Z</time></trkpt><trkpt lat="45.02236999748056" lon="8.540106647357494"><ele>120.0</ele><time>2026-04-09T07:40:55Z</time></trkpt><trkpt lat="45.0221655443457" lon="8.54034908843831"><ele>120.5</ele><time>2026-04-09T07:40:56Z</time></trkpt><trkpt lat="45.021959786868095" lon="8.540591446321438"><ele>121.0</ele><time>2026-04-09T07:40:57Z</time></trkpt><trkpt lat="45.021758384845725" lon="8.540830653574204"><ele>121.0</ele><time>2026-04-09T07:40:58Z</time></trkpt><trkpt lat="45.02155600953718" lon="8.541077681384856"><ele>121.0</ele><time>2026-04-09T07:40:59Z</time></trkpt><trkpt lat="45.02135731947268" lon="8.541318541151211"><ele>121.0</ele><time>2026-04-09T07:41:00Z</time></trkpt><trkpt lat="45.02115613433875" lon="8.541565784476207"><ele>121.0</ele><time>2026-04-09T07:41:01Z</time></trkpt><trkpt lat="45.020956387295314" lon="8.54180913218924"><ele>120.5</ele><time>2026-04-09T07:41:02Z</time></trkpt><trkpt lat="45.02075654159378" lon="8.542052458889712"><ele>120.0</ele><time>2026-04-09T07:41:03Z</time></trkpt><trkpt lat="45.0205577107665" lon="8.542293962232781"><ele>120.0</ele><time>2026-04-09T07:41:04Z</time></trkpt><trkpt lat="45.02036104167772" lon="8.542532798840018"><ele>120.0</ele><time>2026-04-09T07:41:05Z</time></trkpt><trkpt lat="45.02016380032611" lon="8.542771513126526"><ele>122.0</ele><time>2026-04-09T07:41:06Z</time></trkpt><trkpt lat="45.01996875923634" lon="8.543007195570071"><ele>124.0</ele><time>2026-04-09T07:41:07Z</time></trkpt><trkpt lat="45.019774569432165" lon="8.543241399511471"><ele>124.0</ele><time>2026-04-09T07:41:08Z</time></trkpt><trkpt lat="45.01958038499168" lon="8.54347410158989"><ele>124.0</ele><time>2026-04-09T07:41:09Z</time></trkpt><trkpt lat="45.01938524957342" lon="8.54370957392692"><ele>124.0</ele><time>2026-04-09T07:41:10Z</time></trkpt><trkpt lat="45.0191911449467" lon="8.543940411220456"><ele>124.0</ele><time>2026-04-09T07:41:11Z</time></trkpt><trkpt lat="45.01899797062503" lon="8.544170788788973"><ele>124.0</ele><time>2026-04-09T07:41:12Z</time></trkpt><trkpt lat="45.018803244015906" lon="8.544399828144874"><ele>124.0</ele><time>2026-04-09T07:41:13Z</time></trkpt><trkpt lat="45.01860795264381" lon="8.544635721623049"><ele>123.0</ele><time>2026-04-09T07:41:14Z</time></trkpt><trkpt lat="45.01841291235503" lon="8.544868272424653"><ele>122.0</ele><time>2026-04-09T07:41:15Z</time></trkpt><trkpt lat="45.01821906555955" lon="8.545102944791852"><ele>122.0</ele><time>2026-04-09T07:41:16Z</time></trkpt><trkpt lat="45.01802430594363" lon="8.54533993533087"><ele>122.0</ele><time>2026-04-09T07:41:17Z</time></trkpt><trkpt lat="45.01782812251067" lon="8.54557817027838"><ele>121.5</ele><time>2026-04-09T07:41:18Z</time></trkpt><trkpt lat="45.01763161717978" lon="8.545812776035671"><ele>121.0</ele><time>2026-04-09T07:41:19Z</time></trkpt><trkpt lat="45.01743459574307" lon="8.546046676749098"><ele>124.5</ele><time>2026-04-09T07:41:20Z</time></trkpt><trkpt lat="45.0172387715413" lon="8.54628083107908"><ele>128.0</ele><time>2026-04-09T07:41:21Z</time></trkpt><trkpt lat="45.01704458241084" lon="8.54651480094765"><ele>128.0</ele><time>2026-04-09T07:41:22Z</time></trkpt><trkpt lat="45.01685001732468" lon="8.54674617685568"><ele>128.0</ele><time>2026-04-09T07:41:23Z</time></trkpt><trkpt lat="45.016654911238334" lon="8.546976724668177"><ele>129.0</ele><time>2026-04-09T07:41:24Z</time></trkpt><trkpt lat="45.01646120469958" lon="8.547208593068234"><ele>130.0</ele><time>2026-04-09T07:41:25Z</time></trkpt><trkpt lat="45.016269765596476" lon="8.547442256098295"><ele>130.0</ele><time>2026-04-09T07:41:26Z</time></trkpt><trkpt lat="45.01607452226706" lon="8.547680306760615"><ele>130.0</ele><time>2026-04-09T07:41:27Z</time></trkpt><trkpt lat="45.01588035247556" lon="8.547916638069836"><ele>130.0</ele><time>2026-04-09T07:41:28Z</time></trkpt><trkpt lat="45.015686906676756" lon="8.548151574747692"><ele>130.0</ele><time>2026-04-09T07:41:29Z</time></trkpt><trkpt lat="45.01549335604273" lon="8.548385380381873"><ele>130.0</ele><time>2026-04-09T07:41:30Z</time></trkpt><trkpt lat="45.01530009311475" lon="8.548616224188926"><ele>130.0</ele><time>2026-04-09T07:41:31Z</time></trkpt><trkpt lat="45.015109074087746" lon="8.54884714010895"><ele>130.5</ele><time>2026-04-09T07:41:32Z</time></trkpt><trkpt lat="45.0149182004426" lon="8.549077592240264"><ele>131.0</ele><time>2026-04-09T07:41:33Z</time></trkpt><trkpt lat="45.01472590005798" lon="8.54930924755083"><ele>131.0</ele><time>2026-04-09T07:41:34Z</time></trkpt><trkpt lat="45.014532883175974" lon="8.549539908720885"><ele>131.0</ele><time>2026-04-09T07:41:35Z</time></trkpt><trkpt lat="45.01433833501234" lon="8.549767863522886"><ele>132.5</ele><time>2026-04-09T07:41:36Z</time></trkpt><trkpt lat="45.0141440684386" lon="8.549995415233012"><ele>134.0</ele><time>2026-04-09T07:41:37Z</time></trkpt><trkpt lat="45.01395332804984" lon="8.550222284631793"><ele>133.5</ele><time>2026-04-09T07:41:38Z</time></trkpt><trkpt lat="45.013763406286806" lon="8.550456454757919"><ele>133.0</ele><time>2026-04-09T07:41:39Z</time></trkpt><trkpt lat="45.01357324729081" lon="8.550686229113891"><ele>133.0</ele><time>2026-04-09T07:41:40Z</time></trkpt><trkpt lat="45.01338399243619" lon="8.55091316011083"><ele>133.0</ele><time>2026-04-09T07:41:41Z</time></trkpt><trkpt lat="45.01319567292767" lon="8.551134059402203"><ele>135.0</ele><time>2026-04-09T07:41:42Z</time></trkpt><trkpt lat="45.01300835029605" lon="8.551353872914842"><ele>137.0</ele><time>2026-04-09T07:41:43Z</time></trkpt><trkpt lat="45.012820958889385" lon="8.551570344114914"><ele>137.0</ele><time>2026-04-09T07:41:44Z</time></trkpt><trkpt lat="45.01263095577249" lon="8.551783895436806"><ele>137.0</ele><time>2026-04-09T07:41:45Z</time></trkpt><trkpt lat="45.01243607683257" lon="8.551986613268664"><ele>138.0</ele><time>2026-04-09T07:41:46Z</time></trkpt><trkpt lat="45.012238786037756" lon="8.552182359736687"><ele>139.0</ele><time>2026-04-09T07:41:47Z</time></trkpt><trkpt lat="45.0120359133126" lon="8.552367970601528"><ele>139.0</ele><time>2026-04-09T07:41:48Z</time></trkpt><trkpt lat="45.011828062754866" lon="8.552548038844174"><ele>139.0</ele><time>2026-04-09T07:41:49Z</time></trkpt><trkpt lat="45.01161658465574" lon="8.552717314756052"><ele>138.5</ele><time>2026-04-09T07:41:50Z</time></trkpt><trkpt lat="45.01140193600335" lon="8.552877866789819"><ele>138.0</ele><time>2026-04-09T07:41:51Z</time></trkpt><trkpt lat="45.01118473524794" lon="8.553030750191349"><ele>138.0</ele><time>2026-04-09T07:41:52Z</time></trkpt><trkpt lat="45.01096625408067" lon="8.553178374858218"><ele>138.0</ele><time>2026-04-09T07:41:53Z</time></trkpt><trkpt lat="45.01074112370044" lon="8.553315618010199"><ele>139.5</ele><time>2026-04-09T07:41:54Z</time></trkpt><trkpt lat="45.01051515939844" lon="8.55343580031581"><ele>141.0</ele><time>2026-04-09T07:41:55Z</time></trkpt><trkpt lat="45.01028143537168" lon="8.553547881906418"><ele>141.0</ele><time>2026-04-09T07:41:56Z</time></trkpt><trkpt lat="45.010046147327266" lon="8.553648354935753"><ele>141.0</ele><time>2026-04-09T07:41:57Z</time></trkpt><trkpt lat="45.0098069142351" lon="8.55373452677567"><ele>143.5</ele><time>2026-04-09T07:41:58Z</time></trkpt><trkpt lat="45.00956767167007" lon="8.55380845332395"><ele>146.0</ele><time>2026-04-09T07:41:59Z</time></trkpt><trkpt lat="45.009323716046104" lon="8.55387754502828"><ele>145.5</ele><time>2026-04-09T07:42:00Z</time></trkpt><trkpt lat="45.00908263623221" lon="8.553939238753701"><ele>145.0</ele><time>2026-04-09T07:42:01Z</time></trkpt><trkpt lat="45.00884132426441" lon="8.553993173116544"><ele>145.0</ele><time>2026-04-09T07:42:02Z</time></trkpt><trkpt lat="45.00859795152826" lon="8.554031596269711"><ele>145.0</ele><time>2026-04-09T07:42:03Z</time></trkpt><trkpt lat="45.00835056275135" lon="8.554068640384783"><ele>144.5</ele><time>2026-04-09T07:42:04Z</time></trkpt><trkpt lat="45.00810488079848" lon="8.55408986543218"><ele>144.0</ele><time>2026-04-09T07:42:05Z</time></trkpt><trkpt lat="45.0078618953364" lon="8.554102588499742"><ele>144.0</ele><time>2026-04-09T07:42:06Z</time></trkpt><trkpt lat="45.00761720384689" lon="8.554104981662396"><ele>144.0</ele><time>2026-04-09T07:42:07Z</time></trkpt><trkpt lat="45.007372325454334" lon="8.554101990605483"><ele>146.5</ele><time>2026-04-09T07:42:08Z</time></trkpt><trkpt lat="45.0071289714728" lon="8.554085720603918"><ele>149.0</ele><time>2026-04-09T07:42:09Z</time></trkpt><trkpt lat="45.006883883881855" lon="8.554053119984482"><ele>150.0</ele><time>2026-04-09T07:42:10Z</time></trkpt><trkpt lat="45.00664288100824" lon="8.554007351771393"><ele>151.0</ele><time>2026-04-09T07:42:11Z</time></trkpt><trkpt lat="45.00640203000455" lon="8.55395034334377"><ele>151.0</ele><time>2026-04-09T07:42:12Z</time></trkpt><trkpt lat="45.00616144533485" lon="8.553885054857359"><ele>151.0</ele><time>2026-04-09T07:42:13Z</time></trkpt><trkpt lat="45.00592130939004" lon="8.553817274527681"><ele>152.5</ele><time>2026-04-09T07:42:14Z</time></trkpt><trkpt lat="45.005681192257065" lon="8.553740238532228"><ele>154.0</ele><time>2026-04-09T07:42:15Z</time></trkpt><trkpt lat="45.0054409711494" lon="8.553653997440925"><ele>156.5</ele><time>2026-04-09T07:42:16Z</time></trkpt><trkpt lat="45.00520151941707" lon="8.553560291023022"><ele>159.0</ele><time>2026-04-09T07:42:17Z</time></trkpt><trkpt lat="45.004964037251476" lon="8.553466576819872"><ele>160.0</ele><time>2026-04-09T07:42:18Z</time></trkpt><trkpt lat="45.00472486460165" lon="8.553373756433402"><ele>161.0</ele><time>2026-04-09T07:42:19Z</time></trkpt><trkpt lat="45.004486472372875" lon="8.553286511094392"><ele>161.0</ele><time>2026-04-09T07:42:20Z</time></trkpt><trkpt lat="45.00424626293209" lon="8.553204230526447"><ele>161.0</ele><time>2026-04-09T07:42:21Z</time></trkpt><trkpt lat="45.00400797342811" lon="8.553122053701578"><ele>161.0</ele><time>2026-04-09T07:42:22Z</time></trkpt><trkpt lat="45.0037688342363" lon="8.55303865260944"><ele>161.0</ele><time>2026-04-09T07:42:23Z</time></trkpt><trkpt lat="45.00353223178631" lon="8.552954230103662"><ele>164.0</ele><time>2026-04-09T07:42:24Z</time></trkpt><trkpt lat="45.003299119007224" lon="8.552869824922707"><ele>167.0</ele><time>2026-04-09T07:42:25Z</time></trkpt><trkpt lat="45.00306497569402" lon="8.552785251582655"><ele>167.0</ele><time>2026-04-09T07:42:26Z</time></trkpt><trkpt lat="45.002833556108484" lon="8.55270112753661"><ele>167.0</ele><time>2026-04-09T07:42:27Z</time></trkpt><trkpt lat="45.00260369912999" lon="8.552619140999331"><ele>166.5</ele><time>2026-04-09T07:42:28Z</time></trkpt><trkpt lat="45.002375386042495" lon="8.552536545921829"><ele>166.0</ele><time>2026-04-09T07:42:29Z</time></trkpt><trkpt lat="45.00214531883679" lon="8.552461020091206"><ele>166.0</ele><time>2026-04-09T07:42:30Z</time></trkpt><trkpt lat="45.001920844374965" lon="8.552372811340868"><ele>166.0</ele><time>2026-04-09T07:42:31Z</time></trkpt><trkpt lat="45.00169472474963" lon="8.552284473981668"><ele>168.5</ele><time>2026-04-09T07:42:32Z</time></trkpt><trkpt lat="45.00147293455183" lon="8.552202979525674"><ele>171.0</ele><time>2026-04-09T07:42:33Z</time></trkpt><trkpt lat="45.0012484916693" lon="8.552129015808616"><ele>171.0</ele><time>2026-04-09T07:42:34Z</time></trkpt><trkpt lat="45.00102197428904" lon="8.552063745468832"><ele>171.0</ele><time>2026-04-09T07:42:35Z</time></trkpt><trkpt lat="45.00079518570084" lon="8.552007396985875"><ele>176.5</ele><time>2026-04-09T07:42:36Z</time></trkpt><trkpt lat="45.00056793246288" lon="8.55197619307806"><ele>182.0</ele><time>2026-04-09T07:42:37Z</time></trkpt><trkpt lat="45.00033946373344" lon="8.551968552917922"><ele>182.0</ele><time>2026-04-09T07:42:38Z</time></trkpt><trkpt lat="45.000112512835074" lon="8.551980898837249"><ele>182.0</ele><time>2026-04-09T07:42:39Z</time></trkpt><trkpt lat="44.999890320614426" lon="8.5520196025106"><ele>177.5</ele><time>2026-04-09T07:42:40Z</time></trkpt><trkpt lat="44.99966428602287" lon="8.552074331805732"><ele>173.0</ele><time>2026-04-09T07:42:41Z</time></trkpt><trkpt lat="44.99944453777416" lon="8.552137916199069"><ele>173.0</ele><time>2026-04-09T07:42:42Z</time></trkpt><trkpt lat="44.99922784065751" lon="8.552223535005147"><ele>173.0</ele><time>2026-04-09T07:42:43Z</time></trkpt><trkpt lat="44.99901680161624" lon="8.552337166845248"><ele>174.66666666666666</ele><time>2026-04-09T07:42:44Z</time></trkpt><trkpt lat="44.998816881292825" lon="8.552466348894216"><ele>176.33333333333334</ele><time>2026-04-09T07:42:45Z</time></trkpt><trkpt lat="44.998619514266835" lon="8.552614573038257"><ele>178.0</ele><time>2026-04-09T07:42:46Z</time></trkpt><trkpt lat="44.99842974171592" lon="8.552774536698237"><ele>179.33333333333334</ele><time>2026-04-09T07:42:47Z</time></trkpt><trkpt lat="44.99824705294966" lon="8.552945507532764"><ele>180.66666666666666</ele><time>2026-04-09T07:42:48Z</time></trkpt><trkpt lat="44.9980698058026" lon="8.553132381455658"><ele>182.0</ele><time>2026-04-09T07:42:49Z</time></trkpt><trkpt lat="44.997897822380324" lon="8.553328327005712"><ele>182.0</ele><time>2026-04-09T07:42:50Z</time></trkpt><trkpt lat="44.99772674158704" lon="8.553527384093625"><ele>182.0</ele><time>2026-04-09T07:42:51Z</time></trkpt><trkpt lat="44.99756452274214" lon="8.55371388603153"><ele>182.0</ele><time>2026-04-09T07:42:52Z</time></trkpt><trkpt lat="44.99740309707035" lon="8.553907837331813"><ele>186.33333333333331</ele><time>2026-04-09T07:42:53Z</time></trkpt><trkpt lat="44.997241427456444" lon="8.55410337980158"><ele>190.66666666666666</ele><time>2026-04-09T07:42:54.021Z</time></trkpt><trkpt lat="44.997084454452484" lon="8.554292160888526"><ele>195.0</ele><time>2026-04-09T07:42:55.022Z</time></trkpt><trkpt lat="44.99692989770826" lon="8.554477556624404"><ele>199.0</ele><time>2026-04-09T07:42:56.02Z</time></trkpt><trkpt lat="44.9967762928899" lon="8.554661376164013"><ele>203.0</ele><time>2026-04-09T07:42:57.017Z</time></trkpt><trkpt lat="44.99523937240708" lon="8.556381203242164"><ele>191.5</ele><time>2026-04-09T07:43:05Z</time></trkpt><trkpt lat="44.99505285609258" lon="8.556591586007972"><ele>180.0</ele><time>2026-04-09T07:43:06Z</time></trkpt><trkpt lat="44.99485553037041" lon="8.556786072807212"><ele>175.5</ele><time>2026-04-09T07:43:07Z</time></trkpt><trkpt lat="44.99466970430234" lon="8.556983051284293"><ele>171.0</ele><time>2026-04-09T07:43:08Z</time></trkpt><trkpt lat="44.99447304910954" lon="8.557174942367958"><ele>168.5</ele><time>2026-04-09T07:43:09Z</time></trkpt><trkpt lat="44.99428000812109" lon="8.557361949476654"><ele>166.0</ele><time>2026-04-09T07:43:10Z</time></trkpt><trkpt lat="44.99408918178626" lon="8.557539180122445"><ele>166.0</ele><time>2026-04-09T07:43:11Z</time></trkpt><trkpt lat="44.993891451683616" lon="8.557709652661368"><ele>166.0</ele><time>2026-04-09T07:43:12Z</time></trkpt><trkpt lat="44.99369506522348" lon="8.557882130697871"><ele>163.5</ele><time>2026-04-09T07:43:13Z</time></trkpt><trkpt lat="44.9935026847328" lon="8.558063629595818"><ele>161.0</ele><time>2026-04-09T07:43:14Z</time></trkpt><trkpt lat="44.993312777316454" lon="8.558250910207482"><ele>161.0</ele><time>2026-04-09T07:43:15Z</time></trkpt><trkpt lat="44.99311485144009" lon="8.55843275993491"><ele>161.0</ele><time>2026-04-09T07:43:16Z</time></trkpt><trkpt lat="44.99289814787855" lon="8.558602459594075"><ele>157.5</ele><time>2026-04-09T07:43:17Z</time></trkpt><trkpt lat="44.992691357656845" lon="8.55876779654401"><ele>154.0</ele><time>2026-04-09T07:43:18Z</time></trkpt><trkpt lat="44.99247930331071" lon="8.55892101140716"><ele>154.0</ele><time>2026-04-09T07:43:19Z</time></trkpt><trkpt lat="44.99226459892468" lon="8.559063214356595"><ele>154.0</ele><time>2026-04-09T07:43:20Z</time></trkpt><trkpt lat="44.99204966299306" lon="8.559199847732673"><ele>154.0</ele><time>2026-04-09T07:43:21Z</time></trkpt><trkpt lat="44.99183582365482" lon="8.559330366094343"><ele>154.0</ele><time>2026-04-09T07:43:22Z</time></trkpt><trkpt lat="44.99162530621251" lon="8.559447362706766"><ele>152.66666666666669</ele><time>2026-04-09T07:43:23Z</time></trkpt><trkpt lat="44.99141376383128" lon="8.55953788723307"><ele>151.33333333333334</ele><time>2026-04-09T07:43:24Z</time></trkpt><trkpt lat="44.99119920435024" lon="8.559616303315227"><ele>150.0</ele><time>2026-04-09T07:43:25Z</time></trkpt><trkpt lat="44.99098635155918" lon="8.559677589964565"><ele>149.33333333333334</ele><time>2026-04-09T07:43:26Z</time></trkpt><trkpt lat="44.99077731629372" lon="8.559725631461813"><ele>148.66666666666669</ele><time>2026-04-09T07:43:27Z</time></trkpt><trkpt lat="44.99057138099011" lon="8.55976303524413"><ele>148.0</ele><time>2026-04-09T07:43:28Z</time></trkpt><trkpt lat="44.990359468910384" lon="8.559794990401704"><ele>148.0</ele><time>2026-04-09T07:43:29Z</time></trkpt><trkpt lat="44.99014960455036" lon="8.559824125980015"><ele>148.0</ele><time>2026-04-09T07:43:30Z</time></trkpt><trkpt lat="44.98994094994643" lon="8.559844887228673"><ele>148.0</ele><time>2026-04-09T07:43:31Z</time></trkpt><trkpt lat="44.98973455382718" lon="8.55984742710776"><ele>146.66666666666669</ele><time>2026-04-09T07:43:32Z</time></trkpt><trkpt lat="44.98952833066018" lon="8.559831835375675"><ele>145.33333333333334</ele><time>2026-04-09T07:43:33Z</time></trkpt><trkpt lat="44.9893229464276" lon="8.559802858861824"><ele>144.0</ele><time>2026-04-09T07:43:34Z</time></trkpt><trkpt lat="44.98911821501832" lon="8.559764194419367"><ele>142.66666666666666</ele><time>2026-04-09T07:43:35Z</time></trkpt><trkpt lat="44.98891130479737" lon="8.55971883840884"><ele>141.33333333333331</ele><time>2026-04-09T07:43:36Z</time></trkpt><trkpt lat="44.98870333765463" lon="8.559669130967363"><ele>140.0</ele><time>2026-04-09T07:43:37Z</time></trkpt><trkpt lat="44.988496479943585" lon="8.559610464050245"><ele>140.0</ele><time>2026-04-09T07:43:38Z</time></trkpt><trkpt lat="44.988290046427544" lon="8.559548465577166"><ele>140.0</ele><time>2026-04-09T07:43:39Z</time></trkpt><trkpt lat="44.98808820527687" lon="8.559474576824678"><ele>140.0</ele><time>2026-04-09T07:43:40Z</time></trkpt><trkpt lat="44.98789052723722" lon="8.559389537947311"><ele>140.0</ele><time>2026-04-09T07:43:41Z</time></trkpt><trkpt lat="44.987696827642345" lon="8.559285497618989"><ele>140.0</ele><time>2026-04-09T07:43:42Z</time></trkpt><trkpt lat="44.98750529612864" lon="8.559179880379785"><ele>140.0</ele><time>2026-04-09T07:43:43Z</time></trkpt><trkpt lat="44.987314118274156" lon="8.559082237981118"><ele>138.33333333333331</ele><time>2026-04-09T07:43:44Z</time></trkpt><trkpt lat="44.98713889809924" lon="8.558997210734082"><ele>136.66666666666666</ele><time>2026-04-09T07:43:45Z</time></trkpt><trkpt lat="44.986985779650205" lon="8.558919410238241"><ele>135.0</ele><time>2026-04-09T07:43:46Z</time></trkpt><trkpt lat="44.98683657485752" lon="8.558842568936045"><ele>135.0</ele><time>2026-04-09T07:43:47Z</time></trkpt><trkpt lat="44.98669996278458" lon="8.558773488828383"><ele>135.0</ele><time>2026-04-09T07:43:48Z</time></trkpt><trkpt lat="44.986578219670754" lon="8.558711425152262"><ele>135.0</ele><time>2026-04-09T07:43:49Z</time></trkpt><trkpt lat="44.986471609253336" lon="8.558655241719837"><ele>135.0</ele><time>2026-04-09T07:43:50Z</time></trkpt><trkpt lat="44.98638987780912" lon="8.558610124545295"><ele>134.8</ele><time>2026-04-09T07:43:51Z</time></trkpt><trkpt lat="44.98633248682472" lon="8.558569067029632"><ele>134.6</ele><time>2026-04-09T07:43:52Z</time></trkpt><trkpt lat="44.98625884950299" lon="8.55852283284811"><ele>134.4</ele><time>2026-04-09T07:43:54Z</time></trkpt><trkpt lat="44.9860902898909" lon="8.5584725210817"><ele>134.2</ele><time>2026-04-09T07:47:30Z</time></trkpt><trkpt lat="44.98600918063777" lon="8.55842527250825"><ele>134.0</ele><time>2026-04-09T07:47:31Z</time></trkpt><trkpt lat="44.98592447507635" lon="8.558379742088663"><ele>133.0</ele><time>2026-04-09T07:47:32Z</time></trkpt><trkpt lat="44.985830469290015" lon="8.5583334993387"><ele>132.0</ele><time>2026-04-09T07:47:33Z</time></trkpt><trkpt lat="44.985724676316984" lon="8.558282089916183"><ele>131.0</ele><time>2026-04-09T07:47:34Z</time></trkpt><trkpt lat="44.98560984007553" lon="8.558222935658435"><ele>130.0</ele><time>2026-04-09T07:47:35Z</time></trkpt><trkpt lat="44.98548455136664" lon="8.55816004539784"><ele>130.0</ele><time>2026-04-09T07:47:36Z</time></trkpt><trkpt lat="44.98535986963261" lon="8.558098519944052"><ele>130.0</ele><time>2026-04-09T07:47:37Z</time></trkpt><trkpt lat="44.98522815087843" lon="8.558031807641726"><ele>130.0</ele><time>2026-04-09T07:47:38Z</time></trkpt><trkpt lat="44.98508560528304" lon="8.557960365362119"><ele>130.0</ele><time>2026-04-09T07:47:39Z</time></trkpt><trkpt lat="44.98493460736851" lon="8.557884140905848"><ele>129.0</ele><time>2026-04-09T07:47:40Z</time></trkpt><trkpt lat="44.984772575125454" lon="8.557803276666098"><ele>128.0</ele><time>2026-04-09T07:47:41Z</time></trkpt><trkpt lat="44.98460578127165" lon="8.55771844380898"><ele>127.0</ele><time>2026-04-09T07:47:42Z</time></trkpt><trkpt lat="44.98444052006869" lon="8.55763626731492"><ele>127.0</ele><time>2026-04-09T07:47:43Z</time></trkpt><trkpt lat="44.984275309959536" lon="8.557557572967047"><ele>127.0</ele><time>2026-04-09T07:47:44Z</time></trkpt><trkpt lat="44.98410538220732" lon="8.55747618621562"><ele>127.0</ele><time>2026-04-09T07:47:45Z</time></trkpt><trkpt lat="44.98392622320189" lon="8.557398675731848"><ele>126.66666666666667</ele><time>2026-04-09T07:47:46Z</time></trkpt><trkpt lat="44.98374046825251" lon="8.557340436901931"><ele>126.33333333333334</ele><time>2026-04-09T07:47:47Z</time></trkpt><trkpt lat="44.98355003692704" lon="8.557293154444311"><ele>126.0</ele><time>2026-04-09T07:47:48Z</time></trkpt><trkpt lat="44.983354154077084" lon="8.557250237979824"><ele>128.33333333333334</ele><time>2026-04-09T07:47:49Z</time></trkpt><trkpt lat="44.98315252571498" lon="8.557220943973867"><ele>130.66666666666669</ele><time>2026-04-09T07:47:50Z</time></trkpt><trkpt lat="44.98294752089144" lon="8.5572066899905"><ele>133.0</ele><time>2026-04-09T07:47:51Z</time></trkpt><trkpt lat="44.98273742861798" lon="8.557207094261674"><ele>133.0</ele><time>2026-04-09T07:47:52Z</time></trkpt><trkpt lat="44.98252211093339" lon="8.557227339818224"><ele>133.0</ele><time>2026-04-09T07:47:53Z</time></trkpt><trkpt lat="44.9823011698345" lon="8.55725924351582"><ele>133.0</ele><time>2026-04-09T07:47:54Z</time></trkpt><trkpt lat="44.982079343439956" lon="8.557299649813555"><ele>132.0</ele><time>2026-04-09T07:47:55Z</time></trkpt><trkpt lat="44.981859398443476" lon="8.557345523194712"><ele>131.0</ele><time>2026-04-09T07:47:56Z</time></trkpt><trkpt lat="44.98164255907251" lon="8.557388393744096"><ele>130.0</ele><time>2026-04-09T07:47:57Z</time></trkpt><trkpt lat="44.98142494024807" lon="8.557433976684935"><ele>129.66666666666669</ele><time>2026-04-09T07:47:58Z</time></trkpt><trkpt lat="44.98120674866449" lon="8.557478389343038"><ele>129.33333333333334</ele><time>2026-04-09T07:47:59Z</time></trkpt><trkpt lat="44.980984298672674" lon="8.557520559549227"><ele>129.0</ele><time>2026-04-09T07:48:00Z</time></trkpt><trkpt lat="44.98075792980056" lon="8.557563824888605"><ele>130.5</ele><time>2026-04-09T07:48:01Z</time></trkpt><trkpt lat="44.980529733154846" lon="8.557609676142622"><ele>132.0</ele><time>2026-04-09T07:48:02Z</time></trkpt><trkpt lat="44.98030002298112" lon="8.557657837836205"><ele>132.0</ele><time>2026-04-09T07:48:03Z</time></trkpt><trkpt lat="44.980066770182454" lon="8.557706516067677"><ele>132.0</ele><time>2026-04-09T07:48:04Z</time></trkpt><trkpt lat="44.9798314161989" lon="8.557753874375475"><ele>135.5</ele><time>2026-04-09T07:48:05Z</time></trkpt><trkpt lat="44.97959281221478" lon="8.557800359160096"><ele>139.0</ele><time>2026-04-09T07:48:06Z</time></trkpt><trkpt lat="44.979351642618916" lon="8.557850469662235"><ele>144.5</ele><time>2026-04-09T07:48:07Z</time></trkpt><trkpt lat="44.97910798632856" lon="8.557899975276461"><ele>150.0</ele><time>2026-04-09T07:48:08Z</time></trkpt><trkpt lat="44.97886017201271" lon="8.55794532565458"><ele>150.0</ele><time>2026-04-09T07:48:09Z</time></trkpt><trkpt lat="44.97861412626285" lon="8.55798536905169"><ele>150.0</ele><time>2026-04-09T07:48:09.999Z</time></trkpt><trkpt lat="44.97837954993763" lon="8.558056482235308"><ele>148.0</ele><time>2026-04-09T07:48:10.999Z</time></trkpt><trkpt lat="44.978131627367965" lon="8.558113187003514"><ele>146.0</ele><time>2026-04-09T07:48:11.999Z</time></trkpt><trkpt lat="44.97789447242575" lon="8.558164688127519"><ele>146.0</ele><time>2026-04-09T07:48:13Z</time></trkpt><trkpt lat="44.97765740023865" lon="8.558208413666948"><ele>146.0</ele><time>2026-04-09T07:48:14Z</time></trkpt><trkpt lat="44.9774193164542" lon="8.558251613007467"><ele>143.5</ele><time>2026-04-09T07:48:15Z</time></trkpt><trkpt lat="44.977179595357846" lon="8.558298094073992"><ele>141.0</ele><time>2026-04-09T07:48:16Z</time></trkpt><trkpt lat="44.976940175041136" lon="8.558343047649045"><ele>141.0</ele><time>2026-04-09T07:48:17Z</time></trkpt><trkpt lat="44.97669995633587" lon="8.558387798175252"><ele>141.0</ele><time>2026-04-09T07:48:18Z</time></trkpt><trkpt lat="44.97645977874172" lon="8.558437773876797"><ele>140.0</ele><time>2026-04-09T07:48:19Z</time></trkpt><trkpt lat="44.97621865680052" lon="8.558489657045994"><ele>139.0</ele><time>2026-04-09T07:48:20Z</time></trkpt><trkpt lat="44.97597895933256" lon="8.558537961893236"><ele>137.5</ele><time>2026-04-09T07:48:21Z</time></trkpt><trkpt lat="44.97573793916245" lon="8.558586912283204"><ele>136.0</ele><time>2026-04-09T07:48:22Z</time></trkpt><trkpt lat="44.975497203535404" lon="8.55863540846442"><ele>136.0</ele><time>2026-04-09T07:48:23Z</time></trkpt><trkpt lat="44.97525479296404" lon="8.55868588982126"><ele>136.0</ele><time>2026-04-09T07:48:24Z</time></trkpt><trkpt lat="44.975017250516686" lon="8.558737853893971"><ele>135.5</ele><time>2026-04-09T07:48:25Z</time></trkpt><trkpt lat="44.974774465529464" lon="8.558789336435261"><ele>135.0</ele><time>2026-04-09T07:48:26Z</time></trkpt><trkpt lat="44.97453971112866" lon="8.558847833154479"><ele>135.0</ele><time>2026-04-09T07:48:27Z</time></trkpt><trkpt lat="44.97430983756956" lon="8.55892187308373"><ele>135.0</ele><time>2026-04-09T07:48:28Z</time></trkpt><trkpt lat="44.97407951755388" lon="8.559006114791128"><ele>132.5</ele><time>2026-04-09T07:48:29Z</time></trkpt><trkpt lat="44.97384913222174" lon="8.559102108311762"><ele>130.0</ele><time>2026-04-09T07:48:30Z</time></trkpt><trkpt lat="44.973625671715425" lon="8.559204119181079"><ele>130.0</ele><time>2026-04-09T07:48:31Z</time></trkpt><trkpt lat="44.973407035853" lon="8.559307967617753"><ele>130.0</ele><time>2026-04-09T07:48:32Z</time></trkpt><trkpt lat="44.97320250558505" lon="8.559413419667244"><ele>130.0</ele><time>2026-04-09T07:48:33Z</time></trkpt><trkpt lat="44.97301021512026" lon="8.559524156033456"><ele>130.0</ele><time>2026-04-09T07:48:34Z</time></trkpt><trkpt lat="44.97283410606309" lon="8.559633210704948"><ele>130.0</ele><time>2026-04-09T07:48:35Z</time></trkpt><trkpt lat="44.972664224636056" lon="8.559748443553561"><ele>130.0</ele><time>2026-04-09T07:48:36Z</time></trkpt><trkpt lat="44.972502344108584" lon="8.559865305254247"><ele>128.66666666666669</ele><time>2026-04-09T07:48:37Z</time></trkpt><trkpt lat="44.972347328461105" lon="8.559985668516987"><ele>127.33333333333334</ele><time>2026-04-09T07:48:38Z</time></trkpt><trkpt lat="44.97220203046389" lon="8.560108613535068"><ele>126.0</ele><time>2026-04-09T07:48:39Z</time></trkpt><trkpt lat="44.97206649859472" lon="8.560236986132018"><ele>126.0</ele><time>2026-04-09T07:48:40Z</time></trkpt><trkpt lat="44.971934703334725" lon="8.560365101888715"><ele>126.0</ele><time>2026-04-09T07:48:41Z</time></trkpt><trkpt lat="44.97178973841964" lon="8.560477741670004"><ele>126.0</ele><time>2026-04-09T07:48:42Z</time></trkpt><trkpt lat="44.97164281430191" lon="8.560611539120396"><ele>125.66666666666666</ele><time>2026-04-09T07:48:43Z</time></trkpt><trkpt lat="44.97149353137392" lon="8.560759189540228"><ele>125.33333333333333</ele><time>2026-04-09T07:48:44Z</time></trkpt><trkpt lat="44.97133821795337" lon="8.560928874570653"><ele>125.0</ele><time>2026-04-09T07:48:45Z</time></trkpt><trkpt lat="44.971181621110304" lon="8.56110910626355"><ele>125.0</ele><time>2026-04-09T07:48:46Z</time></trkpt><trkpt lat="44.9710217276061" lon="8.561300431916612"><ele>125.0</ele><time>2026-04-09T07:48:47Z</time></trkpt><trkpt lat="44.970860630325745" lon="8.561504445257667"><ele>125.0</ele><time>2026-04-09T07:48:48Z</time></trkpt><trkpt lat="44.97070169170298" lon="8.561728334851798"><ele>125.0</ele><time>2026-04-09T07:48:49Z</time></trkpt><trkpt lat="44.970537387153946" lon="8.561969655660217"><ele>125.0</ele><time>2026-04-09T07:48:50Z</time></trkpt><trkpt lat="44.97037503812787" lon="8.562237093277"><ele>122.5</ele><time>2026-04-09T07:48:51Z</time></trkpt><trkpt lat="44.9702121386657" lon="8.56251473620379"><ele>120.0</ele><time>2026-04-09T07:48:52Z</time></trkpt><trkpt lat="44.9700524788384" lon="8.562801705785946"><ele>119.5</ele><time>2026-04-09T07:48:53Z</time></trkpt><trkpt lat="44.96990396634911" lon="8.563076063598224"><ele>119.0</ele><time>2026-04-09T07:48:54Z</time></trkpt><trkpt lat="44.969752670746786" lon="8.563354844259429"><ele>119.0</ele><time>2026-04-09T07:48:55Z</time></trkpt><trkpt lat="44.969601600981974" lon="8.56363007057972"><ele>119.0</ele><time>2026-04-09T07:48:56Z</time></trkpt><trkpt lat="44.969451348071544" lon="8.563905934227122"><ele>118.5</ele><time>2026-04-09T07:48:57Z</time></trkpt><trkpt lat="44.96929969888744" lon="8.564188970510964"><ele>118.0</ele><time>2026-04-09T07:48:58Z</time></trkpt><trkpt lat="44.9691486061102" lon="8.564474188426194"><ele>117.0</ele><time>2026-04-09T07:48:59Z</time></trkpt><trkpt lat="44.96899639343482" lon="8.564753911310783"><ele>116.0</ele><time>2026-04-09T07:49:00Z</time></trkpt><trkpt lat="44.96884481424021" lon="8.565036921175944"><ele>116.0</ele><time>2026-04-09T07:49:01Z</time></trkpt><trkpt lat="44.96869326778224" lon="8.565317710315188"><ele>116.0</ele><time>2026-04-09T07:49:02Z</time></trkpt><trkpt lat="44.968532755813264" lon="8.56561244526072"><ele>116.0</ele><time>2026-04-09T07:49:03Z</time></trkpt><trkpt lat="44.96836614015163" lon="8.565921091801094"><ele>116.0</ele><time>2026-04-09T07:49:04Z</time></trkpt><trkpt lat="44.968208610254344" lon="8.566210551096287"><ele>115.5</ele><time>2026-04-09T07:49:05Z</time></trkpt><trkpt lat="44.96806131331099" lon="8.566478913641962"><ele>115.0</ele><time>2026-04-09T07:49:06Z</time></trkpt><trkpt lat="44.96792565918757" lon="8.56673187990567"><ele>115.0</ele><time>2026-04-09T07:49:07Z</time></trkpt><trkpt lat="44.967796931980864" lon="8.566972044276307"><ele>115.0</ele><time>2026-04-09T07:49:08Z</time></trkpt><trkpt lat="44.967675404445664" lon="8.56720086817272"><ele>115.0</ele><time>2026-04-09T07:49:09Z</time></trkpt><trkpt lat="44.967556433594865" lon="8.567417623089327"><ele>114.33333333333334</ele><time>2026-04-09T07:49:10Z</time></trkpt><trkpt lat="44.9674423702742" lon="8.567622480154135"><ele>113.66666666666666</ele><time>2026-04-09T07:49:11Z</time></trkpt><trkpt lat="44.96733544827534" lon="8.567815898218756"><ele>113.0</ele><time>2026-04-09T07:49:12Z</time></trkpt><trkpt lat="44.9672256776304" lon="8.568010837258946"><ele>113.0</ele><time>2026-04-09T07:49:13Z</time></trkpt><trkpt lat="44.967102811896396" lon="8.56823227218811"><ele>113.0</ele><time>2026-04-09T07:49:14Z</time></trkpt><trkpt lat="44.9669872101158" lon="8.568444973529447"><ele>113.0</ele><time>2026-04-09T07:49:15Z</time></trkpt><trkpt lat="44.96686221072215" lon="8.56867266671899"><ele>113.0</ele><time>2026-04-09T07:49:16Z</time></trkpt><trkpt lat="44.966732600564406" lon="8.568909259684377"><ele>113.0</ele><time>2026-04-09T07:49:17Z</time></trkpt><trkpt lat="44.966596114976994" lon="8.569154605604856"><ele>113.0</ele><time>2026-04-09T07:49:18Z</time></trkpt><trkpt lat="44.96646227163203" lon="8.569396773646599"><ele>113.0</ele><time>2026-04-09T07:49:19Z</time></trkpt><trkpt lat="44.96631753684617" lon="8.569658728196066"><ele>113.0</ele><time>2026-04-09T07:49:20Z</time></trkpt><trkpt lat="44.96617198490489" lon="8.569925199160942"><ele>113.0</ele><time>2026-04-09T07:49:21Z</time></trkpt><trkpt lat="44.96601955174959" lon="8.570193751075376"><ele>113.0</ele><time>2026-04-09T07:49:22Z</time></trkpt><trkpt lat="44.96586733331448" lon="8.570470028198514"><ele>112.0</ele><time>2026-04-09T07:49:23Z</time></trkpt><trkpt lat="44.965717208676715" lon="8.570751449896624"><ele>111.0</ele><time>2026-04-09T07:49:24Z</time></trkpt><trkpt lat="44.96555889180029" lon="8.571033602710164"><ele>110.5</ele><time>2026-04-09T07:49:25Z</time></trkpt><trkpt lat="44.96540537764978" lon="8.571322887528533"><ele>110.0</ele><time>2026-04-09T07:49:26Z</time></trkpt><trkpt lat="44.96524987039323" lon="8.571605870867035"><ele>110.0</ele><time>2026-04-09T07:49:27Z</time></trkpt><trkpt lat="44.965094600227935" lon="8.57188415492988"><ele>110.0</ele><time>2026-04-09T07:49:28Z</time></trkpt><trkpt lat="44.964942698331356" lon="8.572160854726048"><ele>109.0</ele><time>2026-04-09T07:49:29Z</time></trkpt><trkpt lat="44.964793688464034" lon="8.572437786341135"><ele>108.0</ele><time>2026-04-09T07:49:30Z</time></trkpt><trkpt lat="44.96464428871672" lon="8.572711307410726"><ele>109.0</ele><time>2026-04-09T07:49:31Z</time></trkpt><trkpt lat="44.96449256048288" lon="8.57298735329337"><ele>110.0</ele><time>2026-04-09T07:49:32Z</time></trkpt><trkpt lat="44.96434862948455" lon="8.573259675307217"><ele>110.0</ele><time>2026-04-09T07:49:33Z</time></trkpt><trkpt lat="44.96420170206692" lon="8.57352986043248"><ele>110.0</ele><time>2026-04-09T07:49:34Z</time></trkpt><trkpt lat="44.964054419260634" lon="8.573795207632102"><ele>109.0</ele><time>2026-04-09T07:49:35Z</time></trkpt><trkpt lat="44.963907910719186" lon="8.574057725880385"><ele>108.0</ele><time>2026-04-09T07:49:36Z</time></trkpt><trkpt lat="44.96376101539356" lon="8.574314302178966"><ele>108.66666666666666</ele><time>2026-04-09T07:49:37Z</time></trkpt><trkpt lat="44.96361385118167" lon="8.57455911452141"><ele>109.33333333333333</ele><time>2026-04-09T07:49:38Z</time></trkpt><trkpt lat="44.963467030682295" lon="8.574785911917052"><ele>110.0</ele><time>2026-04-09T07:49:39Z</time></trkpt><trkpt lat="44.963320702936635" lon="8.57499929454461"><ele>110.0</ele><time>2026-04-09T07:49:40Z</time></trkpt><trkpt lat="44.96317461744497" lon="8.57519904485903"><ele>110.0</ele><time>2026-04-09T07:49:41Z</time></trkpt><trkpt lat="44.96302991844984" lon="8.575385072664433"><ele>110.0</ele><time>2026-04-09T07:49:42Z</time></trkpt><trkpt lat="44.962888642892025" lon="8.57555938488769"><ele>109.33333333333333</ele><time>2026-04-09T07:49:43Z</time></trkpt><trkpt lat="44.96275267390979" lon="8.57571880692755"><ele>108.66666666666666</ele><time>2026-04-09T07:49:44Z</time></trkpt><trkpt lat="44.962624364483865" lon="8.575869760093505"><ele>108.0</ele><time>2026-04-09T07:49:45Z</time></trkpt><trkpt lat="44.9625048930168" lon="8.576012196551643"><ele>108.0</ele><time>2026-04-09T07:49:46Z</time></trkpt><trkpt lat="44.962392717992685" lon="8.576142352023897"><ele>108.0</ele><time>2026-04-09T07:49:47Z</time></trkpt><trkpt lat="44.96229083548928" lon="8.57625441991633"><ele>108.0</ele><time>2026-04-09T07:49:48Z</time></trkpt><trkpt lat="44.96219896912264" lon="8.576338271803612"><ele>108.0</ele><time>2026-04-09T07:49:49Z</time></trkpt><trkpt lat="44.96209716612444" lon="8.576406508067988"><ele>108.0</ele><time>2026-04-09T07:49:50Z</time></trkpt><trkpt lat="44.96198802767529" lon="8.576449903500638"><ele>108.0</ele><time>2026-04-09T07:49:51Z</time></trkpt><trkpt lat="44.96188508024754" lon="8.576533236918083"><ele>108.0</ele><time>2026-04-09T07:49:52Z</time></trkpt><trkpt lat="44.96179208871123" lon="8.576668298630315"><ele>108.0</ele><time>2026-04-09T07:49:53Z</time></trkpt><trkpt lat="44.961687209578045" lon="8.576805544844177"><ele>107.66666666666666</ele><time>2026-04-09T07:49:54Z</time></trkpt><trkpt lat="44.96155260094234" lon="8.576910235410935"><ele>107.33333333333333</ele><time>2026-04-09T07:49:55Z</time></trkpt><trkpt lat="44.961395235548075" lon="8.576989585730777"><ele>107.0</ele><time>2026-04-09T07:49:56Z</time></trkpt><trkpt lat="44.96122853308325" lon="8.577080607243499"><ele>107.0</ele><time>2026-04-09T07:49:57Z</time></trkpt><trkpt lat="44.96105921498211" lon="8.577180510267418"><ele>107.0</ele><time>2026-04-09T07:49:58Z</time></trkpt><trkpt lat="44.96088567936473" lon="8.577280195009127"><ele>107.0</ele><time>2026-04-09T07:49:59Z</time></trkpt><trkpt lat="44.960711661322634" lon="8.577371735266956"><ele>106.33333333333333</ele><time>2026-04-09T07:50:00Z</time></trkpt><trkpt lat="44.960546688321436" lon="8.57745327655289"><ele>105.66666666666666</ele><time>2026-04-09T07:50:01Z</time></trkpt><trkpt lat="44.960396217963265" lon="8.577520133365327"><ele>105.0</ele><time>2026-04-09T07:50:02Z</time></trkpt><trkpt lat="44.96025734462432" lon="8.577577805798885"><ele>105.0</ele><time>2026-04-09T07:50:02.999Z</time></trkpt><trkpt lat="44.96013058174011" lon="8.577628822135306"><ele>105.0</ele><time>2026-04-09T07:50:03.999Z</time></trkpt><trkpt lat="44.96001172925895" lon="8.577673784286748"><ele>105.0</ele><time>2026-04-09T07:50:04.999Z</time></trkpt><trkpt lat="44.95990163583768" lon="8.577715078040727"><ele>105.0</ele><time>2026-04-09T07:50:05.999Z</time></trkpt><trkpt lat="44.95980147959988" lon="8.577752245997816"><ele>104.6</ele><time>2026-04-09T07:50:06.999Z</time></trkpt><trkpt lat="44.959703745726884" lon="8.577785970093727"><ele>104.2</ele><time>2026-04-09T07:50:07.999Z</time></trkpt><trkpt lat="44.95960006247327" lon="8.577820107465296"><ele>103.80000000000001</ele><time>2026-04-09T07:50:08.999Z</time></trkpt><trkpt lat="44.95949268885122" lon="8.57785657555907"><ele>103.4</ele><time>2026-04-09T07:50:09.999Z</time></trkpt><trkpt lat="44.95938516191733" lon="8.577895656146113"><ele>103.0</ele><time>2026-04-09T07:50:10.999Z</time></trkpt><trkpt lat="44.959269310418605" lon="8.577935969908218"><ele>103.25</ele><time>2026-04-09T07:50:11.999Z</time></trkpt><trkpt lat="44.959147000269944" lon="8.57797911965477"><ele>103.5</ele><time>2026-04-09T07:50:12.999Z</time></trkpt><trkpt lat="44.959017960595794" lon="8.578024342550881"><ele>103.75</ele><time>2026-04-09T07:50:13.999Z</time></trkpt><trkpt lat="44.958891384489164" lon="8.578068019897165"><ele>104.0</ele><time>2026-04-09T07:50:14.999Z</time></trkpt><trkpt lat="44.958768653301505" lon="8.578111988757266"><ele>104.0</ele><time>2026-04-09T07:50:15.999Z</time></trkpt><trkpt lat="44.95864588913193" lon="8.578156209037584"><ele>104.0</ele><time>2026-04-09T07:50:16.999Z</time></trkpt><trkpt lat="44.958521449512574" lon="8.578204631642098"><ele>104.0</ele><time>2026-04-09T07:50:17.999Z</time></trkpt><trkpt lat="44.95839232104463" lon="8.578251646515685"><ele>104.0</ele><time>2026-04-09T07:50:19Z</time></trkpt><trkpt lat="44.95825643429784" lon="8.578301073122729"><ele>104.0</ele><time>2026-04-09T07:50:20Z</time></trkpt><trkpt lat="44.958116115740204" lon="8.57835024289888"><ele>104.0</ele><time>2026-04-09T07:50:21Z</time></trkpt><trkpt lat="44.95797426544422" lon="8.578401127243225"><ele>104.0</ele><time>2026-04-09T07:50:22Z</time></trkpt><trkpt lat="44.95782890322765" lon="8.578457507315502"><ele>104.0</ele><time>2026-04-09T07:50:23Z</time></trkpt><trkpt lat="44.957680653314455" lon="8.578511845395445"><ele>104.0</ele><time>2026-04-09T07:50:24Z</time></trkpt><trkpt lat="44.95753702392999" lon="8.57857290423222"><ele>104.0</ele><time>2026-04-09T07:50:25Z</time></trkpt><trkpt lat="44.957392672191986" lon="8.578627410761559"><ele>104.0</ele><time>2026-04-09T07:50:26Z</time></trkpt><trkpt lat="44.95724826925255" lon="8.578679050314518"><ele>104.0</ele><time>2026-04-09T07:50:27Z</time></trkpt><trkpt lat="44.95710196327601" lon="8.578736164674083"><ele>104.0</ele><time>2026-04-09T07:50:28Z</time></trkpt><trkpt lat="44.9569544212459" lon="8.578791460826517"><ele>104.0</ele><time>2026-04-09T07:50:29Z</time></trkpt><trkpt lat="44.95681547792933" lon="8.57883930497033"><ele>104.0</ele><time>2026-04-09T07:50:30Z</time></trkpt><trkpt lat="44.95668684574563" lon="8.578886875972536"><ele>104.0</ele><time>2026-04-09T07:50:31Z</time></trkpt><trkpt lat="44.95655817607114" lon="8.578935364483243"><ele>104.25</ele><time>2026-04-09T07:50:32Z</time></trkpt><trkpt lat="44.95642726230084" lon="8.578984999886314"><ele>104.5</ele><time>2026-04-09T07:50:33Z</time></trkpt><trkpt lat="44.95629788538479" lon="8.579032638407124"><ele>104.75</ele><time>2026-04-09T07:50:34Z</time></trkpt><trkpt lat="44.95616623023849" lon="8.579080472830892"><ele>105.0</ele><time>2026-04-09T07:50:35Z</time></trkpt><trkpt lat="44.95602931801263" lon="8.5791288311164"><ele>105.0</ele><time>2026-04-09T07:50:36Z</time></trkpt><trkpt lat="44.9558928170095" lon="8.579176283729135"><ele>105.0</ele><time>2026-04-09T07:50:37Z</time></trkpt><trkpt lat="44.955751245430726" lon="8.579221689542432"><ele>105.0</ele><time>2026-04-09T07:50:38Z</time></trkpt><trkpt lat="44.955612888501015" lon="8.579271581764536"><ele>105.0</ele><time>2026-04-09T07:50:39Z</time></trkpt><trkpt lat="44.95547201430454" lon="8.5793257660538"><ele>104.33333333333334</ele><time>2026-04-09T07:50:40Z</time></trkpt><trkpt lat="44.95532996842048" lon="8.57938231661473"><ele>103.66666666666667</ele><time>2026-04-09T07:50:41Z</time></trkpt><trkpt lat="44.95518337669949" lon="8.579441257347327"><ele>103.0</ele><time>2026-04-09T07:50:42Z</time></trkpt><trkpt lat="44.9550345752369" lon="8.579497238468278"><ele>103.0</ele><time>2026-04-09T07:50:43Z</time></trkpt><trkpt lat="44.95488522099808" lon="8.579549729916877"><ele>103.0</ele><time>2026-04-09T07:50:44Z</time></trkpt><trkpt lat="44.954737061574306" lon="8.579601366412419"><ele>103.0</ele><time>2026-04-09T07:50:45Z</time></trkpt><trkpt lat="44.954583481914746" lon="8.579656850446533"><ele>103.0</ele><time>2026-04-09T07:50:46Z</time></trkpt><trkpt lat="44.954425662111824" lon="8.579719466419812"><ele>103.0</ele><time>2026-04-09T07:50:47Z</time></trkpt><trkpt lat="44.95426519328177" lon="8.579781703594696"><ele>103.0</ele><time>2026-04-09T07:50:48Z</time></trkpt><trkpt lat="44.95410096778221" lon="8.579841904440205"><ele>103.0</ele><time>2026-04-09T07:50:49Z</time></trkpt><trkpt lat="44.95394075972157" lon="8.57990331173833"><ele>103.0</ele><time>2026-04-09T07:50:50Z</time></trkpt><trkpt lat="44.95378413376722" lon="8.579958421959248"><ele>103.0</ele><time>2026-04-09T07:50:51Z</time></trkpt><trkpt lat="44.95363019497858" lon="8.580010727803574"><ele>103.0</ele><time>2026-04-09T07:50:52Z</time></trkpt><trkpt lat="44.953481259802054" lon="8.580064137219233"><ele>103.0</ele><time>2026-04-09T07:50:53Z</time></trkpt><trkpt lat="44.95333571671522" lon="8.580121991452616"><ele>103.0</ele><time>2026-04-09T07:50:54Z</time></trkpt><trkpt lat="44.95319073177538" lon="8.580172896142946"><ele>102.0</ele><time>2026-04-09T07:50:55Z</time></trkpt><trkpt lat="44.95304346211853" lon="8.580226619689872"><ele>101.0</ele><time>2026-04-09T07:50:56Z</time></trkpt><trkpt lat="44.9528915500036" lon="8.580285715075055"><ele>100.0</ele><time>2026-04-09T07:50:57Z</time></trkpt><trkpt lat="44.95273305084678" lon="8.580345306580465"><ele>100.33333333333334</ele><time>2026-04-09T07:50:58Z</time></trkpt><trkpt lat="44.95257343130196" lon="8.580406398985403"><ele>100.66666666666666</ele><time>2026-04-09T07:50:59Z</time></trkpt><trkpt lat="44.9524108834674" lon="8.580460213336222"><ele>101.0</ele><time>2026-04-09T07:51:00Z</time></trkpt><trkpt lat="44.952250780567006" lon="8.58051474755593"><ele>101.0</ele><time>2026-04-09T07:51:01Z</time></trkpt><trkpt lat="44.952101248097" lon="8.580567229692164"><ele>101.0</ele><time>2026-04-09T07:51:02Z</time></trkpt><trkpt lat="44.95195433156792" lon="8.580623406375976"><ele>101.0</ele><time>2026-04-09T07:51:03Z</time></trkpt><trkpt lat="44.951814049174544" lon="8.58067509467075"><ele>101.0</ele><time>2026-04-09T07:51:04Z</time></trkpt><trkpt lat="44.951679385651225" lon="8.580720984632297"><ele>101.0</ele><time>2026-04-09T07:51:05Z</time></trkpt><trkpt lat="44.951543896661605" lon="8.580771867045668"><ele>101.0</ele><time>2026-04-09T07:51:06Z</time></trkpt><trkpt lat="44.95140269199081" lon="8.580823481690063"><ele>101.0</ele><time>2026-04-09T07:51:07Z</time></trkpt><trkpt lat="44.95125478047247" lon="8.580872785143717"><ele>101.0</ele><time>2026-04-09T07:51:08Z</time></trkpt><trkpt lat="44.95110276481289" lon="8.58093067270508"><ele>101.0</ele><time>2026-04-09T07:51:09Z</time></trkpt><trkpt lat="44.950948616328844" lon="8.580988743884898"><ele>101.0</ele><time>2026-04-09T07:51:10Z</time></trkpt><trkpt lat="44.95079389239656" lon="8.581046797846277"><ele>100.33333333333333</ele><time>2026-04-09T07:51:11Z</time></trkpt><trkpt lat="44.95063846304765" lon="8.581106199601779"><ele>99.66666666666666</ele><time>2026-04-09T07:51:12Z</time></trkpt><trkpt lat="44.95048278348866" lon="8.581163845074878"><ele>99.0</ele><time>2026-04-09T07:51:13Z</time></trkpt><trkpt lat="44.950325434809606" lon="8.58121894421411"><ele>99.0</ele><time>2026-04-09T07:51:14Z</time></trkpt><trkpt lat="44.95016308596902" lon="8.581278044592928"><ele>99.0</ele><time>2026-04-09T07:51:15Z</time></trkpt><trkpt lat="44.950003195675286" lon="8.581342335562065"><ele>99.0</ele><time>2026-04-09T07:51:16Z</time></trkpt><trkpt lat="44.94982613568845" lon="8.581404202831651"><ele>99.33333333333334</ele><time>2026-04-09T07:51:17Z</time></trkpt><trkpt lat="44.94965852381091" lon="8.581463770933034"><ele>99.66666666666667</ele><time>2026-04-09T07:51:18Z</time></trkpt><trkpt lat="44.94948530147229" lon="8.581527935000176"><ele>100.0</ele><time>2026-04-09T07:51:19Z</time></trkpt><trkpt lat="44.94930701169053" lon="8.581594029455466"><ele>98.66666666666667</ele><time>2026-04-09T07:51:20Z</time></trkpt><trkpt lat="44.94912940613513" lon="8.581659872135605"><ele>97.33333333333334</ele><time>2026-04-09T07:51:21Z</time></trkpt><trkpt lat="44.948953684805325" lon="8.581724863946635"><ele>96.0</ele><time>2026-04-09T07:51:22Z</time></trkpt><trkpt lat="44.948781607967" lon="8.581789035833406"><ele>96.0</ele><time>2026-04-09T07:51:23Z</time></trkpt><trkpt lat="44.94861329315787" lon="8.581853723643848"><ele>96.0</ele><time>2026-04-09T07:51:24Z</time></trkpt><trkpt lat="44.94844349956528" lon="8.58191734812445"><ele>96.0</ele><time>2026-04-09T07:51:25Z</time></trkpt><trkpt lat="44.94826862999569" lon="8.58197980169374"><ele>96.33333333333334</ele><time>2026-04-09T07:51:26Z</time></trkpt><trkpt lat="44.948090962825084" lon="8.58204584363197"><ele>96.66666666666667</ele><time>2026-04-09T07:51:27Z</time></trkpt><trkpt lat="44.94791571894137" lon="8.58211386903073"><ele>97.0</ele><time>2026-04-09T07:51:28Z</time></trkpt><trkpt lat="44.94773873458306" lon="8.582180912339613"><ele>97.0</ele><time>2026-04-09T07:51:29Z</time></trkpt><trkpt lat="44.94756111599625" lon="8.582243377073839"><ele>97.0</ele><time>2026-04-09T07:51:30Z</time></trkpt><trkpt lat="44.947382525244834" lon="8.582306835301774"><ele>97.0</ele><time>2026-04-09T07:51:31Z</time></trkpt><trkpt lat="44.94720378623467" lon="8.582371671254947"><ele>97.33333333333334</ele><time>2026-04-09T07:51:32Z</time></trkpt><trkpt lat="44.94702187322866" lon="8.582438444075082"><ele>97.66666666666666</ele><time>2026-04-09T07:51:33Z</time></trkpt><trkpt lat="44.946840753606935" lon="8.582505776846219"><ele>98.0</ele><time>2026-04-09T07:51:34Z</time></trkpt><trkpt lat="44.94666011744569" lon="8.582573751073493"><ele>97.33333333333333</ele><time>2026-04-09T07:51:35Z</time></trkpt><trkpt lat="44.946481203421136" lon="8.58264194718925"><ele>96.66666666666666</ele><time>2026-04-09T07:51:36Z</time></trkpt><trkpt lat="44.94630739533215" lon="8.582707015934655"><ele>96.0</ele><time>2026-04-09T07:51:37Z</time></trkpt><trkpt lat="44.9461372600579" lon="8.582772519998274"><ele>96.0</ele><time>2026-04-09T07:51:38Z</time></trkpt><trkpt lat="44.94596955872022" lon="8.582836295007251"><ele>96.0</ele><time>2026-04-09T07:51:39Z</time></trkpt><trkpt lat="44.94580258502727" lon="8.582899282663536"><ele>96.0</ele><time>2026-04-09T07:51:40Z</time></trkpt><trkpt lat="44.94563303376329" lon="8.582961765219874"><ele>96.0</ele><time>2026-04-09T07:51:41Z</time></trkpt><trkpt lat="44.945461683516804" lon="8.583021524771661"><ele>96.0</ele><time>2026-04-09T07:51:42Z</time></trkpt><trkpt lat="44.94529190091988" lon="8.583075114252265"><ele>96.0</ele><time>2026-04-09T07:51:43Z</time></trkpt><trkpt lat="44.94512440877394" lon="8.583121852501257"><ele>95.66666666666667</ele><time>2026-04-09T07:51:44Z</time></trkpt><trkpt lat="44.944963355501734" lon="8.583171576315715"><ele>95.33333333333334</ele><time>2026-04-09T07:51:45Z</time></trkpt><trkpt lat="44.944805251771996" lon="8.583225318381714"><ele>95.0</ele><time>2026-04-09T07:51:46Z</time></trkpt><trkpt lat="44.94464126614037" lon="8.583283456416618"><ele>95.0</ele><time>2026-04-09T07:51:47Z</time></trkpt><trkpt lat="44.944475950452315" lon="8.583342869172833"><ele>95.0</ele><time>2026-04-09T07:51:48Z</time></trkpt><trkpt lat="44.944309720299195" lon="8.583404368942348"><ele>95.0</ele><time>2026-04-09T07:51:49Z</time></trkpt><trkpt lat="44.94414226890403" lon="8.583466625894507"><ele>95.33333333333334</ele><time>2026-04-09T07:51:50Z</time></trkpt><trkpt lat="44.94397372180137" lon="8.583529345596439"><ele>95.66666666666667</ele><time>2026-04-09T07:51:51Z</time></trkpt><trkpt lat="44.94380365463396" lon="8.583589192800646"><ele>96.0</ele><time>2026-04-09T07:51:52Z</time></trkpt><trkpt lat="44.94363234155827" lon="8.583650416942554"><ele>95.66666666666667</ele><time>2026-04-09T07:51:53Z</time></trkpt><trkpt lat="44.94346064902142" lon="8.583715353930241"><ele>95.33333333333334</ele><time>2026-04-09T07:51:54Z</time></trkpt><trkpt lat="44.943289155941066" lon="8.583776974527838"><ele>95.0</ele><time>2026-04-09T07:51:55Z</time></trkpt><trkpt lat="44.943119423065674" lon="8.583837590344185"><ele>95.0</ele><time>2026-04-09T07:51:56Z</time></trkpt><trkpt lat="44.94295000637279" lon="8.583897454801964"><ele>95.0</ele><time>2026-04-09T07:51:57Z</time></trkpt><trkpt lat="44.94277755240432" lon="8.583966774324992"><ele>95.0</ele><time>2026-04-09T07:51:58Z</time></trkpt><trkpt lat="44.94260063909691" lon="8.58404510377939"><ele>95.0</ele><time>2026-04-09T07:51:59Z</time></trkpt><trkpt lat="44.942418632057276" lon="8.584126599474546"><ele>95.0</ele><time>2026-04-09T07:52:00Z</time></trkpt><trkpt lat="44.942233942697264" lon="8.584209465008925"><ele>95.0</ele><time>2026-04-09T07:52:01Z</time></trkpt><trkpt lat="44.942050641642794" lon="8.584296766384492"><ele>95.0</ele><time>2026-04-09T07:52:02Z</time></trkpt><trkpt lat="44.94186986560297" lon="8.584382087473248"><ele>95.0</ele><time>2026-04-09T07:52:03Z</time></trkpt><trkpt lat="44.94169427633384" lon="8.58446177130736"><ele>95.0</ele><time>2026-04-09T07:52:04Z</time></trkpt><trkpt lat="44.941523135406165" lon="8.584539868167914"><ele>94.66666666666667</ele><time>2026-04-09T07:52:04.999Z</time></trkpt><trkpt lat="44.94135688612178" lon="8.584615385909494"><ele>94.33333333333333</ele><time>2026-04-09T07:52:05.999Z</time></trkpt><trkpt lat="44.94119198420511" lon="8.584685644881832"><ele>94.0</ele><time>2026-04-09T07:52:06.999Z</time></trkpt><trkpt lat="44.9410302708103" lon="8.584755821407674"><ele>94.33333333333333</ele><time>2026-04-09T07:52:07.999Z</time></trkpt><trkpt lat="44.940871402203946" lon="8.58482506003858"><ele>94.66666666666667</ele><time>2026-04-09T07:52:08.999Z</time></trkpt><trkpt lat="44.94071650719806" lon="8.584893849153579"><ele>95.0</ele><time>2026-04-09T07:52:09.999Z</time></trkpt><trkpt lat="44.940559151408486" lon="8.584961206457217"><ele>95.0</ele><time>2026-04-09T07:52:10.999Z</time></trkpt><trkpt lat="44.94040124353708" lon="8.58503244353176"><ele>95.0</ele><time>2026-04-09T07:52:11.999Z</time></trkpt><trkpt lat="44.94024906380025" lon="8.585109739852756"><ele>95.0</ele><time>2026-04-09T07:52:12.999Z</time></trkpt><trkpt lat="44.940095666120826" lon="8.585183644016022"><ele>95.33333333333334</ele><time>2026-04-09T07:52:13.999Z</time></trkpt><trkpt lat="44.93994373909558" lon="8.585252045499088"><ele>95.66666666666667</ele><time>2026-04-09T07:52:14.999Z</time></trkpt><trkpt lat="44.93978888029252" lon="8.585321135629208"><ele>96.0</ele><time>2026-04-09T07:52:15.999Z</time></trkpt><trkpt lat="44.93963762071387" lon="8.585394129463852"><ele>96.0</ele><time>2026-04-09T07:52:16.999Z</time></trkpt><trkpt lat="44.93947935686241" lon="8.585465703935544"><ele>96.0</ele><time>2026-04-09T07:52:17.999Z</time></trkpt><trkpt lat="44.93931172138108" lon="8.585527894713616"><ele>96.0</ele><time>2026-04-09T07:52:18.999Z</time></trkpt><trkpt lat="44.93914333712693" lon="8.585577809975954"><ele>95.33333333333333</ele><time>2026-04-09T07:52:19.999Z</time></trkpt><trkpt lat="44.93897565668941" lon="8.585617579750785"><ele>94.66666666666666</ele><time>2026-04-09T07:52:20.999Z</time></trkpt><trkpt lat="44.93880422055557" lon="8.58564535857185"><ele>94.0</ele><time>2026-04-09T07:52:21.999Z</time></trkpt><trkpt lat="44.938635600481014" lon="8.585660954064092"><ele>94.0</ele><time>2026-04-09T07:52:22.999Z</time></trkpt><trkpt lat="44.93846926208497" lon="8.585661889475906"><ele>94.0</ele><time>2026-04-09T07:52:23.999Z</time></trkpt><trkpt lat="44.93831344789892" lon="8.585652837982984"><ele>94.0</ele><time>2026-04-09T07:52:25Z</time></trkpt><trkpt lat="44.93815544518349" lon="8.585633037529927"><ele>94.0</ele><time>2026-04-09T07:52:26Z</time></trkpt><trkpt lat="44.93800168417628" lon="8.585606734379871"><ele>94.0</ele><time>2026-04-09T07:52:27Z</time></trkpt><trkpt lat="44.93784747623741" lon="8.585581328752847"><ele>94.0</ele><time>2026-04-09T07:52:28Z</time></trkpt><trkpt lat="44.937692602919654" lon="8.585556139042144"><ele>94.25</ele><time>2026-04-09T07:52:29Z</time></trkpt><trkpt lat="44.937539088132475" lon="8.585530449617364"><ele>94.5</ele><time>2026-04-09T07:52:30Z</time></trkpt><trkpt lat="44.93739321328264" lon="8.585506953623398"><ele>94.75</ele><time>2026-04-09T07:52:31Z</time></trkpt><trkpt lat="44.937248976969705" lon="8.585489741882908"><ele>95.0</ele><time>2026-04-09T07:52:32Z</time></trkpt><trkpt lat="44.93711874366604" lon="8.585474985202596"><ele>95.0</ele><time>2026-04-09T07:52:33Z</time></trkpt><trkpt lat="44.93699717425897" lon="8.585462207200017"><ele>95.0</ele><time>2026-04-09T07:52:34Z</time></trkpt><trkpt lat="44.93688332787269" lon="8.585453700625708"><ele>95.0</ele><time>2026-04-09T07:52:35Z</time></trkpt><trkpt lat="44.93677582950897" lon="8.585454898817924"><ele>95.0</ele><time>2026-04-09T07:52:36Z</time></trkpt><trkpt lat="44.936680512931275" lon="8.585461295308413"><ele>95.0</ele><time>2026-04-09T07:52:37Z</time></trkpt><trkpt lat="44.93659527859558" lon="8.585467202701166"><ele>94.83333333333334</ele><time>2026-04-09T07:52:38Z</time></trkpt><trkpt lat="44.93651508247181" lon="8.585476101083215"><ele>94.66666666666667</ele><time>2026-04-09T07:52:39Z</time></trkpt><trkpt lat="44.93644105137259" lon="8.585476467271148"><ele>94.5</ele><time>2026-04-09T07:52:40Z</time></trkpt><trkpt lat="44.93637323274708" lon="8.585449024014535"><ele>94.33333333333333</ele><time>2026-04-09T07:52:41Z</time></trkpt><trkpt lat="44.93630491659173" lon="8.585401677391134"><ele>94.16666666666666</ele><time>2026-04-09T07:52:42Z</time></trkpt><trkpt lat="44.93623693361086" lon="8.58533698807521"><ele>94.0</ele><time>2026-04-09T07:52:43Z</time></trkpt><trkpt lat="44.93616306247256" lon="8.585255660348556"><ele>93.83333333333333</ele><time>2026-04-09T07:52:44Z</time></trkpt><trkpt lat="44.936090894465565" lon="8.585179869736127"><ele>93.66666666666666</ele><time>2026-04-09T07:52:45Z</time></trkpt><trkpt lat="44.93601086879431" lon="8.585143598715097"><ele>93.5</ele><time>2026-04-09T07:52:46Z</time></trkpt><trkpt lat="44.935926519451314" lon="8.585134617986618"><ele>93.33333333333333</ele><time>2026-04-09T07:52:47Z</time></trkpt><trkpt lat="44.93583728080824" lon="8.585162159056027"><ele>93.16666666666667</ele><time>2026-04-09T07:52:48Z</time></trkpt><trkpt lat="44.93575391588153" lon="8.585215021890447"><ele>93.0</ele><time>2026-04-09T07:52:49Z</time></trkpt><trkpt lat="44.93569457858926" lon="8.58531158538026"><ele>92.60000000000001</ele><time>2026-04-09T07:52:50Z</time></trkpt><trkpt lat="44.93565823033154" lon="8.585427389738483"><ele>92.2</ele><time>2026-04-09T07:52:51Z</time></trkpt><trkpt lat="44.93564897696374" lon="8.585556561224253"><ele>91.8</ele><time>2026-04-09T07:52:52Z</time></trkpt><trkpt lat="44.93566324689903" lon="8.585685614655633"><ele>91.4</ele><time>2026-04-09T07:52:53Z</time></trkpt><trkpt lat="44.935696846477974" lon="8.58581305244472"><ele>91.0</ele><time>2026-04-09T07:52:54Z</time></trkpt><trkpt lat="44.93573590103413" lon="8.585946350890858"><ele>91.0</ele><time>2026-04-09T07:52:55Z</time></trkpt><trkpt lat="44.93576561239429" lon="8.586097630740118"><ele>91.0</ele><time>2026-04-09T07:52:56Z</time></trkpt><trkpt lat="44.93577240822922" lon="8.586264242775687"><ele>91.0</ele><time>2026-04-09T07:52:57Z</time></trkpt><trkpt lat="44.93575642291177" lon="8.586461472033543"><ele>91.0</ele><time>2026-04-09T07:52:58Z</time></trkpt><trkpt lat="44.93571492539527" lon="8.586680358500645"><ele>91.0</ele><time>2026-04-09T07:52:59Z</time></trkpt><trkpt lat="44.93567184818408" lon="8.586921533956275"><ele>91.0</ele><time>2026-04-09T07:53:00Z</time></trkpt><trkpt lat="44.93562422823599" lon="8.58719780207013"><ele>91.0</ele><time>2026-04-09T07:53:01Z</time></trkpt><trkpt lat="44.935577013323794" lon="8.587484249069655"><ele>91.0</ele><time>2026-04-09T07:53:02Z</time></trkpt><trkpt lat="44.93552665152951" lon="8.587788781170325"><ele>91.0</ele><time>2026-04-09T07:53:03Z</time></trkpt><trkpt lat="44.93546932394543" lon="8.588112527974765"><ele>91.0</ele><time>2026-04-09T07:53:04Z</time></trkpt><trkpt lat="44.935411412961486" lon="8.588429183666412"><ele>91.0</ele><time>2026-04-09T07:53:05Z</time></trkpt><trkpt lat="44.93535682710473" lon="8.588746976628379"><ele>91.0</ele><time>2026-04-09T07:53:06Z</time></trkpt><trkpt lat="44.93530312616298" lon="8.589078341785665"><ele>91.0</ele><time>2026-04-09T07:53:07Z</time></trkpt><trkpt lat="44.935249037342935" lon="8.589413566082197"><ele>91.0</ele><time>2026-04-09T07:53:08Z</time></trkpt><trkpt lat="44.935195373866875" lon="8.589743538894865"><ele>91.0</ele><time>2026-04-09T07:53:09Z</time></trkpt><trkpt lat="44.935141673982784" lon="8.590072318923228"><ele>90.5</ele><time>2026-04-09T07:53:10Z</time></trkpt><trkpt lat="44.93508853325921" lon="8.590399908960395"><ele>90.0</ele><time>2026-04-09T07:53:11Z</time></trkpt><trkpt lat="44.93503345087966" lon="8.590723651712096"><ele>90.0</ele><time>2026-04-09T07:53:12Z</time></trkpt><trkpt lat="44.93498118986101" lon="8.591048853859075"><ele>90.0</ele><time>2026-04-09T07:53:13Z</time></trkpt><trkpt lat="44.93492083783932" lon="8.591373232463067"><ele>90.0</ele><time>2026-04-09T07:53:14Z</time></trkpt><trkpt lat="44.93485816371676" lon="8.591698461542908"><ele>90.0</ele><time>2026-04-09T07:53:15Z</time></trkpt><trkpt lat="44.93480439590894" lon="8.592021766482755"><ele>90.0</ele><time>2026-04-09T07:53:16Z</time></trkpt><trkpt lat="44.93473776744954" lon="8.59235568499559"><ele>90.0</ele><time>2026-04-09T07:53:17Z</time></trkpt><trkpt lat="44.93467880230544" lon="8.592691640451918"><ele>90.0</ele><time>2026-04-09T07:53:18Z</time></trkpt><trkpt lat="44.93461935207179" lon="8.593026284137496"><ele>90.0</ele><time>2026-04-09T07:53:19Z</time></trkpt><trkpt lat="44.93456171512563" lon="8.593363807436404"><ele>90.0</ele><time>2026-04-09T07:53:20Z</time></trkpt><trkpt lat="44.93450707197525" lon="8.593705647571934"><ele>90.0</ele><time>2026-04-09T07:53:21Z</time></trkpt><trkpt lat="44.93445274691879" lon="8.594048295843885"><ele>90.0</ele><time>2026-04-09T07:53:22Z</time></trkpt><trkpt lat="44.93439592823846" lon="8.59438882020067"><ele>90.0</ele><time>2026-04-09T07:53:23Z</time></trkpt><trkpt lat="44.93433590450926" lon="8.594731556482834"><ele>89.5</ele><time>2026-04-09T07:53:24Z</time></trkpt><trkpt lat="44.934274445519335" lon="8.595074319193769"><ele>89.0</ele><time>2026-04-09T07:53:25Z</time></trkpt><trkpt lat="44.93421422446654" lon="8.595413698287427"><ele>89.0</ele><time>2026-04-09T07:53:26Z</time></trkpt><trkpt lat="44.93416183618998" lon="8.59575616412637"><ele>89.0</ele><time>2026-04-09T07:53:27Z</time></trkpt><trkpt lat="44.93410720634319" lon="8.596106922162281"><ele>88.0</ele><time>2026-04-09T07:53:28Z</time></trkpt><trkpt lat="44.934050340568824" lon="8.596449661174303"><ele>87.0</ele><time>2026-04-09T07:53:29Z</time></trkpt><trkpt lat="44.93399034295132" lon="8.596791423540008"><ele>88.0</ele><time>2026-04-09T07:53:30Z</time></trkpt><trkpt lat="44.93393266933731" lon="8.5971325416746"><ele>89.0</ele><time>2026-04-09T07:53:31Z</time></trkpt><trkpt lat="44.93387503954675" lon="8.597467956358562"><ele>89.0</ele><time>2026-04-09T07:53:32Z</time></trkpt><trkpt lat="44.93381747707198" lon="8.597807548240981"><ele>89.0</ele><time>2026-04-09T07:53:33Z</time></trkpt><trkpt lat="44.9337583876634" lon="8.59813936762807"><ele>89.0</ele><time>2026-04-09T07:53:34Z</time></trkpt><trkpt lat="44.93370595282392" lon="8.59847245271578"><ele>89.0</ele><time>2026-04-09T07:53:35Z</time></trkpt><trkpt lat="44.93365511469332" lon="8.598811142793926"><ele>88.0</ele><time>2026-04-09T07:53:36Z</time></trkpt><trkpt lat="44.93360757906081" lon="8.599146825785816"><ele>87.0</ele><time>2026-04-09T07:53:37Z</time></trkpt><trkpt lat="44.933563528654474" lon="8.599484241610396"><ele>88.5</ele><time>2026-04-09T07:53:38Z</time></trkpt><trkpt lat="44.93352504947711" lon="8.599827787612618"><ele>90.0</ele><time>2026-04-09T07:53:39Z</time></trkpt><trkpt lat="44.93348935972874" lon="8.600169345688949"><ele>91.0</ele><time>2026-04-09T07:53:40Z</time></trkpt><trkpt lat="44.93346193523169" lon="8.600509179960474"><ele>92.0</ele><time>2026-04-09T07:53:41Z</time></trkpt><trkpt lat="44.93344352514105" lon="8.600853319272982"><ele>90.5</ele><time>2026-04-09T07:53:42Z</time></trkpt><trkpt lat="44.93343752454302" lon="8.601197872498165"><ele>89.0</ele><time>2026-04-09T07:53:43Z</time></trkpt><trkpt lat="44.933437423537384" lon="8.601539988598683"><ele>89.0</ele><time>2026-04-09T07:53:44Z</time></trkpt><trkpt lat="44.93343838457403" lon="8.601886925526372"><ele>89.0</ele><time>2026-04-09T07:53:45Z</time></trkpt><trkpt lat="44.93344447579833" lon="8.602191356628293"><ele>88.5</ele><time>2026-04-09T07:53:46Z</time></trkpt><trkpt lat="44.93345485919959" lon="8.602530517176056"><ele>88.0</ele><time>2026-04-09T07:53:47Z</time></trkpt><trkpt lat="44.93346742572205" lon="8.60286369653251"><ele>88.0</ele><time>2026-04-09T07:53:48Z</time></trkpt><trkpt lat="44.93349211688667" lon="8.6031932332745"><ele>88.0</ele><time>2026-04-09T07:53:49Z</time></trkpt><trkpt lat="44.93352313371409" lon="8.603528261846506"><ele>89.5</ele><time>2026-04-09T07:53:50Z</time></trkpt><trkpt lat="44.93355426237318" lon="8.603855150857887"><ele>91.0</ele><time>2026-04-09T07:53:51Z</time></trkpt><trkpt lat="44.93359964706896" lon="8.604175951333566"><ele>91.5</ele><time>2026-04-09T07:53:52Z</time></trkpt><trkpt lat="44.933654360538846" lon="8.604497874458648"><ele>92.0</ele><time>2026-04-09T07:53:53Z</time></trkpt><trkpt lat="44.93371461368544" lon="8.604817630328485"><ele>92.0</ele><time>2026-04-09T07:53:54Z</time></trkpt><trkpt lat="44.93377684370783" lon="8.605137175897609"><ele>92.0</ele><time>2026-04-09T07:53:55Z</time></trkpt><trkpt lat="44.93384244514505" lon="8.605456075773604"><ele>90.0</ele><time>2026-04-09T07:53:56Z</time></trkpt><trkpt lat="44.933910382067204" lon="8.605770532164561"><ele>88.0</ele><time>2026-04-09T07:53:57Z</time></trkpt><trkpt lat="44.93398379446282" lon="8.606084812016872"><ele>88.0</ele><time>2026-04-09T07:53:58Z</time></trkpt><trkpt lat="44.93405562004105" lon="8.606404378383976"><ele>88.0</ele><time>2026-04-09T07:53:59Z</time></trkpt><trkpt lat="44.93413182300464" lon="8.606719481249028"><ele>88.5</ele><time>2026-04-09T07:54:00Z</time></trkpt><trkpt lat="44.934208433748076" lon="8.607036408305168"><ele>89.0</ele><time>2026-04-09T07:54:01Z</time></trkpt><trkpt lat="44.934286409778736" lon="8.607354769836597"><ele>89.5</ele><time>2026-04-09T07:54:02Z</time></trkpt><trkpt lat="44.934361925126765" lon="8.607676294225616"><ele>90.0</ele><time>2026-04-09T07:54:03Z</time></trkpt><trkpt lat="44.93443164663824" lon="8.607998691439999"><ele>89.0</ele><time>2026-04-09T07:54:04Z</time></trkpt><trkpt lat="44.934498948961185" lon="8.608324797335793"><ele>88.0</ele><time>2026-04-09T07:54:05Z</time></trkpt><trkpt lat="44.93455754341704" lon="8.608660328485339"><ele>88.0</ele><time>2026-04-09T07:54:06Z</time></trkpt><trkpt lat="44.93460512664268" lon="8.608992943257746"><ele>88.0</ele><time>2026-04-09T07:54:07Z</time></trkpt><trkpt lat="44.93464911584562" lon="8.609324768016458"><ele>88.5</ele><time>2026-04-09T07:54:08Z</time></trkpt><trkpt lat="44.9346840961735" lon="8.609670209591867"><ele>89.0</ele><time>2026-04-09T07:54:09Z</time></trkpt><trkpt lat="44.934713676957585" lon="8.610003302875967"><ele>90.5</ele><time>2026-04-09T07:54:10Z</time></trkpt><trkpt lat="44.93473738264936" lon="8.610345302925271"><ele>92.0</ele><time>2026-04-09T07:54:11Z</time></trkpt><trkpt lat="44.93475818140698" lon="8.610686978293437"><ele>92.0</ele><time>2026-04-09T07:54:12Z</time></trkpt><trkpt lat="44.93478081001757" lon="8.61103000684792"><ele>92.0</ele><time>2026-04-09T07:54:13Z</time></trkpt><trkpt lat="44.93480419857821" lon="8.611371478604067"><ele>92.0</ele><time>2026-04-09T07:54:14Z</time></trkpt><trkpt lat="44.93482927036905" lon="8.611714998817042"><ele>92.0</ele><time>2026-04-09T07:54:15Z</time></trkpt><trkpt lat="44.93485321839944" lon="8.612059714084701"><ele>92.0</ele><time>2026-04-09T07:54:16Z</time></trkpt><trkpt lat="44.93487576532059" lon="8.6124112479382"><ele>92.0</ele><time>2026-04-09T07:54:17Z</time></trkpt><trkpt lat="44.93489773644954" lon="8.612761446312831"><ele>90.5</ele><time>2026-04-09T07:54:18Z</time></trkpt><trkpt lat="44.93491362045433" lon="8.613116258275596"><ele>89.0</ele><time>2026-04-09T07:54:18.999Z</time></trkpt><trkpt lat="44.93492960314617" lon="8.61347041970691"><ele>88.5</ele><time>2026-04-09T07:54:19.999Z</time></trkpt><trkpt lat="44.934946927423375" lon="8.61382199750948"><ele>88.0</ele><time>2026-04-09T07:54:20.999Z</time></trkpt><trkpt lat="44.93495747782525" lon="8.614181005641154"><ele>88.0</ele><time>2026-04-09T07:54:21.999Z</time></trkpt><trkpt lat="44.934967544210714" lon="8.614530342382666"><ele>88.0</ele><time>2026-04-09T07:54:22.999Z</time></trkpt><trkpt lat="44.93497163279122" lon="8.614888476344749"><ele>88.0</ele><time>2026-04-09T07:54:23.999Z</time></trkpt><trkpt lat="44.93497547173877" lon="8.615247417766362"><ele>88.0</ele><time>2026-04-09T07:54:24.999Z</time></trkpt><trkpt lat="44.934980956137174" lon="8.615607483649827"><ele>88.5</ele><time>2026-04-09T07:54:25.999Z</time></trkpt><trkpt lat="44.93498110783425" lon="8.615965499716298"><ele>89.0</ele><time>2026-04-09T07:54:26.999Z</time></trkpt><trkpt lat="44.934976053699515" lon="8.616322530913575"><ele>89.5</ele><time>2026-04-09T07:54:27.999Z</time></trkpt><trkpt lat="44.93496485698233" lon="8.616683643458265"><ele>90.0</ele><time>2026-04-09T07:54:28.999Z</time></trkpt><trkpt lat="44.93494774365732" lon="8.617040758305311"><ele>89.0</ele><time>2026-04-09T07:54:29.999Z</time></trkpt><trkpt lat="44.93493150830231" lon="8.617401224482409"><ele>88.0</ele><time>2026-04-09T07:54:31Z</time></trkpt><trkpt lat="44.93491645046948" lon="8.617762767105551"><ele>86.5</ele><time>2026-04-09T07:54:32Z</time></trkpt><trkpt lat="44.934903717639244" lon="8.618117904806681"><ele>85.0</ele><time>2026-04-09T07:54:33Z</time></trkpt><trkpt lat="44.93488539771349" lon="8.61847796837297"><ele>84.5</ele><time>2026-04-09T07:54:34Z</time></trkpt><trkpt lat="44.93485841504116" lon="8.618833995905641"><ele>84.0</ele><time>2026-04-09T07:54:35Z</time></trkpt><trkpt lat="44.93482700500173" lon="8.61919062978838"><ele>82.5</ele><time>2026-04-09T07:54:36Z</time></trkpt><trkpt lat="44.93479858650737" lon="8.619538187951367"><ele>81.0</ele><time>2026-04-09T07:54:37Z</time></trkpt><trkpt lat="44.93477006944339" lon="8.619891518172679"><ele>81.0</ele><time>2026-04-09T07:54:38Z</time></trkpt><trkpt lat="44.934734121557675" lon="8.620233620353153"><ele>81.0</ele><time>2026-04-09T07:54:39Z</time></trkpt><trkpt lat="44.93469199097951" lon="8.620580760577418"><ele>83.0</ele><time>2026-04-09T07:54:40Z</time></trkpt><trkpt lat="44.934647307848756" lon="8.62092253982614"><ele>85.0</ele><time>2026-04-09T07:54:41Z</time></trkpt><trkpt lat="44.93460228181902" lon="8.62126227918604"><ele>86.5</ele><time>2026-04-09T07:54:42Z</time></trkpt><trkpt lat="44.93456174032467" lon="8.621609233191448"><ele>88.0</ele><time>2026-04-09T07:54:43Z</time></trkpt><trkpt lat="44.934515526078016" lon="8.621952276430942"><ele>88.5</ele><time>2026-04-09T07:54:44Z</time></trkpt><trkpt lat="44.93446746887087" lon="8.622296189461974"><ele>89.0</ele><time>2026-04-09T07:54:45Z</time></trkpt><trkpt lat="44.934413304450615" lon="8.62263809828445"><ele>90.5</ele><time>2026-04-09T07:54:46Z</time></trkpt><trkpt lat="44.93435232502167" lon="8.622981419209633"><ele>92.0</ele><time>2026-04-09T07:54:47Z</time></trkpt><trkpt lat="44.93429631698748" lon="8.623327057029309"><ele>92.5</ele><time>2026-04-09T07:54:48Z</time></trkpt><trkpt lat="44.934244310820496" lon="8.623673875691223"><ele>93.0</ele><time>2026-04-09T07:54:49Z</time></trkpt><trkpt lat="44.93418938942035" lon="8.62402574625264"><ele>92.0</ele><time>2026-04-09T07:54:50Z</time></trkpt><trkpt lat="44.934128302046275" lon="8.624372570681299"><ele>91.0</ele><time>2026-04-09T07:54:51Z</time></trkpt><trkpt lat="44.934060380334664" lon="8.62471854803729"><ele>90.5</ele><time>2026-04-09T07:54:52Z</time></trkpt><trkpt lat="44.93399156469793" lon="8.625061931926615"><ele>90.0</ele><time>2026-04-09T07:54:53Z</time></trkpt><trkpt lat="44.93392466627322" lon="8.625413577045432"><ele>90.66666666666667</ele><time>2026-04-09T07:54:54Z</time></trkpt><trkpt lat="44.93387729555206" lon="8.625709861826937"><ele>91.33333333333334</ele><time>2026-04-09T07:54:55Z</time></trkpt><trkpt lat="44.933826769938946" lon="8.626021085040534"><ele>92.0</ele><time>2026-04-09T07:54:56Z</time></trkpt><trkpt lat="44.933770426251236" lon="8.626335171181452"><ele>91.0</ele><time>2026-04-09T07:54:57Z</time></trkpt><trkpt lat="44.93371812157465" lon="8.626648492636333"><ele>90.0</ele><time>2026-04-09T07:54:58Z</time></trkpt><trkpt lat="44.93366362778834" lon="8.626950735738149"><ele>89.0</ele><time>2026-04-09T07:54:59Z</time></trkpt><trkpt lat="44.9336084534095" lon="8.62725151084793"><ele>89.0</ele><time>2026-04-09T07:55:00Z</time></trkpt><trkpt lat="44.93355418204367" lon="8.627552080085199"><ele>89.0</ele><time>2026-04-09T07:55:01Z</time></trkpt><trkpt lat="44.93349791603894" lon="8.627850953772723"><ele>89.0</ele><time>2026-04-09T07:55:02Z</time></trkpt><trkpt lat="44.93344638790813" lon="8.628132598385726"><ele>89.0</ele><time>2026-04-09T07:55:03Z</time></trkpt><trkpt lat="44.93339696270556" lon="8.62841369035231"><ele>89.0</ele><time>2026-04-09T07:55:04Z</time></trkpt><trkpt lat="44.93334610820401" lon="8.628703013645335"><ele>89.0</ele><time>2026-04-09T07:55:05Z</time></trkpt><trkpt lat="44.93329609762564" lon="8.628985345461313"><ele>88.33333333333334</ele><time>2026-04-09T07:55:06Z</time></trkpt><trkpt lat="44.93324441703099" lon="8.629261232669707"><ele>87.66666666666667</ele><time>2026-04-09T07:55:07Z</time></trkpt><trkpt lat="44.93319315557159" lon="8.629536915981545"><ele>87.0</ele><time>2026-04-09T07:55:08Z</time></trkpt><trkpt lat="44.93314259235713" lon="8.629812176472786"><ele>87.0</ele><time>2026-04-09T07:55:09Z</time></trkpt><trkpt lat="44.93309449825429" lon="8.630088666762077"><ele>87.0</ele><time>2026-04-09T07:55:10Z</time></trkpt><trkpt lat="44.933053302443206" lon="8.630369196613682"><ele>87.0</ele><time>2026-04-09T07:55:11Z</time></trkpt><trkpt lat="44.93300740388073" lon="8.630657314331701"><ele>87.0</ele><time>2026-04-09T07:55:12Z</time></trkpt><trkpt lat="44.93295968236621" lon="8.630939494089773"><ele>87.0</ele><time>2026-04-09T07:55:13Z</time></trkpt><trkpt lat="44.93290865845408" lon="8.63122016347809"><ele>87.0</ele><time>2026-04-09T07:55:14Z</time></trkpt><trkpt lat="44.93285391419764" lon="8.631500146853488"><ele>87.0</ele><time>2026-04-09T07:55:15Z</time></trkpt><trkpt lat="44.932807007781534" lon="8.63178646793442"><ele>87.0</ele><time>2026-04-09T07:55:16Z</time></trkpt><trkpt lat="44.93275429237036" lon="8.632069409102293"><ele>87.0</ele><time>2026-04-09T07:55:17Z</time></trkpt><trkpt lat="44.932696778091056" lon="8.632348273312726"><ele>87.0</ele><time>2026-04-09T07:55:18Z</time></trkpt><trkpt lat="44.93263822665635" lon="8.632629381663193"><ele>87.0</ele><time>2026-04-09T07:55:19Z</time></trkpt><trkpt lat="44.93257142221621" lon="8.632910263866332"><ele>87.0</ele><time>2026-04-09T07:55:20Z</time></trkpt><trkpt lat="44.93250994619856" lon="8.633191513859497"><ele>87.0</ele><time>2026-04-09T07:55:21Z</time></trkpt><trkpt lat="44.9324468354192" lon="8.633474091261144"><ele>87.0</ele><time>2026-04-09T07:55:22Z</time></trkpt><trkpt lat="44.932380885087" lon="8.633764492421621"><ele>87.0</ele><time>2026-04-09T07:55:23Z</time></trkpt><trkpt lat="44.93230497537947" lon="8.634039228805491"><ele>87.0</ele><time>2026-04-09T07:55:24Z</time></trkpt><trkpt lat="44.93222051456136" lon="8.634309037994228"><ele>87.0</ele><time>2026-04-09T07:55:25Z</time></trkpt><trkpt lat="44.93212588167726" lon="8.634577806486902"><ele>87.0</ele><time>2026-04-09T07:55:26Z</time></trkpt><trkpt lat="44.93202699872041" lon="8.634843559467441"><ele>86.66666666666667</ele><time>2026-04-09T07:55:27Z</time></trkpt><trkpt lat="44.93192088363226" lon="8.635102242868669"><ele>86.33333333333334</ele><time>2026-04-09T07:55:28Z</time></trkpt><trkpt lat="44.931797779208615" lon="8.635345619638173"><ele>86.0</ele><time>2026-04-09T07:55:29Z</time></trkpt><trkpt lat="44.93166437166816" lon="8.635577339916658"><ele>85.66666666666667</ele><time>2026-04-09T07:55:30Z</time></trkpt><trkpt lat="44.931521705136625" lon="8.635800502671763"><ele>85.33333333333333</ele><time>2026-04-09T07:55:31Z</time></trkpt><trkpt lat="44.931372496352054" lon="8.636010874349275"><ele>85.0</ele><time>2026-04-09T07:55:32Z</time></trkpt><trkpt lat="44.931209440400025" lon="8.636211485828218"><ele>85.0</ele><time>2026-04-09T07:55:33Z</time></trkpt><trkpt lat="44.931046533574694" lon="8.636400652251801"><ele>85.0</ele><time>2026-04-09T07:55:34Z</time></trkpt><trkpt lat="44.9308721941043" lon="8.636580137335054"><ele>85.0</ele><time>2026-04-09T07:55:35Z</time></trkpt><trkpt lat="44.930694074191436" lon="8.636738491679868"><ele>85.0</ele><time>2026-04-09T07:55:36Z</time></trkpt><trkpt lat="44.93050744701133" lon="8.636887070399574"><ele>85.0</ele><time>2026-04-09T07:55:37Z</time></trkpt><trkpt lat="44.930315757476684" lon="8.637021238766566"><ele>85.0</ele><time>2026-04-09T07:55:38Z</time></trkpt><trkpt lat="44.93011802741959" lon="8.637143697177445"><ele>85.0</ele><time>2026-04-09T07:55:39Z</time></trkpt><trkpt lat="44.92991677946932" lon="8.63724956065164"><ele>85.0</ele><time>2026-04-09T07:55:40Z</time></trkpt><trkpt lat="44.929712302975496" lon="8.637333200623745"><ele>85.0</ele><time>2026-04-09T07:55:41Z</time></trkpt><trkpt lat="44.92950333640983" lon="8.637397514512402"><ele>85.0</ele><time>2026-04-09T07:55:42Z</time></trkpt><trkpt lat="44.92929301022602" lon="8.637446725582869"><ele>85.0</ele><time>2026-04-09T07:55:43Z</time></trkpt><trkpt lat="44.929079776667535" lon="8.637488160371067"><ele>85.0</ele><time>2026-04-09T07:55:44Z</time></trkpt><trkpt lat="44.928867633458054" lon="8.63751965075868"><ele>85.33333333333333</ele><time>2026-04-09T07:55:45Z</time></trkpt><trkpt lat="44.92864909938082" lon="8.63754285071861"><ele>85.66666666666667</ele><time>2026-04-09T07:55:46Z</time></trkpt><trkpt lat="44.92843529168306" lon="8.637558614056132"><ele>86.0</ele><time>2026-04-09T07:55:47Z</time></trkpt><trkpt lat="44.92821752143196" lon="8.63756413135068"><ele>86.0</ele><time>2026-04-09T07:55:48Z</time></trkpt><trkpt lat="44.92800105480809" lon="8.637565888909139"><ele>86.0</ele><time>2026-04-09T07:55:49Z</time></trkpt><trkpt lat="44.92777908746383" lon="8.637568806167014"><ele>86.0</ele><time>2026-04-09T07:55:50Z</time></trkpt><trkpt lat="44.92755685946967" lon="8.637565066909673"><ele>86.0</ele><time>2026-04-09T07:55:51Z</time></trkpt><trkpt lat="44.92733722223798" lon="8.637564151083687"><ele>86.0</ele><time>2026-04-09T07:55:52Z</time></trkpt><trkpt lat="44.92711296878715" lon="8.637560331464734"><ele>86.0</ele><time>2026-04-09T07:55:53Z</time></trkpt><trkpt lat="44.926888733910154" lon="8.63755633462236"><ele>86.5</ele><time>2026-04-09T07:55:54Z</time></trkpt><trkpt lat="44.92666461049821" lon="8.637553321515618"><ele>87.0</ele><time>2026-04-09T07:55:55Z</time></trkpt><trkpt lat="44.92643868869849" lon="8.637551780220988"><ele>87.0</ele><time>2026-04-09T07:55:56Z</time></trkpt><trkpt lat="44.926207593822845" lon="8.637549968633117"><ele>87.0</ele><time>2026-04-09T07:55:57Z</time></trkpt><trkpt lat="44.925982726929256" lon="8.63754745441084"><ele>86.5</ele><time>2026-04-09T07:55:58Z</time></trkpt><trkpt lat="44.92575655819662" lon="8.637546318379167"><ele>86.0</ele><time>2026-04-09T07:55:59Z</time></trkpt><trkpt lat="44.92552740562277" lon="8.637545024703616"><ele>86.0</ele><time>2026-04-09T07:56:00Z</time></trkpt><trkpt lat="44.92529874188186" lon="8.637540136043004"><ele>86.0</ele><time>2026-04-09T07:56:01Z</time></trkpt><trkpt lat="44.92506924518727" lon="8.637534949599345"><ele>85.0</ele><time>2026-04-09T07:56:02Z</time></trkpt><trkpt lat="44.924837603897544" lon="8.637529414580513"><ele>84.0</ele><time>2026-04-09T07:56:03Z</time></trkpt><trkpt lat="44.92460681218245" lon="8.637525572252274"><ele>84.0</ele><time>2026-04-09T07:56:04Z</time></trkpt><trkpt lat="44.92437527973341" lon="8.637523418209405"><ele>84.0</ele><time>2026-04-09T07:56:05Z</time></trkpt><trkpt lat="44.924142981476024" lon="8.637523008520985"><ele>86.0</ele><time>2026-04-09T07:56:06Z</time></trkpt><trkpt lat="44.92391112261165" lon="8.637523033055253"><ele>88.0</ele><time>2026-04-09T07:56:07Z</time></trkpt><trkpt lat="44.92367931661895" lon="8.637523266274526"><ele>88.0</ele><time>2026-04-09T07:56:08Z</time></trkpt><trkpt lat="44.92344866337196" lon="8.637521651301547"><ele>88.0</ele><time>2026-04-09T07:56:09Z</time></trkpt><trkpt lat="44.92321780494553" lon="8.63751692878396"><ele>88.0</ele><time>2026-04-09T07:56:10Z</time></trkpt><trkpt lat="44.92298751511001" lon="8.637513094513853"><ele>88.0</ele><time>2026-04-09T07:56:11Z</time></trkpt><trkpt lat="44.922756817317094" lon="8.637508829566661"><ele>88.0</ele><time>2026-04-09T07:56:12Z</time></trkpt><trkpt lat="44.9225261020689" lon="8.637507015450048"><ele>88.0</ele><time>2026-04-09T07:56:13Z</time></trkpt><trkpt lat="44.9222947862752" lon="8.637506298672598"><ele>88.0</ele><time>2026-04-09T07:56:14Z</time></trkpt><trkpt lat="44.92206546041576" lon="8.63750696829126"><ele>88.0</ele><time>2026-04-09T07:56:15Z</time></trkpt><trkpt lat="44.92183552694794" lon="8.637504172191536"><ele>87.5</ele><time>2026-04-09T07:56:16Z</time></trkpt><trkpt lat="44.921607341582664" lon="8.637499440280658"><ele>87.0</ele><time>2026-04-09T07:56:17Z</time></trkpt><trkpt lat="44.92137822598938" lon="8.63749655508965"><ele>87.0</ele><time>2026-04-09T07:56:18Z</time></trkpt><trkpt lat="44.92114962202832" lon="8.637495324674456"><ele>87.0</ele><time>2026-04-09T07:56:19Z</time></trkpt><trkpt lat="44.92092074375451" lon="8.637494508555285"><ele>87.0</ele><time>2026-04-09T07:56:20Z</time></trkpt><trkpt lat="44.92069287447092" lon="8.63749212834691"><ele>87.0</ele><time>2026-04-09T07:56:21Z</time></trkpt><trkpt lat="44.92046511509399" lon="8.637490828673876"><ele>87.0</ele><time>2026-04-09T07:56:22Z</time></trkpt><trkpt lat="44.920238460759755" lon="8.637488569319192"><ele>87.0</ele><time>2026-04-09T07:56:23Z</time></trkpt><trkpt lat="44.920010798982545" lon="8.637485789988189"><ele>86.0</ele><time>2026-04-09T07:56:24Z</time></trkpt><trkpt lat="44.91978460084006" lon="8.6374872175029"><ele>85.0</ele><time>2026-04-09T07:56:25Z</time></trkpt><trkpt lat="44.919559969147876" lon="8.63749713520207"><ele>85.0</ele><time>2026-04-09T07:56:26Z</time></trkpt><trkpt lat="44.91933940398208" lon="8.637513434916038"><ele>85.0</ele><time>2026-04-09T07:56:27Z</time></trkpt><trkpt lat="44.91911640472995" lon="8.63753805118669"><ele>85.0</ele><time>2026-04-09T07:56:28Z</time></trkpt><trkpt lat="44.918894080454514" lon="8.6375742189115"><ele>85.66666666666666</ele><time>2026-04-09T07:56:29Z</time></trkpt><trkpt lat="44.91867220415646" lon="8.637622279270332"><ele>86.33333333333333</ele><time>2026-04-09T07:56:30Z</time></trkpt><trkpt lat="44.91845117765485" lon="8.637681482387265"><ele>87.0</ele><time>2026-04-09T07:56:31Z</time></trkpt><trkpt lat="44.91823314080965" lon="8.637753142443854"><ele>87.66666666666667</ele><time>2026-04-09T07:56:31.999Z</time></trkpt><trkpt lat="44.91801564894118" lon="8.637835221279902"><ele>88.33333333333334</ele><time>2026-04-09T07:56:32.999Z</time></trkpt><trkpt lat="44.917800467920614" lon="8.637924345035227"><ele>89.0</ele><time>2026-04-09T07:56:33.999Z</time></trkpt><trkpt lat="44.91758904402527" lon="8.638029835942023"><ele>89.0</ele><time>2026-04-09T07:56:34.999Z</time></trkpt><trkpt lat="44.91737964972671" lon="8.638146605888018"><ele>89.0</ele><time>2026-04-09T07:56:35.999Z</time></trkpt><trkpt lat="44.91717245547572" lon="8.638273825716354"><ele>89.0</ele><time>2026-04-09T07:56:37Z</time></trkpt><trkpt lat="44.91697205473103" lon="8.638413128408075"><ele>89.0</ele><time>2026-04-09T07:56:38Z</time></trkpt><trkpt lat="44.91677681933283" lon="8.638566199010391"><ele>89.0</ele><time>2026-04-09T07:56:39Z</time></trkpt><trkpt lat="44.916585979609025" lon="8.638729231037846"><ele>88.66666666666667</ele><time>2026-04-09T07:56:40Z</time></trkpt><trkpt lat="44.916399410023686" lon="8.638903790245811"><ele>88.33333333333333</ele><time>2026-04-09T07:56:41Z</time></trkpt><trkpt lat="44.91621823170885" lon="8.639087090997657"><ele>88.0</ele><time>2026-04-09T07:56:42Z</time></trkpt><trkpt lat="44.91603731423099" lon="8.639274101170036"><ele>88.0</ele><time>2026-04-09T07:56:43Z</time></trkpt><trkpt lat="44.91585387095124" lon="8.63946161275268"><ele>88.0</ele><time>2026-04-09T07:56:44Z</time></trkpt><trkpt lat="44.9156752337701" lon="8.639647265093249"><ele>88.0</ele><time>2026-04-09T07:56:45Z</time></trkpt><trkpt lat="44.915492004810304" lon="8.639836537101923"><ele>88.0</ele><time>2026-04-09T07:56:46Z</time></trkpt><trkpt lat="44.91530879880921" lon="8.640027257536104"><ele>88.0</ele><time>2026-04-09T07:56:47Z</time></trkpt><trkpt lat="44.91512460932997" lon="8.64021722199738"><ele>88.0</ele><time>2026-04-09T07:56:48Z</time></trkpt><trkpt lat="44.914937736458896" lon="8.640406264552142"><ele>88.0</ele><time>2026-04-09T07:56:49Z</time></trkpt><trkpt lat="44.914750435089644" lon="8.640594032578337"><ele>88.0</ele><time>2026-04-09T07:56:50Z</time></trkpt><trkpt lat="44.914562169125404" lon="8.640779483641245"><ele>88.0</ele><time>2026-04-09T07:56:51Z</time></trkpt><trkpt lat="44.91436932162203" lon="8.640961026494379"><ele>89.5</ele><time>2026-04-09T07:56:52Z</time></trkpt><trkpt lat="44.91417093230583" lon="8.641133926791154"><ele>91.0</ele><time>2026-04-09T07:56:53Z</time></trkpt><trkpt lat="44.91396756990383" lon="8.641296724278128"><ele>91.0</ele><time>2026-04-09T07:56:54Z</time></trkpt><trkpt lat="44.91375967999408" lon="8.641450268325757"><ele>91.0</ele><time>2026-04-09T07:56:55Z</time></trkpt><trkpt lat="44.913549347286434" lon="8.64159563224826"><ele>91.0</ele><time>2026-04-09T07:56:56Z</time></trkpt><trkpt lat="44.91333737132805" lon="8.641728051624577"><ele>91.0</ele><time>2026-04-09T07:56:57Z</time></trkpt><trkpt lat="44.91312470298269" lon="8.641842074809365"><ele>91.0</ele><time>2026-04-09T07:56:58Z</time></trkpt><trkpt lat="44.91290847375037" lon="8.641945461193265"><ele>91.0</ele><time>2026-04-09T07:56:59Z</time></trkpt><trkpt lat="44.912689569621975" lon="8.642036385122132"><ele>91.5</ele><time>2026-04-09T07:57:00Z</time></trkpt><trkpt lat="44.91246888717699" lon="8.642115900086761"><ele>92.0</ele><time>2026-04-09T07:57:01Z</time></trkpt><trkpt lat="44.91224594384148" lon="8.642182135880246"><ele>92.0</ele><time>2026-04-09T07:57:02Z</time></trkpt><trkpt lat="44.91202064826309" lon="8.64222000221202"><ele>92.0</ele><time>2026-04-09T07:57:03Z</time></trkpt><trkpt lat="44.911801212219345" lon="8.642252054069939"><ele>92.0</ele><time>2026-04-09T07:57:04Z</time></trkpt><trkpt lat="44.91157780499977" lon="8.642275859142467"><ele>91.0</ele><time>2026-04-09T07:57:05Z</time></trkpt><trkpt lat="44.911357030549176" lon="8.642289315681984"><ele>90.0</ele><time>2026-04-09T07:57:06Z</time></trkpt><trkpt lat="44.91113877595243" lon="8.642288208408733"><ele>89.0</ele><time>2026-04-09T07:57:07Z</time></trkpt><trkpt lat="44.91091886221347" lon="8.642272871940689"><ele>88.66666666666667</ele><time>2026-04-09T07:57:08Z</time></trkpt><trkpt lat="44.910703497095184" lon="8.64224936078177"><ele>88.33333333333333</ele><time>2026-04-09T07:57:09Z</time></trkpt><trkpt lat="44.910492877996354" lon="8.642221884917516"><ele>88.0</ele><time>2026-04-09T07:57:10Z</time></trkpt><trkpt lat="44.91028519217419" lon="8.642179569934259"><ele>88.0</ele><time>2026-04-09T07:57:11Z</time></trkpt><trkpt lat="44.910082972576305" lon="8.642122198098612"><ele>88.0</ele><time>2026-04-09T07:57:12Z</time></trkpt><trkpt lat="44.90988592180754" lon="8.642054547717178"><ele>88.0</ele><time>2026-04-09T07:57:13Z</time></trkpt><trkpt lat="44.90969290592122" lon="8.641984060066294"><ele>88.33333333333333</ele><time>2026-04-09T07:57:14Z</time></trkpt><trkpt lat="44.90950163987581" lon="8.641911238398201"><ele>88.66666666666667</ele><time>2026-04-09T07:57:15Z</time></trkpt><trkpt lat="44.90931599199115" lon="8.64183165447161"><ele>89.0</ele><time>2026-04-09T07:57:16Z</time></trkpt><trkpt lat="44.90913013998817" lon="8.641745492606246"><ele>90.0</ele><time>2026-04-09T07:57:17Z</time></trkpt><trkpt lat="44.90894654418011" lon="8.64165282045336"><ele>91.0</ele><time>2026-04-09T07:57:18Z</time></trkpt><trkpt lat="44.908763921459276" lon="8.64155918177053"><ele>92.0</ele><time>2026-04-09T07:57:19Z</time></trkpt><trkpt lat="44.90858574191524" lon="8.641471667252626"><ele>92.33333333333334</ele><time>2026-04-09T07:57:20Z</time></trkpt><trkpt lat="44.90840710885401" lon="8.64137480929423"><ele>92.66666666666667</ele><time>2026-04-09T07:57:21Z</time></trkpt><trkpt lat="44.90822704101117" lon="8.641276246034781"><ele>93.0</ele><time>2026-04-09T07:57:22Z</time></trkpt><trkpt lat="44.90804396619521" lon="8.641177155406284"><ele>93.0</ele><time>2026-04-09T07:57:23Z</time></trkpt><trkpt lat="44.90785926263286" lon="8.641077351992237"><ele>93.0</ele><time>2026-04-09T07:57:24Z</time></trkpt><trkpt lat="44.907676265757196" lon="8.640968938514385"><ele>93.0</ele><time>2026-04-09T07:57:25Z</time></trkpt><trkpt lat="44.90748879157626" lon="8.640857805811233"><ele>93.0</ele><time>2026-04-09T07:57:26Z</time></trkpt><trkpt lat="44.907303069306415" lon="8.640741140870475"><ele>93.0</ele><time>2026-04-09T07:57:27Z</time></trkpt><trkpt lat="44.907118802381184" lon="8.640625435261688"><ele>93.0</ele><time>2026-04-09T07:57:28Z</time></trkpt><trkpt lat="44.90693372933703" lon="8.640509077279635"><ele>93.0</ele><time>2026-04-09T07:57:29Z</time></trkpt><trkpt lat="44.90676119699074" lon="8.64038984754544"><ele>93.0</ele><time>2026-04-09T07:57:30Z</time></trkpt><trkpt lat="44.9066004029559" lon="8.64027425636392"><ele>93.0</ele><time>2026-04-09T07:57:31Z</time></trkpt><trkpt lat="44.90645541061751" lon="8.640169595128166"><ele>93.25</ele><time>2026-04-09T07:57:32Z</time></trkpt><trkpt lat="44.90632993943613" lon="8.64008641488812"><ele>93.5</ele><time>2026-04-09T07:57:33Z</time></trkpt><trkpt lat="44.906213285179476" lon="8.640008639782023"><ele>93.75</ele><time>2026-04-09T07:57:34Z</time></trkpt><trkpt lat="44.90611865152589" lon="8.639947009376852"><ele>94.0</ele><time>2026-04-09T07:57:35Z</time></trkpt><trkpt lat="44.90604252847115" lon="8.639890204068278"><ele>94.0</ele><time>2026-04-09T07:57:36Z</time></trkpt><trkpt lat="44.905980077789415" lon="8.639822060143608"><ele>94.0</ele><time>2026-04-09T07:57:37Z</time></trkpt><trkpt lat="44.90593397756358" lon="8.639726147258168"><ele>94.0</ele><time>2026-04-09T07:57:38Z</time></trkpt><trkpt lat="44.90586976491726" lon="8.63972023683027"><ele>94.0</ele><time>2026-04-09T07:57:39Z</time></trkpt><trkpt lat="44.90596384601664" lon="8.63944131932315"><ele>94.0</ele><time>2026-04-09T07:57:40Z</time></trkpt><trkpt lat="44.90597732306987" lon="8.63928463143824"><ele>93.25</ele><time>2026-04-09T07:57:41Z</time></trkpt><trkpt lat="44.90602094309293" lon="8.639126702029083"><ele>92.5</ele><time>2026-04-09T07:57:42Z</time></trkpt><trkpt lat="44.906095130771455" lon="8.638997224599347"><ele>91.75</ele><time>2026-04-09T07:57:43Z</time></trkpt><trkpt lat="44.90618503982232" lon="8.638855602298282"><ele>91.0</ele><time>2026-04-09T07:57:44Z</time></trkpt><trkpt lat="44.906289865752804" lon="8.63870607995138"><ele>90.75</ele><time>2026-04-09T07:57:45Z</time></trkpt><trkpt lat="44.90639363622957" lon="8.638558063127334"><ele>90.5</ele><time>2026-04-09T07:57:46Z</time></trkpt><trkpt lat="44.9064922062325" lon="8.63841533236563"><ele>90.25</ele><time>2026-04-09T07:57:47Z</time></trkpt><trkpt lat="44.90659545285975" lon="8.638268472549754"><ele>90.0</ele><time>2026-04-09T07:57:48Z</time></trkpt><trkpt lat="44.90669499213087" lon="8.638139662258817"><ele>89.75</ele><time>2026-04-09T07:57:49Z</time></trkpt><trkpt lat="44.906809545966304" lon="8.638015324065702"><ele>89.5</ele><time>2026-04-09T07:57:50Z</time></trkpt><trkpt lat="44.90693632307758" lon="8.637905394910705"><ele>89.25</ele><time>2026-04-09T07:57:51Z</time></trkpt><trkpt lat="44.907071470683505" lon="8.637802976328897"><ele>89.0</ele><time>2026-04-09T07:57:52Z</time></trkpt><trkpt lat="44.90720988265737" lon="8.637717623818011"><ele>89.0</ele><time>2026-04-09T07:57:53Z</time></trkpt><trkpt lat="44.90735033504076" lon="8.637654858064456"><ele>89.0</ele><time>2026-04-09T07:57:54Z</time></trkpt><trkpt lat="44.90748877005984" lon="8.63761081778147"><ele>89.0</ele><time>2026-04-09T07:57:55Z</time></trkpt><trkpt lat="44.90762597127412" lon="8.63757874442754"><ele>89.0</ele><time>2026-04-09T07:57:56Z</time></trkpt><trkpt lat="44.90775727661364" lon="8.637559492007183"><ele>89.0</ele><time>2026-04-09T07:57:57Z</time></trkpt><trkpt lat="44.907871234732156" lon="8.637560124986608"><ele>89.0</ele><time>2026-04-09T07:57:58Z</time></trkpt><trkpt lat="44.90795750090823" lon="8.637568656735468"><ele>89.0</ele><time>2026-04-09T07:57:59Z</time></trkpt><trkpt lat="44.90802989536017" lon="8.637559742353899"><ele>89.0</ele><time>2026-04-09T07:58:00Z</time></trkpt><trkpt lat="44.90809260117633" lon="8.637575171964231"><ele>89.0</ele><time>2026-04-09T07:58:01Z</time></trkpt><trkpt lat="44.9081897731991" lon="8.63761194580669"><ele>89.0</ele><time>2026-04-09T07:58:03Z</time></trkpt><trkpt lat="44.90824912261284" lon="8.63765193271099"><ele>89.0</ele><time>2026-04-09T07:58:06Z</time></trkpt><trkpt lat="44.90831334144261" lon="8.637717817319393"><ele>89.0</ele><time>2026-04-09T07:58:12Z</time></trkpt><trkpt lat="44.908367219845104" lon="8.6378007215451"><ele>89.0</ele><time>2026-04-09T07:58:18Z</time></trkpt><trkpt lat="44.90840681117518" lon="8.637890078906096"><ele>89.0</ele><time>2026-04-09T07:58:19Z</time></trkpt><trkpt lat="44.90845534196341" lon="8.63800456243718"><ele>89.0</ele><time>2026-04-09T07:58:20Z</time></trkpt><trkpt lat="44.908503256672404" lon="8.638127148122182"><ele>89.0</ele><time>2026-04-09T07:58:21Z</time></trkpt><trkpt lat="44.908558118630296" lon="8.638238066338987"><ele>89.75</ele><time>2026-04-09T07:58:22Z</time></trkpt><trkpt lat="44.908553989112065" lon="8.638416933834991"><ele>90.5</ele><time>2026-04-09T07:58:23Z</time></trkpt><trkpt lat="44.908528777277965" lon="8.638585640506458"><ele>91.25</ele><time>2026-04-09T07:58:24Z</time></trkpt><trkpt lat="44.9084760397941" lon="8.638749146467859"><ele>92.0</ele><time>2026-04-09T07:58:25Z</time></trkpt><trkpt lat="44.90840956196091" lon="8.63890148749827"><ele>92.25</ele><time>2026-04-09T07:58:26Z</time></trkpt><trkpt lat="44.90834358406807" lon="8.63904505210891"><ele>92.5</ele><time>2026-04-09T07:58:27Z</time></trkpt><trkpt lat="44.90827616079281" lon="8.639186324957922"><ele>92.75</ele><time>2026-04-09T07:58:28Z</time></trkpt><trkpt lat="44.90821263639117" lon="8.63933282004367"><ele>93.0</ele><time>2026-04-09T07:58:29Z</time></trkpt><trkpt lat="44.908145038494354" lon="8.639484184323072"><ele>93.25</ele><time>2026-04-09T07:58:30Z</time></trkpt><trkpt lat="44.9080760745413" lon="8.639636012117279"><ele>93.5</ele><time>2026-04-09T07:58:31Z</time></trkpt><trkpt lat="44.9080006536735" lon="8.639802321508204"><ele>93.75</ele><time>2026-04-09T07:58:32Z</time></trkpt><trkpt lat="44.90792263752681" lon="8.639972122022185"><ele>94.0</ele><time>2026-04-09T07:58:33Z</time></trkpt><trkpt lat="44.9078458021012" lon="8.640146707040978"><ele>93.33333333333333</ele><time>2026-04-09T07:58:34Z</time></trkpt><trkpt lat="44.90776437783336" lon="8.640323699265801"><ele>92.66666666666667</ele><time>2026-04-09T07:58:35Z</time></trkpt><trkpt lat="44.907682845191005" lon="8.640514353589447"><ele>92.0</ele><time>2026-04-09T07:58:36Z</time></trkpt><trkpt lat="44.907599185973766" lon="8.640693343277942"><ele>92.33333333333334</ele><time>2026-04-09T07:58:37Z</time></trkpt><trkpt lat="44.90751708788056" lon="8.64086904525239"><ele>92.66666666666667</ele><time>2026-04-09T07:58:38Z</time></trkpt><trkpt lat="44.9074328655697" lon="8.641040908140148"><ele>93.0</ele><time>2026-04-09T07:58:39Z</time></trkpt><trkpt lat="44.90734525075772" lon="8.6412201179033"><ele>92.25</ele><time>2026-04-09T07:58:40Z</time></trkpt><trkpt lat="44.90727245408758" lon="8.641401012850618"><ele>91.5</ele><time>2026-04-09T07:58:41Z</time></trkpt><trkpt lat="44.90719771547689" lon="8.641577403050412"><ele>90.75</ele><time>2026-04-09T07:58:42Z</time></trkpt><trkpt lat="44.90712468986172" lon="8.64174805335872"><ele>90.0</ele><time>2026-04-09T07:58:43Z</time></trkpt><trkpt lat="44.9070482899423" lon="8.641923260873991"><ele>90.0</ele><time>2026-04-09T07:58:44Z</time></trkpt><trkpt lat="44.90696398830486" lon="8.642103036705436"><ele>90.0</ele><time>2026-04-09T07:58:45Z</time></trkpt><trkpt lat="44.90687496449033" lon="8.642290275897832"><ele>90.0</ele><time>2026-04-09T07:58:46Z</time></trkpt><trkpt lat="44.90678105295734" lon="8.642488292582454"><ele>90.33333333333333</ele><time>2026-04-09T07:58:47Z</time></trkpt><trkpt lat="44.906688809201746" lon="8.642698513522607"><ele>90.66666666666666</ele><time>2026-04-09T07:58:48Z</time></trkpt><trkpt lat="44.9065961472527" lon="8.642903853464697"><ele>91.0</ele><time>2026-04-09T07:58:49Z</time></trkpt><trkpt lat="44.90650688820692" lon="8.643098905642843"><ele>91.0</ele><time>2026-04-09T07:58:50Z</time></trkpt><trkpt lat="44.90641506448447" lon="8.643289399822162"><ele>91.0</ele><time>2026-04-09T07:58:51Z</time></trkpt><trkpt lat="44.906326453957504" lon="8.643479135019534"><ele>91.0</ele><time>2026-04-09T07:58:52Z</time></trkpt><trkpt lat="44.90623981188734" lon="8.643675079895141"><ele>90.66666666666666</ele><time>2026-04-09T07:58:53Z</time></trkpt><trkpt lat="44.90615232559277" lon="8.6438727376616"><ele>90.33333333333333</ele><time>2026-04-09T07:58:54Z</time></trkpt><trkpt lat="44.90606842758579" lon="8.644070334389491"><ele>90.0</ele><time>2026-04-09T07:58:55Z</time></trkpt><trkpt lat="44.90598583120158" lon="8.644271373436965"><ele>89.33333333333333</ele><time>2026-04-09T07:58:56Z</time></trkpt><trkpt lat="44.90589804908233" lon="8.644478158393103"><ele>88.66666666666666</ele><time>2026-04-09T07:58:57Z</time></trkpt><trkpt lat="44.90580723295645" lon="8.644689355511845"><ele>88.0</ele><time>2026-04-09T07:58:58Z</time></trkpt><trkpt lat="44.90571112434805" lon="8.644903357348305"><ele>88.0</ele><time>2026-04-09T07:58:59Z</time></trkpt><trkpt lat="44.90560817399647" lon="8.645104431181684"><ele>88.0</ele><time>2026-04-09T07:59:00Z</time></trkpt><trkpt lat="44.90550693464142" lon="8.645317082607937"><ele>88.0</ele><time>2026-04-09T07:59:01Z</time></trkpt><trkpt lat="44.90540883348333" lon="8.645532379020114"><ele>87.33333333333333</ele><time>2026-04-09T07:59:02Z</time></trkpt><trkpt lat="44.90531322558266" lon="8.645743982802387"><ele>86.66666666666667</ele><time>2026-04-09T07:59:03Z</time></trkpt><trkpt lat="44.905216121449236" lon="8.645957583743181"><ele>86.0</ele><time>2026-04-09T07:59:04Z</time></trkpt><trkpt lat="44.905115141623774" lon="8.646171014229749"><ele>87.66666666666667</ele><time>2026-04-09T07:59:05Z</time></trkpt><trkpt lat="44.90502176813844" lon="8.646383880847102"><ele>89.33333333333333</ele><time>2026-04-09T07:59:06Z</time></trkpt><trkpt lat="44.904920153874315" lon="8.646593544444936"><ele>91.0</ele><time>2026-04-09T07:59:07Z</time></trkpt><trkpt lat="44.90482844955044" lon="8.64681042277204"><ele>91.66666666666666</ele><time>2026-04-09T07:59:08Z</time></trkpt><trkpt lat="44.90473446404139" lon="8.647028279058382"><ele>92.33333333333333</ele><time>2026-04-09T07:59:09Z</time></trkpt><trkpt lat="44.90463666459051" lon="8.647258428439896"><ele>93.0</ele><time>2026-04-09T07:59:10Z</time></trkpt><trkpt lat="44.90453413006434" lon="8.647473550512991"><ele>93.0</ele><time>2026-04-09T07:59:11Z</time></trkpt><trkpt lat="44.90443291038461" lon="8.647699740057623"><ele>93.0</ele><time>2026-04-09T07:59:12Z</time></trkpt><trkpt lat="44.90433542006152" lon="8.647930702914383"><ele>93.0</ele><time>2026-04-09T07:59:13Z</time></trkpt><trkpt lat="44.904233702917665" lon="8.648163957235173"><ele>93.0</ele><time>2026-04-09T07:59:14Z</time></trkpt><trkpt lat="44.90413562379966" lon="8.64840204680518"><ele>93.0</ele><time>2026-04-09T07:59:15Z</time></trkpt><trkpt lat="44.90402760933158" lon="8.64863671482682"><ele>93.0</ele><time>2026-04-09T07:59:16Z</time></trkpt><trkpt lat="44.90392154035693" lon="8.648869627600462"><ele>93.0</ele><time>2026-04-09T07:59:17Z</time></trkpt><trkpt lat="44.903813992440654" lon="8.649103734612517"><ele>93.0</ele><time>2026-04-09T07:59:18Z</time></trkpt><trkpt lat="44.90370424285089" lon="8.64934032301991"><ele>93.0</ele><time>2026-04-09T07:59:19Z</time></trkpt><trkpt lat="44.9035952705429" lon="8.649576586344764"><ele>92.66666666666667</ele><time>2026-04-09T07:59:20Z</time></trkpt><trkpt lat="44.90348117646349" lon="8.649815013097975"><ele>92.33333333333334</ele><time>2026-04-09T07:59:21Z</time></trkpt><trkpt lat="44.9033717564279" lon="8.650056980629385"><ele>92.0</ele><time>2026-04-09T07:59:22Z</time></trkpt><trkpt lat="44.90326244732863" lon="8.65031019507265"><ele>91.33333333333334</ele><time>2026-04-09T07:59:23Z</time></trkpt><trkpt lat="44.90314436235725" lon="8.650554618545147"><ele>90.66666666666667</ele><time>2026-04-09T07:59:24Z</time></trkpt><trkpt lat="44.903027024487365" lon="8.650809028667046"><ele>90.0</ele><time>2026-04-09T07:59:25Z</time></trkpt><trkpt lat="44.90291215738749" lon="8.651057328566843"><ele>90.0</ele><time>2026-04-09T07:59:26Z</time></trkpt><trkpt lat="44.90280389357086" lon="8.651300702721274"><ele>90.0</ele><time>2026-04-09T07:59:27Z</time></trkpt><trkpt lat="44.902694947643475" lon="8.651545398469684"><ele>90.0</ele><time>2026-04-09T07:59:28Z</time></trkpt><trkpt lat="44.90259163947469" lon="8.651777391235877"><ele>89.66666666666667</ele><time>2026-04-09T07:59:29Z</time></trkpt><trkpt lat="44.90248981060961" lon="8.652007012850868"><ele>89.33333333333334</ele><time>2026-04-09T07:59:30Z</time></trkpt><trkpt lat="44.90238884400733" lon="8.652229791669294"><ele>89.0</ele><time>2026-04-09T07:59:31Z</time></trkpt><trkpt lat="44.90229204831183" lon="8.652439486448465"><ele>89.0</ele><time>2026-04-09T07:59:32Z</time></trkpt><trkpt lat="44.90220082647603" lon="8.652640098646337"><ele>89.0</ele><time>2026-04-09T07:59:33Z</time></trkpt><trkpt lat="44.90211555489047" lon="8.652827819714208"><ele>89.0</ele><time>2026-04-09T07:59:34Z</time></trkpt><trkpt lat="44.90203480860256" lon="8.653006325753429"><ele>88.75</ele><time>2026-04-09T07:59:35Z</time></trkpt><trkpt lat="44.90195502451272" lon="8.653175731791379"><ele>88.5</ele><time>2026-04-09T07:59:36Z</time></trkpt><trkpt lat="44.90188371977426" lon="8.653325302929682"><ele>88.25</ele><time>2026-04-09T07:59:37Z</time></trkpt><trkpt lat="44.90181552711319" lon="8.653437125432728"><ele>88.0</ele><time>2026-04-09T07:59:38Z</time></trkpt><trkpt lat="44.90174232978259" lon="8.653519764584619"><ele>87.83333333333333</ele><time>2026-04-09T07:59:39Z</time></trkpt><trkpt lat="44.90166489463919" lon="8.65358147585487"><ele>87.66666666666666</ele><time>2026-04-09T07:59:40Z</time></trkpt><trkpt lat="44.90158626783109" lon="8.653612497133434"><ele>87.5</ele><time>2026-04-09T07:59:41Z</time></trkpt><trkpt lat="44.90152468851519" lon="8.653651112216652"><ele>87.33333333333333</ele><time>2026-04-09T07:59:42Z</time></trkpt><trkpt lat="44.90146643116424" lon="8.653719502864343"><ele>87.16666666666667</ele><time>2026-04-09T07:59:43Z</time></trkpt><trkpt lat="44.90142476420142" lon="8.653820651582008"><ele>87.0</ele><time>2026-04-09T07:59:44Z</time></trkpt><trkpt lat="44.90141335220642" lon="8.653938113587275"><ele>87.39999999999999</ele><time>2026-04-09T07:59:45Z</time></trkpt><trkpt lat="44.90141888709017" lon="8.654055345469741"><ele>87.8</ele><time>2026-04-09T07:59:46Z</time></trkpt><trkpt lat="44.90141625336694" lon="8.654184125096702"><ele>88.2</ele><time>2026-04-09T07:59:47Z</time></trkpt><trkpt lat="44.90139421784231" lon="8.654313041726121"><ele>88.6</ele><time>2026-04-09T07:59:48Z</time></trkpt><trkpt lat="44.9013537922324" lon="8.654454564969084"><ele>89.0</ele><time>2026-04-09T07:59:49Z</time></trkpt><trkpt lat="44.901292290702905" lon="8.654606648176397"><ele>89.33333333333334</ele><time>2026-04-09T07:59:50Z</time></trkpt><trkpt lat="44.90122430170875" lon="8.654768054979257"><ele>89.66666666666667</ele><time>2026-04-09T07:59:51Z</time></trkpt><trkpt lat="44.90114367226087" lon="8.654956130566813"><ele>90.0</ele><time>2026-04-09T07:59:52Z</time></trkpt><trkpt lat="44.90105254228436" lon="8.655158090459025"><ele>90.0</ele><time>2026-04-09T07:59:53Z</time></trkpt><trkpt lat="44.90095390214416" lon="8.655359862730728"><ele>90.0</ele><time>2026-04-09T07:59:54Z</time></trkpt><trkpt lat="44.90084892640505" lon="8.655576859832108"><ele>90.0</ele><time>2026-04-09T07:59:55Z</time></trkpt><trkpt lat="44.90073646902657" lon="8.655798292792635"><ele>90.66666666666667</ele><time>2026-04-09T07:59:56Z</time></trkpt><trkpt lat="44.90062066515365" lon="8.656027984302355"><ele>91.33333333333334</ele><time>2026-04-09T07:59:57Z</time></trkpt><trkpt lat="44.900513919193784" lon="8.656247785067958"><ele>92.0</ele><time>2026-04-09T07:59:58Z</time></trkpt><trkpt lat="44.90041303380119" lon="8.656471176619355"><ele>92.33333333333334</ele><time>2026-04-09T07:59:59Z</time></trkpt><trkpt lat="44.9003130342219" lon="8.656703221922964"><ele>92.66666666666667</ele><time>2026-04-09T08:00:00Z</time></trkpt><trkpt lat="44.90020792645838" lon="8.656940052688388"><ele>93.0</ele><time>2026-04-09T08:00:01Z</time></trkpt><trkpt lat="44.90010466835031" lon="8.657173290629514"><ele>93.0</ele><time>2026-04-09T08:00:02Z</time></trkpt><trkpt lat="44.89999937472057" lon="8.657415655666883"><ele>93.0</ele><time>2026-04-09T08:00:03Z</time></trkpt><trkpt lat="44.899894325812" lon="8.657657849371654"><ele>93.0</ele><time>2026-04-09T08:00:04Z</time></trkpt><trkpt lat="44.89978697792393" lon="8.657901454071984"><ele>92.0</ele><time>2026-04-09T08:00:05Z</time></trkpt><trkpt lat="44.89967680881849" lon="8.658148143745821"><ele>91.0</ele><time>2026-04-09T08:00:06Z</time></trkpt><trkpt lat="44.899560987395525" lon="8.658394316450588"><ele>90.0</ele><time>2026-04-09T08:00:07Z</time></trkpt><trkpt lat="44.899443113010136" lon="8.658643884542986"><ele>90.0</ele><time>2026-04-09T08:00:08Z</time></trkpt><trkpt lat="44.89932006499603" lon="8.658894952162804"><ele>90.0</ele><time>2026-04-09T08:00:09Z</time></trkpt><trkpt lat="44.899198032562836" lon="8.659146144378976"><ele>90.0</ele><time>2026-04-09T08:00:10Z</time></trkpt><trkpt lat="44.89907815646393" lon="8.659387536911368"><ele>89.66666666666667</ele><time>2026-04-09T08:00:11Z</time></trkpt><trkpt lat="44.89895511097256" lon="8.659632140772164"><ele>89.33333333333334</ele><time>2026-04-09T08:00:12Z</time></trkpt><trkpt lat="44.8988296758071" lon="8.659876673013404"><ele>89.0</ele><time>2026-04-09T08:00:13Z</time></trkpt><trkpt lat="44.89870349415425" lon="8.66012387523122"><ele>89.0</ele><time>2026-04-09T08:00:14Z</time></trkpt><trkpt lat="44.89858201170027" lon="8.660374882949489"><ele>89.0</ele><time>2026-04-09T08:00:15Z</time></trkpt><trkpt lat="44.89846110749059" lon="8.660627269075286"><ele>89.0</ele><time>2026-04-09T08:00:16Z</time></trkpt><trkpt lat="44.89834141607467" lon="8.660881742476896"><ele>89.66666666666667</ele><time>2026-04-09T08:00:17Z</time></trkpt><trkpt lat="44.89822193392809" lon="8.661137423432587"><ele>90.33333333333333</ele><time>2026-04-09T08:00:18Z</time></trkpt><trkpt lat="44.89810068872429" lon="8.661395563833745"><ele>91.0</ele><time>2026-04-09T08:00:19Z</time></trkpt><trkpt lat="44.89798009762658" lon="8.66165346388941"><ele>91.0</ele><time>2026-04-09T08:00:20Z</time></trkpt><trkpt lat="44.89785836103688" lon="8.661915308464447"><ele>91.0</ele><time>2026-04-09T08:00:21Z</time></trkpt><trkpt lat="44.89773746167466" lon="8.662178804330068"><ele>91.0</ele><time>2026-04-09T08:00:22Z</time></trkpt><trkpt lat="44.89761640227145" lon="8.662443177664596"><ele>91.0</ele><time>2026-04-09T08:00:23Z</time></trkpt><trkpt lat="44.89749493619688" lon="8.662707690414704"><ele>91.0</ele><time>2026-04-09T08:00:24Z</time></trkpt><trkpt lat="44.8973727946821" lon="8.662973618307563"><ele>91.0</ele><time>2026-04-09T08:00:25Z</time></trkpt><trkpt lat="44.89725161622609" lon="8.663239330297698"><ele>91.0</ele><time>2026-04-09T08:00:26Z</time></trkpt><trkpt lat="44.89712961177329" lon="8.663502881772542"><ele>91.0</ele><time>2026-04-09T08:00:27Z</time></trkpt><trkpt lat="44.897008403484854" lon="8.663764876338524"><ele>91.0</ele><time>2026-04-09T08:00:28Z</time></trkpt><trkpt lat="44.89689408718109" lon="8.664020966459836"><ele>91.0</ele><time>2026-04-09T08:00:29Z</time></trkpt><trkpt lat="44.89678029844759" lon="8.664275829750135"><ele>91.0</ele><time>2026-04-09T08:00:30Z</time></trkpt><trkpt lat="44.896664672629086" lon="8.664528360458641"><ele>91.0</ele><time>2026-04-09T08:00:31Z</time></trkpt><trkpt lat="44.89655147668142" lon="8.6647742310279"><ele>92.33333333333333</ele><time>2026-04-09T08:00:32Z</time></trkpt><trkpt lat="44.89643202304321" lon="8.665020195229458"><ele>93.66666666666667</ele><time>2026-04-09T08:00:33Z</time></trkpt><trkpt lat="44.896311167925006" lon="8.6652598806751"><ele>95.0</ele><time>2026-04-09T08:00:34Z</time></trkpt><trkpt lat="44.89619534114773" lon="8.665495135201155"><ele>95.33333333333334</ele><time>2026-04-09T08:00:35Z</time></trkpt><trkpt lat="44.89609084780719" lon="8.665719968738918"><ele>95.66666666666667</ele><time>2026-04-09T08:00:36Z</time></trkpt><trkpt lat="44.89599144997454" lon="8.665938932429945"><ele>96.0</ele><time>2026-04-09T08:00:37Z</time></trkpt><trkpt lat="44.895897255422334" lon="8.666151764944809"><ele>94.66666666666667</ele><time>2026-04-09T08:00:38Z</time></trkpt><trkpt lat="44.89580955941419" lon="8.666366773467935"><ele>93.33333333333334</ele><time>2026-04-09T08:00:39Z</time></trkpt><trkpt lat="44.89572832930422" lon="8.666585090545734"><ele>92.0</ele><time>2026-04-09T08:00:40Z</time></trkpt><trkpt lat="44.89565522468143" lon="8.666805861012909"><ele>91.66666666666667</ele><time>2026-04-09T08:00:41Z</time></trkpt><trkpt lat="44.895584100296645" lon="8.667027182569925"><ele>91.33333333333333</ele><time>2026-04-09T08:00:42Z</time></trkpt><trkpt lat="44.89550389656127" lon="8.667248611558161"><ele>91.0</ele><time>2026-04-09T08:00:43Z</time></trkpt><trkpt lat="44.895419678901234" lon="8.667466119106123"><ele>91.0</ele><time>2026-04-09T08:00:44Z</time></trkpt><trkpt lat="44.89532678256683" lon="8.667681238266786"><ele>91.0</ele><time>2026-04-09T08:00:45Z</time></trkpt><trkpt lat="44.89522533950016" lon="8.667889017693653"><ele>91.0</ele><time>2026-04-09T08:00:45.999Z</time></trkpt><trkpt lat="44.89511477780207" lon="8.668091434942"><ele>91.0</ele><time>2026-04-09T08:00:46.999Z</time></trkpt><trkpt lat="44.89500307835163" lon="8.668281952008181"><ele>91.0</ele><time>2026-04-09T08:00:47.999Z</time></trkpt><trkpt lat="44.894893683801975" lon="8.668465318692308"><ele>91.0</ele><time>2026-04-09T08:00:49Z</time></trkpt><trkpt lat="44.89479104292028" lon="8.668640180335984"><ele>91.25</ele><time>2026-04-09T08:00:50Z</time></trkpt><trkpt lat="44.89469180185856" lon="8.668807197182256"><ele>91.5</ele><time>2026-04-09T08:00:51Z</time></trkpt><trkpt lat="44.89459952112016" lon="8.668963975221356"><ele>91.75</ele><time>2026-04-09T08:00:52Z</time></trkpt><trkpt lat="44.89451969975135" lon="8.669105436147857"><ele>92.0</ele><time>2026-04-09T08:00:53Z</time></trkpt><trkpt lat="44.89445283237481" lon="8.669242963509332"><ele>92.0</ele><time>2026-04-09T08:00:54Z</time></trkpt><trkpt lat="44.894395548092874" lon="8.669387893778985"><ele>92.0</ele><time>2026-04-09T08:00:55Z</time></trkpt><trkpt lat="44.89434891462264" lon="8.669526045766588"><ele>92.0</ele><time>2026-04-09T08:00:56Z</time></trkpt><trkpt lat="44.89430249199241" lon="8.669665160591634"><ele>92.0</ele><time>2026-04-09T08:00:57Z</time></trkpt><trkpt lat="44.894252819746214" lon="8.66980854726422"><ele>92.0</ele><time>2026-04-09T08:00:58Z</time></trkpt><trkpt lat="44.894196159069594" lon="8.669956109241157"><ele>92.25</ele><time>2026-04-09T08:00:59Z</time></trkpt><trkpt lat="44.894127120823015" lon="8.67011022394102"><ele>92.5</ele><time>2026-04-09T08:01:00Z</time></trkpt><trkpt lat="44.89405349905384" lon="8.670272966128696"><ele>92.75</ele><time>2026-04-09T08:01:01Z</time></trkpt><trkpt lat="44.89397699814323" lon="8.670443485222128"><ele>93.0</ele><time>2026-04-09T08:01:02Z</time></trkpt><trkpt lat="44.8938904030515" lon="8.670618843230265"><ele>93.66666666666667</ele><time>2026-04-09T08:01:03Z</time></trkpt><trkpt lat="44.89379870243643" lon="8.6707816742619"><ele>94.33333333333334</ele><time>2026-04-09T08:01:04Z</time></trkpt><trkpt lat="44.893697578176145" lon="8.67094774495501"><ele>95.0</ele><time>2026-04-09T08:01:05Z</time></trkpt><trkpt lat="44.89358617606958" lon="8.671113942857597"><ele>95.0</ele><time>2026-04-09T08:01:06Z</time></trkpt><trkpt lat="44.893466208275534" lon="8.671278759477412"><ele>95.0</ele><time>2026-04-09T08:01:07Z</time></trkpt><trkpt lat="44.89334099567631" lon="8.6714440760812"><ele>95.0</ele><time>2026-04-09T08:01:08Z</time></trkpt><trkpt lat="44.893209794479645" lon="8.671610733475406"><ele>94.66666666666667</ele><time>2026-04-09T08:01:09Z</time></trkpt><trkpt lat="44.89307703485371" lon="8.671778556510263"><ele>94.33333333333333</ele><time>2026-04-09T08:01:10Z</time></trkpt><trkpt lat="44.89293673803329" lon="8.671943287035642"><ele>94.0</ele><time>2026-04-09T08:01:11Z</time></trkpt><trkpt lat="44.89279792491863" lon="8.672102778115029"><ele>94.0</ele><time>2026-04-09T08:01:12Z</time></trkpt><trkpt lat="44.892663925693206" lon="8.672249193411169"><ele>94.0</ele><time>2026-04-09T08:01:13Z</time></trkpt><trkpt lat="44.89253220473861" lon="8.672402290795471"><ele>94.0</ele><time>2026-04-09T08:01:14Z</time></trkpt><trkpt lat="44.89240537714381" lon="8.67254331842283"><ele>94.0</ele><time>2026-04-09T08:01:15Z</time></trkpt><trkpt lat="44.892284857409614" lon="8.672681076221092"><ele>94.0</ele><time>2026-04-09T08:01:16Z</time></trkpt><trkpt lat="44.89217588484215" lon="8.6728099494988"><ele>94.0</ele><time>2026-04-09T08:01:17Z</time></trkpt><trkpt lat="44.892071631413806" lon="8.672925948098156"><ele>94.0</ele><time>2026-04-09T08:01:18Z</time></trkpt><trkpt lat="44.891972765075" lon="8.673025050327453"><ele>93.80000000000001</ele><time>2026-04-09T08:01:19Z</time></trkpt><trkpt lat="44.89187731589533" lon="8.673116320874335"><ele>93.60000000000001</ele><time>2026-04-09T08:01:20Z</time></trkpt><trkpt lat="44.89178029639819" lon="8.673194758255276"><ele>93.4</ele><time>2026-04-09T08:01:21Z</time></trkpt><trkpt lat="44.89168745396071" lon="8.673229312229944"><ele>93.2</ele><time>2026-04-09T08:01:22Z</time></trkpt><trkpt lat="44.891598360258655" lon="8.673238123345161"><ele>93.0</ele><time>2026-04-09T08:01:23Z</time></trkpt><trkpt lat="44.89150251786338" lon="8.673258257281079"><ele>92.83333333333333</ele><time>2026-04-09T08:01:24Z</time></trkpt><trkpt lat="44.89141450918527" lon="8.673303011167798"><ele>92.66666666666667</ele><time>2026-04-09T08:01:25Z</time></trkpt><trkpt lat="44.891345859277656" lon="8.67337138726899"><ele>92.5</ele><time>2026-04-09T08:01:26Z</time></trkpt><trkpt lat="44.891300069053635" lon="8.6734587062037"><ele>92.33333333333334</ele><time>2026-04-09T08:01:27Z</time></trkpt><trkpt lat="44.891263358603325" lon="8.673562283553851"><ele>92.16666666666667</ele><time>2026-04-09T08:01:28Z</time></trkpt><trkpt lat="44.891232873909594" lon="8.673676016226588"><ele>92.0</ele><time>2026-04-09T08:01:29Z</time></trkpt><trkpt lat="44.891202136836895" lon="8.673792990029714"><ele>92.0</ele><time>2026-04-09T08:01:30Z</time></trkpt><trkpt lat="44.89116467289446" lon="8.673902895900333"><ele>92.0</ele><time>2026-04-09T08:01:31Z</time></trkpt><trkpt lat="44.891113555814556" lon="8.674000178547475"><ele>92.0</ele><time>2026-04-09T08:01:32Z</time></trkpt><trkpt lat="44.89104742258252" lon="8.67408801152911"><ele>92.0</ele><time>2026-04-09T08:01:33Z</time></trkpt><trkpt lat="44.890970107392825" lon="8.674171339016816"><ele>92.0</ele><time>2026-04-09T08:01:34Z</time></trkpt><trkpt lat="44.89088858619528" lon="8.674268817712726"><ele>92.25</ele><time>2026-04-09T08:01:35Z</time></trkpt><trkpt lat="44.890797487026994" lon="8.67438175482859"><ele>92.5</ele><time>2026-04-09T08:01:36Z</time></trkpt><trkpt lat="44.89068921378365" lon="8.674507440524392"><ele>92.75</ele><time>2026-04-09T08:01:37Z</time></trkpt><trkpt lat="44.8905663712901" lon="8.674644310222128"><ele>93.0</ele><time>2026-04-09T08:01:38Z</time></trkpt><trkpt lat="44.89044798946047" lon="8.674776225382493"><ele>93.0</ele><time>2026-04-09T08:01:39Z</time></trkpt><trkpt lat="44.890321441065026" lon="8.674903315492127"><ele>93.0</ele><time>2026-04-09T08:01:40Z</time></trkpt><trkpt lat="44.89019513333044" lon="8.675037302940808"><ele>93.0</ele><time>2026-04-09T08:01:41Z</time></trkpt><trkpt lat="44.890070357471885" lon="8.67517345014152"><ele>93.33333333333333</ele><time>2026-04-09T08:01:42Z</time></trkpt><trkpt lat="44.88994617812383" lon="8.675308312186658"><ele>93.66666666666666</ele><time>2026-04-09T08:01:43Z</time></trkpt><trkpt lat="44.88982881497482" lon="8.675438758722638"><ele>94.0</ele><time>2026-04-09T08:01:44Z</time></trkpt><trkpt lat="44.88971841133332" lon="8.675568461532436"><ele>94.0</ele><time>2026-04-09T08:01:45Z</time></trkpt><trkpt lat="44.889609087447205" lon="8.675698374586133"><ele>94.0</ele><time>2026-04-09T08:01:46Z</time></trkpt><trkpt lat="44.889501275155354" lon="8.675824505542828"><ele>94.0</ele><time>2026-04-09T08:01:47Z</time></trkpt><trkpt lat="44.88939381422463" lon="8.675947267758284"><ele>94.0</ele><time>2026-04-09T08:01:48Z</time></trkpt><trkpt lat="44.889285062705895" lon="8.676063575482608"><ele>94.5</ele><time>2026-04-09T08:01:49Z</time></trkpt><trkpt lat="44.889179161461016" lon="8.676180135327382"><ele>95.0</ele><time>2026-04-09T08:01:50Z</time></trkpt><trkpt lat="44.88907553104304" lon="8.676299250936506"><ele>95.5</ele><time>2026-04-09T08:01:51Z</time></trkpt><trkpt lat="44.888977394563554" lon="8.67642083114536"><ele>96.0</ele><time>2026-04-09T08:01:52Z</time></trkpt><trkpt lat="44.88887314344715" lon="8.676534521576777"><ele>96.0</ele><time>2026-04-09T08:01:53Z</time></trkpt><trkpt lat="44.888771245707034" lon="8.67664460333544"><ele>96.0</ele><time>2026-04-09T08:01:54Z</time></trkpt><trkpt lat="44.88868101362392" lon="8.676746795498762"><ele>96.0</ele><time>2026-04-09T08:01:55Z</time></trkpt><trkpt lat="44.888599365087615" lon="8.676843431838101"><ele>96.0</ele><time>2026-04-09T08:01:56Z</time></trkpt><trkpt lat="44.88852548102609" lon="8.676934615188442"><ele>96.0</ele><time>2026-04-09T08:01:57Z</time></trkpt><trkpt lat="44.88845681298403" lon="8.677015451180306"><ele>96.0</ele><time>2026-04-09T08:01:58Z</time></trkpt><trkpt lat="44.8883969228761" lon="8.67708418644842"><ele>96.0</ele><time>2026-04-09T08:01:59Z</time></trkpt><trkpt lat="44.888344112028115" lon="8.677146175029062"><ele>96.0</ele><time>2026-04-09T08:02:00Z</time></trkpt><trkpt lat="44.88829708119449" lon="8.677215231688004"><ele>96.0</ele><time>2026-04-09T08:02:01Z</time></trkpt><trkpt lat="44.88823472218798" lon="8.677287055155615"><ele>96.0</ele><time>2026-04-09T08:02:02Z</time></trkpt><trkpt lat="44.88815568523431" lon="8.677360000376881"><ele>96.0</ele><time>2026-04-09T08:02:03Z</time></trkpt><trkpt lat="44.88807315401918" lon="8.677450072193816"><ele>96.0</ele><time>2026-04-09T08:02:04Z</time></trkpt><trkpt lat="44.887978978179" lon="8.677544635027434"><ele>96.0</ele><time>2026-04-09T08:02:05Z</time></trkpt><trkpt lat="44.887889425457395" lon="8.67764844408113"><ele>96.0</ele><time>2026-04-09T08:02:06Z</time></trkpt><trkpt lat="44.887794819929645" lon="8.677749607463895"><ele>96.0</ele><time>2026-04-09T08:02:07Z</time></trkpt><trkpt lat="44.88769891031252" lon="8.677856235510085"><ele>96.0</ele><time>2026-04-09T08:02:08Z</time></trkpt><trkpt lat="44.88759112110303" lon="8.677969294081006"><ele>96.0</ele><time>2026-04-09T08:02:09Z</time></trkpt><trkpt lat="44.887478180225244" lon="8.678090930721174"><ele>96.0</ele><time>2026-04-09T08:02:10Z</time></trkpt><trkpt lat="44.88736095127041" lon="8.678211676150056"><ele>96.0</ele><time>2026-04-09T08:02:11Z</time></trkpt><trkpt lat="44.8872571372714" lon="8.678323881909575"><ele>96.0</ele><time>2026-04-09T08:02:12Z</time></trkpt><trkpt lat="44.88716077854922" lon="8.67843191860907"><ele>96.0</ele><time>2026-04-09T08:02:13Z</time></trkpt><trkpt lat="44.88707586972865" lon="8.678534164720709"><ele>96.0</ele><time>2026-04-09T08:02:14Z</time></trkpt><trkpt lat="44.887017646005205" lon="8.678609980797326"><ele>96.0</ele><time>2026-04-09T08:02:15Z</time></trkpt><trkpt lat="44.88696834145406" lon="8.678674729614759"><ele>96.0</ele><time>2026-04-09T08:02:16Z</time></trkpt><trkpt lat="44.886917629312975" lon="8.678752762531266"><ele>96.0</ele><time>2026-04-09T08:02:17Z</time></trkpt><trkpt lat="44.88685980552584" lon="8.678847002158054"><ele>96.0</ele><time>2026-04-09T08:02:18Z</time></trkpt><trkpt lat="44.886798065067445" lon="8.678940755169364"><ele>96.0</ele><time>2026-04-09T08:02:19Z</time></trkpt><trkpt lat="44.886724867579964" lon="8.679028804580877"><ele>96.0</ele><time>2026-04-09T08:02:20Z</time></trkpt><trkpt lat="44.886651790219496" lon="8.679130451575263"><ele>96.0</ele><time>2026-04-09T08:02:21Z</time></trkpt><trkpt lat="44.88658475331655" lon="8.679244853014891"><ele>96.0</ele><time>2026-04-09T08:02:22Z</time></trkpt><trkpt lat="44.886520950745854" lon="8.679355086835946"><ele>96.0</ele><time>2026-04-09T08:02:23Z</time></trkpt><trkpt lat="44.886447761674475" lon="8.679459106473987"><ele>96.0</ele><time>2026-04-09T08:02:24Z</time></trkpt><trkpt lat="44.886375977943445" lon="8.679567030511032"><ele>96.0</ele><time>2026-04-09T08:02:25Z</time></trkpt><trkpt lat="44.88630720928623" lon="8.679678058213652"><ele>96.0</ele><time>2026-04-09T08:02:26Z</time></trkpt><trkpt lat="44.886229036219646" lon="8.679788958685299"><ele>96.5</ele><time>2026-04-09T08:02:27Z</time></trkpt><trkpt lat="44.8861468810249" lon="8.679903060032613"><ele>97.0</ele><time>2026-04-09T08:02:28Z</time></trkpt><trkpt lat="44.88607292813338" lon="8.680020808041805"><ele>97.5</ele><time>2026-04-09T08:02:29Z</time></trkpt><trkpt lat="44.88599503648798" lon="8.680135645845374"><ele>98.0</ele><time>2026-04-09T08:02:30Z</time></trkpt><trkpt lat="44.885916297217236" lon="8.680251094647321"><ele>98.2</ele><time>2026-04-09T08:02:31Z</time></trkpt><trkpt lat="44.88583633997807" lon="8.680363559796083"><ele>98.4</ele><time>2026-04-09T08:02:32Z</time></trkpt><trkpt lat="44.88575842643662" lon="8.680481755631286"><ele>98.60000000000001</ele><time>2026-04-09T08:02:33Z</time></trkpt><trkpt lat="44.885683749880684" lon="8.68059287132129"><ele>98.80000000000001</ele><time>2026-04-09T08:02:34Z</time></trkpt><trkpt lat="44.88560695397429" lon="8.680702611535992"><ele>99.0</ele><time>2026-04-09T08:02:35Z</time></trkpt><trkpt lat="44.88553440774444" lon="8.680808227207425"><ele>99.0</ele><time>2026-04-09T08:02:36Z</time></trkpt><trkpt lat="44.88546401591298" lon="8.680915420953884"><ele>99.0</ele><time>2026-04-09T08:02:37Z</time></trkpt><trkpt lat="44.88539421017312" lon="8.681022045389128"><ele>99.0</ele><time>2026-04-09T08:02:38Z</time></trkpt><trkpt lat="44.88531664863716" lon="8.68113163294619"><ele>99.0</ele><time>2026-04-09T08:02:39Z</time></trkpt><trkpt lat="44.88523695290313" lon="8.681238068080365"><ele>99.0</ele><time>2026-04-09T08:02:40Z</time></trkpt><trkpt lat="44.885161159561775" lon="8.681343933622088"><ele>99.0</ele><time>2026-04-09T08:02:41Z</time></trkpt><trkpt lat="44.885089433858006" lon="8.681450808230748"><ele>99.0</ele><time>2026-04-09T08:02:42Z</time></trkpt><trkpt lat="44.885020051153845" lon="8.681563036147539"><ele>99.0</ele><time>2026-04-09T08:02:43Z</time></trkpt><trkpt lat="44.88494220288701" lon="8.681674835094642"><ele>99.0</ele><time>2026-04-09T08:02:43.999Z</time></trkpt><trkpt lat="44.884860139747616" lon="8.681792808074709"><ele>99.0</ele><time>2026-04-09T08:02:44.999Z</time></trkpt><trkpt lat="44.884773531554956" lon="8.68191456924233"><ele>99.0</ele><time>2026-04-09T08:02:45.999Z</time></trkpt><trkpt lat="44.884688355170816" lon="8.682035994610123"><ele>99.0</ele><time>2026-04-09T08:02:46.999Z</time></trkpt><trkpt lat="44.884600812891264" lon="8.682152611118344"><ele>99.0</ele><time>2026-04-09T08:02:47.999Z</time></trkpt><trkpt lat="44.88451142305784" lon="8.682265746484898"><ele>99.0</ele><time>2026-04-09T08:02:48.999Z</time></trkpt><trkpt lat="44.88442667608537" lon="8.682375831178907"><ele>99.0</ele><time>2026-04-09T08:02:49.999Z</time></trkpt><trkpt lat="44.88434740246201" lon="8.682479673886371"><ele>99.0</ele><time>2026-04-09T08:02:50.999Z</time></trkpt><trkpt lat="44.88426978710823" lon="8.682577576827724"><ele>99.0</ele><time>2026-04-09T08:02:51.999Z</time></trkpt><trkpt lat="44.88419144827515" lon="8.682668326440208"><ele>99.0</ele><time>2026-04-09T08:02:52.999Z</time></trkpt><trkpt lat="44.884116194513034" lon="8.682754969435392"><ele>99.0</ele><time>2026-04-09T08:02:53.999Z</time></trkpt><trkpt lat="44.884045759449464" lon="8.682842980433781"><ele>99.0</ele><time>2026-04-09T08:02:55Z</time></trkpt><trkpt lat="44.88397430635012" lon="8.682926426891827"><ele>99.0</ele><time>2026-04-09T08:02:56Z</time></trkpt><trkpt lat="44.88391162772911" lon="8.683006298768023"><ele>99.0</ele><time>2026-04-09T08:02:57Z</time></trkpt><trkpt lat="44.883842846077506" lon="8.683084913451912"><ele>99.0</ele><time>2026-04-09T08:02:58Z</time></trkpt><trkpt lat="44.88377512290453" lon="8.683164805014542"><ele>99.0</ele><time>2026-04-09T08:02:59Z</time></trkpt><trkpt lat="44.883707037146436" lon="8.683251294504819"><ele>99.0</ele><time>2026-04-09T08:03:00Z</time></trkpt><trkpt lat="44.88363734367516" lon="8.683337200500446"><ele>99.0</ele><time>2026-04-09T08:03:01Z</time></trkpt><trkpt lat="44.88356913920002" lon="8.683417933631965"><ele>99.0</ele><time>2026-04-09T08:03:02Z</time></trkpt><trkpt lat="44.88350387850071" lon="8.683498251016314"><ele>99.0</ele><time>2026-04-09T08:03:03Z</time></trkpt><trkpt lat="44.88344235466555" lon="8.683577605515493"><ele>99.0</ele><time>2026-04-09T08:03:04Z</time></trkpt><trkpt lat="44.88338149656599" lon="8.683653100267055"><ele>99.0</ele><time>2026-04-09T08:03:05Z</time></trkpt><trkpt lat="44.883324111590724" lon="8.683725810684994"><ele>99.0</ele><time>2026-04-09T08:03:06Z</time></trkpt><trkpt lat="44.88326854612902" lon="8.683793685641067"><ele>99.14285714285715</ele><time>2026-04-09T08:03:07Z</time></trkpt><trkpt lat="44.88321990519565" lon="8.68385059051132"><ele>99.28571428571428</ele><time>2026-04-09T08:03:08Z</time></trkpt><trkpt lat="44.88317153679406" lon="8.683909496488061"><ele>99.42857142857143</ele><time>2026-04-09T08:03:09Z</time></trkpt><trkpt lat="44.88312023751085" lon="8.68397029013387"><ele>99.57142857142858</ele><time>2026-04-09T08:03:10Z</time></trkpt><trkpt lat="44.883071401274734" lon="8.684033329317753"><ele>99.71428571428572</ele><time>2026-04-09T08:03:11Z</time></trkpt><trkpt lat="44.883021106115784" lon="8.68409367175384"><ele>99.85714285714286</ele><time>2026-04-09T08:03:12Z</time></trkpt><trkpt lat="44.88297014239312" lon="8.684153399730603"><ele>100.0</ele><time>2026-04-09T08:03:13Z</time></trkpt><trkpt lat="44.88291917448989" lon="8.68421219403768"><ele>100.00000000000001</ele><time>2026-04-09T08:03:14Z</time></trkpt><trkpt lat="44.8828272407541" lon="8.68432307871516"><ele>100.0</ele><time>2026-04-09T08:03:16Z</time></trkpt><trkpt lat="44.882751428179375" lon="8.684406263047471"><ele>100.0</ele><time>2026-04-09T08:03:18Z</time></trkpt><trkpt lat="44.8826994381485" lon="8.68448283631823"><ele>100.0</ele><time>2026-04-09T08:03:22Z</time></trkpt><trkpt lat="44.88264982581027" lon="8.684543073037645"><ele>100.00000000000001</ele><time>2026-04-09T08:03:24Z</time></trkpt><trkpt lat="44.88258979129716" lon="8.684605714043759"><ele>100.0</ele><time>2026-04-09T08:03:26Z</time></trkpt><trkpt lat="44.88254257196915" lon="8.684684232581523"><ele>100.16666666666667</ele><time>2026-04-09T08:03:29Z</time></trkpt><trkpt lat="44.88246553083143" lon="8.684753029792638"><ele>100.33333333333334</ele><time>2026-04-09T08:03:31Z</time></trkpt><trkpt lat="44.8823954669331" lon="8.684858681114404"><ele>100.5</ele><time>2026-04-09T08:03:33Z</time></trkpt><trkpt lat="44.882335473186885" lon="8.684913074538422"><ele>100.66666666666666</ele><time>2026-04-09T08:03:36Z</time></trkpt><trkpt lat="44.88228274788788" lon="8.68496906599335"><ele>100.83333333333333</ele><time>2026-04-09T08:03:38Z</time></trkpt><trkpt lat="44.8822315132721" lon="8.68503375213258"><ele>101.0</ele><time>2026-04-09T08:03:40Z</time></trkpt><trkpt lat="44.88215573233176" lon="8.685128432825769"><ele>100.99999999999999</ele><time>2026-04-09T08:03:42Z</time></trkpt><trkpt lat="44.882096235769545" lon="8.68519331363315"><ele>101.0</ele><time>2026-04-09T08:03:43Z</time></trkpt><trkpt lat="44.88202717299587" lon="8.685266076343485"><ele>101.0</ele><time>2026-04-09T08:03:44Z</time></trkpt><trkpt lat="44.881964451283125" lon="8.685332079269852"><ele>101.0</ele><time>2026-04-09T08:03:45Z</time></trkpt><trkpt lat="44.88190707357264" lon="8.68538288503903"><ele>100.99999999999999</ele><time>2026-04-09T08:03:46Z</time></trkpt><trkpt lat="44.881849660240164" lon="8.685450820679417"><ele>101.0</ele><time>2026-04-09T08:03:48Z</time></trkpt><trkpt lat="44.88178327682445" lon="8.685229180979274"><ele>101.0</ele><time>2026-04-09T08:03:50Z</time></trkpt><trkpt lat="44.88176692096146" lon="8.685127001546668"><ele>101.0</ele><time>2026-04-09T08:03:51Z</time></trkpt><trkpt lat="44.881733654484975" lon="8.685013330672598"><ele>101.0</ele><time>2026-04-09T08:03:52Z</time></trkpt><trkpt lat="44.88172132025412" lon="8.684870562559153"><ele>101.0</ele><time>2026-04-09T08:03:53Z</time></trkpt><trkpt lat="44.8817065891578" lon="8.68470866204834"><ele>101.0</ele><time>2026-04-09T08:03:54Z</time></trkpt><trkpt lat="44.88169188647883" lon="8.6845470551627"><ele>100.75</ele><time>2026-04-09T08:03:55Z</time></trkpt><trkpt lat="44.88167917067103" lon="8.68438405876808"><ele>100.5</ele><time>2026-04-09T08:03:56Z</time></trkpt><trkpt lat="44.88166151362982" lon="8.684221553017577"><ele>100.25</ele><time>2026-04-09T08:03:57Z</time></trkpt><trkpt lat="44.88164746465121" lon="8.68405547720211"><ele>100.0</ele><time>2026-04-09T08:03:58Z</time></trkpt><trkpt lat="44.88163226804333" lon="8.683888149099385"><ele>100.0</ele><time>2026-04-09T08:03:59Z</time></trkpt><trkpt lat="44.88161830149234" lon="8.683725664571133"><ele>100.0</ele><time>2026-04-09T08:04:00Z</time></trkpt><trkpt lat="44.88160132529324" lon="8.683568400692089"><ele>100.0</ele><time>2026-04-09T08:04:01Z</time></trkpt><trkpt lat="44.88158314499262" lon="8.68341538097987"><ele>100.0</ele><time>2026-04-09T08:04:02Z</time></trkpt><trkpt lat="44.88156213220835" lon="8.68324988003519"><ele>100.0</ele><time>2026-04-09T08:04:03Z</time></trkpt><trkpt lat="44.881542411935406" lon="8.683067052977732"><ele>100.0</ele><time>2026-04-09T08:04:04Z</time></trkpt><trkpt lat="44.88152251208033" lon="8.682873461612147"><ele>100.0</ele><time>2026-04-09T08:04:05Z</time></trkpt><trkpt lat="44.88150423827723" lon="8.682679514393026"><ele>100.0</ele><time>2026-04-09T08:04:06Z</time></trkpt><trkpt lat="44.88148904968434" lon="8.682492588607582"><ele>100.0</ele><time>2026-04-09T08:04:07Z</time></trkpt><trkpt lat="44.88147502711472" lon="8.682310750395288"><ele>100.0</ele><time>2026-04-09T08:04:08Z</time></trkpt><trkpt lat="44.88146846163389" lon="8.682136392575316"><ele>100.0</ele><time>2026-04-09T08:04:09Z</time></trkpt><trkpt lat="44.88145732020145" lon="8.681964037980304"><ele>100.0</ele><time>2026-04-09T08:04:10Z</time></trkpt><trkpt lat="44.8814386091875" lon="8.6817748251565"><ele>99.66666666666667</ele><time>2026-04-09T08:04:11Z</time></trkpt><trkpt lat="44.881414386161325" lon="8.681564293582351"><ele>99.33333333333334</ele><time>2026-04-09T08:04:12Z</time></trkpt><trkpt lat="44.88139431324917" lon="8.681333195915494"><ele>99.0</ele><time>2026-04-09T08:04:13Z</time></trkpt><trkpt lat="44.88137076330662" lon="8.68110834617828"><ele>99.0</ele><time>2026-04-09T08:04:14Z</time></trkpt><trkpt lat="44.881347003589845" lon="8.680902582968567"><ele>99.0</ele><time>2026-04-09T08:04:15Z</time></trkpt><trkpt lat="44.88134317219102" lon="8.680708744117316"><ele>99.0</ele><time>2026-04-09T08:04:16Z</time></trkpt><trkpt lat="44.88132585451872" lon="8.680532681153297"><ele>99.0</ele><time>2026-04-09T08:04:17Z</time></trkpt><trkpt lat="44.8813098705596" lon="8.680370177431893"><ele>98.66666666666666</ele><time>2026-04-09T08:04:18Z</time></trkpt><trkpt lat="44.881291464041155" lon="8.680181915314659"><ele>98.33333333333333</ele><time>2026-04-09T08:04:19Z</time></trkpt><trkpt lat="44.881269691396085" lon="8.679952798432012"><ele>98.0</ele><time>2026-04-09T08:04:20Z</time></trkpt><trkpt lat="44.881249468774385" lon="8.679732432000021"><ele>98.0</ele><time>2026-04-09T08:04:21Z</time></trkpt><trkpt lat="44.8812299315918" lon="8.679519534586193"><ele>98.0</ele><time>2026-04-09T08:04:22Z</time></trkpt><trkpt lat="44.881213506308455" lon="8.679317058124983"><ele>98.0</ele><time>2026-04-09T08:04:23Z</time></trkpt><trkpt lat="44.881197148931186" lon="8.679118926172919"><ele>98.0</ele><time>2026-04-09T08:04:24Z</time></trkpt><trkpt lat="44.88118176102111" lon="8.678929059770242"><ele>98.0</ele><time>2026-04-09T08:04:25Z</time></trkpt><trkpt lat="44.88116641648583" lon="8.678739728565219"><ele>98.0</ele><time>2026-04-09T08:04:26Z</time></trkpt><trkpt lat="44.88115109189567" lon="8.678550643228952"><ele>98.0</ele><time>2026-04-09T08:04:27Z</time></trkpt><trkpt lat="44.881134902155225" lon="8.678360957462626"><ele>98.0</ele><time>2026-04-09T08:04:28Z</time></trkpt><trkpt lat="44.88111983626307" lon="8.678174892374129"><ele>98.0</ele><time>2026-04-09T08:04:29Z</time></trkpt><trkpt lat="44.881106258594265" lon="8.67800837918316"><ele>98.0</ele><time>2026-04-09T08:04:30Z</time></trkpt><trkpt lat="44.881094717357094" lon="8.677866840251642"><ele>98.0</ele><time>2026-04-09T08:04:31Z</time></trkpt><trkpt lat="44.881084408458044" lon="8.677740414484692"><ele>98.0</ele><time>2026-04-09T08:04:32Z</time></trkpt><trkpt lat="44.88107393146803" lon="8.67761192700612"><ele>98.0</ele><time>2026-04-09T08:04:33Z</time></trkpt><trkpt lat="44.881060217783364" lon="8.677468964224444"><ele>98.0</ele><time>2026-04-09T08:04:34Z</time></trkpt><trkpt lat="44.881047748683365" lon="8.67731712305792"><ele>98.0</ele><time>2026-04-09T08:04:35Z</time></trkpt><trkpt lat="44.88103431148259" lon="8.677161560131786"><ele>98.0</ele><time>2026-04-09T08:04:36Z</time></trkpt><trkpt lat="44.88102084348788" lon="8.677005640713485"><ele>98.0</ele><time>2026-04-09T08:04:37Z</time></trkpt><trkpt lat="44.8809947318066" lon="8.676865656844338"><ele>98.0</ele><time>2026-04-09T08:04:38Z</time></trkpt><trkpt lat="44.88098478995549" lon="8.676739499867919"><ele>97.99999999999999</ele><time>2026-04-09T08:04:39Z</time></trkpt><trkpt lat="44.88097992875932" lon="8.676628973489866"><ele>98.0</ele><time>2026-04-09T08:04:40Z</time></trkpt><trkpt lat="44.88097403352129" lon="8.676533079492884"><ele>98.0</ele><time>2026-04-09T08:04:41Z</time></trkpt><trkpt lat="44.88096240160383" lon="8.676436717682993"><ele>98.0</ele><time>2026-04-09T08:04:43Z</time></trkpt><trkpt lat="44.88096272458248" lon="8.676332798299656"><ele>97.99999999999999</ele><time>2026-04-09T08:05:24Z</time></trkpt><trkpt lat="44.88085995742257" lon="8.6763062876409"><ele>98.0</ele><time>2026-04-09T08:05:25Z</time></trkpt><trkpt lat="44.88076851143875" lon="8.676295041856084"><ele>97.75</ele><time>2026-04-09T08:05:26Z</time></trkpt><trkpt lat="44.880665792376995" lon="8.676267508306717"><ele>97.5</ele><time>2026-04-09T08:05:27Z</time></trkpt><trkpt lat="44.880561654166684" lon="8.676235035362344"><ele>97.25</ele><time>2026-04-09T08:05:28Z</time></trkpt><trkpt lat="44.88043818375943" lon="8.676199274985143"><ele>97.0</ele><time>2026-04-09T08:05:29Z</time></trkpt><trkpt lat="44.88030610581001" lon="8.67615667264414"><ele>97.0</ele><time>2026-04-09T08:05:30Z</time></trkpt><trkpt lat="44.880166265996664" lon="8.67611420505487"><ele>97.0</ele><time>2026-04-09T08:05:31Z</time></trkpt><trkpt lat="44.88003198975107" lon="8.676073189086589"><ele>97.0</ele><time>2026-04-09T08:05:32Z</time></trkpt><trkpt lat="44.87988870606094" lon="8.6760306228518"><ele>97.0</ele><time>2026-04-09T08:05:33Z</time></trkpt><trkpt lat="44.879739947684264" lon="8.675985422876183"><ele>96.66666666666667</ele><time>2026-04-09T08:05:34Z</time></trkpt><trkpt lat="44.87958718102226" lon="8.675937635623386"><ele>96.33333333333334</ele><time>2026-04-09T08:05:35Z</time></trkpt><trkpt lat="44.87942467560386" lon="8.675886743716827"><ele>96.0</ele><time>2026-04-09T08:05:36Z</time></trkpt><trkpt lat="44.87924310212043" lon="8.67582955184053"><ele>95.66666666666667</ele><time>2026-04-09T08:05:37Z</time></trkpt><trkpt lat="44.87905376413968" lon="8.675767507770324"><ele>95.33333333333334</ele><time>2026-04-09T08:05:38Z</time></trkpt><trkpt lat="44.878870421882894" lon="8.675710037743283"><ele>95.0</ele><time>2026-04-09T08:05:39Z</time></trkpt><trkpt lat="44.87869092842032" lon="8.675652146122232"><ele>95.0</ele><time>2026-04-09T08:05:40Z</time></trkpt><trkpt lat="44.87851548503799" lon="8.675593578960505"><ele>95.0</ele><time>2026-04-09T08:05:41Z</time></trkpt><trkpt lat="44.87834524017666" lon="8.675536702456938"><ele>95.0</ele><time>2026-04-09T08:05:42Z</time></trkpt><trkpt lat="44.87817705969529" lon="8.675483360548334"><ele>95.66666666666667</ele><time>2026-04-09T08:05:43Z</time></trkpt><trkpt lat="44.878011660112996" lon="8.67543112694526"><ele>96.33333333333334</ele><time>2026-04-09T08:05:44Z</time></trkpt><trkpt lat="44.87784460021348" lon="8.675379242834946"><ele>97.0</ele><time>2026-04-09T08:05:45Z</time></trkpt><trkpt lat="44.87767557306642" lon="8.67532286437712"><ele>96.66666666666667</ele><time>2026-04-09T08:05:46Z</time></trkpt><trkpt lat="44.87750917947792" lon="8.675268417379987"><ele>96.33333333333334</ele><time>2026-04-09T08:05:47Z</time></trkpt><trkpt lat="44.877344775272384" lon="8.675214013195546"><ele>96.0</ele><time>2026-04-09T08:05:48Z</time></trkpt><trkpt lat="44.87718453577328" lon="8.675162169728171"><ele>96.0</ele><time>2026-04-09T08:05:49Z</time></trkpt><trkpt lat="44.8770208093012" lon="8.675115117128989"><ele>96.0</ele><time>2026-04-09T08:05:50Z</time></trkpt><trkpt lat="44.876854976640686" lon="8.67507249920926"><ele>96.0</ele><time>2026-04-09T08:05:51Z</time></trkpt><trkpt lat="44.87668712909978" lon="8.675038779881735"><ele>96.0</ele><time>2026-04-09T08:05:52Z</time></trkpt><trkpt lat="44.876520321983215" lon="8.675007479914076"><ele>96.0</ele><time>2026-04-09T08:05:53Z</time></trkpt><trkpt lat="44.87634938896878" lon="8.674977519063384"><ele>96.0</ele><time>2026-04-09T08:05:54Z</time></trkpt><trkpt lat="44.87617899431284" lon="8.674945773777202"><ele>96.0</ele><time>2026-04-09T08:05:55Z</time></trkpt><trkpt lat="44.87601665054344" lon="8.67491817284061"><ele>96.0</ele><time>2026-04-09T08:05:56Z</time></trkpt><trkpt lat="44.87585857797815" lon="8.674870709164079"><ele>96.0</ele><time>2026-04-09T08:05:57Z</time></trkpt><trkpt lat="44.87569867924621" lon="8.67483544732738"><ele>96.33333333333334</ele><time>2026-04-09T08:05:58Z</time></trkpt><trkpt lat="44.875538136090505" lon="8.67480004337587"><ele>96.66666666666667</ele><time>2026-04-09T08:05:59Z</time></trkpt><trkpt lat="44.87536795197214" lon="8.674773857407343"><ele>97.0</ele><time>2026-04-09T08:06:00Z</time></trkpt><trkpt lat="44.875205858147474" lon="8.674725782288792"><ele>97.33333333333334</ele><time>2026-04-09T08:06:01Z</time></trkpt><trkpt lat="44.87503452750798" lon="8.67469131190143"><ele>97.66666666666666</ele><time>2026-04-09T08:06:02Z</time></trkpt><trkpt lat="44.8748529419141" lon="8.674649138196495"><ele>98.0</ele><time>2026-04-09T08:06:03Z</time></trkpt><trkpt lat="44.874672238318865" lon="8.674600963467302"><ele>98.0</ele><time>2026-04-09T08:06:04Z</time></trkpt><trkpt lat="44.87448558885821" lon="8.674545771021346"><ele>98.0</ele><time>2026-04-09T08:06:05Z</time></trkpt><trkpt lat="44.874310338415555" lon="8.674497135536889"><ele>98.0</ele><time>2026-04-09T08:06:06Z</time></trkpt><trkpt lat="44.874134148915495" lon="8.674453777491303"><ele>98.0</ele><time>2026-04-09T08:06:07Z</time></trkpt><trkpt lat="44.87395580291517" lon="8.674401907206342"><ele>98.0</ele><time>2026-04-09T08:06:08Z</time></trkpt><trkpt lat="44.873777162180936" lon="8.674343338391616"><ele>98.0</ele><time>2026-04-09T08:06:09Z</time></trkpt><trkpt lat="44.87360352803669" lon="8.674280355828115"><ele>97.66666666666666</ele><time>2026-04-09T08:06:10Z</time></trkpt><trkpt lat="44.87342661176205" lon="8.67421624854589"><ele>97.33333333333334</ele><time>2026-04-09T08:06:11Z</time></trkpt><trkpt lat="44.87324634824314" lon="8.674151317537936"><ele>97.0</ele><time>2026-04-09T08:06:12Z</time></trkpt><trkpt lat="44.873066182200844" lon="8.67408886228016"><ele>97.0</ele><time>2026-04-09T08:06:13Z</time></trkpt><trkpt lat="44.872887015114266" lon="8.674021973450326"><ele>97.0</ele><time>2026-04-09T08:06:14Z</time></trkpt><trkpt lat="44.87270581838522" lon="8.673957014394798"><ele>97.0</ele><time>2026-04-09T08:06:15Z</time></trkpt><trkpt lat="44.87252202466316" lon="8.673893278261408"><ele>97.33333333333334</ele><time>2026-04-09T08:06:16Z</time></trkpt><trkpt lat="44.87233733989779" lon="8.673829751297141"><ele>97.66666666666666</ele><time>2026-04-09T08:06:17Z</time></trkpt><trkpt lat="44.872150565947805" lon="8.673761534640628"><ele>98.0</ele><time>2026-04-09T08:06:18Z</time></trkpt><trkpt lat="44.87196118359494" lon="8.673691032636665"><ele>98.33333333333333</ele><time>2026-04-09T08:06:19Z</time></trkpt><trkpt lat="44.87177284870417" lon="8.673619926164738"><ele>98.66666666666666</ele><time>2026-04-09T08:06:20Z</time></trkpt><trkpt lat="44.87158616344678" lon="8.673551781331355"><ele>99.0</ele><time>2026-04-09T08:06:21Z</time></trkpt><trkpt lat="44.87140207998515" lon="8.673482230691494"><ele>99.0</ele><time>2026-04-09T08:06:22Z</time></trkpt><trkpt lat="44.87121566094838" lon="8.67340888158528"><ele>99.0</ele><time>2026-04-09T08:06:23Z</time></trkpt><trkpt lat="44.87103010790001" lon="8.673339696230185"><ele>99.0</ele><time>2026-04-09T08:06:24Z</time></trkpt><trkpt lat="44.87083781702411" lon="8.673277195091487"><ele>98.33333333333334</ele><time>2026-04-09T08:06:25Z</time></trkpt><trkpt lat="44.87064107540111" lon="8.67321500572765"><ele>97.66666666666667</ele><time>2026-04-09T08:06:26Z</time></trkpt><trkpt lat="44.87044634397336" lon="8.673161786761789"><ele>97.0</ele><time>2026-04-09T08:06:27Z</time></trkpt><trkpt lat="44.87024818433081" lon="8.673109505811706"><ele>97.33333333333334</ele><time>2026-04-09T08:06:28Z</time></trkpt><trkpt lat="44.870051540654046" lon="8.673050505860413"><ele>97.66666666666666</ele><time>2026-04-09T08:06:29Z</time></trkpt><trkpt lat="44.86985416948596" lon="8.672985402689141"><ele>98.0</ele><time>2026-04-09T08:06:30Z</time></trkpt><trkpt lat="44.869667630957274" lon="8.672916698877982"><ele>98.0</ele><time>2026-04-09T08:06:31Z</time></trkpt><trkpt lat="44.86947464200344" lon="8.672855620755433"><ele>98.0</ele><time>2026-04-09T08:06:32Z</time></trkpt><trkpt lat="44.86928444736029" lon="8.672791091794705"><ele>98.0</ele><time>2026-04-09T08:06:33Z</time></trkpt><trkpt lat="44.86909636977204" lon="8.672722896709352"><ele>98.0</ele><time>2026-04-09T08:06:34Z</time></trkpt><trkpt lat="44.86890273089358" lon="8.67266297716432"><ele>98.0</ele><time>2026-04-09T08:06:35Z</time></trkpt><trkpt lat="44.86870669833589" lon="8.672612857926781"><ele>98.0</ele><time>2026-04-09T08:06:36Z</time></trkpt><trkpt lat="44.868513686536645" lon="8.67255256252933"><ele>98.33333333333333</ele><time>2026-04-09T08:06:37Z</time></trkpt><trkpt lat="44.868313674603996" lon="8.67250031981009"><ele>98.66666666666666</ele><time>2026-04-09T08:06:38Z</time></trkpt><trkpt lat="44.86811762934834" lon="8.672446428559505"><ele>99.0</ele><time>2026-04-09T08:06:39Z</time></trkpt><trkpt lat="44.86791557078304" lon="8.672398405355567"><ele>99.0</ele><time>2026-04-09T08:06:40Z</time></trkpt><trkpt lat="44.867714428009606" lon="8.672347849428307"><ele>99.0</ele><time>2026-04-09T08:06:41Z</time></trkpt><trkpt lat="44.86751144984232" lon="8.672297626503722"><ele>99.0</ele><time>2026-04-09T08:06:42Z</time></trkpt><trkpt lat="44.86730786144104" lon="8.672255522689415"><ele>99.0</ele><time>2026-04-09T08:06:43Z</time></trkpt><trkpt lat="44.86710836579101" lon="8.67221870635223"><ele>99.0</ele><time>2026-04-09T08:06:44Z</time></trkpt><trkpt lat="44.866914842416726" lon="8.672175929146404"><ele>99.0</ele><time>2026-04-09T08:06:45Z</time></trkpt><trkpt lat="44.866724356810245" lon="8.672133462808944"><ele>99.0</ele><time>2026-04-09T08:06:46Z</time></trkpt><trkpt lat="44.86653468856735" lon="8.672097185042977"><ele>99.0</ele><time>2026-04-09T08:06:47Z</time></trkpt><trkpt lat="44.86634885584075" lon="8.672053046848792"><ele>99.0</ele><time>2026-04-09T08:06:48Z</time></trkpt><trkpt lat="44.86616709162907" lon="8.672011617622209"><ele>99.0</ele><time>2026-04-09T08:06:49Z</time></trkpt><trkpt lat="44.86598315513381" lon="8.671973980533878"><ele>99.0</ele><time>2026-04-09T08:06:50Z</time></trkpt><trkpt lat="44.8658012715208" lon="8.67194835742697"><ele>99.0</ele><time>2026-04-09T08:06:51Z</time></trkpt><trkpt lat="44.86561354544038" lon="8.671951811603712"><ele>99.33333333333334</ele><time>2026-04-09T08:06:52Z</time></trkpt><trkpt lat="44.865424229648056" lon="8.67198276108953"><ele>99.66666666666667</ele><time>2026-04-09T08:06:53Z</time></trkpt><trkpt lat="44.86523149011151" lon="8.672025060365943"><ele>100.0</ele><time>2026-04-09T08:06:54Z</time></trkpt><trkpt lat="44.865037316747646" lon="8.672061346311233"><ele>100.33333333333334</ele><time>2026-04-09T08:06:54.999Z</time></trkpt><trkpt lat="44.86484546906894" lon="8.672097454498484"><ele>100.66666666666666</ele><time>2026-04-09T08:06:55.999Z</time></trkpt><trkpt lat="44.864654485779994" lon="8.672138867985174"><ele>101.0</ele><time>2026-04-09T08:06:56.999Z</time></trkpt><trkpt lat="44.86446813263688" lon="8.672202420840636"><ele>101.0</ele><time>2026-04-09T08:06:57.999Z</time></trkpt><trkpt lat="44.86428247393589" lon="8.67229280055346"><ele>101.0</ele><time>2026-04-09T08:06:58.999Z</time></trkpt><trkpt lat="44.8640997520361" lon="8.67239367007278"><ele>101.0</ele><time>2026-04-09T08:06:59.999Z</time></trkpt><trkpt lat="44.86391860172004" lon="8.672494356433912"><ele>100.66666666666666</ele><time>2026-04-09T08:07:00.999Z</time></trkpt><trkpt lat="44.86373738431735" lon="8.672591004331407"><ele>100.33333333333334</ele><time>2026-04-09T08:07:01.999Z</time></trkpt><trkpt lat="44.8635594211705" lon="8.672687569613695"><ele>100.0</ele><time>2026-04-09T08:07:02.999Z</time></trkpt><trkpt lat="44.86338025232033" lon="8.672782216793486"><ele>100.0</ele><time>2026-04-09T08:07:03.999Z</time></trkpt><trkpt lat="44.863200801357735" lon="8.672879359446577"><ele>100.0</ele><time>2026-04-09T08:07:04.999Z</time></trkpt><trkpt lat="44.86301892948811" lon="8.672973312782888"><ele>100.0</ele><time>2026-04-09T08:07:05.999Z</time></trkpt><trkpt lat="44.8628361287138" lon="8.673074220402627"><ele>100.0</ele><time>2026-04-09T08:07:07Z</time></trkpt><trkpt lat="44.8626524994431" lon="8.67317632571864"><ele>100.0</ele><time>2026-04-09T08:07:08Z</time></trkpt><trkpt lat="44.862465803735994" lon="8.67327789636633"><ele>100.0</ele><time>2026-04-09T08:07:09Z</time></trkpt><trkpt lat="44.86227761498194" lon="8.673379034709445"><ele>100.0</ele><time>2026-04-09T08:07:10Z</time></trkpt><trkpt lat="44.862089461849976" lon="8.673480672949191"><ele>100.0</ele><time>2026-04-09T08:07:11Z</time></trkpt><trkpt lat="44.861901907664" lon="8.673581665252179"><ele>100.0</ele><time>2026-04-09T08:07:12Z</time></trkpt><trkpt lat="44.861714986346946" lon="8.673682407893006"><ele>100.0</ele><time>2026-04-09T08:07:13Z</time></trkpt><trkpt lat="44.86152730560288" lon="8.673782580183167"><ele>100.0</ele><time>2026-04-09T08:07:14Z</time></trkpt><trkpt lat="44.8613401675929" lon="8.673879487721765"><ele>100.0</ele><time>2026-04-09T08:07:15Z</time></trkpt><trkpt lat="44.86115346867568" lon="8.673978752905949"><ele>100.0</ele><time>2026-04-09T08:07:16Z</time></trkpt><trkpt lat="44.86096700374693" lon="8.674084173411964"><ele>100.0</ele><time>2026-04-09T08:07:17Z</time></trkpt><trkpt lat="44.860755359390545" lon="8.674172165165617"><ele>100.0</ele><time>2026-04-09T08:07:18Z</time></trkpt><trkpt lat="44.86053449545487" lon="8.67428960698044"><ele>100.5</ele><time>2026-04-09T08:07:19Z</time></trkpt><trkpt lat="44.860293415625854" lon="8.67441779834286"><ele>101.0</ele><time>2026-04-09T08:07:20Z</time></trkpt><trkpt lat="44.86003958526078" lon="8.674552769757105"><ele>101.0</ele><time>2026-04-09T08:07:21Z</time></trkpt><trkpt lat="44.85977580678261" lon="8.674716729380128"><ele>101.0</ele><time>2026-04-09T08:07:22Z</time></trkpt><trkpt lat="44.85951167744772" lon="8.674843502496318"><ele>101.0</ele><time>2026-04-09T08:07:23Z</time></trkpt><trkpt lat="44.859265942716654" lon="8.67496989375838"><ele>101.0</ele><time>2026-04-09T08:07:24Z</time></trkpt><trkpt lat="44.85903345568615" lon="8.675095572547882"><ele>101.0</ele><time>2026-04-09T08:07:25Z</time></trkpt><trkpt lat="44.8588111350463" lon="8.675216600333545"><ele>101.0</ele><time>2026-04-09T08:07:26Z</time></trkpt><trkpt lat="44.858599528007495" lon="8.675329657784483"><ele>101.33333333333333</ele><time>2026-04-09T08:07:27Z</time></trkpt><trkpt lat="44.8583914544107" lon="8.675438987295882"><ele>101.66666666666666</ele><time>2026-04-09T08:07:28Z</time></trkpt><trkpt lat="44.85818226719288" lon="8.675549362297772"><ele>102.0</ele><time>2026-04-09T08:07:29Z</time></trkpt><trkpt lat="44.85797478571125" lon="8.675659643164101"><ele>102.0</ele><time>2026-04-09T08:07:30Z</time></trkpt><trkpt lat="44.85777062059184" lon="8.675767475158608"><ele>102.0</ele><time>2026-04-09T08:07:31Z</time></trkpt><trkpt lat="44.85756403886609" lon="8.675871151303987"><ele>102.0</ele><time>2026-04-09T08:07:32Z</time></trkpt><trkpt lat="44.85734999703787" lon="8.675961102192163"><ele>102.0</ele><time>2026-04-09T08:07:33Z</time></trkpt><trkpt lat="44.857122937749885" lon="8.675997150742601"><ele>102.0</ele><time>2026-04-09T08:07:34Z</time></trkpt><trkpt lat="44.8568901251552" lon="8.676071361557854"><ele>102.5</ele><time>2026-04-09T08:07:35Z</time></trkpt><trkpt lat="44.85664023492285" lon="8.676113081516819"><ele>103.0</ele><time>2026-04-09T08:07:36Z</time></trkpt><trkpt lat="44.856382738012236" lon="8.676164507079507"><ele>103.0</ele><time>2026-04-09T08:07:37Z</time></trkpt><trkpt lat="44.856128672358864" lon="8.676221960833779"><ele>103.0</ele><time>2026-04-09T08:07:38Z</time></trkpt><trkpt lat="44.85587803809483" lon="8.676276572007824"><ele>103.5</ele><time>2026-04-09T08:07:39Z</time></trkpt><trkpt lat="44.85563400305318" lon="8.676329523699303"><ele>104.0</ele><time>2026-04-09T08:07:40Z</time></trkpt><trkpt lat="44.85539786991048" lon="8.676381751984412"><ele>104.0</ele><time>2026-04-09T08:07:41Z</time></trkpt><trkpt lat="44.85516731521304" lon="8.67643322800553"><ele>104.0</ele><time>2026-04-09T08:07:42Z</time></trkpt><trkpt lat="44.85493435680127" lon="8.676485675729348"><ele>104.5</ele><time>2026-04-09T08:07:43Z</time></trkpt><trkpt lat="44.85470073766306" lon="8.676540166248289"><ele>105.0</ele><time>2026-04-09T08:07:44Z</time></trkpt><trkpt lat="44.854470261216484" lon="8.676596317617534"><ele>106.0</ele><time>2026-04-09T08:07:45Z</time></trkpt><trkpt lat="44.85424155643369" lon="8.676653390283198"><ele>107.0</ele><time>2026-04-09T08:07:46Z</time></trkpt><trkpt lat="44.85401338829595" lon="8.676716784967521"><ele>107.0</ele><time>2026-04-09T08:07:47Z</time></trkpt><trkpt lat="44.85378610042652" lon="8.676789419665301"><ele>107.0</ele><time>2026-04-09T08:07:48Z</time></trkpt><trkpt lat="44.85355741427783" lon="8.67686408915929"><ele>106.0</ele><time>2026-04-09T08:07:49Z</time></trkpt><trkpt lat="44.85332609174683" lon="8.676943956317466"><ele>105.0</ele><time>2026-04-09T08:07:50Z</time></trkpt><trkpt lat="44.853101424948434" lon="8.6770178450245"><ele>105.0</ele><time>2026-04-09T08:07:51Z</time></trkpt><trkpt lat="44.85287671402012" lon="8.677086476960799"><ele>105.0</ele><time>2026-04-09T08:07:52Z</time></trkpt><trkpt lat="44.85266173781221" lon="8.677150113920382"><ele>105.0</ele><time>2026-04-09T08:07:53Z</time></trkpt><trkpt lat="44.85245968189572" lon="8.677199478360667"><ele>105.0</ele><time>2026-04-09T08:07:54Z</time></trkpt><trkpt lat="44.85225429372305" lon="8.677213835478643"><ele>105.0</ele><time>2026-04-09T08:07:55Z</time></trkpt><trkpt lat="44.852044185143825" lon="8.677203685981468"><ele>105.0</ele><time>2026-04-09T08:07:56Z</time></trkpt><trkpt lat="44.851831039931135" lon="8.677166720905477"><ele>105.0</ele><time>2026-04-09T08:07:57Z</time></trkpt><trkpt lat="44.85162551773652" lon="8.677104473978414"><ele>105.0</ele><time>2026-04-09T08:07:58Z</time></trkpt><trkpt lat="44.851438999070545" lon="8.67702495449008"><ele>105.0</ele><time>2026-04-09T08:07:59Z</time></trkpt><trkpt lat="44.85126561077352" lon="8.676936600631159"><ele>105.0</ele><time>2026-04-09T08:08:00Z</time></trkpt><trkpt lat="44.85110300403337" lon="8.676842398069999"><ele>105.0</ele><time>2026-04-09T08:08:01Z</time></trkpt><trkpt lat="44.850938784012484" lon="8.676752145576826"><ele>105.0</ele><time>2026-04-09T08:08:02Z</time></trkpt><trkpt lat="44.85076208031075" lon="8.676709452678738"><ele>105.0</ele><time>2026-04-09T08:08:03Z</time></trkpt><trkpt lat="44.85057235317296" lon="8.676716828680389"><ele>105.0</ele><time>2026-04-09T08:08:04Z</time></trkpt><trkpt lat="44.85037749229557" lon="8.676743540122866"><ele>105.0</ele><time>2026-04-09T08:08:05Z</time></trkpt><trkpt lat="44.85018314749757" lon="8.676784631468093"><ele>105.0</ele><time>2026-04-09T08:08:06Z</time></trkpt><trkpt lat="44.84998963856411" lon="8.676843139546376"><ele>105.0</ele><time>2026-04-09T08:08:07Z</time></trkpt><trkpt lat="44.84979006751581" lon="8.676913227407145"><ele>106.0</ele><time>2026-04-09T08:08:08Z</time></trkpt><trkpt lat="44.849588551139554" lon="8.676985377708878"><ele>107.0</ele><time>2026-04-09T08:08:09Z</time></trkpt><trkpt lat="44.84938972497034" lon="8.677052845086923"><ele>108.0</ele><time>2026-04-09T08:08:10Z</time></trkpt><trkpt lat="44.84920551503837" lon="8.677124084582083"><ele>108.0</ele><time>2026-04-09T08:08:11Z</time></trkpt><trkpt lat="44.84903590878257" lon="8.67719240017245"><ele>108.0</ele><time>2026-04-09T08:08:12Z</time></trkpt><trkpt lat="44.848871050638586" lon="8.677252895901175"><ele>108.0</ele><time>2026-04-09T08:08:13Z</time></trkpt><trkpt lat="44.848715990436595" lon="8.677308907390453"><ele>108.0</ele><time>2026-04-09T08:08:14Z</time></trkpt><trkpt lat="44.8485734945655" lon="8.677361473998808"><ele>108.0</ele><time>2026-04-09T08:08:15Z</time></trkpt><trkpt lat="44.848445456824344" lon="8.677410965097112"><ele>108.0</ele><time>2026-04-09T08:08:16Z</time></trkpt><trkpt lat="44.84833833664502" lon="8.677454501202465"><ele>108.0</ele><time>2026-04-09T08:08:17Z</time></trkpt><trkpt lat="44.84824692124723" lon="8.67748031213664"><ele>108.0</ele><time>2026-04-09T08:08:18Z</time></trkpt><trkpt lat="44.84816772367523" lon="8.677477523371032"><ele>108.0</ele><time>2026-04-09T08:08:19Z</time></trkpt><trkpt lat="44.848094518059355" lon="8.677440830505093"><ele>108.0</ele><time>2026-04-09T08:08:20Z</time></trkpt><trkpt lat="44.84803044554999" lon="8.677405357206416"><ele>108.0</ele><time>2026-04-09T08:08:21Z</time></trkpt><trkpt lat="44.84796233808172" lon="8.677420051520983"><ele>108.0</ele><time>2026-04-09T08:08:22Z</time></trkpt><trkpt lat="44.84790349706612" lon="8.677484113424283"><ele>108.0</ele><time>2026-04-09T08:08:23Z</time></trkpt><trkpt lat="44.84788139653508" lon="8.677569406846036"><ele>108.0</ele><time>2026-04-09T08:08:24Z</time></trkpt><trkpt lat="44.84789110724809" lon="8.677669223408211"><ele>108.0</ele><time>2026-04-09T08:08:25Z</time></trkpt><trkpt lat="44.84792161682083" lon="8.67778419180613"><ele>108.00000000000001</ele><time>2026-04-09T08:08:26Z</time></trkpt><trkpt lat="44.84792864995329" lon="8.677917631468317"><ele>108.00000000000001</ele><time>2026-04-09T08:08:27Z</time></trkpt><trkpt lat="44.84791354765564" lon="8.67808619556771"><ele>108.0</ele><time>2026-04-09T08:08:28Z</time></trkpt><trkpt lat="44.84788548738077" lon="8.67827922493354"><ele>108.0</ele><time>2026-04-09T08:08:29Z</time></trkpt><trkpt lat="44.847850082084236" lon="8.678477795476335"><ele>108.33333333333334</ele><time>2026-04-09T08:08:30Z</time></trkpt><trkpt lat="44.847811078409386" lon="8.67867335303606"><ele>108.66666666666667</ele><time>2026-04-09T08:08:31Z</time></trkpt><trkpt lat="44.84776959790289" lon="8.678902812056434"><ele>109.0</ele><time>2026-04-09T08:08:32Z</time></trkpt><trkpt lat="44.847729157567755" lon="8.679149754982943"><ele>109.0</ele><time>2026-04-09T08:08:33Z</time></trkpt><trkpt lat="44.847688907927875" lon="8.679408869383504"><ele>109.0</ele><time>2026-04-09T08:08:34Z</time></trkpt><trkpt lat="44.84764653191835" lon="8.679657277122942"><ele>109.0</ele><time>2026-04-09T08:08:35Z</time></trkpt><trkpt lat="44.84759915245681" lon="8.679916472882269"><ele>109.0</ele><time>2026-04-09T08:08:36Z</time></trkpt><trkpt lat="44.847548664946075" lon="8.68018542414355"><ele>109.0</ele><time>2026-04-09T08:08:37Z</time></trkpt><trkpt lat="44.84749801276507" lon="8.680463887524958"><ele>109.0</ele><time>2026-04-09T08:08:38Z</time></trkpt><trkpt lat="44.84745220764591" lon="8.680741470580479"><ele>109.0</ele><time>2026-04-09T08:08:39Z</time></trkpt><trkpt lat="44.847409236988206" lon="8.681011435454556"><ele>109.0</ele><time>2026-04-09T08:08:40Z</time></trkpt><trkpt lat="44.847366809067275" lon="8.681270510219475"><ele>109.0</ele><time>2026-04-09T08:08:41Z</time></trkpt><trkpt lat="44.84732464916189" lon="8.68151418181234"><ele>108.75</ele><time>2026-04-09T08:08:42Z</time></trkpt><trkpt lat="44.84727989024987" lon="8.681738005275994"><ele>108.5</ele><time>2026-04-09T08:08:43Z</time></trkpt><trkpt lat="44.84722754071419" lon="8.681926641375004"><ele>108.25</ele><time>2026-04-09T08:08:44Z</time></trkpt><trkpt lat="44.84716309291822" lon="8.682081830814113"><ele>108.0</ele><time>2026-04-09T08:08:45Z</time></trkpt><trkpt lat="44.84709926263512" lon="8.682204360500148"><ele>108.0</ele><time>2026-04-09T08:08:46Z</time></trkpt><trkpt lat="44.84703659055545" lon="8.682284979058675"><ele>108.00000000000001</ele><time>2026-04-09T08:08:47Z</time></trkpt><trkpt lat="44.84696909447229" lon="8.68232365118482"><ele>108.00000000000001</ele><time>2026-04-09T08:08:48Z</time></trkpt><trkpt lat="44.84689621990036" lon="8.682345590675544"><ele>108.0</ele><time>2026-04-09T08:08:49Z</time></trkpt><trkpt lat="44.84679823655383" lon="8.682467647860692"><ele>108.0</ele><time>2026-04-09T08:08:51Z</time></trkpt><trkpt lat="44.84677013837252" lon="8.682583947362167"><ele>108.25</ele><time>2026-04-09T08:08:52Z</time></trkpt><trkpt lat="44.84673881746952" lon="8.682720639839241"><ele>108.5</ele><time>2026-04-09T08:08:53Z</time></trkpt><trkpt lat="44.8466741129204" lon="8.682864610435104"><ele>108.75</ele><time>2026-04-09T08:08:54Z</time></trkpt><trkpt lat="44.846571651872935" lon="8.683006222003657"><ele>109.0</ele><time>2026-04-09T08:08:55Z</time></trkpt><trkpt lat="44.84645141126954" lon="8.683164668043252"><ele>109.33333333333334</ele><time>2026-04-09T08:08:56Z</time></trkpt><trkpt lat="44.8463393523124" lon="8.68331432025598"><ele>109.66666666666666</ele><time>2026-04-09T08:08:57Z</time></trkpt><trkpt lat="44.846214058123934" lon="8.683482037855262"><ele>110.0</ele><time>2026-04-09T08:08:58Z</time></trkpt><trkpt lat="44.84607662558105" lon="8.683664412756862"><ele>110.33333333333333</ele><time>2026-04-09T08:08:59Z</time></trkpt><trkpt lat="44.845932775918826" lon="8.683852960676887"><ele>110.66666666666666</ele><time>2026-04-09T08:09:00Z</time></trkpt><trkpt lat="44.84579839773152" lon="8.68403247732909"><ele>111.0</ele><time>2026-04-09T08:09:01Z</time></trkpt><trkpt lat="44.84565900837793" lon="8.684219530525146"><ele>111.0</ele><time>2026-04-09T08:09:02Z</time></trkpt><trkpt lat="44.84551593373177" lon="8.684415646727237"><ele>111.0</ele><time>2026-04-09T08:09:03Z</time></trkpt><trkpt lat="44.84536986898826" lon="8.684618144239876"><ele>111.0</ele><time>2026-04-09T08:09:03.999Z</time></trkpt><trkpt lat="44.84521753999149" lon="8.684826499464966"><ele>111.0</ele><time>2026-04-09T08:09:04.999Z</time></trkpt><trkpt lat="44.84506337396709" lon="8.685033966516933"><ele>111.0</ele><time>2026-04-09T08:09:05.999Z</time></trkpt><trkpt lat="44.844909979856816" lon="8.685238540769513"><ele>111.0</ele><time>2026-04-09T08:09:06.999Z</time></trkpt><trkpt lat="44.84476174489717" lon="8.685438381141763"><ele>111.0</ele><time>2026-04-09T08:09:07.999Z</time></trkpt><trkpt lat="44.84461765034659" lon="8.68563526775262"><ele>111.0</ele><time>2026-04-09T08:09:08.999Z</time></trkpt><trkpt lat="44.84447789526649" lon="8.685823551090971"><ele>111.0</ele><time>2026-04-09T08:09:09.999Z</time></trkpt><trkpt lat="44.8443432634042" lon="8.686001352140764"><ele>111.66666666666666</ele><time>2026-04-09T08:09:10.999Z</time></trkpt><trkpt lat="44.844219055966555" lon="8.686168048012924"><ele>112.33333333333333</ele><time>2026-04-09T08:09:11.999Z</time></trkpt><trkpt lat="44.844098697380744" lon="8.686328816995172"><ele>113.0</ele><time>2026-04-09T08:09:13Z</time></trkpt><trkpt lat="44.843990388652685" lon="8.6864764058999"><ele>113.0</ele><time>2026-04-09T08:09:14Z</time></trkpt><trkpt lat="44.84389084205823" lon="8.68661132358299"><ele>113.00000000000001</ele><time>2026-04-09T08:09:15Z</time></trkpt><trkpt lat="44.84380544642751" lon="8.686719321352532"><ele>113.00000000000001</ele><time>2026-04-09T08:09:16Z</time></trkpt><trkpt lat="44.84372647934757" lon="8.686795080879689"><ele>113.0</ele><time>2026-04-09T08:09:17Z</time></trkpt><trkpt lat="44.8436414364491" lon="8.686832271890635"><ele>113.0</ele><time>2026-04-09T08:09:18Z</time></trkpt><trkpt lat="44.84355852843003" lon="8.686830628867256"><ele>113.0</ele><time>2026-04-09T08:09:19Z</time></trkpt><trkpt lat="44.84347259738583" lon="8.686854673487954"><ele>113.00000000000001</ele><time>2026-04-09T08:09:20Z</time></trkpt><trkpt lat="44.84341054012597" lon="8.686942967076586"><ele>113.00000000000001</ele><time>2026-04-09T08:09:21Z</time></trkpt><trkpt lat="44.843378050004006" lon="8.687076347999035"><ele>113.0</ele><time>2026-04-09T08:09:22Z</time></trkpt><trkpt lat="44.8433991791338" lon="8.687226022787925"><ele>113.0</ele><time>2026-04-09T08:09:23Z</time></trkpt><trkpt lat="44.8433377069721" lon="8.687381389702281"><ele>113.25</ele><time>2026-04-09T08:09:24Z</time></trkpt><trkpt lat="44.8432639406206" lon="8.687538617380028"><ele>113.5</ele><time>2026-04-09T08:09:25Z</time></trkpt><trkpt lat="44.84317150853028" lon="8.687709165891281"><ele>113.75</ele><time>2026-04-09T08:09:26Z</time></trkpt><trkpt lat="44.84308216111098" lon="8.687874407256025"><ele>114.0</ele><time>2026-04-09T08:09:27Z</time></trkpt><trkpt lat="44.84298384260301" lon="8.688048192274612"><ele>114.33333333333334</ele><time>2026-04-09T08:09:28Z</time></trkpt><trkpt lat="44.84287758416785" lon="8.68823144374417"><ele>114.66666666666667</ele><time>2026-04-09T08:09:29Z</time></trkpt><trkpt lat="44.84276558764932" lon="8.688426603164096"><ele>115.0</ele><time>2026-04-09T08:09:30Z</time></trkpt><trkpt lat="44.84264958428172" lon="8.688624854805498"><ele>115.0</ele><time>2026-04-09T08:09:31Z</time></trkpt><trkpt lat="44.84253870130824" lon="8.688809849842917"><ele>115.0</ele><time>2026-04-09T08:09:32Z</time></trkpt><trkpt lat="44.84243115239336" lon="8.688989489349607"><ele>115.0</ele><time>2026-04-09T08:09:33Z</time></trkpt><trkpt lat="44.84232516174844" lon="8.689172674497494"><ele>115.0</ele><time>2026-04-09T08:09:34Z</time></trkpt><trkpt lat="44.84221738453205" lon="8.6893592817795"><ele>115.0</ele><time>2026-04-09T08:09:35Z</time></trkpt><trkpt lat="44.84210602998586" lon="8.689546434720661"><ele>115.0</ele><time>2026-04-09T08:09:36Z</time></trkpt><trkpt lat="44.84199300465065" lon="8.6897199924526"><ele>115.0</ele><time>2026-04-09T08:09:37Z</time></trkpt><trkpt lat="44.84187052736644" lon="8.689887141994658"><ele>115.0</ele><time>2026-04-09T08:09:38Z</time></trkpt><trkpt lat="44.8417396736483" lon="8.690050863815797"><ele>115.0</ele><time>2026-04-09T08:09:39Z</time></trkpt><trkpt lat="44.84160774658865" lon="8.690208444115827"><ele>115.0</ele><time>2026-04-09T08:09:40Z</time></trkpt><trkpt lat="44.84147828337139" lon="8.690351577060659"><ele>115.0</ele><time>2026-04-09T08:09:41Z</time></trkpt><trkpt lat="44.8413569191997" lon="8.690477046376136"><ele>115.0</ele><time>2026-04-09T08:09:42Z</time></trkpt><trkpt lat="44.84123934394246" lon="8.690587288645181"><ele>115.0</ele><time>2026-04-09T08:09:43Z</time></trkpt><trkpt lat="44.84113239032628" lon="8.690679459003084"><ele>115.0</ele><time>2026-04-09T08:09:44Z</time></trkpt><trkpt lat="44.8410318053477" lon="8.690763104489472"><ele>115.0</ele><time>2026-04-09T08:09:45Z</time></trkpt><trkpt lat="44.84093641710642" lon="8.690838949575133"><ele>115.0</ele><time>2026-04-09T08:09:46Z</time></trkpt><trkpt lat="44.84084591992086" lon="8.690903638232271"><ele>115.00000000000001</ele><time>2026-04-09T08:09:47Z</time></trkpt><trkpt lat="44.840762021396486" lon="8.690945375248148"><ele>115.0</ele><time>2026-04-09T08:09:48Z</time></trkpt><trkpt lat="44.84068478927428" lon="8.690956115309865"><ele>115.0</ele><time>2026-04-09T08:09:49Z</time></trkpt><trkpt lat="44.84061149669045" lon="8.690949124468155"><ele>115.0</ele><time>2026-04-09T08:09:50Z</time></trkpt><trkpt lat="44.84053697249908" lon="8.690948582243003"><ele>115.00000000000001</ele><time>2026-04-09T08:09:51Z</time></trkpt><trkpt lat="44.8404691168393" lon="8.690985520067805"><ele>115.0</ele><time>2026-04-09T08:09:52Z</time></trkpt><trkpt lat="44.8404150742877" lon="8.691038727765223"><ele>115.2</ele><time>2026-04-09T08:09:53Z</time></trkpt><trkpt lat="44.84036576713599" lon="8.691107542945923"><ele>115.4</ele><time>2026-04-09T08:09:54Z</time></trkpt><trkpt lat="44.84031163675055" lon="8.691186878259968"><ele>115.6</ele><time>2026-04-09T08:09:55Z</time></trkpt><trkpt lat="44.840233383647224" lon="8.691258229738864"><ele>115.8</ele><time>2026-04-09T08:09:56Z</time></trkpt><trkpt lat="44.8401270525233" lon="8.691302841551307"><ele>116.0</ele><time>2026-04-09T08:09:57Z</time></trkpt><trkpt lat="44.84000046656656" lon="8.691336599004421"><ele>116.0</ele><time>2026-04-09T08:09:58Z</time></trkpt><trkpt lat="44.839859865913574" lon="8.691375408191806"><ele>116.0</ele><time>2026-04-09T08:09:59Z</time></trkpt><trkpt lat="44.839704284642394" lon="8.691405434995843"><ele>116.0</ele><time>2026-04-09T08:10:00Z</time></trkpt><trkpt lat="44.839528505910074" lon="8.691410847689925"><ele>116.0</ele><time>2026-04-09T08:10:01Z</time></trkpt><trkpt lat="44.83933035776179" lon="8.691428032492691"><ele>116.0</ele><time>2026-04-09T08:10:02Z</time></trkpt><trkpt lat="44.839094790738166" lon="8.691441068066414"><ele>116.0</ele><time>2026-04-09T08:10:03Z</time></trkpt><trkpt lat="44.838832273092486" lon="8.69145327819079"><ele>116.5</ele><time>2026-04-09T08:10:04Z</time></trkpt><trkpt lat="44.83856456978648" lon="8.691465265248873"><ele>117.0</ele><time>2026-04-09T08:10:05Z</time></trkpt><trkpt lat="44.838311603303566" lon="8.691498388538527"><ele>117.5</ele><time>2026-04-09T08:10:06Z</time></trkpt><trkpt lat="44.83804692267153" lon="8.691507102076063"><ele>118.0</ele><time>2026-04-09T08:10:07Z</time></trkpt><trkpt lat="44.837789782230196" lon="8.691517322677653"><ele>117.0</ele><time>2026-04-09T08:10:08Z</time></trkpt><trkpt lat="44.837535261047826" lon="8.691532045293293"><ele>116.0</ele><time>2026-04-09T08:10:09Z</time></trkpt><trkpt lat="44.83727451707334" lon="8.691521313199623"><ele>116.0</ele><time>2026-04-09T08:10:10Z</time></trkpt><trkpt lat="44.837012164117965" lon="8.691533512758056"><ele>116.0</ele><time>2026-04-09T08:10:11Z</time></trkpt><trkpt lat="44.83675619991525" lon="8.691545415255348"><ele>116.5</ele><time>2026-04-09T08:10:12Z</time></trkpt><trkpt lat="44.83651797697979" lon="8.691577743439076"><ele>117.0</ele><time>2026-04-09T08:10:13Z</time></trkpt><trkpt lat="44.8363004991259" lon="8.691571457575272"><ele>117.0</ele><time>2026-04-09T08:10:14Z</time></trkpt><trkpt lat="44.83609683254203" lon="8.69157829507352"><ele>117.0</ele><time>2026-04-09T08:10:15Z</time></trkpt><trkpt lat="44.83590688763675" lon="8.69159191487745"><ele>117.0</ele><time>2026-04-09T08:10:16Z</time></trkpt><trkpt lat="44.83572204518691" lon="8.691599816696808"><ele>117.66666666666666</ele><time>2026-04-09T08:10:17Z</time></trkpt><trkpt lat="44.83555774234188" lon="8.691601502095981"><ele>118.33333333333333</ele><time>2026-04-09T08:10:18Z</time></trkpt><trkpt lat="44.83540165038659" lon="8.691589763042002"><ele>119.0</ele><time>2026-04-09T08:10:19Z</time></trkpt><trkpt lat="44.835249693911386" lon="8.69153801743793"><ele>119.66666666666666</ele><time>2026-04-09T08:10:20Z</time></trkpt><trkpt lat="44.83509938693205" lon="8.691473599300584"><ele>120.33333333333334</ele><time>2026-04-09T08:10:21Z</time></trkpt><trkpt lat="44.83495605124969" lon="8.691384991331773"><ele>121.0</ele><time>2026-04-09T08:10:22Z</time></trkpt><trkpt lat="44.83482646024501" lon="8.691250309127177"><ele>121.0</ele><time>2026-04-09T08:10:23Z</time></trkpt><trkpt lat="44.83469081354286" lon="8.69111566299233"><ele>121.0</ele><time>2026-04-09T08:10:24Z</time></trkpt><trkpt lat="44.834537457873765" lon="8.69098671739528"><ele>121.0</ele><time>2026-04-09T08:10:25Z</time></trkpt><trkpt lat="44.83439042673144" lon="8.690833736594358"><ele>120.66666666666667</ele><time>2026-04-09T08:10:26Z</time></trkpt><trkpt lat="44.83423419982782" lon="8.69068239794358"><ele>120.33333333333334</ele><time>2026-04-09T08:10:27Z</time></trkpt><trkpt lat="44.83408482127494" lon="8.690506997359702"><ele>120.0</ele><time>2026-04-09T08:10:28Z</time></trkpt><trkpt lat="44.833926003757874" lon="8.690370315606803"><ele>120.33333333333334</ele><time>2026-04-09T08:10:29Z</time></trkpt><trkpt lat="44.833783486809644" lon="8.690214002433853"><ele>120.66666666666667</ele><time>2026-04-09T08:10:30Z</time></trkpt><trkpt lat="44.83364898391992" lon="8.690054962770224"><ele>121.0</ele><time>2026-04-09T08:10:31Z</time></trkpt><trkpt lat="44.833533647991636" lon="8.689871327916334"><ele>121.0</ele><time>2026-04-09T08:10:32Z</time></trkpt><trkpt lat="44.83343297663173" lon="8.68965608922777"><ele>121.0</ele><time>2026-04-09T08:10:33Z</time></trkpt><trkpt lat="44.83334853259997" lon="8.689423381883849"><ele>121.0</ele><time>2026-04-09T08:10:34Z</time></trkpt><trkpt lat="44.83327612178664" lon="8.689167239035363"><ele>121.0</ele><time>2026-04-09T08:10:35Z</time></trkpt><trkpt lat="44.83322909132756" lon="8.688882154178142"><ele>121.0</ele><time>2026-04-09T08:10:36Z</time></trkpt><trkpt lat="44.83316944520292" lon="8.688588877425078"><ele>121.0</ele><time>2026-04-09T08:10:37Z</time></trkpt><trkpt lat="44.83309132533602" lon="8.68829146399633"><ele>121.0</ele><time>2026-04-09T08:10:38Z</time></trkpt><trkpt lat="44.83302930274174" lon="8.687973076509715"><ele>121.0</ele><time>2026-04-09T08:10:39Z</time></trkpt><trkpt lat="44.83296247500636" lon="8.68763597339441"><ele>120.5</ele><time>2026-04-09T08:10:40Z</time></trkpt><trkpt lat="44.83288997986316" lon="8.687273020961953"><ele>120.0</ele><time>2026-04-09T08:10:41Z</time></trkpt><trkpt lat="44.832818370433934" lon="8.686926324862439"><ele>119.5</ele><time>2026-04-09T08:10:42Z</time></trkpt><trkpt lat="44.83275257485281" lon="8.686605310546742"><ele>119.0</ele><time>2026-04-09T08:10:43Z</time></trkpt><trkpt lat="44.83269140392235" lon="8.686308907633045"><ele>119.0</ele><time>2026-04-09T08:10:44Z</time></trkpt><trkpt lat="44.83263328578363" lon="8.686025008889658"><ele>119.0</ele><time>2026-04-09T08:10:45Z</time></trkpt><trkpt lat="44.832573187432445" lon="8.685756740531831"><ele>119.0</ele><time>2026-04-09T08:10:46Z</time></trkpt><trkpt lat="44.83250539256207" lon="8.685499797307385"><ele>118.66666666666666</ele><time>2026-04-09T08:10:47Z</time></trkpt><trkpt lat="44.83244129476441" lon="8.685231020788132"><ele>118.33333333333334</ele><time>2026-04-09T08:10:48Z</time></trkpt><trkpt lat="44.832333542191904" lon="8.684999405561252"><ele>118.0</ele><time>2026-04-09T08:10:49Z</time></trkpt><trkpt lat="44.832218662020935" lon="8.684784144948127"><ele>118.0</ele><time>2026-04-09T08:10:50Z</time></trkpt><trkpt lat="44.8320820551154" lon="8.684589659796012"><ele>118.0</ele><time>2026-04-09T08:10:51Z</time></trkpt><trkpt lat="44.83192663199061" lon="8.684420717218838"><ele>118.0</ele><time>2026-04-09T08:10:52Z</time></trkpt><trkpt lat="44.83175726372875" lon="8.684277513117529"><ele>118.33333333333334</ele><time>2026-04-09T08:10:53Z</time></trkpt><trkpt lat="44.83157156175995" lon="8.684163182226655"><ele>118.66666666666666</ele><time>2026-04-09T08:10:54Z</time></trkpt><trkpt lat="44.83137299439182" lon="8.684078005113836"><ele>119.0</ele><time>2026-04-09T08:10:55Z</time></trkpt><trkpt lat="44.83116468191115" lon="8.684022720781249"><ele>118.66666666666666</ele><time>2026-04-09T08:10:56Z</time></trkpt><trkpt lat="44.830945552406504" lon="8.683991909306283"><ele>118.33333333333334</ele><time>2026-04-09T08:10:57Z</time></trkpt><trkpt lat="44.83072791468744" lon="8.68397660712319"><ele>118.0</ele><time>2026-04-09T08:10:58Z</time></trkpt><trkpt lat="44.83051452438094" lon="8.683962887742787"><ele>118.0</ele><time>2026-04-09T08:10:59Z</time></trkpt><trkpt lat="44.83029594079976" lon="8.683943954253852"><ele>118.0</ele><time>2026-04-09T08:11:00Z</time></trkpt><trkpt lat="44.83007888338828" lon="8.683922095826896"><ele>118.0</ele><time>2026-04-09T08:11:01Z</time></trkpt><trkpt lat="44.82986429761565" lon="8.683901536003818"><ele>118.33333333333334</ele><time>2026-04-09T08:11:02Z</time></trkpt><trkpt lat="44.8296504051523" lon="8.683881299819905"><ele>118.66666666666666</ele><time>2026-04-09T08:11:03Z</time></trkpt><trkpt lat="44.82943977980089" lon="8.683863021365177"><ele>119.0</ele><time>2026-04-09T08:11:04Z</time></trkpt><trkpt lat="44.82923284361343" lon="8.683845217028962"><ele>119.66666666666666</ele><time>2026-04-09T08:11:05Z</time></trkpt><trkpt lat="44.829036998364295" lon="8.683822300797067"><ele>120.33333333333334</ele><time>2026-04-09T08:11:06Z</time></trkpt><trkpt lat="44.82885198766591" lon="8.683784568159238"><ele>121.0</ele><time>2026-04-09T08:11:07Z</time></trkpt><trkpt lat="44.828670234961805" lon="8.6837348911775"><ele>121.0</ele><time>2026-04-09T08:11:08Z</time></trkpt><trkpt lat="44.82848950942794" lon="8.683672694174309"><ele>121.0</ele><time>2026-04-09T08:11:09Z</time></trkpt><trkpt lat="44.82831518707407" lon="8.683596097492028"><ele>121.0</ele><time>2026-04-09T08:11:10Z</time></trkpt><trkpt lat="44.82814248284559" lon="8.683504672998625"><ele>121.66666666666667</ele><time>2026-04-09T08:11:11Z</time></trkpt><trkpt lat="44.827975204942824" lon="8.683394529751311"><ele>122.33333333333334</ele><time>2026-04-09T08:11:11.999Z</time></trkpt><trkpt lat="44.827813023207675" lon="8.68326582127479"><ele>123.0</ele><time>2026-04-09T08:11:12.999Z</time></trkpt><trkpt lat="44.82765843021817" lon="8.683127746205125"><ele>123.0</ele><time>2026-04-09T08:11:13.999Z</time></trkpt><trkpt lat="44.82750675495462" lon="8.68299231720253"><ele>123.0</ele><time>2026-04-09T08:11:14.999Z</time></trkpt><trkpt lat="44.827354538511734" lon="8.682857737848444"><ele>123.0</ele><time>2026-04-09T08:11:15.999Z</time></trkpt><trkpt lat="44.82720376359791" lon="8.68272033536752"><ele>123.33333333333334</ele><time>2026-04-09T08:11:16.999Z</time></trkpt><trkpt lat="44.82705353945884" lon="8.682585859552251"><ele>123.66666666666667</ele><time>2026-04-09T08:11:17.999Z</time></trkpt><trkpt lat="44.82690567313123" lon="8.682454066407212"><ele>124.0</ele><time>2026-04-09T08:11:19Z</time></trkpt><trkpt lat="44.82676293701909" lon="8.682332703805734"><ele>123.5</ele><time>2026-04-09T08:11:20Z</time></trkpt><trkpt lat="44.826637244824006" lon="8.682224189054315"><ele>123.0</ele><time>2026-04-09T08:11:21Z</time></trkpt><trkpt lat="44.826518639132" lon="8.682124185061062"><ele>122.5</ele><time>2026-04-09T08:11:22Z</time></trkpt><trkpt lat="44.82641817055342" lon="8.682034184860726"><ele>122.0</ele><time>2026-04-09T08:11:23Z</time></trkpt><trkpt lat="44.82633062362047" lon="8.681951357770961"><ele>121.99999999999999</ele><time>2026-04-09T08:11:24Z</time></trkpt><trkpt lat="44.82627168261023" lon="8.681877445007933"><ele>122.0</ele><time>2026-04-09T08:11:25Z</time></trkpt><trkpt lat="44.82623502181093" lon="8.681791095984345"><ele>122.0</ele><time>2026-04-09T08:11:26Z</time></trkpt><trkpt lat="44.82620167129346" lon="8.681700172609574"><ele>122.0</ele><time>2026-04-09T08:11:27Z</time></trkpt><trkpt lat="44.82614510809425" lon="8.681613366541674"><ele>121.99999999999999</ele><time>2026-04-09T08:11:28Z</time></trkpt><trkpt lat="44.82605715383098" lon="8.681562134698618"><ele>122.0</ele><time>2026-04-09T08:11:29Z</time></trkpt><trkpt lat="44.82594370549936" lon="8.681533305312165"><ele>121.75</ele><time>2026-04-09T08:11:30Z</time></trkpt><trkpt lat="44.82581864762501" lon="8.681478016814557"><ele>121.5</ele><time>2026-04-09T08:11:31Z</time></trkpt><trkpt lat="44.82568803434284" lon="8.6813805608456"><ele>121.25</ele><time>2026-04-09T08:11:32Z</time></trkpt><trkpt lat="44.82556463466622" lon="8.681271435435086"><ele>121.0</ele><time>2026-04-09T08:11:33Z</time></trkpt><trkpt lat="44.82544499809314" lon="8.681165887986184"><ele>121.25</ele><time>2026-04-09T08:11:34Z</time></trkpt><trkpt lat="44.82532678795131" lon="8.681058575457538"><ele>121.5</ele><time>2026-04-09T08:11:35Z</time></trkpt><trkpt lat="44.82521938610491" lon="8.680962865887077"><ele>121.75</ele><time>2026-04-09T08:11:36Z</time></trkpt><trkpt lat="44.82510424079297" lon="8.680857524041402"><ele>122.0</ele><time>2026-04-09T08:11:37Z</time></trkpt><trkpt lat="44.82498177660724" lon="8.680763898865383"><ele>122.5</ele><time>2026-04-09T08:11:38Z</time></trkpt><trkpt lat="44.82485223707337" lon="8.68068558992585"><ele>123.0</ele><time>2026-04-09T08:11:39Z</time></trkpt><trkpt lat="44.824717315031776" lon="8.680611566102513"><ele>123.5</ele><time>2026-04-09T08:11:40Z</time></trkpt><trkpt lat="44.82458087763999" lon="8.680541283906706"><ele>124.0</ele><time>2026-04-09T08:11:41Z</time></trkpt><trkpt lat="44.82444857846394" lon="8.680479862518283"><ele>124.0</ele><time>2026-04-09T08:11:42Z</time></trkpt><trkpt lat="44.824328305955454" lon="8.680431255845935"><ele>124.0</ele><time>2026-04-09T08:11:43Z</time></trkpt><trkpt lat="44.824225736516766" lon="8.6803969858495"><ele>124.0</ele><time>2026-04-09T08:11:44Z</time></trkpt><trkpt lat="44.82414732615804" lon="8.680371366314532"><ele>124.0</ele><time>2026-04-09T08:11:45Z</time></trkpt><trkpt lat="44.824082021975364" lon="8.680351475568111"><ele>124.0</ele><time>2026-04-09T08:11:46Z</time></trkpt><trkpt lat="44.82398230604609" lon="8.680333251881239"><ele>124.16666666666667</ele><time>2026-04-09T08:11:48Z</time></trkpt><trkpt lat="44.82389637737276" lon="8.680316688084009"><ele>124.33333333333334</ele><time>2026-04-09T08:11:50Z</time></trkpt><trkpt lat="44.82382917951386" lon="8.6802902047829"><ele>124.5</ele><time>2026-04-09T08:11:54Z</time></trkpt><trkpt lat="44.82374692080524" lon="8.680289769209404"><ele>124.66666666666666</ele><time>2026-04-09T08:12:19Z</time></trkpt><trkpt lat="44.82365329599232" lon="8.680258825569165"><ele>124.83333333333333</ele><time>2026-04-09T08:12:20Z</time></trkpt><trkpt lat="44.82355457889347" lon="8.68022629353695"><ele>125.0</ele><time>2026-04-09T08:12:21Z</time></trkpt><trkpt lat="44.823451383281565" lon="8.680193353150333"><ele>124.5</ele><time>2026-04-09T08:12:22Z</time></trkpt><trkpt lat="44.82333707113085" lon="8.68017871816264"><ele>124.0</ele><time>2026-04-09T08:12:23Z</time></trkpt><trkpt lat="44.82321345217857" lon="8.680171246259968"><ele>123.5</ele><time>2026-04-09T08:12:24Z</time></trkpt><trkpt lat="44.82308945845588" lon="8.680171943379639"><ele>123.0</ele><time>2026-04-09T08:12:25Z</time></trkpt><trkpt lat="44.82295792678938" lon="8.68017962426581"><ele>123.0</ele><time>2026-04-09T08:12:26Z</time></trkpt><trkpt lat="44.82281870173284" lon="8.680199128969722"><ele>123.0</ele><time>2026-04-09T08:12:27Z</time></trkpt><trkpt lat="44.82267683877951" lon="8.680235376880834"><ele>123.0</ele><time>2026-04-09T08:12:28Z</time></trkpt><trkpt lat="44.82253173146596" lon="8.680296408447425"><ele>123.0</ele><time>2026-04-09T08:12:29Z</time></trkpt><trkpt lat="44.82238742898317" lon="8.680378155869704"><ele>123.0</ele><time>2026-04-09T08:12:30Z</time></trkpt><trkpt lat="44.82224331651248" lon="8.680467337002758"><ele>123.0</ele><time>2026-04-09T08:12:31Z</time></trkpt><trkpt lat="44.82210379440172" lon="8.68055698849298"><ele>123.0</ele><time>2026-04-09T08:12:32Z</time></trkpt><trkpt lat="44.82195933312617" lon="8.680650906904834"><ele>122.33333333333334</ele><time>2026-04-09T08:12:33Z</time></trkpt><trkpt lat="44.82181509241396" lon="8.680746674763803"><ele>121.66666666666667</ele><time>2026-04-09T08:12:34Z</time></trkpt><trkpt lat="44.82167211383875" lon="8.680845120300663"><ele>121.0</ele><time>2026-04-09T08:12:35Z</time></trkpt><trkpt lat="44.82153116530474" lon="8.680942355009739"><ele>121.0</ele><time>2026-04-09T08:12:36Z</time></trkpt><trkpt lat="44.821390054879785" lon="8.681038012008868"><ele>121.0</ele><time>2026-04-09T08:12:37Z</time></trkpt><trkpt lat="44.82124773995923" lon="8.681134192630942"><ele>121.0</ele><time>2026-04-09T08:12:38Z</time></trkpt><trkpt lat="44.821102375572956" lon="8.681227263967223"><ele>121.33333333333334</ele><time>2026-04-09T08:12:39Z</time></trkpt><trkpt lat="44.82095678454266" lon="8.681328470675075"><ele>121.66666666666666</ele><time>2026-04-09T08:12:40Z</time></trkpt><trkpt lat="44.820809824987855" lon="8.681432364143218"><ele>122.0</ele><time>2026-04-09T08:12:41Z</time></trkpt><trkpt lat="44.8206623662837" lon="8.681535805772876"><ele>122.0</ele><time>2026-04-09T08:12:42Z</time></trkpt><trkpt lat="44.82051865811914" lon="8.681637118325593"><ele>122.0</ele><time>2026-04-09T08:12:43Z</time></trkpt><trkpt lat="44.82038221594141" lon="8.681729819038809"><ele>122.0</ele><time>2026-04-09T08:12:44Z</time></trkpt><trkpt lat="44.820243611686195" lon="8.681822071285335"><ele>122.25</ele><time>2026-04-09T08:12:45Z</time></trkpt><trkpt lat="44.82010837526516" lon="8.681920598837735"><ele>122.5</ele><time>2026-04-09T08:12:46Z</time></trkpt><trkpt lat="44.819977128986714" lon="8.682007376569047"><ele>122.75</ele><time>2026-04-09T08:12:47Z</time></trkpt><trkpt lat="44.81985550054773" lon="8.682094838611768"><ele>123.0</ele><time>2026-04-09T08:12:48Z</time></trkpt><trkpt lat="44.81973985641178" lon="8.682175133492134"><ele>123.2</ele><time>2026-04-09T08:12:49Z</time></trkpt><trkpt lat="44.81962972651756" lon="8.682251131948885"><ele>123.4</ele><time>2026-04-09T08:12:50Z</time></trkpt><trkpt lat="44.81953136931004" lon="8.682315567651049"><ele>123.60000000000001</ele><time>2026-04-09T08:12:51Z</time></trkpt><trkpt lat="44.81943548307824" lon="8.68236222869173"><ele>123.80000000000001</ele><time>2026-04-09T08:12:52Z</time></trkpt><trkpt lat="44.81934605940329" lon="8.682392042849221"><ele>124.0</ele><time>2026-04-09T08:12:53Z</time></trkpt><trkpt lat="44.81925571751642" lon="8.682440851032105"><ele>124.0</ele><time>2026-04-09T08:12:54Z</time></trkpt><trkpt lat="44.81916847191211" lon="8.682533158960798"><ele>124.0</ele><time>2026-04-09T08:12:55Z</time></trkpt><trkpt lat="44.81907054472422" lon="8.68263564078796"><ele>124.0</ele><time>2026-04-09T08:12:56Z</time></trkpt><trkpt lat="44.81895687448483" lon="8.68272634385235"><ele>124.0</ele><time>2026-04-09T08:12:57Z</time></trkpt><trkpt lat="44.81884258461306" lon="8.682807096664837"><ele>124.25</ele><time>2026-04-09T08:12:58Z</time></trkpt><trkpt lat="44.8187288685927" lon="8.682883223854134"><ele>124.5</ele><time>2026-04-09T08:12:59Z</time></trkpt><trkpt lat="44.818616983515774" lon="8.68297312680739"><ele>124.75</ele><time>2026-04-09T08:13:00Z</time></trkpt><trkpt lat="44.81850970743554" lon="8.683070290228367"><ele>125.0</ele><time>2026-04-09T08:13:01Z</time></trkpt><trkpt lat="44.81840245092781" lon="8.683177722505423"><ele>125.0</ele><time>2026-04-09T08:13:02Z</time></trkpt><trkpt lat="44.81829239735511" lon="8.683285280181954"><ele>125.0</ele><time>2026-04-09T08:13:03Z</time></trkpt><trkpt lat="44.818183407834525" lon="8.68339018460132"><ele>125.0</ele><time>2026-04-09T08:13:04Z</time></trkpt><trkpt lat="44.81807085633873" lon="8.683489378746819"><ele>125.0</ele><time>2026-04-09T08:13:05Z</time></trkpt><trkpt lat="44.817959082814326" lon="8.683598148425883"><ele>124.75</ele><time>2026-04-09T08:13:06Z</time></trkpt><trkpt lat="44.81784861197166" lon="8.683711609749793"><ele>124.5</ele><time>2026-04-09T08:13:07Z</time></trkpt><trkpt lat="44.81773994902938" lon="8.683827584228283"><ele>124.25</ele><time>2026-04-09T08:13:08Z</time></trkpt><trkpt lat="44.81763426102591" lon="8.68394333490543"><ele>124.0</ele><time>2026-04-09T08:13:09Z</time></trkpt><trkpt lat="44.81752685149768" lon="8.684062686036375"><ele>124.5</ele><time>2026-04-09T08:13:10Z</time></trkpt><trkpt lat="44.81741463261193" lon="8.684185234100553"><ele>125.0</ele><time>2026-04-09T08:13:11Z</time></trkpt><trkpt lat="44.8172989846109" lon="8.684306255925883"><ele>125.5</ele><time>2026-04-09T08:13:12Z</time></trkpt><trkpt lat="44.81718261030511" lon="8.684431733051222"><ele>126.0</ele><time>2026-04-09T08:13:13Z</time></trkpt><trkpt lat="44.81706331571553" lon="8.684560347045418"><ele>126.0</ele><time>2026-04-09T08:13:13.999Z</time></trkpt><trkpt lat="44.81694060100472" lon="8.684691819946396"><ele>126.0</ele><time>2026-04-09T08:13:14.999Z</time></trkpt><trkpt lat="44.81681648181583" lon="8.684825220102866"><ele>126.0</ele><time>2026-04-09T08:13:15.999Z</time></trkpt><trkpt lat="44.8166897004929" lon="8.68495747364593"><ele>125.66666666666666</ele><time>2026-04-09T08:13:16.999Z</time></trkpt><trkpt lat="44.8165607489767" lon="8.685085033343986"><ele>125.33333333333333</ele><time>2026-04-09T08:13:17.999Z</time></trkpt><trkpt lat="44.816432227010885" lon="8.685214181145941"><ele>125.0</ele><time>2026-04-09T08:13:18.999Z</time></trkpt><trkpt lat="44.81630341493628" lon="8.685341795501925"><ele>125.33333333333333</ele><time>2026-04-09T08:13:19.999Z</time></trkpt><trkpt lat="44.81617904335112" lon="8.685476742876343"><ele>125.66666666666666</ele><time>2026-04-09T08:13:20.999Z</time></trkpt><trkpt lat="44.81605568091996" lon="8.685609405095176"><ele>126.0</ele><time>2026-04-09T08:13:21.999Z</time></trkpt><trkpt lat="44.81593010921857" lon="8.685735002156774"><ele>126.0</ele><time>2026-04-09T08:13:22.999Z</time></trkpt><trkpt lat="44.81580301574783" lon="8.685857633902858"><ele>126.0</ele><time>2026-04-09T08:13:23.999Z</time></trkpt><trkpt lat="44.81567541644409" lon="8.685976262320386"><ele>126.0</ele><time>2026-04-09T08:13:25Z</time></trkpt><trkpt lat="44.81554953033016" lon="8.68609193675284"><ele>126.0</ele><time>2026-04-09T08:13:26Z</time></trkpt><trkpt lat="44.81541612220639" lon="8.68619756024664"><ele>126.0</ele><time>2026-04-09T08:13:27Z</time></trkpt><trkpt lat="44.81528008003891" lon="8.686283518032383"><ele>126.0</ele><time>2026-04-09T08:13:28Z</time></trkpt><trkpt lat="44.81513683927187" lon="8.686360169948486"><ele>125.33333333333334</ele><time>2026-04-09T08:13:29Z</time></trkpt><trkpt lat="44.8149933156972" lon="8.686426723532808"><ele>124.66666666666667</ele><time>2026-04-09T08:13:30Z</time></trkpt><trkpt lat="44.814848336501065" lon="8.686491802623072"><ele>124.0</ele><time>2026-04-09T08:13:31Z</time></trkpt><trkpt lat="44.814703880093056" lon="8.686555204681252"><ele>124.0</ele><time>2026-04-09T08:13:32Z</time></trkpt><trkpt lat="44.81455921428672" lon="8.686614007817372"><ele>124.0</ele><time>2026-04-09T08:13:33Z</time></trkpt><trkpt lat="44.81441318532041" lon="8.686670421040228"><ele>124.0</ele><time>2026-04-09T08:13:34Z</time></trkpt><trkpt lat="44.8142670682117" lon="8.68672894858688"><ele>124.66666666666667</ele><time>2026-04-09T08:13:35Z</time></trkpt><trkpt lat="44.81412180610433" lon="8.686791727835963"><ele>125.33333333333334</ele><time>2026-04-09T08:13:36Z</time></trkpt><trkpt lat="44.813977092896785" lon="8.686858933700805"><ele>126.0</ele><time>2026-04-09T08:13:37Z</time></trkpt><trkpt lat="44.813835774577" lon="8.686938166135056"><ele>126.0</ele><time>2026-04-09T08:13:38Z</time></trkpt><trkpt lat="44.81370123169869" lon="8.687028666010418"><ele>126.0</ele><time>2026-04-09T08:13:39Z</time></trkpt><trkpt lat="44.81356560459048" lon="8.68712351520312"><ele>126.0</ele><time>2026-04-09T08:13:40Z</time></trkpt><trkpt lat="44.813431977797755" lon="8.687225625492838"><ele>126.66666666666666</ele><time>2026-04-09T08:13:41Z</time></trkpt><trkpt lat="44.813300017276774" lon="8.68733743790328"><ele>127.33333333333333</ele><time>2026-04-09T08:13:42Z</time></trkpt><trkpt lat="44.813167208876926" lon="8.687453072263594"><ele>128.0</ele><time>2026-04-09T08:13:43Z</time></trkpt><trkpt lat="44.81303662485909" lon="8.687570956548706"><ele>128.0</ele><time>2026-04-09T08:13:44Z</time></trkpt><trkpt lat="44.812902340656834" lon="8.687695589940365"><ele>128.0</ele><time>2026-04-09T08:13:45Z</time></trkpt><trkpt lat="44.812766547218956" lon="8.687820225643032"><ele>128.0</ele><time>2026-04-09T08:13:46Z</time></trkpt><trkpt lat="44.81262268483133" lon="8.687945402108179"><ele>127.66666666666666</ele><time>2026-04-09T08:13:47Z</time></trkpt><trkpt lat="44.81248184549808" lon="8.688077811476973"><ele>127.33333333333334</ele><time>2026-04-09T08:13:48Z</time></trkpt><trkpt lat="44.81232958272782" lon="8.688216681546042"><ele>127.0</ele><time>2026-04-09T08:13:49Z</time></trkpt><trkpt lat="44.81216697595439" lon="8.688361131639587"><ele>127.0</ele><time>2026-04-09T08:13:50Z</time></trkpt><trkpt lat="44.811987564859564" lon="8.688528034766897"><ele>127.0</ele><time>2026-04-09T08:13:51Z</time></trkpt><trkpt lat="44.81178846896532" lon="8.688715000300505"><ele>128.0</ele><time>2026-04-09T08:13:52Z</time></trkpt><trkpt lat="44.811582071255145" lon="8.688917703732756"><ele>129.0</ele><time>2026-04-09T08:13:53Z</time></trkpt><trkpt lat="44.811384241849076" lon="8.68911965802479"><ele>129.0</ele><time>2026-04-09T08:13:54Z</time></trkpt><trkpt lat="44.811191674597815" lon="8.68932809394766"><ele>129.0</ele><time>2026-04-09T08:13:55Z</time></trkpt><trkpt lat="44.811003699178656" lon="8.68954103732994"><ele>128.5</ele><time>2026-04-09T08:13:56Z</time></trkpt><trkpt lat="44.81081753554149" lon="8.689751088282598"><ele>128.0</ele><time>2026-04-09T08:13:57Z</time></trkpt><trkpt lat="44.810636374896" lon="8.689958199819126"><ele>128.0</ele><time>2026-04-09T08:13:58Z</time></trkpt><trkpt lat="44.81045665985022" lon="8.690162919265385"><ele>128.0</ele><time>2026-04-09T08:13:59Z</time></trkpt><trkpt lat="44.81027921448477" lon="8.690366424847609"><ele>129.0</ele><time>2026-04-09T08:14:00Z</time></trkpt><trkpt lat="44.81010187000202" lon="8.690564471128074"><ele>130.0</ele><time>2026-04-09T08:14:01Z</time></trkpt><trkpt lat="44.80992086435585" lon="8.690752383395795"><ele>130.0</ele><time>2026-04-09T08:14:02Z</time></trkpt><trkpt lat="44.809735643479115" lon="8.690927773262757"><ele>130.0</ele><time>2026-04-09T08:14:03Z</time></trkpt><trkpt lat="44.80953643335241" lon="8.69107355383699"><ele>130.0</ele><time>2026-04-09T08:14:04Z</time></trkpt><trkpt lat="44.80932699252062" lon="8.691183854888754"><ele>131.0</ele><time>2026-04-09T08:14:05Z</time></trkpt><trkpt lat="44.80911253139172" lon="8.69127655830969"><ele>132.0</ele><time>2026-04-09T08:14:06Z</time></trkpt><trkpt lat="44.80889070002961" lon="8.691351830424164"><ele>132.0</ele><time>2026-04-09T08:14:07Z</time></trkpt><trkpt lat="44.80866756523729" lon="8.691420391277775"><ele>132.0</ele><time>2026-04-09T08:14:08Z</time></trkpt><trkpt lat="44.80844436320535" lon="8.691492900626328"><ele>131.66666666666666</ele><time>2026-04-09T08:14:09Z</time></trkpt><trkpt lat="44.80822818152351" lon="8.691568241294403"><ele>131.33333333333331</ele><time>2026-04-09T08:14:10Z</time></trkpt><trkpt lat="44.80801644128416" lon="8.691636968281621"><ele>131.0</ele><time>2026-04-09T08:14:11Z</time></trkpt><trkpt lat="44.80781603194397" lon="8.691707199742792"><ele>131.33333333333331</ele><time>2026-04-09T08:14:12Z</time></trkpt><trkpt lat="44.80762126283537" lon="8.69176179005182"><ele>131.66666666666666</ele><time>2026-04-09T08:14:13Z</time></trkpt><trkpt lat="44.80743196674532" lon="8.691810704069702"><ele>132.0</ele><time>2026-04-09T08:14:14Z</time></trkpt><trkpt lat="44.80723859567093" lon="8.69183649781847"><ele>132.0</ele><time>2026-04-09T08:14:15Z</time></trkpt><trkpt lat="44.80704296279096" lon="8.691836145272232"><ele>132.0</ele><time>2026-04-09T08:14:16Z</time></trkpt><trkpt lat="44.80684659973117" lon="8.691818764112464"><ele>132.0</ele><time>2026-04-09T08:14:17Z</time></trkpt><trkpt lat="44.80664924310948" lon="8.691779439975592"><ele>132.33333333333334</ele><time>2026-04-09T08:14:18Z</time></trkpt><trkpt lat="44.80644795932904" lon="8.691715587543916"><ele>132.66666666666669</ele><time>2026-04-09T08:14:19Z</time></trkpt><trkpt lat="44.806241550959236" lon="8.691627558172636"><ele>133.0</ele><time>2026-04-09T08:14:20Z</time></trkpt><trkpt lat="44.806032088797075" lon="8.691536273446168"><ele>133.0</ele><time>2026-04-09T08:14:21Z</time></trkpt><trkpt lat="44.80581514885214" lon="8.691445533387565"><ele>133.0</ele><time>2026-04-09T08:14:22Z</time></trkpt><trkpt lat="44.80558990742135" lon="8.691353898933068"><ele>133.0</ele><time>2026-04-09T08:14:23Z</time></trkpt><trkpt lat="44.80536958402914" lon="8.691261563311508"><ele>133.0</ele><time>2026-04-09T08:14:24Z</time></trkpt><trkpt lat="44.80516038549439" lon="8.691170763097121"><ele>133.0</ele><time>2026-04-09T08:14:25Z</time></trkpt><trkpt lat="44.80494262306548" lon="8.691083462199"><ele>133.0</ele><time>2026-04-09T08:14:26Z</time></trkpt><trkpt lat="44.80472427743397" lon="8.690994179724116"><ele>133.0</ele><time>2026-04-09T08:14:27Z</time></trkpt><trkpt lat="44.80450556972493" lon="8.690905253097014"><ele>132.5</ele><time>2026-04-09T08:14:28Z</time></trkpt><trkpt lat="44.80428251869466" lon="8.690821027942524"><ele>132.0</ele><time>2026-04-09T08:14:29Z</time></trkpt><trkpt lat="44.80405291621485" lon="8.690742707706205"><ele>132.0</ele><time>2026-04-09T08:14:30Z</time></trkpt><trkpt lat="44.80382038732175" lon="8.690663617948982"><ele>132.0</ele><time>2026-04-09T08:14:31Z</time></trkpt><trkpt lat="44.803581112661014" lon="8.690580757708737"><ele>132.0</ele><time>2026-04-09T08:14:32Z</time></trkpt><trkpt lat="44.80333360981726" lon="8.690492429142006"><ele>132.0</ele><time>2026-04-09T08:14:33Z</time></trkpt><trkpt lat="44.80307532703848" lon="8.690402766034616"><ele>132.0</ele><time>2026-04-09T08:14:34Z</time></trkpt><trkpt lat="44.80282976404394" lon="8.690318044834061"><ele>132.0</ele><time>2026-04-09T08:14:35Z</time></trkpt><trkpt lat="44.80258506947205" lon="8.690236585403468"><ele>132.0</ele><time>2026-04-09T08:14:36Z</time></trkpt><trkpt lat="44.80233881746056" lon="8.690153575863047"><ele>132.0</ele><time>2026-04-09T08:14:37Z</time></trkpt><trkpt lat="44.80209160580295" lon="8.69006897360219"><ele>132.0</ele><time>2026-04-09T08:14:38Z</time></trkpt><trkpt lat="44.801843052246824" lon="8.68998255181269"><ele>132.0</ele><time>2026-04-09T08:14:39Z</time></trkpt><trkpt lat="44.801594287045894" lon="8.689894740683004"><ele>132.0</ele><time>2026-04-09T08:14:40Z</time></trkpt><trkpt lat="44.80134237687059" lon="8.689806100800757"><ele>132.0</ele><time>2026-04-09T08:14:41Z</time></trkpt><trkpt lat="44.80108732676152" lon="8.68971871299282"><ele>132.5</ele><time>2026-04-09T08:14:42Z</time></trkpt><trkpt lat="44.80083119252474" lon="8.689632001013967"><ele>133.0</ele><time>2026-04-09T08:14:43Z</time></trkpt><trkpt lat="44.80057176352539" lon="8.6895486352414"><ele>133.0</ele><time>2026-04-09T08:14:44Z</time></trkpt><trkpt lat="44.800313747117805" lon="8.689461638965836"><ele>133.0</ele><time>2026-04-09T08:14:45Z</time></trkpt><trkpt lat="44.800055931559484" lon="8.689374199054331"><ele>133.5</ele><time>2026-04-09T08:14:46Z</time></trkpt><trkpt lat="44.79979647130015" lon="8.689283154180306"><ele>134.0</ele><time>2026-04-09T08:14:47Z</time></trkpt><trkpt lat="44.79953654667394" lon="8.689194724683224"><ele>133.5</ele><time>2026-04-09T08:14:48Z</time></trkpt><trkpt lat="44.7992743478527" lon="8.689105457697634"><ele>133.0</ele><time>2026-04-09T08:14:49Z</time></trkpt><trkpt lat="44.79900986183999" lon="8.689016392867494"><ele>133.0</ele><time>2026-04-09T08:14:50Z</time></trkpt><trkpt lat="44.7987429166419" lon="8.688929728843778"><ele>133.0</ele><time>2026-04-09T08:14:51Z</time></trkpt><trkpt lat="44.798477056189505" lon="8.688842358605935"><ele>133.5</ele><time>2026-04-09T08:14:52Z</time></trkpt><trkpt lat="44.79821492609584" lon="8.688755674001216"><ele>134.0</ele><time>2026-04-09T08:14:53Z</time></trkpt><trkpt lat="44.797954373718404" lon="8.688666919304309"><ele>133.5</ele><time>2026-04-09T08:14:54Z</time></trkpt><trkpt lat="44.79769243925519" lon="8.688578863605343"><ele>133.0</ele><time>2026-04-09T08:14:55Z</time></trkpt><trkpt lat="44.79743173997363" lon="8.688492283638228"><ele>134.0</ele><time>2026-04-09T08:14:56Z</time></trkpt><trkpt lat="44.79717378813105" lon="8.688406742639206"><ele>135.0</ele><time>2026-04-09T08:14:57Z</time></trkpt><trkpt lat="44.796917150414075" lon="8.688321995682594"><ele>134.5</ele><time>2026-04-09T08:14:58Z</time></trkpt><trkpt lat="44.79666951217955" lon="8.68823984719346"><ele>134.0</ele><time>2026-04-09T08:14:59Z</time></trkpt><trkpt lat="44.79643842345725" lon="8.688164571630304"><ele>134.0</ele><time>2026-04-09T08:15:00Z</time></trkpt><trkpt lat="44.796216224697005" lon="8.688094362739548"><ele>134.0</ele><time>2026-04-09T08:15:01Z</time></trkpt><trkpt lat="44.79599139436511" lon="8.68802402517752"><ele>135.0</ele><time>2026-04-09T08:15:02Z</time></trkpt><trkpt lat="44.79576737793575" lon="8.687955161416768"><ele>136.0</ele><time>2026-04-09T08:15:03Z</time></trkpt><trkpt lat="44.79554307063474" lon="8.687882409922674"><ele>136.0</ele><time>2026-04-09T08:15:04Z</time></trkpt><trkpt lat="44.795332016591836" lon="8.687819106306282"><ele>136.0</ele><time>2026-04-09T08:15:05Z</time></trkpt><trkpt lat="44.7951321383853" lon="8.687736839803447"><ele>136.0</ele><time>2026-04-09T08:15:06Z</time></trkpt><trkpt lat="44.79493989931447" lon="8.687673777626998"><ele>135.0</ele><time>2026-04-09T08:15:07Z</time></trkpt><trkpt lat="44.79475078590213" lon="8.687621588741305"><ele>134.0</ele><time>2026-04-09T08:15:08Z</time></trkpt><trkpt lat="44.79455948034786" lon="8.687595499990392"><ele>133.0</ele><time>2026-04-09T08:15:09Z</time></trkpt><trkpt lat="44.7943647635364" lon="8.687567144437487"><ele>131.33333333333334</ele><time>2026-04-09T08:15:10Z</time></trkpt><trkpt lat="44.79416179575637" lon="8.687580232762588"><ele>129.66666666666666</ele><time>2026-04-09T08:15:11Z</time></trkpt><trkpt lat="44.79395563659016" lon="8.687604048222438"><ele>128.0</ele><time>2026-04-09T08:15:12Z</time></trkpt><trkpt lat="44.79374037749753" lon="8.687641544441313"><ele>128.0</ele><time>2026-04-09T08:15:13Z</time></trkpt><trkpt lat="44.79351873549942" lon="8.687678289764147"><ele>128.0</ele><time>2026-04-09T08:15:14Z</time></trkpt><trkpt lat="44.793302197765364" lon="8.68771481624472"><ele>128.0</ele><time>2026-04-09T08:15:15Z</time></trkpt><trkpt lat="44.79308669583387" lon="8.6877506472432"><ele>126.5</ele><time>2026-04-09T08:15:16Z</time></trkpt><trkpt lat="44.79286509602653" lon="8.687788474152157"><ele>125.0</ele><time>2026-04-09T08:15:17Z</time></trkpt><trkpt lat="44.79264006583363" lon="8.687828059873363"><ele>125.0</ele><time>2026-04-09T08:15:18Z</time></trkpt><trkpt lat="44.792410784907574" lon="8.687868819366956"><ele>125.0</ele><time>2026-04-09T08:15:19Z</time></trkpt><trkpt lat="44.792180067955634" lon="8.687909851005111"><ele>125.0</ele><time>2026-04-09T08:15:20Z</time></trkpt><trkpt lat="44.79195804622859" lon="8.687954493944632"><ele>125.0</ele><time>2026-04-09T08:15:21Z</time></trkpt><trkpt lat="44.79175308774617" lon="8.6879942282021"><ele>125.0</ele><time>2026-04-09T08:15:22Z</time></trkpt><trkpt lat="44.79155855435948" lon="8.688013679164127"><ele>125.33333333333333</ele><time>2026-04-09T08:15:23Z</time></trkpt><trkpt lat="44.791376572568865" lon="8.687990626923982"><ele>125.66666666666666</ele><time>2026-04-09T08:15:24Z</time></trkpt><trkpt lat="44.79120240893272" lon="8.68791526323691"><ele>126.0</ele><time>2026-04-09T08:15:25Z</time></trkpt><trkpt lat="44.79103421881681" lon="8.687832622514168"><ele>128.0</ele><time>2026-04-09T08:15:25.999Z</time></trkpt><trkpt lat="44.79086861438482" lon="8.687777426945654"><ele>130.0</ele><time>2026-04-09T08:15:26.999Z</time></trkpt><trkpt lat="44.790715899227536" lon="8.687758051135441"><ele>132.0</ele><time>2026-04-09T08:15:27.999Z</time></trkpt><trkpt lat="44.79058389463075" lon="8.687775934701783"><ele>132.5</ele><time>2026-04-09T08:15:28.999Z</time></trkpt><trkpt lat="44.79046799402153" lon="8.687842943637719"><ele>133.0</ele><time>2026-04-09T08:15:29.999Z</time></trkpt><trkpt lat="44.790342121034115" lon="8.68794026316975"><ele>133.5</ele><time>2026-04-09T08:15:31Z</time></trkpt><trkpt lat="44.790200147832785" lon="8.6880312445513"><ele>134.0</ele><time>2026-04-09T08:15:32Z</time></trkpt><trkpt lat="44.79004537729147" lon="8.68812722167031"><ele>134.66666666666666</ele><time>2026-04-09T08:15:33Z</time></trkpt><trkpt lat="44.78988255877633" lon="8.688233194099627"><ele>135.33333333333334</ele><time>2026-04-09T08:15:34Z</time></trkpt><trkpt lat="44.78971109901602" lon="8.68834653846781"><ele>136.0</ele><time>2026-04-09T08:15:35Z</time></trkpt><trkpt lat="44.789525209802065" lon="8.688462693089225"><ele>137.0</ele><time>2026-04-09T08:15:36Z</time></trkpt><trkpt lat="44.78933240559668" lon="8.688584023297466"><ele>138.0</ele><time>2026-04-09T08:15:37Z</time></trkpt><trkpt lat="44.78913093579249" lon="8.688706451603402"><ele>139.0</ele><time>2026-04-09T08:15:38Z</time></trkpt><trkpt lat="44.78892897850518" lon="8.688830025806233"><ele>139.0</ele><time>2026-04-09T08:15:39Z</time></trkpt><trkpt lat="44.78873483194332" lon="8.688951622853303"><ele>139.0</ele><time>2026-04-09T08:15:40Z</time></trkpt><trkpt lat="44.7885478159266" lon="8.689064683849859"><ele>139.0</ele><time>2026-04-09T08:15:41Z</time></trkpt><trkpt lat="44.78836513230954" lon="8.689171812490294"><ele>139.0</ele><time>2026-04-09T08:15:42Z</time></trkpt><trkpt lat="44.78817757230485" lon="8.689271739183386"><ele>139.0</ele><time>2026-04-09T08:15:43Z</time></trkpt><trkpt lat="44.78798763521747" lon="8.689363823310385"><ele>139.0</ele><time>2026-04-09T08:15:44Z</time></trkpt><trkpt lat="44.787796376593555" lon="8.689451704289736"><ele>139.0</ele><time>2026-04-09T08:15:45Z</time></trkpt><trkpt lat="44.78760711792376" lon="8.689535234423834"><ele>139.0</ele><time>2026-04-09T08:15:46Z</time></trkpt><trkpt lat="44.7874246268225" lon="8.689609742559993"><ele>139.0</ele><time>2026-04-09T08:15:47Z</time></trkpt><trkpt lat="44.787245725632516" lon="8.689671093471874"><ele>139.0</ele><time>2026-04-09T08:15:48Z</time></trkpt><trkpt lat="44.78706450513836" lon="8.689720818531786"><ele>139.0</ele><time>2026-04-09T08:15:49Z</time></trkpt><trkpt lat="44.78689034228078" lon="8.689749833864933"><ele>139.0</ele><time>2026-04-09T08:15:50Z</time></trkpt><trkpt lat="44.78672239062752" lon="8.689748665933728"><ele>139.33333333333334</ele><time>2026-04-09T08:15:51Z</time></trkpt><trkpt lat="44.78655563274364" lon="8.689710246210742"><ele>139.66666666666666</ele><time>2026-04-09T08:15:52Z</time></trkpt><trkpt lat="44.78639879172041" lon="8.689623953235518"><ele>140.0</ele><time>2026-04-09T08:15:53Z</time></trkpt><trkpt lat="44.78624658457268" lon="8.68952431868427"><ele>140.0</ele><time>2026-04-09T08:15:54Z</time></trkpt><trkpt lat="44.78609135368438" lon="8.689444203068536"><ele>140.0</ele><time>2026-04-09T08:15:55Z</time></trkpt><trkpt lat="44.78594538203644" lon="8.689373261082102"><ele>140.0</ele><time>2026-04-09T08:15:56Z</time></trkpt><trkpt lat="44.78581084601967" lon="8.689304132303185"><ele>140.75</ele><time>2026-04-09T08:15:57Z</time></trkpt><trkpt lat="44.78568470562446" lon="8.689238050873946"><ele>141.5</ele><time>2026-04-09T08:15:58Z</time></trkpt><trkpt lat="44.78556702885247" lon="8.689181032207284"><ele>142.25</ele><time>2026-04-09T08:15:59Z</time></trkpt><trkpt lat="44.78544772639554" lon="8.689134346859078"><ele>143.0</ele><time>2026-04-09T08:16:00Z</time></trkpt><trkpt lat="44.78532654044897" lon="8.68910500069555"><ele>143.0</ele><time>2026-04-09T08:16:01Z</time></trkpt><trkpt lat="44.78520456814002" lon="8.689094612616705"><ele>143.0</ele><time>2026-04-09T08:16:02Z</time></trkpt><trkpt lat="44.78508987993625" lon="8.68909112552489"><ele>143.0</ele><time>2026-04-09T08:16:03Z</time></trkpt><trkpt lat="44.784980775309016" lon="8.6891043141091"><ele>143.0</ele><time>2026-04-09T08:16:04Z</time></trkpt><trkpt lat="44.78486490359266" lon="8.689149773242686"><ele>143.25</ele><time>2026-04-09T08:16:05Z</time></trkpt><trkpt lat="44.78474925836446" lon="8.689228546391782"><ele>143.5</ele><time>2026-04-09T08:16:06Z</time></trkpt><trkpt lat="44.784636125836904" lon="8.689324991238772"><ele>143.75</ele><time>2026-04-09T08:16:07Z</time></trkpt><trkpt lat="44.78451960583589" lon="8.689421638695256"><ele>144.0</ele><time>2026-04-09T08:16:08Z</time></trkpt><trkpt lat="44.78440433755033" lon="8.68951010372018"><ele>144.5</ele><time>2026-04-09T08:16:09Z</time></trkpt><trkpt lat="44.78429291713266" lon="8.689576796043726"><ele>145.0</ele><time>2026-04-09T08:16:10Z</time></trkpt><trkpt lat="44.78417543760586" lon="8.68962270244237"><ele>145.5</ele><time>2026-04-09T08:16:11Z</time></trkpt><trkpt lat="44.784049436232614" lon="8.689641227035274"><ele>146.0</ele><time>2026-04-09T08:16:12Z</time></trkpt><trkpt lat="44.78392122025801" lon="8.68963218502878"><ele>146.0</ele><time>2026-04-09T08:16:13Z</time></trkpt><trkpt lat="44.783794128553446" lon="8.689619112729726"><ele>146.0</ele><time>2026-04-09T08:16:14Z</time></trkpt><trkpt lat="44.78367975457675" lon="8.689609980298387"><ele>146.0</ele><time>2026-04-09T08:16:15Z</time></trkpt><trkpt lat="44.78357551575623" lon="8.689611855936242"><ele>146.0</ele><time>2026-04-09T08:16:16Z</time></trkpt><trkpt lat="44.783463331812925" lon="8.689640113056369"><ele>145.25</ele><time>2026-04-09T08:16:17Z</time></trkpt><trkpt lat="44.783348965414454" lon="8.689703835389228"><ele>144.5</ele><time>2026-04-09T08:16:18Z</time></trkpt><trkpt lat="44.78322530661391" lon="8.689770174393487"><ele>143.75</ele><time>2026-04-09T08:16:19Z</time></trkpt><trkpt lat="44.78309212938119" lon="8.68982677133132"><ele>143.0</ele><time>2026-04-09T08:16:20Z</time></trkpt><trkpt lat="44.78295492536093" lon="8.689884450696443"><ele>143.0</ele><time>2026-04-09T08:16:21Z</time></trkpt><trkpt lat="44.78281637374077" lon="8.689946928992917"><ele>143.0</ele><time>2026-04-09T08:16:22Z</time></trkpt><trkpt lat="44.78267614321191" lon="8.690011058392637"><ele>143.0</ele><time>2026-04-09T08:16:23Z</time></trkpt><trkpt lat="44.78253992964451" lon="8.690071818918817"><ele>143.0</ele><time>2026-04-09T08:16:24Z</time></trkpt><trkpt lat="44.782408482057996" lon="8.690133581428071"><ele>143.5</ele><time>2026-04-09T08:16:25Z</time></trkpt><trkpt lat="44.782281483502985" lon="8.690203358735335"><ele>144.0</ele><time>2026-04-09T08:16:26Z</time></trkpt><trkpt lat="44.782153212473396" lon="8.690266631051792"><ele>144.5</ele><time>2026-04-09T08:16:27Z</time></trkpt><trkpt lat="44.782029367263426" lon="8.690324925641258"><ele>145.0</ele><time>2026-04-09T08:16:28Z</time></trkpt><trkpt lat="44.781912218482795" lon="8.690377404008231"><ele>145.2</ele><time>2026-04-09T08:16:29Z</time></trkpt><trkpt lat="44.78180574805099" lon="8.690425182206306"><ele>145.4</ele><time>2026-04-09T08:16:30Z</time></trkpt><trkpt lat="44.78170692070208" lon="8.690470834076159"><ele>145.6</ele><time>2026-04-09T08:16:31Z</time></trkpt><trkpt lat="44.781610398153745" lon="8.690515969938836"><ele>145.8</ele><time>2026-04-09T08:16:32Z</time></trkpt><trkpt lat="44.7815205705805" lon="8.690576811959147"><ele>146.0</ele><time>2026-04-09T08:16:33Z</time></trkpt><trkpt lat="44.781435319620414" lon="8.690672919218912"><ele>146.0</ele><time>2026-04-09T08:16:34Z</time></trkpt><trkpt lat="44.7813636628931" lon="8.690803533701237"><ele>146.0</ele><time>2026-04-09T08:16:35Z</time></trkpt><trkpt lat="44.78129283662239" lon="8.690953827220302"><ele>146.0</ele><time>2026-04-09T08:16:36Z</time></trkpt><trkpt lat="44.78121998461379" lon="8.691109115112663"><ele>146.0</ele><time>2026-04-09T08:16:37Z</time></trkpt><trkpt lat="44.7811483052462" lon="8.69127604300719"><ele>145.75</ele><time>2026-04-09T08:16:38Z</time></trkpt><trkpt lat="44.781069339769715" lon="8.691451631635811"><ele>145.5</ele><time>2026-04-09T08:16:39Z</time></trkpt><trkpt lat="44.780987905212626" lon="8.691623655056937"><ele>145.25</ele><time>2026-04-09T08:16:40Z</time></trkpt><trkpt lat="44.78090793466312" lon="8.691790579748838"><ele>145.0</ele><time>2026-04-09T08:16:41Z</time></trkpt><trkpt lat="44.78082019370138" lon="8.691970643138985"><ele>145.0</ele><time>2026-04-09T08:16:42Z</time></trkpt><trkpt lat="44.78072569244784" lon="8.692159304763784"><ele>145.0</ele><time>2026-04-09T08:16:43Z</time></trkpt><trkpt lat="44.78063542925375" lon="8.69235231043084"><ele>145.0</ele><time>2026-04-09T08:16:44Z</time></trkpt><trkpt lat="44.780540957835534" lon="8.692549306803116"><ele>145.0</ele><time>2026-04-09T08:16:45Z</time></trkpt><trkpt lat="44.780446618593885" lon="8.692744911302231"><ele>145.0</ele><time>2026-04-09T08:16:46Z</time></trkpt><trkpt lat="44.78035277350823" lon="8.692931841739172"><ele>145.0</ele><time>2026-04-09T08:16:47Z</time></trkpt><trkpt lat="44.78025390433127" lon="8.693119243659886"><ele>145.0</ele><time>2026-04-09T08:16:48Z</time></trkpt><trkpt lat="44.7801428613946" lon="8.693297370598225"><ele>145.0</ele><time>2026-04-09T08:16:49Z</time></trkpt><trkpt lat="44.78001589828795" lon="8.693455105324128"><ele>145.0</ele><time>2026-04-09T08:16:50Z</time></trkpt><trkpt lat="44.77987533272851" lon="8.693600809714804"><ele>145.0</ele><time>2026-04-09T08:16:51Z</time></trkpt><trkpt lat="44.77971992220185" lon="8.693743889151339"><ele>145.0</ele><time>2026-04-09T08:16:52Z</time></trkpt><trkpt lat="44.77955305730591" lon="8.693883477184148"><ele>145.0</ele><time>2026-04-09T08:16:53Z</time></trkpt><trkpt lat="44.77939382944477" lon="8.694011207355329"><ele>146.33333333333334</ele><time>2026-04-09T08:16:54Z</time></trkpt><trkpt lat="44.77923468342158" lon="8.694143114190787"><ele>147.66666666666666</ele><time>2026-04-09T08:16:55Z</time></trkpt><trkpt lat="44.77907157784567" lon="8.694275425723578"><ele>149.0</ele><time>2026-04-09T08:16:56Z</time></trkpt><trkpt lat="44.77890300370048" lon="8.694395875962561"><ele>148.33333333333331</ele><time>2026-04-09T08:16:57Z</time></trkpt><trkpt lat="44.77872777453654" lon="8.694493501774142"><ele>147.66666666666666</ele><time>2026-04-09T08:16:58Z</time></trkpt><trkpt lat="44.77854680520271" lon="8.694565882611474"><ele>147.0</ele><time>2026-04-09T08:16:59Z</time></trkpt><trkpt lat="44.778362356917" lon="8.694625319256197"><ele>146.66666666666666</ele><time>2026-04-09T08:17:00Z</time></trkpt><trkpt lat="44.778176375878736" lon="8.694683682562708"><ele>146.33333333333331</ele><time>2026-04-09T08:17:01Z</time></trkpt><trkpt lat="44.77798495372083" lon="8.69474954827491"><ele>146.0</ele><time>2026-04-09T08:17:02Z</time></trkpt><trkpt lat="44.77778904625159" lon="8.694819776432377"><ele>146.33333333333331</ele><time>2026-04-09T08:17:03Z</time></trkpt><trkpt lat="44.777588709610455" lon="8.694896126182162"><ele>146.66666666666666</ele><time>2026-04-09T08:17:04Z</time></trkpt><trkpt lat="44.77738640156116" lon="8.694979758868776"><ele>147.0</ele><time>2026-04-09T08:17:05Z</time></trkpt><trkpt lat="44.77717950167905" lon="8.69507564207794"><ele>147.0</ele><time>2026-04-09T08:17:06Z</time></trkpt><trkpt lat="44.77697227963786" lon="8.695174475347411"><ele>147.0</ele><time>2026-04-09T08:17:07Z</time></trkpt><trkpt lat="44.77677275508968" lon="8.695266051229607"><ele>147.0</ele><time>2026-04-09T08:17:08Z</time></trkpt><trkpt lat="44.77656932886721" lon="8.695358147483708"><ele>147.0</ele><time>2026-04-09T08:17:09Z</time></trkpt><trkpt lat="44.77636468601668" lon="8.69545351320949"><ele>147.0</ele><time>2026-04-09T08:17:10Z</time></trkpt><trkpt lat="44.776159165151284" lon="8.695552220277182"><ele>147.0</ele><time>2026-04-09T08:17:11Z</time></trkpt><trkpt lat="44.77595115218551" lon="8.695653892476338"><ele>147.0</ele><time>2026-04-09T08:17:12Z</time></trkpt><trkpt lat="44.77574216625782" lon="8.695761848475975"><ele>147.0</ele><time>2026-04-09T08:17:13Z</time></trkpt><trkpt lat="44.77553146869416" lon="8.69587631407885"><ele>147.0</ele><time>2026-04-09T08:17:14Z</time></trkpt><trkpt lat="44.77532079518313" lon="8.695988746377484"><ele>146.0</ele><time>2026-04-09T08:17:15Z</time></trkpt><trkpt lat="44.77510744168256" lon="8.696091459141392"><ele>145.0</ele><time>2026-04-09T08:17:16Z</time></trkpt><trkpt lat="44.774893761870935" lon="8.69619293870822"><ele>145.0</ele><time>2026-04-09T08:17:17Z</time></trkpt><trkpt lat="44.77468409003426" lon="8.696306276423863"><ele>145.0</ele><time>2026-04-09T08:17:18Z</time></trkpt><trkpt lat="44.7744764679483" lon="8.696440907147268"><ele>144.0</ele><time>2026-04-09T08:17:19Z</time></trkpt><trkpt lat="44.77427300371739" lon="8.696586800765262"><ele>143.0</ele><time>2026-04-09T08:17:20Z</time></trkpt><trkpt lat="44.77406792782599" lon="8.696723963232888"><ele>143.0</ele><time>2026-04-09T08:17:21Z</time></trkpt><trkpt lat="44.773859412442235" lon="8.69684736082892"><ele>143.0</ele><time>2026-04-09T08:17:22Z</time></trkpt><trkpt lat="44.77364263786858" lon="8.696947165591647"><ele>144.0</ele><time>2026-04-09T08:17:23Z</time></trkpt><trkpt lat="44.77342256408766" lon="8.69701980679951"><ele>145.0</ele><time>2026-04-09T08:17:24Z</time></trkpt><trkpt lat="44.7732025492851" lon="8.697067793048303"><ele>146.0</ele><time>2026-04-09T08:17:25Z</time></trkpt><trkpt lat="44.77299599448758" lon="8.697112996646991"><ele>146.0</ele><time>2026-04-09T08:17:26Z</time></trkpt><trkpt lat="44.77280100082119" lon="8.697156533108283"><ele>146.0</ele><time>2026-04-09T08:17:27Z</time></trkpt><trkpt lat="44.77261580567639" lon="8.697193554169859"><ele>146.0</ele><time>2026-04-09T08:17:28Z</time></trkpt><trkpt lat="44.772442862995916" lon="8.697238375138012"><ele>145.66666666666666</ele><time>2026-04-09T08:17:29Z</time></trkpt><trkpt lat="44.772274056926285" lon="8.697298168352242"><ele>145.33333333333334</ele><time>2026-04-09T08:17:30Z</time></trkpt><trkpt lat="44.772105725745064" lon="8.697365699978038"><ele>145.0</ele><time>2026-04-09T08:17:30.999Z</time></trkpt><trkpt lat="44.77193863822353" lon="8.697439779198758"><ele>144.0</ele><time>2026-04-09T08:17:31.999Z</time></trkpt><trkpt lat="44.77177203253187" lon="8.697520700983764"><ele>143.0</ele><time>2026-04-09T08:17:32.999Z</time></trkpt><trkpt lat="44.77161591065395" lon="8.697608995836868"><ele>142.0</ele><time>2026-04-09T08:17:33.999Z</time></trkpt><trkpt lat="44.771457161855395" lon="8.697702003455507"><ele>142.33333333333334</ele><time>2026-04-09T08:17:34.999Z</time></trkpt><trkpt lat="44.7712998309175" lon="8.697798325785486"><ele>142.66666666666666</ele><time>2026-04-09T08:17:35.999Z</time></trkpt><trkpt lat="44.7711465912755" lon="8.697896287152513"><ele>143.0</ele><time>2026-04-09T08:17:37Z</time></trkpt><trkpt lat="44.770996617729594" lon="8.697999348045508"><ele>143.0</ele><time>2026-04-09T08:17:38Z</time></trkpt><trkpt lat="44.77085233803842" lon="8.698110055602854"><ele>143.0</ele><time>2026-04-09T08:17:39Z</time></trkpt><trkpt lat="44.77070078411319" lon="8.698188237145565"><ele>143.0</ele><time>2026-04-09T08:17:40Z</time></trkpt><trkpt lat="44.77055611698776" lon="8.698281215211706"><ele>143.0</ele><time>2026-04-09T08:17:41Z</time></trkpt><trkpt lat="44.77044651116937" lon="8.698473192131472"><ele>143.0</ele><time>2026-04-09T08:17:42Z</time></trkpt><trkpt lat="44.77031487069848" lon="8.698588258768119"><ele>143.0</ele><time>2026-04-09T08:17:43Z</time></trkpt><trkpt lat="44.77018914070574" lon="8.698704906150207"><ele>143.33333333333331</ele><time>2026-04-09T08:17:44Z</time></trkpt><trkpt lat="44.77007175689985" lon="8.698834176510516"><ele>143.66666666666666</ele><time>2026-04-09T08:17:45Z</time></trkpt><trkpt lat="44.76996224800453" lon="8.698979491655034"><ele>144.0</ele><time>2026-04-09T08:17:46Z</time></trkpt><trkpt lat="44.76985889468162" lon="8.699136954219302"><ele>144.0</ele><time>2026-04-09T08:17:47Z</time></trkpt><trkpt lat="44.769761496770656" lon="8.69930213598317"><ele>144.0</ele><time>2026-04-09T08:17:48Z</time></trkpt><trkpt lat="44.76966978922253" lon="8.699477736686639"><ele>144.0</ele><time>2026-04-09T08:17:49Z</time></trkpt><trkpt lat="44.76958155403343" lon="8.699661289007297"><ele>144.33333333333334</ele><time>2026-04-09T08:17:50Z</time></trkpt><trkpt lat="44.76949932723736" lon="8.699852590692528"><ele>144.66666666666669</ele><time>2026-04-09T08:17:51Z</time></trkpt><trkpt lat="44.76942361503611" lon="8.700049089944773"><ele>145.0</ele><time>2026-04-09T08:17:52Z</time></trkpt><trkpt lat="44.76935766722971" lon="8.700242903062836"><ele>145.25</ele><time>2026-04-09T08:17:53Z</time></trkpt><trkpt lat="44.76930814495535" lon="8.700430437730809"><ele>145.5</ele><time>2026-04-09T08:17:54Z</time></trkpt><trkpt lat="44.769271543622935" lon="8.700612172858621"><ele>145.75</ele><time>2026-04-09T08:17:55Z</time></trkpt><trkpt lat="44.76924769358282" lon="8.700777550390882"><ele>146.0</ele><time>2026-04-09T08:17:56Z</time></trkpt><trkpt lat="44.76922673231189" lon="8.700924280297203"><ele>146.0</ele><time>2026-04-09T08:17:57Z</time></trkpt><trkpt lat="44.76920414826828" lon="8.701044229501505"><ele>146.0</ele><time>2026-04-09T08:17:58Z</time></trkpt><trkpt lat="44.769177398415565" lon="8.701142288458605"><ele>146.0</ele><time>2026-04-09T08:17:59Z</time></trkpt><trkpt lat="44.76914000952401" lon="8.70121794902113"><ele>146.0</ele><time>2026-04-09T08:18:00Z</time></trkpt><trkpt lat="44.76909535225338" lon="8.70129657023351"><ele>146.0</ele><time>2026-04-09T08:18:02Z</time></trkpt><trkpt lat="44.76906095628534" lon="8.701467036801725"><ele>146.0</ele><time>2026-04-09T08:18:09Z</time></trkpt><trkpt lat="44.7690805456861" lon="8.70162841977325"><ele>146.25</ele><time>2026-04-09T08:18:10Z</time></trkpt><trkpt lat="44.769104418915774" lon="8.701822084837547"><ele>146.5</ele><time>2026-04-09T08:18:11Z</time></trkpt><trkpt lat="44.76912697395118" lon="8.702002611385337"><ele>146.75</ele><time>2026-04-09T08:18:12Z</time></trkpt><trkpt lat="44.76915376285805" lon="8.702200436682428"><ele>147.0</ele><time>2026-04-09T08:18:13Z</time></trkpt><trkpt lat="44.76918289216725" lon="8.702397655974133"><ele>147.0</ele><time>2026-04-09T08:18:14Z</time></trkpt><trkpt lat="44.76920912678026" lon="8.702601503681523"><ele>147.0</ele><time>2026-04-09T08:18:15Z</time></trkpt><trkpt lat="44.76923258925673" lon="8.702798024420709"><ele>147.0</ele><time>2026-04-09T08:18:16Z</time></trkpt><trkpt lat="44.769255191679164" lon="8.702987015394083"><ele>147.0</ele><time>2026-04-09T08:18:17Z</time></trkpt><trkpt lat="44.76927598386119" lon="8.703175758844239"><ele>147.0</ele><time>2026-04-09T08:18:18Z</time></trkpt><trkpt lat="44.769297751085986" lon="8.703374112146815"><ele>147.0</ele><time>2026-04-09T08:18:19Z</time></trkpt><trkpt lat="44.76932078378555" lon="8.703582199325258"><ele>147.0</ele><time>2026-04-09T08:18:20Z</time></trkpt><trkpt lat="44.76934423354246" lon="8.70379320556079"><ele>147.0</ele><time>2026-04-09T08:18:21Z</time></trkpt><trkpt lat="44.769369847553435" lon="8.704024974719225"><ele>147.5</ele><time>2026-04-09T08:18:22Z</time></trkpt><trkpt lat="44.76938721419444" lon="8.704199119647924"><ele>148.0</ele><time>2026-04-09T08:18:23Z</time></trkpt><trkpt lat="44.76941255724397" lon="8.704413791567918"><ele>148.5</ele><time>2026-04-09T08:18:24Z</time></trkpt><trkpt lat="44.769428396790275" lon="8.704622834066546"><ele>149.0</ele><time>2026-04-09T08:18:25Z</time></trkpt><trkpt lat="44.769429834640434" lon="8.704832600264227"><ele>149.0</ele><time>2026-04-09T08:18:26Z</time></trkpt><trkpt lat="44.76942025096037" lon="8.705032338706745"><ele>149.0</ele><time>2026-04-09T08:18:27Z</time></trkpt><trkpt lat="44.769400704962386" lon="8.705220978004006"><ele>149.0</ele><time>2026-04-09T08:18:28Z</time></trkpt><trkpt lat="44.769370307104474" lon="8.705411708900995"><ele>149.0</ele><time>2026-04-09T08:18:29Z</time></trkpt><trkpt lat="44.76932738887975" lon="8.705612839260013"><ele>149.0</ele><time>2026-04-09T08:18:30Z</time></trkpt><trkpt lat="44.76926688017231" lon="8.705808281702193"><ele>149.0</ele><time>2026-04-09T08:18:31Z</time></trkpt><trkpt lat="44.76919520220771" lon="8.70598947014289"><ele>149.0</ele><time>2026-04-09T08:18:32Z</time></trkpt><trkpt lat="44.769124474695296" lon="8.706161407742893"><ele>149.0</ele><time>2026-04-09T08:18:33Z</time></trkpt><trkpt lat="44.76905758517179" lon="8.706337473014635"><ele>149.5</ele><time>2026-04-09T08:18:34Z</time></trkpt><trkpt lat="44.76899870574295" lon="8.706509279030877"><ele>150.0</ele><time>2026-04-09T08:18:35Z</time></trkpt><trkpt lat="44.768946429327684" lon="8.706676270780402"><ele>150.5</ele><time>2026-04-09T08:18:36Z</time></trkpt><trkpt lat="44.768891935219" lon="8.706831936086788"><ele>151.0</ele><time>2026-04-09T08:18:37Z</time></trkpt><trkpt lat="44.76884745180707" lon="8.70698311246667"><ele>151.5</ele><time>2026-04-09T08:18:38Z</time></trkpt><trkpt lat="44.76881603391932" lon="8.707111395293339"><ele>152.0</ele><time>2026-04-09T08:18:39Z</time></trkpt><trkpt lat="44.76879515638898" lon="8.70720359182449"><ele>152.5</ele><time>2026-04-09T08:18:40Z</time></trkpt><trkpt lat="44.76872756551257" lon="8.70729178948874"><ele>153.0</ele><time>2026-04-09T08:18:42Z</time></trkpt><trkpt lat="44.76864568767496" lon="8.707293880313742"><ele>153.5</ele><time>2026-04-09T08:18:44Z</time></trkpt><trkpt lat="44.76857276658978" lon="8.707286911191506"><ele>154.0</ele><time>2026-04-09T08:18:45Z</time></trkpt><trkpt lat="44.76861070443587" lon="8.706938889443812"><ele>153.6</ele><time>2026-04-09T08:18:46Z</time></trkpt><trkpt lat="44.76861339684561" lon="8.70678763846508"><ele>153.2</ele><time>2026-04-09T08:18:47Z</time></trkpt><trkpt lat="44.7686143854932" lon="8.706628361634065"><ele>152.79999999999998</ele><time>2026-04-09T08:18:48Z</time></trkpt><trkpt lat="44.768625357902316" lon="8.706453278594394"><ele>152.4</ele><time>2026-04-09T08:18:49Z</time></trkpt><trkpt lat="44.768583955988525" lon="8.70634817409761"><ele>152.0</ele><time>2026-04-09T08:18:53Z</time></trkpt><trkpt lat="44.76840821990322" lon="8.706338889810938"><ele>152.0</ele><time>2026-04-09T08:18:54Z</time></trkpt><trkpt lat="44.768325043057274" lon="8.706314295283892"><ele>152.0</ele><time>2026-04-09T08:18:55Z</time></trkpt><trkpt lat="44.768230953440444" lon="8.706272400698847"><ele>152.0</ele><time>2026-04-09T08:18:56Z</time></trkpt><trkpt lat="44.76812710018658" lon="8.706214931300698"><ele>152.0</ele><time>2026-04-09T08:18:57Z</time></trkpt><trkpt lat="44.7680151385552" lon="8.70615132606239"><ele>152.0</ele><time>2026-04-09T08:18:58Z</time></trkpt><trkpt lat="44.767903691211714" lon="8.706091196955102"><ele>151.5</ele><time>2026-04-09T08:18:59Z</time></trkpt><trkpt lat="44.767779570084926" lon="8.706033360788087"><ele>151.0</ele><time>2026-04-09T08:19:00Z</time></trkpt><trkpt lat="44.767654092525824" lon="8.7059656830554"><ele>150.5</ele><time>2026-04-09T08:19:01Z</time></trkpt><trkpt lat="44.76753302851133" lon="8.70589468614142"><ele>150.0</ele><time>2026-04-09T08:19:02Z</time></trkpt><trkpt lat="44.76742205608532" lon="8.705834651468463"><ele>149.83333333333334</ele><time>2026-04-09T08:19:03Z</time></trkpt><trkpt lat="44.767321775513736" lon="8.705782077249042"><ele>149.66666666666666</ele><time>2026-04-09T08:19:04Z</time></trkpt><trkpt lat="44.76723905901839" lon="8.70573890483963"><ele>149.5</ele><time>2026-04-09T08:19:05Z</time></trkpt><trkpt lat="44.76715584388307" lon="8.705697092310071"><ele>149.33333333333331</ele><time>2026-04-09T08:19:06Z</time></trkpt><trkpt lat="44.76708118453561" lon="8.705663189770812"><ele>149.16666666666666</ele><time>2026-04-09T08:19:07Z</time></trkpt><trkpt lat="44.7670132461493" lon="8.705636661557731"><ele>149.0</ele><time>2026-04-09T08:19:08Z</time></trkpt><trkpt lat="44.766913929799074" lon="8.705609296018434"><ele>148.83333333333331</ele><time>2026-04-09T08:19:10Z</time></trkpt><trkpt lat="44.76684559578674" lon="8.705564094166785"><ele>148.66666666666666</ele><time>2026-04-09T08:19:13Z</time></trkpt><trkpt lat="44.766726714633585" lon="8.705523438575616"><ele>148.5</ele><time>2026-04-09T08:19:15Z</time></trkpt><trkpt lat="44.766640577041414" lon="8.705446237761839"><ele>148.33333333333334</ele><time>2026-04-09T08:19:17Z</time></trkpt><trkpt lat="44.76657977152702" lon="8.705393058590358"><ele>148.16666666666669</ele><time>2026-04-09T08:19:19Z</time></trkpt><trkpt lat="44.76653204066636" lon="8.705319001848673"><ele>148.0</ele><time>2026-04-09T08:19:21Z</time></trkpt><trkpt lat="44.766473617698146" lon="8.705461036819594"><ele>148.0</ele><time>2026-04-09T08:19:22Z</time></trkpt><trkpt lat="44.76644716809338" lon="8.705545451761585"><ele>148.0</ele><time>2026-04-09T08:19:23Z</time></trkpt><trkpt lat="44.76641044193896" lon="8.705646641008027"><ele>148.0</ele><time>2026-04-09T08:19:24Z</time></trkpt><trkpt lat="44.766363695446145" lon="8.705759650987627"><ele>148.0</ele><time>2026-04-09T08:19:25Z</time></trkpt><trkpt lat="44.766316068194726" lon="8.705892091974887"><ele>148.0</ele><time>2026-04-09T08:19:26Z</time></trkpt><trkpt lat="44.76625798475074" lon="8.706029057696906"><ele>147.75</ele><time>2026-04-09T08:19:27Z</time></trkpt><trkpt lat="44.766203692618845" lon="8.706160360235675"><ele>147.5</ele><time>2026-04-09T08:19:28Z</time></trkpt><trkpt lat="44.766137294877645" lon="8.706299933812865"><ele>147.25</ele><time>2026-04-09T08:19:29Z</time></trkpt><trkpt lat="44.766059674315194" lon="8.706444562617285"><ele>147.0</ele><time>2026-04-09T08:19:30Z</time></trkpt><trkpt lat="44.765982799889926" lon="8.706597520222276"><ele>147.0</ele><time>2026-04-09T08:19:31Z</time></trkpt><trkpt lat="44.76589805469691" lon="8.70675563566276"><ele>147.0</ele><time>2026-04-09T08:19:32Z</time></trkpt><trkpt lat="44.76581676708361" lon="8.706924445442272"><ele>147.0</ele><time>2026-04-09T08:19:33Z</time></trkpt><trkpt lat="44.765743054887146" lon="8.707105426046082"><ele>147.0</ele><time>2026-04-09T08:19:34Z</time></trkpt><trkpt lat="44.76567737333139" lon="8.70728594011793"><ele>147.0</ele><time>2026-04-09T08:19:35Z</time></trkpt><trkpt lat="44.76561471437327" lon="8.707468400129155"><ele>147.0</ele><time>2026-04-09T08:19:36Z</time></trkpt><trkpt lat="44.76555688785627" lon="8.70765239844068"><ele>147.0</ele><time>2026-04-09T08:19:36.999Z</time></trkpt><trkpt lat="44.76550011965124" lon="8.707843888928213"><ele>147.0</ele><time>2026-04-09T08:19:37.999Z</time></trkpt><trkpt lat="44.765439256074906" lon="8.70803854483163"><ele>147.33333333333334</ele><time>2026-04-09T08:19:38.999Z</time></trkpt><trkpt lat="44.76537017041315" lon="8.708239908149434"><ele>147.66666666666669</ele><time>2026-04-09T08:19:39.999Z</time></trkpt><trkpt lat="44.76529523977378" lon="8.708438060708808"><ele>148.0</ele><time>2026-04-09T08:19:40.999Z</time></trkpt><trkpt lat="44.765211088903335" lon="8.708634586058025"><ele>148.0</ele><time>2026-04-09T08:19:41.999Z</time></trkpt><trkpt lat="44.76512412526678" lon="8.708828320165246"><ele>148.0</ele><time>2026-04-09T08:19:43Z</time></trkpt><trkpt lat="44.76504376668372" lon="8.709005045061197"><ele>148.0</ele><time>2026-04-09T08:19:44Z</time></trkpt><trkpt lat="44.76496594075448" lon="8.709163321060476"><ele>148.0</ele><time>2026-04-09T08:19:45Z</time></trkpt><trkpt lat="44.76488064918635" lon="8.709310990720697"><ele>148.5</ele><time>2026-04-09T08:19:46Z</time></trkpt><trkpt lat="44.764777635382835" lon="8.709416902502385"><ele>149.0</ele><time>2026-04-09T08:19:47Z</time></trkpt><trkpt lat="44.764653283347684" lon="8.709491625488283"><ele>149.5</ele><time>2026-04-09T08:19:48Z</time></trkpt><trkpt lat="44.764522476631576" lon="8.709573125623226"><ele>150.0</ele><time>2026-04-09T08:19:49Z</time></trkpt><trkpt lat="44.76439329273083" lon="8.709687247843918"><ele>149.66666666666666</ele><time>2026-04-09T08:19:50Z</time></trkpt><trkpt lat="44.76426502083002" lon="8.709834408451"><ele>149.33333333333331</ele><time>2026-04-09T08:19:51Z</time></trkpt><trkpt lat="44.76413504961165" lon="8.709996191117932"><ele>149.0</ele><time>2026-04-09T08:19:52Z</time></trkpt><trkpt lat="44.76399590751388" lon="8.710163878894697"><ele>149.33333333333331</ele><time>2026-04-09T08:19:53Z</time></trkpt><trkpt lat="44.76386423356724" lon="8.710326506685444"><ele>149.66666666666666</ele><time>2026-04-09T08:19:54Z</time></trkpt><trkpt lat="44.763732053281956" lon="8.710496724252776"><ele>150.0</ele><time>2026-04-09T08:19:55Z</time></trkpt><trkpt lat="44.763594897843994" lon="8.710677574920387"><ele>150.0</ele><time>2026-04-09T08:19:56Z</time></trkpt><trkpt lat="44.76345751558016" lon="8.7108651842575"><ele>150.0</ele><time>2026-04-09T08:19:57Z</time></trkpt><trkpt lat="44.76331896239813" lon="8.71105418776038"><ele>150.0</ele><time>2026-04-09T08:19:58Z</time></trkpt><trkpt lat="44.76318519991341" lon="8.711231759048726"><ele>150.0</ele><time>2026-04-09T08:19:59Z</time></trkpt><trkpt lat="44.763054151268435" lon="8.711398337256982"><ele>150.0</ele><time>2026-04-09T08:20:00Z</time></trkpt><trkpt lat="44.76291146083886" lon="8.711553496062754"><ele>150.0</ele><time>2026-04-09T08:20:01Z</time></trkpt><trkpt lat="44.76274848736536" lon="8.711685079650453"><ele>149.66666666666666</ele><time>2026-04-09T08:20:02Z</time></trkpt><trkpt lat="44.76256995746893" lon="8.711787835972299"><ele>149.33333333333331</ele><time>2026-04-09T08:20:03Z</time></trkpt><trkpt lat="44.762383637538335" lon="8.711875488473163"><ele>149.0</ele><time>2026-04-09T08:20:04Z</time></trkpt><trkpt lat="44.762201424224465" lon="8.711985721604517"><ele>149.33333333333331</ele><time>2026-04-09T08:20:05Z</time></trkpt><trkpt lat="44.762032891249646" lon="8.71213822938807"><ele>149.66666666666666</ele><time>2026-04-09T08:20:06Z</time></trkpt><trkpt lat="44.76187489477695" lon="8.712321543927011"><ele>150.0</ele><time>2026-04-09T08:20:07Z</time></trkpt><trkpt lat="44.761720229997756" lon="8.712511857211892"><ele>150.0</ele><time>2026-04-09T08:20:08Z</time></trkpt><trkpt lat="44.761565916676126" lon="8.712686917767316"><ele>150.0</ele><time>2026-04-09T08:20:09Z</time></trkpt><trkpt lat="44.76142058408454" lon="8.71284236189029"><ele>150.0</ele><time>2026-04-09T08:20:10Z</time></trkpt><trkpt lat="44.761279959139365" lon="8.712975653842703"><ele>150.0</ele><time>2026-04-09T08:20:11Z</time></trkpt><trkpt lat="44.761126905800964" lon="8.713092220404306"><ele>150.0</ele><time>2026-04-09T08:20:12Z</time></trkpt><trkpt lat="44.76095697361293" lon="8.713188035911172"><ele>150.0</ele><time>2026-04-09T08:20:13Z</time></trkpt><trkpt lat="44.76077277841666" lon="8.71326646610635"><ele>150.0</ele><time>2026-04-09T08:20:14Z</time></trkpt><trkpt lat="44.760576816930744" lon="8.71333330014217"><ele>150.0</ele><time>2026-04-09T08:20:15Z</time></trkpt><trkpt lat="44.76037934884248" lon="8.71340050309599"><ele>150.0</ele><time>2026-04-09T08:20:16Z</time></trkpt><trkpt lat="44.76017759897934" lon="8.713489271871612"><ele>149.0</ele><time>2026-04-09T08:20:17Z</time></trkpt><trkpt lat="44.75998325269676" lon="8.713598581873189"><ele>148.0</ele><time>2026-04-09T08:20:18Z</time></trkpt><trkpt lat="44.7597924265648" lon="8.713731234098697"><ele>147.0</ele><time>2026-04-09T08:20:19Z</time></trkpt><trkpt lat="44.75959750403708" lon="8.713865664154495"><ele>147.0</ele><time>2026-04-09T08:20:20Z</time></trkpt><trkpt lat="44.75939560193475" lon="8.714004233628478"><ele>147.0</ele><time>2026-04-09T08:20:21Z</time></trkpt><trkpt lat="44.759189981886514" lon="8.714137014822446"><ele>148.0</ele><time>2026-04-09T08:20:22Z</time></trkpt><trkpt lat="44.758978995953804" lon="8.714271547717038"><ele>149.0</ele><time>2026-04-09T08:20:23Z</time></trkpt><trkpt lat="44.75876551204648" lon="8.714411366996497"><ele>149.0</ele><time>2026-04-09T08:20:24Z</time></trkpt><trkpt lat="44.758548222873706" lon="8.714553072626323"><ele>149.0</ele><time>2026-04-09T08:20:25Z</time></trkpt><trkpt lat="44.75832860179407" lon="8.714699499359625"><ele>147.0</ele><time>2026-04-09T08:20:26Z</time></trkpt><trkpt lat="44.75811591555882" lon="8.714838033295853"><ele>145.0</ele><time>2026-04-09T08:20:27Z</time></trkpt><trkpt lat="44.75790205020899" lon="8.714979460584221"><ele>147.5</ele><time>2026-04-09T08:20:28Z</time></trkpt><trkpt lat="44.75768557679802" lon="8.715121136628564"><ele>150.0</ele><time>2026-04-09T08:20:29Z</time></trkpt><trkpt lat="44.757467103101206" lon="8.715264668614054"><ele>150.0</ele><time>2026-04-09T08:20:30Z</time></trkpt><trkpt lat="44.75724825002777" lon="8.715409016798544"><ele>150.0</ele><time>2026-04-09T08:20:31Z</time></trkpt><trkpt lat="44.75702736721136" lon="8.715553641393582"><ele>147.0</ele><time>2026-04-09T08:20:32Z</time></trkpt><trkpt lat="44.75680585774207" lon="8.715694457761582"><ele>144.0</ele><time>2026-04-09T08:20:33Z</time></trkpt><trkpt lat="44.75658578275183" lon="8.7158327815527"><ele>144.0</ele><time>2026-04-09T08:20:34Z</time></trkpt><trkpt lat="44.75638230681984" lon="8.715965292859137"><ele>144.0</ele><time>2026-04-09T08:20:35Z</time></trkpt><trkpt lat="44.756186194474324" lon="8.716095992044803"><ele>144.0</ele><time>2026-04-09T08:20:36Z</time></trkpt><trkpt lat="44.756004764815664" lon="8.71623189183917"><ele>144.66666666666666</ele><time>2026-04-09T08:20:37Z</time></trkpt><trkpt lat="44.75584440454657" lon="8.71639392561794"><ele>145.33333333333331</ele><time>2026-04-09T08:20:38Z</time></trkpt><trkpt lat="44.75570771258731" lon="8.716607987642629"><ele>146.0</ele><time>2026-04-09T08:20:39Z</time></trkpt><trkpt lat="44.75559126997105" lon="8.716848369068385"><ele>145.66666666666666</ele><time>2026-04-09T08:20:40Z</time></trkpt><trkpt lat="44.75546955437155" lon="8.717086391801056"><ele>145.33333333333334</ele><time>2026-04-09T08:20:41Z</time></trkpt><trkpt lat="44.75534000230004" lon="8.717318487904539"><ele>145.0</ele><time>2026-04-09T08:20:42Z</time></trkpt><trkpt lat="44.75520295797217" lon="8.71754556586932"><ele>148.0</ele><time>2026-04-09T08:20:43Z</time></trkpt><trkpt lat="44.7550556864947" lon="8.71776723614522"><ele>151.0</ele><time>2026-04-09T08:20:44Z</time></trkpt><trkpt lat="44.75489252004237" lon="8.717966942405841"><ele>154.0</ele><time>2026-04-09T08:20:45Z</time></trkpt><trkpt lat="44.75471603487406" lon="8.718146809730948"><ele>154.0</ele><time>2026-04-09T08:20:46Z</time></trkpt><trkpt lat="44.754535955593504" lon="8.718321894378407"><ele>154.0</ele><time>2026-04-09T08:20:47Z</time></trkpt><trkpt lat="44.75435519195697" lon="8.718506129004355"><ele>154.0</ele><time>2026-04-09T08:20:48Z</time></trkpt><trkpt lat="44.75417607801309" lon="8.718692278489776"><ele>154.0</ele><time>2026-04-09T08:20:49Z</time></trkpt><trkpt lat="44.754000408686856" lon="8.718878484129597"><ele>154.0</ele><time>2026-04-09T08:20:50Z</time></trkpt><trkpt lat="44.75383322741639" lon="8.719054901130884"><ele>154.0</ele><time>2026-04-09T08:20:51Z</time></trkpt><trkpt lat="44.75367415004875" lon="8.719223887478542"><ele>153.33333333333334</ele><time>2026-04-09T08:20:52Z</time></trkpt><trkpt lat="44.75352653159866" lon="8.719378707289268"><ele>152.66666666666666</ele><time>2026-04-09T08:20:53Z</time></trkpt><trkpt lat="44.75338996103714" lon="8.719523280551376"><ele>152.0</ele><time>2026-04-09T08:20:54Z</time></trkpt><trkpt lat="44.75325968701017" lon="8.71965952634301"><ele>152.0</ele><time>2026-04-09T08:20:55Z</time></trkpt><trkpt lat="44.75312933253014" lon="8.719783566945726"><ele>152.0</ele><time>2026-04-09T08:20:56Z</time></trkpt><trkpt lat="44.75298184346705" lon="8.719874531046093"><ele>152.0</ele><time>2026-04-09T08:20:57Z</time></trkpt><trkpt lat="44.752816567155584" lon="8.719926162578963"><ele>149.66666666666666</ele><time>2026-04-09T08:20:58Z</time></trkpt><trkpt lat="44.75264437060902" lon="8.719926484159334"><ele>147.33333333333334</ele><time>2026-04-09T08:20:59Z</time></trkpt><trkpt lat="44.75247171869765" lon="8.719920086750664"><ele>145.0</ele><time>2026-04-09T08:21:00Z</time></trkpt><trkpt lat="44.75229423006988" lon="8.719927988408667"><ele>145.0</ele><time>2026-04-09T08:21:01Z</time></trkpt><trkpt lat="44.75211351304273" lon="8.719938109098493"><ele>145.0</ele><time>2026-04-09T08:21:02Z</time></trkpt><trkpt lat="44.751927772739776" lon="8.719938465409081"><ele>145.0</ele><time>2026-04-09T08:21:03Z</time></trkpt><trkpt lat="44.75173959266177" lon="8.719929459555887"><ele>144.66666666666669</ele><time>2026-04-09T08:21:04Z</time></trkpt><trkpt lat="44.75154979738891" lon="8.719913736354778"><ele>144.33333333333334</ele><time>2026-04-09T08:21:05Z</time></trkpt><trkpt lat="44.75135616652493" lon="8.719895018100061"><ele>144.0</ele><time>2026-04-09T08:21:06Z</time></trkpt><trkpt lat="44.751160431788826" lon="8.719883657523685"><ele>143.33333333333334</ele><time>2026-04-09T08:21:07Z</time></trkpt><trkpt lat="44.750964567956146" lon="8.719876655803274"><ele>142.66666666666669</ele><time>2026-04-09T08:21:08Z</time></trkpt><trkpt lat="44.75076989787884" lon="8.719868393163546"><ele>142.0</ele><time>2026-04-09T08:21:09Z</time></trkpt><trkpt lat="44.75057595411733" lon="8.719855892226379"><ele>142.0</ele><time>2026-04-09T08:21:10Z</time></trkpt><trkpt lat="44.750394812738776" lon="8.719847793571349"><ele>142.0</ele><time>2026-04-09T08:21:11Z</time></trkpt><trkpt lat="44.750227362562725" lon="8.719840282912"><ele>142.0</ele><time>2026-04-09T08:21:12Z</time></trkpt><trkpt lat="44.75007439551303" lon="8.719855140513008"><ele>143.66666666666669</ele><time>2026-04-09T08:21:13Z</time></trkpt><trkpt lat="44.74991923999465" lon="8.719892778772738"><ele>145.33333333333334</ele><time>2026-04-09T08:21:14Z</time></trkpt><trkpt lat="44.74976133803368" lon="8.719964942544895"><ele>147.0</ele><time>2026-04-09T08:21:15Z</time></trkpt><trkpt lat="44.74960481763877" lon="8.720064797824193"><ele>147.0</ele><time>2026-04-09T08:21:16Z</time></trkpt><trkpt lat="44.74944858835917" lon="8.720168621645778"><ele>147.0</ele><time>2026-04-09T08:21:17Z</time></trkpt><trkpt lat="44.74929657212051" lon="8.720269642200654"><ele>147.0</ele><time>2026-04-09T08:21:18Z</time></trkpt><trkpt lat="44.74915797338526" lon="8.72037437733284"><ele>148.0</ele><time>2026-04-09T08:21:19Z</time></trkpt><trkpt lat="44.7490350097508" lon="8.720496578302372"><ele>149.0</ele><time>2026-04-09T08:21:20Z</time></trkpt><trkpt lat="44.74893241203061" lon="8.720643368668645"><ele>150.0</ele><time>2026-04-09T08:21:21Z</time></trkpt><trkpt lat="44.7488489855254" lon="8.720805311307203"><ele>151.0</ele><time>2026-04-09T08:21:22Z</time></trkpt><trkpt lat="44.7487293303993" lon="8.720920506647552"><ele>151.0</ele><time>2026-04-09T08:21:23Z</time></trkpt><trkpt lat="44.74857886862484" lon="8.72099397491186"><ele>151.0</ele><time>2026-04-09T08:21:24Z</time></trkpt><trkpt lat="44.74841434432647" lon="8.721042962601892"><ele>151.0</ele><time>2026-04-09T08:21:25Z</time></trkpt><trkpt lat="44.74823967133695" lon="8.721094995668032"><ele>151.66666666666669</ele><time>2026-04-09T08:21:26Z</time></trkpt><trkpt lat="44.74806211199485" lon="8.721154647337523"><ele>152.33333333333334</ele><time>2026-04-09T08:21:27Z</time></trkpt><trkpt lat="44.74789096603985" lon="8.721216987635898"><ele>153.0</ele><time>2026-04-09T08:21:28Z</time></trkpt><trkpt lat="44.74770952887925" lon="8.721283311830524"><ele>153.0</ele><time>2026-04-09T08:21:29Z</time></trkpt><trkpt lat="44.74752106504075" lon="8.721347744521726"><ele>153.0</ele><time>2026-04-09T08:21:30Z</time></trkpt><trkpt lat="44.74732890462987" lon="8.721409930789234"><ele>153.0</ele><time>2026-04-09T08:21:31Z</time></trkpt><trkpt lat="44.747140343808255" lon="8.72147438022105"><ele>153.0</ele><time>2026-04-09T08:21:32Z</time></trkpt><trkpt lat="44.74695620715245" lon="8.721534852278893"><ele>153.0</ele><time>2026-04-09T08:21:33Z</time></trkpt><trkpt lat="44.746781005689726" lon="8.721595062924164"><ele>153.0</ele><time>2026-04-09T08:21:34Z</time></trkpt><trkpt lat="44.74661143214216" lon="8.721650970764186"><ele>151.66666666666666</ele><time>2026-04-09T08:21:35Z</time></trkpt><trkpt lat="44.74644231878992" lon="8.721704551129088"><ele>150.33333333333331</ele><time>2026-04-09T08:21:36Z</time></trkpt><trkpt lat="44.74627226458969" lon="8.721762380108581"><ele>149.0</ele><time>2026-04-09T08:21:37Z</time></trkpt><trkpt lat="44.74610503616443" lon="8.721830237745431"><ele>149.66666666666666</ele><time>2026-04-09T08:21:37.999Z</time></trkpt><trkpt lat="44.74594050394455" lon="8.72192877867815"><ele>150.33333333333334</ele><time>2026-04-09T08:21:38.999Z</time></trkpt><trkpt lat="44.74578373925204" lon="8.722049108699409"><ele>151.0</ele><time>2026-04-09T08:21:39.999Z</time></trkpt><trkpt lat="44.745624416726386" lon="8.722186538855132"><ele>151.0</ele><time>2026-04-09T08:21:40.999Z</time></trkpt><trkpt lat="44.74546091856221" lon="8.722334137134393"><ele>151.0</ele><time>2026-04-09T08:21:41.999Z</time></trkpt><trkpt lat="44.74529443885513" lon="8.72249080425748"><ele>151.0</ele><time>2026-04-09T08:21:42.999Z</time></trkpt><trkpt lat="44.74512159477661" lon="8.722650819948381"><ele>150.33333333333334</ele><time>2026-04-09T08:21:43.999Z</time></trkpt><trkpt lat="44.744945010000386" lon="8.722813997105055"><ele>149.66666666666666</ele><time>2026-04-09T08:21:44.999Z</time></trkpt><trkpt lat="44.74476225213666" lon="8.722980725440259"><ele>149.0</ele><time>2026-04-09T08:21:45.999Z</time></trkpt><trkpt lat="44.744577750913145" lon="8.723148634933331"><ele>149.0</ele><time>2026-04-09T08:21:46.999Z</time></trkpt><trkpt lat="44.74440248058686" lon="8.72330927058713"><ele>149.0</ele><time>2026-04-09T08:21:47.999Z</time></trkpt><trkpt lat="44.74422571160799" lon="8.723471744680761"><ele>149.0</ele><time>2026-04-09T08:21:49Z</time></trkpt><trkpt lat="44.74405053552216" lon="8.723637192777076"><ele>149.33333333333331</ele><time>2026-04-09T08:21:50Z</time></trkpt><trkpt lat="44.74387254112437" lon="8.723802095248592"><ele>149.66666666666666</ele><time>2026-04-09T08:21:51Z</time></trkpt><trkpt lat="44.743695978094735" lon="8.723964341498089"><ele>150.0</ele><time>2026-04-09T08:21:52Z</time></trkpt><trkpt lat="44.74351506334007" lon="8.724122960675402"><ele>150.66666666666666</ele><time>2026-04-09T08:21:53Z</time></trkpt><trkpt lat="44.743338704364206" lon="8.724286167230035"><ele>151.33333333333331</ele><time>2026-04-09T08:21:54Z</time></trkpt><trkpt lat="44.74316129837136" lon="8.724451501003674"><ele>152.0</ele><time>2026-04-09T08:21:55Z</time></trkpt><trkpt lat="44.74298092682901" lon="8.724613589784132"><ele>152.0</ele><time>2026-04-09T08:21:56Z</time></trkpt><trkpt lat="44.74280060853268" lon="8.724778980181773"><ele>152.0</ele><time>2026-04-09T08:21:57Z</time></trkpt><trkpt lat="44.7426192687201" lon="8.724942194748246"><ele>152.0</ele><time>2026-04-09T08:21:58Z</time></trkpt><trkpt lat="44.742437725074275" lon="8.725108756159084"><ele>153.66666666666666</ele><time>2026-04-09T08:21:59Z</time></trkpt><trkpt lat="44.742255473257636" lon="8.72527479653874"><ele>155.33333333333334</ele><time>2026-04-09T08:22:00Z</time></trkpt><trkpt lat="44.74207204456483" lon="8.72544346696963"><ele>157.0</ele><time>2026-04-09T08:22:01Z</time></trkpt><trkpt lat="44.741885804987824" lon="8.725608721568582"><ele>157.33333333333334</ele><time>2026-04-09T08:22:02Z</time></trkpt><trkpt lat="44.74169930860704" lon="8.725778679795924"><ele>157.66666666666666</ele><time>2026-04-09T08:22:03Z</time></trkpt><trkpt lat="44.741513088307464" lon="8.725949823624568"><ele>158.0</ele><time>2026-04-09T08:22:04Z</time></trkpt><trkpt lat="44.74132772613365" lon="8.726120891510632"><ele>158.0</ele><time>2026-04-09T08:22:05Z</time></trkpt><trkpt lat="44.741147203044555" lon="8.726286971838022"><ele>158.0</ele><time>2026-04-09T08:22:06Z</time></trkpt><trkpt lat="44.74096796563074" lon="8.726450265994453"><ele>158.0</ele><time>2026-04-09T08:22:07Z</time></trkpt><trkpt lat="44.7408039530658" lon="8.72660338584101"><ele>157.66666666666666</ele><time>2026-04-09T08:22:08Z</time></trkpt><trkpt lat="44.740654079435004" lon="8.726740020054221"><ele>157.33333333333334</ele><time>2026-04-09T08:22:09Z</time></trkpt><trkpt lat="44.740505055203066" lon="8.726867840744854"><ele>157.0</ele><time>2026-04-09T08:22:10Z</time></trkpt><trkpt lat="44.74036637497279" lon="8.726992553548916"><ele>157.0</ele><time>2026-04-09T08:22:11Z</time></trkpt><trkpt lat="44.74023413332321" lon="8.72711309164813"><ele>157.0</ele><time>2026-04-09T08:22:12Z</time></trkpt><trkpt lat="44.7401037971799" lon="8.727229048531251"><ele>157.0</ele><time>2026-04-09T08:22:13Z</time></trkpt><trkpt lat="44.73997278234083" lon="8.727354101934662"><ele>156.33333333333334</ele><time>2026-04-09T08:22:14Z</time></trkpt><trkpt lat="44.73983708977366" lon="8.727478704079532"><ele>155.66666666666666</ele><time>2026-04-09T08:22:15Z</time></trkpt><trkpt lat="44.739700678566656" lon="8.72760732638386"><ele>155.0</ele><time>2026-04-09T08:22:16Z</time></trkpt><trkpt lat="44.73956090888636" lon="8.727737042760142"><ele>156.0</ele><time>2026-04-09T08:22:17Z</time></trkpt><trkpt lat="44.739419601167995" lon="8.72786446826049"><ele>157.0</ele><time>2026-04-09T08:22:18Z</time></trkpt><trkpt lat="44.73927740733736" lon="8.7279932978394"><ele>158.0</ele><time>2026-04-09T08:22:19Z</time></trkpt><trkpt lat="44.7391374080385" lon="8.728121969786688"><ele>158.0</ele><time>2026-04-09T08:22:20Z</time></trkpt><trkpt lat="44.738999704186796" lon="8.728249715332497"><ele>158.0</ele><time>2026-04-09T08:22:21Z</time></trkpt><trkpt lat="44.738864187708906" lon="8.728376662092225"><ele>158.0</ele><time>2026-04-09T08:22:22Z</time></trkpt><trkpt lat="44.73873152765839" lon="8.728499024228649"><ele>160.0</ele><time>2026-04-09T08:22:23Z</time></trkpt><trkpt lat="44.738602178718686" lon="8.728618200526386"><ele>162.0</ele><time>2026-04-09T08:22:24Z</time></trkpt><trkpt lat="44.73847429109554" lon="8.728730079077557"><ele>164.0</ele><time>2026-04-09T08:22:25Z</time></trkpt><trkpt lat="44.73834940801093" lon="8.728840515532731"><ele>164.0</ele><time>2026-04-09T08:22:26Z</time></trkpt><trkpt lat="44.73822870148878" lon="8.728951598672852"><ele>164.0</ele><time>2026-04-09T08:22:27Z</time></trkpt><trkpt lat="44.738113470281746" lon="8.729060497649101"><ele>164.0</ele><time>2026-04-09T08:22:28Z</time></trkpt><trkpt lat="44.7380084758069" lon="8.7291589863595"><ele>164.0</ele><time>2026-04-09T08:22:29Z</time></trkpt><trkpt lat="44.737901225418575" lon="8.729257531576494"><ele>164.0</ele><time>2026-04-09T08:22:30Z</time></trkpt><trkpt lat="44.737785641149365" lon="8.72935526199115"><ele>164.0</ele><time>2026-04-09T08:22:31Z</time></trkpt><trkpt lat="44.73767816646821" lon="8.729460979185035"><ele>164.0</ele><time>2026-04-09T08:22:32Z</time></trkpt><trkpt lat="44.7375663737355" lon="8.729560444155258"><ele>164.0</ele><time>2026-04-09T08:22:33Z</time></trkpt><trkpt lat="44.73746195247748" lon="8.729662417621029"><ele>164.0</ele><time>2026-04-09T08:22:34Z</time></trkpt><trkpt lat="44.73735395255503" lon="8.729761053027742"><ele>164.0</ele><time>2026-04-09T08:22:35Z</time></trkpt><trkpt lat="44.737250955046" lon="8.729861812909336"><ele>164.0</ele><time>2026-04-09T08:22:36Z</time></trkpt><trkpt lat="44.737148441990904" lon="8.729960166255493"><ele>164.0</ele><time>2026-04-09T08:22:37Z</time></trkpt><trkpt lat="44.737041910511635" lon="8.730048090174598"><ele>164.0</ele><time>2026-04-09T08:22:38Z</time></trkpt><trkpt lat="44.73694041193431" lon="8.730141284943953"><ele>164.0</ele><time>2026-04-09T08:22:39Z</time></trkpt><trkpt lat="44.73683741274371" lon="8.730233294913962"><ele>164.0</ele><time>2026-04-09T08:22:40Z</time></trkpt><trkpt lat="44.736738461618984" lon="8.7303252265639"><ele>164.0</ele><time>2026-04-09T08:22:41Z</time></trkpt><trkpt lat="44.7366371305184" lon="8.730414257252383"><ele>164.0</ele><time>2026-04-09T08:22:42Z</time></trkpt><trkpt lat="44.73653914243255" lon="8.730502042493395"><ele>164.0</ele><time>2026-04-09T08:22:43Z</time></trkpt><trkpt lat="44.73644417537264" lon="8.730591004987055"><ele>164.0</ele><time>2026-04-09T08:22:44Z</time></trkpt><trkpt lat="44.736347548084744" lon="8.73067699043703"><ele>164.0</ele><time>2026-04-09T08:22:45Z</time></trkpt><trkpt lat="44.73625213112928" lon="8.73076511840106"><ele>164.0</ele><time>2026-04-09T08:22:46Z</time></trkpt><trkpt lat="44.73615654501943" lon="8.730850755258675"><ele>164.0</ele><time>2026-04-09T08:22:47Z</time></trkpt><trkpt lat="44.736062096300145" lon="8.730940396272459"><ele>164.0</ele><time>2026-04-09T08:22:48Z</time></trkpt><trkpt lat="44.7359671969492" lon="8.731024995690971"><ele>164.0</ele><time>2026-04-09T08:22:49Z</time></trkpt><trkpt lat="44.73587325423876" lon="8.731113173610797"><ele>164.2</ele><time>2026-04-09T08:22:50Z</time></trkpt><trkpt lat="44.73577935536683" lon="8.731198000432927"><ele>164.39999999999998</ele><time>2026-04-09T08:22:51Z</time></trkpt><trkpt lat="44.73568548608088" lon="8.731283341970736"><ele>164.6</ele><time>2026-04-09T08:22:52Z</time></trkpt><trkpt lat="44.73559607517304" lon="8.731368676512888"><ele>164.8</ele><time>2026-04-09T08:22:53Z</time></trkpt><trkpt lat="44.735503777733534" lon="8.731458428422222"><ele>165.0</ele><time>2026-04-09T08:22:54Z</time></trkpt><trkpt lat="44.73541003768851" lon="8.731553346013985"><ele>165.0</ele><time>2026-04-09T08:22:55Z</time></trkpt><trkpt lat="44.73530992941159" lon="8.731643457409362"><ele>165.0</ele><time>2026-04-09T08:22:56Z</time></trkpt><trkpt lat="44.73520942369026" lon="8.7317348021836"><ele>165.0</ele><time>2026-04-09T08:22:57Z</time></trkpt><trkpt lat="44.73510704479644" lon="8.731818489901935"><ele>165.0</ele><time>2026-04-09T08:22:58Z</time></trkpt><trkpt lat="44.735008985066315" lon="8.731910626123327"><ele>165.25</ele><time>2026-04-09T08:22:59Z</time></trkpt><trkpt lat="44.73490598972551" lon="8.73200176914286"><ele>165.5</ele><time>2026-04-09T08:23:00Z</time></trkpt><trkpt lat="44.7348057009414" lon="8.73209100035103"><ele>165.75</ele><time>2026-04-09T08:23:01Z</time></trkpt><trkpt lat="44.734706393302744" lon="8.732182289752627"><ele>166.0</ele><time>2026-04-09T08:23:02Z</time></trkpt><trkpt lat="44.73460653765383" lon="8.732271143454348"><ele>166.0</ele><time>2026-04-09T08:23:03Z</time></trkpt><trkpt lat="44.73451034918635" lon="8.732362124120728"><ele>166.0</ele><time>2026-04-09T08:23:04Z</time></trkpt><trkpt lat="44.73441243400524" lon="8.732448908181597"><ele>166.0</ele><time>2026-04-09T08:23:05Z</time></trkpt><trkpt lat="44.734315770715654" lon="8.73253515290425"><ele>166.0</ele><time>2026-04-09T08:23:06Z</time></trkpt><trkpt lat="44.7342203793624" lon="8.732617935243644"><ele>166.20000000000002</ele><time>2026-04-09T08:23:07Z</time></trkpt><trkpt lat="44.734129957024194" lon="8.73270401484339"><ele>166.4</ele><time>2026-04-09T08:23:08Z</time></trkpt><trkpt lat="44.73404111638266" lon="8.732786183684578"><ele>166.6</ele><time>2026-04-09T08:23:09Z</time></trkpt><trkpt lat="44.73395223121097" lon="8.73287678329915"><ele>166.8</ele><time>2026-04-09T08:23:10Z</time></trkpt><trkpt lat="44.73386414492956" lon="8.732967498403973"><ele>167.0</ele><time>2026-04-09T08:23:11Z</time></trkpt><trkpt lat="44.733773624581914" lon="8.733060064921776"><ele>166.0</ele><time>2026-04-09T08:23:12Z</time></trkpt><trkpt lat="44.73368155625882" lon="8.733151880697624"><ele>165.0</ele><time>2026-04-09T08:23:13Z</time></trkpt><trkpt lat="44.73358543989755" lon="8.733246391974689"><ele>164.0</ele><time>2026-04-09T08:23:14Z</time></trkpt><trkpt lat="44.73348780843363" lon="8.733342197338764"><ele>163.0</ele><time>2026-04-09T08:23:15Z</time></trkpt><trkpt lat="44.733392648346815" lon="8.73342929241919"><ele>163.0</ele><time>2026-04-09T08:23:16Z</time></trkpt><trkpt lat="44.73328592199749" lon="8.733510252554126"><ele>163.0</ele><time>2026-04-09T08:23:17Z</time></trkpt><trkpt lat="44.73317405233969" lon="8.733571082699726"><ele>163.0</ele><time>2026-04-09T08:23:18Z</time></trkpt><trkpt lat="44.73306119918052" lon="8.733618061037676"><ele>163.0</ele><time>2026-04-09T08:23:19Z</time></trkpt><trkpt lat="44.73295691591243" lon="8.733684657831303"><ele>163.0</ele><time>2026-04-09T08:23:20Z</time></trkpt><trkpt lat="44.732847111329406" lon="8.733754134622293"><ele>163.0</ele><time>2026-04-09T08:23:21Z</time></trkpt><trkpt lat="44.73274000095677" lon="8.733836596963481"><ele>163.0</ele><time>2026-04-09T08:23:22Z</time></trkpt><trkpt lat="44.732642766488915" lon="8.733930171707142"><ele>163.0</ele><time>2026-04-09T08:23:23Z</time></trkpt><trkpt lat="44.73254251512858" lon="8.734034282515513"><ele>163.0</ele><time>2026-04-09T08:23:24Z</time></trkpt><trkpt lat="44.73244519245569" lon="8.734151371843469"><ele>163.0</ele><time>2026-04-09T08:23:25Z</time></trkpt><trkpt lat="44.732351967288906" lon="8.73426817738372"><ele>163.0</ele><time>2026-04-09T08:23:26Z</time></trkpt><trkpt lat="44.73225885489882" lon="8.734391893051463"><ele>163.0</ele><time>2026-04-09T08:23:27Z</time></trkpt><trkpt lat="44.732169659441325" lon="8.734512158458157"><ele>163.5</ele><time>2026-04-09T08:23:28Z</time></trkpt><trkpt lat="44.73207965594532" lon="8.734622347267452"><ele>164.0</ele><time>2026-04-09T08:23:29Z</time></trkpt><trkpt lat="44.731987101270875" lon="8.73471604414532"><ele>164.5</ele><time>2026-04-09T08:23:30Z</time></trkpt><trkpt lat="44.73188883146696" lon="8.734800353003855"><ele>165.0</ele><time>2026-04-09T08:23:31Z</time></trkpt><trkpt lat="44.7317868968231" lon="8.734878596329699"><ele>165.0</ele><time>2026-04-09T08:23:32Z</time></trkpt><trkpt lat="44.731680269383915" lon="8.73494979095347"><ele>165.0</ele><time>2026-04-09T08:23:33Z</time></trkpt><trkpt lat="44.731571404368125" lon="8.73501538774388"><ele>165.0</ele><time>2026-04-09T08:23:34Z</time></trkpt><trkpt lat="44.73145759985442" lon="8.735073775349827"><ele>165.0</ele><time>2026-04-09T08:23:35Z</time></trkpt><trkpt lat="44.73134139310803" lon="8.735118210522447"><ele>165.0</ele><time>2026-04-09T08:23:35.999Z</time></trkpt><trkpt lat="44.73122084630517" lon="8.73514856337798"><ele>165.0</ele><time>2026-04-09T08:23:36.999Z</time></trkpt><trkpt lat="44.731098614781246" lon="8.73516915604944"><ele>165.0</ele><time>2026-04-09T08:23:37.999Z</time></trkpt><trkpt lat="44.73097851382903" lon="8.735190668327649"><ele>165.0</ele><time>2026-04-09T08:23:38.999Z</time></trkpt><trkpt lat="44.73085981405845" lon="8.735225337495342"><ele>167.0</ele><time>2026-04-09T08:23:39.999Z</time></trkpt><trkpt lat="44.730746285599636" lon="8.735288494865623"><ele>169.0</ele><time>2026-04-09T08:23:40.999Z</time></trkpt><trkpt lat="44.73063949715687" lon="8.735374687637181"><ele>171.0</ele><time>2026-04-09T08:23:41.999Z</time></trkpt><trkpt lat="44.730537601643576" lon="8.735483215601166"><ele>173.0</ele><time>2026-04-09T08:23:42.999Z</time></trkpt><trkpt lat="44.73043464862707" lon="8.73559904314521"><ele>173.0</ele><time>2026-04-09T08:23:43.999Z</time></trkpt><trkpt lat="44.73033007999893" lon="8.735735134962491"><ele>173.0</ele><time>2026-04-09T08:23:44.999Z</time></trkpt><trkpt lat="44.730225374892754" lon="8.735876551251486"><ele>173.0</ele><time>2026-04-09T08:23:45.999Z</time></trkpt><trkpt lat="44.730113797096614" lon="8.736022624796021"><ele>173.0</ele><time>2026-04-09T08:23:46.999Z</time></trkpt><trkpt lat="44.72999896822535" lon="8.736173199362037"><ele>173.0</ele><time>2026-04-09T08:23:47.999Z</time></trkpt><trkpt lat="44.72987856547937" lon="8.736324796482974"><ele>173.0</ele><time>2026-04-09T08:23:48.999Z</time></trkpt><trkpt lat="44.72974894883058" lon="8.736476427591128"><ele>173.0</ele><time>2026-04-09T08:23:49.999Z</time></trkpt><trkpt lat="44.72961839477204" lon="8.736618621980753"><ele>173.0</ele><time>2026-04-09T08:23:50.999Z</time></trkpt><trkpt lat="44.72948687305681" lon="8.736757733498298"><ele>173.0</ele><time>2026-04-09T08:23:51.999Z</time></trkpt><trkpt lat="44.72935039849133" lon="8.736904951791818"><ele>173.0</ele><time>2026-04-09T08:23:52.999Z</time></trkpt><trkpt lat="44.72920389060484" lon="8.737045930070357"><ele>172.66666666666666</ele><time>2026-04-09T08:23:53.999Z</time></trkpt><trkpt lat="44.72905673244453" lon="8.737195886375615"><ele>172.33333333333334</ele><time>2026-04-09T08:23:55Z</time></trkpt><trkpt lat="44.728898171177185" lon="8.737338814912393"><ele>172.0</ele><time>2026-04-09T08:23:56Z</time></trkpt><trkpt lat="44.728727968659896" lon="8.73747271331714"><ele>168.66666666666669</ele><time>2026-04-09T08:23:57Z</time></trkpt><trkpt lat="44.72853977807334" lon="8.737601984114201"><ele>165.33333333333334</ele><time>2026-04-09T08:23:58Z</time></trkpt><trkpt lat="44.72833081677228" lon="8.737740400578206"><ele>162.0</ele><time>2026-04-09T08:23:59Z</time></trkpt><trkpt lat="44.72809872498751" lon="8.737895224195592"><ele>162.0</ele><time>2026-04-09T08:24:00Z</time></trkpt><trkpt lat="44.727859324876505" lon="8.738057504462853"><ele>162.0</ele><time>2026-04-09T08:24:01Z</time></trkpt><trkpt lat="44.72761299161913" lon="8.73822070665075"><ele>161.5</ele><time>2026-04-09T08:24:02Z</time></trkpt><trkpt lat="44.72735269946727" lon="8.7383923164141"><ele>161.0</ele><time>2026-04-09T08:24:03Z</time></trkpt><trkpt lat="44.72706775650283" lon="8.73857001114236"><ele>160.5</ele><time>2026-04-09T08:24:04Z</time></trkpt><trkpt lat="44.72678725092865" lon="8.73875552464738"><ele>160.0</ele><time>2026-04-09T08:24:05Z</time></trkpt><trkpt lat="44.72651263771916" lon="8.738932875399039"><ele>160.0</ele><time>2026-04-09T08:24:06Z</time></trkpt><trkpt lat="44.72624199258968" lon="8.739114374816317"><ele>160.0</ele><time>2026-04-09T08:24:07Z</time></trkpt><trkpt lat="44.725969653133006" lon="8.739284987772503"><ele>160.5</ele><time>2026-04-09T08:24:08Z</time></trkpt><trkpt lat="44.725701270473245" lon="8.739462261052388"><ele>161.0</ele><time>2026-04-09T08:24:09Z</time></trkpt><trkpt lat="44.72544177545" lon="8.739630432427946"><ele>161.5</ele><time>2026-04-09T08:24:10Z</time></trkpt><trkpt lat="44.72519291057492" lon="8.739794748729237"><ele>162.0</ele><time>2026-04-09T08:24:11Z</time></trkpt><trkpt lat="44.7249496846495" lon="8.739949841033797"><ele>162.0</ele><time>2026-04-09T08:24:12Z</time></trkpt><trkpt lat="44.72470982474515" lon="8.740104233201324"><ele>162.0</ele><time>2026-04-09T08:24:13Z</time></trkpt><trkpt lat="44.72447188280205" lon="8.740260392400357"><ele>162.0</ele><time>2026-04-09T08:24:14Z</time></trkpt><trkpt lat="44.724234728937205" lon="8.740411051970407"><ele>162.0</ele><time>2026-04-09T08:24:15Z</time></trkpt><trkpt lat="44.72399976484014" lon="8.74056788687173"><ele>162.0</ele><time>2026-04-09T08:24:16Z</time></trkpt><trkpt lat="44.72376469552009" lon="8.740721381299771"><ele>162.0</ele><time>2026-04-09T08:24:17Z</time></trkpt><trkpt lat="44.72353089368383" lon="8.740878778902418"><ele>162.0</ele><time>2026-04-09T08:24:18Z</time></trkpt><trkpt lat="44.72329531854005" lon="8.741032697011647"><ele>162.0</ele><time>2026-04-09T08:24:19Z</time></trkpt><trkpt lat="44.7230623197312" lon="8.741185091244015"><ele>162.0</ele><time>2026-04-09T08:24:20Z</time></trkpt><trkpt lat="44.7228279745368" lon="8.741336740326682"><ele>162.0</ele><time>2026-04-09T08:24:21Z</time></trkpt><trkpt lat="44.72259724229531" lon="8.741488830432827"><ele>162.5</ele><time>2026-04-09T08:24:22Z</time></trkpt><trkpt lat="44.722369120770665" lon="8.741638625193854"><ele>163.0</ele><time>2026-04-09T08:24:23Z</time></trkpt><trkpt lat="44.72214414029704" lon="8.741787803915518"><ele>164.33333333333334</ele><time>2026-04-09T08:24:24Z</time></trkpt><trkpt lat="44.72192817890137" lon="8.741929604697965"><ele>165.66666666666666</ele><time>2026-04-09T08:24:25Z</time></trkpt><trkpt lat="44.7217672622316" lon="8.742042111405835"><ele>167.0</ele><time>2026-04-09T08:24:26Z</time></trkpt><trkpt lat="44.721650812296026" lon="8.742125435479135"><ele>167.0</ele><time>2026-04-09T08:24:27Z</time></trkpt><trkpt lat="44.72156269170655" lon="8.742184108798478"><ele>167.0</ele><time>2026-04-09T08:24:28Z</time></trkpt><trkpt lat="44.7214900003001" lon="8.742233687090222"><ele>167.0</ele><time>2026-04-09T08:24:29Z</time></trkpt><trkpt lat="44.72142491760989" lon="8.742276000676446"><ele>167.0</ele><time>2026-04-09T08:24:30Z</time></trkpt><trkpt lat="44.72132949341553" lon="8.742348269498617"><ele>167.0</ele><time>2026-04-09T08:24:32Z</time></trkpt><trkpt lat="44.72122584827984" lon="8.742443736084104"><ele>167.0</ele><time>2026-04-09T08:24:34Z</time></trkpt><trkpt lat="44.72115904196729" lon="8.742508184828484"><ele>167.0</ele><time>2026-04-09T08:24:35Z</time></trkpt><trkpt lat="44.72108540334387" lon="8.742587113935999"><ele>167.0</ele><time>2026-04-09T08:24:36Z</time></trkpt><trkpt lat="44.720999468555966" lon="8.742678189237505"><ele>167.0</ele><time>2026-04-09T08:24:37Z</time></trkpt><trkpt lat="44.72089846992319" lon="8.742784305901283"><ele>167.0</ele><time>2026-04-09T08:24:38Z</time></trkpt><trkpt lat="44.72078244207758" lon="8.742905509845542"><ele>167.66666666666666</ele><time>2026-04-09T08:24:39Z</time></trkpt><trkpt lat="44.72065843923946" lon="8.743039247457196"><ele>168.33333333333334</ele><time>2026-04-09T08:24:40Z</time></trkpt><trkpt lat="44.72053587170188" lon="8.743167017092846"><ele>169.0</ele><time>2026-04-09T08:24:41Z</time></trkpt><trkpt lat="44.720401823664766" lon="8.743306689371215"><ele>169.0</ele><time>2026-04-09T08:24:42Z</time></trkpt><trkpt lat="44.7202594837088" lon="8.743452555264582"><ele>169.0</ele><time>2026-04-09T08:24:43Z</time></trkpt><trkpt lat="44.72010998578121" lon="8.74361628537309"><ele>169.0</ele><time>2026-04-09T08:24:44Z</time></trkpt><trkpt lat="44.719956591490224" lon="8.743782307943054"><ele>168.66666666666669</ele><time>2026-04-09T08:24:45Z</time></trkpt><trkpt lat="44.71981009323969" lon="8.743940466580357"><ele>168.33333333333334</ele><time>2026-04-09T08:24:46Z</time></trkpt><trkpt lat="44.719660303036456" lon="8.74409619122729"><ele>168.0</ele><time>2026-04-09T08:24:47Z</time></trkpt><trkpt lat="44.71951177499995" lon="8.744256772283793"><ele>169.0</ele><time>2026-04-09T08:24:48Z</time></trkpt><trkpt lat="44.71936375002557" lon="8.744415570470329"><ele>170.0</ele><time>2026-04-09T08:24:49Z</time></trkpt><trkpt lat="44.719224188060366" lon="8.744570216182618"><ele>171.0</ele><time>2026-04-09T08:24:50Z</time></trkpt><trkpt lat="44.71909357963009" lon="8.744716990809927"><ele>171.0</ele><time>2026-04-09T08:24:51Z</time></trkpt><trkpt lat="44.7189616322359" lon="8.744866861801052"><ele>171.0</ele><time>2026-04-09T08:24:52Z</time></trkpt><trkpt lat="44.71883060961017" lon="8.745022753524932"><ele>171.0</ele><time>2026-04-09T08:24:53Z</time></trkpt><trkpt lat="44.718696710751786" lon="8.745170314752757"><ele>170.33333333333334</ele><time>2026-04-09T08:24:54Z</time></trkpt><trkpt lat="44.71855859504791" lon="8.74531982330851"><ele>169.66666666666669</ele><time>2026-04-09T08:24:55Z</time></trkpt><trkpt lat="44.71841768366134" lon="8.74546758155384"><ele>169.0</ele><time>2026-04-09T08:24:56Z</time></trkpt><trkpt lat="44.718277536527346" lon="8.745617678175801"><ele>169.0</ele><time>2026-04-09T08:24:57Z</time></trkpt><trkpt lat="44.71813563475774" lon="8.74576490149867"><ele>169.0</ele><time>2026-04-09T08:24:58Z</time></trkpt><trkpt lat="44.71799367099229" lon="8.745919004371059"><ele>169.0</ele><time>2026-04-09T08:24:59Z</time></trkpt><trkpt lat="44.717849467446676" lon="8.746070309675577"><ele>168.33333333333334</ele><time>2026-04-09T08:25:00Z</time></trkpt><trkpt lat="44.71770328844686" lon="8.746227671459621"><ele>167.66666666666666</ele><time>2026-04-09T08:25:01Z</time></trkpt><trkpt lat="44.717563438636844" lon="8.746381003749777"><ele>167.0</ele><time>2026-04-09T08:25:02Z</time></trkpt><trkpt lat="44.717415866342755" lon="8.746540659147886"><ele>167.0</ele><time>2026-04-09T08:25:03Z</time></trkpt><trkpt lat="44.71726529809834" lon="8.746703563638949"><ele>167.0</ele><time>2026-04-09T08:25:04Z</time></trkpt><trkpt lat="44.717113501909964" lon="8.74686225806827"><ele>167.0</ele><time>2026-04-09T08:25:05Z</time></trkpt><trkpt lat="44.71696110752217" lon="8.747020371341428"><ele>166.0</ele><time>2026-04-09T08:25:06Z</time></trkpt><trkpt lat="44.71681011522059" lon="8.747184048703291"><ele>165.0</ele><time>2026-04-09T08:25:07Z</time></trkpt><trkpt lat="44.716657012333414" lon="8.7473532098901"><ele>164.0</ele><time>2026-04-09T08:25:08Z</time></trkpt><trkpt lat="44.716502963964594" lon="8.74751608296225"><ele>164.0</ele><time>2026-04-09T08:25:09Z</time></trkpt><trkpt lat="44.7163534830748" lon="8.747680576393437"><ele>164.0</ele><time>2026-04-09T08:25:10Z</time></trkpt><trkpt lat="44.71619640546286" lon="8.747835305643896"><ele>164.0</ele><time>2026-04-09T08:25:11Z</time></trkpt><trkpt lat="44.7160374847542" lon="8.747989652660536"><ele>165.0</ele><time>2026-04-09T08:25:12Z</time></trkpt><trkpt lat="44.715878572918925" lon="8.748158832573312"><ele>166.0</ele><time>2026-04-09T08:25:13Z</time></trkpt><trkpt lat="44.71572481736471" lon="8.748327550034212"><ele>167.0</ele><time>2026-04-09T08:25:14Z</time></trkpt><trkpt lat="44.715564760456004" lon="8.748480262053551"><ele>167.66666666666666</ele><time>2026-04-09T08:25:15Z</time></trkpt><trkpt lat="44.715397236415455" lon="8.748623949046497"><ele>168.33333333333334</ele><time>2026-04-09T08:25:16Z</time></trkpt><trkpt lat="44.71522330167387" lon="8.748741424242201"><ele>169.0</ele><time>2026-04-09T08:25:17Z</time></trkpt><trkpt lat="44.71505331952989" lon="8.748851927001143"><ele>169.0</ele><time>2026-04-09T08:25:18Z</time></trkpt><trkpt lat="44.71487062637892" lon="8.748963517789045"><ele>169.0</ele><time>2026-04-09T08:25:19Z</time></trkpt><trkpt lat="44.71468712114755" lon="8.749070614685364"><ele>169.0</ele><time>2026-04-09T08:25:20Z</time></trkpt><trkpt lat="44.71450366533629" lon="8.74916786836644"><ele>169.0</ele><time>2026-04-09T08:25:21Z</time></trkpt><trkpt lat="44.71432677197456" lon="8.749263578193586"><ele>169.0</ele><time>2026-04-09T08:25:22Z</time></trkpt><trkpt lat="44.71414919351222" lon="8.749349347307952"><ele>169.0</ele><time>2026-04-09T08:25:23Z</time></trkpt><trkpt lat="44.71397796328133" lon="8.749435973037128"><ele>169.66666666666669</ele><time>2026-04-09T08:25:24Z</time></trkpt><trkpt lat="44.71381530471345" lon="8.749522468903242"><ele>170.33333333333334</ele><time>2026-04-09T08:25:25Z</time></trkpt><trkpt lat="44.7136457004583" lon="8.749615076115257"><ele>171.0</ele><time>2026-04-09T08:25:26Z</time></trkpt><trkpt lat="44.71349135051374" lon="8.749707064075203"><ele>171.0</ele><time>2026-04-09T08:25:27Z</time></trkpt><trkpt lat="44.71333712204408" lon="8.749794943896873"><ele>171.0</ele><time>2026-04-09T08:25:28Z</time></trkpt><trkpt lat="44.713182227602815" lon="8.749882235864504"><ele>171.0</ele><time>2026-04-09T08:25:29Z</time></trkpt><trkpt lat="44.71303218614832" lon="8.749973083291216"><ele>171.0</ele><time>2026-04-09T08:25:30Z</time></trkpt><trkpt lat="44.71287757250171" lon="8.750068282726046"><ele>171.0</ele><time>2026-04-09T08:25:31Z</time></trkpt><trkpt lat="44.71272242827867" lon="8.750157070134765"><ele>171.0</ele><time>2026-04-09T08:25:32Z</time></trkpt><trkpt lat="44.71256714220707" lon="8.750249036865382"><ele>173.33333333333334</ele><time>2026-04-09T08:25:33Z</time></trkpt><trkpt lat="44.71241097423347" lon="8.75034462641617"><ele>175.66666666666669</ele><time>2026-04-09T08:25:34Z</time></trkpt><trkpt lat="44.712256323863045" lon="8.750443318338505"><ele>178.0</ele><time>2026-04-09T08:25:35Z</time></trkpt><trkpt lat="44.71210104032729" lon="8.750540089230512"><ele>178.0</ele><time>2026-04-09T08:25:36Z</time></trkpt><trkpt lat="44.71194777807946" lon="8.750626006258765"><ele>178.0</ele><time>2026-04-09T08:25:37Z</time></trkpt><trkpt lat="44.71179827739608" lon="8.750676854001338"><ele>178.0</ele><time>2026-04-09T08:25:38Z</time></trkpt><trkpt lat="44.7116481108051" lon="8.750708381402848"><ele>178.0</ele><time>2026-04-09T08:25:39Z</time></trkpt><trkpt lat="44.71149082931605" lon="8.750735586918411"><ele>178.0</ele><time>2026-04-09T08:25:40Z</time></trkpt><trkpt lat="44.71133569871002" lon="8.750776175832923"><ele>178.0</ele><time>2026-04-09T08:25:41Z</time></trkpt><trkpt lat="44.71117758899111" lon="8.7508287351834"><ele>177.0</ele><time>2026-04-09T08:25:42Z</time></trkpt><trkpt lat="44.71102385902323" lon="8.750891565592708"><ele>176.0</ele><time>2026-04-09T08:25:43Z</time></trkpt><trkpt lat="44.71087755908951" lon="8.750990647696721"><ele>175.0</ele><time>2026-04-09T08:25:44Z</time></trkpt><trkpt lat="44.71073194905038" lon="8.751095585744462"><ele>179.33333333333334</ele><time>2026-04-09T08:25:45Z</time></trkpt><trkpt lat="44.71059362137015" lon="8.751215374661454"><ele>183.66666666666666</ele><time>2026-04-09T08:25:46Z</time></trkpt><trkpt lat="44.71045628155298" lon="8.751321423619421"><ele>188.0</ele><time>2026-04-09T08:25:47Z</time></trkpt><trkpt lat="44.71031627908357" lon="8.751420896036398"><ele>185.0</ele><time>2026-04-09T08:25:48Z</time></trkpt><trkpt lat="44.71016272304722" lon="8.751550865593455"><ele>182.0</ele><time>2026-04-09T08:25:48.999Z</time></trkpt><trkpt lat="44.71000811927663" lon="8.751647373517299"><ele>179.0</ele><time>2026-04-09T08:25:49.999Z</time></trkpt><trkpt lat="44.70984916308898" lon="8.751741282406666"><ele>179.0</ele><time>2026-04-09T08:25:50.999Z</time></trkpt><trkpt lat="44.70968158358883" lon="8.751801383796874"><ele>179.0</ele><time>2026-04-09T08:25:51.999Z</time></trkpt><trkpt lat="44.70951686145673" lon="8.751874252355796"><ele>179.0</ele><time>2026-04-09T08:25:52.999Z</time></trkpt><trkpt lat="44.709362022321464" lon="8.75196482037236"><ele>181.33333333333331</ele><time>2026-04-09T08:25:53.999Z</time></trkpt><trkpt lat="44.70920586294058" lon="8.752036582483102"><ele>183.66666666666666</ele><time>2026-04-09T08:25:54.999Z</time></trkpt><trkpt lat="44.709055465924486" lon="8.75211456843339"><ele>186.0</ele><time>2026-04-09T08:25:55.999Z</time></trkpt><trkpt lat="44.70891313413275" lon="8.752207035796632"><ele>186.0</ele><time>2026-04-09T08:25:56.999Z</time></trkpt><trkpt lat="44.70877160134642" lon="8.752301387121703"><ele>186.0</ele><time>2026-04-09T08:25:57.999Z</time></trkpt><trkpt lat="44.70862531837884" lon="8.752393326015723"><ele>186.0</ele><time>2026-04-09T08:25:58.999Z</time></trkpt><trkpt lat="44.70848087641374" lon="8.7524811067853"><ele>187.33333333333334</ele><time>2026-04-09T08:25:59.999Z</time></trkpt><trkpt lat="44.708339579156544" lon="8.752572518307199"><ele>188.66666666666669</ele><time>2026-04-09T08:26:01Z</time></trkpt><trkpt lat="44.708205561154365" lon="8.752662580310501"><ele>190.0</ele><time>2026-04-09T08:26:02Z</time></trkpt><trkpt lat="44.708069013836386" lon="8.752751643972381"><ele>190.0</ele><time>2026-04-09T08:26:03Z</time></trkpt><trkpt lat="44.70792839025771" lon="8.752843483089833"><ele>190.0</ele><time>2026-04-09T08:26:04Z</time></trkpt><trkpt lat="44.70778527915255" lon="8.752934169291304"><ele>190.0</ele><time>2026-04-09T08:26:05Z</time></trkpt><trkpt lat="44.707639869126346" lon="8.753028079700211"><ele>186.33333333333334</ele><time>2026-04-09T08:26:06Z</time></trkpt><trkpt lat="44.70749580472151" lon="8.753115915268728"><ele>182.66666666666666</ele><time>2026-04-09T08:26:07Z</time></trkpt><trkpt lat="44.707352201200976" lon="8.753195756391355"><ele>179.0</ele><time>2026-04-09T08:26:08Z</time></trkpt><trkpt lat="44.70720116633774" lon="8.75324800082944"><ele>179.0</ele><time>2026-04-09T08:26:09Z</time></trkpt><trkpt lat="44.70705358783617" lon="8.753336261689446"><ele>179.0</ele><time>2026-04-09T08:26:10Z</time></trkpt><trkpt lat="44.70689504032851" lon="8.753398501104286"><ele>179.0</ele><time>2026-04-09T08:26:11Z</time></trkpt><trkpt lat="44.70673783918368" lon="8.753463804979102"><ele>178.33333333333331</ele><time>2026-04-09T08:26:12Z</time></trkpt><trkpt lat="44.70658165390083" lon="8.753532810931588"><ele>177.66666666666666</ele><time>2026-04-09T08:26:13Z</time></trkpt><trkpt lat="44.70642200578102" lon="8.753606243309"><ele>177.0</ele><time>2026-04-09T08:26:14Z</time></trkpt><trkpt lat="44.70626228781243" lon="8.753680487209436"><ele>177.0</ele><time>2026-04-09T08:26:15Z</time></trkpt><trkpt lat="44.706099474303684" lon="8.753753060909657"><ele>177.0</ele><time>2026-04-09T08:26:16Z</time></trkpt><trkpt lat="44.70593433063995" lon="8.753823400587986"><ele>177.0</ele><time>2026-04-09T08:26:17Z</time></trkpt><trkpt lat="44.70577214418821" lon="8.75389259564388"><ele>176.33333333333334</ele><time>2026-04-09T08:26:18Z</time></trkpt><trkpt lat="44.70561204481248" lon="8.753967453305444"><ele>175.66666666666669</ele><time>2026-04-09T08:26:19Z</time></trkpt><trkpt lat="44.705451790558584" lon="8.754036221354148"><ele>175.0</ele><time>2026-04-09T08:26:20Z</time></trkpt><trkpt lat="44.70529300674436" lon="8.754106586016956"><ele>175.33333333333334</ele><time>2026-04-09T08:26:21Z</time></trkpt><trkpt lat="44.70513402330547" lon="8.754175272582518"><ele>175.66666666666666</ele><time>2026-04-09T08:26:22Z</time></trkpt><trkpt lat="44.70496518417187" lon="8.75423932300601"><ele>176.0</ele><time>2026-04-09T08:26:23Z</time></trkpt><trkpt lat="44.70479366229596" lon="8.754305065439272"><ele>175.66666666666666</ele><time>2026-04-09T08:26:24Z</time></trkpt><trkpt lat="44.70462863459772" lon="8.754374878189958"><ele>175.33333333333334</ele><time>2026-04-09T08:26:25Z</time></trkpt><trkpt lat="44.70446446475262" lon="8.75444482419181"><ele>175.0</ele><time>2026-04-09T08:26:26Z</time></trkpt><trkpt lat="44.70430704915371" lon="8.754499263523785"><ele>175.5</ele><time>2026-04-09T08:26:27Z</time></trkpt><trkpt lat="44.70415788115274" lon="8.754548291105245"><ele>176.0</ele><time>2026-04-09T08:26:28Z</time></trkpt><trkpt lat="44.704018125104334" lon="8.754608675523297"><ele>176.5</ele><time>2026-04-09T08:26:29Z</time></trkpt><trkpt lat="44.70388153683565" lon="8.75467654276554"><ele>177.0</ele><time>2026-04-09T08:26:30Z</time></trkpt><trkpt lat="44.70378374582205" lon="8.754773657756198"><ele>177.0</ele><time>2026-04-09T08:26:31Z</time></trkpt><trkpt lat="44.70369464665211" lon="8.754917250543112"><ele>177.0</ele><time>2026-04-09T08:26:32Z</time></trkpt><trkpt lat="44.70362612871007" lon="8.755082366845055"><ele>177.0</ele><time>2026-04-09T08:26:33Z</time></trkpt><trkpt lat="44.70355705886135" lon="8.755269833169882"><ele>177.0</ele><time>2026-04-09T08:26:34Z</time></trkpt><trkpt lat="44.703476536051035" lon="8.755450363760518"><ele>177.33333333333334</ele><time>2026-04-09T08:26:35Z</time></trkpt><trkpt lat="44.703390366664564" lon="8.75563224475676"><ele>177.66666666666669</ele><time>2026-04-09T08:26:36Z</time></trkpt><trkpt lat="44.70330286720643" lon="8.755813115200526"><ele>178.0</ele><time>2026-04-09T08:26:37Z</time></trkpt><trkpt lat="44.70321404585199" lon="8.755985677556872"><ele>178.75</ele><time>2026-04-09T08:26:38Z</time></trkpt><trkpt lat="44.70311270207829" lon="8.756134926874642"><ele>179.5</ele><time>2026-04-09T08:26:39Z</time></trkpt><trkpt lat="44.70299660379275" lon="8.75625398767526"><ele>180.25</ele><time>2026-04-09T08:26:40Z</time></trkpt><trkpt lat="44.70287102030224" lon="8.756356648256656"><ele>181.0</ele><time>2026-04-09T08:26:41Z</time></trkpt><trkpt lat="44.70274421019781" lon="8.7564584350344"><ele>181.0</ele><time>2026-04-09T08:26:42Z</time></trkpt><trkpt lat="44.702620202168845" lon="8.756573815732454"><ele>181.0</ele><time>2026-04-09T08:26:43Z</time></trkpt><trkpt lat="44.70249939356887" lon="8.756702919509797"><ele>181.0</ele><time>2026-04-09T08:26:44Z</time></trkpt><trkpt lat="44.702380601078005" lon="8.75684954328459"><ele>183.33333333333334</ele><time>2026-04-09T08:26:45Z</time></trkpt><trkpt lat="44.70226621722442" lon="8.757015183821885"><ele>185.66666666666666</ele><time>2026-04-09T08:26:46Z</time></trkpt><trkpt lat="44.70214742897984" lon="8.757183108584524"><ele>188.0</ele><time>2026-04-09T08:26:47Z</time></trkpt><trkpt lat="44.70202422880579" lon="8.757357025992034"><ele>187.66666666666666</ele><time>2026-04-09T08:26:48Z</time></trkpt><trkpt lat="44.70189821850575" lon="8.757542934915588"><ele>187.33333333333334</ele><time>2026-04-09T08:26:49Z</time></trkpt><trkpt lat="44.70177327559991" lon="8.75772736763748"><ele>187.0</ele><time>2026-04-09T08:26:50Z</time></trkpt><trkpt lat="44.70165206949871" lon="8.757901500770682"><ele>186.66666666666669</ele><time>2026-04-09T08:26:51Z</time></trkpt><trkpt lat="44.701536805368214" lon="8.758065682699513"><ele>186.33333333333334</ele><time>2026-04-09T08:26:52Z</time></trkpt><trkpt lat="44.70142944451593" lon="8.758225802179995"><ele>186.0</ele><time>2026-04-09T08:26:53Z</time></trkpt><trkpt lat="44.70132730697232" lon="8.758396403278462"><ele>187.0</ele><time>2026-04-09T08:26:54Z</time></trkpt><trkpt lat="44.70122924216701" lon="8.75858419418854"><ele>188.0</ele><time>2026-04-09T08:26:55Z</time></trkpt><trkpt lat="44.70113362713224" lon="8.758782071876437"><ele>189.0</ele><time>2026-04-09T08:26:56Z</time></trkpt><trkpt lat="44.70104820951075" lon="8.758993144552479"><ele>187.33333333333334</ele><time>2026-04-09T08:26:57Z</time></trkpt><trkpt lat="44.70097007522695" lon="8.75921164309857"><ele>185.66666666666669</ele><time>2026-04-09T08:26:58Z</time></trkpt><trkpt lat="44.70089434742034" lon="8.75944096189679"><ele>184.0</ele><time>2026-04-09T08:26:59Z</time></trkpt><trkpt lat="44.70081880759841" lon="8.759665353279035"><ele>184.0</ele><time>2026-04-09T08:27:00Z</time></trkpt><trkpt lat="44.700739038191195" lon="8.7598896884982"><ele>184.0</ele><time>2026-04-09T08:27:01Z</time></trkpt><trkpt lat="44.70066678074508" lon="8.760104367415874"><ele>184.0</ele><time>2026-04-09T08:27:02Z</time></trkpt><trkpt lat="44.70059526515084" lon="8.760317714711816"><ele>185.66666666666669</ele><time>2026-04-09T08:27:03Z</time></trkpt><trkpt lat="44.70051973670056" lon="8.76052527604638"><ele>187.33333333333334</ele><time>2026-04-09T08:27:04Z</time></trkpt><trkpt lat="44.70044327451989" lon="8.760727284027746"><ele>189.0</ele><time>2026-04-09T08:27:05Z</time></trkpt><trkpt lat="44.70036896342544" lon="8.76092973968361"><ele>189.66666666666666</ele><time>2026-04-09T08:27:06Z</time></trkpt><trkpt lat="44.700302879915824" lon="8.76113149907079"><ele>190.33333333333331</ele><time>2026-04-09T08:27:07Z</time></trkpt><trkpt lat="44.70024572473331" lon="8.761344461506498"><ele>191.0</ele><time>2026-04-09T08:27:08Z</time></trkpt><trkpt lat="44.700206480516925" lon="8.761566687395508"><ele>191.0</ele><time>2026-04-09T08:27:09Z</time></trkpt><trkpt lat="44.700166472330416" lon="8.761784572809"><ele>191.0</ele><time>2026-04-09T08:27:10Z</time></trkpt><trkpt lat="44.700107128002045" lon="8.761984681419165"><ele>191.0</ele><time>2026-04-09T08:27:11Z</time></trkpt><trkpt lat="44.700011588318155" lon="8.762162204541244"><ele>192.0</ele><time>2026-04-09T08:27:12Z</time></trkpt><trkpt lat="44.69989605065989" lon="8.762322957563228"><ele>193.0</ele><time>2026-04-09T08:27:13Z</time></trkpt><trkpt lat="44.699782544258525" lon="8.762489485661963"><ele>194.0</ele><time>2026-04-09T08:27:14Z</time></trkpt><trkpt lat="44.6996674778001" lon="8.762669061256803"><ele>195.0</ele><time>2026-04-09T08:27:15Z</time></trkpt><trkpt lat="44.69955432346156" lon="8.76285033954442"><ele>196.0</ele><time>2026-04-09T08:27:16Z</time></trkpt><trkpt lat="44.699435077707754" lon="8.76302717122815"><ele>197.0</ele><time>2026-04-09T08:27:17Z</time></trkpt><trkpt lat="44.69931981580199" lon="8.763205548675087"><ele>197.0</ele><time>2026-04-09T08:27:18Z</time></trkpt><trkpt lat="44.69921325692014" lon="8.763393215082028"><ele>197.0</ele><time>2026-04-09T08:27:19Z</time></trkpt><trkpt lat="44.69911162838406" lon="8.763588954214233"><ele>197.0</ele><time>2026-04-09T08:27:20Z</time></trkpt><trkpt lat="44.699010885823945" lon="8.763796708090723"><ele>197.66666666666669</ele><time>2026-04-09T08:27:21Z</time></trkpt><trkpt lat="44.69891050182381" lon="8.764004978731236"><ele>198.33333333333331</ele><time>2026-04-09T08:27:22Z</time></trkpt><trkpt lat="44.69880410115475" lon="8.764212108971892"><ele>199.0</ele><time>2026-04-09T08:27:23Z</time></trkpt><trkpt lat="44.698700882501264" lon="8.764412933608279"><ele>199.66666666666666</ele><time>2026-04-09T08:27:24Z</time></trkpt><trkpt lat="44.69860206718764" lon="8.76461407108321"><ele>200.33333333333331</ele><time>2026-04-09T08:27:25Z</time></trkpt><trkpt lat="44.698510198948945" lon="8.764819310913499"><ele>201.0</ele><time>2026-04-09T08:27:26Z</time></trkpt><trkpt lat="44.69842301376136" lon="8.765027240771577"><ele>202.33333333333331</ele><time>2026-04-09T08:27:27Z</time></trkpt><trkpt lat="44.69833932957699" lon="8.76523744153577"><ele>203.66666666666666</ele><time>2026-04-09T08:27:28Z</time></trkpt><trkpt lat="44.69825289904683" lon="8.76544779539641"><ele>205.0</ele><time>2026-04-09T08:27:29Z</time></trkpt><trkpt lat="44.69815881531404" lon="8.765654961308213"><ele>205.0</ele><time>2026-04-09T08:27:30Z</time></trkpt><trkpt lat="44.69805788636384" lon="8.765854580898054"><ele>205.0</ele><time>2026-04-09T08:27:31Z</time></trkpt><trkpt lat="44.697956551553695" lon="8.76604364430707"><ele>205.0</ele><time>2026-04-09T08:27:32Z</time></trkpt><trkpt lat="44.697862558007685" lon="8.766213113782406"><ele>205.0</ele><time>2026-04-09T08:27:33Z</time></trkpt><trkpt lat="44.697779467235506" lon="8.76636513093396"><ele>205.0</ele><time>2026-04-09T08:27:34Z</time></trkpt><trkpt lat="44.69769760006399" lon="8.766501158581379"><ele>205.0</ele><time>2026-04-09T08:27:35Z</time></trkpt><trkpt lat="44.69760434888075" lon="8.766630025326037"><ele>205.0</ele><time>2026-04-09T08:27:36Z</time></trkpt><trkpt lat="44.69751193969341" lon="8.766753426562087"><ele>205.0</ele><time>2026-04-09T08:27:37Z</time></trkpt><trkpt lat="44.69742423138613" lon="8.766885812989235"><ele>205.0</ele><time>2026-04-09T08:27:38Z</time></trkpt><trkpt lat="44.6973471968576" lon="8.767034733411236"><ele>205.0</ele><time>2026-04-09T08:27:39Z</time></trkpt><trkpt lat="44.69728198908863" lon="8.767197709712471"><ele>205.0</ele><time>2026-04-09T08:27:40Z</time></trkpt><trkpt lat="44.69722078141002" lon="8.767365751268368"><ele>205.0</ele><time>2026-04-09T08:27:41Z</time></trkpt><trkpt lat="44.6971672832687" lon="8.76754549354692"><ele>205.0</ele><time>2026-04-09T08:27:42Z</time></trkpt><trkpt lat="44.69711697478116" lon="8.767735703396035"><ele>205.0</ele><time>2026-04-09T08:27:43Z</time></trkpt><trkpt lat="44.69705880417744" lon="8.767931491068598"><ele>205.0</ele><time>2026-04-09T08:27:44Z</time></trkpt><trkpt lat="44.696994871906035" lon="8.768120736192625"><ele>204.75</ele><time>2026-04-09T08:27:45Z</time></trkpt><trkpt lat="44.69691765721866" lon="8.76830341128417"><ele>204.5</ele><time>2026-04-09T08:27:46Z</time></trkpt><trkpt lat="44.69683231431387" lon="8.76847255892376"><ele>204.25</ele><time>2026-04-09T08:27:47Z</time></trkpt><trkpt lat="44.696722285934825" lon="8.768613379450086"><ele>204.0</ele><time>2026-04-09T08:27:48Z</time></trkpt><trkpt lat="44.69658128980047" lon="8.768705268523155"><ele>211.33333333333331</ele><time>2026-04-09T08:27:49Z</time></trkpt><trkpt lat="44.69644192816116" lon="8.768821397237055"><ele>218.66666666666666</ele><time>2026-04-09T08:27:50Z</time></trkpt><trkpt lat="44.696299174537195" lon="8.76890112533773"><ele>226.0</ele><time>2026-04-09T08:27:51Z</time></trkpt><trkpt lat="44.69616906887901" lon="8.768979359589368"><ele>228.0</ele><time>2026-04-09T08:27:52Z</time></trkpt><trkpt lat="44.696046314357815" lon="8.769074612741095"><ele>230.0</ele><time>2026-04-09T08:27:53Z</time></trkpt><trkpt lat="44.69592229758391" lon="8.769174816577795"><ele>232.0</ele><time>2026-04-09T08:27:54Z</time></trkpt><trkpt lat="44.69580049963083" lon="8.769275750072199"><ele>234.0</ele><time>2026-04-09T08:27:55Z</time></trkpt><trkpt lat="44.69568518670451" lon="8.769389018826338"><ele>234.0</ele><time>2026-04-09T08:27:56Z</time></trkpt><trkpt lat="44.695574653729004" lon="8.769528002564577"><ele>234.0</ele><time>2026-04-09T08:27:57Z</time></trkpt><trkpt lat="44.69547080598618" lon="8.769681555778787"><ele>234.0</ele><time>2026-04-09T08:27:57.999Z</time></trkpt><trkpt lat="44.695375755344976" lon="8.769848357095736"><ele>234.0</ele><time>2026-04-09T08:27:58.999Z</time></trkpt><trkpt lat="44.69530546062137" lon="8.770024601510322"><ele>234.0</ele><time>2026-04-09T08:27:59.999Z</time></trkpt><trkpt lat="44.69524360301108" lon="8.770193806680583"><ele>234.0</ele><time>2026-04-09T08:28:00.999Z</time></trkpt><trkpt lat="44.69518430905966" lon="8.770358933220207"><ele>234.0</ele><time>2026-04-09T08:28:01.999Z</time></trkpt><trkpt lat="44.69513357181005" lon="8.770541510733677"><ele>235.25</ele><time>2026-04-09T08:28:02.999Z</time></trkpt><trkpt lat="44.69514345287772" lon="8.770750074573014"><ele>236.5</ele><time>2026-04-09T08:28:03.999Z</time></trkpt><trkpt lat="44.695146930101444" lon="8.770943415976785"><ele>237.75</ele><time>2026-04-09T08:28:04.999Z</time></trkpt><trkpt lat="44.6951788748184" lon="8.771124392517349"><ele>239.0</ele><time>2026-04-09T08:28:05.999Z</time></trkpt><trkpt lat="44.695257226781855" lon="8.77130050277689"><ele>239.0</ele><time>2026-04-09T08:28:07Z</time></trkpt><trkpt lat="44.695300552514624" lon="8.771513283434574"><ele>239.0</ele><time>2026-04-09T08:28:08Z</time></trkpt><trkpt lat="44.69534371135966" lon="8.771711523860203"><ele>239.0</ele><time>2026-04-09T08:28:09Z</time></trkpt><trkpt lat="44.69537498641973" lon="8.771916785421778"><ele>238.75</ele><time>2026-04-09T08:28:10Z</time></trkpt><trkpt lat="44.69538754033538" lon="8.772123995511766"><ele>238.5</ele><time>2026-04-09T08:28:11Z</time></trkpt><trkpt lat="44.695379968421534" lon="8.772325650406986"><ele>238.25</ele><time>2026-04-09T08:28:12Z</time></trkpt><trkpt lat="44.69536460263181" lon="8.77253876332551"><ele>238.0</ele><time>2026-04-09T08:28:13Z</time></trkpt><trkpt lat="44.69537935717585" lon="8.772741084534667"><ele>239.0</ele><time>2026-04-09T08:28:14Z</time></trkpt><trkpt lat="44.69539826337341" lon="8.77294546202269"><ele>240.0</ele><time>2026-04-09T08:28:15Z</time></trkpt><trkpt lat="44.695426603890404" lon="8.773129455603115"><ele>241.0</ele><time>2026-04-09T08:28:16Z</time></trkpt><trkpt lat="44.69546217175455" lon="8.773356653543905"><ele>242.0</ele><time>2026-04-09T08:28:17Z</time></trkpt><trkpt lat="44.69546021876633" lon="8.773582549325422"><ele>244.33333333333334</ele><time>2026-04-09T08:28:18Z</time></trkpt><trkpt lat="44.69547448239198" lon="8.773811335720012"><ele>246.66666666666669</ele><time>2026-04-09T08:28:19Z</time></trkpt><trkpt lat="44.695503024722214" lon="8.774030091063073"><ele>249.0</ele><time>2026-04-09T08:28:20Z</time></trkpt><trkpt lat="44.69552030611941" lon="8.774256348384622"><ele>249.33333333333331</ele><time>2026-04-09T08:28:21Z</time></trkpt><trkpt lat="44.69552056255198" lon="8.77448082015571"><ele>249.66666666666666</ele><time>2026-04-09T08:28:22Z</time></trkpt><trkpt lat="44.695508005516295" lon="8.774695788317231"><ele>250.0</ele><time>2026-04-09T08:28:23Z</time></trkpt><trkpt lat="44.695493678220416" lon="8.774906510224305"><ele>250.0</ele><time>2026-04-09T08:28:24Z</time></trkpt><trkpt lat="44.695490411970646" lon="8.775129992476415"><ele>250.0</ele><time>2026-04-09T08:28:25Z</time></trkpt><trkpt lat="44.695481018478205" lon="8.775322967791107"><ele>250.0</ele><time>2026-04-09T08:28:26Z</time></trkpt><trkpt lat="44.69547747044482" lon="8.775506430627702"><ele>250.0</ele><time>2026-04-09T08:28:27Z</time></trkpt><trkpt lat="44.69546675762283" lon="8.775698710825683"><ele>249.25</ele><time>2026-04-09T08:28:28Z</time></trkpt><trkpt lat="44.69549614453981" lon="8.775891946029747"><ele>248.5</ele><time>2026-04-09T08:28:29Z</time></trkpt><trkpt lat="44.695525227727046" lon="8.776085641613834"><ele>247.75</ele><time>2026-04-09T08:28:30Z</time></trkpt><trkpt lat="44.69557693708963" lon="8.776261110358977"><ele>247.0</ele><time>2026-04-09T08:28:31Z</time></trkpt><trkpt lat="44.6956486537986" lon="8.776441964656414"><ele>244.25</ele><time>2026-04-09T08:28:32Z</time></trkpt><trkpt lat="44.695709827185475" lon="8.776626340694193"><ele>241.5</ele><time>2026-04-09T08:28:33Z</time></trkpt><trkpt lat="44.69575553501068" lon="8.776816049097093"><ele>238.75</ele><time>2026-04-09T08:28:34Z</time></trkpt><trkpt lat="44.695787565925905" lon="8.777019956824677"><ele>236.0</ele><time>2026-04-09T08:28:35Z</time></trkpt><trkpt lat="44.6957931555697" lon="8.777235458607592"><ele>233.0</ele><time>2026-04-09T08:28:36Z</time></trkpt><trkpt lat="44.69577269611867" lon="8.777453714750166"><ele>230.0</ele><time>2026-04-09T08:28:37Z</time></trkpt><trkpt lat="44.69573800212581" lon="8.777670521634294"><ele>227.0</ele><time>2026-04-09T08:28:38Z</time></trkpt><trkpt lat="44.69570110350815" lon="8.777877770033928"><ele>227.5</ele><time>2026-04-09T08:28:39Z</time></trkpt><trkpt lat="44.695665297634335" lon="8.778078225952076"><ele>228.0</ele><time>2026-04-09T08:28:40Z</time></trkpt><trkpt lat="44.695636899569124" lon="8.77825887634394"><ele>228.5</ele><time>2026-04-09T08:28:41Z</time></trkpt><trkpt lat="44.6956165951531" lon="8.778424630752127"><ele>229.0</ele><time>2026-04-09T08:28:42Z</time></trkpt><trkpt lat="44.69558764355879" lon="8.77857722360762"><ele>229.0</ele><time>2026-04-09T08:28:43Z</time></trkpt><trkpt lat="44.69552854030764" lon="8.778711387188784"><ele>229.0</ele><time>2026-04-09T08:28:44Z</time></trkpt><trkpt lat="44.695441293603245" lon="8.778833147864614"><ele>229.0</ele><time>2026-04-09T08:28:45Z</time></trkpt><trkpt lat="44.695326370742485" lon="8.778902690681004"><ele>229.0</ele><time>2026-04-09T08:28:46Z</time></trkpt><trkpt lat="44.695200557788574" lon="8.778900121072233"><ele>225.75</ele><time>2026-04-09T08:28:47Z</time></trkpt><trkpt lat="44.69507154807209" lon="8.778815933472734"><ele>222.5</ele><time>2026-04-09T08:28:48Z</time></trkpt><trkpt lat="44.69493112947798" lon="8.778759382675801"><ele>219.25</ele><time>2026-04-09T08:28:49Z</time></trkpt><trkpt lat="44.69479586996164" lon="8.77866849857239"><ele>216.0</ele><time>2026-04-09T08:28:50Z</time></trkpt><trkpt lat="44.69466233468741" lon="8.778590108656346"><ele>216.0</ele><time>2026-04-09T08:28:51Z</time></trkpt><trkpt lat="44.69454007414606" lon="8.778521503785662"><ele>216.0</ele><time>2026-04-09T08:28:52Z</time></trkpt><trkpt lat="44.6944304848545" lon="8.778462329122647"><ele>216.0</ele><time>2026-04-09T08:28:53Z</time></trkpt><trkpt lat="44.694331216194286" lon="8.778428632205381"><ele>216.0</ele><time>2026-04-09T08:28:54Z</time></trkpt><trkpt lat="44.694227998413346" lon="8.778438395596794"><ele>214.0</ele><time>2026-04-09T08:28:55Z</time></trkpt><trkpt lat="44.69412463500876" lon="8.778501210968596"><ele>212.0</ele><time>2026-04-09T08:28:56Z</time></trkpt><trkpt lat="44.6940410258385" lon="8.778622501431055"><ele>210.0</ele><time>2026-04-09T08:28:57Z</time></trkpt><trkpt lat="44.693990436977785" lon="8.778786376573077"><ele>208.0</ele><time>2026-04-09T08:28:58Z</time></trkpt><trkpt lat="44.693967501399754" lon="8.77896998673665"><ele>208.0</ele><time>2026-04-09T08:28:59Z</time></trkpt><trkpt lat="44.693942447528535" lon="8.779160518449515"><ele>208.0</ele><time>2026-04-09T08:29:00Z</time></trkpt><trkpt lat="44.69391437640155" lon="8.779343686137029"><ele>208.0</ele><time>2026-04-09T08:29:01Z</time></trkpt><trkpt lat="44.693887356687185" lon="8.779537433182808"><ele>208.0</ele><time>2026-04-09T08:29:02Z</time></trkpt><trkpt lat="44.693862162334746" lon="8.779729547023745"><ele>208.5</ele><time>2026-04-09T08:29:03Z</time></trkpt><trkpt lat="44.69383644168384" lon="8.779918419610864"><ele>209.0</ele><time>2026-04-09T08:29:04Z</time></trkpt><trkpt lat="44.693808983582116" lon="8.780098907582687"><ele>209.5</ele><time>2026-04-09T08:29:05Z</time></trkpt><trkpt lat="44.69378473187999" lon="8.780272488216196"><ele>210.0</ele><time>2026-04-09T08:29:06Z</time></trkpt><trkpt lat="44.693763872720325" lon="8.780444181535577"><ele>210.0</ele><time>2026-04-09T08:29:07Z</time></trkpt><trkpt lat="44.69374819131097" lon="8.780618908785243"><ele>210.0</ele><time>2026-04-09T08:29:08Z</time></trkpt><trkpt lat="44.69374193476202" lon="8.78080103397953"><ele>210.0</ele><time>2026-04-09T08:29:09Z</time></trkpt><trkpt lat="44.69374345282805" lon="8.780986677309448"><ele>210.0</ele><time>2026-04-09T08:29:10Z</time></trkpt><trkpt lat="44.693766790634974" lon="8.781169685562347"><ele>210.0</ele><time>2026-04-09T08:29:11Z</time></trkpt><trkpt lat="44.69380183443746" lon="8.781353327279744"><ele>210.0</ele><time>2026-04-09T08:29:12Z</time></trkpt><trkpt lat="44.69384226886661" lon="8.781543974709066"><ele>210.0</ele><time>2026-04-09T08:29:13Z</time></trkpt><trkpt lat="44.693879591952026" lon="8.78174022055889"><ele>210.0</ele><time>2026-04-09T08:29:14Z</time></trkpt><trkpt lat="44.69392615284648" lon="8.781940976552232"><ele>210.0</ele><time>2026-04-09T08:29:15Z</time></trkpt><trkpt lat="44.69397696644579" lon="8.78214408798088"><ele>210.0</ele><time>2026-04-09T08:29:16Z</time></trkpt><trkpt lat="44.69403114821916" lon="8.78235065034352"><ele>210.0</ele><time>2026-04-09T08:29:17Z</time></trkpt><trkpt lat="44.69409189504783" lon="8.78255891126298"><ele>207.33333333333331</ele><time>2026-04-09T08:29:18Z</time></trkpt><trkpt lat="44.6941635233324" lon="8.782763821712273"><ele>204.66666666666666</ele><time>2026-04-09T08:29:19Z</time></trkpt><trkpt lat="44.69424459734765" lon="8.782970534474147"><ele>202.0</ele><time>2026-04-09T08:29:20Z</time></trkpt><trkpt lat="44.69432480975498" lon="8.783182750627947"><ele>202.0</ele><time>2026-04-09T08:29:21Z</time></trkpt><trkpt lat="44.69439878090204" lon="8.783401070422794"><ele>202.0</ele><time>2026-04-09T08:29:22Z</time></trkpt><trkpt lat="44.69446401675453" lon="8.78361946849476"><ele>202.0</ele><time>2026-04-09T08:29:23Z</time></trkpt><trkpt lat="44.69452361546176" lon="8.783850103300143"><ele>206.66666666666666</ele><time>2026-04-09T08:29:24Z</time></trkpt><trkpt lat="44.69458093841428" lon="8.784084659616193"><ele>211.33333333333331</ele><time>2026-04-09T08:29:25Z</time></trkpt><trkpt lat="44.69464087881413" lon="8.784318532177904"><ele>216.0</ele><time>2026-04-09T08:29:26Z</time></trkpt><trkpt lat="44.69471329405147" lon="8.784544410145552"><ele>216.0</ele><time>2026-04-09T08:29:27Z</time></trkpt><trkpt lat="44.69480199890941" lon="8.784758034678157"><ele>216.0</ele><time>2026-04-09T08:29:28Z</time></trkpt><trkpt lat="44.69489743038603" lon="8.784966750349641"><ele>216.0</ele><time>2026-04-09T08:29:29Z</time></trkpt><trkpt lat="44.694986103312836" lon="8.785181685129826"><ele>212.66666666666669</ele><time>2026-04-09T08:29:30Z</time></trkpt><trkpt lat="44.69505496393843" lon="8.785406878899654"><ele>209.33333333333334</ele><time>2026-04-09T08:29:31Z</time></trkpt><trkpt lat="44.6951009824982" lon="8.78564267953121"><ele>206.0</ele><time>2026-04-09T08:29:32Z</time></trkpt><trkpt lat="44.6951384972796" lon="8.785880403619279"><ele>205.33333333333334</ele><time>2026-04-09T08:29:33Z</time></trkpt><trkpt lat="44.69518839165523" lon="8.78611674249211"><ele>204.66666666666669</ele><time>2026-04-09T08:29:34Z</time></trkpt><trkpt lat="44.69525659684192" lon="8.786351239832152"><ele>204.0</ele><time>2026-04-09T08:29:35Z</time></trkpt><trkpt lat="44.6953355781852" lon="8.786582064286586"><ele>205.66666666666669</ele><time>2026-04-09T08:29:36Z</time></trkpt><trkpt lat="44.6954188449179" lon="8.786811376700234"><ele>207.33333333333334</ele><time>2026-04-09T08:29:37Z</time></trkpt><trkpt lat="44.69550843126558" lon="8.787034565867287"><ele>209.0</ele><time>2026-04-09T08:29:38Z</time></trkpt><trkpt lat="44.69560559335145" lon="8.787251931813188"><ele>209.0</ele><time>2026-04-09T08:29:39Z</time></trkpt><trkpt lat="44.695710487048125" lon="8.787458751948279"><ele>209.0</ele><time>2026-04-09T08:29:40Z</time></trkpt><trkpt lat="44.69582040418655" lon="8.787655088337576"><ele>209.0</ele><time>2026-04-09T08:29:41Z</time></trkpt><trkpt lat="44.695927397188655" lon="8.787844883129447"><ele>209.0</ele><time>2026-04-09T08:29:42Z</time></trkpt><trkpt lat="44.69602152683686" lon="8.78804651365297"><ele>209.0</ele><time>2026-04-09T08:29:43Z</time></trkpt><trkpt lat="44.696098201014806" lon="8.788268720277266"><ele>209.0</ele><time>2026-04-09T08:29:44Z</time></trkpt><trkpt lat="44.69616461762361" lon="8.788499860074571"><ele>212.66666666666669</ele><time>2026-04-09T08:29:45Z</time></trkpt><trkpt lat="44.6962327328308" lon="8.788735220001465"><ele>216.33333333333331</ele><time>2026-04-09T08:29:46Z</time></trkpt><trkpt lat="44.696308956690295" lon="8.78896483104772"><ele>220.0</ele><time>2026-04-09T08:29:47Z</time></trkpt><trkpt lat="44.696395175817834" lon="8.7891776252379"><ele>217.0</ele><time>2026-04-09T08:29:48Z</time></trkpt><trkpt lat="44.69648648518573" lon="8.789380371404185"><ele>214.0</ele><time>2026-04-09T08:29:49Z</time></trkpt><trkpt lat="44.69657068350878" lon="8.789580758166949"><ele>211.0</ele><time>2026-04-09T08:29:50Z</time></trkpt><trkpt lat="44.696637629821424" lon="8.789794634517186"><ele>211.0</ele><time>2026-04-09T08:29:51Z</time></trkpt><trkpt lat="44.69669765683686" lon="8.79000898040774"><ele>211.0</ele><time>2026-04-09T08:29:52Z</time></trkpt><trkpt lat="44.69675456514196" lon="8.790233352318852"><ele>211.0</ele><time>2026-04-09T08:29:53Z</time></trkpt><trkpt lat="44.69679379019787" lon="8.790466472157702"><ele>209.0</ele><time>2026-04-09T08:29:54Z</time></trkpt><trkpt lat="44.696815340909716" lon="8.790705656215655"><ele>207.0</ele><time>2026-04-09T08:29:55Z</time></trkpt><trkpt lat="44.69682855540709" lon="8.790950940325427"><ele>205.0</ele><time>2026-04-09T08:29:56Z</time></trkpt><trkpt lat="44.696838745367494" lon="8.791199395132734"><ele>204.66666666666666</ele><time>2026-04-09T08:29:57Z</time></trkpt><trkpt lat="44.696848123898356" lon="8.791448945264687"><ele>204.33333333333331</ele><time>2026-04-09T08:29:58Z</time></trkpt><trkpt lat="44.69685680195994" lon="8.791693848517696"><ele>204.0</ele><time>2026-04-09T08:29:59Z</time></trkpt><trkpt lat="44.69687097559104" lon="8.791928192837252"><ele>205.0</ele><time>2026-04-09T08:30:00Z</time></trkpt><trkpt lat="44.69688936676933" lon="8.792152460969724"><ele>206.0</ele><time>2026-04-09T08:30:01Z</time></trkpt><trkpt lat="44.69691255117619" lon="8.792352071742059"><ele>207.0</ele><time>2026-04-09T08:30:01.999Z</time></trkpt><trkpt lat="44.6969361007135" lon="8.792534766301333"><ele>208.0</ele><time>2026-04-09T08:30:02.999Z</time></trkpt><trkpt lat="44.696950576885804" lon="8.792714816599197"><ele>210.0</ele><time>2026-04-09T08:30:03.999Z</time></trkpt><trkpt lat="44.69694038274824" lon="8.792898444100908"><ele>212.0</ele><time>2026-04-09T08:30:04.999Z</time></trkpt><trkpt lat="44.69689482088255" lon="8.793079588100905"><ele>214.0</ele><time>2026-04-09T08:30:05.999Z</time></trkpt><trkpt lat="44.69682747332035" lon="8.793254240799541"><ele>216.0</ele><time>2026-04-09T08:30:06.999Z</time></trkpt><trkpt lat="44.69674726056863" lon="8.793428178213158"><ele>220.33333333333331</ele><time>2026-04-09T08:30:07.999Z</time></trkpt><trkpt lat="44.69665586788977" lon="8.793599269599767"><ele>224.66666666666666</ele><time>2026-04-09T08:30:08.999Z</time></trkpt><trkpt lat="44.69655236781114" lon="8.793764027378604"><ele>229.0</ele><time>2026-04-09T08:30:09.999Z</time></trkpt><trkpt lat="44.696443526487045" lon="8.793922885358777"><ele>229.0</ele><time>2026-04-09T08:30:10.999Z</time></trkpt><trkpt lat="44.69633559312804" lon="8.794084279796351"><ele>229.0</ele><time>2026-04-09T08:30:11.999Z</time></trkpt><trkpt lat="44.69623042510282" lon="8.794243762391973"><ele>229.0</ele><time>2026-04-09T08:30:13Z</time></trkpt><trkpt lat="44.696121832089275" lon="8.794386054785715"><ele>231.0</ele><time>2026-04-09T08:30:14Z</time></trkpt><trkpt lat="44.6960053201912" lon="8.794505342928058"><ele>233.0</ele><time>2026-04-09T08:30:15Z</time></trkpt><trkpt lat="44.69587900174287" lon="8.794609913893371"><ele>235.0</ele><time>2026-04-09T08:30:16Z</time></trkpt><trkpt lat="44.69574833907365" lon="8.794704664114889"><ele>237.0</ele><time>2026-04-09T08:30:17Z</time></trkpt><trkpt lat="44.69562174730125" lon="8.79479744216993"><ele>237.0</ele><time>2026-04-09T08:30:18Z</time></trkpt><trkpt lat="44.69549593633892" lon="8.794889829017581"><ele>237.0</ele><time>2026-04-09T08:30:19Z</time></trkpt><trkpt lat="44.69536956548329" lon="8.794983878215671"><ele>237.0</ele><time>2026-04-09T08:30:20Z</time></trkpt><trkpt lat="44.69524343919641" lon="8.795076217573884"><ele>237.0</ele><time>2026-04-09T08:30:21Z</time></trkpt><trkpt lat="44.69511623642606" lon="8.795169109906695"><ele>238.5</ele><time>2026-04-09T08:30:22Z</time></trkpt><trkpt lat="44.694990631052285" lon="8.795252907080009"><ele>240.0</ele><time>2026-04-09T08:30:23Z</time></trkpt><trkpt lat="44.69486639966983" lon="8.795311822484877"><ele>241.5</ele><time>2026-04-09T08:30:24Z</time></trkpt><trkpt lat="44.69475441781088" lon="8.79535486668427"><ele>243.0</ele><time>2026-04-09T08:30:25Z</time></trkpt><trkpt lat="44.69466356535122" lon="8.795409448701154"><ele>243.0</ele><time>2026-04-09T08:30:26Z</time></trkpt><trkpt lat="44.694584114904494" lon="8.795497326846354"><ele>243.0</ele><time>2026-04-09T08:30:27Z</time></trkpt><trkpt lat="44.69450393641217" lon="8.795612087512733"><ele>243.0</ele><time>2026-04-09T08:30:28Z</time></trkpt><trkpt lat="44.694427112533134" lon="8.795749395089025"><ele>243.0</ele><time>2026-04-09T08:30:29Z</time></trkpt><trkpt lat="44.69434452557261" lon="8.795894198950664"><ele>242.25</ele><time>2026-04-09T08:30:30Z</time></trkpt><trkpt lat="44.694261416892694" lon="8.796030707169395"><ele>241.5</ele><time>2026-04-09T08:30:31Z</time></trkpt><trkpt lat="44.69417253986124" lon="8.796167528203936"><ele>240.75</ele><time>2026-04-09T08:30:32Z</time></trkpt><trkpt lat="44.694070963750384" lon="8.796295116456916"><ele>240.0</ele><time>2026-04-09T08:30:33Z</time></trkpt><trkpt lat="44.69395675246663" lon="8.79639410995612"><ele>240.0</ele><time>2026-04-09T08:30:34Z</time></trkpt><trkpt lat="44.69384575600169" lon="8.796479224027157"><ele>240.0</ele><time>2026-04-09T08:30:35Z</time></trkpt><trkpt lat="44.69374146964752" lon="8.796573594874033"><ele>240.0</ele><time>2026-04-09T08:30:36Z</time></trkpt><trkpt lat="44.69365155107229" lon="8.796689966277217"><ele>240.0</ele><time>2026-04-09T08:30:37Z</time></trkpt><trkpt lat="44.69357600687586" lon="8.796835614700372"><ele>238.5</ele><time>2026-04-09T08:30:38Z</time></trkpt><trkpt lat="44.69351677968136" lon="8.796996813307905"><ele>237.0</ele><time>2026-04-09T08:30:39Z</time></trkpt><trkpt lat="44.6934639054999" lon="8.797154869988812"><ele>235.5</ele><time>2026-04-09T08:30:40Z</time></trkpt><trkpt lat="44.69341949849927" lon="8.797304822080894"><ele>234.0</ele><time>2026-04-09T08:30:41Z</time></trkpt><trkpt lat="44.69337485054546" lon="8.797439692046494"><ele>234.0</ele><time>2026-04-09T08:30:42Z</time></trkpt><trkpt lat="44.69332887584329" lon="8.797564747135086"><ele>233.99999999999997</ele><time>2026-04-09T08:30:43Z</time></trkpt><trkpt lat="44.69326966309435" lon="8.797688008490573"><ele>233.99999999999997</ele><time>2026-04-09T08:30:44Z</time></trkpt><trkpt lat="44.69317999557532" lon="8.797795217214622"><ele>234.0</ele><time>2026-04-09T08:30:45Z</time></trkpt><trkpt lat="44.69309876853105" lon="8.797928118358495"><ele>234.0</ele><time>2026-04-09T08:30:46Z</time></trkpt><trkpt lat="44.69301663824223" lon="8.798062497424956"><ele>232.25</ele><time>2026-04-09T08:30:47Z</time></trkpt><trkpt lat="44.692949657006444" lon="8.798210775899186"><ele>230.5</ele><time>2026-04-09T08:30:48Z</time></trkpt><trkpt lat="44.69287305880145" lon="8.798334248752852"><ele>228.75</ele><time>2026-04-09T08:30:49Z</time></trkpt><trkpt lat="44.692805440709094" lon="8.798456654069403"><ele>227.0</ele><time>2026-04-09T08:30:50Z</time></trkpt><trkpt lat="44.69273778497826" lon="8.79857286789627"><ele>227.0</ele><time>2026-04-09T08:30:51Z</time></trkpt><trkpt lat="44.692649104518644" lon="8.798652413723437"><ele>227.0</ele><time>2026-04-09T08:30:52Z</time></trkpt><trkpt lat="44.69256538513441" lon="8.798759633546938"><ele>227.0</ele><time>2026-04-09T08:30:53Z</time></trkpt><trkpt lat="44.69246405583888" lon="8.798835948577198"><ele>227.0</ele><time>2026-04-09T08:30:54Z</time></trkpt><trkpt lat="44.69237617203747" lon="8.798914311583712"><ele>227.0</ele><time>2026-04-09T08:30:55Z</time></trkpt><trkpt lat="44.69230314662035" lon="8.799001599465392"><ele>227.00000000000003</ele><time>2026-04-09T08:30:56Z</time></trkpt><trkpt lat="44.6922538534706" lon="8.799109189347266"><ele>227.0</ele><time>2026-04-09T08:30:57Z</time></trkpt><trkpt lat="44.692241006142396" lon="8.799239513965716"><ele>227.0</ele><time>2026-04-09T08:30:58Z</time></trkpt><trkpt lat="44.69225519421186" lon="8.799364695572798"><ele>227.0</ele><time>2026-04-09T08:30:59Z</time></trkpt><trkpt lat="44.69226911533985" lon="8.799484868308479"><ele>227.00000000000003</ele><time>2026-04-09T08:31:00Z</time></trkpt><trkpt lat="44.6922587881754" lon="8.799600142945668"><ele>227.0</ele><time>2026-04-09T08:31:01Z</time></trkpt><trkpt lat="44.692221301093596" lon="8.799706745687876"><ele>226.00000000000003</ele><time>2026-04-09T08:31:02Z</time></trkpt><trkpt lat="44.69216596055482" lon="8.79979385738121"><ele>225.0</ele><time>2026-04-09T08:31:03Z</time></trkpt><trkpt lat="44.69210334218883" lon="8.799858581857213"><ele>224.0</ele><time>2026-04-09T08:31:04Z</time></trkpt><trkpt lat="44.69204724170225" lon="8.799913234213806"><ele>223.0</ele><time>2026-04-09T08:31:05Z</time></trkpt><trkpt lat="44.69198525716014" lon="8.799943346155873"><ele>222.00000000000003</ele><time>2026-04-09T08:31:06Z</time></trkpt><trkpt lat="44.69186890656893" lon="8.799974635404228"><ele>221.0</ele><time>2026-04-09T08:31:08Z</time></trkpt><trkpt lat="44.69179251440028" lon="8.799982698687018"><ele>220.66666666666669</ele><time>2026-04-09T08:31:09Z</time></trkpt><trkpt lat="44.69171163782716" lon="8.79999368289125"><ele>220.33333333333334</ele><time>2026-04-09T08:31:10Z</time></trkpt><trkpt lat="44.691633693409585" lon="8.800004268866417"><ele>220.0</ele><time>2026-04-09T08:31:11Z</time></trkpt><trkpt lat="44.69156592907976" lon="8.800033870074538"><ele>219.66666666666669</ele><time>2026-04-09T08:31:12Z</time></trkpt><trkpt lat="44.691463657151026" lon="8.800016662453256"><ele>219.33333333333334</ele><time>2026-04-09T08:31:14Z</time></trkpt><trkpt lat="44.69137506030678" lon="8.800020170963297"><ele>219.0</ele><time>2026-04-09T08:31:24Z</time></trkpt><trkpt lat="44.691309225431475" lon="8.80000482153476"><ele>219.0</ele><time>2026-04-09T08:31:26Z</time></trkpt><trkpt lat="44.69121704751283" lon="8.799961414935396"><ele>218.99999999999997</ele><time>2026-04-09T08:31:28Z</time></trkpt><trkpt lat="44.69112774861422" lon="8.799907527668116"><ele>218.99999999999997</ele><time>2026-04-09T08:31:30Z</time></trkpt><trkpt lat="44.691025207237296" lon="8.799851983667933"><ele>219.0</ele><time>2026-04-09T08:31:32Z</time></trkpt><trkpt lat="44.69090619780955" lon="8.799821108571319"><ele>219.0</ele><time>2026-04-09T08:31:34Z</time></trkpt><trkpt lat="44.69084341838269" lon="8.79982963953146"><ele>220.0</ele><time>2026-04-09T08:31:35Z</time></trkpt><trkpt lat="44.690780817202985" lon="8.799848850328466"><ele>220.99999999999997</ele><time>2026-04-09T08:31:36Z</time></trkpt><trkpt lat="44.69067092805256" lon="8.799895368628727"><ele>221.99999999999997</ele><time>2026-04-09T08:31:38Z</time></trkpt><trkpt lat="44.69057019191944" lon="8.799975507684783"><ele>223.0</ele><time>2026-04-09T08:31:40Z</time></trkpt><trkpt lat="44.69049538541418" lon="8.80005106729854"><ele>224.0</ele><time>2026-04-09T08:31:42Z</time></trkpt><trkpt lat="44.690382371422146" lon="8.800065160726053"><ele>224.00000000000003</ele><time>2026-04-09T08:31:44Z</time></trkpt><trkpt lat="44.69026067470299" lon="8.800073905861144"><ele>224.0</ele><time>2026-04-09T08:31:46Z</time></trkpt><trkpt lat="44.6901960908207" lon="8.800095562866108"><ele>224.0</ele><time>2026-04-09T08:31:47Z</time></trkpt><trkpt lat="44.690134944889415" lon="8.800141580512511"><ele>224.0</ele><time>2026-04-09T08:31:48Z</time></trkpt><trkpt lat="44.69007280925068" lon="8.800194717274703"><ele>224.00000000000003</ele><time>2026-04-09T08:31:49Z</time></trkpt><trkpt lat="44.690014760724964" lon="8.800255559870552"><ele>224.0</ele><time>2026-04-09T08:31:50Z</time></trkpt><trkpt lat="44.6899535097946" lon="8.800322212486726"><ele>224.33333333333334</ele><time>2026-04-09T08:31:51Z</time></trkpt><trkpt lat="44.689887040488536" lon="8.800390627061802"><ele>224.66666666666669</ele><time>2026-04-09T08:31:52Z</time></trkpt><trkpt lat="44.6898239696532" lon="8.800460197565434"><ele>225.0</ele><time>2026-04-09T08:31:53Z</time></trkpt><trkpt lat="44.68975999441008" lon="8.80052804868133"><ele>225.33333333333331</ele><time>2026-04-09T08:31:54Z</time></trkpt><trkpt lat="44.689697571959776" lon="8.800607435399696"><ele>225.66666666666666</ele><time>2026-04-09T08:31:55Z</time></trkpt><trkpt lat="44.68963985789213" lon="8.800682400770025"><ele>226.0</ele><time>2026-04-09T08:31:56Z</time></trkpt><trkpt lat="44.68960035286064" lon="8.80076506074033"><ele>225.99999999999997</ele><time>2026-04-09T08:31:57Z</time></trkpt><trkpt lat="44.68956244207695" lon="8.800847303064527"><ele>226.0</ele><time>2026-04-09T08:31:58Z</time></trkpt><trkpt lat="44.689525519634046" lon="8.800927459306696"><ele>226.0</ele><time>2026-04-09T08:31:59Z</time></trkpt><trkpt lat="44.68947249639864" lon="8.80108258014267"><ele>226.0</ele><time>2026-04-09T08:32:01Z</time></trkpt><trkpt lat="44.68944900517806" lon="8.80116616465634"><ele>225.99999999999997</ele><time>2026-04-09T08:32:02Z</time></trkpt><trkpt lat="44.68940044982832" lon="8.801327729582164"><ele>226.0</ele><time>2026-04-09T08:32:04Z</time></trkpt><trkpt lat="44.68934290051881" lon="8.801395584946464"><ele>226.28571428571428</ele><time>2026-04-09T08:32:05Z</time></trkpt><trkpt lat="44.68930969493151" lon="8.801473242240808"><ele>226.57142857142856</ele><time>2026-04-09T08:32:06Z</time></trkpt><trkpt lat="44.68927595121185" lon="8.801553825706632"><ele>226.85714285714283</ele><time>2026-04-09T08:32:07Z</time></trkpt><trkpt lat="44.689225673988744" lon="8.801619434299042"><ele>227.14285714285714</ele><time>2026-04-09T08:32:07.999Z</time></trkpt><trkpt lat="44.68918262442545" lon="8.801694737327429"><ele>227.4285714285714</ele><time>2026-04-09T08:32:08.999Z</time></trkpt><trkpt lat="44.68912622953186" lon="8.801745757263804"><ele>227.7142857142857</ele><time>2026-04-09T08:32:09.999Z</time></trkpt><trkpt lat="44.689078667784784" lon="8.801814386673387"><ele>228.0</ele><time>2026-04-09T08:32:10.999Z</time></trkpt><trkpt lat="44.68904084197301" lon="8.801894925374176"><ele>228.66666666666666</ele><time>2026-04-09T08:32:11.999Z</time></trkpt><trkpt lat="44.688988479990925" lon="8.801959944604777"><ele>229.33333333333331</ele><time>2026-04-09T08:32:12.999Z</time></trkpt><trkpt lat="44.68894513247247" lon="8.8020269497384"><ele>230.0</ele><time>2026-04-09T08:32:13.999Z</time></trkpt><trkpt lat="44.68887467396037" lon="8.802147876107846"><ele>230.66666666666666</ele><time>2026-04-09T08:32:15.999Z</time></trkpt><trkpt lat="44.68880798339916" lon="8.802226667117173"><ele>231.33333333333331</ele><time>2026-04-09T08:32:17.999Z</time></trkpt><trkpt lat="44.68876715877332" lon="8.802302427543824"><ele>232.0</ele><time>2026-04-09T08:32:20Z</time></trkpt><trkpt lat="44.68871717293504" lon="8.80238592595826"><ele>232.0</ele><time>2026-04-09T08:32:22Z</time></trkpt><trkpt lat="44.68866973787929" lon="8.802477503674742"><ele>232.0</ele><time>2026-04-09T08:32:24Z</time></trkpt><trkpt lat="44.688610572771296" lon="8.80256482834165"><ele>232.0</ele><time>2026-04-09T08:32:26Z</time></trkpt><trkpt lat="44.68853741680349" lon="8.802655560151365"><ele>232.0</ele><time>2026-04-09T08:32:28Z</time></trkpt><trkpt lat="44.688459645121014" lon="8.8027891923755"><ele>232.0</ele><time>2026-04-09T08:32:30Z</time></trkpt><trkpt lat="44.688421321952774" lon="8.802861705380527"><ele>231.99999999999997</ele><time>2026-04-09T08:32:31Z</time></trkpt><trkpt lat="44.6884085481319" lon="8.802949444699982"><ele>232.0</ele><time>2026-04-09T08:32:32Z</time></trkpt><trkpt lat="44.68834969821988" lon="8.803072398496623"><ele>232.0</ele><time>2026-04-09T08:32:34Z</time></trkpt><trkpt lat="44.688300785430535" lon="8.803187223309171"><ele>232.0</ele><time>2026-04-09T08:32:36Z</time></trkpt><trkpt lat="44.6882784008982" lon="8.803304798818061"><ele>231.99999999999997</ele><time>2026-04-09T08:32:38Z</time></trkpt><trkpt lat="44.688254190626544" lon="8.803405713089486"><ele>232.0</ele><time>2026-04-09T08:32:40Z</time></trkpt><trkpt lat="44.68820749944705" lon="8.803501867473951"><ele>231.8571428571429</ele><time>2026-04-09T08:32:42Z</time></trkpt><trkpt lat="44.6881752920476" lon="8.803583536659733"><ele>231.71428571428572</ele><time>2026-04-09T08:32:44Z</time></trkpt><trkpt lat="44.68815197772141" lon="8.803671818827455"><ele>231.57142857142858</ele><time>2026-04-09T08:32:46Z</time></trkpt><trkpt lat="44.68813450555103" lon="8.803762226711582"><ele>231.42857142857144</ele><time>2026-04-09T08:32:48Z</time></trkpt><trkpt lat="44.688123991376564" lon="8.803857584384975"><ele>231.28571428571428</ele><time>2026-04-09T08:32:50Z</time></trkpt><trkpt lat="44.68812314843107" lon="8.803972929351287"><ele>231.14285714285714</ele><time>2026-04-09T08:32:52Z</time></trkpt><trkpt lat="44.68811844382779" lon="8.804096121848284"><ele>231.0</ele><time>2026-04-09T08:32:54Z</time></trkpt><trkpt lat="44.68810837053131" lon="8.80422559054244"><ele>230.83333333333334</ele><time>2026-04-09T08:32:56Z</time></trkpt><trkpt lat="44.68808988635501" lon="8.804359208393425"><ele>230.66666666666669</ele><time>2026-04-09T08:32:58Z</time></trkpt><trkpt lat="44.68809554663209" lon="8.804483639836974"><ele>230.5</ele><time>2026-04-09T08:33:00Z</time></trkpt><trkpt lat="44.68811132990189" lon="8.804585322411802"><ele>230.33333333333334</ele><time>2026-04-09T08:33:02Z</time></trkpt><trkpt lat="44.68813024416547" lon="8.804685164062741"><ele>230.16666666666669</ele><time>2026-04-09T08:33:04Z</time></trkpt><trkpt lat="44.68814256226695" lon="8.804787184939983"><ele>230.0</ele><time>2026-04-09T08:33:06Z</time></trkpt><trkpt lat="44.68815847900268" lon="8.80489110253564"><ele>230.00000000000003</ele><time>2026-04-09T08:33:08Z</time></trkpt><trkpt lat="44.6881774451303" lon="8.80499740243284"><ele>230.0</ele><time>2026-04-09T08:33:10Z</time></trkpt><trkpt lat="44.688178681114934" lon="8.805120182716317"><ele>230.0</ele><time>2026-04-09T08:33:12Z</time></trkpt><trkpt lat="44.68819509329544" lon="8.805232176575732"><ele>230.0</ele><time>2026-04-09T08:33:14Z</time></trkpt><trkpt lat="44.688185278319956" lon="8.805324814989671"><ele>230.00000000000003</ele><time>2026-04-09T08:33:16Z</time></trkpt><trkpt lat="44.68820634488789" lon="8.805411824913419"><ele>230.0</ele><time>2026-04-09T08:33:19Z</time></trkpt><trkpt lat="44.68820602363303" lon="8.805552347446525"><ele>229.8</ele><time>2026-04-09T08:33:22Z</time></trkpt><trkpt lat="44.68814629136614" lon="8.805688679874415"><ele>229.6</ele><time>2026-04-09T08:33:24Z</time></trkpt><trkpt lat="44.68810817625121" lon="8.805783801138675"><ele>229.39999999999998</ele><time>2026-04-09T08:33:25Z</time></trkpt><trkpt lat="44.68806427352181" lon="8.805881241620906"><ele>229.2</ele><time>2026-04-09T08:33:26Z</time></trkpt><trkpt lat="44.68803525354735" lon="8.805995502903356"><ele>229.0</ele><time>2026-04-09T08:33:27Z</time></trkpt><trkpt lat="44.68800282853592" lon="8.806118407077182"><ele>229.49999999999997</ele><time>2026-04-09T08:33:28Z</time></trkpt><trkpt lat="44.68797075600038" lon="8.806245115896346"><ele>230.0</ele><time>2026-04-09T08:33:29Z</time></trkpt><trkpt lat="44.68793981333229" lon="8.806367360922042"><ele>230.5</ele><time>2026-04-09T08:33:30Z</time></trkpt><trkpt lat="44.68790826202409" lon="8.806485897687153"><ele>231.0</ele><time>2026-04-09T08:33:31Z</time></trkpt><trkpt lat="44.68788899605791" lon="8.806599499051257"><ele>231.49999999999997</ele><time>2026-04-09T08:33:32Z</time></trkpt><trkpt lat="44.68785769558336" lon="8.806701991972664"><ele>232.0</ele><time>2026-04-09T08:33:33Z</time></trkpt><trkpt lat="44.68781555171789" lon="8.8067912752488"><ele>231.16666666666666</ele><time>2026-04-09T08:33:34Z</time></trkpt><trkpt lat="44.687755264561396" lon="8.806858567007662"><ele>230.33333333333331</ele><time>2026-04-09T08:33:35Z</time></trkpt><trkpt lat="44.687692196003226" lon="8.806906906352973"><ele>229.5</ele><time>2026-04-09T08:33:36Z</time></trkpt><trkpt lat="44.68760665384308" lon="8.806910062102677"><ele>228.66666666666669</ele><time>2026-04-09T08:33:37Z</time></trkpt><trkpt lat="44.68752271046365" lon="8.806898260102006"><ele>227.83333333333334</ele><time>2026-04-09T08:33:38Z</time></trkpt><trkpt lat="44.687429613050206" lon="8.806875285766797"><ele>227.0</ele><time>2026-04-09T08:33:39Z</time></trkpt><trkpt lat="44.68733333306773" lon="8.806848681507375"><ele>226.0</ele><time>2026-04-09T08:33:40Z</time></trkpt><trkpt lat="44.6872340007087" lon="8.806819401641427"><ele>225.0</ele><time>2026-04-09T08:33:41Z</time></trkpt><trkpt lat="44.68713628063271" lon="8.80677986469972"><ele>224.0</ele><time>2026-04-09T08:33:42Z</time></trkpt><trkpt lat="44.68704256041748" lon="8.806725061748619"><ele>223.0</ele><time>2026-04-09T08:33:43Z</time></trkpt><trkpt lat="44.68695019041911" lon="8.80666106319866"><ele>222.0</ele><time>2026-04-09T08:33:44Z</time></trkpt><trkpt lat="44.68686256604075" lon="8.806596455507632"><ele>221.0</ele><time>2026-04-09T08:33:45Z</time></trkpt><trkpt lat="44.68677376180601" lon="8.806547447265551"><ele>220.0</ele><time>2026-04-09T08:33:46Z</time></trkpt><trkpt lat="44.686679520888376" lon="8.806530961805182"><ele>219.0</ele><time>2026-04-09T08:33:47Z</time></trkpt><trkpt lat="44.68658114869592" lon="8.80654151363591"><ele>218.0</ele><time>2026-04-09T08:33:48Z</time></trkpt><trkpt lat="44.686478382800445" lon="8.806555944651862"><ele>217.0</ele><time>2026-04-09T08:33:49Z</time></trkpt><trkpt lat="44.68637101100776" lon="8.806559983335433"><ele>217.0</ele><time>2026-04-09T08:33:50Z</time></trkpt><trkpt lat="44.686261474738174" lon="8.806556107414526"><ele>217.0</ele><time>2026-04-09T08:33:51Z</time></trkpt><trkpt lat="44.68615035184733" lon="8.806555190364143"><ele>217.0</ele><time>2026-04-09T08:33:52Z</time></trkpt><trkpt lat="44.686039399463574" lon="8.806540140484142"><ele>217.0</ele><time>2026-04-09T08:33:53Z</time></trkpt><trkpt lat="44.68592357665255" lon="8.806550238886796"><ele>217.0</ele><time>2026-04-09T08:33:54Z</time></trkpt><trkpt lat="44.68581640067964" lon="8.806556900470687"><ele>217.39999999999998</ele><time>2026-04-09T08:33:55Z</time></trkpt><trkpt lat="44.68571190564654" lon="8.806580028583431"><ele>217.79999999999998</ele><time>2026-04-09T08:33:56Z</time></trkpt><trkpt lat="44.68561132103352" lon="8.806611569478289"><ele>218.2</ele><time>2026-04-09T08:33:57Z</time></trkpt><trkpt lat="44.68550632335782" lon="8.806645921115281"><ele>218.6</ele><time>2026-04-09T08:33:58Z</time></trkpt><trkpt lat="44.68540017714478" lon="8.806684329343463"><ele>219.0</ele><time>2026-04-09T08:33:59Z</time></trkpt><trkpt lat="44.685299952193375" lon="8.806724553070966"><ele>218.83333333333334</ele><time>2026-04-09T08:34:00Z</time></trkpt><trkpt lat="44.68520941525568" lon="8.806762252166056"><ele>218.66666666666669</ele><time>2026-04-09T08:34:01Z</time></trkpt><trkpt lat="44.6851309105961" lon="8.806794843003233"><ele>218.5</ele><time>2026-04-09T08:34:02Z</time></trkpt><trkpt lat="44.685055203911176" lon="8.806826970091535"><ele>218.33333333333334</ele><time>2026-04-09T08:34:03Z</time></trkpt><trkpt lat="44.68497176917493" lon="8.80685921637861"><ele>218.16666666666669</ele><time>2026-04-09T08:34:04Z</time></trkpt><trkpt lat="44.68488381713165" lon="8.806893985814753"><ele>218.0</ele><time>2026-04-09T08:34:05Z</time></trkpt><trkpt lat="44.68479162661431" lon="8.806941716163477"><ele>218.4</ele><time>2026-04-09T08:34:06Z</time></trkpt><trkpt lat="44.684699187776616" lon="8.807003127485453"><ele>218.8</ele><time>2026-04-09T08:34:07Z</time></trkpt><trkpt lat="44.684609002098085" lon="8.807071706001578"><ele>219.2</ele><time>2026-04-09T08:34:08Z</time></trkpt><trkpt lat="44.684519227921626" lon="8.807138121096058"><ele>219.6</ele><time>2026-04-09T08:34:09Z</time></trkpt><trkpt lat="44.68442712564242" lon="8.807196331852733"><ele>220.0</ele><time>2026-04-09T08:34:10Z</time></trkpt><trkpt lat="44.68433367003407" lon="8.807250236724974"><ele>220.0</ele><time>2026-04-09T08:34:11Z</time></trkpt><trkpt lat="44.684234976319026" lon="8.807297474210399"><ele>220.0</ele><time>2026-04-09T08:34:12Z</time></trkpt><trkpt lat="44.684128072477385" lon="8.807343335357924"><ele>220.0</ele><time>2026-04-09T08:34:13Z</time></trkpt><trkpt lat="44.684014135462576" lon="8.807391633828058"><ele>220.0</ele><time>2026-04-09T08:34:13.999Z</time></trkpt><trkpt lat="44.683891490073364" lon="8.807442130014637"><ele>220.0</ele><time>2026-04-09T08:34:14.999Z</time></trkpt><trkpt lat="44.68376166287696" lon="8.807495394176996"><ele>220.0</ele><time>2026-04-09T08:34:15.999Z</time></trkpt><trkpt lat="44.68362725104366" lon="8.807544345859244"><ele>220.0</ele><time>2026-04-09T08:34:16.999Z</time></trkpt><trkpt lat="44.68349659221931" lon="8.807587415746582"><ele>220.0</ele><time>2026-04-09T08:34:17.999Z</time></trkpt><trkpt lat="44.68336055574663" lon="8.807633733950842"><ele>220.5</ele><time>2026-04-09T08:34:18.999Z</time></trkpt><trkpt lat="44.68322607155906" lon="8.807674901110186"><ele>221.0</ele><time>2026-04-09T08:34:19.999Z</time></trkpt><trkpt lat="44.683093191350466" lon="8.807717084549088"><ele>221.5</ele><time>2026-04-09T08:34:20.999Z</time></trkpt><trkpt lat="44.6829636739957" lon="8.80776310540814"><ele>222.0</ele><time>2026-04-09T08:34:21.999Z</time></trkpt><trkpt lat="44.68282958507332" lon="8.807780901393604"><ele>221.75</ele><time>2026-04-09T08:34:22.999Z</time></trkpt><trkpt lat="44.682704170001514" lon="8.80782820201759"><ele>221.5</ele><time>2026-04-09T08:34:23.999Z</time></trkpt><trkpt lat="44.68257224770182" lon="8.80786332378319"><ele>221.25</ele><time>2026-04-09T08:34:25Z</time></trkpt><trkpt lat="44.68243978600041" lon="8.807937355285384"><ele>221.0</ele><time>2026-04-09T08:34:26Z</time></trkpt><trkpt lat="44.68231556343826" lon="8.808056182646919"><ele>221.0</ele><time>2026-04-09T08:34:27Z</time></trkpt><trkpt lat="44.68220414415295" lon="8.808211503757624"><ele>221.0</ele><time>2026-04-09T08:34:28Z</time></trkpt><trkpt lat="44.68209994096658" lon="8.808390581344655"><ele>221.0</ele><time>2026-04-09T08:34:29Z</time></trkpt><trkpt lat="44.68199351676999" lon="8.808580786850065"><ele>220.33333333333334</ele><time>2026-04-09T08:34:30Z</time></trkpt><trkpt lat="44.68188268597619" lon="8.808778229569338"><ele>219.66666666666669</ele><time>2026-04-09T08:34:31Z</time></trkpt><trkpt lat="44.68176697164663" lon="8.808981164477741"><ele>219.0</ele><time>2026-04-09T08:34:32Z</time></trkpt><trkpt lat="44.68164926056489" lon="8.809186879827678"><ele>219.33333333333331</ele><time>2026-04-09T08:34:33Z</time></trkpt><trkpt lat="44.68153499226065" lon="8.809384614339697"><ele>219.66666666666666</ele><time>2026-04-09T08:34:34Z</time></trkpt><trkpt lat="44.681418151957395" lon="8.809590455823836"><ele>220.0</ele><time>2026-04-09T08:34:35Z</time></trkpt><trkpt lat="44.68130379838272" lon="8.8098010180339"><ele>220.0</ele><time>2026-04-09T08:34:36Z</time></trkpt><trkpt lat="44.68119246945866" lon="8.810012986554504"><ele>220.0</ele><time>2026-04-09T08:34:37Z</time></trkpt><trkpt lat="44.68108371628082" lon="8.810218830439098"><ele>220.0</ele><time>2026-04-09T08:34:38Z</time></trkpt><trkpt lat="44.680973908735204" lon="8.810417947360556"><ele>219.66666666666666</ele><time>2026-04-09T08:34:39Z</time></trkpt><trkpt lat="44.68086233314604" lon="8.810614281122449"><ele>219.33333333333331</ele><time>2026-04-09T08:34:40Z</time></trkpt><trkpt lat="44.68075595820211" lon="8.810802633333038"><ele>219.0</ele><time>2026-04-09T08:34:41Z</time></trkpt><trkpt lat="44.680659618601695" lon="8.810976646801109"><ele>220.0</ele><time>2026-04-09T08:34:42Z</time></trkpt><trkpt lat="44.68057195859738" lon="8.811126300603464"><ele>221.0</ele><time>2026-04-09T08:34:43Z</time></trkpt><trkpt lat="44.680489922547274" lon="8.811259601545595"><ele>222.0</ele><time>2026-04-09T08:34:44Z</time></trkpt><trkpt lat="44.68042382769102" lon="8.811394428904688"><ele>223.0</ele><time>2026-04-09T08:34:45Z</time></trkpt><trkpt lat="44.6803733761327" lon="8.81153314010733"><ele>223.0</ele><time>2026-04-09T08:34:46Z</time></trkpt><trkpt lat="44.680310495635766" lon="8.811669853899845"><ele>223.0</ele><time>2026-04-09T08:34:47Z</time></trkpt><trkpt lat="44.68023304289269" lon="8.811811773198023"><ele>223.0</ele><time>2026-04-09T08:34:48Z</time></trkpt><trkpt lat="44.68015501345111" lon="8.811964945329658"><ele>223.0</ele><time>2026-04-09T08:34:49Z</time></trkpt><trkpt lat="44.68007124163924" lon="8.812115456373581"><ele>223.0</ele><time>2026-04-09T08:34:50Z</time></trkpt><trkpt lat="44.679989123085285" lon="8.812269452011119"><ele>223.0</ele><time>2026-04-09T08:34:51Z</time></trkpt><trkpt lat="44.67992440292835" lon="8.812440274524517"><ele>223.0</ele><time>2026-04-09T08:34:52Z</time></trkpt><trkpt lat="44.679878284667765" lon="8.812612000799572"><ele>223.0</ele><time>2026-04-09T08:34:53Z</time></trkpt><trkpt lat="44.679840331537605" lon="8.812762913996615"><ele>224.2</ele><time>2026-04-09T08:34:54Z</time></trkpt><trkpt lat="44.679807322213" lon="8.812898938527553"><ele>225.4</ele><time>2026-04-09T08:34:55Z</time></trkpt><trkpt lat="44.67977136822562" lon="8.813016517361653"><ele>226.59999999999997</ele><time>2026-04-09T08:34:56Z</time></trkpt><trkpt lat="44.679714375986755" lon="8.81311947154893"><ele>227.79999999999998</ele><time>2026-04-09T08:34:57Z</time></trkpt><trkpt lat="44.679634184177566" lon="8.813208191242154"><ele>229.0</ele><time>2026-04-09T08:34:58Z</time></trkpt><trkpt lat="44.67953670544019" lon="8.81328840841377"><ele>227.5</ele><time>2026-04-09T08:34:59Z</time></trkpt><trkpt lat="44.679432918318156" lon="8.813372716416815"><ele>226.0</ele><time>2026-04-09T08:35:00Z</time></trkpt><trkpt lat="44.67932165963388" lon="8.813468521725385"><ele>224.5</ele><time>2026-04-09T08:35:01Z</time></trkpt><trkpt lat="44.67920332133878" lon="8.813576348303032"><ele>223.0</ele><time>2026-04-09T08:35:02Z</time></trkpt><trkpt lat="44.67907627838703" lon="8.813685448026595"><ele>223.0</ele><time>2026-04-09T08:35:03Z</time></trkpt><trkpt lat="44.678943728705676" lon="8.813795627139724"><ele>223.0</ele><time>2026-04-09T08:35:04Z</time></trkpt><trkpt lat="44.678813751202775" lon="8.813906464166418"><ele>223.0</ele><time>2026-04-09T08:35:05Z</time></trkpt><trkpt lat="44.67868973357149" lon="8.814009179202436"><ele>222.75</ele><time>2026-04-09T08:35:06Z</time></trkpt><trkpt lat="44.67856609943493" lon="8.81409005353567"><ele>222.5</ele><time>2026-04-09T08:35:07Z</time></trkpt><trkpt lat="44.67843943141458" lon="8.814118763739357"><ele>222.25</ele><time>2026-04-09T08:35:08Z</time></trkpt><trkpt lat="44.678314688146834" lon="8.814096927654429"><ele>222.0</ele><time>2026-04-09T08:35:09Z</time></trkpt><trkpt lat="44.678187029521126" lon="8.81405715112622"><ele>222.0</ele><time>2026-04-09T08:35:10Z</time></trkpt><trkpt lat="44.678057571441244" lon="8.814039293081883"><ele>222.0</ele><time>2026-04-09T08:35:11Z</time></trkpt><trkpt lat="44.677924518591745" lon="8.814071973196008"><ele>222.0</ele><time>2026-04-09T08:35:12Z</time></trkpt><trkpt lat="44.6777968500538" lon="8.814146789090763"><ele>222.0</ele><time>2026-04-09T08:35:13Z</time></trkpt><trkpt lat="44.67767378617406" lon="8.814253453339697"><ele>222.66666666666669</ele><time>2026-04-09T08:35:14Z</time></trkpt><trkpt lat="44.67754893438178" lon="8.814385761992721"><ele>223.33333333333334</ele><time>2026-04-09T08:35:15Z</time></trkpt><trkpt lat="44.677418121719455" lon="8.814527788915754"><ele>224.0</ele><time>2026-04-09T08:35:16Z</time></trkpt><trkpt lat="44.67727537528299" lon="8.814676049888398"><ele>224.0</ele><time>2026-04-09T08:35:17Z</time></trkpt><trkpt lat="44.67712502971151" lon="8.814832063123415"><ele>224.0</ele><time>2026-04-09T08:35:18Z</time></trkpt><trkpt lat="44.67697960298463" lon="8.814985385783785"><ele>224.0</ele><time>2026-04-09T08:35:19Z</time></trkpt><trkpt lat="44.67682432708445" lon="8.81514351541894"><ele>224.33333333333334</ele><time>2026-04-09T08:35:20Z</time></trkpt><trkpt lat="44.676660228449336" lon="8.815312419712265"><ele>224.66666666666669</ele><time>2026-04-09T08:35:21Z</time></trkpt><trkpt lat="44.676493662169705" lon="8.815489083338354"><ele>225.0</ele><time>2026-04-09T08:35:22Z</time></trkpt><trkpt lat="44.67632315740486" lon="8.81567015100576"><ele>225.0</ele><time>2026-04-09T08:35:23Z</time></trkpt><trkpt lat="44.676150733121496" lon="8.815852959064"><ele>225.0</ele><time>2026-04-09T08:35:24Z</time></trkpt><trkpt lat="44.675980877422525" lon="8.81604026280728"><ele>225.0</ele><time>2026-04-09T08:35:25Z</time></trkpt><trkpt lat="44.67582107081775" lon="8.816228823738495"><ele>227.66666666666669</ele><time>2026-04-09T08:35:26Z</time></trkpt><trkpt lat="44.67567608791768" lon="8.816418765024926"><ele>230.33333333333334</ele><time>2026-04-09T08:35:27Z</time></trkpt><trkpt lat="44.675535933735674" lon="8.816613898920158"><ele>233.0</ele><time>2026-04-09T08:35:28Z</time></trkpt><trkpt lat="44.675398409827366" lon="8.816811469104554"><ele>234.0</ele><time>2026-04-09T08:35:29Z</time></trkpt><trkpt lat="44.67526402558623" lon="8.81701465680487"><ele>235.0</ele><time>2026-04-09T08:35:30Z</time></trkpt><trkpt lat="44.67513288985417" lon="8.817226699006676"><ele>236.0</ele><time>2026-04-09T08:35:31Z</time></trkpt><trkpt lat="44.675005284919884" lon="8.81744063466708"><ele>236.0</ele><time>2026-04-09T08:35:32Z</time></trkpt><trkpt lat="44.67488138429396" lon="8.817642072884663"><ele>236.0</ele><time>2026-04-09T08:35:33Z</time></trkpt><trkpt lat="44.67475360649656" lon="8.817843355122081"><ele>236.0</ele><time>2026-04-09T08:35:34Z</time></trkpt><trkpt lat="44.674626945772964" lon="8.81804297895153"><ele>235.66666666666669</ele><time>2026-04-09T08:35:35Z</time></trkpt><trkpt lat="44.674509045915684" lon="8.818244508164003"><ele>235.33333333333331</ele><time>2026-04-09T08:35:36Z</time></trkpt><trkpt lat="44.67435293441411" lon="8.8184254911164"><ele>235.0</ele><time>2026-04-09T08:35:37Z</time></trkpt><trkpt lat="44.67421525817651" lon="8.818598095663122"><ele>235.0</ele><time>2026-04-09T08:35:38Z</time></trkpt><trkpt lat="44.67407484141714" lon="8.818744699111289"><ele>235.0</ele><time>2026-04-09T08:35:39Z</time></trkpt><trkpt lat="44.673929377786514" lon="8.818865305454265"><ele>235.0</ele><time>2026-04-09T08:35:40Z</time></trkpt><trkpt lat="44.67377815078857" lon="8.818974232888722"><ele>235.0</ele><time>2026-04-09T08:35:41Z</time></trkpt><trkpt lat="44.67362220943545" lon="8.81907826344659"><ele>235.0</ele><time>2026-04-09T08:35:42Z</time></trkpt><trkpt lat="44.67345840005476" lon="8.819162357853905"><ele>235.0</ele><time>2026-04-09T08:35:43Z</time></trkpt><trkpt lat="44.673286317652924" lon="8.81923355546293"><ele>234.66666666666666</ele><time>2026-04-09T08:35:44Z</time></trkpt><trkpt lat="44.67311391379256" lon="8.81929351742013"><ele>234.33333333333331</ele><time>2026-04-09T08:35:45Z</time></trkpt><trkpt lat="44.67294337813393" lon="8.819331838814128"><ele>234.0</ele><time>2026-04-09T08:35:46Z</time></trkpt><trkpt lat="44.67277812150362" lon="8.819367503987461"><ele>235.66666666666669</ele><time>2026-04-09T08:35:47Z</time></trkpt><trkpt lat="44.672621162931755" lon="8.819409715913057"><ele>237.33333333333334</ele><time>2026-04-09T08:35:48Z</time></trkpt><trkpt lat="44.67247706596569" lon="8.819448998207505"><ele>239.0</ele><time>2026-04-09T08:35:49Z</time></trkpt><trkpt lat="44.67233178596688" lon="8.81949252985148"><ele>239.0</ele><time>2026-04-09T08:35:50Z</time></trkpt><trkpt lat="44.67219227225876" lon="8.819541443148536"><ele>239.0</ele><time>2026-04-09T08:35:51Z</time></trkpt><trkpt lat="44.6720534746937" lon="8.81958527718449"><ele>239.0</ele><time>2026-04-09T08:35:52Z</time></trkpt><trkpt lat="44.671914988002236" lon="8.819619758981093"><ele>239.0</ele><time>2026-04-09T08:35:53Z</time></trkpt><trkpt lat="44.67177549853965" lon="8.819659626053628"><ele>240.33333333333334</ele><time>2026-04-09T08:35:54Z</time></trkpt><trkpt lat="44.67163142266867" lon="8.819703007331006"><ele>241.66666666666669</ele><time>2026-04-09T08:35:55Z</time></trkpt><trkpt lat="44.671481313911414" lon="8.819741080519647"><ele>243.0</ele><time>2026-04-09T08:35:56Z</time></trkpt><trkpt lat="44.6713264054903" lon="8.819785103861143"><ele>243.0</ele><time>2026-04-09T08:35:57Z</time></trkpt><trkpt lat="44.67116683246072" lon="8.81983379237017"><ele>243.0</ele><time>2026-04-09T08:35:58Z</time></trkpt><trkpt lat="44.67101073457729" lon="8.819881517488886"><ele>243.0</ele><time>2026-04-09T08:35:59Z</time></trkpt><trkpt lat="44.670853097108136" lon="8.81992892270969"><ele>245.66666666666669</ele><time>2026-04-09T08:36:00Z</time></trkpt><trkpt lat="44.670693648746024" lon="8.81997682867282"><ele>248.33333333333334</ele><time>2026-04-09T08:36:01Z</time></trkpt><trkpt lat="44.67053358780893" lon="8.820023923738205"><ele>251.0</ele><time>2026-04-09T08:36:02Z</time></trkpt><trkpt lat="44.67036965380829" lon="8.820068164482"><ele>251.33333333333334</ele><time>2026-04-09T08:36:03Z</time></trkpt><trkpt lat="44.67020694160675" lon="8.820114722707535"><ele>251.66666666666669</ele><time>2026-04-09T08:36:04Z</time></trkpt><trkpt lat="44.67004171329634" lon="8.82016337845879"><ele>252.0</ele><time>2026-04-09T08:36:05Z</time></trkpt><trkpt lat="44.669878037032355" lon="8.82020910285849"><ele>251.33333333333331</ele><time>2026-04-09T08:36:06Z</time></trkpt><trkpt lat="44.66971475773453" lon="8.820252914031917"><ele>250.66666666666666</ele><time>2026-04-09T08:36:07Z</time></trkpt><trkpt lat="44.669555009031455" lon="8.82030479869851"><ele>250.0</ele><time>2026-04-09T08:36:08Z</time></trkpt><trkpt lat="44.66939747275141" lon="8.820371815615092"><ele>250.0</ele><time>2026-04-09T08:36:09Z</time></trkpt><trkpt lat="44.66924521025315" lon="8.820455261670777"><ele>250.0</ele><time>2026-04-09T08:36:10Z</time></trkpt><trkpt lat="44.66909644894865" lon="8.820559783671305"><ele>250.0</ele><time>2026-04-09T08:36:11Z</time></trkpt><trkpt lat="44.66894785662507" lon="8.820678860497015"><ele>250.0</ele><time>2026-04-09T08:36:12Z</time></trkpt><trkpt lat="44.66879523668726" lon="8.820801693661164"><ele>250.0</ele><time>2026-04-09T08:36:13Z</time></trkpt><trkpt lat="44.668634416336275" lon="8.820931955454114"><ele>250.0</ele><time>2026-04-09T08:36:14Z</time></trkpt><trkpt lat="44.66847358711362" lon="8.821076153608939"><ele>250.33333333333331</ele><time>2026-04-09T08:36:15Z</time></trkpt><trkpt lat="44.668317725071226" lon="8.821232298654476"><ele>250.66666666666669</ele><time>2026-04-09T08:36:16Z</time></trkpt><trkpt lat="44.668162700668674" lon="8.821391207094125"><ele>251.0</ele><time>2026-04-09T08:36:17Z</time></trkpt><trkpt lat="44.668002166636604" lon="8.821534033887414"><ele>251.0</ele><time>2026-04-09T08:36:18Z</time></trkpt><trkpt lat="44.6678365950097" lon="8.821656981152973"><ele>251.0</ele><time>2026-04-09T08:36:19Z</time></trkpt><trkpt lat="44.66767104684874" lon="8.82179674811047"><ele>251.0</ele><time>2026-04-09T08:36:19.999Z</time></trkpt><trkpt lat="44.667502156852215" lon="8.821932810616524"><ele>252.0</ele><time>2026-04-09T08:36:20.999Z</time></trkpt><trkpt lat="44.667336359675566" lon="8.822071196925366"><ele>253.0</ele><time>2026-04-09T08:36:21.999Z</time></trkpt><trkpt lat="44.66717492168901" lon="8.82221340492985"><ele>254.0</ele><time>2026-04-09T08:36:22.999Z</time></trkpt><trkpt lat="44.66701394635023" lon="8.822355915719761"><ele>254.66666666666669</ele><time>2026-04-09T08:36:23.999Z</time></trkpt><trkpt lat="44.66686031605193" lon="8.822504670778134"><ele>255.33333333333331</ele><time>2026-04-09T08:36:24.999Z</time></trkpt><trkpt lat="44.666709490110314" lon="8.822656301584594"><ele>256.0</ele><time>2026-04-09T08:36:25.999Z</time></trkpt><trkpt lat="44.666564199774434" lon="8.822822044152396"><ele>256.0</ele><time>2026-04-09T08:36:26.999Z</time></trkpt><trkpt lat="44.6664271559409" lon="8.822996090735483"><ele>256.0</ele><time>2026-04-09T08:36:27.999Z</time></trkpt><trkpt lat="44.66630154753788" lon="8.82318476766417"><ele>256.0</ele><time>2026-04-09T08:36:28.999Z</time></trkpt><trkpt lat="44.666178428978846" lon="8.823374362247995"><ele>255.33333333333331</ele><time>2026-04-09T08:36:29.999Z</time></trkpt><trkpt lat="44.666040410660315" lon="8.823549655004266"><ele>254.66666666666669</ele><time>2026-04-09T08:36:31Z</time></trkpt><trkpt lat="44.66588389933755" lon="8.823704166518892"><ele>254.0</ele><time>2026-04-09T08:36:32Z</time></trkpt><trkpt lat="44.6657216933679" lon="8.823834399349026"><ele>254.0</ele><time>2026-04-09T08:36:33Z</time></trkpt><trkpt lat="44.665550525689305" lon="8.823969818727479"><ele>254.0</ele><time>2026-04-09T08:36:34Z</time></trkpt><trkpt lat="44.66538338410005" lon="8.824104576205041"><ele>254.0</ele><time>2026-04-09T08:36:35Z</time></trkpt><trkpt lat="44.66522126531668" lon="8.824235141475361"><ele>255.33333333333334</ele><time>2026-04-09T08:36:36Z</time></trkpt><trkpt lat="44.66506281539524" lon="8.824348304070549"><ele>256.6666666666667</ele><time>2026-04-09T08:36:37Z</time></trkpt><trkpt lat="44.66491269875996" lon="8.82444987201563"><ele>258.0</ele><time>2026-04-09T08:36:38Z</time></trkpt><trkpt lat="44.66476383733694" lon="8.824548157689161"><ele>258.0</ele><time>2026-04-09T08:36:39Z</time></trkpt><trkpt lat="44.66460724086923" lon="8.824651886320702"><ele>258.0</ele><time>2026-04-09T08:36:40Z</time></trkpt><trkpt lat="44.66446208803264" lon="8.82475656021461"><ele>258.0</ele><time>2026-04-09T08:36:41Z</time></trkpt><trkpt lat="44.664316072760485" lon="8.824862550947538"><ele>259.3333333333333</ele><time>2026-04-09T08:36:42Z</time></trkpt><trkpt lat="44.664167370164314" lon="8.824951044037062"><ele>260.66666666666663</ele><time>2026-04-09T08:36:43Z</time></trkpt><trkpt lat="44.66401891825001" lon="8.825038541414818"><ele>262.0</ele><time>2026-04-09T08:36:44Z</time></trkpt><trkpt lat="44.663869451533365" lon="8.825134693670764"><ele>259.66666666666663</ele><time>2026-04-09T08:36:45Z</time></trkpt><trkpt lat="44.663721417649086" lon="8.825230004601654"><ele>257.3333333333333</ele><time>2026-04-09T08:36:46Z</time></trkpt><trkpt lat="44.663571637720686" lon="8.825320091290214"><ele>255.0</ele><time>2026-04-09T08:36:47Z</time></trkpt><trkpt lat="44.66342065860041" lon="8.825409235713321"><ele>254.66666666666669</ele><time>2026-04-09T08:36:48Z</time></trkpt><trkpt lat="44.66327294845304" lon="8.825498789647966"><ele>254.33333333333334</ele><time>2026-04-09T08:36:49Z</time></trkpt><trkpt lat="44.66313136666484" lon="8.82558877970254"><ele>254.0</ele><time>2026-04-09T08:36:50Z</time></trkpt><trkpt lat="44.662997869295744" lon="8.825682689019224"><ele>254.0</ele><time>2026-04-09T08:36:51Z</time></trkpt><trkpt lat="44.662870643405846" lon="8.825790039555779"><ele>254.0</ele><time>2026-04-09T08:36:52Z</time></trkpt><trkpt lat="44.66274932664811" lon="8.82593140303922"><ele>254.0</ele><time>2026-04-09T08:36:53Z</time></trkpt><trkpt lat="44.66262869395842" lon="8.826087437605572"><ele>252.0</ele><time>2026-04-09T08:36:54Z</time></trkpt><trkpt lat="44.66251856485007" lon="8.826266690732817"><ele>250.0</ele><time>2026-04-09T08:36:55Z</time></trkpt><trkpt lat="44.66242222354871" lon="8.82646347406473"><ele>248.0</ele><time>2026-04-09T08:36:56Z</time></trkpt><trkpt lat="44.66233281553171" lon="8.826677628923694"><ele>247.0</ele><time>2026-04-09T08:36:57Z</time></trkpt><trkpt lat="44.66225014003058" lon="8.826892334263695"><ele>246.0</ele><time>2026-04-09T08:36:58Z</time></trkpt><trkpt lat="44.66216325819472" lon="8.827110260847823"><ele>245.0</ele><time>2026-04-09T08:36:59Z</time></trkpt><trkpt lat="44.6620815109897" lon="8.827315970917848"><ele>245.0</ele><time>2026-04-09T08:37:00Z</time></trkpt><trkpt lat="44.66200561559938" lon="8.827510788948263"><ele>245.0</ele><time>2026-04-09T08:37:01Z</time></trkpt><trkpt lat="44.661932872041646" lon="8.827697690963312"><ele>245.0</ele><time>2026-04-09T08:37:02Z</time></trkpt><trkpt lat="44.66186120193271" lon="8.827883283951486"><ele>246.25</ele><time>2026-04-09T08:37:03Z</time></trkpt><trkpt lat="44.661787185788995" lon="8.82806850996805"><ele>247.5</ele><time>2026-04-09T08:37:04Z</time></trkpt><trkpt lat="44.66171107182168" lon="8.828252835753402"><ele>248.75</ele><time>2026-04-09T08:37:05Z</time></trkpt><trkpt lat="44.66163906075562" lon="8.828432244693124"><ele>250.0</ele><time>2026-04-09T08:37:06Z</time></trkpt><trkpt lat="44.66157199896462" lon="8.828606511779078"><ele>250.0</ele><time>2026-04-09T08:37:07Z</time></trkpt><trkpt lat="44.66150699528594" lon="8.82878085709803"><ele>250.0</ele><time>2026-04-09T08:37:08Z</time></trkpt><trkpt lat="44.66143947663592" lon="8.828958070290623"><ele>250.0</ele><time>2026-04-09T08:37:09Z</time></trkpt><trkpt lat="44.66136704207763" lon="8.829140946774091"><ele>250.0</ele><time>2026-04-09T08:37:10Z</time></trkpt><trkpt lat="44.661292055936464" lon="8.829324418706316"><ele>250.0</ele><time>2026-04-09T08:37:11Z</time></trkpt><trkpt lat="44.661212459012674" lon="8.829509424294232"><ele>250.0</ele><time>2026-04-09T08:37:12Z</time></trkpt><trkpt lat="44.66112207408934" lon="8.829679969804113"><ele>250.0</ele><time>2026-04-09T08:37:13Z</time></trkpt><trkpt lat="44.661010320395164" lon="8.829828606297376"><ele>250.33333333333331</ele><time>2026-04-09T08:37:14Z</time></trkpt><trkpt lat="44.66088719383772" lon="8.829965900222643"><ele>250.66666666666669</ele><time>2026-04-09T08:37:15Z</time></trkpt><trkpt lat="44.66076126594855" lon="8.830109346010437"><ele>251.0</ele><time>2026-04-09T08:37:16Z</time></trkpt><trkpt lat="44.66063460113819" lon="8.830258322914274"><ele>251.0</ele><time>2026-04-09T08:37:17Z</time></trkpt><trkpt lat="44.66050585824171" lon="8.830405629600754"><ele>251.0</ele><time>2026-04-09T08:37:18Z</time></trkpt><trkpt lat="44.660379723639494" lon="8.830549267958764"><ele>251.0</ele><time>2026-04-09T08:37:19Z</time></trkpt><trkpt lat="44.660262248524916" lon="8.83069223085813"><ele>251.5</ele><time>2026-04-09T08:37:20Z</time></trkpt><trkpt lat="44.660151208904246" lon="8.830828924910444"><ele>252.0</ele><time>2026-04-09T08:37:21Z</time></trkpt><trkpt lat="44.66004417576658" lon="8.83096191635548"><ele>252.5</ele><time>2026-04-09T08:37:22Z</time></trkpt><trkpt lat="44.65994050440413" lon="8.831091275039938"><ele>253.0</ele><time>2026-04-09T08:37:23Z</time></trkpt><trkpt lat="44.65983881036842" lon="8.831221861209965"><ele>254.25</ele><time>2026-04-09T08:37:24Z</time></trkpt><trkpt lat="44.65973235179508" lon="8.831343267764726"><ele>255.5</ele><time>2026-04-09T08:37:25Z</time></trkpt><trkpt lat="44.65962053683832" lon="8.831436452479835"><ele>256.75</ele><time>2026-04-09T08:37:26Z</time></trkpt><trkpt lat="44.659497171868345" lon="8.831489885008518"><ele>258.0</ele><time>2026-04-09T08:37:27Z</time></trkpt><trkpt lat="44.65937599368374" lon="8.83149895919089"><ele>259.5</ele><time>2026-04-09T08:37:28Z</time></trkpt><trkpt lat="44.65926101934454" lon="8.83146834990898"><ele>261.0</ele><time>2026-04-09T08:37:29Z</time></trkpt><trkpt lat="44.659152556862296" lon="8.831380378847866"><ele>262.5</ele><time>2026-04-09T08:37:30Z</time></trkpt><trkpt lat="44.65903596021358" lon="8.831287723971545"><ele>264.0</ele><time>2026-04-09T08:37:31Z</time></trkpt><trkpt lat="44.65890898256395" lon="8.831200407315151"><ele>264.0</ele><time>2026-04-09T08:37:32Z</time></trkpt><trkpt lat="44.65877924216821" lon="8.831088724178173"><ele>264.0</ele><time>2026-04-09T08:37:33Z</time></trkpt><trkpt lat="44.65864843350543" lon="8.830979007276408"><ele>264.0</ele><time>2026-04-09T08:37:34Z</time></trkpt><trkpt lat="44.658510720834556" lon="8.830879251012579"><ele>266.6666666666667</ele><time>2026-04-09T08:37:35Z</time></trkpt><trkpt lat="44.65836543143983" lon="8.830790941169129"><ele>269.33333333333337</ele><time>2026-04-09T08:37:36Z</time></trkpt><trkpt lat="44.658215534053234" lon="8.83072593581303"><ele>272.0</ele><time>2026-04-09T08:37:37Z</time></trkpt><trkpt lat="44.658066971021924" lon="8.830668235874176"><ele>272.0</ele><time>2026-04-09T08:37:38Z</time></trkpt><trkpt lat="44.65793002758949" lon="8.8306134021914"><ele>272.0</ele><time>2026-04-09T08:37:39Z</time></trkpt><trkpt lat="44.657795494069774" lon="8.830564972396854"><ele>272.0</ele><time>2026-04-09T08:37:40Z</time></trkpt><trkpt lat="44.65767327612622" lon="8.83052062672321"><ele>272.0</ele><time>2026-04-09T08:37:41Z</time></trkpt><trkpt lat="44.65755411495449" lon="8.830464784292486"><ele>273.25</ele><time>2026-04-09T08:37:42Z</time></trkpt><trkpt lat="44.65744494360645" lon="8.8304089825759"><ele>274.5</ele><time>2026-04-09T08:37:43Z</time></trkpt><trkpt lat="44.65732774001942" lon="8.830354001399108"><ele>275.75</ele><time>2026-04-09T08:37:44Z</time></trkpt><trkpt lat="44.657217720855485" lon="8.830310944061786"><ele>277.0</ele><time>2026-04-09T08:37:45Z</time></trkpt><trkpt lat="44.657108346452944" lon="8.830282125100041"><ele>277.0</ele><time>2026-04-09T08:37:46Z</time></trkpt><trkpt lat="44.656984650348754" lon="8.830282763615946"><ele>277.0</ele><time>2026-04-09T08:37:47Z</time></trkpt><trkpt lat="44.656850685560755" lon="8.830307708236466"><ele>277.0</ele><time>2026-04-09T08:37:48Z</time></trkpt><trkpt lat="44.65670546174543" lon="8.830332821926937"><ele>277.0</ele><time>2026-04-09T08:37:49Z</time></trkpt><trkpt lat="44.656554812306865" lon="8.830346576340945"><ele>277.0</ele><time>2026-04-09T08:37:50Z</time></trkpt><trkpt lat="44.65640689797318" lon="8.830358414979973"><ele>277.0</ele><time>2026-04-09T08:37:51Z</time></trkpt><trkpt lat="44.65626047934887" lon="8.830377916518609"><ele>277.0</ele><time>2026-04-09T08:37:52Z</time></trkpt><trkpt lat="44.65612050933047" lon="8.830401787443906"><ele>277.0</ele><time>2026-04-09T08:37:53Z</time></trkpt><trkpt lat="44.655978531857265" lon="8.830414453571292"><ele>277.0</ele><time>2026-04-09T08:37:54Z</time></trkpt><trkpt lat="44.655848249575165" lon="8.8304288657638"><ele>277.0</ele><time>2026-04-09T08:37:55Z</time></trkpt><trkpt lat="44.65571287245746" lon="8.830434267739275"><ele>277.0</ele><time>2026-04-09T08:37:56Z</time></trkpt><trkpt lat="44.65557666391992" lon="8.830439615080929"><ele>277.0</ele><time>2026-04-09T08:37:57Z</time></trkpt><trkpt lat="44.655443841092556" lon="8.830440678896634"><ele>277.0</ele><time>2026-04-09T08:37:58Z</time></trkpt><trkpt lat="44.655309281381264" lon="8.830444351033286"><ele>277.0</ele><time>2026-04-09T08:37:59Z</time></trkpt><trkpt lat="44.655177852086126" lon="8.830447246553542"><ele>277.0</ele><time>2026-04-09T08:38:00Z</time></trkpt><trkpt lat="44.65504751876734" lon="8.830445485059762"><ele>277.0</ele><time>2026-04-09T08:38:01Z</time></trkpt><trkpt lat="44.65492060833783" lon="8.830446418485373"><ele>277.0</ele><time>2026-04-09T08:38:02Z</time></trkpt><trkpt lat="44.65479569590071" lon="8.830447637301612"><ele>277.0</ele><time>2026-04-09T08:38:03Z</time></trkpt><trkpt lat="44.654671585417375" lon="8.830449400115667"><ele>277.0</ele><time>2026-04-09T08:38:04Z</time></trkpt><trkpt lat="44.654549729826115" lon="8.830452027194566"><ele>277.0</ele><time>2026-04-09T08:38:05Z</time></trkpt><trkpt lat="44.65442772290977" lon="8.830457517396495"><ele>278.0</ele><time>2026-04-09T08:38:06Z</time></trkpt><trkpt lat="44.65430479576196" lon="8.830465835655017"><ele>279.0</ele><time>2026-04-09T08:38:07Z</time></trkpt><trkpt lat="44.65417984598334" lon="8.8304727971566"><ele>280.0</ele><time>2026-04-09T08:38:08Z</time></trkpt><trkpt lat="44.65405428955854" lon="8.83047697042414"><ele>281.0</ele><time>2026-04-09T08:38:09Z</time></trkpt><trkpt lat="44.65392768302377" lon="8.83048007540446"><ele>281.0</ele><time>2026-04-09T08:38:10Z</time></trkpt><trkpt lat="44.653801444529186" lon="8.830487226719614"><ele>281.0</ele><time>2026-04-09T08:38:11Z</time></trkpt><trkpt lat="44.65367494062729" lon="8.83049261423168"><ele>281.0</ele><time>2026-04-09T08:38:12Z</time></trkpt><trkpt lat="44.653552261909944" lon="8.83049668607882"><ele>281.0</ele><time>2026-04-09T08:38:13Z</time></trkpt><trkpt lat="44.65343475273595" lon="8.830498512785967"><ele>280.25</ele><time>2026-04-09T08:38:14Z</time></trkpt><trkpt lat="44.6533186326815" lon="8.830489580293618"><ele>279.5</ele><time>2026-04-09T08:38:15Z</time></trkpt><trkpt lat="44.65320785227003" lon="8.830476242929189"><ele>278.75</ele><time>2026-04-09T08:38:16Z</time></trkpt><trkpt lat="44.653098734643805" lon="8.830452138902888"><ele>278.0</ele><time>2026-04-09T08:38:17Z</time></trkpt><trkpt lat="44.65299179587243" lon="8.830406590072675"><ele>278.0</ele><time>2026-04-09T08:38:18Z</time></trkpt><trkpt lat="44.65289162413378" lon="8.830338240470256"><ele>278.0</ele><time>2026-04-09T08:38:19Z</time></trkpt><trkpt lat="44.65279184315144" lon="8.830291175265195"><ele>278.0</ele><time>2026-04-09T08:38:20Z</time></trkpt><trkpt lat="44.65266837106064" lon="8.830272585900978"><ele>278.0</ele><time>2026-04-09T08:38:21Z</time></trkpt><trkpt lat="44.65253815426149" lon="8.83028683180996"><ele>276.5</ele><time>2026-04-09T08:38:22Z</time></trkpt><trkpt lat="44.652402368741896" lon="8.8303195972368"><ele>275.0</ele><time>2026-04-09T08:38:23Z</time></trkpt><trkpt lat="44.65226946742677" lon="8.830339358548926"><ele>273.5</ele><time>2026-04-09T08:38:24Z</time></trkpt><trkpt lat="44.6521403940074" lon="8.830351240791597"><ele>272.0</ele><time>2026-04-09T08:38:25Z</time></trkpt><trkpt lat="44.65201451532471" lon="8.83040124015023"><ele>273.25</ele><time>2026-04-09T08:38:25.999Z</time></trkpt><trkpt lat="44.65188972692118" lon="8.830481985105665"><ele>274.5</ele><time>2026-04-09T08:38:26.999Z</time></trkpt><trkpt lat="44.65175937441478" lon="8.830564691257997"><ele>275.75</ele><time>2026-04-09T08:38:27.999Z</time></trkpt><trkpt lat="44.65162877852228" lon="8.830648321330239"><ele>277.0</ele><time>2026-04-09T08:38:28.999Z</time></trkpt><trkpt lat="44.65150170286079" lon="8.83074127361845"><ele>277.0</ele><time>2026-04-09T08:38:29.999Z</time></trkpt><trkpt lat="44.65138451631525" lon="8.830848390130033"><ele>277.0</ele><time>2026-04-09T08:38:30.999Z</time></trkpt><trkpt lat="44.65126939084718" lon="8.830961992980777"><ele>277.0</ele><time>2026-04-09T08:38:31.999Z</time></trkpt><trkpt lat="44.65114473959049" lon="8.831074486434842"><ele>277.0</ele><time>2026-04-09T08:38:32.999Z</time></trkpt><trkpt lat="44.65100770898587" lon="8.831177682380513"><ele>275.0</ele><time>2026-04-09T08:38:33.999Z</time></trkpt><trkpt lat="44.65085236475793" lon="8.831283692723886"><ele>273.0</ele><time>2026-04-09T08:38:34.999Z</time></trkpt><trkpt lat="44.65070136455942" lon="8.831372626718364"><ele>271.0</ele><time>2026-04-09T08:38:35.999Z</time></trkpt><trkpt lat="44.650535659548254" lon="8.83145914072869"><ele>271.0</ele><time>2026-04-09T08:38:37Z</time></trkpt><trkpt lat="44.65037326110925" lon="8.831552346418192"><ele>271.0</ele><time>2026-04-09T08:38:38Z</time></trkpt><trkpt lat="44.65021257582226" lon="8.831644675517305"><ele>271.0</ele><time>2026-04-09T08:38:39Z</time></trkpt><trkpt lat="44.65006074831735" lon="8.831732670896857"><ele>270.0</ele><time>2026-04-09T08:38:40Z</time></trkpt><trkpt lat="44.64991430760384" lon="8.831818721673452"><ele>269.0</ele><time>2026-04-09T08:38:41Z</time></trkpt><trkpt lat="44.64977382945356" lon="8.83190596374217"><ele>268.0</ele><time>2026-04-09T08:38:42Z</time></trkpt><trkpt lat="44.64964235199371" lon="8.831992022807128"><ele>268.0</ele><time>2026-04-09T08:38:43Z</time></trkpt><trkpt lat="44.64952039052418" lon="8.832082279711036"><ele>268.0</ele><time>2026-04-09T08:38:44Z</time></trkpt><trkpt lat="44.649408061480294" lon="8.832172169562487"><ele>268.0</ele><time>2026-04-09T08:38:45Z</time></trkpt><trkpt lat="44.649306834396356" lon="8.83224223677874"><ele>268.0</ele><time>2026-04-09T08:38:46Z</time></trkpt><trkpt lat="44.64920738879985" lon="8.83227662628183"><ele>270.0</ele><time>2026-04-09T08:38:47Z</time></trkpt><trkpt lat="44.64910617450262" lon="8.832286954791726"><ele>272.0</ele><time>2026-04-09T08:38:48Z</time></trkpt><trkpt lat="44.649013131060215" lon="8.83225520610566"><ele>274.0</ele><time>2026-04-09T08:38:49Z</time></trkpt><trkpt lat="44.648919916831005" lon="8.832173836188371"><ele>276.0</ele><time>2026-04-09T08:38:50Z</time></trkpt><trkpt lat="44.64883868543584" lon="8.832053713496792"><ele>278.0</ele><time>2026-04-09T08:38:51Z</time></trkpt><trkpt lat="44.648774030957064" lon="8.831912929444616"><ele>279.0</ele><time>2026-04-09T08:38:52Z</time></trkpt><trkpt lat="44.64871553989131" lon="8.83178383638515"><ele>280.0</ele><time>2026-04-09T08:38:53Z</time></trkpt><trkpt lat="44.64862879832019" lon="8.831675494914476"><ele>281.0</ele><time>2026-04-09T08:38:54Z</time></trkpt><trkpt lat="44.64851204911924" lon="8.831588501292467"><ele>282.0</ele><time>2026-04-09T08:38:55Z</time></trkpt><trkpt lat="44.648371984128396" lon="8.831531824211995"><ele>282.0</ele><time>2026-04-09T08:38:56Z</time></trkpt><trkpt lat="44.64822542749118" lon="8.831501702180459"><ele>282.0</ele><time>2026-04-09T08:38:57Z</time></trkpt><trkpt lat="44.64807093297597" lon="8.831480345177887"><ele>282.0</ele><time>2026-04-09T08:38:58Z</time></trkpt><trkpt lat="44.64790744694358" lon="8.83145558865259"><ele>278.6666666666667</ele><time>2026-04-09T08:38:59Z</time></trkpt><trkpt lat="44.6477385880701" lon="8.831435370018834"><ele>275.33333333333337</ele><time>2026-04-09T08:39:00Z</time></trkpt><trkpt lat="44.647563384760716" lon="8.83144026315903"><ele>272.0</ele><time>2026-04-09T08:39:01Z</time></trkpt><trkpt lat="44.64738435485316" lon="8.831482116735911"><ele>272.0</ele><time>2026-04-09T08:39:02Z</time></trkpt><trkpt lat="44.647207127841384" lon="8.831557648464589"><ele>272.0</ele><time>2026-04-09T08:39:03Z</time></trkpt><trkpt lat="44.647035853544054" lon="8.831645336650308"><ele>272.0</ele><time>2026-04-09T08:39:04Z</time></trkpt><trkpt lat="44.646866028231834" lon="8.831729486831264"><ele>271.33333333333337</ele><time>2026-04-09T08:39:05Z</time></trkpt><trkpt lat="44.646694875893836" lon="8.83180075080111"><ele>270.6666666666667</ele><time>2026-04-09T08:39:06Z</time></trkpt><trkpt lat="44.64652576186297" lon="8.831861975578848"><ele>270.0</ele><time>2026-04-09T08:39:07Z</time></trkpt><trkpt lat="44.6463566054589" lon="8.831908274950742"><ele>270.0</ele><time>2026-04-09T08:39:08Z</time></trkpt><trkpt lat="44.64618798116895" lon="8.831941670589138"><ele>270.0</ele><time>2026-04-09T08:39:09Z</time></trkpt><trkpt lat="44.64602369179812" lon="8.83197696184211"><ele>270.0</ele><time>2026-04-09T08:39:10Z</time></trkpt><trkpt lat="44.64585929090586" lon="8.832033185642786"><ele>272.6666666666667</ele><time>2026-04-09T08:39:11Z</time></trkpt><trkpt lat="44.64569467546787" lon="8.832097121410515"><ele>275.33333333333337</ele><time>2026-04-09T08:39:12Z</time></trkpt><trkpt lat="44.64552966885947" lon="8.832166880563522"><ele>278.0</ele><time>2026-04-09T08:39:13Z</time></trkpt><trkpt lat="44.645367418686995" lon="8.83224930991452"><ele>279.0</ele><time>2026-04-09T08:39:14Z</time></trkpt><trkpt lat="44.645209194373024" lon="8.832347995761555"><ele>280.0</ele><time>2026-04-09T08:39:15Z</time></trkpt><trkpt lat="44.64505350413936" lon="8.83245695871072"><ele>281.0</ele><time>2026-04-09T08:39:16Z</time></trkpt><trkpt lat="44.64489728725855" lon="8.83256709866279"><ele>281.33333333333337</ele><time>2026-04-09T08:39:17Z</time></trkpt><trkpt lat="44.64474049199128" lon="8.832670671307367"><ele>281.6666666666667</ele><time>2026-04-09T08:39:18Z</time></trkpt><trkpt lat="44.644580792235416" lon="8.832769497777974"><ele>282.0</ele><time>2026-04-09T08:39:19Z</time></trkpt><trkpt lat="44.644425641181236" lon="8.832857804852207"><ele>284.0</ele><time>2026-04-09T08:39:20Z</time></trkpt><trkpt lat="44.644267616830135" lon="8.832928128258397"><ele>286.0</ele><time>2026-04-09T08:39:21Z</time></trkpt><trkpt lat="44.64410506836588" lon="8.832980809361228"><ele>288.0</ele><time>2026-04-09T08:39:22Z</time></trkpt><trkpt lat="44.6439393917073" lon="8.833020602125258"><ele>288.0</ele><time>2026-04-09T08:39:23Z</time></trkpt><trkpt lat="44.643773699821374" lon="8.833061779245401"><ele>288.0</ele><time>2026-04-09T08:39:24Z</time></trkpt><trkpt lat="44.64360692040865" lon="8.833112956616326"><ele>288.0</ele><time>2026-04-09T08:39:25Z</time></trkpt><trkpt lat="44.64343897298173" lon="8.833176820022798"><ele>290.6666666666667</ele><time>2026-04-09T08:39:26Z</time></trkpt><trkpt lat="44.643271194713414" lon="8.833236532073174"><ele>293.33333333333337</ele><time>2026-04-09T08:39:27Z</time></trkpt><trkpt lat="44.64309993968283" lon="8.83329863152009"><ele>296.0</ele><time>2026-04-09T08:39:28Z</time></trkpt><trkpt lat="44.64293078344453" lon="8.833368585619835"><ele>296.33333333333337</ele><time>2026-04-09T08:39:29Z</time></trkpt><trkpt lat="44.642760499172304" lon="8.833440062334674"><ele>296.6666666666667</ele><time>2026-04-09T08:39:30Z</time></trkpt><trkpt lat="44.6425934849647" lon="8.833514225601725"><ele>297.0</ele><time>2026-04-09T08:39:31Z</time></trkpt><trkpt lat="44.6424264146787" lon="8.83360227103536"><ele>297.0</ele><time>2026-04-09T08:39:32Z</time></trkpt><trkpt lat="44.64225975821914" lon="8.83369929647512"><ele>297.0</ele><time>2026-04-09T08:39:33Z</time></trkpt><trkpt lat="44.6420937274553" lon="8.833806156598108"><ele>297.0</ele><time>2026-04-09T08:39:34Z</time></trkpt><trkpt lat="44.64193025977928" lon="8.833917749642522"><ele>300.0</ele><time>2026-04-09T08:39:35Z</time></trkpt><trkpt lat="44.64176326749411" lon="8.8340238554709"><ele>303.0</ele><time>2026-04-09T08:39:36Z</time></trkpt><trkpt lat="44.641601465858756" lon="8.834117393716703"><ele>306.0</ele><time>2026-04-09T08:39:37Z</time></trkpt><trkpt lat="44.641443564458825" lon="8.83420358378389"><ele>306.0</ele><time>2026-04-09T08:39:38Z</time></trkpt><trkpt lat="44.64129113313703" lon="8.83428579649995"><ele>306.0</ele><time>2026-04-09T08:39:39Z</time></trkpt><trkpt lat="44.641139095882075" lon="8.834356802226784"><ele>306.0</ele><time>2026-04-09T08:39:40Z</time></trkpt><trkpt lat="44.64099201267696" lon="8.834425635060306"><ele>302.75</ele><time>2026-04-09T08:39:41Z</time></trkpt><trkpt lat="44.64084702279233" lon="8.834478038584994"><ele>299.5</ele><time>2026-04-09T08:39:42Z</time></trkpt><trkpt lat="44.640709005001135" lon="8.834477380849025"><ele>296.25</ele><time>2026-04-09T08:39:43Z</time></trkpt><trkpt lat="44.640578265305564" lon="8.834440716463408"><ele>293.0</ele><time>2026-04-09T08:39:44Z</time></trkpt><trkpt lat="44.64044996740805" lon="8.834380293136553"><ele>293.0</ele><time>2026-04-09T08:39:45Z</time></trkpt><trkpt lat="44.64032293886348" lon="8.834331548252239"><ele>293.0</ele><time>2026-04-09T08:39:46Z</time></trkpt><trkpt lat="44.64018614794801" lon="8.83431332372706"><ele>293.0</ele><time>2026-04-09T08:39:47Z</time></trkpt><trkpt lat="44.64004523289025" lon="8.834334460273531"><ele>293.0</ele><time>2026-04-09T08:39:48Z</time></trkpt><trkpt lat="44.63991108239737" lon="8.834375439975846"><ele>294.75</ele><time>2026-04-09T08:39:49Z</time></trkpt><trkpt lat="44.6397880197535" lon="8.834428393412404"><ele>296.5</ele><time>2026-04-09T08:39:50Z</time></trkpt><trkpt lat="44.63967387602364" lon="8.834510730802002"><ele>298.25</ele><time>2026-04-09T08:39:51Z</time></trkpt><trkpt lat="44.63957793455465" lon="8.83463957632893"><ele>300.0</ele><time>2026-04-09T08:39:52Z</time></trkpt><trkpt lat="44.639493803277574" lon="8.834796011441323"><ele>303.75</ele><time>2026-04-09T08:39:53Z</time></trkpt><trkpt lat="44.63939456627642" lon="8.834939362592982"><ele>307.5</ele><time>2026-04-09T08:39:54Z</time></trkpt><trkpt lat="44.639269575511534" lon="8.835055457252139"><ele>311.25</ele><time>2026-04-09T08:39:55Z</time></trkpt><trkpt lat="44.639127671831496" lon="8.835150660979311"><ele>315.0</ele><time>2026-04-09T08:39:56Z</time></trkpt><trkpt lat="44.638984368356205" lon="8.835227584953458"><ele>315.0</ele><time>2026-04-09T08:39:57Z</time></trkpt><trkpt lat="44.638850640052624" lon="8.835289484134085"><ele>315.0</ele><time>2026-04-09T08:39:58Z</time></trkpt><trkpt lat="44.63873175814948" lon="8.835341955301619"><ele>315.0</ele><time>2026-04-09T08:39:59Z</time></trkpt><trkpt lat="44.63862015556538" lon="8.835405434964564"><ele>315.0</ele><time>2026-04-09T08:40:00Z</time></trkpt><trkpt lat="44.63852916119118" lon="8.835491778125789"><ele>316.5</ele><time>2026-04-09T08:40:01Z</time></trkpt><trkpt lat="44.63846185126616" lon="8.835627140699977"><ele>318.0</ele><time>2026-04-09T08:40:02Z</time></trkpt><trkpt lat="44.638430545703464" lon="8.835800014152253"><ele>319.5</ele><time>2026-04-09T08:40:03Z</time></trkpt><trkpt lat="44.63841834596216" lon="8.835989700987891"><ele>321.0</ele><time>2026-04-09T08:40:04Z</time></trkpt><trkpt lat="44.63839733067885" lon="8.836184182081924"><ele>321.0</ele><time>2026-04-09T08:40:05Z</time></trkpt><trkpt lat="44.63834780001644" lon="8.836376908309832"><ele>321.0</ele><time>2026-04-09T08:40:06Z</time></trkpt><trkpt lat="44.638286328286604" lon="8.836559218071534"><ele>321.0</ele><time>2026-04-09T08:40:07Z</time></trkpt><trkpt lat="44.63820719840065" lon="8.836754000887407"><ele>321.0</ele><time>2026-04-09T08:40:08Z</time></trkpt><trkpt lat="44.63812555813445" lon="8.836953700559455"><ele>318.0</ele><time>2026-04-09T08:40:09Z</time></trkpt><trkpt lat="44.63804094232112" lon="8.83716418210576"><ele>315.0</ele><time>2026-04-09T08:40:10Z</time></trkpt><trkpt lat="44.63795507724939" lon="8.837383164585512"><ele>312.0</ele><time>2026-04-09T08:40:11Z</time></trkpt><trkpt lat="44.63786929102503" lon="8.83760674033422"><ele>316.6666666666667</ele><time>2026-04-09T08:40:12Z</time></trkpt><trkpt lat="44.63778283345142" lon="8.83781629358294"><ele>321.33333333333337</ele><time>2026-04-09T08:40:13Z</time></trkpt><trkpt lat="44.63769079954348" lon="8.838011516823075"><ele>326.0</ele><time>2026-04-09T08:40:14Z</time></trkpt><trkpt lat="44.63759753724475" lon="8.83819951849666"><ele>326.0</ele><time>2026-04-09T08:40:15Z</time></trkpt><trkpt lat="44.63752833880085" lon="8.838391053327515"><ele>326.0</ele><time>2026-04-09T08:40:16Z</time></trkpt><trkpt lat="44.637473229558296" lon="8.838594150339265"><ele>326.0</ele><time>2026-04-09T08:40:17Z</time></trkpt><trkpt lat="44.63742003804958" lon="8.838794758383512"><ele>323.75</ele><time>2026-04-09T08:40:18Z</time></trkpt><trkpt lat="44.63735454342084" lon="8.838975742353345"><ele>321.5</ele><time>2026-04-09T08:40:19Z</time></trkpt><trkpt lat="44.637269322573324" lon="8.839135591069905"><ele>319.25</ele><time>2026-04-09T08:40:20Z</time></trkpt><trkpt lat="44.63716653155512" lon="8.839296313325141"><ele>317.0</ele><time>2026-04-09T08:40:21Z</time></trkpt><trkpt lat="44.63704978531104" lon="8.839458031351356"><ele>319.0</ele><time>2026-04-09T08:40:22Z</time></trkpt><trkpt lat="44.63692478742138" lon="8.839624302260237"><ele>321.0</ele><time>2026-04-09T08:40:23Z</time></trkpt><trkpt lat="44.63680221493639" lon="8.839791985978282"><ele>323.0</ele><time>2026-04-09T08:40:24Z</time></trkpt><trkpt lat="44.636681403874526" lon="8.839960564155335"><ele>323.0</ele><time>2026-04-09T08:40:25Z</time></trkpt><trkpt lat="44.63655946940422" lon="8.840131860864846"><ele>323.0</ele><time>2026-04-09T08:40:26Z</time></trkpt><trkpt lat="44.63643630708524" lon="8.840303006694555"><ele>323.0</ele><time>2026-04-09T08:40:27Z</time></trkpt><trkpt lat="44.636313590879396" lon="8.840480739230406"><ele>322.33333333333337</ele><time>2026-04-09T08:40:28Z</time></trkpt><trkpt lat="44.63618936626606" lon="8.84065749537559"><ele>321.6666666666667</ele><time>2026-04-09T08:40:29Z</time></trkpt><trkpt lat="44.63606925827458" lon="8.84083822076531"><ele>321.0</ele><time>2026-04-09T08:40:30Z</time></trkpt><trkpt lat="44.63595204116608" lon="8.841029313098497"><ele>321.0</ele><time>2026-04-09T08:40:31Z</time></trkpt><trkpt lat="44.63584173963452" lon="8.84123151565823"><ele>321.0</ele><time>2026-04-09T08:40:32Z</time></trkpt><trkpt lat="44.63574020759016" lon="8.841439074008875"><ele>321.0</ele><time>2026-04-09T08:40:33Z</time></trkpt><trkpt lat="44.63564581496056" lon="8.841638402532167"><ele>317.0</ele><time>2026-04-09T08:40:34Z</time></trkpt><trkpt lat="44.635563592636224" lon="8.841818484124847"><ele>313.0</ele><time>2026-04-09T08:40:35Z</time></trkpt><trkpt lat="44.63548884899321" lon="8.841981426833732"><ele>309.0</ele><time>2026-04-09T08:40:36Z</time></trkpt><trkpt lat="44.635417289359594" lon="8.842130646723204"><ele>305.0</ele><time>2026-04-09T08:40:36.999Z</time></trkpt><trkpt lat="44.635336187591086" lon="8.842263500970807"><ele>309.25</ele><time>2026-04-09T08:40:37.999Z</time></trkpt><trkpt lat="44.63523533436868" lon="8.84236512940821"><ele>313.5</ele><time>2026-04-09T08:40:38.999Z</time></trkpt><trkpt lat="44.63511360404698" lon="8.842405973613552"><ele>317.75</ele><time>2026-04-09T08:40:39.999Z</time></trkpt><trkpt lat="44.634982511390426" lon="8.84243155485305"><ele>322.0</ele><time>2026-04-09T08:40:40.999Z</time></trkpt><trkpt lat="44.6348472386979" lon="8.84247630537462"><ele>322.0</ele><time>2026-04-09T08:40:41.999Z</time></trkpt><trkpt lat="44.63470519378904" lon="8.842538969373658"><ele>322.0</ele><time>2026-04-09T08:40:43Z</time></trkpt><trkpt lat="44.63455929980137" lon="8.842606068587845"><ele>322.0</ele><time>2026-04-09T08:40:44Z</time></trkpt><trkpt lat="44.63440620266029" lon="8.842669539225703"><ele>316.66666666666663</ele><time>2026-04-09T08:40:45Z</time></trkpt><trkpt lat="44.63424986767065" lon="8.842728738439622"><ele>311.3333333333333</ele><time>2026-04-09T08:40:46Z</time></trkpt><trkpt lat="44.63408954760281" lon="8.842776074204155"><ele>306.0</ele><time>2026-04-09T08:40:47Z</time></trkpt><trkpt lat="44.633923883292084" lon="8.842807644342352"><ele>306.0</ele><time>2026-04-09T08:40:48Z</time></trkpt><trkpt lat="44.63375389031061" lon="8.8428185222459"><ele>306.0</ele><time>2026-04-09T08:40:49Z</time></trkpt><trkpt lat="44.633592910533515" lon="8.842832430288418"><ele>306.0</ele><time>2026-04-09T08:40:50Z</time></trkpt><trkpt lat="44.63344079452773" lon="8.842837082029028"><ele>308.25</ele><time>2026-04-09T08:40:51Z</time></trkpt><trkpt lat="44.63329415342994" lon="8.842864067770245"><ele>310.5</ele><time>2026-04-09T08:40:52Z</time></trkpt><trkpt lat="44.63315961467712" lon="8.842924949891131"><ele>312.75</ele><time>2026-04-09T08:40:53Z</time></trkpt><trkpt lat="44.63304127762568" lon="8.843015120396785"><ele>315.0</ele><time>2026-04-09T08:40:54Z</time></trkpt><trkpt lat="44.63292510511395" lon="8.843085440854994"><ele>315.0</ele><time>2026-04-09T08:40:55Z</time></trkpt><trkpt lat="44.632812215657296" lon="8.84311674831718"><ele>315.0</ele><time>2026-04-09T08:40:56Z</time></trkpt><trkpt lat="44.63270115197861" lon="8.843112284472111"><ele>315.0</ele><time>2026-04-09T08:40:57Z</time></trkpt><trkpt lat="44.632589813140264" lon="8.843055497968717"><ele>315.0</ele><time>2026-04-09T08:40:58Z</time></trkpt><trkpt lat="44.63251116666668" lon="8.842954123558716"><ele>315.25</ele><time>2026-04-09T08:40:59Z</time></trkpt><trkpt lat="44.632462678945984" lon="8.84281211574691"><ele>315.5</ele><time>2026-04-09T08:41:00Z</time></trkpt><trkpt lat="44.63244687994924" lon="8.8426470602874"><ele>315.75</ele><time>2026-04-09T08:41:01Z</time></trkpt><trkpt lat="44.6324889838267" lon="8.842485220943447"><ele>316.0</ele><time>2026-04-09T08:41:02Z</time></trkpt><trkpt lat="44.632498616076134" lon="8.842326688284052"><ele>318.5</ele><time>2026-04-09T08:41:03Z</time></trkpt><trkpt lat="44.63247303188423" lon="8.842171995735509"><ele>321.0</ele><time>2026-04-09T08:41:04Z</time></trkpt><trkpt lat="44.632405028030526" lon="8.842033017633534"><ele>323.5</ele><time>2026-04-09T08:41:05Z</time></trkpt><trkpt lat="44.632324159595676" lon="8.84190432344921"><ele>326.0</ele><time>2026-04-09T08:41:06Z</time></trkpt><trkpt lat="44.63221593978524" lon="8.841792953658693"><ele>327.75</ele><time>2026-04-09T08:41:07Z</time></trkpt><trkpt lat="44.63209488852675" lon="8.841710915931266"><ele>329.5</ele><time>2026-04-09T08:41:08Z</time></trkpt><trkpt lat="44.63196460114826" lon="8.84167683308712"><ele>331.25</ele><time>2026-04-09T08:41:09Z</time></trkpt><trkpt lat="44.63182350845755" lon="8.841701090328472"><ele>333.0</ele><time>2026-04-09T08:41:10Z</time></trkpt><trkpt lat="44.63167623165443" lon="8.841763993108307"><ele>327.5</ele><time>2026-04-09T08:41:11Z</time></trkpt><trkpt lat="44.63154353203902" lon="8.841830476334996"><ele>322.0</ele><time>2026-04-09T08:41:12Z</time></trkpt><trkpt lat="44.63140501610121" lon="8.841898064589953"><ele>316.5</ele><time>2026-04-09T08:41:13Z</time></trkpt><trkpt lat="44.63126362520607" lon="8.841942242356097"><ele>311.0</ele><time>2026-04-09T08:41:14Z</time></trkpt><trkpt lat="44.631097720701014" lon="8.84202448850344"><ele>310.75</ele><time>2026-04-09T08:41:15Z</time></trkpt><trkpt lat="44.63096286272923" lon="8.84208905586309"><ele>310.5</ele><time>2026-04-09T08:41:16Z</time></trkpt><trkpt lat="44.6308380612764" lon="8.842136178254448"><ele>310.25</ele><time>2026-04-09T08:41:17Z</time></trkpt><trkpt lat="44.630715047971634" lon="8.842136789341698"><ele>310.0</ele><time>2026-04-09T08:41:18Z</time></trkpt><trkpt lat="44.630592393323774" lon="8.842103747095459"><ele>310.0</ele><time>2026-04-09T08:41:19Z</time></trkpt><trkpt lat="44.63046326015538" lon="8.842064597707855"><ele>310.0</ele><time>2026-04-09T08:41:20Z</time></trkpt><trkpt lat="44.630332480006885" lon="8.84201070138025"><ele>310.0</ele><time>2026-04-09T08:41:21Z</time></trkpt><trkpt lat="44.63021108451665" lon="8.841994617795802"><ele>310.0</ele><time>2026-04-09T08:41:22Z</time></trkpt><trkpt lat="44.630075992781315" lon="8.842006899676973"><ele>311.25</ele><time>2026-04-09T08:41:23Z</time></trkpt><trkpt lat="44.6299513392682" lon="8.842104527249159"><ele>312.5</ele><time>2026-04-09T08:41:24Z</time></trkpt><trkpt lat="44.62982330588097" lon="8.842192329051668"><ele>313.75</ele><time>2026-04-09T08:41:25Z</time></trkpt><trkpt lat="44.6296924590592" lon="8.842281515143497"><ele>315.0</ele><time>2026-04-09T08:41:26Z</time></trkpt><trkpt lat="44.62955490961808" lon="8.842369245808472"><ele>315.0</ele><time>2026-04-09T08:41:27Z</time></trkpt><trkpt lat="44.62942031390014" lon="8.842462538430052"><ele>315.0</ele><time>2026-04-09T08:41:28Z</time></trkpt><trkpt lat="44.62928682883391" lon="8.842555960277306"><ele>315.0</ele><time>2026-04-09T08:41:29Z</time></trkpt><trkpt lat="44.62914877635144" lon="8.842635431739911"><ele>315.0</ele><time>2026-04-09T08:41:30Z</time></trkpt><trkpt lat="44.62900421015883" lon="8.842693376171997"><ele>315.0</ele><time>2026-04-09T08:41:31Z</time></trkpt><trkpt lat="44.62885077741319" lon="8.842716740654314"><ele>315.0</ele><time>2026-04-09T08:41:32Z</time></trkpt><trkpt lat="44.62869193638361" lon="8.842720843097155"><ele>315.0</ele><time>2026-04-09T08:41:33Z</time></trkpt><trkpt lat="44.62852700745174" lon="8.842720757365084"><ele>316.3333333333333</ele><time>2026-04-09T08:41:34Z</time></trkpt><trkpt lat="44.62836059647542" lon="8.84272338922643"><ele>317.66666666666663</ele><time>2026-04-09T08:41:35Z</time></trkpt><trkpt lat="44.62819529853581" lon="8.842736022569623"><ele>319.0</ele><time>2026-04-09T08:41:36Z</time></trkpt><trkpt lat="44.628035016014394" lon="8.842759404571217"><ele>319.0</ele><time>2026-04-09T08:41:37Z</time></trkpt><trkpt lat="44.62788069149009" lon="8.842787986498175"><ele>319.0</ele><time>2026-04-09T08:41:38Z</time></trkpt><trkpt lat="44.627736368361155" lon="8.842816268191115"><ele>319.0</ele><time>2026-04-09T08:41:39Z</time></trkpt><trkpt lat="44.62759405943364" lon="8.842841307338047"><ele>319.0</ele><time>2026-04-09T08:41:40Z</time></trkpt><trkpt lat="44.62745934729806" lon="8.842860639118967"><ele>320.75</ele><time>2026-04-09T08:41:41Z</time></trkpt><trkpt lat="44.62734084769986" lon="8.842888337873166"><ele>322.5</ele><time>2026-04-09T08:41:42Z</time></trkpt><trkpt lat="44.62722162039407" lon="8.842924054479797"><ele>324.25</ele><time>2026-04-09T08:41:43Z</time></trkpt><trkpt lat="44.62709975545765" lon="8.84296449838078"><ele>326.0</ele><time>2026-04-09T08:41:44Z</time></trkpt><trkpt lat="44.62697610518412" lon="8.843004628139505"><ele>326.20000000000005</ele><time>2026-04-09T08:41:45Z</time></trkpt><trkpt lat="44.62685696255742" lon="8.843048613577785"><ele>326.40000000000003</ele><time>2026-04-09T08:41:46Z</time></trkpt><trkpt lat="44.62674601974188" lon="8.843099621417082"><ele>326.6</ele><time>2026-04-09T08:41:47Z</time></trkpt><trkpt lat="44.62664480629248" lon="8.84315870102956"><ele>326.8</ele><time>2026-04-09T08:41:48Z</time></trkpt><trkpt lat="44.62656258681886" lon="8.843212998402564"><ele>327.0</ele><time>2026-04-09T08:41:49Z</time></trkpt><trkpt lat="44.62648605511462" lon="8.84324429239918"><ele>327.0</ele><time>2026-04-09T08:41:50Z</time></trkpt><trkpt lat="44.62640760555409" lon="8.843236361504488"><ele>327.0</ele><time>2026-04-09T08:41:51Z</time></trkpt><trkpt lat="44.62633112728423" lon="8.84316108546412"><ele>327.0</ele><time>2026-04-09T08:41:52Z</time></trkpt><trkpt lat="44.626237103050684" lon="8.843145135302928"><ele>327.0</ele><time>2026-04-09T08:41:53Z</time></trkpt><trkpt lat="44.62613250160619" lon="8.843140981305416"><ele>327.0</ele><time>2026-04-09T08:41:54Z</time></trkpt><trkpt lat="44.62602003976829" lon="8.843132146858094"><ele>327.5</ele><time>2026-04-09T08:41:55Z</time></trkpt><trkpt lat="44.625901707441464" lon="8.84315201515454"><ele>328.0</ele><time>2026-04-09T08:41:56Z</time></trkpt><trkpt lat="44.62578373416448" lon="8.843174096712085"><ele>328.5</ele><time>2026-04-09T08:41:57Z</time></trkpt><trkpt lat="44.62567671248369" lon="8.843220560332409"><ele>329.0</ele><time>2026-04-09T08:41:58Z</time></trkpt><trkpt lat="44.625576701712525" lon="8.84324217696652"><ele>329.0</ele><time>2026-04-09T08:41:59Z</time></trkpt><trkpt lat="44.62548550941803" lon="8.843257526891863"><ele>329.0</ele><time>2026-04-09T08:42:00Z</time></trkpt><trkpt lat="44.62540087493935" lon="8.843266639634589"><ele>329.0</ele><time>2026-04-09T08:42:01Z</time></trkpt><trkpt lat="44.62531657670498" lon="8.843267688522268"><ele>329.0</ele><time>2026-04-09T08:42:02Z</time></trkpt><trkpt lat="44.625223487329606" lon="8.843265092783303"><ele>329.0</ele><time>2026-04-09T08:42:03Z</time></trkpt><trkpt lat="44.62511978935562" lon="8.843280561697055"><ele>330.0</ele><time>2026-04-09T08:42:04Z</time></trkpt><trkpt lat="44.62501238566874" lon="8.84328933082738"><ele>331.0</ele><time>2026-04-09T08:42:05Z</time></trkpt><trkpt lat="44.62489942802758" lon="8.843298495672345"><ele>332.0</ele><time>2026-04-09T08:42:06Z</time></trkpt><trkpt lat="44.624786697580554" lon="8.843308473457531"><ele>333.0</ele><time>2026-04-09T08:42:07Z</time></trkpt><trkpt lat="44.62467182777824" lon="8.843320172760166"><ele>334.0</ele><time>2026-04-09T08:42:08Z</time></trkpt><trkpt lat="44.6245562044355" lon="8.843331765012934"><ele>333.75</ele><time>2026-04-09T08:42:09Z</time></trkpt><trkpt lat="44.624442988560965" lon="8.84333942289782"><ele>333.5</ele><time>2026-04-09T08:42:10Z</time></trkpt><trkpt lat="44.62432467013606" lon="8.843347574456848"><ele>333.25</ele><time>2026-04-09T08:42:11Z</time></trkpt><trkpt lat="44.62420879451241" lon="8.84335553973334"><ele>333.0</ele><time>2026-04-09T08:42:12Z</time></trkpt><trkpt lat="44.62409171682245" lon="8.8433683616106"><ele>333.0</ele><time>2026-04-09T08:42:13Z</time></trkpt><trkpt lat="44.62397667791238" lon="8.843386332327476"><ele>333.0</ele><time>2026-04-09T08:42:14Z</time></trkpt><trkpt lat="44.623859092859895" lon="8.843396217429778"><ele>333.0</ele><time>2026-04-09T08:42:15Z</time></trkpt><trkpt lat="44.623742626189866" lon="8.84340640543163"><ele>333.0</ele><time>2026-04-09T08:42:16Z</time></trkpt><trkpt lat="44.623625562487746" lon="8.843416821666562"><ele>332.75</ele><time>2026-04-09T08:42:17Z</time></trkpt><trkpt lat="44.62350485112313" lon="8.843427648528163"><ele>332.5</ele><time>2026-04-09T08:42:18Z</time></trkpt><trkpt lat="44.623378195373476" lon="8.843435997760604"><ele>332.25</ele><time>2026-04-09T08:42:19Z</time></trkpt><trkpt lat="44.62325891319015" lon="8.843443916517725"><ele>332.0</ele><time>2026-04-09T08:42:20Z</time></trkpt><trkpt lat="44.62315218038224" lon="8.843448329129238"><ele>332.0</ele><time>2026-04-09T08:42:21Z</time></trkpt><trkpt lat="44.62305419063167" lon="8.843455606993698"><ele>332.0</ele><time>2026-04-09T08:42:22Z</time></trkpt><trkpt lat="44.622962452890924" lon="8.843470927335353"><ele>332.0</ele><time>2026-04-09T08:42:23Z</time></trkpt><trkpt lat="44.622874063044186" lon="8.843499880597262"><ele>332.0</ele><time>2026-04-09T08:42:24Z</time></trkpt><trkpt lat="44.62278505354255" lon="8.843534988733031"><ele>332.0</ele><time>2026-04-09T08:42:25Z</time></trkpt><trkpt lat="44.62269394079111" lon="8.843585821144845"><ele>331.6666666666667</ele><time>2026-04-09T08:42:26Z</time></trkpt><trkpt lat="44.62260761567648" lon="8.843636354477814"><ele>331.33333333333337</ele><time>2026-04-09T08:42:27Z</time></trkpt><trkpt lat="44.62252884896249" lon="8.843687622237448"><ele>331.0</ele><time>2026-04-09T08:42:28Z</time></trkpt><trkpt lat="44.622457128384134" lon="8.843731634915608"><ele>330.6666666666667</ele><time>2026-04-09T08:42:29Z</time></trkpt><trkpt lat="44.62239136722033" lon="8.843770834251304"><ele>330.3333333333333</ele><time>2026-04-09T08:42:30Z</time></trkpt><trkpt lat="44.62233263280641" lon="8.84380649788853"><ele>330.0</ele><time>2026-04-09T08:42:31Z</time></trkpt><trkpt lat="44.62223893652248" lon="8.843832041028024"><ele>330.0</ele><time>2026-04-09T08:42:33Z</time></trkpt><trkpt lat="44.62215395813502" lon="8.843813608154798"><ele>330.0</ele><time>2026-04-09T08:42:35Z</time></trkpt><trkpt lat="44.622080090810464" lon="8.843682298656226"><ele>330.0</ele><time>2026-04-09T08:42:37Z</time></trkpt><trkpt lat="44.622046484957245" lon="8.843586243656356"><ele>330.0</ele><time>2026-04-09T08:42:38Z</time></trkpt><trkpt lat="44.622002640704785" lon="8.843501033039734"><ele>330.0</ele><time>2026-04-09T08:42:39Z</time></trkpt><trkpt lat="44.62196704666466" lon="8.843414909465261"><ele>330.0</ele><time>2026-04-09T08:42:40Z</time></trkpt><trkpt lat="44.6219318946254" lon="8.843340201058945"><ele>328.2</ele><time>2026-04-09T08:42:41Z</time></trkpt><trkpt lat="44.6218879523995" lon="8.843274552521368"><ele>326.4</ele><time>2026-04-09T08:42:42Z</time></trkpt><trkpt lat="44.62182426608933" lon="8.843123146158673"><ele>324.6</ele><time>2026-04-09T08:42:43.999Z</time></trkpt><trkpt lat="44.62177232620239" lon="8.84297776660317"><ele>322.8</ele><time>2026-04-09T08:42:45.999Z</time></trkpt><trkpt lat="44.62178039425454" lon="8.842814851866045"><ele>321.0</ele><time>2026-04-09T08:42:47.999Z</time></trkpt><trkpt lat="44.62179346250695" lon="8.842724839365003"><ele>321.0</ele><time>2026-04-09T08:42:49Z</time></trkpt><trkpt lat="44.62181671178235" lon="8.842639432417803"><ele>321.0</ele><time>2026-04-09T08:42:50Z</time></trkpt><trkpt lat="44.62184391407642" lon="8.84254436730036"><ele>321.0</ele><time>2026-04-09T08:42:51Z</time></trkpt><trkpt lat="44.621865663967576" lon="8.842444969999725"><ele>321.0</ele><time>2026-04-09T08:42:52Z</time></trkpt><trkpt lat="44.62189106161072" lon="8.842339407545417"><ele>321.0</ele><time>2026-04-09T08:42:53Z</time></trkpt><trkpt lat="44.6219068815382" lon="8.842225125699462"><ele>321.0</ele><time>2026-04-09T08:42:54Z</time></trkpt><trkpt lat="44.62191874772784" lon="8.842103825081427"><ele>321.1666666666667</ele><time>2026-04-09T08:42:55Z</time></trkpt><trkpt lat="44.621940165762545" lon="8.841989215482283"><ele>321.3333333333333</ele><time>2026-04-09T08:42:56Z</time></trkpt><trkpt lat="44.621956964662594" lon="8.841877024097915"><ele>321.5</ele><time>2026-04-09T08:42:57Z</time></trkpt><trkpt lat="44.62199410296929" lon="8.841775440229727"><ele>321.66666666666663</ele><time>2026-04-09T08:42:58Z</time></trkpt><trkpt lat="44.62204148884099" lon="8.841696409218816"><ele>321.8333333333333</ele><time>2026-04-09T08:42:59Z</time></trkpt><trkpt lat="44.62211383276553" lon="8.841603363457446"><ele>322.0</ele><time>2026-04-09T08:43:01Z</time></trkpt><trkpt lat="44.62216641590353" lon="8.841525792243353"><ele>322.0</ele><time>2026-04-09T08:43:12Z</time></trkpt><trkpt lat="44.62221086761406" lon="8.841452818844843"><ele>322.0</ele><time>2026-04-09T08:43:14Z</time></trkpt><trkpt lat="44.622237547149744" lon="8.841357499518855"><ele>322.0</ele><time>2026-04-09T08:43:16Z</time></trkpt><trkpt lat="44.62218856013126" lon="8.841247026574555"><ele>322.0</ele><time>2026-04-09T08:43:18Z</time></trkpt><trkpt lat="44.622149005037066" lon="8.84115201008271"><ele>322.0</ele><time>2026-04-09T08:43:21Z</time></trkpt><trkpt lat="44.62212609010797" lon="8.841000621357837"><ele>322.0</ele><time>2026-04-09T08:43:23Z</time></trkpt><trkpt lat="44.62208475459657" lon="8.84090083509923"><ele>323.8</ele><time>2026-04-09T08:43:24Z</time></trkpt><trkpt lat="44.622011159076585" lon="8.840835791011274"><ele>325.6</ele><time>2026-04-09T08:43:25Z</time></trkpt><trkpt lat="44.62194766234061" lon="8.840784718053936"><ele>327.40000000000003</ele><time>2026-04-09T08:43:26Z</time></trkpt><trkpt lat="44.62190460559125" lon="8.840706213983298"><ele>329.20000000000005</ele><time>2026-04-09T08:43:27Z</time></trkpt><trkpt lat="44.62187126881122" lon="8.840560007197013"><ele>331.0</ele><time>2026-04-09T08:43:29Z</time></trkpt><trkpt lat="44.62191595870969" lon="8.840392447836138"><ele>331.0</ele><time>2026-04-09T08:43:31Z</time></trkpt><trkpt lat="44.62193790064028" lon="8.840279892354394"><ele>331.0</ele><time>2026-04-09T08:43:32Z</time></trkpt><trkpt lat="44.6219557799716" lon="8.840175930697203"><ele>331.0</ele><time>2026-04-09T08:43:33Z</time></trkpt><trkpt lat="44.62191475667983" lon="8.840058870453667"><ele>331.0</ele><time>2026-04-09T08:43:34Z</time></trkpt><trkpt lat="44.62184263191459" lon="8.839967731097289"><ele>331.0</ele><time>2026-04-09T08:43:35Z</time></trkpt><trkpt lat="44.621780616841626" lon="8.83987847901251"><ele>331.0</ele><time>2026-04-09T08:43:36Z</time></trkpt><trkpt lat="44.621734885305855" lon="8.839774608420152"><ele>331.6</ele><time>2026-04-09T08:43:37Z</time></trkpt><trkpt lat="44.62169686926874" lon="8.839653965046857"><ele>332.20000000000005</ele><time>2026-04-09T08:43:38Z</time></trkpt><trkpt lat="44.62170005396346" lon="8.839515628513277"><ele>332.79999999999995</ele><time>2026-04-09T08:43:39Z</time></trkpt><trkpt lat="44.62166558903798" lon="8.839394625595357"><ele>333.4</ele><time>2026-04-09T08:43:40Z</time></trkpt><trkpt lat="44.621615797306546" lon="8.839285315000332"><ele>334.0</ele><time>2026-04-09T08:43:41Z</time></trkpt><trkpt lat="44.621562034449944" lon="8.839168122182107"><ele>336.0</ele><time>2026-04-09T08:43:42Z</time></trkpt><trkpt lat="44.62150772098001" lon="8.839054672644652"><ele>338.0</ele><time>2026-04-09T08:43:43Z</time></trkpt><trkpt lat="44.621448347726755" lon="8.838948615833162"><ele>340.0</ele><time>2026-04-09T08:43:44Z</time></trkpt><trkpt lat="44.62137879177905" lon="8.83884667986525"><ele>342.0</ele><time>2026-04-09T08:43:45Z</time></trkpt><trkpt lat="44.6213054423219" lon="8.838748863975594"><ele>344.0</ele><time>2026-04-09T08:43:46Z</time></trkpt><trkpt lat="44.62122932599562" lon="8.838655223119193"><ele>344.4</ele><time>2026-04-09T08:43:47Z</time></trkpt><trkpt lat="44.621139663531764" lon="8.83858355843772"><ele>344.79999999999995</ele><time>2026-04-09T08:43:48Z</time></trkpt><trkpt lat="44.6210714867246" lon="8.838473817893362"><ele>345.20000000000005</ele><time>2026-04-09T08:43:49Z</time></trkpt><trkpt lat="44.620980537372176" lon="8.838388625906287"><ele>345.6</ele><time>2026-04-09T08:43:50Z</time></trkpt><trkpt lat="44.620889263490234" lon="8.83831135047468"><ele>346.0</ele><time>2026-04-09T08:43:51Z</time></trkpt><trkpt lat="44.62079863907441" lon="8.838230959415947"><ele>346.0</ele><time>2026-04-09T08:43:52Z</time></trkpt><trkpt lat="44.620708524303275" lon="8.838136397973841"><ele>346.0</ele><time>2026-04-09T08:43:53Z</time></trkpt><trkpt lat="44.620614352570556" lon="8.838038352384173"><ele>346.0</ele><time>2026-04-09T08:43:54Z</time></trkpt><trkpt lat="44.620520983637775" lon="8.837947137068719"><ele>346.0</ele><time>2026-04-09T08:43:55Z</time></trkpt><trkpt lat="44.620428219039034" lon="8.837860891194646"><ele>346.0</ele><time>2026-04-09T08:43:56Z</time></trkpt><trkpt lat="44.62032650132115" lon="8.837792922682777"><ele>346.0</ele><time>2026-04-09T08:43:57Z</time></trkpt><trkpt lat="44.62025215599725" lon="8.837686370689779"><ele>346.0</ele><time>2026-04-09T08:43:58Z</time></trkpt><trkpt lat="44.62016837479704" lon="8.837598394109648"><ele>346.0</ele><time>2026-04-09T08:43:59Z</time></trkpt><trkpt lat="44.620102963539225" lon="8.83748354301189"><ele>346.0</ele><time>2026-04-09T08:44:00Z</time></trkpt><trkpt lat="44.62003741262057" lon="8.837365118026701"><ele>346.0</ele><time>2026-04-09T08:44:01Z</time></trkpt><trkpt lat="44.61998018002976" lon="8.837257683067362"><ele>346.0</ele><time>2026-04-09T08:44:02Z</time></trkpt><trkpt lat="44.619923459797505" lon="8.837183568278235"><ele>346.0</ele><time>2026-04-09T08:44:03Z</time></trkpt><trkpt lat="44.619864652274174" lon="8.837099974077061"><ele>346.0</ele><time>2026-04-09T08:44:04Z</time></trkpt><trkpt lat="44.61978600511298" lon="8.837034884691679"><ele>346.0</ele><time>2026-04-09T08:44:05Z</time></trkpt><trkpt lat="44.61972197366794" lon="8.836966342307585"><ele>346.0</ele><time>2026-04-09T08:44:06Z</time></trkpt><trkpt lat="44.61967573027382" lon="8.836906004913951"><ele>347.4</ele><time>2026-04-09T08:44:07Z</time></trkpt><trkpt lat="44.619638119092244" lon="8.836735009314832"><ele>348.8</ele><time>2026-04-09T08:44:09Z</time></trkpt><trkpt lat="44.619630682925745" lon="8.836606434570255"><ele>350.2</ele><time>2026-04-09T08:44:10Z</time></trkpt><trkpt lat="44.619631625370005" lon="8.836470859991294"><ele>351.59999999999997</ele><time>2026-04-09T08:44:11Z</time></trkpt><trkpt lat="44.61963042456278" lon="8.836328776768996"><ele>353.0</ele><time>2026-04-09T08:44:12Z</time></trkpt><trkpt lat="44.61956581283208" lon="8.836215375784157"><ele>353.0</ele><time>2026-04-09T08:44:13Z</time></trkpt><trkpt lat="44.6194985237878" lon="8.83612445660557"><ele>353.0</ele><time>2026-04-09T08:44:14Z</time></trkpt><trkpt lat="44.619408298729965" lon="8.836075797265133"><ele>353.0</ele><time>2026-04-09T08:44:15Z</time></trkpt><trkpt lat="44.61931169633712" lon="8.836047153711013"><ele>353.0</ele><time>2026-04-09T08:44:16Z</time></trkpt><trkpt lat="44.61921433938838" lon="8.83601226332654"><ele>353.0</ele><time>2026-04-09T08:44:17Z</time></trkpt><trkpt lat="44.619125121646874" lon="8.835965781280468"><ele>351.6666666666667</ele><time>2026-04-09T08:44:18Z</time></trkpt><trkpt lat="44.61904118142496" lon="8.835933085647007"><ele>350.33333333333337</ele><time>2026-04-09T08:44:19Z</time></trkpt><trkpt lat="44.6189497072046" lon="8.835928914092072"><ele>349.0</ele><time>2026-04-09T08:44:20Z</time></trkpt><trkpt lat="44.61885514334978" lon="8.835948931528673"><ele>347.6666666666667</ele><time>2026-04-09T08:44:21Z</time></trkpt><trkpt lat="44.61876901204538" lon="8.83597024042316"><ele>346.3333333333333</ele><time>2026-04-09T08:44:22Z</time></trkpt><trkpt lat="44.61869107432633" lon="8.835987678217574"><ele>345.0</ele><time>2026-04-09T08:44:23Z</time></trkpt><trkpt lat="44.61861792001827" lon="8.835999903089906"><ele>344.8333333333333</ele><time>2026-04-09T08:44:24Z</time></trkpt><trkpt lat="44.618547464213464" lon="8.835991704613024"><ele>344.6666666666667</ele><time>2026-04-09T08:44:25Z</time></trkpt><trkpt lat="44.618454022013644" lon="8.835898808695747"><ele>344.5</ele><time>2026-04-09T08:44:27Z</time></trkpt><trkpt lat="44.61845012688886" lon="8.835804257492862"><ele>344.33333333333337</ele><time>2026-04-09T08:44:28Z</time></trkpt><trkpt lat="44.618460802691786" lon="8.835697005844517"><ele>344.1666666666667</ele><time>2026-04-09T08:44:29Z</time></trkpt><trkpt lat="44.61847888236864" lon="8.835564866739364"><ele>344.0</ele><time>2026-04-09T08:44:30Z</time></trkpt><trkpt lat="44.61850270808298" lon="8.83541237767965"><ele>343.25</ele><time>2026-04-09T08:44:31Z</time></trkpt><trkpt lat="44.618520342790625" lon="8.835291432497483"><ele>342.5</ele><time>2026-04-09T08:44:32Z</time></trkpt><trkpt lat="44.6185449397383" lon="8.835122737938436"><ele>341.75</ele><time>2026-04-09T08:44:33Z</time></trkpt><trkpt lat="44.6185701822929" lon="8.83494961551597"><ele>341.0</ele><time>2026-04-09T08:44:34Z</time></trkpt><trkpt lat="44.61859864691288" lon="8.834789942009767"><ele>341.0</ele><time>2026-04-09T08:44:35Z</time></trkpt><trkpt lat="44.61863314326615" lon="8.83463831828745"><ele>341.0</ele><time>2026-04-09T08:44:36Z</time></trkpt><trkpt lat="44.61867423646818" lon="8.834489288765319"><ele>341.0</ele><time>2026-04-09T08:44:37Z</time></trkpt><trkpt lat="44.61871731386449" lon="8.834340062849883"><ele>341.0</ele><time>2026-04-09T08:44:38Z</time></trkpt><trkpt lat="44.6187610995555" lon="8.834189054361817"><ele>344.0</ele><time>2026-04-09T08:44:39Z</time></trkpt><trkpt lat="44.618807521289405" lon="8.83403873586059"><ele>347.0</ele><time>2026-04-09T08:44:40Z</time></trkpt><trkpt lat="44.61885336010296" lon="8.83388685664109"><ele>350.0</ele><time>2026-04-09T08:44:41Z</time></trkpt><trkpt lat="44.61889441786137" lon="8.83374691778383"><ele>353.0</ele><time>2026-04-09T08:44:42Z</time></trkpt><trkpt lat="44.61892990804275" lon="8.833625955083457"><ele>356.0</ele><time>2026-04-09T08:44:43Z</time></trkpt><trkpt lat="44.61894626066151" lon="8.833513002776488"><ele>356.6666666666667</ele><time>2026-04-09T08:44:44Z</time></trkpt><trkpt lat="44.61897849876542" lon="8.833418117563895"><ele>357.33333333333337</ele><time>2026-04-09T08:44:45Z</time></trkpt><trkpt lat="44.618995336538646" lon="8.833309681615123"><ele>358.0</ele><time>2026-04-09T08:44:46Z</time></trkpt><trkpt lat="44.61899379529863" lon="8.83319650889026"><ele>358.6666666666667</ele><time>2026-04-09T08:44:47Z</time></trkpt><trkpt lat="44.61896907488468" lon="8.833072400793156"><ele>359.3333333333333</ele><time>2026-04-09T08:44:48Z</time></trkpt><trkpt lat="44.61892264062973" lon="8.832951558921229"><ele>360.0</ele><time>2026-04-09T08:44:49Z</time></trkpt><trkpt lat="44.61887333504444" lon="8.832828001487197"><ele>360.0</ele><time>2026-04-09T08:44:50Z</time></trkpt><trkpt lat="44.61880740394084" lon="8.832710765609674"><ele>360.0</ele><time>2026-04-09T08:44:51Z</time></trkpt><trkpt lat="44.618726857262246" lon="8.832602752168699"><ele>360.0</ele><time>2026-04-09T08:44:52Z</time></trkpt><trkpt lat="44.61863227542682" lon="8.83251132039729"><ele>360.0</ele><time>2026-04-09T08:44:53Z</time></trkpt><trkpt lat="44.61853607475735" lon="8.832447645953312"><ele>360.0</ele><time>2026-04-09T08:44:54Z</time></trkpt><trkpt lat="44.618403412133496" lon="8.83241350116381"><ele>358.0</ele><time>2026-04-09T08:44:55Z</time></trkpt><trkpt lat="44.618291141142585" lon="8.83237514733756"><ele>356.0</ele><time>2026-04-09T08:44:56Z</time></trkpt><trkpt lat="44.6181790684973" lon="8.832339489203026"><ele>354.0</ele><time>2026-04-09T08:44:57Z</time></trkpt><trkpt lat="44.6180613525586" lon="8.832302958092432"><ele>352.0</ele><time>2026-04-09T08:44:58Z</time></trkpt><trkpt lat="44.617936030106904" lon="8.832273862873423"><ele>351.25</ele><time>2026-04-09T08:44:59Z</time></trkpt><trkpt lat="44.61780481170881" lon="8.83222480270046"><ele>350.5</ele><time>2026-04-09T08:45:00Z</time></trkpt><trkpt lat="44.617676157028306" lon="8.832167051431927"><ele>349.75</ele><time>2026-04-09T08:45:01Z</time></trkpt><trkpt lat="44.617552197785464" lon="8.832123031350068"><ele>349.0</ele><time>2026-04-09T08:45:02Z</time></trkpt><trkpt lat="44.61743858718714" lon="8.832081158860927"><ele>349.0</ele><time>2026-04-09T08:45:03Z</time></trkpt><trkpt lat="44.617323771719974" lon="8.83201324711809"><ele>349.0</ele><time>2026-04-09T08:45:04Z</time></trkpt><trkpt lat="44.61720224208979" lon="8.831938717183943"><ele>349.0</ele><time>2026-04-09T08:45:05Z</time></trkpt><trkpt lat="44.61709827646253" lon="8.831833970966647"><ele>349.0</ele><time>2026-04-09T08:45:06Z</time></trkpt><trkpt lat="44.6170042520114" lon="8.831746709926584"><ele>349.8333333333333</ele><time>2026-04-09T08:45:07Z</time></trkpt><trkpt lat="44.61692414871176" lon="8.831658862247425"><ele>350.66666666666663</ele><time>2026-04-09T08:45:08Z</time></trkpt><trkpt lat="44.61684998562399" lon="8.83157654843217"><ele>351.5</ele><time>2026-04-09T08:45:09Z</time></trkpt><trkpt lat="44.616782599921244" lon="8.83149660474978"><ele>352.3333333333333</ele><time>2026-04-09T08:45:10Z</time></trkpt><trkpt lat="44.61673351861057" lon="8.831416215748742"><ele>353.1666666666667</ele><time>2026-04-09T08:45:11Z</time></trkpt><trkpt lat="44.61670459312437" lon="8.831332088445945"><ele>354.0</ele><time>2026-04-09T08:45:12Z</time></trkpt><trkpt lat="44.61672339634581" lon="8.831234737833983"><ele>354.0</ele><time>2026-04-09T08:45:13Z</time></trkpt><trkpt lat="44.61674881090104" lon="8.831122579308985"><ele>354.0</ele><time>2026-04-09T08:45:14Z</time></trkpt><trkpt lat="44.61679296868691" lon="8.83099938339347"><ele>354.0</ele><time>2026-04-09T08:45:15Z</time></trkpt><trkpt lat="44.61684737277612" lon="8.830859088600505"><ele>354.0</ele><time>2026-04-09T08:45:16Z</time></trkpt><trkpt lat="44.61691005285276" lon="8.830701455593859"><ele>354.0</ele><time>2026-04-09T08:45:17Z</time></trkpt><trkpt lat="44.61697388900777" lon="8.830529970591604"><ele>360.75</ele><time>2026-04-09T08:45:18Z</time></trkpt><trkpt lat="44.6170311387001" lon="8.83036323710693"><ele>367.5</ele><time>2026-04-09T08:45:19Z</time></trkpt><trkpt lat="44.61707750229893" lon="8.830197330866202"><ele>374.25</ele><time>2026-04-09T08:45:20Z</time></trkpt><trkpt lat="44.61711340306409" lon="8.830047457869284"><ele>381.0</ele><time>2026-04-09T08:45:21Z</time></trkpt><trkpt lat="44.617138315367804" lon="8.829915362806569"><ele>381.5</ele><time>2026-04-09T08:45:22Z</time></trkpt><trkpt lat="44.61715521644136" lon="8.82980091811699"><ele>382.0</ele><time>2026-04-09T08:45:23Z</time></trkpt><trkpt lat="44.61716661187569" lon="8.829707238882424"><ele>382.5</ele><time>2026-04-09T08:45:24Z</time></trkpt><trkpt lat="44.61717700944378" lon="8.829600452598342"><ele>383.0</ele><time>2026-04-09T08:45:25Z</time></trkpt><trkpt lat="44.61718037318608" lon="8.82950391613293"><ele>383.5</ele><time>2026-04-09T08:45:26Z</time></trkpt><trkpt lat="44.61716189759327" lon="8.829346796011977"><ele>384.0</ele><time>2026-04-09T08:45:28Z</time></trkpt><trkpt lat="44.61703000128956" lon="8.829318970127519"><ele>381.0</ele><time>2026-04-09T08:45:30Z</time></trkpt><trkpt lat="44.61696377610678" lon="8.829348236604629"><ele>378.0</ele><time>2026-04-09T08:45:31Z</time></trkpt><trkpt lat="44.61689592491807" lon="8.829326793357476"><ele>375.0</ele><time>2026-04-09T08:45:32Z</time></trkpt><trkpt lat="44.616830871233816" lon="8.829234362441417"><ele>372.0</ele><time>2026-04-09T08:45:34Z</time></trkpt><trkpt lat="44.61685504760326" lon="8.829124905509026"><ele>369.0</ele><time>2026-04-09T08:45:35Z</time></trkpt><trkpt lat="44.616827066927655" lon="8.829017685677652"><ele>366.0</ele><time>2026-04-09T08:45:36Z</time></trkpt><trkpt lat="44.616799986650435" lon="8.82889270101699"><ele>366.0</ele><time>2026-04-09T08:45:37Z</time></trkpt><trkpt lat="44.61674867415348" lon="8.828766100645316"><ele>366.0</ele><time>2026-04-09T08:45:38Z</time></trkpt><trkpt lat="44.6166767876429" lon="8.828640980388604"><ele>366.0</ele><time>2026-04-09T08:45:39Z</time></trkpt><trkpt lat="44.616581073961164" lon="8.828515659665646"><ele>366.0</ele><time>2026-04-09T08:45:40Z</time></trkpt><trkpt lat="44.61647594497501" lon="8.828391502636027"><ele>365.75</ele><time>2026-04-09T08:45:41Z</time></trkpt><trkpt lat="44.61637800818049" lon="8.828245238534912"><ele>365.5</ele><time>2026-04-09T08:45:42Z</time></trkpt><trkpt lat="44.61627146122046" lon="8.828128504962127"><ele>365.25</ele><time>2026-04-09T08:45:43Z</time></trkpt><trkpt lat="44.616163995335704" lon="8.82802018516688"><ele>365.0</ele><time>2026-04-09T08:45:44Z</time></trkpt><trkpt lat="44.61606709119781" lon="8.827913030235619"><ele>366.0</ele><time>2026-04-09T08:45:45Z</time></trkpt><trkpt lat="44.615986601395264" lon="8.827816818140857"><ele>367.0</ele><time>2026-04-09T08:45:46Z</time></trkpt><trkpt lat="44.6159133356059" lon="8.827726021763848"><ele>368.0</ele><time>2026-04-09T08:45:47Z</time></trkpt><trkpt lat="44.61583894306205" lon="8.827666911924085"><ele>369.0</ele><time>2026-04-09T08:45:48Z</time></trkpt><trkpt lat="44.615760457548" lon="8.827605148500075"><ele>370.0</ele><time>2026-04-09T08:45:49Z</time></trkpt><trkpt lat="44.61565389909764" lon="8.827569670497867"><ele>370.0</ele><time>2026-04-09T08:45:50Z</time></trkpt><trkpt lat="44.6155496425257" lon="8.827507390963321"><ele>370.0</ele><time>2026-04-09T08:45:51Z</time></trkpt><trkpt lat="44.615449699991025" lon="8.827473115579616"><ele>370.0</ele><time>2026-04-09T08:45:52Z</time></trkpt><trkpt lat="44.61536331343343" lon="8.827433147655523"><ele>370.0</ele><time>2026-04-09T08:45:53Z</time></trkpt><trkpt lat="44.615286445285506" lon="8.827381048044487"><ele>370.0</ele><time>2026-04-09T08:45:54Z</time></trkpt><trkpt lat="44.61522050538459" lon="8.82726954086581"><ele>372.16666666666663</ele><time>2026-04-09T08:45:55Z</time></trkpt><trkpt lat="44.61515474645876" lon="8.827171354715531"><ele>374.3333333333333</ele><time>2026-04-09T08:45:56Z</time></trkpt><trkpt lat="44.61508242370345" lon="8.827089272328184"><ele>376.5</ele><time>2026-04-09T08:45:57Z</time></trkpt><trkpt lat="44.61502066971694" lon="8.827028173303118"><ele>378.6666666666667</ele><time>2026-04-09T08:45:58Z</time></trkpt><trkpt lat="44.61495217980203" lon="8.826998177834884"><ele>380.83333333333337</ele><time>2026-04-09T08:45:59Z</time></trkpt><trkpt lat="44.614889001818064" lon="8.826981213823021"><ele>383.0</ele><time>2026-04-09T08:46:00Z</time></trkpt><trkpt lat="44.61481244601036" lon="8.82704229188414"><ele>383.0</ele><time>2026-04-09T08:46:01Z</time></trkpt><trkpt lat="44.61472191531356" lon="8.827054234295769"><ele>383.0</ele><time>2026-04-09T08:46:02Z</time></trkpt><trkpt lat="44.61462289946" lon="8.827073294820245"><ele>383.0</ele><time>2026-04-09T08:46:03Z</time></trkpt><trkpt lat="44.61451683135282" lon="8.827090778402559"><ele>383.0</ele><time>2026-04-09T08:46:04Z</time></trkpt><trkpt lat="44.61442011570738" lon="8.82708522681994"><ele>383.0</ele><time>2026-04-09T08:46:05Z</time></trkpt><trkpt lat="44.61433323904058" lon="8.827060721161981"><ele>383.2</ele><time>2026-04-09T08:46:06Z</time></trkpt><trkpt lat="44.614291693601814" lon="8.826920874813181"><ele>383.4</ele><time>2026-04-09T08:46:07Z</time></trkpt><trkpt lat="44.6142272420405" lon="8.82681737987662"><ele>383.59999999999997</ele><time>2026-04-09T08:46:08Z</time></trkpt><trkpt lat="44.614149850239826" lon="8.82674927858085"><ele>383.79999999999995</ele><time>2026-04-09T08:46:09Z</time></trkpt><trkpt lat="44.614097791001136" lon="8.826642118023353"><ele>384.0</ele><time>2026-04-09T08:46:10Z</time></trkpt><trkpt lat="44.61404007084249" lon="8.826544453222155"><ele>384.0</ele><time>2026-04-09T08:46:11Z</time></trkpt><trkpt lat="44.61403878843603" lon="8.826396964454949"><ele>384.0</ele><time>2026-04-09T08:46:12Z</time></trkpt><trkpt lat="44.61402971642874" lon="8.826258185333897"><ele>384.0</ele><time>2026-04-09T08:46:13Z</time></trkpt><trkpt lat="44.61402729477744" lon="8.826127407309611"><ele>384.0</ele><time>2026-04-09T08:46:14Z</time></trkpt><trkpt lat="44.61405944702601" lon="8.826000864699793"><ele>384.0</ele><time>2026-04-09T08:46:15Z</time></trkpt><trkpt lat="44.614059907050795" lon="8.825889141682909"><ele>384.6</ele><time>2026-04-09T08:46:16Z</time></trkpt><trkpt lat="44.61406962070432" lon="8.825761477967164"><ele>385.2</ele><time>2026-04-09T08:46:17Z</time></trkpt><trkpt lat="44.61410514429064" lon="8.825655037417395"><ele>385.8</ele><time>2026-04-09T08:46:18Z</time></trkpt><trkpt lat="44.61416134800755" lon="8.825531138315416"><ele>386.40000000000003</ele><time>2026-04-09T08:46:19Z</time></trkpt><trkpt lat="44.61422031481212" lon="8.825396645337538"><ele>387.0</ele><time>2026-04-09T08:46:20Z</time></trkpt><trkpt lat="44.614278409340066" lon="8.825258508786556"><ele>388.0</ele><time>2026-04-09T08:46:21Z</time></trkpt><trkpt lat="44.61433097031924" lon="8.825116344750295"><ele>389.0</ele><time>2026-04-09T08:46:22Z</time></trkpt><trkpt lat="44.614373010637074" lon="8.82497585361943"><ele>390.0</ele><time>2026-04-09T08:46:23Z</time></trkpt><trkpt lat="44.61438224941022" lon="8.82482499407237"><ele>391.0</ele><time>2026-04-09T08:46:24Z</time></trkpt><trkpt lat="44.614390900897924" lon="8.82470250176564"><ele>392.0</ele><time>2026-04-09T08:46:25Z</time></trkpt><trkpt lat="44.61439201349325" lon="8.824600995209522"><ele>392.0</ele><time>2026-04-09T08:46:26Z</time></trkpt><trkpt lat="44.61432358884012" lon="8.824502944317883"><ele>392.0</ele><time>2026-04-09T08:46:27Z</time></trkpt><trkpt lat="44.614250207547315" lon="8.82441019191199"><ele>392.0</ele><time>2026-04-09T08:46:28Z</time></trkpt><trkpt lat="44.61416936090653" lon="8.824322042455734"><ele>392.0</ele><time>2026-04-09T08:46:29Z</time></trkpt><trkpt lat="44.61408016833104" lon="8.824243938920768"><ele>392.0</ele><time>2026-04-09T08:46:30Z</time></trkpt><trkpt lat="44.61397703525768" lon="8.824185198263976"><ele>391.25</ele><time>2026-04-09T08:46:31Z</time></trkpt><trkpt lat="44.613866399076535" lon="8.824145669597721"><ele>390.5</ele><time>2026-04-09T08:46:32Z</time></trkpt><trkpt lat="44.61375027519455" lon="8.824072537397953"><ele>389.75</ele><time>2026-04-09T08:46:33Z</time></trkpt><trkpt lat="44.61364172413468" lon="8.824003380607108"><ele>389.0</ele><time>2026-04-09T08:46:34Z</time></trkpt><trkpt lat="44.613538890240875" lon="8.823951181612435"><ele>392.2</ele><time>2026-04-09T08:46:35Z</time></trkpt><trkpt lat="44.6134401253386" lon="8.823931079161147"><ele>395.4</ele><time>2026-04-09T08:46:36Z</time></trkpt><trkpt lat="44.61334001629355" lon="8.82395628977501"><ele>398.6</ele><time>2026-04-09T08:46:37Z</time></trkpt><trkpt lat="44.613238267279804" lon="8.823996423467003"><ele>401.8</ele><time>2026-04-09T08:46:38Z</time></trkpt><trkpt lat="44.61313649258392" lon="8.824024699090288"><ele>405.0</ele><time>2026-04-09T08:46:39Z</time></trkpt><trkpt lat="44.61304300798092" lon="8.824052548123447"><ele>405.0</ele><time>2026-04-09T08:46:40Z</time></trkpt><trkpt lat="44.612943445155345" lon="8.824008274016082"><ele>405.0</ele><time>2026-04-09T08:46:41Z</time></trkpt><trkpt lat="44.612882146334634" lon="8.82389197780026"><ele>405.0</ele><time>2026-04-09T08:46:42Z</time></trkpt><trkpt lat="44.61284828924871" lon="8.823774268451585"><ele>405.0</ele><time>2026-04-09T08:46:43Z</time></trkpt><trkpt lat="44.612837409959816" lon="8.823649144518855"><ele>405.0</ele><time>2026-04-09T08:46:44Z</time></trkpt><trkpt lat="44.612810959281305" lon="8.823482709980624"><ele>405.0</ele><time>2026-04-09T08:46:45Z</time></trkpt><trkpt lat="44.61276656979368" lon="8.823324332992527"><ele>405.0</ele><time>2026-04-09T08:46:46Z</time></trkpt><trkpt lat="44.61272428862958" lon="8.823147975115216"><ele>405.0</ele><time>2026-04-09T08:46:47Z</time></trkpt><trkpt lat="44.61267245966668" lon="8.822974716128497"><ele>405.0</ele><time>2026-04-09T08:46:48Z</time></trkpt><trkpt lat="44.61262329675189" lon="8.822788085348348"><ele>402.5</ele><time>2026-04-09T08:46:49Z</time></trkpt><trkpt lat="44.61258034563117" lon="8.822594080426265"><ele>400.0</ele><time>2026-04-09T08:46:50Z</time></trkpt><trkpt lat="44.6125355368434" lon="8.82241305424026"><ele>397.5</ele><time>2026-04-09T08:46:50.999Z</time></trkpt><trkpt lat="44.61249757398785" lon="8.822267629703228"><ele>395.0</ele><time>2026-04-09T08:46:51.999Z</time></trkpt><trkpt lat="44.612469039992135" lon="8.822135232932741"><ele>395.0</ele><time>2026-04-09T08:46:52.999Z</time></trkpt><trkpt lat="44.612437725742645" lon="8.822014463395549"><ele>395.0</ele><time>2026-04-09T08:46:53.999Z</time></trkpt><trkpt lat="44.612306794187916" lon="8.821940069261737"><ele>395.0</ele><time>2026-04-09T08:46:54.999Z</time></trkpt><trkpt lat="44.61223264331651" lon="8.821840360504739"><ele>395.0</ele><time>2026-04-09T08:46:55.999Z</time></trkpt><trkpt lat="44.612183053817375" lon="8.821742690723955"><ele>395.0</ele><time>2026-04-09T08:46:56.999Z</time></trkpt><trkpt lat="44.612171105175186" lon="8.821649017468594"><ele>395.85714285714283</ele><time>2026-04-09T08:46:57.999Z</time></trkpt><trkpt lat="44.61218444784625" lon="8.821557342012655"><ele>396.7142857142857</ele><time>2026-04-09T08:46:58.999Z</time></trkpt><trkpt lat="44.612220769245454" lon="8.821482955111609"><ele>397.57142857142856</ele><time>2026-04-09T08:46:59.999Z</time></trkpt><trkpt lat="44.61226914482434" lon="8.821402957433731"><ele>398.42857142857144</ele><time>2026-04-09T08:47:01Z</time></trkpt><trkpt lat="44.61231064473238" lon="8.821315190290502"><ele>399.28571428571433</ele><time>2026-04-09T08:47:02Z</time></trkpt><trkpt lat="44.61231332264503" lon="8.821213498873632"><ele>400.14285714285717</ele><time>2026-04-09T08:47:03Z</time></trkpt><trkpt lat="44.61226316645383" lon="8.82110586091214"><ele>401.0</ele><time>2026-04-09T08:47:04Z</time></trkpt><trkpt lat="44.61216871833804" lon="8.821016228507494"><ele>400.25</ele><time>2026-04-09T08:47:05Z</time></trkpt><trkpt lat="44.61208516992976" lon="8.820914388166429"><ele>399.5</ele><time>2026-04-09T08:47:06Z</time></trkpt><trkpt lat="44.61200871740029" lon="8.820781084525514"><ele>398.75</ele><time>2026-04-09T08:47:07Z</time></trkpt><trkpt lat="44.611929692346195" lon="8.820641616460323"><ele>398.0</ele><time>2026-04-09T08:47:08Z</time></trkpt><trkpt lat="44.61185254852674" lon="8.82050696473904"><ele>398.0</ele><time>2026-04-09T08:47:09Z</time></trkpt><trkpt lat="44.61178188764346" lon="8.820379480112086"><ele>398.0</ele><time>2026-04-09T08:47:10Z</time></trkpt><trkpt lat="44.61169828790316" lon="8.820266277080451"><ele>398.0</ele><time>2026-04-09T08:47:11Z</time></trkpt><trkpt lat="44.611611317939605" lon="8.82016255201411"><ele>398.0</ele><time>2026-04-09T08:47:12Z</time></trkpt><trkpt lat="44.611522045661644" lon="8.820063158222542"><ele>399.0</ele><time>2026-04-09T08:47:13Z</time></trkpt><trkpt lat="44.611434059385665" lon="8.819967654191165"><ele>400.0</ele><time>2026-04-09T08:47:14Z</time></trkpt><trkpt lat="44.611355507367605" lon="8.819859064453263"><ele>401.0</ele><time>2026-04-09T08:47:15Z</time></trkpt><trkpt lat="44.61129240289348" lon="8.819735447518156"><ele>402.0</ele><time>2026-04-09T08:47:16Z</time></trkpt><trkpt lat="44.61124410134901" lon="8.8196041801648"><ele>403.0</ele><time>2026-04-09T08:47:17Z</time></trkpt><trkpt lat="44.61121297152489" lon="8.819467829070884"><ele>403.0</ele><time>2026-04-09T08:47:18Z</time></trkpt><trkpt lat="44.611195357562124" lon="8.819311929072708"><ele>403.0</ele><time>2026-04-09T08:47:19Z</time></trkpt><trkpt lat="44.611182898052846" lon="8.819157680136767"><ele>403.0</ele><time>2026-04-09T08:47:20Z</time></trkpt><trkpt lat="44.61116506592103" lon="8.819000240299465"><ele>403.0</ele><time>2026-04-09T08:47:21Z</time></trkpt><trkpt lat="44.61113788528117" lon="8.818848052040599"><ele>403.0</ele><time>2026-04-09T08:47:22Z</time></trkpt><trkpt lat="44.61109698986767" lon="8.818704747715906"><ele>403.0</ele><time>2026-04-09T08:47:23Z</time></trkpt><trkpt lat="44.611049297039166" lon="8.818563953108264"><ele>403.0</ele><time>2026-04-09T08:47:24Z</time></trkpt><trkpt lat="44.610993508684466" lon="8.818419511016721"><ele>403.0</ele><time>2026-04-09T08:47:25Z</time></trkpt><trkpt lat="44.61093012706385" lon="8.81827407397733"><ele>403.0</ele><time>2026-04-09T08:47:26Z</time></trkpt><trkpt lat="44.6108592603487" lon="8.818127515990572"><ele>403.0</ele><time>2026-04-09T08:47:27Z</time></trkpt><trkpt lat="44.61077921590646" lon="8.817982190639695"><ele>403.0</ele><time>2026-04-09T08:47:28Z</time></trkpt><trkpt lat="44.61069430344534" lon="8.81783706262831"><ele>403.0</ele><time>2026-04-09T08:47:29Z</time></trkpt><trkpt lat="44.61061273885574" lon="8.817693412483365"><ele>403.0</ele><time>2026-04-09T08:47:30Z</time></trkpt><trkpt lat="44.61053881303866" lon="8.817558487168059"><ele>404.0</ele><time>2026-04-09T08:47:31Z</time></trkpt><trkpt lat="44.610468383644765" lon="8.817426874732629"><ele>405.0</ele><time>2026-04-09T08:47:32Z</time></trkpt><trkpt lat="44.61040573659591" lon="8.81730071307274"><ele>406.0</ele><time>2026-04-09T08:47:33Z</time></trkpt><trkpt lat="44.61034492856354" lon="8.817183041928702"><ele>407.0</ele><time>2026-04-09T08:47:34Z</time></trkpt><trkpt lat="44.610277439221406" lon="8.817069974705744"><ele>408.0</ele><time>2026-04-09T08:47:35Z</time></trkpt><trkpt lat="44.610207356388685" lon="8.816960675628296"><ele>408.59999999999997</ele><time>2026-04-09T08:47:36Z</time></trkpt><trkpt lat="44.610126696499904" lon="8.816867895714106"><ele>409.2</ele><time>2026-04-09T08:47:37Z</time></trkpt><trkpt lat="44.610035683680465" lon="8.816787810546375"><ele>409.8</ele><time>2026-04-09T08:47:38Z</time></trkpt><trkpt lat="44.609942171418986" lon="8.81671178736809"><ele>410.4</ele><time>2026-04-09T08:47:39Z</time></trkpt><trkpt lat="44.60985098749212" lon="8.816635889596004"><ele>411.0</ele><time>2026-04-09T08:47:40Z</time></trkpt><trkpt lat="44.60975530395343" lon="8.816577513918903"><ele>411.4</ele><time>2026-04-09T08:47:41Z</time></trkpt><trkpt lat="44.609655321893776" lon="8.816537843451693"><ele>411.8</ele><time>2026-04-09T08:47:42Z</time></trkpt><trkpt lat="44.609549235931006" lon="8.816508708054162"><ele>412.2</ele><time>2026-04-09T08:47:43Z</time></trkpt><trkpt lat="44.609442284138225" lon="8.816492581060581"><ele>412.59999999999997</ele><time>2026-04-09T08:47:44Z</time></trkpt><trkpt lat="44.60933255200831" lon="8.816502270445369"><ele>413.0</ele><time>2026-04-09T08:47:45Z</time></trkpt><trkpt lat="44.60921945349052" lon="8.816543743923901"><ele>414.5</ele><time>2026-04-09T08:47:46Z</time></trkpt><trkpt lat="44.60910255888421" lon="8.816590926553438"><ele>416.0</ele><time>2026-04-09T08:47:47Z</time></trkpt><trkpt lat="44.608980327444776" lon="8.816641649045255"><ele>417.5</ele><time>2026-04-09T08:47:48Z</time></trkpt><trkpt lat="44.60885280245996" lon="8.816683552295599"><ele>419.0</ele><time>2026-04-09T08:47:49Z</time></trkpt><trkpt lat="44.60872445459219" lon="8.816711340002652"><ele>420.25</ele><time>2026-04-09T08:47:50Z</time></trkpt><trkpt lat="44.60859771730754" lon="8.81672696851662"><ele>421.5</ele><time>2026-04-09T08:47:51Z</time></trkpt><trkpt lat="44.60837367229371" lon="8.816737029704393"><ele>422.75</ele><time>2026-04-09T08:47:53Z</time></trkpt><trkpt lat="44.60828540318759" lon="8.8167074163932"><ele>424.0</ele><time>2026-04-09T08:47:54Z</time></trkpt><trkpt lat="44.608204106952314" lon="8.816635888847934"><ele>424.0</ele><time>2026-04-09T08:47:55Z</time></trkpt><trkpt lat="44.60812918067683" lon="8.816537899633436"><ele>424.0</ele><time>2026-04-09T08:47:56Z</time></trkpt><trkpt lat="44.60805309929191" lon="8.816437681440446"><ele>424.0</ele><time>2026-04-09T08:47:57Z</time></trkpt><trkpt lat="44.60796636538154" lon="8.816345483488215"><ele>424.0</ele><time>2026-04-09T08:47:58Z</time></trkpt><trkpt lat="44.60788060580565" lon="8.816284384881182"><ele>424.0</ele><time>2026-04-09T08:47:59Z</time></trkpt><trkpt lat="44.607780789040156" lon="8.816249922317482"><ele>424.25</ele><time>2026-04-09T08:48:00Z</time></trkpt><trkpt lat="44.607674314237634" lon="8.816240223813065"><ele>424.5</ele><time>2026-04-09T08:48:01Z</time></trkpt><trkpt lat="44.60756274862225" lon="8.816256822671164"><ele>424.75</ele><time>2026-04-09T08:48:02Z</time></trkpt><trkpt lat="44.60744905885305" lon="8.816290135149087"><ele>425.0</ele><time>2026-04-09T08:48:03Z</time></trkpt><trkpt lat="44.607334358810334" lon="8.81631804442081"><ele>425.0</ele><time>2026-04-09T08:48:04Z</time></trkpt><trkpt lat="44.607214369559856" lon="8.81633749663591"><ele>425.0</ele><time>2026-04-09T08:48:05Z</time></trkpt><trkpt lat="44.60708665409011" lon="8.816351480060154"><ele>425.0</ele><time>2026-04-09T08:48:06Z</time></trkpt><trkpt lat="44.606956714777375" lon="8.816368093454296"><ele>425.0</ele><time>2026-04-09T08:48:07Z</time></trkpt><trkpt lat="44.6068407427617" lon="8.81637653745956"><ele>425.4</ele><time>2026-04-09T08:48:08Z</time></trkpt><trkpt lat="44.6067383649655" lon="8.816382110915129"><ele>425.8</ele><time>2026-04-09T08:48:09Z</time></trkpt><trkpt lat="44.60665010866824" lon="8.816374696022288"><ele>426.20000000000005</ele><time>2026-04-09T08:48:10Z</time></trkpt><trkpt lat="44.60657294214875" lon="8.81635418458643"><ele>426.6</ele><time>2026-04-09T08:48:11Z</time></trkpt><trkpt lat="44.606496549249776" lon="8.816305605716888"><ele>427.0</ele><time>2026-04-09T08:48:12Z</time></trkpt><trkpt lat="44.606415227343625" lon="8.81623182709056"><ele>427.0</ele><time>2026-04-09T08:48:13Z</time></trkpt><trkpt lat="44.60632834275531" lon="8.816142716566196"><ele>427.0</ele><time>2026-04-09T08:48:14Z</time></trkpt><trkpt lat="44.60623542014509" lon="8.816044350816608"><ele>427.0</ele><time>2026-04-09T08:48:15Z</time></trkpt><trkpt lat="44.60615529639408" lon="8.815931965893494"><ele>427.0</ele><time>2026-04-09T08:48:16Z</time></trkpt><trkpt lat="44.60606686522179" lon="8.815819516972"><ele>429.0</ele><time>2026-04-09T08:48:17Z</time></trkpt><trkpt lat="44.60597894092463" lon="8.815695536516913"><ele>431.0</ele><time>2026-04-09T08:48:18Z</time></trkpt><trkpt lat="44.60589554970209" lon="8.81557259663183"><ele>433.0</ele><time>2026-04-09T08:48:19Z</time></trkpt><trkpt lat="44.605829670205964" lon="8.815445492941457"><ele>435.0</ele><time>2026-04-09T08:48:20Z</time></trkpt><trkpt lat="44.60577391590719" lon="8.815323118855199"><ele>435.0</ele><time>2026-04-09T08:48:21Z</time></trkpt><trkpt lat="44.60572587988683" lon="8.815202879815851"><ele>435.0</ele><time>2026-04-09T08:48:22Z</time></trkpt><trkpt lat="44.60569324629107" lon="8.815088851983345"><ele>435.0</ele><time>2026-04-09T08:48:23Z</time></trkpt><trkpt lat="44.60568041172543" lon="8.814982834747905"><ele>435.0</ele><time>2026-04-09T08:48:24Z</time></trkpt><trkpt lat="44.6056874945319" lon="8.81486735994192"><ele>435.0</ele><time>2026-04-09T08:48:25Z</time></trkpt><trkpt lat="44.60572402962301" lon="8.814752186882703"><ele>435.0</ele><time>2026-04-09T08:48:26Z</time></trkpt><trkpt lat="44.6057650116195" lon="8.814630493900662"><ele>437.8</ele><time>2026-04-09T08:48:27Z</time></trkpt><trkpt lat="44.605794009604715" lon="8.814495185741922"><ele>440.6</ele><time>2026-04-09T08:48:28Z</time></trkpt><trkpt lat="44.60580735146867" lon="8.814352895968037"><ele>443.4</ele><time>2026-04-09T08:48:29Z</time></trkpt><trkpt lat="44.60580618322586" lon="8.814206481404819"><ele>446.2</ele><time>2026-04-09T08:48:30Z</time></trkpt><trkpt lat="44.60578366868541" lon="8.814060216235774"><ele>449.0</ele><time>2026-04-09T08:48:31Z</time></trkpt><trkpt lat="44.60574024765279" lon="8.8139144212697"><ele>450.5</ele><time>2026-04-09T08:48:32Z</time></trkpt><trkpt lat="44.60566500505889" lon="8.813781491140073"><ele>452.0</ele><time>2026-04-09T08:48:33Z</time></trkpt><trkpt lat="44.60557306815314" lon="8.813658939137685"><ele>453.5</ele><time>2026-04-09T08:48:34Z</time></trkpt><trkpt lat="44.60546921354338" lon="8.813552786057217"><ele>455.0</ele><time>2026-04-09T08:48:35Z</time></trkpt><trkpt lat="44.60535337367405" lon="8.813478195362269"><ele>456.0</ele><time>2026-04-09T08:48:36Z</time></trkpt><trkpt lat="44.605232700459" lon="8.813435538297561"><ele>457.0</ele><time>2026-04-09T08:48:37Z</time></trkpt><trkpt lat="44.60511195025334" lon="8.813430247572404"><ele>458.0</ele><time>2026-04-09T08:48:38Z</time></trkpt><trkpt lat="44.604988348358965" lon="8.81343343651844"><ele>459.0</ele><time>2026-04-09T08:48:39Z</time></trkpt><trkpt lat="44.60486550987588" lon="8.813428644571761"><ele>459.0</ele><time>2026-04-09T08:48:40Z</time></trkpt><trkpt lat="44.60474586123738" lon="8.8133910323193"><ele>459.0</ele><time>2026-04-09T08:48:41Z</time></trkpt><trkpt lat="44.60463776902059" lon="8.813315019196141"><ele>459.0</ele><time>2026-04-09T08:48:42Z</time></trkpt><trkpt lat="44.60453101565799" lon="8.813229014455324"><ele>459.0</ele><time>2026-04-09T08:48:43Z</time></trkpt><trkpt lat="44.60441856379149" lon="8.813144790400136"><ele>463.0</ele><time>2026-04-09T08:48:44Z</time></trkpt><trkpt lat="44.604299473374034" lon="8.813051490757488"><ele>467.0</ele><time>2026-04-09T08:48:45Z</time></trkpt><trkpt lat="44.60417719003286" lon="8.812968405699646"><ele>471.0</ele><time>2026-04-09T08:48:46Z</time></trkpt><trkpt lat="44.60406713902246" lon="8.812895203598782"><ele>475.0</ele><time>2026-04-09T08:48:47Z</time></trkpt><trkpt lat="44.60396108765872" lon="8.8128332265486"><ele>475.0</ele><time>2026-04-09T08:48:48Z</time></trkpt><trkpt lat="44.603857277509846" lon="8.81277791530932"><ele>475.0</ele><time>2026-04-09T08:48:49Z</time></trkpt><trkpt lat="44.603761316187466" lon="8.812726873567188"><ele>475.0</ele><time>2026-04-09T08:48:50Z</time></trkpt><trkpt lat="44.60366996298271" lon="8.812684031737971"><ele>475.0</ele><time>2026-04-09T08:48:51Z</time></trkpt><trkpt lat="44.603574780398816" lon="8.812660683671956"><ele>475.0</ele><time>2026-04-09T08:48:52Z</time></trkpt><trkpt lat="44.603476107219976" lon="8.812673102525077"><ele>477.6</ele><time>2026-04-09T08:48:53Z</time></trkpt><trkpt lat="44.60337167274623" lon="8.812709859768077"><ele>480.2</ele><time>2026-04-09T08:48:54Z</time></trkpt><trkpt lat="44.603270643270925" lon="8.8127434049005"><ele>482.79999999999995</ele><time>2026-04-09T08:48:55Z</time></trkpt><trkpt lat="44.60317457422854" lon="8.812744453271316"><ele>485.4</ele><time>2026-04-09T08:48:56Z</time></trkpt><trkpt lat="44.60308149859236" lon="8.812749513722169"><ele>488.0</ele><time>2026-04-09T08:48:57Z</time></trkpt><trkpt lat="44.60298705950803" lon="8.812788267807123"><ele>488.0</ele><time>2026-04-09T08:48:58Z</time></trkpt><trkpt lat="44.60289557070944" lon="8.812859794510398"><ele>487.99999999999994</ele><time>2026-04-09T08:48:59Z</time></trkpt><trkpt lat="44.60281094603388" lon="8.812959768362045"><ele>487.99999999999994</ele><time>2026-04-09T08:49:00Z</time></trkpt><trkpt lat="44.60272948285354" lon="8.81305895613219"><ele>488.0</ele><time>2026-04-09T08:49:01Z</time></trkpt><trkpt lat="44.602634884094" lon="8.813156007412422"><ele>488.0</ele><time>2026-04-09T08:49:02Z</time></trkpt><trkpt lat="44.60254312622212" lon="8.813253770421586"><ele>489.0</ele><time>2026-04-09T08:49:03Z</time></trkpt><trkpt lat="44.60246221597063" lon="8.813357944982494"><ele>489.99999999999994</ele><time>2026-04-09T08:49:04Z</time></trkpt><trkpt lat="44.602389003078464" lon="8.813452212204968"><ele>490.99999999999994</ele><time>2026-04-09T08:49:05Z</time></trkpt><trkpt lat="44.60231465166399" lon="8.813520465362727"><ele>492.0</ele><time>2026-04-09T08:49:06Z</time></trkpt><trkpt lat="44.60223225675022" lon="8.813557958652611"><ele>493.0</ele><time>2026-04-09T08:49:07Z</time></trkpt><trkpt lat="44.60214347765401" lon="8.813549145209732"><ele>493.00000000000006</ele><time>2026-04-09T08:49:08Z</time></trkpt><trkpt lat="44.60206642513397" lon="8.81348835718554"><ele>493.0</ele><time>2026-04-09T08:49:09Z</time></trkpt><trkpt lat="44.60199322050571" lon="8.813411261375954"><ele>493.0</ele><time>2026-04-09T08:49:10Z</time></trkpt><trkpt lat="44.60190705334068" lon="8.813373148802947"><ele>493.0</ele><time>2026-04-09T08:49:11Z</time></trkpt><trkpt lat="44.601840256644316" lon="8.81334331045107"><ele>493.00000000000006</ele><time>2026-04-09T08:49:12Z</time></trkpt><trkpt lat="44.60179350955597" lon="8.813282406140846"><ele>493.0</ele><time>2026-04-09T08:49:13Z</time></trkpt><trkpt lat="44.60178065663297" lon="8.813191019888928"><ele>493.0</ele><time>2026-04-09T08:49:14Z</time></trkpt><trkpt lat="44.601801899042194" lon="8.813073722838729"><ele>492.99999999999994</ele><time>2026-04-09T08:49:15Z</time></trkpt><trkpt lat="44.60186040883994" lon="8.812982615083454"><ele>492.99999999999994</ele><time>2026-04-09T08:49:16Z</time></trkpt><trkpt lat="44.6019304091348" lon="8.812895301614414"><ele>493.0</ele><time>2026-04-09T08:49:17Z</time></trkpt><trkpt lat="44.60200138489994" lon="8.812800232630424"><ele>493.0</ele><time>2026-04-09T08:49:18Z</time></trkpt><trkpt lat="44.602063526265376" lon="8.812688550566566"><ele>492.83333333333337</ele><time>2026-04-09T08:49:19Z</time></trkpt><trkpt lat="44.602113560030816" lon="8.812590070502914"><ele>492.6666666666667</ele><time>2026-04-09T08:49:20Z</time></trkpt><trkpt lat="44.60216467992889" lon="8.812499521528382"><ele>492.5</ele><time>2026-04-09T08:49:21Z</time></trkpt><trkpt lat="44.60219332162068" lon="8.812389380165014"><ele>492.33333333333337</ele><time>2026-04-09T08:49:22Z</time></trkpt><trkpt lat="44.60218767816742" lon="8.812258431241364"><ele>492.1666666666667</ele><time>2026-04-09T08:49:23Z</time></trkpt><trkpt lat="44.60215849457811" lon="8.812132180865245"><ele>492.0</ele><time>2026-04-09T08:49:24Z</time></trkpt><trkpt lat="44.602137697197385" lon="8.811999571094585"><ele>492.0</ele><time>2026-04-09T08:49:25Z</time></trkpt><trkpt lat="44.602133646300835" lon="8.811861823714317"><ele>492.00000000000006</ele><time>2026-04-09T08:49:26Z</time></trkpt><trkpt lat="44.602131750779044" lon="8.811727166819056"><ele>492.00000000000006</ele><time>2026-04-09T08:49:27Z</time></trkpt><trkpt lat="44.602129303561256" lon="8.811592683947202"><ele>492.0</ele><time>2026-04-09T08:49:28Z</time></trkpt><trkpt lat="44.60211874665528" lon="8.811459001665192"><ele>492.0</ele><time>2026-04-09T08:49:29Z</time></trkpt><trkpt lat="44.602101150269185" lon="8.811334631624526"><ele>492.6</ele><time>2026-04-09T08:49:30Z</time></trkpt><trkpt lat="44.602032154474045" lon="8.811188513502962"><ele>493.20000000000005</ele><time>2026-04-09T08:49:31Z</time></trkpt><trkpt lat="44.602007811235424" lon="8.811058711168027"><ele>493.8</ele><time>2026-04-09T08:49:32Z</time></trkpt><trkpt lat="44.602006587388196" lon="8.810927339836239"><ele>494.4</ele><time>2026-04-09T08:49:33Z</time></trkpt><trkpt lat="44.60199924377396" lon="8.810802347064229"><ele>495.0</ele><time>2026-04-09T08:49:34Z</time></trkpt><trkpt lat="44.60196999478584" lon="8.810681196393437"><ele>502.0</ele><time>2026-04-09T08:49:35Z</time></trkpt><trkpt lat="44.60191135129298" lon="8.810559690222245"><ele>509.0</ele><time>2026-04-09T08:49:36Z</time></trkpt><trkpt lat="44.60183555630408" lon="8.810441501250036"><ele>516.0</ele><time>2026-04-09T08:49:37Z</time></trkpt><trkpt lat="44.60174955719439" lon="8.810320041300589"><ele>523.0</ele><time>2026-04-09T08:49:38Z</time></trkpt><trkpt lat="44.601667966393435" lon="8.810190426220574"><ele>521.4</ele><time>2026-04-09T08:49:39Z</time></trkpt><trkpt lat="44.60161170885331" lon="8.810056218586668"><ele>519.8</ele><time>2026-04-09T08:49:40Z</time></trkpt><trkpt lat="44.60155197877534" lon="8.809932485209956"><ele>518.2</ele><time>2026-04-09T08:49:41Z</time></trkpt><trkpt lat="44.60147623664778" lon="8.80982107180691"><ele>516.6</ele><time>2026-04-09T08:49:42Z</time></trkpt><trkpt lat="44.601378589924906" lon="8.80973096589939"><ele>515.0</ele><time>2026-04-09T08:49:43Z</time></trkpt><trkpt lat="44.601286422958836" lon="8.809653677187027"><ele>515.0</ele><time>2026-04-09T08:49:44Z</time></trkpt><trkpt lat="44.60116987690309" lon="8.80959307598351"><ele>515.0</ele><time>2026-04-09T08:49:45Z</time></trkpt><trkpt lat="44.60106200276003" lon="8.809562663909375"><ele>515.0</ele><time>2026-04-09T08:49:46Z</time></trkpt><trkpt lat="44.60094810250297" lon="8.809548087030652"><ele>515.0</ele><time>2026-04-09T08:49:47Z</time></trkpt><trkpt lat="44.600833819855" lon="8.809543102419857"><ele>517.0</ele><time>2026-04-09T08:49:48Z</time></trkpt><trkpt lat="44.60073571353337" lon="8.809545383624886"><ele>519.0</ele><time>2026-04-09T08:49:49Z</time></trkpt><trkpt lat="44.600662274733374" lon="8.80952284081944"><ele>521.0</ele><time>2026-04-09T08:49:50Z</time></trkpt><trkpt lat="44.60062055711996" lon="8.809447121096703"><ele>523.0</ele><time>2026-04-09T08:49:51Z</time></trkpt><trkpt lat="44.6006070241342" lon="8.809355737311774"><ele>525.0</ele><time>2026-04-09T08:49:52Z</time></trkpt><trkpt lat="44.600602079614646" lon="8.809252416667066"><ele>527.0</ele><time>2026-04-09T08:49:53Z</time></trkpt><trkpt lat="44.60058435246933" lon="8.809138272260132"><ele>527.0</ele><time>2026-04-09T08:49:54Z</time></trkpt><trkpt lat="44.60053751084843" lon="8.809045839284797"><ele>527.0</ele><time>2026-04-09T08:49:55Z</time></trkpt><trkpt lat="44.60051662543083" lon="8.808952043102467"><ele>527.0</ele><time>2026-04-09T08:49:56Z</time></trkpt><trkpt lat="44.60052708112353" lon="8.80884662012207"><ele>527.0</ele><time>2026-04-09T08:49:57Z</time></trkpt><trkpt lat="44.60056179792173" lon="8.808745530578479"><ele>527.0</ele><time>2026-04-09T08:49:58Z</time></trkpt><trkpt lat="44.60062370642955" lon="8.808672814513987"><ele>527.0</ele><time>2026-04-09T08:49:59Z</time></trkpt><trkpt lat="44.60070356842766" lon="8.808642463821673"><ele>527.0</ele><time>2026-04-09T08:50:00Z</time></trkpt><trkpt lat="44.600794493264765" lon="8.808622640610793"><ele>527.0</ele><time>2026-04-09T08:50:01Z</time></trkpt><trkpt lat="44.600889166245985" lon="8.80859047084731"><ele>527.0</ele><time>2026-04-09T08:50:02Z</time></trkpt><trkpt lat="44.60098216315429" lon="8.808531059211383"><ele>527.0</ele><time>2026-04-09T08:50:03Z</time></trkpt><trkpt lat="44.60107446641123" lon="8.808454222021162"><ele>527.0</ele><time>2026-04-09T08:50:04Z</time></trkpt><trkpt lat="44.60115646844152" lon="8.808381846474127"><ele>529.3333333333333</ele><time>2026-04-09T08:50:05Z</time></trkpt><trkpt lat="44.60123379296735" lon="8.808331666530467"><ele>531.6666666666666</ele><time>2026-04-09T08:50:06Z</time></trkpt><trkpt lat="44.601303192868166" lon="8.80829419231981"><ele>534.0</ele><time>2026-04-09T08:50:07Z</time></trkpt><trkpt lat="44.601384420578874" lon="8.808203885040953"><ele>536.3333333333334</ele><time>2026-04-09T08:50:09Z</time></trkpt><trkpt lat="44.601339925775" lon="8.808057867902564"><ele>538.6666666666667</ele><time>2026-04-09T08:50:11Z</time></trkpt><trkpt lat="44.60127413994094" lon="8.808023917536348"><ele>541.0</ele><time>2026-04-09T08:50:12Z</time></trkpt><trkpt lat="44.601196364251116" lon="8.808020495787341"><ele>541.0</ele><time>2026-04-09T08:50:13Z</time></trkpt><trkpt lat="44.60110712721273" lon="8.808044054523611"><ele>541.0</ele><time>2026-04-09T08:50:14Z</time></trkpt><trkpt lat="44.601017553313675" lon="8.808075225985421"><ele>541.0</ele><time>2026-04-09T08:50:15Z</time></trkpt><trkpt lat="44.600937639959014" lon="8.808116976173446"><ele>541.0</ele><time>2026-04-09T08:50:16Z</time></trkpt><trkpt lat="44.60087524613809" lon="8.808142797563649"><ele>541.0</ele><time>2026-04-09T08:50:17Z</time></trkpt><trkpt lat="44.60081177389933" lon="8.808127247729205"><ele>541.0</ele><time>2026-04-09T08:50:18Z</time></trkpt><trkpt lat="44.6007624762967" lon="8.80807167165875"><ele>541.0</ele><time>2026-04-09T08:50:19Z</time></trkpt><trkpt lat="44.60072382400371" lon="8.807989298119516"><ele>541.0</ele><time>2026-04-09T08:50:20Z</time></trkpt><trkpt lat="44.60068390015422" lon="8.807893245788003"><ele>541.0</ele><time>2026-04-09T08:50:21Z</time></trkpt><trkpt lat="44.600631478870945" lon="8.807791855187153"><ele>541.0</ele><time>2026-04-09T08:50:22Z</time></trkpt><trkpt lat="44.600571608335486" lon="8.807687127573836"><ele>541.0</ele><time>2026-04-09T08:50:23Z</time></trkpt><trkpt lat="44.60050999548063" lon="8.807600455179623"><ele>541.0</ele><time>2026-04-09T08:50:24Z</time></trkpt><trkpt lat="44.60044778027417" lon="8.807535543364764"><ele>545.0</ele><time>2026-04-09T08:50:25Z</time></trkpt><trkpt lat="44.60038170704109" lon="8.807486605606606"><ele>549.0</ele><time>2026-04-09T08:50:26Z</time></trkpt><trkpt lat="44.60030565818938" lon="8.807464723218892"><ele>553.0</ele><time>2026-04-09T08:50:27Z</time></trkpt><trkpt lat="44.60022228756331" lon="8.80747799940547"><ele>557.0</ele><time>2026-04-09T08:50:28Z</time></trkpt><trkpt lat="44.60013776119437" lon="8.807516378005023"><ele>561.0</ele><time>2026-04-09T08:50:29Z</time></trkpt><trkpt lat="44.60005534758612" lon="8.80756067793097"><ele>565.0</ele><time>2026-04-09T08:50:30Z</time></trkpt><trkpt lat="44.599974410051715" lon="8.80757971270782"><ele>565.0</ele><time>2026-04-09T08:50:31Z</time></trkpt><trkpt lat="44.599899567037845" lon="8.80755894770373"><ele>565.0</ele><time>2026-04-09T08:50:32Z</time></trkpt><trkpt lat="44.59983773256947" lon="8.807494920017232"><ele>565.0</ele><time>2026-04-09T08:50:33Z</time></trkpt><trkpt lat="44.599795186119465" lon="8.807414355910693"><ele>565.0</ele><time>2026-04-09T08:50:34Z</time></trkpt><trkpt lat="44.599770096057036" lon="8.807331186178008"><ele>565.0</ele><time>2026-04-09T08:50:35Z</time></trkpt><trkpt lat="44.59975356253358" lon="8.807226528530249"><ele>565.0</ele><time>2026-04-09T08:50:37Z</time></trkpt><trkpt lat="44.59973749002478" lon="8.807095105998505"><ele>565.0</ele><time>2026-04-09T08:51:17Z</time></trkpt><trkpt lat="44.599705451244276" lon="8.806926410073812"><ele>565.0</ele><time>2026-04-09T08:51:19Z</time></trkpt><trkpt lat="44.59968417830421" lon="8.806829061793085"><ele>565.0</ele><time>2026-04-09T08:51:20Z</time></trkpt><trkpt lat="44.59965915837253" lon="8.806718497392028"><ele>565.0</ele><time>2026-04-09T08:51:21Z</time></trkpt><trkpt lat="44.59963063417289" lon="8.806606222998688"><ele>565.0</ele><time>2026-04-09T08:51:22Z</time></trkpt><trkpt lat="44.59959711139598" lon="8.80649202028315"><ele>565.5</ele><time>2026-04-09T08:51:23Z</time></trkpt><trkpt lat="44.59956840161904" lon="8.806376861209229"><ele>566.0</ele><time>2026-04-09T08:51:24Z</time></trkpt><trkpt lat="44.599549823383676" lon="8.806259308367295"><ele>566.5</ele><time>2026-04-09T08:51:25Z</time></trkpt><trkpt lat="44.59953856974433" lon="8.8061361341937"><ele>567.0</ele><time>2026-04-09T08:51:26Z</time></trkpt><trkpt lat="44.599526413079744" lon="8.806007195194578"><ele>567.5</ele><time>2026-04-09T08:51:27Z</time></trkpt><trkpt lat="44.59954005486307" lon="8.805885261667198"><ele>568.0</ele><time>2026-04-09T08:51:28Z</time></trkpt><trkpt lat="44.599534924594025" lon="8.805750661258665"><ele>568.8</ele><time>2026-04-09T08:51:29Z</time></trkpt><trkpt lat="44.59951682022872" lon="8.8056112188835"><ele>569.5999999999999</ele><time>2026-04-09T08:51:30Z</time></trkpt><trkpt lat="44.59950529170474" lon="8.805473225690655"><ele>570.4000000000001</ele><time>2026-04-09T08:51:31Z</time></trkpt><trkpt lat="44.59948814253179" lon="8.805336352462906"><ele>571.2</ele><time>2026-04-09T08:51:32Z</time></trkpt><trkpt lat="44.59946372421868" lon="8.805195017042662"><ele>572.0</ele><time>2026-04-09T08:51:33Z</time></trkpt><trkpt lat="44.59943659995902" lon="8.805055984669762"><ele>572.0</ele><time>2026-04-09T08:51:34Z</time></trkpt><trkpt lat="44.59940710467406" lon="8.804909389698333"><ele>572.0</ele><time>2026-04-09T08:51:35Z</time></trkpt><trkpt lat="44.59937730324874" lon="8.804761735560996"><ele>572.0</ele><time>2026-04-09T08:51:36Z</time></trkpt><trkpt lat="44.5993425396507" lon="8.804612980981902"><ele>572.0</ele><time>2026-04-09T08:51:37Z</time></trkpt><trkpt lat="44.599296213437235" lon="8.804451617334502"><ele>569.75</ele><time>2026-04-09T08:51:38Z</time></trkpt><trkpt lat="44.59926991676504" lon="8.804295206016054"><ele>567.5</ele><time>2026-04-09T08:51:39Z</time></trkpt><trkpt lat="44.599241461406066" lon="8.804144047295383"><ele>565.25</ele><time>2026-04-09T08:51:40Z</time></trkpt><trkpt lat="44.5992029232871" lon="8.803985882335866"><ele>563.0</ele><time>2026-04-09T08:51:41Z</time></trkpt><trkpt lat="44.59916152289359" lon="8.803829563010293"><ele>563.0</ele><time>2026-04-09T08:51:42Z</time></trkpt><trkpt lat="44.59912787591272" lon="8.803684916676358"><ele>563.0</ele><time>2026-04-09T08:51:43Z</time></trkpt><trkpt lat="44.59909991924622" lon="8.803525075953411"><ele>563.0</ele><time>2026-04-09T08:51:44Z</time></trkpt><trkpt lat="44.59909641700817" lon="8.803388507124168"><ele>563.0</ele><time>2026-04-09T08:51:45Z</time></trkpt><trkpt lat="44.59908871717839" lon="8.803256225009067"><ele>563.0</ele><time>2026-04-09T08:51:46Z</time></trkpt><trkpt lat="44.59906495615418" lon="8.803117793764141"><ele>561.1999999999999</ele><time>2026-04-09T08:51:47Z</time></trkpt><trkpt lat="44.59903277327663" lon="8.802989167599044"><ele>559.4</ele><time>2026-04-09T08:51:48Z</time></trkpt><trkpt lat="44.59898109509425" lon="8.802871906108441"><ele>557.5999999999999</ele><time>2026-04-09T08:51:49Z</time></trkpt><trkpt lat="44.598919782194855" lon="8.802745073056686"><ele>555.8</ele><time>2026-04-09T08:51:50Z</time></trkpt><trkpt lat="44.59883951291275" lon="8.802619002482496"><ele>554.0</ele><time>2026-04-09T08:51:51Z</time></trkpt><trkpt lat="44.598773128993706" lon="8.802487139585777"><ele>552.5</ele><time>2026-04-09T08:51:52Z</time></trkpt><trkpt lat="44.59871111574941" lon="8.802348411278723"><ele>551.0</ele><time>2026-04-09T08:51:53Z</time></trkpt><trkpt lat="44.59866044219398" lon="8.802197225622995"><ele>549.5</ele><time>2026-04-09T08:51:54Z</time></trkpt><trkpt lat="44.598617632239986" lon="8.802048945578523"><ele>548.0</ele><time>2026-04-09T08:51:55Z</time></trkpt><trkpt lat="44.59856965298933" lon="8.801905999203536"><ele>549.0</ele><time>2026-04-09T08:51:56Z</time></trkpt><trkpt lat="44.59852425415096" lon="8.801768401968047"><ele>550.0</ele><time>2026-04-09T08:51:57Z</time></trkpt><trkpt lat="44.59847409696972" lon="8.80163100141546"><ele>551.0</ele><time>2026-04-09T08:51:58Z</time></trkpt><trkpt lat="44.59844321007532" lon="8.80147715353439"><ele>552.0</ele><time>2026-04-09T08:51:59Z</time></trkpt><trkpt lat="44.59842662133783" lon="8.801342007772359"><ele>553.0</ele><time>2026-04-09T08:52:00Z</time></trkpt><trkpt lat="44.598399146080304" lon="8.801208266134127"><ele>553.0</ele><time>2026-04-09T08:52:01Z</time></trkpt><trkpt lat="44.59837781647171" lon="8.801066054583767"><ele>553.0</ele><time>2026-04-09T08:52:02Z</time></trkpt><trkpt lat="44.59834501144817" lon="8.800920553240628"><ele>553.0</ele><time>2026-04-09T08:52:03Z</time></trkpt><trkpt lat="44.59830848402363" lon="8.80078262941726"><ele>553.0</ele><time>2026-04-09T08:52:04Z</time></trkpt><trkpt lat="44.598265532678084" lon="8.800668219812783"><ele>553.0</ele><time>2026-04-09T08:52:05Z</time></trkpt><trkpt lat="44.59822082101437" lon="8.80057311566838"><ele>553.0</ele><time>2026-04-09T08:52:06Z</time></trkpt><trkpt lat="44.598175002232" lon="8.800488424118893"><ele>553.0</ele><time>2026-04-09T08:52:07Z</time></trkpt><trkpt lat="44.59812644247914" lon="8.800393841071648"><ele>553.0</ele><time>2026-04-09T08:52:08Z</time></trkpt><trkpt lat="44.598085319127705" lon="8.800290148550062"><ele>553.0</ele><time>2026-04-09T08:52:09Z</time></trkpt><trkpt lat="44.598049777694975" lon="8.800178245022133"><ele>553.0</ele><time>2026-04-09T08:52:10Z</time></trkpt><trkpt lat="44.59802330340436" lon="8.800066372268581"><ele>553.0</ele><time>2026-04-09T08:52:11Z</time></trkpt><trkpt lat="44.597997391677595" lon="8.799968565766843"><ele>552.2857142857143</ele><time>2026-04-09T08:52:12Z</time></trkpt><trkpt lat="44.59797414858692" lon="8.799856349839706"><ele>551.5714285714286</ele><time>2026-04-09T08:52:13Z</time></trkpt><trkpt lat="44.59794888841733" lon="8.799749255187798"><ele>550.8571428571429</ele><time>2026-04-09T08:52:14Z</time></trkpt><trkpt lat="44.59792059401524" lon="8.799657733836357"><ele>550.1428571428571</ele><time>2026-04-09T08:52:15Z</time></trkpt><trkpt lat="44.59789149865719" lon="8.799569637965824"><ele>549.4285714285714</ele><time>2026-04-09T08:52:16Z</time></trkpt><trkpt lat="44.59786930552972" lon="8.799478106944687"><ele>548.7142857142858</ele><time>2026-04-09T08:52:17Z</time></trkpt><trkpt lat="44.59785041227162" lon="8.799382855351078"><ele>548.0</ele><time>2026-04-09T08:52:18Z</time></trkpt><trkpt lat="44.5978395298914" lon="8.799283283989062"><ele>547.3333333333333</ele><time>2026-04-09T08:52:19Z</time></trkpt><trkpt lat="44.597820605241914" lon="8.799163444269858"><ele>546.6666666666666</ele><time>2026-04-09T08:52:20Z</time></trkpt><trkpt lat="44.59783391145616" lon="8.799055780170258"><ele>546.0</ele><time>2026-04-09T08:52:21Z</time></trkpt><trkpt lat="44.59786524823979" lon="8.798955126934676"><ele>545.3333333333334</ele><time>2026-04-09T08:52:22Z</time></trkpt><trkpt lat="44.597906577285876" lon="8.798874527345456"><ele>544.6666666666667</ele><time>2026-04-09T08:52:23Z</time></trkpt><trkpt lat="44.59794889200397" lon="8.798800755308845"><ele>544.0</ele><time>2026-04-09T08:52:24Z</time></trkpt><trkpt lat="44.59797263687272" lon="8.798711048214203"><ele>544.0</ele><time>2026-04-09T08:52:25Z</time></trkpt><trkpt lat="44.59796989768046" lon="8.798615147176136"><ele>544.0</ele><time>2026-04-09T08:52:26Z</time></trkpt><trkpt lat="44.5979454181325" lon="8.798487355446403"><ele>544.0</ele><time>2026-04-09T08:52:27Z</time></trkpt><trkpt lat="44.59790483172671" lon="8.798369710594551"><ele>544.0</ele><time>2026-04-09T08:52:28Z</time></trkpt><trkpt lat="44.597864532204106" lon="8.798246727639595"><ele>544.0</ele><time>2026-04-09T08:52:29Z</time></trkpt><trkpt lat="44.597822738744036" lon="8.798117362027984"><ele>548.2</ele><time>2026-04-09T08:52:30Z</time></trkpt><trkpt lat="44.597779433309675" lon="8.797980224733404"><ele>552.4</ele><time>2026-04-09T08:52:31Z</time></trkpt><trkpt lat="44.59773387815054" lon="8.79784579489754"><ele>556.6</ele><time>2026-04-09T08:52:32Z</time></trkpt><trkpt lat="44.5976908505258" lon="8.79771479630724"><ele>560.8</ele><time>2026-04-09T08:52:33Z</time></trkpt><trkpt lat="44.59765416333525" lon="8.797607445391408"><ele>565.0</ele><time>2026-04-09T08:52:34Z</time></trkpt><trkpt lat="44.59762922877644" lon="8.797518564534073"><ele>565.0</ele><time>2026-04-09T08:52:35Z</time></trkpt><trkpt lat="44.59758183926199" lon="8.797426322024476"><ele>565.0</ele><time>2026-04-09T08:52:36Z</time></trkpt><trkpt lat="44.59752450626499" lon="8.797339293936192"><ele>565.0</ele><time>2026-04-09T08:52:37Z</time></trkpt><trkpt lat="44.59747036276407" lon="8.797249104232527"><ele>565.0</ele><time>2026-04-09T08:52:38Z</time></trkpt><trkpt lat="44.597451349743395" lon="8.797145094678253"><ele>565.0</ele><time>2026-04-09T08:52:39Z</time></trkpt><trkpt lat="44.59746568583872" lon="8.7970416975516"><ele>565.0</ele><time>2026-04-09T08:52:40Z</time></trkpt><trkpt lat="44.59748235029513" lon="8.7969556801834"><ele>563.1666666666667</ele><time>2026-04-09T08:52:41Z</time></trkpt><trkpt lat="44.597472102472416" lon="8.79680436070545"><ele>561.3333333333334</ele><time>2026-04-09T08:52:43Z</time></trkpt><trkpt lat="44.597430960573604" lon="8.79672956633859"><ele>559.5</ele><time>2026-04-09T08:52:44Z</time></trkpt><trkpt lat="44.59737320439208" lon="8.796689847634978"><ele>557.6666666666666</ele><time>2026-04-09T08:52:45Z</time></trkpt><trkpt lat="44.59724568824886" lon="8.796686755913232"><ele>555.8333333333333</ele><time>2026-04-09T08:52:47Z</time></trkpt><trkpt lat="44.597185344095955" lon="8.796655011189072"><ele>554.0</ele><time>2026-04-09T08:52:48Z</time></trkpt><trkpt lat="44.59712705491825" lon="8.796596811377952"><ele>554.0</ele><time>2026-04-09T08:52:49Z</time></trkpt><trkpt lat="44.597096320653215" lon="8.79651161316234"><ele>554.0</ele><time>2026-04-09T08:52:50Z</time></trkpt><trkpt lat="44.597084050181756" lon="8.796412342690518"><ele>554.0</ele><time>2026-04-09T08:52:51Z</time></trkpt><trkpt lat="44.597066599742604" lon="8.796305306403863"><ele>554.0</ele><time>2026-04-09T08:52:52Z</time></trkpt><trkpt lat="44.597030068557025" lon="8.796201417297098"><ele>554.0</ele><time>2026-04-09T08:52:53Z</time></trkpt><trkpt lat="44.59698319412616" lon="8.796108425802018"><ele>554.0</ele><time>2026-04-09T08:52:54Z</time></trkpt><trkpt lat="44.596923052875674" lon="8.796015591513953"><ele>557.6666666666666</ele><time>2026-04-09T08:52:55Z</time></trkpt><trkpt lat="44.59686656315302" lon="8.79592220146746"><ele>561.3333333333333</ele><time>2026-04-09T08:52:56Z</time></trkpt><trkpt lat="44.596817698116844" lon="8.795821607173963"><ele>565.0</ele><time>2026-04-09T08:52:57Z</time></trkpt><trkpt lat="44.59678703180198" lon="8.795715314750927"><ele>568.6666666666666</ele><time>2026-04-09T08:52:58Z</time></trkpt><trkpt lat="44.59676640210981" lon="8.79561347055682"><ele>572.3333333333334</ele><time>2026-04-09T08:52:59Z</time></trkpt><trkpt lat="44.59675249626708" lon="8.795524805342886"><ele>576.0</ele><time>2026-04-09T08:53:00Z</time></trkpt><trkpt lat="44.596731351782594" lon="8.79537887393741"><ele>576.0</ele><time>2026-04-09T08:53:02Z</time></trkpt><trkpt lat="44.59669323058784" lon="8.79530384394838"><ele>576.0</ele><time>2026-04-09T08:53:03Z</time></trkpt><trkpt lat="44.596643375105344" lon="8.795234841291622"><ele>576.0</ele><time>2026-04-09T08:53:04Z</time></trkpt><trkpt lat="44.596582301289544" lon="8.795163917843519"><ele>576.0</ele><time>2026-04-09T08:53:05Z</time></trkpt><trkpt lat="44.5965205095609" lon="8.795090213282773"><ele>576.0</ele><time>2026-04-09T08:53:06Z</time></trkpt><trkpt lat="44.596459157410806" lon="8.795007352816494"><ele>576.0</ele><time>2026-04-09T08:53:07Z</time></trkpt><trkpt lat="44.5964045171097" lon="8.794910042845013"><ele>573.3333333333334</ele><time>2026-04-09T08:53:08Z</time></trkpt><trkpt lat="44.59635139520486" lon="8.79481958357661"><ele>570.6666666666666</ele><time>2026-04-09T08:53:09Z</time></trkpt><trkpt lat="44.59630959138128" lon="8.794723658301226"><ele>568.0</ele><time>2026-04-09T08:53:10Z</time></trkpt><trkpt lat="44.596267310356495" lon="8.794643670098592"><ele>565.3333333333333</ele><time>2026-04-09T08:53:11Z</time></trkpt><trkpt lat="44.59620896638078" lon="8.794520047919136"><ele>562.6666666666666</ele><time>2026-04-09T08:53:13Z</time></trkpt><trkpt lat="44.59615857170716" lon="8.794461705284697"><ele>560.0</ele><time>2026-04-09T08:53:16Z</time></trkpt><trkpt lat="44.59606623922374" lon="8.79438759080575"><ele>560.0</ele><time>2026-04-09T08:53:30Z</time></trkpt><trkpt lat="44.59599823844506" lon="8.794314418098443"><ele>560.0</ele><time>2026-04-09T08:53:32Z</time></trkpt><trkpt lat="44.59590162921599" lon="8.79428312632278"><ele>560.0</ele><time>2026-04-09T08:53:43Z</time></trkpt><trkpt lat="44.59582882914133" lon="8.794278709582958"><ele>560.0</ele><time>2026-04-09T08:53:44Z</time></trkpt><trkpt lat="44.59575293627261" lon="8.794262317267467"><ele>560.0</ele><time>2026-04-09T08:53:45Z</time></trkpt><trkpt lat="44.595682381530246" lon="8.794218393804718"><ele>560.0</ele><time>2026-04-09T08:53:46Z</time></trkpt><trkpt lat="44.59563570244709" lon="8.794128672936907"><ele>560.0</ele><time>2026-04-09T08:53:47Z</time></trkpt><trkpt lat="44.5955887245361" lon="8.794037823639156"><ele>560.0</ele><time>2026-04-09T08:53:48Z</time></trkpt><trkpt lat="44.595528934153" lon="8.793972808063128"><ele>560.0</ele><time>2026-04-09T08:53:49Z</time></trkpt><trkpt lat="44.595471426049" lon="8.79390287441486"><ele>560.0</ele><time>2026-04-09T08:53:50Z</time></trkpt><trkpt lat="44.595405618605014" lon="8.793853004731929"><ele>560.0</ele><time>2026-04-09T08:53:51Z</time></trkpt><trkpt lat="44.5953371146651" lon="8.793802191083499"><ele>560.0</ele><time>2026-04-09T08:53:52Z</time></trkpt><trkpt lat="44.59527680707054" lon="8.793736018980816"><ele>559.8333333333333</ele><time>2026-04-09T08:53:53Z</time></trkpt><trkpt lat="44.59522870116534" lon="8.793662023576527"><ele>559.6666666666666</ele><time>2026-04-09T08:53:54Z</time></trkpt><trkpt lat="44.595186832437086" lon="8.793590343284245"><ele>559.5</ele><time>2026-04-09T08:53:55Z</time></trkpt><trkpt lat="44.595123451477036" lon="8.79346201955814"><ele>559.3333333333334</ele><time>2026-04-09T08:53:57Z</time></trkpt><trkpt lat="44.59507658216176" lon="8.793379686825544"><ele>559.1666666666667</ele><time>2026-04-09T08:53:59Z</time></trkpt><trkpt lat="44.595008801518375" lon="8.793338884873991"><ele>559.0</ele><time>2026-04-09T08:54:03Z</time></trkpt><trkpt lat="44.59495993883851" lon="8.793276475300093"><ele>559.0</ele><time>2026-04-09T08:54:46Z</time></trkpt><trkpt lat="44.59501040958607" lon="8.79298221104957"><ele>559.0</ele><time>2026-04-09T08:54:48Z</time></trkpt><trkpt lat="44.59501388196983" lon="8.792860695564285"><ele>559.0</ele><time>2026-04-09T08:54:51Z</time></trkpt><trkpt lat="44.595012556393726" lon="8.792769700039099"><ele>559.0</ele><time>2026-04-09T08:54:53Z</time></trkpt><trkpt lat="44.59500520991051" lon="8.79267328958889"><ele>559.0</ele><time>2026-04-09T08:54:55Z</time></trkpt><trkpt lat="44.59500536673632" lon="8.792575529361313"><ele>559.0</ele><time>2026-04-09T08:54:57Z</time></trkpt><trkpt lat="44.5949907992146" lon="8.792450126785614"><ele>559.0</ele><time>2026-04-09T08:55:00Z</time></trkpt><trkpt lat="44.59495293900173" lon="8.792521597117167"><ele>559.0</ele><time>2026-04-09T08:55:26Z</time></trkpt><trkpt lat="44.59497514137368" lon="8.792620442482978"><ele>559.0</ele><time>2026-04-09T08:55:28Z</time></trkpt><trkpt lat="44.59500190695079" lon="8.79274653597304"><ele>559.0</ele><time>2026-04-09T08:55:30Z</time></trkpt><trkpt lat="44.59501361285791" lon="8.792875056321137"><ele>559.0</ele><time>2026-04-09T08:55:32Z</time></trkpt><trkpt lat="44.59500886244263" lon="8.793005812415345"><ele>559.0</ele><time>2026-04-09T08:55:34Z</time></trkpt><trkpt lat="44.59500874438952" lon="8.79312117447014"><ele>559.0</ele><time>2026-04-09T08:55:36Z</time></trkpt><trkpt lat="44.595025334868566" lon="8.793264040590536"><ele>559.0</ele><time>2026-04-09T08:55:38Z</time></trkpt><trkpt lat="44.59495710713215" lon="8.793274740390334"><ele>559.0</ele><time>2026-04-09T08:55:55Z</time></trkpt><trkpt lat="44.59487360169191" lon="8.793288180207067"><ele>559.0</ele><time>2026-04-09T08:56:13Z</time></trkpt><trkpt lat="44.59481762084342" lon="8.793347436879255"><ele>559.0</ele><time>2026-04-09T08:56:15Z</time></trkpt><trkpt lat="44.594739868307215" lon="8.793486913801726"><ele>560.6666666666667</ele><time>2026-04-09T08:56:17Z</time></trkpt><trkpt lat="44.59469999140566" lon="8.79358048149358"><ele>562.3333333333334</ele><time>2026-04-09T08:56:18Z</time></trkpt><trkpt lat="44.59466722765377" lon="8.793681394159874"><ele>564.0</ele><time>2026-04-09T08:56:19Z</time></trkpt><trkpt lat="44.59462601416043" lon="8.793775658521868"><ele>565.6666666666666</ele><time>2026-04-09T08:56:20Z</time></trkpt><trkpt lat="44.594569972661674" lon="8.793854738324981"><ele>567.3333333333333</ele><time>2026-04-09T08:56:21Z</time></trkpt><trkpt lat="44.594493501848504" lon="8.793894850164552"><ele>569.0</ele><time>2026-04-09T08:56:22Z</time></trkpt><trkpt lat="44.59441168795168" lon="8.793928933532271"><ele>569.0</ele><time>2026-04-09T08:56:23Z</time></trkpt><trkpt lat="44.59432785050674" lon="8.793980958637663"><ele>569.0</ele><time>2026-04-09T08:56:24Z</time></trkpt><trkpt lat="44.59424487118367" lon="8.794046963533267"><ele>569.0</ele><time>2026-04-09T08:56:25Z</time></trkpt><trkpt lat="44.59416260349343" lon="8.79410745254367"><ele>569.0</ele><time>2026-04-09T08:56:26Z</time></trkpt><trkpt lat="44.59407777117488" lon="8.794158865131758"><ele>569.0</ele><time>2026-04-09T08:56:27Z</time></trkpt><trkpt lat="44.59398861741373" lon="8.794217418741935"><ele>569.0</ele><time>2026-04-09T08:56:28Z</time></trkpt><trkpt lat="44.59389664242391" lon="8.794274595583843"><ele>569.0</ele><time>2026-04-09T08:56:29Z</time></trkpt><trkpt lat="44.593797446451354" lon="8.794323763011322"><ele>569.0</ele><time>2026-04-09T08:56:30Z</time></trkpt><trkpt lat="44.59369724366006" lon="8.794357936471094"><ele>569.0</ele><time>2026-04-09T08:56:31Z</time></trkpt><trkpt lat="44.593593341858444" lon="8.794375768912634"><ele>569.0</ele><time>2026-04-09T08:56:32Z</time></trkpt><trkpt lat="44.59348984264161" lon="8.794389277049065"><ele>572.2</ele><time>2026-04-09T08:56:33Z</time></trkpt><trkpt lat="44.593384835130536" lon="8.794400936698404"><ele>575.4</ele><time>2026-04-09T08:56:34Z</time></trkpt><trkpt lat="44.593279680631014" lon="8.79442289625824"><ele>578.6</ele><time>2026-04-09T08:56:35Z</time></trkpt><trkpt lat="44.593177760009254" lon="8.7944621982927"><ele>581.8</ele><time>2026-04-09T08:56:36Z</time></trkpt><trkpt lat="44.593067220483675" lon="8.794512812586692"><ele>585.0</ele><time>2026-04-09T08:56:37Z</time></trkpt><trkpt lat="44.59295592808792" lon="8.794569292358279"><ele>585.0</ele><time>2026-04-09T08:56:38Z</time></trkpt><trkpt lat="44.592847465581954" lon="8.794632136917263"><ele>585.0</ele><time>2026-04-09T08:56:39Z</time></trkpt><trkpt lat="44.592751665633266" lon="8.794698174520464"><ele>585.0</ele><time>2026-04-09T08:56:40Z</time></trkpt><trkpt lat="44.592680440639164" lon="8.79475668571022"><ele>585.0</ele><time>2026-04-09T08:56:41Z</time></trkpt><trkpt lat="44.59262553545675" lon="8.794811468343433"><ele>585.0</ele><time>2026-04-09T08:56:42Z</time></trkpt><trkpt lat="44.59257776993368" lon="8.794873378023757"><ele>585.0</ele><time>2026-04-09T08:56:43Z</time></trkpt><trkpt lat="44.592518762818756" lon="8.794933763196855"><ele>581.2</ele><time>2026-04-09T08:56:44Z</time></trkpt><trkpt lat="44.59243986973641" lon="8.794959484176886"><ele>577.4</ele><time>2026-04-09T08:56:45Z</time></trkpt><trkpt lat="44.59234961532717" lon="8.794918240379557"><ele>573.6</ele><time>2026-04-09T08:56:46Z</time></trkpt><trkpt lat="44.59225204357129" lon="8.794907115949602"><ele>569.8</ele><time>2026-04-09T08:56:47Z</time></trkpt><trkpt lat="44.59215621162396" lon="8.794921133415263"><ele>566.0</ele><time>2026-04-09T08:56:48Z</time></trkpt><trkpt lat="44.59206401074382" lon="8.794914046078011"><ele>568.6666666666666</ele><time>2026-04-09T08:56:49Z</time></trkpt><trkpt lat="44.59198750739194" lon="8.794894875600924"><ele>571.3333333333333</ele><time>2026-04-09T08:56:50Z</time></trkpt><trkpt lat="44.59193491171834" lon="8.794810206888041"><ele>574.0</ele><time>2026-04-09T08:56:51Z</time></trkpt><trkpt lat="44.591911128994404" lon="8.794718903796213"><ele>576.6666666666666</ele><time>2026-04-09T08:56:52Z</time></trkpt><trkpt lat="44.59190535648737" lon="8.794615150889427"><ele>579.3333333333334</ele><time>2026-04-09T08:56:53Z</time></trkpt><trkpt lat="44.59187655201571" lon="8.79448258066948"><ele>582.0</ele><time>2026-04-09T08:56:54Z</time></trkpt><trkpt lat="44.591839768212004" lon="8.794347601518004"><ele>577.3333333333334</ele><time>2026-04-09T08:56:55Z</time></trkpt><trkpt lat="44.59178957147613" lon="8.794238728851798"><ele>572.6666666666666</ele><time>2026-04-09T08:56:56Z</time></trkpt><trkpt lat="44.591761580821874" lon="8.794151059135041"><ele>568.0</ele><time>2026-04-09T08:56:57Z</time></trkpt><trkpt lat="44.59172143827084" lon="8.794062544589051"><ele>563.3333333333333</ele><time>2026-04-09T08:56:58Z</time></trkpt><trkpt lat="44.59166936505508" lon="8.79400040692852"><ele>558.6666666666666</ele><time>2026-04-09T08:56:59Z</time></trkpt><trkpt lat="44.59159580393235" lon="8.793980813966593"><ele>554.0</ele><time>2026-04-09T08:57:00Z</time></trkpt><trkpt lat="44.59150980183377" lon="8.793967547501651"><ele>554.0</ele><time>2026-04-09T08:57:01Z</time></trkpt><trkpt lat="44.5914219171207" lon="8.793919581852299"><ele>554.0</ele><time>2026-04-09T08:57:02Z</time></trkpt><trkpt lat="44.59136297784403" lon="8.793815137043953"><ele>554.0</ele><time>2026-04-09T08:57:03Z</time></trkpt><trkpt lat="44.591296189760016" lon="8.793733845723214"><ele>554.0</ele><time>2026-04-09T08:57:04Z</time></trkpt><trkpt lat="44.59122093295969" lon="8.793659610257503"><ele>554.0</ele><time>2026-04-09T08:57:05Z</time></trkpt><trkpt lat="44.59113009358021" lon="8.793620416364824"><ele>552.8333333333333</ele><time>2026-04-09T08:57:06Z</time></trkpt><trkpt lat="44.59105414540671" lon="8.793562709381675"><ele>551.6666666666666</ele><time>2026-04-09T08:57:07Z</time></trkpt><trkpt lat="44.590997577237765" lon="8.793502207872045"><ele>550.5</ele><time>2026-04-09T08:57:08Z</time></trkpt><trkpt lat="44.59095025100052" lon="8.793419755338096"><ele>549.3333333333334</ele><time>2026-04-09T08:57:09Z</time></trkpt><trkpt lat="44.59096101151937" lon="8.79330653018184"><ele>548.1666666666667</ele><time>2026-04-09T08:57:10Z</time></trkpt><trkpt lat="44.590951759046085" lon="8.793189232673061"><ele>547.0</ele><time>2026-04-09T08:57:11Z</time></trkpt><trkpt lat="44.590928228666044" lon="8.793072219298384"><ele>547.0</ele><time>2026-04-09T08:57:12Z</time></trkpt><trkpt lat="44.5908444874359" lon="8.792973950355115"><ele>547.0</ele><time>2026-04-09T08:57:13Z</time></trkpt><trkpt lat="44.59080408877199" lon="8.792845886297412"><ele>547.0</ele><time>2026-04-09T08:57:14Z</time></trkpt><trkpt lat="44.59076020789188" lon="8.792732115839621"><ele>547.0</ele><time>2026-04-09T08:57:15Z</time></trkpt><trkpt lat="44.59073018391225" lon="8.792621229481151"><ele>547.0</ele><time>2026-04-09T08:57:16Z</time></trkpt><trkpt lat="44.59071761089198" lon="8.792504572943214"><ele>544.0</ele><time>2026-04-09T08:57:17Z</time></trkpt><trkpt lat="44.590710134036044" lon="8.792378686120845"><ele>541.0</ele><time>2026-04-09T08:57:18Z</time></trkpt><trkpt lat="44.590687210510886" lon="8.792275353653782"><ele>538.0</ele><time>2026-04-09T08:57:19Z</time></trkpt><trkpt lat="44.59068654185001" lon="8.792107706851514"><ele>535.0</ele><time>2026-04-09T08:57:21Z</time></trkpt><trkpt lat="44.59063216877788" lon="8.792037057981121"><ele>532.0</ele><time>2026-04-09T08:57:22Z</time></trkpt><trkpt lat="44.59057305214425" lon="8.791962566814227"><ele>529.0</ele><time>2026-04-09T08:57:23Z</time></trkpt><trkpt lat="44.59050341526345" lon="8.791894275746506"><ele>525.5</ele><time>2026-04-09T08:57:24Z</time></trkpt><trkpt lat="44.59044347198327" lon="8.791825501108248"><ele>522.0</ele><time>2026-04-09T08:57:25Z</time></trkpt><trkpt lat="44.59038884174194" lon="8.79176548273226"><ele>518.5</ele><time>2026-04-09T08:57:26Z</time></trkpt><trkpt lat="44.5903307899257" lon="8.79171704376253"><ele>515.0</ele><time>2026-04-09T08:57:27Z</time></trkpt><trkpt lat="44.590258877993534" lon="8.79169841873815"><ele>511.50000000000006</ele><time>2026-04-09T08:57:28Z</time></trkpt><trkpt lat="44.59018046519926" lon="8.791724666579645"><ele>508.0</ele><time>2026-04-09T08:57:29Z</time></trkpt><trkpt lat="44.59011322920781" lon="8.79180380990739"><ele>514.0</ele><time>2026-04-09T08:57:30Z</time></trkpt><trkpt lat="44.59007386274299" lon="8.791921262054718"><ele>520.0</ele><time>2026-04-09T08:57:31Z</time></trkpt><trkpt lat="44.590036139343525" lon="8.792048412308887"><ele>526.0</ele><time>2026-04-09T08:57:32Z</time></trkpt><trkpt lat="44.58996718709118" lon="8.792147245839692"><ele>532.0</ele><time>2026-04-09T08:57:33Z</time></trkpt><trkpt lat="44.58987112615408" lon="8.79218398649965"><ele>538.0</ele><time>2026-04-09T08:57:34Z</time></trkpt><trkpt lat="44.589780088487025" lon="8.792239788953115"><ele>538.0</ele><time>2026-04-09T08:57:35Z</time></trkpt><trkpt lat="44.589692314560686" lon="8.792293456714399"><ele>538.0</ele><time>2026-04-09T08:57:36Z</time></trkpt><trkpt lat="44.58960734865509" lon="8.792375063708162"><ele>538.0</ele><time>2026-04-09T08:57:37Z</time></trkpt><trkpt lat="44.58951834177252" lon="8.792465580298174"><ele>538.0</ele><time>2026-04-09T08:57:38Z</time></trkpt><trkpt lat="44.589430376266435" lon="8.792550904960477"><ele>538.0</ele><time>2026-04-09T08:57:39Z</time></trkpt><trkpt lat="44.58934648381421" lon="8.792639621429775"><ele>539.25</ele><time>2026-04-09T08:57:40Z</time></trkpt><trkpt lat="44.58926678127769" lon="8.79274864370136"><ele>540.5</ele><time>2026-04-09T08:57:41Z</time></trkpt><trkpt lat="44.58918689596556" lon="8.792874408363446"><ele>541.75</ele><time>2026-04-09T08:57:42Z</time></trkpt><trkpt lat="44.58911289446984" lon="8.793005258257"><ele>543.0</ele><time>2026-04-09T08:57:43Z</time></trkpt><trkpt lat="44.58905019073913" lon="8.793122062662077"><ele>543.0</ele><time>2026-04-09T08:57:44Z</time></trkpt><trkpt lat="44.58898919196083" lon="8.79322800215058"><ele>543.0</ele><time>2026-04-09T08:57:45Z</time></trkpt><trkpt lat="44.58892203738563" lon="8.793314050177553"><ele>543.0</ele><time>2026-04-09T08:57:46Z</time></trkpt><trkpt lat="44.58884612561309" lon="8.793359704754813"><ele>543.0</ele><time>2026-04-09T08:57:47Z</time></trkpt><trkpt lat="44.5887683031327" lon="8.793355949400892"><ele>543.0</ele><time>2026-04-09T08:57:48Z</time></trkpt><trkpt lat="44.588705853381875" lon="8.793266969178017"><ele>543.0</ele><time>2026-04-09T08:57:49Z</time></trkpt><trkpt lat="44.58865636549204" lon="8.793173791566371"><ele>544.8</ele><time>2026-04-09T08:57:50Z</time></trkpt><trkpt lat="44.58862376167564" lon="8.793042943642424"><ele>546.5999999999999</ele><time>2026-04-09T08:57:51Z</time></trkpt><trkpt lat="44.588589522115505" lon="8.792908836556045"><ele>548.4000000000001</ele><time>2026-04-09T08:57:52Z</time></trkpt><trkpt lat="44.58855225056345" lon="8.792758506628514"><ele>550.2</ele><time>2026-04-09T08:57:53Z</time></trkpt><trkpt lat="44.58850605641553" lon="8.792609319778393"><ele>552.0</ele><time>2026-04-09T08:57:54Z</time></trkpt><trkpt lat="44.58844197083053" lon="8.792474166995751"><ele>546.6</ele><time>2026-04-09T08:57:55Z</time></trkpt><trkpt lat="44.58840171230718" lon="8.792346301504162"><ele>541.2</ele><time>2026-04-09T08:57:56Z</time></trkpt><trkpt lat="44.588352907077024" lon="8.792248489314764"><ele>535.8</ele><time>2026-04-09T08:57:57Z</time></trkpt><trkpt lat="44.588305599039295" lon="8.792167910334573"><ele>530.4</ele><time>2026-04-09T08:57:58Z</time></trkpt><trkpt lat="44.58825608450927" lon="8.792110893748989"><ele>525.0</ele><time>2026-04-09T08:57:59Z</time></trkpt><trkpt lat="44.58811716283657" lon="8.792091554411247"><ele>525.0</ele><time>2026-04-09T08:58:01Z</time></trkpt><trkpt lat="44.58802753771951" lon="8.792120228384011"><ele>525.0</ele><time>2026-04-09T08:58:02Z</time></trkpt><trkpt lat="44.58793002517216" lon="8.792149525501731"><ele>525.0</ele><time>2026-04-09T08:58:03Z</time></trkpt><trkpt lat="44.587822373355586" lon="8.792168132484278"><ele>525.0</ele><time>2026-04-09T08:58:04Z</time></trkpt><trkpt lat="44.587702625331296" lon="8.79217662732054"><ele>525.0</ele><time>2026-04-09T08:58:05Z</time></trkpt><trkpt lat="44.58758204076257" lon="8.792172774114027"><ele>529.4</ele><time>2026-04-09T08:58:06Z</time></trkpt><trkpt lat="44.587468375989346" lon="8.792159783351023"><ele>533.8</ele><time>2026-04-09T08:58:07Z</time></trkpt><trkpt lat="44.58736823962854" lon="8.792083792938957"><ele>538.2</ele><time>2026-04-09T08:58:08Z</time></trkpt><trkpt lat="44.587277100246304" lon="8.79202883030481"><ele>542.6</ele><time>2026-04-09T08:58:09Z</time></trkpt><trkpt lat="44.587174647488006" lon="8.791998388166085"><ele>547.0</ele><time>2026-04-09T08:58:10Z</time></trkpt><trkpt lat="44.587075186599016" lon="8.791963656504"><ele>544.4</ele><time>2026-04-09T08:58:11Z</time></trkpt><trkpt lat="44.58697678573851" lon="8.791941680700564"><ele>541.8000000000001</ele><time>2026-04-09T08:58:12Z</time></trkpt><trkpt lat="44.586883096917504" lon="8.791916954187585"><ele>539.2</ele><time>2026-04-09T08:58:13Z</time></trkpt><trkpt lat="44.58679836650885" lon="8.791845983640853"><ele>536.6</ele><time>2026-04-09T08:58:14Z</time></trkpt><trkpt lat="44.58674936230337" lon="8.791775158181897"><ele>534.0</ele><time>2026-04-09T08:58:15Z</time></trkpt><trkpt lat="44.586687251900784" lon="8.791667997831679"><ele>534.0</ele><time>2026-04-09T08:58:16Z</time></trkpt><trkpt lat="44.58664393808169" lon="8.79156695109327"><ele>534.0</ele><time>2026-04-09T08:58:17Z</time></trkpt><trkpt lat="44.58658289852658" lon="8.791421146119996"><ele>534.0</ele><time>2026-04-09T08:58:19Z</time></trkpt><trkpt lat="44.58654189981276" lon="8.791345999027323"><ele>534.0</ele><time>2026-04-09T08:58:20Z</time></trkpt><trkpt lat="44.58646554029257" lon="8.791281240831387"><ele>534.0</ele><time>2026-04-09T08:58:21Z</time></trkpt><trkpt lat="44.58638743728294" lon="8.79122648509128"><ele>534.0</ele><time>2026-04-09T08:58:22Z</time></trkpt><trkpt lat="44.58631949224588" lon="8.791159661998714"><ele>534.0</ele><time>2026-04-09T08:58:23Z</time></trkpt><trkpt lat="44.586256168483764" lon="8.791122301767379"><ele>534.0</ele><time>2026-04-09T08:58:24Z</time></trkpt><trkpt lat="44.5861872367172" lon="8.791107756571735"><ele>534.0</ele><time>2026-04-09T08:58:25Z</time></trkpt><trkpt lat="44.58611867254343" lon="8.791121090700036"><ele>534.0</ele><time>2026-04-09T08:58:26Z</time></trkpt><trkpt lat="44.58605301801692" lon="8.79117320981874"><ele>534.0</ele><time>2026-04-09T08:58:27Z</time></trkpt><trkpt lat="44.585991127898765" lon="8.791255294863657"><ele>534.0</ele><time>2026-04-09T08:58:28Z</time></trkpt><trkpt lat="44.58593904975372" lon="8.791370044522576"><ele>534.1666666666666</ele><time>2026-04-09T08:58:29Z</time></trkpt><trkpt lat="44.58588746163105" lon="8.791486440493822"><ele>534.3333333333334</ele><time>2026-04-09T08:58:30Z</time></trkpt><trkpt lat="44.585832539875724" lon="8.791591279158707"><ele>534.5</ele><time>2026-04-09T08:58:31Z</time></trkpt><trkpt lat="44.58576953012993" lon="8.79169811462868"><ele>534.6666666666667</ele><time>2026-04-09T08:58:32Z</time></trkpt><trkpt lat="44.585721617047" lon="8.791789817614804"><ele>534.8333333333334</ele><time>2026-04-09T08:58:33Z</time></trkpt><trkpt lat="44.58565511210385" lon="8.791825019162093"><ele>535.0</ele><time>2026-04-09T08:58:34Z</time></trkpt><trkpt lat="44.58558959146909" lon="8.791809993456198"><ele>535.0</ele><time>2026-04-09T08:58:35Z</time></trkpt><trkpt lat="44.58552855677352" lon="8.79174887528483"><ele>535.0</ele><time>2026-04-09T08:58:36Z</time></trkpt><trkpt lat="44.585483289737915" lon="8.791658190871752"><ele>535.0</ele><time>2026-04-09T08:58:37Z</time></trkpt><trkpt lat="44.58547474411802" lon="8.791545803990022"><ele>535.0</ele><time>2026-04-09T08:58:38Z</time></trkpt><trkpt lat="44.58544678536692" lon="8.791442480404108"><ele>535.0</ele><time>2026-04-09T08:58:39Z</time></trkpt><trkpt lat="44.585431071829746" lon="8.791341713909613"><ele>535.0</ele><time>2026-04-09T08:58:40Z</time></trkpt><trkpt lat="44.58540851289532" lon="8.791225442132811"><ele>533.4</ele><time>2026-04-09T08:58:41Z</time></trkpt><trkpt lat="44.58534197479009" lon="8.791101542751612"><ele>531.8</ele><time>2026-04-09T08:58:42Z</time></trkpt><trkpt lat="44.58528564541356" lon="8.790986367075407"><ele>530.2</ele><time>2026-04-09T08:58:43Z</time></trkpt><trkpt lat="44.585235060921136" lon="8.790863417947461"><ele>528.6</ele><time>2026-04-09T08:58:44Z</time></trkpt><trkpt lat="44.58518512750955" lon="8.790747082375452"><ele>527.0</ele><time>2026-04-09T08:58:45Z</time></trkpt><trkpt lat="44.58518313057149" lon="8.790624842546988"><ele>527.0</ele><time>2026-04-09T08:58:46Z</time></trkpt><trkpt lat="44.58516603674763" lon="8.790505038601307"><ele>527.0</ele><time>2026-04-09T08:58:47Z</time></trkpt><trkpt lat="44.58514531527674" lon="8.790391314770236"><ele>527.0</ele><time>2026-04-09T08:58:48Z</time></trkpt><trkpt lat="44.58511746556254" lon="8.790305735140159"><ele>527.0</ele><time>2026-04-09T08:58:49Z</time></trkpt><trkpt lat="44.58505413528522" lon="8.79026476793397"><ele>527.0</ele><time>2026-04-09T08:58:50Z</time></trkpt><trkpt lat="44.58498613422075" lon="8.79023379755401"><ele>527.0</ele><time>2026-04-09T08:58:51Z</time></trkpt><trkpt lat="44.58490200634702" lon="8.79026030222205"><ele>527.0</ele><time>2026-04-09T08:58:52Z</time></trkpt><trkpt lat="44.584820421299256" lon="8.790309120800867"><ele>527.0</ele><time>2026-04-09T08:58:53Z</time></trkpt><trkpt lat="44.584739555408" lon="8.79038137463111"><ele>527.0</ele><time>2026-04-09T08:58:54Z</time></trkpt><trkpt lat="44.58466404943284" lon="8.790466226956488"><ele>527.0</ele><time>2026-04-09T08:58:55Z</time></trkpt><trkpt lat="44.58460708940218" lon="8.790565518055377"><ele>527.0</ele><time>2026-04-09T08:58:56Z</time></trkpt><trkpt lat="44.584546293678876" lon="8.790648046289748"><ele>526.5</ele><time>2026-04-09T08:58:57Z</time></trkpt><trkpt lat="44.58447038354303" lon="8.790695084241218"><ele>526.0</ele><time>2026-04-09T08:58:58Z</time></trkpt><trkpt lat="44.584394688132875" lon="8.790637737215517"><ele>525.5</ele><time>2026-04-09T08:58:59Z</time></trkpt><trkpt lat="44.58431863174862" lon="8.79062648104129"><ele>525.0</ele><time>2026-04-09T08:59:00Z</time></trkpt><trkpt lat="44.584243115340165" lon="8.790629737398705"><ele>524.5</ele><time>2026-04-09T08:59:01Z</time></trkpt><trkpt lat="44.58417387173409" lon="8.79065074374621"><ele>524.0</ele><time>2026-04-09T08:59:02Z</time></trkpt><trkpt lat="44.58411373955954" lon="8.79073352373509"><ele>524.0</ele><time>2026-04-09T08:59:03Z</time></trkpt><trkpt lat="44.58403202610319" lon="8.790789799961754"><ele>524.0</ele><time>2026-04-09T08:59:04Z</time></trkpt><trkpt lat="44.583941514128334" lon="8.790815215207994"><ele>524.0</ele><time>2026-04-09T08:59:05Z</time></trkpt><trkpt lat="44.58385597374702" lon="8.790885810415805"><ele>524.0</ele><time>2026-04-09T08:59:06Z</time></trkpt><trkpt lat="44.583768292600936" lon="8.790956821221542"><ele>524.0</ele><time>2026-04-09T08:59:07Z</time></trkpt><trkpt lat="44.583682164189604" lon="8.791046908416522"><ele>530.0</ele><time>2026-04-09T08:59:08Z</time></trkpt><trkpt lat="44.58357072115399" lon="8.79109961492751"><ele>536.0</ele><time>2026-04-09T08:59:09Z</time></trkpt><trkpt lat="44.58347611727767" lon="8.791130334038446"><ele>542.0</ele><time>2026-04-09T08:59:10Z</time></trkpt><trkpt lat="44.58337621099696" lon="8.791146353746349"><ele>548.0</ele><time>2026-04-09T08:59:11Z</time></trkpt><trkpt lat="44.58327617583237" lon="8.791151383520914"><ele>554.0</ele><time>2026-04-09T08:59:12Z</time></trkpt><trkpt lat="44.58318079849517" lon="8.791143493904016"><ele>554.0</ele><time>2026-04-09T08:59:13Z</time></trkpt><trkpt lat="44.583089010941066" lon="8.79113301508299"><ele>554.0</ele><time>2026-04-09T08:59:14Z</time></trkpt><trkpt lat="44.58299613053022" lon="8.791139632841903"><ele>554.0</ele><time>2026-04-09T08:59:15Z</time></trkpt><trkpt lat="44.58291138058437" lon="8.791123776716727"><ele>554.0</ele><time>2026-04-09T08:59:16Z</time></trkpt><trkpt lat="44.582834198605475" lon="8.791083024103555"><ele>554.0</ele><time>2026-04-09T08:59:17Z</time></trkpt><trkpt lat="44.582762822290896" lon="8.791049189640116"><ele>554.0</ele><time>2026-04-09T08:59:18Z</time></trkpt><trkpt lat="44.582690411517966" lon="8.79103266048481"><ele>553.4</ele><time>2026-04-09T08:59:19Z</time></trkpt><trkpt lat="44.58261923594053" lon="8.791020770746936"><ele>552.8</ele><time>2026-04-09T08:59:20Z</time></trkpt><trkpt lat="44.5825466256145" lon="8.790996962536527"><ele>552.2</ele><time>2026-04-09T08:59:21Z</time></trkpt><trkpt lat="44.58246717374375" lon="8.790984490536616"><ele>551.6</ele><time>2026-04-09T08:59:22Z</time></trkpt><trkpt lat="44.582388303154275" lon="8.790972109787475"><ele>551.0</ele><time>2026-04-09T08:59:23Z</time></trkpt><trkpt lat="44.582293722766046" lon="8.791180459779776"><ele>550.9999999999999</ele><time>2026-04-09T08:59:24Z</time></trkpt><trkpt lat="44.58221297345874" lon="8.791217869445319"><ele>551.0</ele><time>2026-04-09T08:59:25Z</time></trkpt><trkpt lat="44.58214523957468" lon="8.7912209030117"><ele>551.0</ele><time>2026-04-09T08:59:26Z</time></trkpt><trkpt lat="44.5820883452491" lon="8.79117922413748"><ele>551.0</ele><time>2026-04-09T08:59:27Z</time></trkpt><trkpt lat="44.582038958958314" lon="8.791099932590845"><ele>551.0</ele><time>2026-04-09T08:59:28Z</time></trkpt><trkpt lat="44.58201161396424" lon="8.79099263968533"><ele>550.9999999999999</ele><time>2026-04-09T08:59:29Z</time></trkpt><trkpt lat="44.58197593869179" lon="8.790903063016037"><ele>551.0</ele><time>2026-04-09T08:59:30Z</time></trkpt><trkpt lat="44.58191611197739" lon="8.790844455817192"><ele>545.0</ele><time>2026-04-09T08:59:31Z</time></trkpt><trkpt lat="44.58182565340511" lon="8.790807794359177"><ele>539.0</ele><time>2026-04-09T08:59:32Z</time></trkpt><trkpt lat="44.58172359833294" lon="8.790790495725226"><ele>533.0</ele><time>2026-04-09T08:59:33Z</time></trkpt><trkpt lat="44.58161912206069" lon="8.790785357065069"><ele>527.0</ele><time>2026-04-09T08:59:34Z</time></trkpt><trkpt lat="44.58151733902191" lon="8.790800373959595"><ele>521.0</ele><time>2026-04-09T08:59:35Z</time></trkpt><trkpt lat="44.58142338642298" lon="8.790837364228224"><ele>521.0</ele><time>2026-04-09T08:59:36Z</time></trkpt><trkpt lat="44.58133227809675" lon="8.79086439655354"><ele>521.0</ele><time>2026-04-09T08:59:37Z</time></trkpt><trkpt lat="44.581255243610684" lon="8.790828174107853"><ele>521.0</ele><time>2026-04-09T08:59:38Z</time></trkpt><trkpt lat="44.58118991089721" lon="8.790748640066397"><ele>521.0</ele><time>2026-04-09T08:59:39Z</time></trkpt><trkpt lat="44.581130165342614" lon="8.790661793077247"><ele>521.0</ele><time>2026-04-09T08:59:40Z</time></trkpt><trkpt lat="44.581072378725764" lon="8.790566284552153"><ele>521.0</ele><time>2026-04-09T08:59:41Z</time></trkpt><trkpt lat="44.581020488092285" lon="8.790458088398431"><ele>521.5</ele><time>2026-04-09T08:59:42Z</time></trkpt><trkpt lat="44.580971684646414" lon="8.79035935392834"><ele>522.0</ele><time>2026-04-09T08:59:43Z</time></trkpt><trkpt lat="44.580929362397946" lon="8.790251058086554"><ele>522.5</ele><time>2026-04-09T08:59:44Z</time></trkpt><trkpt lat="44.58091267618565" lon="8.790154096088349"><ele>523.0</ele><time>2026-04-09T08:59:45Z</time></trkpt><trkpt lat="44.58091323663343" lon="8.790051713494021"><ele>523.5</ele><time>2026-04-09T08:59:46Z</time></trkpt><trkpt lat="44.58090431359723" lon="8.789948578785488"><ele>524.0</ele><time>2026-04-09T08:59:47Z</time></trkpt><trkpt lat="44.58087230084982" lon="8.789835526727073"><ele>524.0</ele><time>2026-04-09T08:59:48Z</time></trkpt><trkpt lat="44.580849659096856" lon="8.789713648357683"><ele>524.0</ele><time>2026-04-09T08:59:49Z</time></trkpt><trkpt lat="44.58085408057223" lon="8.789592659361606"><ele>524.0</ele><time>2026-04-09T08:59:50Z</time></trkpt><trkpt lat="44.58085315584774" lon="8.78946979119427"><ele>524.0</ele><time>2026-04-09T08:59:51Z</time></trkpt><trkpt lat="44.5808250757173" lon="8.789349852828622"><ele>524.0</ele><time>2026-04-09T08:59:52Z</time></trkpt><trkpt lat="44.58077152855758" lon="8.789219558714674"><ele>521.0</ele><time>2026-04-09T08:59:53Z</time></trkpt><trkpt lat="44.58073000416298" lon="8.789107647544602"><ele>518.0</ele><time>2026-04-09T08:59:54Z</time></trkpt><trkpt lat="44.58068717651064" lon="8.789011451577073"><ele>515.0</ele><time>2026-04-09T08:59:55Z</time></trkpt><trkpt lat="44.58062597724096" lon="8.788936195822515"><ele>512.0</ele><time>2026-04-09T08:59:56Z</time></trkpt><trkpt lat="44.58055039313335" lon="8.788865711748493"><ele>508.99999999999994</ele><time>2026-04-09T08:59:57Z</time></trkpt><trkpt lat="44.58046500782903" lon="8.788815851730886"><ele>506.0</ele><time>2026-04-09T08:59:58Z</time></trkpt><trkpt lat="44.58038442595875" lon="8.788750645019261"><ele>511.66666666666663</ele><time>2026-04-09T08:59:59Z</time></trkpt><trkpt lat="44.58033566829682" lon="8.788651791525334"><ele>517.3333333333333</ele><time>2026-04-09T09:00:00Z</time></trkpt><trkpt lat="44.58031348666549" lon="8.788532645897835"><ele>523.0</ele><time>2026-04-09T09:00:01Z</time></trkpt><trkpt lat="44.58028567455674" lon="8.788417665347335"><ele>528.6666666666666</ele><time>2026-04-09T09:00:02Z</time></trkpt><trkpt lat="44.5802425292436" lon="8.7883073786162"><ele>534.3333333333334</ele><time>2026-04-09T09:00:03Z</time></trkpt><trkpt lat="44.58019393981594" lon="8.788190748746512"><ele>540.0</ele><time>2026-04-09T09:00:04Z</time></trkpt><trkpt lat="44.5801295023108" lon="8.788069770070312"><ele>540.0</ele><time>2026-04-09T09:00:05Z</time></trkpt><trkpt lat="44.58006409452368" lon="8.787946463492483"><ele>540.0</ele><time>2026-04-09T09:00:06Z</time></trkpt><trkpt lat="44.579991357588874" lon="8.787822278959545"><ele>540.0</ele><time>2026-04-09T09:00:07Z</time></trkpt><trkpt lat="44.579925103868824" lon="8.787689182724014"><ele>540.0</ele><time>2026-04-09T09:00:08Z</time></trkpt><trkpt lat="44.579864008864654" lon="8.787550491551155"><ele>536.3333333333334</ele><time>2026-04-09T09:00:09Z</time></trkpt><trkpt lat="44.5797958626587" lon="8.787415695141455"><ele>532.6666666666666</ele><time>2026-04-09T09:00:10Z</time></trkpt><trkpt lat="44.57973400377887" lon="8.78731055804137"><ele>529.0</ele><time>2026-04-09T09:00:11Z</time></trkpt><trkpt lat="44.57968130197126" lon="8.787215316314363"><ele>525.3333333333333</ele><time>2026-04-09T09:00:12Z</time></trkpt><trkpt lat="44.579657609816294" lon="8.78711785349235"><ele>521.6666666666666</ele><time>2026-04-09T09:00:13Z</time></trkpt><trkpt lat="44.57965530263477" lon="8.787023593195658"><ele>518.0</ele><time>2026-04-09T09:00:14Z</time></trkpt><trkpt lat="44.5796759004754" lon="8.786932400778246"><ele>515.1666666666666</ele><time>2026-04-09T09:00:15Z</time></trkpt><trkpt lat="44.5797107390379" lon="8.786835093466227"><ele>512.3333333333333</ele><time>2026-04-09T09:00:16Z</time></trkpt><trkpt lat="44.57974133176735" lon="8.786728152114375"><ele>509.5</ele><time>2026-04-09T09:00:17Z</time></trkpt><trkpt lat="44.57975380410523" lon="8.786618325732722"><ele>506.66666666666663</ele><time>2026-04-09T09:00:18Z</time></trkpt><trkpt lat="44.57973684942785" lon="8.786493878180542"><ele>503.8333333333333</ele><time>2026-04-09T09:00:19Z</time></trkpt><trkpt lat="44.579691485311194" lon="8.786386395565842"><ele>501.0</ele><time>2026-04-09T09:00:20Z</time></trkpt><trkpt lat="44.57963019237399" lon="8.786283074457275"><ele>501.0</ele><time>2026-04-09T09:00:21Z</time></trkpt><trkpt lat="44.57958300080336" lon="8.786174948798994"><ele>501.0</ele><time>2026-04-09T09:00:22Z</time></trkpt><trkpt lat="44.57956664208926" lon="8.786062366074182"><ele>501.0</ele><time>2026-04-09T09:00:23Z</time></trkpt><trkpt lat="44.57957971979715" lon="8.785971044373914"><ele>501.0</ele><time>2026-04-09T09:00:24Z</time></trkpt><trkpt lat="44.57960892793399" lon="8.785850407268294"><ele>501.0</ele><time>2026-04-09T09:00:26Z</time></trkpt><trkpt lat="44.57956796170688" lon="8.785695566804762"><ele>501.0</ele><time>2026-04-09T09:06:35Z</time></trkpt><trkpt lat="44.57953557611282" lon="8.785614760395411"><ele>505.1666666666667</ele><time>2026-04-09T09:06:36Z</time></trkpt><trkpt lat="44.57951205619594" lon="8.785517362587864"><ele>509.33333333333337</ele><time>2026-04-09T09:06:37Z</time></trkpt><trkpt lat="44.57949484980118" lon="8.7854111423584"><ele>513.5</ele><time>2026-04-09T09:06:38Z</time></trkpt><trkpt lat="44.57947799556729" lon="8.785309949120748"><ele>517.6666666666667</ele><time>2026-04-09T09:06:39Z</time></trkpt><trkpt lat="44.57945572748687" lon="8.78519670563015"><ele>521.8333333333334</ele><time>2026-04-09T09:06:40Z</time></trkpt><trkpt lat="44.57943539166588" lon="8.785080440465036"><ele>526.0</ele><time>2026-04-09T09:06:41Z</time></trkpt><trkpt lat="44.579415078532875" lon="8.784971997240957"><ele>526.0</ele><time>2026-04-09T09:06:42Z</time></trkpt><trkpt lat="44.579392341188296" lon="8.784866236619166"><ele>526.0</ele><time>2026-04-09T09:06:43Z</time></trkpt><trkpt lat="44.579364712829815" lon="8.784759785822148"><ele>526.0</ele><time>2026-04-09T09:06:44Z</time></trkpt><trkpt lat="44.57933461019795" lon="8.784658420850839"><ele>526.0</ele><time>2026-04-09T09:06:45Z</time></trkpt><trkpt lat="44.57931001717692" lon="8.784564734936357"><ele>526.0</ele><time>2026-04-09T09:06:46Z</time></trkpt><trkpt lat="44.57928840674505" lon="8.784463912438328"><ele>526.0</ele><time>2026-04-09T09:06:47Z</time></trkpt><trkpt lat="44.579266116365275" lon="8.784361888579172"><ele>522.5</ele><time>2026-04-09T09:06:48Z</time></trkpt><trkpt lat="44.57923626058195" lon="8.78426697303232"><ele>519.0</ele><time>2026-04-09T09:06:49Z</time></trkpt><trkpt lat="44.57918700210689" lon="8.784190609802993"><ele>515.5</ele><time>2026-04-09T09:06:50Z</time></trkpt><trkpt lat="44.5791164825614" lon="8.784164979532752"><ele>512.0</ele><time>2026-04-09T09:06:51Z</time></trkpt><trkpt lat="44.57904990839802" lon="8.784166756939136"><ele>508.50000000000006</ele><time>2026-04-09T09:06:52Z</time></trkpt><trkpt lat="44.57897230775192" lon="8.78421896455243"><ele>505.0</ele><time>2026-04-09T09:06:53Z</time></trkpt><trkpt lat="44.57891861165349" lon="8.784309663080478"><ele>504.2</ele><time>2026-04-09T09:06:54Z</time></trkpt><trkpt lat="44.578865122447176" lon="8.784415236930672"><ele>503.4</ele><time>2026-04-09T09:06:55Z</time></trkpt><trkpt lat="44.57881487775386" lon="8.78452278320096"><ele>502.6</ele><time>2026-04-09T09:06:56Z</time></trkpt><trkpt lat="44.57876569120818" lon="8.78464475486433"><ele>501.8</ele><time>2026-04-09T09:06:57Z</time></trkpt><trkpt lat="44.57871695996375" lon="8.78477079404415"><ele>501.0</ele><time>2026-04-09T09:06:58Z</time></trkpt><trkpt lat="44.57866636116774" lon="8.784898328270664"><ele>501.0</ele><time>2026-04-09T09:06:59Z</time></trkpt><trkpt lat="44.57861846867994" lon="8.785030668738951"><ele>501.0</ele><time>2026-04-09T09:07:00Z</time></trkpt><trkpt lat="44.578568267424956" lon="8.78516563494775"><ele>501.0</ele><time>2026-04-09T09:07:01Z</time></trkpt><trkpt lat="44.57851871043802" lon="8.785301786403517"><ele>501.0</ele><time>2026-04-09T09:07:02Z</time></trkpt><trkpt lat="44.57846623216215" lon="8.78543609211663"><ele>501.0</ele><time>2026-04-09T09:07:03Z</time></trkpt><trkpt lat="44.578407620837375" lon="8.785565164010976"><ele>506.4</ele><time>2026-04-09T09:07:04Z</time></trkpt><trkpt lat="44.5783423166131" lon="8.785686240255888"><ele>511.8</ele><time>2026-04-09T09:07:05Z</time></trkpt><trkpt lat="44.57827020314769" lon="8.785800466071445"><ele>517.1999999999999</ele><time>2026-04-09T09:07:06Z</time></trkpt><trkpt lat="44.57819288000971" lon="8.785905004974321"><ele>522.6</ele><time>2026-04-09T09:07:07Z</time></trkpt><trkpt lat="44.57813291721595" lon="8.78601534657509"><ele>528.0</ele><time>2026-04-09T09:07:08Z</time></trkpt><trkpt lat="44.578072843901985" lon="8.78612545469079"><ele>525.1999999999999</ele><time>2026-04-09T09:07:09Z</time></trkpt><trkpt lat="44.577998815899726" lon="8.786230358534917"><ele>522.4</ele><time>2026-04-09T09:07:10Z</time></trkpt><trkpt lat="44.57791565438864" lon="8.786323017771469"><ele>519.5999999999999</ele><time>2026-04-09T09:07:11Z</time></trkpt><trkpt lat="44.577830797427815" lon="8.786417170415787"><ele>516.8</ele><time>2026-04-09T09:07:12Z</time></trkpt><trkpt lat="44.57775467526734" lon="8.786523511454165"><ele>514.0</ele><time>2026-04-09T09:07:13Z</time></trkpt><trkpt lat="44.577684605743485" lon="8.786632489961406"><ele>514.0</ele><time>2026-04-09T09:07:14Z</time></trkpt><trkpt lat="44.577615478030985" lon="8.786744690631133"><ele>514.0</ele><time>2026-04-09T09:07:15Z</time></trkpt><trkpt lat="44.57754971903591" lon="8.78685646386299"><ele>514.0</ele><time>2026-04-09T09:07:16Z</time></trkpt><trkpt lat="44.57748426455832" lon="8.786968290060505"><ele>514.0</ele><time>2026-04-09T09:07:17Z</time></trkpt><trkpt lat="44.57740715837491" lon="8.787064960888486"><ele>514.0</ele><time>2026-04-09T09:07:18Z</time></trkpt><trkpt lat="44.577318353025355" lon="8.787149929581384"><ele>512.6</ele><time>2026-04-09T09:07:19Z</time></trkpt><trkpt lat="44.577232654585266" lon="8.787245137063339"><ele>511.2</ele><time>2026-04-09T09:07:20Z</time></trkpt><trkpt lat="44.577155493045844" lon="8.787359374565268"><ele>509.80000000000007</ele><time>2026-04-09T09:07:21Z</time></trkpt><trkpt lat="44.57707819665188" lon="8.787471623375668"><ele>508.40000000000003</ele><time>2026-04-09T09:07:22Z</time></trkpt><trkpt lat="44.576994523910045" lon="8.787568078543746"><ele>507.0</ele><time>2026-04-09T09:07:23Z</time></trkpt><trkpt lat="44.57690841766946" lon="8.787650710587654"><ele>512.3333333333334</ele><time>2026-04-09T09:07:24Z</time></trkpt><trkpt lat="44.57683362747747" lon="8.78773911556498"><ele>517.6666666666666</ele><time>2026-04-09T09:07:25Z</time></trkpt><trkpt lat="44.57676707943941" lon="8.787807529066948"><ele>523.0</ele><time>2026-04-09T09:07:26Z</time></trkpt><trkpt lat="44.576703581321496" lon="8.787865060963496"><ele>528.3333333333333</ele><time>2026-04-09T09:07:27Z</time></trkpt><trkpt lat="44.57664019518623" lon="8.7879239167497"><ele>533.6666666666666</ele><time>2026-04-09T09:07:28Z</time></trkpt><trkpt lat="44.57658335585429" lon="8.788004927773068"><ele>539.0</ele><time>2026-04-09T09:07:29Z</time></trkpt><trkpt lat="44.57653332395963" lon="8.788099750773895"><ele>539.0</ele><time>2026-04-09T09:07:30Z</time></trkpt><trkpt lat="44.5764783308788" lon="8.78819338312492"><ele>539.0</ele><time>2026-04-09T09:07:31Z</time></trkpt><trkpt lat="44.57641070516343" lon="8.788274094792948"><ele>539.0</ele><time>2026-04-09T09:07:32Z</time></trkpt><trkpt lat="44.576333960053695" lon="8.788334022384909"><ele>539.0</ele><time>2026-04-09T09:07:33Z</time></trkpt><trkpt lat="44.57625129138765" lon="8.788371451010015"><ele>539.0</ele><time>2026-04-09T09:07:34Z</time></trkpt><trkpt lat="44.576171303486056" lon="8.788368148915854"><ele>539.0</ele><time>2026-04-09T09:07:35Z</time></trkpt><trkpt lat="44.57611052412145" lon="8.788332526317395"><ele>537.6</ele><time>2026-04-09T09:07:36Z</time></trkpt><trkpt lat="44.575979115093645" lon="8.788302303043851"><ele>536.2</ele><time>2026-04-09T09:07:38Z</time></trkpt><trkpt lat="44.57593154786782" lon="8.788367672133264"><ele>534.8000000000001</ele><time>2026-04-09T09:07:39Z</time></trkpt><trkpt lat="44.57590031866163" lon="8.788475074419498"><ele>533.4</ele><time>2026-04-09T09:07:40Z</time></trkpt><trkpt lat="44.57587455541684" lon="8.788590491273716"><ele>532.0</ele><time>2026-04-09T09:07:41Z</time></trkpt><trkpt lat="44.57582695824914" lon="8.788695092539852"><ele>532.0</ele><time>2026-04-09T09:07:42Z</time></trkpt><trkpt lat="44.57577503577868" lon="8.788811857939931"><ele>532.0</ele><time>2026-04-09T09:07:43Z</time></trkpt><trkpt lat="44.575731676051184" lon="8.788936297596857"><ele>532.0</ele><time>2026-04-09T09:07:44Z</time></trkpt><trkpt lat="44.5757105447407" lon="8.789071967094442"><ele>532.0</ele><time>2026-04-09T09:07:45Z</time></trkpt><trkpt lat="44.5756872931738" lon="8.789191268128555"><ele>532.0</ele><time>2026-04-09T09:07:46Z</time></trkpt><trkpt lat="44.57564174796379" lon="8.789278306429601"><ele>532.0</ele><time>2026-04-09T09:07:47Z</time></trkpt><trkpt lat="44.575562837610015" lon="8.78932304534127"><ele>532.0</ele><time>2026-04-09T09:07:48Z</time></trkpt><trkpt lat="44.57547558755199" lon="8.78936834863844"><ele>532.0</ele><time>2026-04-09T09:07:49Z</time></trkpt><trkpt lat="44.57538499939375" lon="8.789424128721903"><ele>532.0</ele><time>2026-04-09T09:07:50Z</time></trkpt><trkpt lat="44.5752887076855" lon="8.789480124131366"><ele>532.0</ele><time>2026-04-09T09:07:51Z</time></trkpt><trkpt lat="44.5751898455325" lon="8.789520648281819"><ele>533.6</ele><time>2026-04-09T09:07:52Z</time></trkpt><trkpt lat="44.575089108709385" lon="8.789546064540788"><ele>535.2</ele><time>2026-04-09T09:07:53Z</time></trkpt><trkpt lat="44.57498812082697" lon="8.78957523495987"><ele>536.8</ele><time>2026-04-09T09:07:54Z</time></trkpt><trkpt lat="44.57489074275695" lon="8.789592404492284"><ele>538.4</ele><time>2026-04-09T09:07:55Z</time></trkpt><trkpt lat="44.574794259599" lon="8.78957906206872"><ele>540.0</ele><time>2026-04-09T09:07:56Z</time></trkpt><trkpt lat="44.57469454850264" lon="8.789536886654886"><ele>540.0</ele><time>2026-04-09T09:07:57Z</time></trkpt><trkpt lat="44.57459775137046" lon="8.789480117947274"><ele>540.0</ele><time>2026-04-09T09:07:58Z</time></trkpt><trkpt lat="44.574493521512686" lon="8.78942065002228"><ele>540.0</ele><time>2026-04-09T09:07:59Z</time></trkpt><trkpt lat="44.57438135507203" lon="8.789372954863344"><ele>540.0</ele><time>2026-04-09T09:08:00Z</time></trkpt><trkpt lat="44.574313275854735" lon="8.789360349800704"><ele>540.0</ele><time>2026-04-09T09:08:00.999Z</time></trkpt><trkpt lat="44.57423233524057" lon="8.789340875266442"><ele>533.3333333333334</ele><time>2026-04-09T09:08:01.999Z</time></trkpt><trkpt lat="44.574140717775094" lon="8.789317696717145"><ele>526.6666666666666</ele><time>2026-04-09T09:08:02.999Z</time></trkpt><trkpt lat="44.57405186693379" lon="8.789298070328524"><ele>520.0</ele><time>2026-04-09T09:08:03.999Z</time></trkpt><trkpt lat="44.5739701778379" lon="8.78928650567246"><ele>513.3333333333333</ele><time>2026-04-09T09:08:04.999Z</time></trkpt><trkpt lat="44.573891360743225" lon="8.789278597060182"><ele>506.66666666666663</ele><time>2026-04-09T09:08:05.999Z</time></trkpt><trkpt lat="44.573822201303166" lon="8.789270611462708"><ele>500.0</ele><time>2026-04-09T09:08:06.999Z</time></trkpt><trkpt lat="44.57371640331742" lon="8.789250035752433"><ele>498.8333333333333</ele><time>2026-04-09T09:08:08.999Z</time></trkpt><trkpt lat="44.5736498925186" lon="8.789225060196761"><ele>497.66666666666663</ele><time>2026-04-09T09:08:10.999Z</time></trkpt><trkpt lat="44.57359029215536" lon="8.789195745515306"><ele>496.5</ele><time>2026-04-09T09:08:13.999Z</time></trkpt><trkpt lat="44.57352700893397" lon="8.789144227436367"><ele>495.33333333333337</ele><time>2026-04-09T09:08:16Z</time></trkpt><trkpt lat="44.57343571630181" lon="8.789088517076387"><ele>494.1666666666667</ele><time>2026-04-09T09:08:18Z</time></trkpt><trkpt lat="44.57331667005894" lon="8.789036625864892"><ele>493.0</ele><time>2026-04-09T09:08:20Z</time></trkpt><trkpt lat="44.57325209579284" lon="8.789014353905815"><ele>493.0</ele><time>2026-04-09T09:08:21Z</time></trkpt><trkpt lat="44.5731194524747" lon="8.7889838039224"><ele>492.99999999999994</ele><time>2026-04-09T09:08:23Z</time></trkpt><trkpt lat="44.57305154540336" lon="8.788969435598808"><ele>492.99999999999994</ele><time>2026-04-09T09:08:24Z</time></trkpt><trkpt lat="44.57293989515992" lon="8.788945400198141"><ele>493.0</ele><time>2026-04-09T09:08:26Z</time></trkpt><trkpt lat="44.57283958920042" lon="8.788927478976275"><ele>493.0</ele><time>2026-04-09T09:08:28Z</time></trkpt><trkpt lat="44.572735711355506" lon="8.788935843844692"><ele>493.79999999999995</ele><time>2026-04-09T09:08:30Z</time></trkpt><trkpt lat="44.57263201421397" lon="8.788987565876148"><ele>494.59999999999997</ele><time>2026-04-09T09:08:32Z</time></trkpt><trkpt lat="44.5725715301735" lon="8.789128844242832"><ele>495.40000000000003</ele><time>2026-04-09T09:08:34Z</time></trkpt><trkpt lat="44.572565179533655" lon="8.789292669677813"><ele>496.20000000000005</ele><time>2026-04-09T09:08:36Z</time></trkpt><trkpt lat="44.57255929499231" lon="8.78938180679207"><ele>497.0</ele><time>2026-04-09T09:08:37Z</time></trkpt><trkpt lat="44.57254467832252" lon="8.789484258586452"><ele>496.99999999999994</ele><time>2026-04-09T09:08:38Z</time></trkpt><trkpt lat="44.572524525887694" lon="8.789591490704037"><ele>497.0</ele><time>2026-04-09T09:08:39Z</time></trkpt><trkpt lat="44.57250196379828" lon="8.78970424999812"><ele>497.0</ele><time>2026-04-09T09:08:40Z</time></trkpt><trkpt lat="44.57248317277767" lon="8.789822948249448"><ele>497.0</ele><time>2026-04-09T09:08:41Z</time></trkpt><trkpt lat="44.572470533625456" lon="8.789948203237195"><ele>496.99999999999994</ele><time>2026-04-09T09:08:42Z</time></trkpt><trkpt lat="44.57245141381872" lon="8.790070549885696"><ele>497.0</ele><time>2026-04-09T09:08:43Z</time></trkpt><trkpt lat="44.572436698839724" lon="8.790195811122423"><ele>497.8</ele><time>2026-04-09T09:08:44Z</time></trkpt><trkpt lat="44.57243711322077" lon="8.790324985409022"><ele>498.6</ele><time>2026-04-09T09:08:45Z</time></trkpt><trkpt lat="44.57243964028557" lon="8.790455632398647"><ele>499.40000000000003</ele><time>2026-04-09T09:08:46Z</time></trkpt><trkpt lat="44.5724395820997" lon="8.790586668499255"><ele>500.20000000000005</ele><time>2026-04-09T09:08:47Z</time></trkpt><trkpt lat="44.57243979102841" lon="8.790717222446037"><ele>501.0</ele><time>2026-04-09T09:08:48Z</time></trkpt><trkpt lat="44.57243696207546" lon="8.79084570123741"><ele>501.0</ele><time>2026-04-09T09:08:49Z</time></trkpt><trkpt lat="44.57242786677091" lon="8.790973861077186"><ele>501.0</ele><time>2026-04-09T09:08:50Z</time></trkpt><trkpt lat="44.57240502055482" lon="8.791103001358392"><ele>501.0</ele><time>2026-04-09T09:08:51Z</time></trkpt><trkpt lat="44.57237541714555" lon="8.79123076398308"><ele>501.0</ele><time>2026-04-09T09:08:52Z</time></trkpt><trkpt lat="44.572340904448524" lon="8.791353591307859"><ele>501.0</ele><time>2026-04-09T09:08:53Z</time></trkpt><trkpt lat="44.57231565147392" lon="8.791473672654435"><ele>501.8</ele><time>2026-04-09T09:08:54Z</time></trkpt><trkpt lat="44.57229916301016" lon="8.791607767276478"><ele>502.6</ele><time>2026-04-09T09:08:55Z</time></trkpt><trkpt lat="44.572292181403085" lon="8.791758077206493"><ele>503.4</ele><time>2026-04-09T09:08:56Z</time></trkpt><trkpt lat="44.57228849764765" lon="8.791911912144768"><ele>504.2</ele><time>2026-04-09T09:08:57Z</time></trkpt><trkpt lat="44.57228351131346" lon="8.79206325700969"><ele>505.0</ele><time>2026-04-09T09:08:58Z</time></trkpt><trkpt lat="44.572285105123" lon="8.792202198572134"><ele>505.0</ele><time>2026-04-09T09:08:59Z</time></trkpt><trkpt lat="44.57228652970293" lon="8.792320325238576"><ele>505.0</ele><time>2026-04-09T09:09:00Z</time></trkpt><trkpt lat="44.572282615495716" lon="8.792416072432726"><ele>505.0</ele><time>2026-04-09T09:09:01Z</time></trkpt><trkpt lat="44.57224793523289" lon="8.792561505923116"><ele>505.0</ele><time>2026-04-09T09:09:03Z</time></trkpt><trkpt lat="44.57216322810828" lon="8.792619371489698"><ele>505.0</ele><time>2026-04-09T09:09:05Z</time></trkpt><trkpt lat="44.57209096917775" lon="8.792520317201491"><ele>505.00000000000006</ele><time>2026-04-09T09:09:07Z</time></trkpt><trkpt lat="44.57207112965758" lon="8.792338531186699"><ele>505.0</ele><time>2026-04-09T09:09:09Z</time></trkpt><trkpt lat="44.57205205803596" lon="8.792240523065187"><ele>505.0</ele><time>2026-04-09T09:09:10Z</time></trkpt><trkpt lat="44.57202542370865" lon="8.792135620435317"><ele>505.0</ele><time>2026-04-09T09:09:11Z</time></trkpt><trkpt lat="44.571997169990816" lon="8.79202848931569"><ele>505.00000000000006</ele><time>2026-04-09T09:09:12Z</time></trkpt><trkpt lat="44.571966179954586" lon="8.791918463371529"><ele>505.0</ele><time>2026-04-09T09:09:13Z</time></trkpt><trkpt lat="44.571935459554176" lon="8.791809622859978"><ele>510.1666666666667</ele><time>2026-04-09T09:09:14Z</time></trkpt><trkpt lat="44.57190178682273" lon="8.791715315468847"><ele>515.3333333333334</ele><time>2026-04-09T09:09:15Z</time></trkpt><trkpt lat="44.571870340731074" lon="8.791631679529765"><ele>520.5</ele><time>2026-04-09T09:09:16Z</time></trkpt><trkpt lat="44.57185340516431" lon="8.791538133433152"><ele>525.6666666666666</ele><time>2026-04-09T09:09:17Z</time></trkpt><trkpt lat="44.57184162781402" lon="8.791442807012773"><ele>530.8333333333333</ele><time>2026-04-09T09:09:18Z</time></trkpt><trkpt lat="44.571833676592526" lon="8.791302223780756"><ele>536.0</ele><time>2026-04-09T09:09:20Z</time></trkpt><trkpt lat="44.57184919483588" lon="8.791158567157238"><ele>536.0</ele><time>2026-04-09T09:09:22Z</time></trkpt><trkpt lat="44.5718481788442" lon="8.791005852552436"><ele>536.0</ele><time>2026-04-09T09:09:24Z</time></trkpt><trkpt lat="44.57176937042487" lon="8.790932203575132"><ele>536.0</ele><time>2026-04-09T09:09:26Z</time></trkpt><trkpt lat="44.571683468784926" lon="8.791011330491916"><ele>536.0</ele><time>2026-04-09T09:09:28Z</time></trkpt><trkpt lat="44.57166670807115" lon="8.7911158232055"><ele>536.0</ele><time>2026-04-09T09:09:29Z</time></trkpt><trkpt lat="44.57165627268158" lon="8.79122421880481"><ele>536.0</ele><time>2026-04-09T09:09:30Z</time></trkpt><trkpt lat="44.5716385757802" lon="8.79133848537879"><ele>536.0</ele><time>2026-04-09T09:09:31Z</time></trkpt><trkpt lat="44.57161014874317" lon="8.791453203108075"><ele>536.0</ele><time>2026-04-09T09:09:32Z</time></trkpt><trkpt lat="44.571592858024275" lon="8.791565913717825"><ele>536.0</ele><time>2026-04-09T09:09:33Z</time></trkpt><trkpt lat="44.57159079132073" lon="8.791689946897002"><ele>536.0</ele><time>2026-04-09T09:09:34Z</time></trkpt><trkpt lat="44.571597054239504" lon="8.791815732757495"><ele>536.0</ele><time>2026-04-09T09:09:35Z</time></trkpt><trkpt lat="44.571582478266485" lon="8.791950565077396"><ele>536.0</ele><time>2026-04-09T09:09:36Z</time></trkpt><trkpt lat="44.571575934921896" lon="8.79208615312995"><ele>536.0</ele><time>2026-04-09T09:09:37Z</time></trkpt><trkpt lat="44.57156143632388" lon="8.7922206969623"><ele>536.0</ele><time>2026-04-09T09:09:38Z</time></trkpt><trkpt lat="44.571542425734684" lon="8.792347800915506"><ele>536.0</ele><time>2026-04-09T09:09:39Z</time></trkpt><trkpt lat="44.571524603371756" lon="8.792464910608237"><ele>536.0</ele><time>2026-04-09T09:09:40Z</time></trkpt><trkpt lat="44.571514617982075" lon="8.792580905400182"><ele>534.5</ele><time>2026-04-09T09:09:41Z</time></trkpt><trkpt lat="44.57150603315173" lon="8.79270609688513"><ele>533.0</ele><time>2026-04-09T09:09:42Z</time></trkpt><trkpt lat="44.57151158197683" lon="8.792830219431199"><ele>531.5</ele><time>2026-04-09T09:09:43Z</time></trkpt><trkpt lat="44.571512980026064" lon="8.792951270606967"><ele>530.0</ele><time>2026-04-09T09:09:44Z</time></trkpt><trkpt lat="44.57151602211268" lon="8.793067094130677"><ele>528.5</ele><time>2026-04-09T09:09:45Z</time></trkpt><trkpt lat="44.57152077865779" lon="8.793170459929753"><ele>527.0</ele><time>2026-04-09T09:09:46Z</time></trkpt><trkpt lat="44.57150883477788" lon="8.793270234311782"><ele>527.0000000000001</ele><time>2026-04-09T09:09:47Z</time></trkpt><trkpt lat="44.571479068305585" lon="8.793348763675018"><ele>527.0</ele><time>2026-04-09T09:09:48Z</time></trkpt><trkpt lat="44.57142167446351" lon="8.793390452364553"><ele>527.0</ele><time>2026-04-09T09:09:49Z</time></trkpt><trkpt lat="44.5713585927329" lon="8.793379012850266"><ele>527.0</ele><time>2026-04-09T09:09:50Z</time></trkpt><trkpt lat="44.57129261903437" lon="8.793331351700127"><ele>527.0</ele><time>2026-04-09T09:09:51Z</time></trkpt><trkpt lat="44.5712289810005" lon="8.79326901943863"><ele>527.0000000000001</ele><time>2026-04-09T09:09:52Z</time></trkpt><trkpt lat="44.5711544720953" lon="8.79321381070921"><ele>527.0</ele><time>2026-04-09T09:09:53Z</time></trkpt><trkpt lat="44.57107695292967" lon="8.793169224444467"><ele>531.1666666666666</ele><time>2026-04-09T09:09:54Z</time></trkpt><trkpt lat="44.571010112763446" lon="8.793146838754524"><ele>535.3333333333333</ele><time>2026-04-09T09:09:55Z</time></trkpt><trkpt lat="44.570933530823595" lon="8.793143653423671"><ele>539.5</ele><time>2026-04-09T09:09:56Z</time></trkpt><trkpt lat="44.5708533004631" lon="8.793168079651805"><ele>543.6666666666666</ele><time>2026-04-09T09:09:57Z</time></trkpt><trkpt lat="44.57077686894566" lon="8.793209301470402"><ele>547.8333333333334</ele><time>2026-04-09T09:09:58Z</time></trkpt><trkpt lat="44.57070212684667" lon="8.793263912619159"><ele>552.0</ele><time>2026-04-09T09:09:59Z</time></trkpt><trkpt lat="44.57062051784889" lon="8.793314497089941"><ele>552.0</ele><time>2026-04-09T09:10:00Z</time></trkpt><trkpt lat="44.570538119752136" lon="8.793324597113344"><ele>552.0</ele><time>2026-04-09T09:10:01Z</time></trkpt><trkpt lat="44.57046665145969" lon="8.793312073665005"><ele>552.0</ele><time>2026-04-09T09:10:02Z</time></trkpt><trkpt lat="44.57039732013083" lon="8.793313098185209"><ele>552.0</ele><time>2026-04-09T09:10:03Z</time></trkpt><trkpt lat="44.57028973206949" lon="8.793383501988043"><ele>552.0</ele><time>2026-04-09T09:10:05Z</time></trkpt><trkpt lat="44.57026075095038" lon="8.793525131855862"><ele>552.0</ele><time>2026-04-09T09:10:07Z</time></trkpt><trkpt lat="44.57029475387166" lon="8.79367762882729"><ele>554.3333333333334</ele><time>2026-04-09T09:10:09Z</time></trkpt><trkpt lat="44.570339563215036" lon="8.793847366522861"><ele>556.6666666666666</ele><time>2026-04-09T09:10:11Z</time></trkpt><trkpt lat="44.57033940051153" lon="8.793947495362849"><ele>559.0</ele><time>2026-04-09T09:10:12Z</time></trkpt><trkpt lat="44.57030886621029" lon="8.79403620923247"><ele>561.3333333333333</ele><time>2026-04-09T09:10:13Z</time></trkpt><trkpt lat="44.57025901373475" lon="8.794109042061931"><ele>563.6666666666666</ele><time>2026-04-09T09:10:14Z</time></trkpt><trkpt lat="44.57020040107712" lon="8.794179734543281"><ele>566.0</ele><time>2026-04-09T09:10:15Z</time></trkpt><trkpt lat="44.57013150682712" lon="8.794237600298047"><ele>566.0</ele><time>2026-04-09T09:10:16Z</time></trkpt><trkpt lat="44.570045857872906" lon="8.794272619692794"><ele>566.0</ele><time>2026-04-09T09:10:17Z</time></trkpt><trkpt lat="44.56995570332646" lon="8.794317573218585"><ele>566.0</ele><time>2026-04-09T09:10:18Z</time></trkpt><trkpt lat="44.56988017076064" lon="8.794372636731639"><ele>566.0</ele><time>2026-04-09T09:10:19Z</time></trkpt><trkpt lat="44.56981762402674" lon="8.794426189495663"><ele>566.0</ele><time>2026-04-09T09:10:20Z</time></trkpt><trkpt lat="44.5697493697376" lon="8.79448032115164"><ele>566.0</ele><time>2026-04-09T09:10:21Z</time></trkpt><trkpt lat="44.56968856839339" lon="8.794531056155726"><ele>566.5</ele><time>2026-04-09T09:10:22Z</time></trkpt><trkpt lat="44.5696217802498" lon="8.794568715785042"><ele>567.0</ele><time>2026-04-09T09:10:23Z</time></trkpt><trkpt lat="44.569548569281125" lon="8.794575397862232"><ele>567.5</ele><time>2026-04-09T09:10:24Z</time></trkpt><trkpt lat="44.56947078746447" lon="8.79456933817463"><ele>568.0</ele><time>2026-04-09T09:10:25Z</time></trkpt><trkpt lat="44.569389973649365" lon="8.794552719133554"><ele>568.5</ele><time>2026-04-09T09:10:26Z</time></trkpt><trkpt lat="44.569312289849705" lon="8.794544773687484"><ele>569.0</ele><time>2026-04-09T09:10:27Z</time></trkpt><trkpt lat="44.56923252889003" lon="8.79453895913181"><ele>569.0</ele><time>2026-04-09T09:10:28Z</time></trkpt><trkpt lat="44.569147767172886" lon="8.794531752217011"><ele>569.0</ele><time>2026-04-09T09:10:29Z</time></trkpt><trkpt lat="44.56906994649298" lon="8.794552206104195"><ele>569.0</ele><time>2026-04-09T09:10:30Z</time></trkpt><trkpt lat="44.56898733342751" lon="8.794588683914169"><ele>569.0</ele><time>2026-04-09T09:10:31Z</time></trkpt><trkpt lat="44.56890817222558" lon="8.794625301414674"><ele>569.0</ele><time>2026-04-09T09:10:32Z</time></trkpt><trkpt lat="44.56884351750961" lon="8.794686175870053"><ele>569.0</ele><time>2026-04-09T09:10:33Z</time></trkpt><trkpt lat="44.56877923034906" lon="8.794734864630207"><ele>569.0</ele><time>2026-04-09T09:10:34Z</time></trkpt><trkpt lat="44.56870017570302" lon="8.79479296671023"><ele>569.0</ele><time>2026-04-09T09:10:35Z</time></trkpt><trkpt lat="44.56861542279082" lon="8.794825847886313"><ele>569.0</ele><time>2026-04-09T09:10:36Z</time></trkpt><trkpt lat="44.56852398504033" lon="8.794826030293082"><ele>569.0</ele><time>2026-04-09T09:10:37Z</time></trkpt><trkpt lat="44.56843027842045" lon="8.794844280158527"><ele>569.0</ele><time>2026-04-09T09:10:38Z</time></trkpt><trkpt lat="44.56833654752697" lon="8.794875514695047"><ele>568.8</ele><time>2026-04-09T09:10:39Z</time></trkpt><trkpt lat="44.56824552375114" lon="8.794910183124124"><ele>568.5999999999999</ele><time>2026-04-09T09:10:40Z</time></trkpt><trkpt lat="44.56815656824283" lon="8.79495304326905"><ele>568.4</ele><time>2026-04-09T09:10:41Z</time></trkpt><trkpt lat="44.568081701337405" lon="8.795036710083872"><ele>568.1999999999999</ele><time>2026-04-09T09:10:42Z</time></trkpt><trkpt lat="44.56801401129345" lon="8.795118550573019"><ele>568.0</ele><time>2026-04-09T09:10:43Z</time></trkpt><trkpt lat="44.567939373474495" lon="8.795189775406994"><ele>568.0</ele><time>2026-04-09T09:10:44Z</time></trkpt><trkpt lat="44.5678629232437" lon="8.795256324895572"><ele>568.0</ele><time>2026-04-09T09:10:45Z</time></trkpt><trkpt lat="44.56777943475973" lon="8.795289814140144"><ele>568.0</ele><time>2026-04-09T09:10:46Z</time></trkpt><trkpt lat="44.56769960408047" lon="8.795275997045103"><ele>568.0</ele><time>2026-04-09T09:10:47Z</time></trkpt><trkpt lat="44.56762258319968" lon="8.795227917882892"><ele>568.0</ele><time>2026-04-09T09:10:48Z</time></trkpt><trkpt lat="44.56756392246643" lon="8.79514833804083"><ele>568.0</ele><time>2026-04-09T09:10:49Z</time></trkpt><trkpt lat="44.56753206713721" lon="8.795029235568206"><ele>573.1999999999999</ele><time>2026-04-09T09:10:50Z</time></trkpt><trkpt lat="44.567528070221556" lon="8.794898840638895"><ele>578.4</ele><time>2026-04-09T09:10:51Z</time></trkpt><trkpt lat="44.567547529451964" lon="8.794765633800369"><ele>583.5999999999999</ele><time>2026-04-09T09:10:52Z</time></trkpt><trkpt lat="44.56757280751353" lon="8.794630915629238"><ele>588.8</ele><time>2026-04-09T09:10:53Z</time></trkpt><trkpt lat="44.567592990756346" lon="8.794491790981391"><ele>594.0</ele><time>2026-04-09T09:10:54Z</time></trkpt><trkpt lat="44.56761179634513" lon="8.7943504463111"><ele>596.0</ele><time>2026-04-09T09:10:55Z</time></trkpt><trkpt lat="44.56763873170756" lon="8.794216274189196"><ele>598.0</ele><time>2026-04-09T09:10:56Z</time></trkpt><trkpt lat="44.567685552793996" lon="8.79410704697018"><ele>600.0</ele><time>2026-04-09T09:10:57Z</time></trkpt><trkpt lat="44.567750961246084" lon="8.794032444383268"><ele>602.0</ele><time>2026-04-09T09:10:58Z</time></trkpt><trkpt lat="44.56783492273865" lon="8.793981690452984"><ele>604.0</ele><time>2026-04-09T09:10:59Z</time></trkpt><trkpt lat="44.56792316932296" lon="8.793942349642787"><ele>604.0</ele><time>2026-04-09T09:11:00Z</time></trkpt><trkpt lat="44.56801251671343" lon="8.793908744167933"><ele>604.0</ele><time>2026-04-09T09:11:01Z</time></trkpt><trkpt lat="44.56809620806022" lon="8.793855467223732"><ele>604.0</ele><time>2026-04-09T09:11:02Z</time></trkpt><trkpt lat="44.568158379199105" lon="8.793759301156964"><ele>604.0</ele><time>2026-04-09T09:11:03Z</time></trkpt><trkpt lat="44.56822496167041" lon="8.793668175785449"><ele>604.0</ele><time>2026-04-09T09:11:04Z</time></trkpt><trkpt lat="44.56829370872609" lon="8.793591364099951"><ele>604.0</ele><time>2026-04-09T09:11:05Z</time></trkpt><trkpt lat="44.568368171590876" lon="8.793535712025284"><ele>604.0</ele><time>2026-04-09T09:11:06Z</time></trkpt><trkpt lat="44.56843330284005" lon="8.79347616576978"><ele>604.0</ele><time>2026-04-09T09:11:07Z</time></trkpt><trkpt lat="44.56849485460726" lon="8.793394464858906"><ele>604.0</ele><time>2026-04-09T09:11:08Z</time></trkpt><trkpt lat="44.56855860002851" lon="8.793316279735537"><ele>604.0</ele><time>2026-04-09T09:11:09Z</time></trkpt><trkpt lat="44.56863395109243" lon="8.793262659786452"><ele>604.0</ele><time>2026-04-09T09:11:10Z</time></trkpt><trkpt lat="44.56869730609094" lon="8.793250455855452"><ele>603.8333333333334</ele><time>2026-04-09T09:11:11Z</time></trkpt><trkpt lat="44.56877879468962" lon="8.793177221580267"><ele>603.6666666666667</ele><time>2026-04-09T09:11:13Z</time></trkpt><trkpt lat="44.56877276956739" lon="8.793060480590153"><ele>603.5</ele><time>2026-04-09T09:11:15Z</time></trkpt><trkpt lat="44.56868290740502" lon="8.793012256648208"><ele>603.3333333333334</ele><time>2026-04-09T09:11:17Z</time></trkpt><trkpt lat="44.568620206437366" lon="8.79303362189472"><ele>603.1666666666666</ele><time>2026-04-09T09:11:18Z</time></trkpt><trkpt lat="44.56855367334045" lon="8.7930536934677"><ele>603.0</ele><time>2026-04-09T09:11:19Z</time></trkpt><trkpt lat="44.56848249359456" lon="8.793069141971385"><ele>605.8333333333334</ele><time>2026-04-09T09:11:20Z</time></trkpt><trkpt lat="44.568404358748914" lon="8.793072502834425"><ele>608.6666666666666</ele><time>2026-04-09T09:11:21Z</time></trkpt><trkpt lat="44.56832613269207" lon="8.793077317268738"><ele>611.5</ele><time>2026-04-09T09:11:22Z</time></trkpt><trkpt lat="44.56823885036926" lon="8.793067562086849"><ele>614.3333333333333</ele><time>2026-04-09T09:11:23Z</time></trkpt><trkpt lat="44.56815413518633" lon="8.79304782164497"><ele>617.1666666666666</ele><time>2026-04-09T09:11:24Z</time></trkpt><trkpt lat="44.568066415525934" lon="8.79300441892854"><ele>620.0</ele><time>2026-04-09T09:11:25Z</time></trkpt><trkpt lat="44.567972562139886" lon="8.792958447523716"><ele>620.0</ele><time>2026-04-09T09:11:26Z</time></trkpt><trkpt lat="44.5678735193898" lon="8.79291462421624"><ele>620.0</ele><time>2026-04-09T09:11:27Z</time></trkpt><trkpt lat="44.56777368524184" lon="8.792871743096319"><ele>620.0</ele><time>2026-04-09T09:11:28Z</time></trkpt><trkpt lat="44.56767459626729" lon="8.792833845327321"><ele>620.0</ele><time>2026-04-09T09:11:29Z</time></trkpt><trkpt lat="44.56757524729013" lon="8.792811096923403"><ele>620.0</ele><time>2026-04-09T09:11:30Z</time></trkpt><trkpt lat="44.567476377038105" lon="8.792802770754893"><ele>621.2</ele><time>2026-04-09T09:11:31Z</time></trkpt><trkpt lat="44.56738526321298" lon="8.79281289959455"><ele>622.4</ele><time>2026-04-09T09:11:32Z</time></trkpt><trkpt lat="44.5672879421503" lon="8.792818713181301"><ele>623.6</ele><time>2026-04-09T09:11:33Z</time></trkpt><trkpt lat="44.567199880441215" lon="8.79282777418979"><ele>624.8</ele><time>2026-04-09T09:11:34Z</time></trkpt><trkpt lat="44.56711174935182" lon="8.79283660243676"><ele>626.0</ele><time>2026-04-09T09:11:35Z</time></trkpt><trkpt lat="44.567027341488995" lon="8.792845339753372"><ele>626.0</ele><time>2026-04-09T09:11:36Z</time></trkpt><trkpt lat="44.5669455348627" lon="8.792856302834481"><ele>626.0</ele><time>2026-04-09T09:11:37Z</time></trkpt><trkpt lat="44.56686026100715" lon="8.79285471493947"><ele>626.0</ele><time>2026-04-09T09:11:38Z</time></trkpt><trkpt lat="44.56677928411444" lon="8.792842816819407"><ele>626.0</ele><time>2026-04-09T09:11:39Z</time></trkpt><trkpt lat="44.56669829049688" lon="8.792822736507663"><ele>626.0</ele><time>2026-04-09T09:11:40Z</time></trkpt><trkpt lat="44.566616856674806" lon="8.792783537485114"><ele>626.0</ele><time>2026-04-09T09:11:41Z</time></trkpt><trkpt lat="44.56653831261033" lon="8.792737228019915"><ele>626.0</ele><time>2026-04-09T09:11:42Z</time></trkpt><trkpt lat="44.566460720051126" lon="8.792684397278926"><ele>626.0</ele><time>2026-04-09T09:11:43Z</time></trkpt><trkpt lat="44.56637819153486" lon="8.792642966510742"><ele>626.0</ele><time>2026-04-09T09:11:44Z</time></trkpt><trkpt lat="44.56628906326167" lon="8.792611483972461"><ele>626.0</ele><time>2026-04-09T09:11:45Z</time></trkpt><trkpt lat="44.56619952002838" lon="8.792587908845595"><ele>626.0</ele><time>2026-04-09T09:11:46Z</time></trkpt><trkpt lat="44.56610859368352" lon="8.792549804789385"><ele>629.1666666666666</ele><time>2026-04-09T09:11:47Z</time></trkpt><trkpt lat="44.5660247879517" lon="8.792478289914126"><ele>632.3333333333333</ele><time>2026-04-09T09:11:48Z</time></trkpt><trkpt lat="44.56595364626333" lon="8.792408984648992"><ele>635.5</ele><time>2026-04-09T09:11:49Z</time></trkpt><trkpt lat="44.56588231635737" lon="8.792338366688359"><ele>638.6666666666666</ele><time>2026-04-09T09:11:50Z</time></trkpt><trkpt lat="44.565821592645385" lon="8.792252340901145"><ele>641.8333333333334</ele><time>2026-04-09T09:11:51Z</time></trkpt><trkpt lat="44.56577057956623" lon="8.792152898098507"><ele>645.0</ele><time>2026-04-09T09:11:52Z</time></trkpt><trkpt lat="44.5657357155144" lon="8.79204361251507"><ele>645.0</ele><time>2026-04-09T09:11:53Z</time></trkpt><trkpt lat="44.56571942498514" lon="8.791929218795627"><ele>645.0</ele><time>2026-04-09T09:11:54Z</time></trkpt><trkpt lat="44.56572646339369" lon="8.791814079015237"><ele>645.0</ele><time>2026-04-09T09:11:55Z</time></trkpt><trkpt lat="44.56573839831988" lon="8.791691861176679"><ele>645.0</ele><time>2026-04-09T09:11:56Z</time></trkpt><trkpt lat="44.5657588939271" lon="8.791567296003112"><ele>645.0</ele><time>2026-04-09T09:11:57Z</time></trkpt><trkpt lat="44.56577671749173" lon="8.791440791591155"><ele>645.0</ele><time>2026-04-09T09:11:58Z</time></trkpt><trkpt lat="44.56577475468107" lon="8.791299847400262"><ele>646.8</ele><time>2026-04-09T09:11:59Z</time></trkpt><trkpt lat="44.565756978327876" lon="8.791162534387025"><ele>648.6</ele><time>2026-04-09T09:12:00Z</time></trkpt><trkpt lat="44.56572484445911" lon="8.791033929807721"><ele>650.4000000000001</ele><time>2026-04-09T09:12:01Z</time></trkpt><trkpt lat="44.565691556239514" lon="8.790909982843061"><ele>652.2</ele><time>2026-04-09T09:12:02Z</time></trkpt><trkpt lat="44.56566213308501" lon="8.790790126568709"><ele>654.0</ele><time>2026-04-09T09:12:03Z</time></trkpt><trkpt lat="44.56565390303287" lon="8.790687670920146"><ele>654.8333333333334</ele><time>2026-04-09T09:12:04Z</time></trkpt><trkpt lat="44.5656623171618" lon="8.790599274304313"><ele>655.6666666666666</ele><time>2026-04-09T09:12:05Z</time></trkpt><trkpt lat="44.565691656757714" lon="8.790511900225637"><ele>656.5</ele><time>2026-04-09T09:12:06Z</time></trkpt><trkpt lat="44.56574814023661" lon="8.790430589207531"><ele>657.3333333333333</ele><time>2026-04-09T09:12:07Z</time></trkpt><trkpt lat="44.56581187106698" lon="8.79035267306673"><ele>658.1666666666666</ele><time>2026-04-09T09:12:08Z</time></trkpt><trkpt lat="44.565880472564814" lon="8.790273194451744"><ele>659.0</ele><time>2026-04-09T09:12:09Z</time></trkpt><trkpt lat="44.565945300300676" lon="8.790185451242106"><ele>658.6</ele><time>2026-04-09T09:12:10Z</time></trkpt><trkpt lat="44.566008369015705" lon="8.79008691104169"><ele>658.2</ele><time>2026-04-09T09:12:11Z</time></trkpt><trkpt lat="44.56606421958117" lon="8.78998593100091"><ele>657.8000000000001</ele><time>2026-04-09T09:12:12Z</time></trkpt><trkpt lat="44.566117476937805" lon="8.789887820136066"><ele>657.4000000000001</ele><time>2026-04-09T09:12:13.001Z</time></trkpt><trkpt lat="44.56617358134375" lon="8.789786511787801"><ele>657.0</ele><time>2026-04-09T09:12:14.001Z</time></trkpt><trkpt lat="44.5662294804085" lon="8.78968487612569"><ele>658.8333333333334</ele><time>2026-04-09T09:12:15.001Z</time></trkpt><trkpt lat="44.56628713696229" lon="8.789580393570414"><ele>660.6666666666666</ele><time>2026-04-09T09:12:16.001Z</time></trkpt><trkpt lat="44.566343802382306" lon="8.789473992966698"><ele>662.5</ele><time>2026-04-09T09:12:17.001Z</time></trkpt><trkpt lat="44.56639876598301" lon="8.78937424682842"><ele>664.3333333333333</ele><time>2026-04-09T09:12:18Z</time></trkpt><trkpt lat="44.56645175444249" lon="8.78927662502195"><ele>666.1666666666666</ele><time>2026-04-09T09:12:19Z</time></trkpt><trkpt lat="44.56650279168913" lon="8.789187582688818"><ele>668.0</ele><time>2026-04-09T09:12:20Z</time></trkpt><trkpt lat="44.566544756229476" lon="8.789098839111192"><ele>668.0</ele><time>2026-04-09T09:12:21Z</time></trkpt><trkpt lat="44.566585556983235" lon="8.78894518974481"><ele>668.0</ele><time>2026-04-09T09:12:23Z</time></trkpt><trkpt lat="44.56657079171321" lon="8.788795214698977"><ele>668.0</ele><time>2026-04-09T09:12:25Z</time></trkpt><trkpt lat="44.566521791067274" lon="8.788689720468113"><ele>668.0</ele><time>2026-04-09T09:12:27Z</time></trkpt><trkpt lat="44.5664554422457" lon="8.788628010082222"><ele>668.0</ele><time>2026-04-09T09:12:37Z</time></trkpt><trkpt lat="44.56639198472578" lon="8.788621507079878"><ele>668.0</ele><time>2026-04-09T09:12:40Z</time></trkpt><trkpt lat="44.566356216276134" lon="8.788705777195634"><ele>668.0</ele><time>2026-04-09T09:12:50Z</time></trkpt><trkpt lat="44.56639432168128" lon="8.788786106246695"><ele>668.0</ele><time>2026-04-09T09:12:53Z</time></trkpt><trkpt lat="44.56645801162712" lon="8.788773364215524"><ele>668.0</ele><time>2026-04-09T09:12:56Z</time></trkpt><trkpt lat="44.56651601678348" lon="8.788683311854713"><ele>668.0</ele><time>2026-04-09T09:12:59Z</time></trkpt><trkpt lat="44.566539981698924" lon="8.78856566433761"><ele>668.0</ele><time>2026-04-09T09:13:01Z</time></trkpt><trkpt lat="44.56656238324898" lon="8.788422299720517"><ele>667.5</ele><time>2026-04-09T09:13:02Z</time></trkpt><trkpt lat="44.56657346688183" lon="8.788311525818955"><ele>667.0</ele><time>2026-04-09T09:13:03Z</time></trkpt><trkpt lat="44.56657648192839" lon="8.788212790588075"><ele>666.5</ele><time>2026-04-09T09:13:04Z</time></trkpt><trkpt lat="44.56654381362721" lon="8.788052351706854"><ele>666.0</ele><time>2026-04-09T09:13:06Z</time></trkpt><trkpt lat="44.566497663004434" lon="8.787971914091866"><ele>665.5</ele><time>2026-04-09T09:13:07Z</time></trkpt><trkpt lat="44.56643862713632" lon="8.787890288188374"><ele>665.0</ele><time>2026-04-09T09:13:08Z</time></trkpt><trkpt lat="44.56637392212501" lon="8.787803721812987"><ele>665.0</ele><time>2026-04-09T09:13:09Z</time></trkpt><trkpt lat="44.5663127792429" lon="8.787706424643945"><ele>665.0</ele><time>2026-04-09T09:13:10Z</time></trkpt><trkpt lat="44.56626383579908" lon="8.78759991256508"><ele>665.0</ele><time>2026-04-09T09:13:11Z</time></trkpt><trkpt lat="44.56622885380379" lon="8.787489918789902"><ele>665.0</ele><time>2026-04-09T09:13:12Z</time></trkpt><trkpt lat="44.56619423536772" lon="8.78738680102356"><ele>665.0</ele><time>2026-04-09T09:13:13Z</time></trkpt><trkpt lat="44.566153324412454" lon="8.787290228529082"><ele>665.0</ele><time>2026-04-09T09:13:14Z</time></trkpt><trkpt lat="44.566115914988146" lon="8.787192887159705"><ele>664.5</ele><time>2026-04-09T09:13:15Z</time></trkpt><trkpt lat="44.5661044605407" lon="8.78710330357022"><ele>664.0</ele><time>2026-04-09T09:13:16Z</time></trkpt><trkpt lat="44.566156442510795" lon="8.786941324010954"><ele>663.5</ele><time>2026-04-09T09:13:18Z</time></trkpt><trkpt lat="44.56620816681206" lon="8.786868575136808"><ele>663.0</ele><time>2026-04-09T09:13:19Z</time></trkpt><trkpt lat="44.56624038388561" lon="8.786779876097576"><ele>662.5</ele><time>2026-04-09T09:13:20Z</time></trkpt><trkpt lat="44.56622703008239" lon="8.786681957343896"><ele>662.0</ele><time>2026-04-09T09:13:21Z</time></trkpt><trkpt lat="44.56618133867745" lon="8.78658414809706"><ele>660.8</ele><time>2026-04-09T09:13:22Z</time></trkpt><trkpt lat="44.56612839634332" lon="8.786495301840027"><ele>659.6</ele><time>2026-04-09T09:13:23Z</time></trkpt><trkpt lat="44.56607844716541" lon="8.786389956056981"><ele>658.4</ele><time>2026-04-09T09:13:24Z</time></trkpt><trkpt lat="44.56604194592853" lon="8.786267214393323"><ele>657.1999999999999</ele><time>2026-04-09T09:13:25Z</time></trkpt><trkpt lat="44.566019594768065" lon="8.786136152806748"><ele>656.0</ele><time>2026-04-09T09:13:26Z</time></trkpt><trkpt lat="44.565986981202734" lon="8.786014583302116"><ele>654.8</ele><time>2026-04-09T09:13:27Z</time></trkpt><trkpt lat="44.565937702366966" lon="8.785905279804213"><ele>653.5999999999999</ele><time>2026-04-09T09:13:28Z</time></trkpt><trkpt lat="44.56587217045536" lon="8.78581049326064"><ele>652.4</ele><time>2026-04-09T09:13:29Z</time></trkpt><trkpt lat="44.56579844439514" lon="8.785725214782447"><ele>651.2</ele><time>2026-04-09T09:13:30Z</time></trkpt><trkpt lat="44.56572920087129" lon="8.78563188293353"><ele>650.0</ele><time>2026-04-09T09:13:31Z</time></trkpt><trkpt lat="44.56566627358433" lon="8.785527106212758"><ele>650.0</ele><time>2026-04-09T09:13:32Z</time></trkpt><trkpt lat="44.56561610285173" lon="8.78541545813613"><ele>650.0</ele><time>2026-04-09T09:13:33Z</time></trkpt><trkpt lat="44.56557851053022" lon="8.785297973019288"><ele>650.0</ele><time>2026-04-09T09:13:34Z</time></trkpt><trkpt lat="44.565555857484235" lon="8.785173368371886"><ele>650.0</ele><time>2026-04-09T09:13:35Z</time></trkpt><trkpt lat="44.565552462957385" lon="8.785032329682004"><ele>650.0</ele><time>2026-04-09T09:13:36Z</time></trkpt><trkpt lat="44.56556906603042" lon="8.7848890448885"><ele>649.8</ele><time>2026-04-09T09:13:37Z</time></trkpt><trkpt lat="44.56558354080767" lon="8.784754231946227"><ele>649.6</ele><time>2026-04-09T09:13:38Z</time></trkpt><trkpt lat="44.56557871378586" lon="8.78460778744668"><ele>649.4000000000001</ele><time>2026-04-09T09:13:39Z</time></trkpt><trkpt lat="44.56556044586967" lon="8.78444676519309"><ele>649.2</ele><time>2026-04-09T09:13:40Z</time></trkpt><trkpt lat="44.565534614231446" lon="8.784292296737936"><ele>649.0</ele><time>2026-04-09T09:13:41Z</time></trkpt><trkpt lat="44.565508158458655" lon="8.784126592360229"><ele>650.4000000000001</ele><time>2026-04-09T09:13:42Z</time></trkpt><trkpt lat="44.56549101313142" lon="8.783951949969701"><ele>651.8</ele><time>2026-04-09T09:13:43Z</time></trkpt><trkpt lat="44.56547677360114" lon="8.783785440515052"><ele>653.2</ele><time>2026-04-09T09:13:44Z</time></trkpt><trkpt lat="44.565454506444965" lon="8.783653558696148"><ele>654.5999999999999</ele><time>2026-04-09T09:13:45Z</time></trkpt><trkpt lat="44.565444621998104" lon="8.783545582707461"><ele>656.0</ele><time>2026-04-09T09:13:46Z</time></trkpt><trkpt lat="44.565455678816996" lon="8.78343992388745"><ele>657.3333333333333</ele><time>2026-04-09T09:13:47Z</time></trkpt><trkpt lat="44.56548300640155" lon="8.78333204870199"><ele>658.6666666666666</ele><time>2026-04-09T09:13:48Z</time></trkpt><trkpt lat="44.56552930957343" lon="8.783229772677918"><ele>660.0</ele><time>2026-04-09T09:13:49Z</time></trkpt><trkpt lat="44.56559246264663" lon="8.783143440590614"><ele>661.3333333333334</ele><time>2026-04-09T09:13:50Z</time></trkpt><trkpt lat="44.56566126106868" lon="8.783063563469408"><ele>662.6666666666667</ele><time>2026-04-09T09:13:51Z</time></trkpt><trkpt lat="44.56572053171487" lon="8.782978086065441"><ele>664.0</ele><time>2026-04-09T09:13:52Z</time></trkpt><trkpt lat="44.565747468841565" lon="8.78288217563035"><ele>664.0</ele><time>2026-04-09T09:13:53Z</time></trkpt><trkpt lat="44.56573743150115" lon="8.782774457579334"><ele>664.0</ele><time>2026-04-09T09:13:54Z</time></trkpt><trkpt lat="44.56569122114141" lon="8.782681239492264"><ele>664.0</ele><time>2026-04-09T09:13:55Z</time></trkpt><trkpt lat="44.565625412001204" lon="8.782610039103304"><ele>664.0</ele><time>2026-04-09T09:13:56Z</time></trkpt><trkpt lat="44.56555295069062" lon="8.782540745854867"><ele>664.0</ele><time>2026-04-09T09:13:57Z</time></trkpt><trkpt lat="44.565489856281516" lon="8.7824473743632"><ele>664.0</ele><time>2026-04-09T09:13:58Z</time></trkpt><trkpt lat="44.56543519736695" lon="8.782333512539756"><ele>664.2</ele><time>2026-04-09T09:13:59Z</time></trkpt><trkpt lat="44.565383521826966" lon="8.78221456944859"><ele>664.4000000000001</ele><time>2026-04-09T09:14:00Z</time></trkpt><trkpt lat="44.5653411447371" lon="8.782081915749474"><ele>664.6</ele><time>2026-04-09T09:14:01Z</time></trkpt><trkpt lat="44.56529653295042" lon="8.781941495471653"><ele>664.8</ele><time>2026-04-09T09:14:02Z</time></trkpt><trkpt lat="44.56525425691712" lon="8.781792061916692"><ele>665.0</ele><time>2026-04-09T09:14:03Z</time></trkpt><trkpt lat="44.56521695710409" lon="8.781646592237395"><ele>665.8333333333333</ele><time>2026-04-09T09:14:04Z</time></trkpt><trkpt lat="44.565188597206976" lon="8.781515832451857"><ele>666.6666666666666</ele><time>2026-04-09T09:14:05Z</time></trkpt><trkpt lat="44.565171785527845" lon="8.781397394571325"><ele>667.5</ele><time>2026-04-09T09:14:06Z</time></trkpt><trkpt lat="44.565174673068356" lon="8.781286358190334"><ele>668.3333333333334</ele><time>2026-04-09T09:14:07Z</time></trkpt><trkpt lat="44.565199920157156" lon="8.781180024426963"><ele>669.1666666666667</ele><time>2026-04-09T09:14:08Z</time></trkpt><trkpt lat="44.565246639408244" lon="8.781064163042823"><ele>670.0</ele><time>2026-04-09T09:14:09Z</time></trkpt><trkpt lat="44.565301453294715" lon="8.780940352098972"><ele>670.0</ele><time>2026-04-09T09:14:10Z</time></trkpt><trkpt lat="44.56536206405392" lon="8.780799427702643"><ele>670.0</ele><time>2026-04-09T09:14:11Z</time></trkpt><trkpt lat="44.5654248477004" lon="8.780652612143621"><ele>670.0</ele><time>2026-04-09T09:14:12Z</time></trkpt><trkpt lat="44.56548851800031" lon="8.780501633392657"><ele>670.0</ele><time>2026-04-09T09:14:13Z</time></trkpt><trkpt lat="44.56554100060045" lon="8.780341456273462"><ele>675.0</ele><time>2026-04-09T09:14:14Z</time></trkpt><trkpt lat="44.565590472536165" lon="8.780177513867274"><ele>680.0</ele><time>2026-04-09T09:14:15Z</time></trkpt><trkpt lat="44.56564035126739" lon="8.78002358164159"><ele>685.0</ele><time>2026-04-09T09:14:16Z</time></trkpt><trkpt lat="44.565689833967156" lon="8.77987852750387"><ele>690.0</ele><time>2026-04-09T09:14:17Z</time></trkpt><trkpt lat="44.565727281038114" lon="8.779747070779097"><ele>690.0</ele><time>2026-04-09T09:14:18Z</time></trkpt><trkpt lat="44.565757282852175" lon="8.77962145354368"><ele>690.0</ele><time>2026-04-09T09:14:19.001Z</time></trkpt><trkpt lat="44.565784081711485" lon="8.77949761803541"><ele>690.0</ele><time>2026-04-09T09:14:20.001Z</time></trkpt><trkpt lat="44.56582778814645" lon="8.779393856321086"><ele>690.0</ele><time>2026-04-09T09:14:21.001Z</time></trkpt><trkpt lat="44.56588573922687" lon="8.779304884662558"><ele>690.0</ele><time>2026-04-09T09:14:22.001Z</time></trkpt><trkpt lat="44.56593748300493" lon="8.77921094965983"><ele>690.0</ele><time>2026-04-09T09:14:23.001Z</time></trkpt><trkpt lat="44.565980408435365" lon="8.779106671403836"><ele>689.8333333333334</ele><time>2026-04-09T09:14:24.001Z</time></trkpt><trkpt lat="44.56602208829424" lon="8.77900327046068"><ele>689.6666666666666</ele><time>2026-04-09T09:14:25.001Z</time></trkpt><trkpt lat="44.56606511030552" lon="8.7789051053368"><ele>689.5</ele><time>2026-04-09T09:14:26Z</time></trkpt><trkpt lat="44.56610805524026" lon="8.778797939209916"><ele>689.3333333333333</ele><time>2026-04-09T09:14:27Z</time></trkpt><trkpt lat="44.56614566662424" lon="8.778679463169286"><ele>689.1666666666666</ele><time>2026-04-09T09:14:28Z</time></trkpt><trkpt lat="44.566175979789726" lon="8.778548817160607"><ele>689.0</ele><time>2026-04-09T09:14:29Z</time></trkpt><trkpt lat="44.5661955738064" lon="8.778416468077491"><ele>689.0</ele><time>2026-04-09T09:14:30Z</time></trkpt><trkpt lat="44.56620440640789" lon="8.77827918966177"><ele>689.0</ele><time>2026-04-09T09:14:31Z</time></trkpt><trkpt lat="44.56621163436065" lon="8.778142675534164"><ele>689.0</ele><time>2026-04-09T09:14:32Z</time></trkpt><trkpt lat="44.56621245636856" lon="8.778013932746443"><ele>689.0</ele><time>2026-04-09T09:14:33Z</time></trkpt><trkpt lat="44.56620440561242" lon="8.777901072137464"><ele>689.0</ele><time>2026-04-09T09:14:34Z</time></trkpt><trkpt lat="44.566189251648474" lon="8.777808253010452"><ele>689.0</ele><time>2026-04-09T09:14:35Z</time></trkpt><trkpt lat="44.56615554413441" lon="8.777728783568355"><ele>689.0</ele><time>2026-04-09T09:14:36Z</time></trkpt><trkpt lat="44.566100781719136" lon="8.777680402657452"><ele>689.0</ele><time>2026-04-09T09:14:37Z</time></trkpt><trkpt lat="44.566036292211805" lon="8.777676477759849"><ele>689.0</ele><time>2026-04-09T09:14:38Z</time></trkpt><trkpt lat="44.56597832841227" lon="8.777713911950881"><ele>689.0</ele><time>2026-04-09T09:14:39Z</time></trkpt><trkpt lat="44.565935171017884" lon="8.777789654219266"><ele>689.0</ele><time>2026-04-09T09:14:40Z</time></trkpt><trkpt lat="44.56589119537289" lon="8.777877709115264"><ele>689.0</ele><time>2026-04-09T09:14:41Z</time></trkpt><trkpt lat="44.56583760720731" lon="8.77796479867244"><ele>689.0</ele><time>2026-04-09T09:14:42Z</time></trkpt><trkpt lat="44.56577817710014" lon="8.778050290116637"><ele>689.0</ele><time>2026-04-09T09:14:43Z</time></trkpt><trkpt lat="44.565723585703864" lon="8.77813184128555"><ele>689.0</ele><time>2026-04-09T09:14:44Z</time></trkpt><trkpt lat="44.565664138394" lon="8.778216609224847"><ele>689.0</ele><time>2026-04-09T09:14:45Z</time></trkpt><trkpt lat="44.565606586075766" lon="8.778288831723861"><ele>689.0</ele><time>2026-04-09T09:14:46Z</time></trkpt><trkpt lat="44.565546595127195" lon="8.7783400136204"><ele>689.0</ele><time>2026-04-09T09:14:47Z</time></trkpt><trkpt lat="44.565479788632636" lon="8.778360738335218"><ele>689.0</ele><time>2026-04-09T09:14:48Z</time></trkpt><trkpt lat="44.565400853215664" lon="8.778352377735168"><ele>688.8000000000001</ele><time>2026-04-09T09:14:49Z</time></trkpt><trkpt lat="44.5653117131312" lon="8.778348093044093"><ele>688.6</ele><time>2026-04-09T09:14:50Z</time></trkpt><trkpt lat="44.56522241186726" lon="8.778339808062448"><ele>688.4</ele><time>2026-04-09T09:14:51Z</time></trkpt><trkpt lat="44.56513033130149" lon="8.77834641436482"><ele>688.2</ele><time>2026-04-09T09:14:52Z</time></trkpt><trkpt lat="44.565034478603785" lon="8.778362662474972"><ele>688.0</ele><time>2026-04-09T09:14:53Z</time></trkpt><trkpt lat="44.56494699206435" lon="8.778377628165376"><ele>688.0</ele><time>2026-04-09T09:14:54Z</time></trkpt><trkpt lat="44.564870383010465" lon="8.778371481441653"><ele>688.0</ele><time>2026-04-09T09:14:55Z</time></trkpt><trkpt lat="44.56481031775407" lon="8.778335797628989"><ele>688.0</ele><time>2026-04-09T09:14:56Z</time></trkpt><trkpt lat="44.56474995454232" lon="8.778263400533652"><ele>688.0</ele><time>2026-04-09T09:14:57Z</time></trkpt><trkpt lat="44.5647038563313" lon="8.778182588046716"><ele>688.0</ele><time>2026-04-09T09:14:58Z</time></trkpt><trkpt lat="44.564664817705186" lon="8.778082129093203"><ele>688.0</ele><time>2026-04-09T09:14:59Z</time></trkpt><trkpt lat="44.56463373709775" lon="8.777974038264023"><ele>688.0</ele><time>2026-04-09T09:15:00Z</time></trkpt><trkpt lat="44.56461631015565" lon="8.777864534727884"><ele>688.0</ele><time>2026-04-09T09:15:01Z</time></trkpt><trkpt lat="44.564617169723796" lon="8.777750739572195"><ele>688.0</ele><time>2026-04-09T09:15:02Z</time></trkpt><trkpt lat="44.56464446296169" lon="8.777641279122003"><ele>688.0</ele><time>2026-04-09T09:15:03Z</time></trkpt><trkpt lat="44.564684601418875" lon="8.777534789823784"><ele>688.0</ele><time>2026-04-09T09:15:04Z</time></trkpt><trkpt lat="44.5647092317737" lon="8.777426002933943"><ele>688.0</ele><time>2026-04-09T09:15:05Z</time></trkpt><trkpt lat="44.564718887593536" lon="8.777304070949139"><ele>690.2</ele><time>2026-04-09T09:15:06Z</time></trkpt><trkpt lat="44.56470266587968" lon="8.777168642254345"><ele>692.4</ele><time>2026-04-09T09:15:07Z</time></trkpt><trkpt lat="44.56467849550273" lon="8.777030053068998"><ele>694.6</ele><time>2026-04-09T09:15:08Z</time></trkpt><trkpt lat="44.56466144686028" lon="8.77689202820905"><ele>696.8000000000001</ele><time>2026-04-09T09:15:09Z</time></trkpt><trkpt lat="44.564640365268225" lon="8.776753398635698"><ele>699.0</ele><time>2026-04-09T09:15:10Z</time></trkpt><trkpt lat="44.564602506064695" lon="8.776619862922487"><ele>699.0</ele><time>2026-04-09T09:15:11Z</time></trkpt><trkpt lat="44.5645536721464" lon="8.776492412610123"><ele>699.0</ele><time>2026-04-09T09:15:12Z</time></trkpt><trkpt lat="44.56451663124416" lon="8.776363089218835"><ele>699.0</ele><time>2026-04-09T09:15:13Z</time></trkpt><trkpt lat="44.56450477586619" lon="8.776227410225644"><ele>699.0</ele><time>2026-04-09T09:15:14Z</time></trkpt><trkpt lat="44.56450221700072" lon="8.776079901126494"><ele>699.0</ele><time>2026-04-09T09:15:15Z</time></trkpt><trkpt lat="44.56449008594556" lon="8.775942730937226"><ele>701.4000000000001</ele><time>2026-04-09T09:15:16Z</time></trkpt><trkpt lat="44.564470329342946" lon="8.7758114492226"><ele>703.8</ele><time>2026-04-09T09:15:17Z</time></trkpt><trkpt lat="44.56441638326579" lon="8.775708517057174"><ele>706.2</ele><time>2026-04-09T09:15:18Z</time></trkpt><trkpt lat="44.5643365679789" lon="8.775650937617772"><ele>708.5999999999999</ele><time>2026-04-09T09:15:19Z</time></trkpt><trkpt lat="44.56425354038142" lon="8.775593682070141"><ele>711.0</ele><time>2026-04-09T09:15:20Z</time></trkpt><trkpt lat="44.564164822336956" lon="8.775527926721784"><ele>711.0</ele><time>2026-04-09T09:15:21Z</time></trkpt><trkpt lat="44.56408770732808" lon="8.775436338445243"><ele>711.0</ele><time>2026-04-09T09:15:22Z</time></trkpt><trkpt lat="44.56401174438146" lon="8.775341236956317"><ele>711.0</ele><time>2026-04-09T09:15:23Z</time></trkpt><trkpt lat="44.56395469584945" lon="8.775237400201684"><ele>711.0</ele><time>2026-04-09T09:15:24Z</time></trkpt><trkpt lat="44.563934886276435" lon="8.775111894946352"><ele>711.0</ele><time>2026-04-09T09:15:25Z</time></trkpt><trkpt lat="44.56393955418575" lon="8.774980038296976"><ele>713.0</ele><time>2026-04-09T09:15:26Z</time></trkpt><trkpt lat="44.56397317627348" lon="8.774825081747787"><ele>715.0</ele><time>2026-04-09T09:15:27Z</time></trkpt><trkpt lat="44.56398913134843" lon="8.774690651921919"><ele>717.0</ele><time>2026-04-09T09:15:28Z</time></trkpt><trkpt lat="44.5640033260354" lon="8.774564271961822"><ele>719.0</ele><time>2026-04-09T09:15:29Z</time></trkpt><trkpt lat="44.56401555621315" lon="8.774463026071395"><ele>721.0</ele><time>2026-04-09T09:15:30Z</time></trkpt><trkpt lat="44.563988497019814" lon="8.77429905751434"><ele>720.5</ele><time>2026-04-09T09:15:32Z</time></trkpt><trkpt lat="44.56393065594549" lon="8.774256654907878"><ele>720.0</ele><time>2026-04-09T09:15:33Z</time></trkpt><trkpt lat="44.56385826920602" lon="8.774248352448705"><ele>719.5</ele><time>2026-04-09T09:15:34Z</time></trkpt><trkpt lat="44.56378114660456" lon="8.774284701029995"><ele>719.0</ele><time>2026-04-09T09:15:35Z</time></trkpt><trkpt lat="44.56370413294164" lon="8.774331589288732"><ele>718.5</ele><time>2026-04-09T09:15:36Z</time></trkpt><trkpt lat="44.56362449189427" lon="8.774371064892566"><ele>718.0</ele><time>2026-04-09T09:15:37Z</time></trkpt><trkpt lat="44.563542682949" lon="8.77440086263209"><ele>718.0</ele><time>2026-04-09T09:15:38Z</time></trkpt><trkpt lat="44.5634601509554" lon="8.774389826756167"><ele>718.0</ele><time>2026-04-09T09:15:39Z</time></trkpt><trkpt lat="44.56338364711675" lon="8.774352758074658"><ele>718.0</ele><time>2026-04-09T09:15:40Z</time></trkpt><trkpt lat="44.56330846165949" lon="8.774285184615426"><ele>718.0</ele><time>2026-04-09T09:15:41Z</time></trkpt><trkpt lat="44.56324209548401" lon="8.774182654911494"><ele>718.0</ele><time>2026-04-09T09:15:42Z</time></trkpt><trkpt lat="44.56318476499382" lon="8.774076913559782"><ele>718.0</ele><time>2026-04-09T09:15:43Z</time></trkpt><trkpt lat="44.563137312723256" lon="8.77396160641579"><ele>720.0</ele><time>2026-04-09T09:15:44Z</time></trkpt><trkpt lat="44.56309724654047" lon="8.773833724038527"><ele>722.0</ele><time>2026-04-09T09:15:45Z</time></trkpt><trkpt lat="44.56305702044911" lon="8.77369882292695"><ele>724.0</ele><time>2026-04-09T09:15:46Z</time></trkpt><trkpt lat="44.563008951785804" lon="8.773562658548576"><ele>726.0</ele><time>2026-04-09T09:15:47Z</time></trkpt><trkpt lat="44.56295278658229" lon="8.773436119368398"><ele>728.0</ele><time>2026-04-09T09:15:48Z</time></trkpt><trkpt lat="44.56289192129112" lon="8.773305648346602"><ele>729.75</ele><time>2026-04-09T09:15:49Z</time></trkpt><trkpt lat="44.56282323406746" lon="8.773178117316306"><ele>731.5</ele><time>2026-04-09T09:15:50Z</time></trkpt><trkpt lat="44.56274653239219" lon="8.7730597136831"><ele>733.25</ele><time>2026-04-09T09:15:51Z</time></trkpt><trkpt lat="44.56266865537328" lon="8.772940922158696"><ele>735.0</ele><time>2026-04-09T09:15:52Z</time></trkpt><trkpt lat="44.56259167634171" lon="8.772822311435423"><ele>735.0</ele><time>2026-04-09T09:15:53Z</time></trkpt><trkpt lat="44.56251509450036" lon="8.77270549334944"><ele>735.0</ele><time>2026-04-09T09:15:54Z</time></trkpt><trkpt lat="44.56245029415166" lon="8.772604494750562"><ele>735.0</ele><time>2026-04-09T09:15:55Z</time></trkpt><trkpt lat="44.5624029918991" lon="8.772521359139407"><ele>735.0</ele><time>2026-04-09T09:15:56Z</time></trkpt><trkpt lat="44.5623690410812" lon="8.772443975826334"><ele>735.0</ele><time>2026-04-09T09:15:57Z</time></trkpt><trkpt lat="44.56233074422097" lon="8.77236300459859"><ele>735.0</ele><time>2026-04-09T09:15:58Z</time></trkpt><trkpt lat="44.56229940147692" lon="8.77227502791906"><ele>736.1428571428571</ele><time>2026-04-09T09:15:59Z</time></trkpt><trkpt lat="44.562276739527846" lon="8.772181937224714"><ele>737.2857142857142</ele><time>2026-04-09T09:16:00Z</time></trkpt><trkpt lat="44.562256028865576" lon="8.772087143195039"><ele>738.4285714285714</ele><time>2026-04-09T09:16:01Z</time></trkpt><trkpt lat="44.56223788418829" lon="8.771996676893611"><ele>739.5714285714286</ele><time>2026-04-09T09:16:02Z</time></trkpt><trkpt lat="44.562205909322714" lon="8.771914037008324"><ele>740.7142857142857</ele><time>2026-04-09T09:16:03Z</time></trkpt><trkpt lat="44.562153665836256" lon="8.77184330709839"><ele>741.8571428571429</ele><time>2026-04-09T09:16:04Z</time></trkpt><trkpt lat="44.562077939997835" lon="8.771805526155886"><ele>743.0</ele><time>2026-04-09T09:16:05Z</time></trkpt><trkpt lat="44.56199601648154" lon="8.771830026934808"><ele>744.4</ele><time>2026-04-09T09:16:06Z</time></trkpt><trkpt lat="44.561926730259664" lon="8.771897577654602"><ele>745.8</ele><time>2026-04-09T09:16:07Z</time></trkpt><trkpt lat="44.56186001946722" lon="8.77198145163158"><ele>747.2</ele><time>2026-04-09T09:16:08Z</time></trkpt><trkpt lat="44.56177724903834" lon="8.772060850200686"><ele>748.6</ele><time>2026-04-09T09:16:09Z</time></trkpt><trkpt lat="44.561679644555085" lon="8.772115465114574"><ele>750.0</ele><time>2026-04-09T09:16:10Z</time></trkpt><trkpt lat="44.561578211307875" lon="8.772168476378697"><ele>750.0</ele><time>2026-04-09T09:16:11Z</time></trkpt><trkpt lat="44.56147304972591" lon="8.772234853115505"><ele>750.0</ele><time>2026-04-09T09:16:12Z</time></trkpt><trkpt lat="44.5613689715903" lon="8.77230451027553"><ele>750.0</ele><time>2026-04-09T09:16:13Z</time></trkpt><trkpt lat="44.561272795770485" lon="8.772362261149429"><ele>750.0</ele><time>2026-04-09T09:16:14Z</time></trkpt><trkpt lat="44.56118031442931" lon="8.772399980206496"><ele>750.0</ele><time>2026-04-09T09:16:15Z</time></trkpt><trkpt lat="44.56109143108786" lon="8.77241479899256"><ele>751.2</ele><time>2026-04-09T09:16:16Z</time></trkpt><trkpt lat="44.561009992322596" lon="8.77241925609557"><ele>752.4</ele><time>2026-04-09T09:16:17Z</time></trkpt><trkpt lat="44.56094042886564" lon="8.772459159808083"><ele>753.5999999999999</ele><time>2026-04-09T09:16:18Z</time></trkpt><trkpt lat="44.56087794303581" lon="8.772543829153431"><ele>754.8</ele><time>2026-04-09T09:16:19Z</time></trkpt><trkpt lat="44.56082918379281" lon="8.772664151671364"><ele>756.0</ele><time>2026-04-09T09:16:20Z</time></trkpt><trkpt lat="44.56077499725572" lon="8.772796543736499"><ele>756.0</ele><time>2026-04-09T09:16:21Z</time></trkpt><trkpt lat="44.56071708880203" lon="8.772919199386806"><ele>756.0</ele><time>2026-04-09T09:16:22Z</time></trkpt><trkpt lat="44.560660342308346" lon="8.773038299024646"><ele>756.0</ele><time>2026-04-09T09:16:23Z</time></trkpt><trkpt lat="44.56060126080912" lon="8.773138206395968"><ele>756.0</ele><time>2026-04-09T09:16:24Z</time></trkpt><trkpt lat="44.560525053441964" lon="8.773204121470432"><ele>756.0</ele><time>2026-04-09T09:16:25Z</time></trkpt><trkpt lat="44.56043604891422" lon="8.773248196842804"><ele>759.5999999999999</ele><time>2026-04-09T09:16:26Z</time></trkpt><trkpt lat="44.560343722778576" lon="8.773308661614802"><ele>763.2</ele><time>2026-04-09T09:16:27Z</time></trkpt><trkpt lat="44.5602548384513" lon="8.773372552866162"><ele>766.8</ele><time>2026-04-09T09:16:28Z</time></trkpt><trkpt lat="44.56015248209406" lon="8.773392339127687"><ele>770.4000000000001</ele><time>2026-04-09T09:16:29Z</time></trkpt><trkpt lat="44.560052118999806" lon="8.773389614572043"><ele>774.0</ele><time>2026-04-09T09:16:30Z</time></trkpt><trkpt lat="44.55994632835996" lon="8.773384710305503"><ele>774.0</ele><time>2026-04-09T09:16:31Z</time></trkpt><trkpt lat="44.559836091706465" lon="8.773381828435229"><ele>774.0</ele><time>2026-04-09T09:16:32Z</time></trkpt><trkpt lat="44.559729194088625" lon="8.773383853997474"><ele>774.0</ele><time>2026-04-09T09:16:33Z</time></trkpt><trkpt lat="44.55964522236732" lon="8.773384808817152"><ele>774.0</ele><time>2026-04-09T09:16:34Z</time></trkpt><trkpt lat="44.55957975838404" lon="8.773385138227171"><ele>774.0</ele><time>2026-04-09T09:16:35Z</time></trkpt><trkpt lat="44.5594766151806" lon="8.773391607681557"><ele>774.4000000000001</ele><time>2026-04-09T09:16:37Z</time></trkpt><trkpt lat="44.559366518391535" lon="8.773415940680152"><ele>774.8</ele><time>2026-04-09T09:16:39Z</time></trkpt><trkpt lat="44.55924981467324" lon="8.773455907705763"><ele>775.2</ele><time>2026-04-09T09:16:41Z</time></trkpt><trkpt lat="44.55913189736686" lon="8.77351881202123"><ele>775.5999999999999</ele><time>2026-04-09T09:16:43Z</time></trkpt><trkpt lat="44.55907366321484" lon="8.773563286740751"><ele>776.0</ele><time>2026-04-09T09:16:44Z</time></trkpt><trkpt lat="44.55901458340281" lon="8.773611100570543"><ele>777.1428571428571</ele><time>2026-04-09T09:16:45Z</time></trkpt><trkpt lat="44.5589545748174" lon="8.773661913344652"><ele>778.2857142857143</ele><time>2026-04-09T09:16:46Z</time></trkpt><trkpt lat="44.55889247600737" lon="8.773717239838916"><ele>779.4285714285714</ele><time>2026-04-09T09:16:47Z</time></trkpt><trkpt lat="44.55882553903883" lon="8.773775478242637"><ele>780.5714285714286</ele><time>2026-04-09T09:16:48Z</time></trkpt><trkpt lat="44.558759524172025" lon="8.773828328048811"><ele>781.7142857142858</ele><time>2026-04-09T09:16:49Z</time></trkpt><trkpt lat="44.5587066217426" lon="8.77388897095587"><ele>782.8571428571429</ele><time>2026-04-09T09:16:50Z</time></trkpt><trkpt lat="44.55865260101402" lon="8.773939857784931"><ele>784.0</ele><time>2026-04-09T09:16:51Z</time></trkpt><trkpt lat="44.55858988955506" lon="8.773971516121849"><ele>783.9999999999999</ele><time>2026-04-09T09:16:52Z</time></trkpt><trkpt lat="44.558515123534704" lon="8.773987864276373"><ele>784.0</ele><time>2026-04-09T09:16:53Z</time></trkpt><trkpt lat="44.55843578466148" lon="8.773983831522612"><ele>784.0</ele><time>2026-04-09T09:16:54Z</time></trkpt><trkpt lat="44.55835802569536" lon="8.773967526352637"><ele>784.0</ele><time>2026-04-09T09:16:55Z</time></trkpt><trkpt lat="44.558279518395715" lon="8.773941146327365"><ele>783.9999999999999</ele><time>2026-04-09T09:16:56Z</time></trkpt><trkpt lat="44.55820329190914" lon="8.773920811509536"><ele>784.0</ele><time>2026-04-09T09:16:57Z</time></trkpt><trkpt lat="44.558125541584054" lon="8.773937118726728"><ele>783.9999999999999</ele><time>2026-04-09T09:16:58Z</time></trkpt><trkpt lat="44.558037755862955" lon="8.773945574560527"><ele>784.0</ele><time>2026-04-09T09:16:59Z</time></trkpt><trkpt lat="44.557946655008706" lon="8.773954242758553"><ele>784.0</ele><time>2026-04-09T09:17:00Z</time></trkpt><trkpt lat="44.55785768222038" lon="8.773963026334375"><ele>784.0</ele><time>2026-04-09T09:17:01Z</time></trkpt><trkpt lat="44.55777150155676" lon="8.773975774008424"><ele>783.9999999999999</ele><time>2026-04-09T09:17:02Z</time></trkpt><trkpt lat="44.557688281919496" lon="8.773986099338218"><ele>784.0</ele><time>2026-04-09T09:17:03Z</time></trkpt><trkpt lat="44.55760995893957" lon="8.773980915422506"><ele>783.8333333333333</ele><time>2026-04-09T09:17:04Z</time></trkpt><trkpt lat="44.557532539159546" lon="8.773968208192787"><ele>783.6666666666666</ele><time>2026-04-09T09:17:05Z</time></trkpt><trkpt lat="44.557449500021384" lon="8.773938755366133"><ele>783.5</ele><time>2026-04-09T09:17:06Z</time></trkpt><trkpt lat="44.557370973923554" lon="8.773893094365084"><ele>783.3333333333333</ele><time>2026-04-09T09:17:07Z</time></trkpt><trkpt lat="44.55728876875342" lon="8.773848618860692"><ele>783.1666666666666</ele><time>2026-04-09T09:17:08Z</time></trkpt><trkpt lat="44.557204644568706" lon="8.77380625813386"><ele>783.0</ele><time>2026-04-09T09:17:09Z</time></trkpt><trkpt lat="44.55711913493019" lon="8.77377321921722"><ele>784.2</ele><time>2026-04-09T09:17:10Z</time></trkpt><trkpt lat="44.55703001083758" lon="8.773763452845262"><ele>785.4</ele><time>2026-04-09T09:17:11Z</time></trkpt><trkpt lat="44.55694190648066" lon="8.77375602247272"><ele>786.6</ele><time>2026-04-09T09:17:12Z</time></trkpt><trkpt lat="44.556852627331615" lon="8.773738418907937"><ele>787.8000000000001</ele><time>2026-04-09T09:17:13Z</time></trkpt><trkpt lat="44.55675665102198" lon="8.773708610727672"><ele>789.0</ele><time>2026-04-09T09:17:14Z</time></trkpt><trkpt lat="44.556667767691216" lon="8.773660161862527"><ele>789.0</ele><time>2026-04-09T09:17:15Z</time></trkpt><trkpt lat="44.5565859119753" lon="8.7736157748682"><ele>789.0</ele><time>2026-04-09T09:17:16Z</time></trkpt><trkpt lat="44.556510276904646" lon="8.773532578933224"><ele>789.0</ele><time>2026-04-09T09:17:17Z</time></trkpt><trkpt lat="44.556437845995546" lon="8.773444849157926"><ele>789.0</ele><time>2026-04-09T09:17:18Z</time></trkpt><trkpt lat="44.55636904684369" lon="8.773351805307378"><ele>789.0</ele><time>2026-04-09T09:17:19Z</time></trkpt><trkpt lat="44.55630797434892" lon="8.773238278230265"><ele>787.6</ele><time>2026-04-09T09:17:20Z</time></trkpt><trkpt lat="44.556240714872615" lon="8.773121537161359"><ele>786.2</ele><time>2026-04-09T09:17:21Z</time></trkpt><trkpt lat="44.55616520241982" lon="8.773007314764955"><ele>784.8000000000001</ele><time>2026-04-09T09:17:22Z</time></trkpt><trkpt lat="44.55609125380169" lon="8.772889834900042"><ele>783.4000000000001</ele><time>2026-04-09T09:17:23Z</time></trkpt><trkpt lat="44.55603088497766" lon="8.772766666945001"><ele>782.0</ele><time>2026-04-09T09:17:24Z</time></trkpt><trkpt lat="44.555975455228115" lon="8.77263898124703"><ele>781.8</ele><time>2026-04-09T09:17:25Z</time></trkpt><trkpt lat="44.555910086176915" lon="8.772519960957675"><ele>781.6</ele><time>2026-04-09T09:17:26Z</time></trkpt><trkpt lat="44.55583582207011" lon="8.772405174789597"><ele>781.4</ele><time>2026-04-09T09:17:27Z</time></trkpt><trkpt lat="44.55578682428602" lon="8.772253446750913"><ele>781.1999999999999</ele><time>2026-04-09T09:17:28Z</time></trkpt><trkpt lat="44.555720676338325" lon="8.772133364217973"><ele>781.0</ele><time>2026-04-09T09:17:29Z</time></trkpt><trkpt lat="44.55565991004316" lon="8.771997738658127"><ele>781.0</ele><time>2026-04-09T09:17:30Z</time></trkpt><trkpt lat="44.55560688225685" lon="8.771857017620448"><ele>781.0</ele><time>2026-04-09T09:17:31Z</time></trkpt><trkpt lat="44.55556642974648" lon="8.771722653168135"><ele>781.0</ele><time>2026-04-09T09:17:32Z</time></trkpt><trkpt lat="44.55553949593904" lon="8.771595642213144"><ele>781.0</ele><time>2026-04-09T09:17:33Z</time></trkpt><trkpt lat="44.55549326607249" lon="8.771487187016131"><ele>781.0</ele><time>2026-04-09T09:17:34Z</time></trkpt><trkpt lat="44.55546853505549" lon="8.771379223602693"><ele>780.6666666666666</ele><time>2026-04-09T09:17:35Z</time></trkpt><trkpt lat="44.55542735720217" lon="8.771286838179048"><ele>780.3333333333333</ele><time>2026-04-09T09:17:36Z</time></trkpt><trkpt lat="44.55536736885547" lon="8.771208508022768"><ele>780.0</ele><time>2026-04-09T09:17:37Z</time></trkpt><trkpt lat="44.5552981829589" lon="8.771141405850177"><ele>779.6666666666667</ele><time>2026-04-09T09:17:38Z</time></trkpt><trkpt lat="44.55522625071358" lon="8.771061318977894"><ele>779.3333333333334</ele><time>2026-04-09T09:17:39Z</time></trkpt><trkpt lat="44.55513726623133" lon="8.771013098909581"><ele>779.0</ele><time>2026-04-09T09:17:40Z</time></trkpt><trkpt lat="44.55503589089644" lon="8.771008685315643"><ele>779.0000000000001</ele><time>2026-04-09T09:17:41Z</time></trkpt><trkpt lat="44.55493931892143" lon="8.770989501105463"><ele>779.0</ele><time>2026-04-09T09:17:42Z</time></trkpt><trkpt lat="44.554846538988336" lon="8.770980938057082"><ele>779.0</ele><time>2026-04-09T09:17:43Z</time></trkpt><trkpt lat="44.55475934015814" lon="8.77098251086698"><ele>779.0</ele><time>2026-04-09T09:17:44Z</time></trkpt><trkpt lat="44.554677728074495" lon="8.771003313422053"><ele>779.0000000000001</ele><time>2026-04-09T09:17:45Z</time></trkpt><trkpt lat="44.55460021083125" lon="8.77105390567737"><ele>779.0</ele><time>2026-04-09T09:17:46Z</time></trkpt><trkpt lat="44.554535594614386" lon="8.771132612884708"><ele>774.8000000000001</ele><time>2026-04-09T09:17:47Z</time></trkpt><trkpt lat="44.5544734815229" lon="8.771220914876311"><ele>770.6</ele><time>2026-04-09T09:17:48Z</time></trkpt><trkpt lat="44.55439047333126" lon="8.771273588897321"><ele>766.4</ele><time>2026-04-09T09:17:49Z</time></trkpt><trkpt lat="44.5543191835968" lon="8.77135716848538"><ele>762.2</ele><time>2026-04-09T09:17:50Z</time></trkpt><trkpt lat="44.55423323860999" lon="8.771417561096928"><ele>758.0</ele><time>2026-04-09T09:17:51Z</time></trkpt><trkpt lat="44.554157561148244" lon="8.771495313116707"><ele>758.0</ele><time>2026-04-09T09:17:52Z</time></trkpt><trkpt lat="44.55409147053685" lon="8.771586076315781"><ele>758.0</ele><time>2026-04-09T09:17:53Z</time></trkpt><trkpt lat="44.55404580090605" lon="8.771693540200951"><ele>758.0</ele><time>2026-04-09T09:17:54Z</time></trkpt><trkpt lat="44.55401755869747" lon="8.771828446154933"><ele>758.0</ele><time>2026-04-09T09:17:55Z</time></trkpt><trkpt lat="44.55399374423977" lon="8.771972485741436"><ele>758.0</ele><time>2026-04-09T09:17:56Z</time></trkpt><trkpt lat="44.55395414946153" lon="8.772114393441175"><ele>759.8</ele><time>2026-04-09T09:17:57Z</time></trkpt><trkpt lat="44.55390664522273" lon="8.772239764251664"><ele>761.5999999999999</ele><time>2026-04-09T09:17:58Z</time></trkpt><trkpt lat="44.55385068439293" lon="8.772346105891069"><ele>763.4000000000001</ele><time>2026-04-09T09:17:59Z</time></trkpt><trkpt lat="44.55378109047026" lon="8.772433917917194"><ele>765.2</ele><time>2026-04-09T09:18:00Z</time></trkpt><trkpt lat="44.55371109976796" lon="8.772502392132619"><ele>767.0</ele><time>2026-04-09T09:18:01Z</time></trkpt><trkpt lat="44.55362965664537" lon="8.772571119607353"><ele>765.2</ele><time>2026-04-09T09:18:02Z</time></trkpt><trkpt lat="44.553557471978365" lon="8.772658694221608"><ele>763.4000000000001</ele><time>2026-04-09T09:18:03Z</time></trkpt><trkpt lat="44.55349278072326" lon="8.77275983747585"><ele>761.5999999999999</ele><time>2026-04-09T09:18:04Z</time></trkpt><trkpt lat="44.55343578413584" lon="8.772866033080726"><ele>759.8</ele><time>2026-04-09T09:18:05Z</time></trkpt><trkpt lat="44.5533861058702" lon="8.77297399267052"><ele>758.0</ele><time>2026-04-09T09:18:06Z</time></trkpt><trkpt lat="44.55334296671252" lon="8.773072457419794"><ele>758.0</ele><time>2026-04-09T09:18:07Z</time></trkpt><trkpt lat="44.55328906722062" lon="8.773151360414131"><ele>758.0</ele><time>2026-04-09T09:18:08Z</time></trkpt><trkpt lat="44.55321617273423" lon="8.773212484707063"><ele>758.0</ele><time>2026-04-09T09:18:09Z</time></trkpt><trkpt lat="44.55312826029854" lon="8.773235626908928"><ele>758.0</ele><time>2026-04-09T09:18:10Z</time></trkpt><trkpt lat="44.553038982349726" lon="8.773233340543301"><ele>758.0</ele><time>2026-04-09T09:18:11Z</time></trkpt><trkpt lat="44.552951004900095" lon="8.773235081359466"><ele>758.0</ele><time>2026-04-09T09:18:12Z</time></trkpt><trkpt lat="44.55286175400846" lon="8.773241662134142"><ele>757.5</ele><time>2026-04-09T09:18:13Z</time></trkpt><trkpt lat="44.55277262623577" lon="8.773244906249856"><ele>757.0</ele><time>2026-04-09T09:18:14Z</time></trkpt><trkpt lat="44.55268369244234" lon="8.773241327354079"><ele>756.5</ele><time>2026-04-09T09:18:15Z</time></trkpt><trkpt lat="44.55260323218022" lon="8.773234584820214"><ele>756.0</ele><time>2026-04-09T09:18:16Z</time></trkpt><trkpt lat="44.55253259425783" lon="8.773235362517664"><ele>755.5</ele><time>2026-04-09T09:18:17Z</time></trkpt><trkpt lat="44.55245608856351" lon="8.773247932874542"><ele>755.0</ele><time>2026-04-09T09:18:18Z</time></trkpt><trkpt lat="44.55237692934332" lon="8.773273144640804"><ele>755.0</ele><time>2026-04-09T09:18:19Z</time></trkpt><trkpt lat="44.552299453282636" lon="8.77331281683139"><ele>755.0</ele><time>2026-04-09T09:18:20Z</time></trkpt><trkpt lat="44.55222258009253" lon="8.773355277792998"><ele>755.0</ele><time>2026-04-09T09:18:21Z</time></trkpt><trkpt lat="44.55214716493679" lon="8.77340046441484"><ele>755.0</ele><time>2026-04-09T09:18:22Z</time></trkpt><trkpt lat="44.5520702600195" lon="8.773441347775357"><ele>755.0</ele><time>2026-04-09T09:18:23Z</time></trkpt><trkpt lat="44.551993195151624" lon="8.77348100682682"><ele>755.0</ele><time>2026-04-09T09:18:24Z</time></trkpt><trkpt lat="44.55191723486649" lon="8.773522681649087"><ele>756.6666666666666</ele><time>2026-04-09T09:18:25Z</time></trkpt><trkpt lat="44.55184321952534" lon="8.773565405687357"><ele>758.3333333333333</ele><time>2026-04-09T09:18:26Z</time></trkpt><trkpt lat="44.55176980353001" lon="8.773610325092108"><ele>760.0</ele><time>2026-04-09T09:18:27Z</time></trkpt><trkpt lat="44.551693532462195" lon="8.773659588193773"><ele>761.6666666666666</ele><time>2026-04-09T09:18:28Z</time></trkpt><trkpt lat="44.551618925722316" lon="8.773718394338953"><ele>763.3333333333334</ele><time>2026-04-09T09:18:29Z</time></trkpt><trkpt lat="44.551543213113334" lon="8.773775132856988"><ele>765.0</ele><time>2026-04-09T09:18:30Z</time></trkpt><trkpt lat="44.55146608590257" lon="8.773827901389822"><ele>765.0</ele><time>2026-04-09T09:18:31Z</time></trkpt><trkpt lat="44.55138714775796" lon="8.773873331494539"><ele>765.0</ele><time>2026-04-09T09:18:32Z</time></trkpt><trkpt lat="44.55130424907728" lon="8.773899932315556"><ele>765.0</ele><time>2026-04-09T09:18:33Z</time></trkpt><trkpt lat="44.55122563110975" lon="8.773934476084557"><ele>765.0</ele><time>2026-04-09T09:18:34Z</time></trkpt><trkpt lat="44.55114766408392" lon="8.77397309989372"><ele>765.0</ele><time>2026-04-09T09:18:35Z</time></trkpt><trkpt lat="44.551046674604684" lon="8.773888774877019"><ele>764.1666666666666</ele><time>2026-04-09T09:18:36Z</time></trkpt><trkpt lat="44.55097126204461" lon="8.773848256126776"><ele>763.3333333333334</ele><time>2026-04-09T09:18:37Z</time></trkpt><trkpt lat="44.5509055073679" lon="8.773788290175515"><ele>762.5</ele><time>2026-04-09T09:18:38Z</time></trkpt><trkpt lat="44.55086114352926" lon="8.773701613775827"><ele>761.6666666666667</ele><time>2026-04-09T09:18:39Z</time></trkpt><trkpt lat="44.55083449294817" lon="8.773599352379529"><ele>760.8333333333334</ele><time>2026-04-09T09:18:40Z</time></trkpt><trkpt lat="44.55081261885241" lon="8.773487280728144"><ele>760.0</ele><time>2026-04-09T09:18:41Z</time></trkpt><trkpt lat="44.55077193684645" lon="8.77338191910208"><ele>760.0</ele><time>2026-04-09T09:18:42Z</time></trkpt><trkpt lat="44.55070879189385" lon="8.773293453310986"><ele>760.0</ele><time>2026-04-09T09:18:43Z</time></trkpt><trkpt lat="44.55063283444352" lon="8.773217201623705"><ele>760.0</ele><time>2026-04-09T09:18:44Z</time></trkpt><trkpt lat="44.55055203677931" lon="8.773152616403708"><ele>760.0</ele><time>2026-04-09T09:18:45Z</time></trkpt><trkpt lat="44.5504654845517" lon="8.773098859961575"><ele>760.0</ele><time>2026-04-09T09:18:46Z</time></trkpt><trkpt lat="44.55037265732611" lon="8.773075772240047"><ele>762.8</ele><time>2026-04-09T09:18:47Z</time></trkpt><trkpt lat="44.55027794498304" lon="8.77308911583865"><ele>765.6</ele><time>2026-04-09T09:18:48Z</time></trkpt><trkpt lat="44.55018705790732" lon="8.773112893550316"><ele>768.4000000000001</ele><time>2026-04-09T09:18:49Z</time></trkpt><trkpt lat="44.55009573097266" lon="8.773134176817054"><ele>771.2</ele><time>2026-04-09T09:18:50Z</time></trkpt><trkpt lat="44.55000290605685" lon="8.773132479240486"><ele>774.0</ele><time>2026-04-09T09:18:51Z</time></trkpt><trkpt lat="44.549916910638736" lon="8.773106534419231"><ele>774.0</ele><time>2026-04-09T09:18:52Z</time></trkpt><trkpt lat="44.5498450645011" lon="8.773054772884288"><ele>774.0</ele><time>2026-04-09T09:18:53Z</time></trkpt><trkpt lat="44.54979053456507" lon="8.772976792473724"><ele>774.0</ele><time>2026-04-09T09:18:54Z</time></trkpt><trkpt lat="44.54974781467288" lon="8.772886350508294"><ele>774.0</ele><time>2026-04-09T09:18:55Z</time></trkpt><trkpt lat="44.549706122560124" lon="8.772785706977828"><ele>774.0</ele><time>2026-04-09T09:18:56Z</time></trkpt><trkpt lat="44.54964892558996" lon="8.7726957363777"><ele>774.0</ele><time>2026-04-09T09:18:57Z</time></trkpt><trkpt lat="44.54957948176076" lon="8.772615509796221"><ele>773.4000000000001</ele><time>2026-04-09T09:18:58Z</time></trkpt><trkpt lat="44.54949858942784" lon="8.772548445927512"><ele>772.8</ele><time>2026-04-09T09:18:59Z</time></trkpt><trkpt lat="44.5494081660405" lon="8.772503469986185"><ele>772.2</ele><time>2026-04-09T09:19:00Z</time></trkpt><trkpt lat="44.549313114046804" lon="8.772490027775467"><ele>771.5999999999999</ele><time>2026-04-09T09:19:01Z</time></trkpt><trkpt lat="44.549214312045365" lon="8.77248650111904"><ele>771.0</ele><time>2026-04-09T09:19:02Z</time></trkpt><trkpt lat="44.54911394178937" lon="8.772482799548778"><ele>771.0</ele><time>2026-04-09T09:19:03Z</time></trkpt><trkpt lat="44.54900673624789" lon="8.772478724166064"><ele>771.0</ele><time>2026-04-09T09:19:04Z</time></trkpt><trkpt lat="44.54889363724188" lon="8.772477163196815"><ele>771.0</ele><time>2026-04-09T09:19:05Z</time></trkpt><trkpt lat="44.54877725821405" lon="8.77246205174172"><ele>771.0</ele><time>2026-04-09T09:19:06Z</time></trkpt><trkpt lat="44.54866808142912" lon="8.772421968458461"><ele>772.0</ele><time>2026-04-09T09:19:07Z</time></trkpt><trkpt lat="44.54855835982732" lon="8.772389942163095"><ele>773.0</ele><time>2026-04-09T09:19:08Z</time></trkpt><trkpt lat="44.548445744741066" lon="8.772364415997378"><ele>774.0</ele><time>2026-04-09T09:19:09Z</time></trkpt><trkpt lat="44.54833706185321" lon="8.77234185753028"><ele>775.0</ele><time>2026-04-09T09:19:10Z</time></trkpt><trkpt lat="44.54823318829843" lon="8.772326964999252"><ele>776.0</ele><time>2026-04-09T09:19:11Z</time></trkpt><trkpt lat="44.5481271895088" lon="8.772305380175982"><ele>776.0</ele><time>2026-04-09T09:19:12Z</time></trkpt><trkpt lat="44.548026872044794" lon="8.772287594488933"><ele>776.0</ele><time>2026-04-09T09:19:13Z</time></trkpt><trkpt lat="44.54793032859294" lon="8.77229604533254"><ele>776.0</ele><time>2026-04-09T09:19:14Z</time></trkpt><trkpt lat="44.547832610473186" lon="8.772313526888324"><ele>776.0</ele><time>2026-04-09T09:19:15Z</time></trkpt><trkpt lat="44.54773534594046" lon="8.772336326857296"><ele>776.0</ele><time>2026-04-09T09:19:16Z</time></trkpt><trkpt lat="44.54763812901934" lon="8.772353322211226"><ele>776.5000000000001</ele><time>2026-04-09T09:19:17Z</time></trkpt><trkpt lat="44.54753859491723" lon="8.772351143745496"><ele>777.0</ele><time>2026-04-09T09:19:18Z</time></trkpt><trkpt lat="44.547446293416925" lon="8.77234493351282"><ele>777.5</ele><time>2026-04-09T09:19:19Z</time></trkpt><trkpt lat="44.54735976672568" lon="8.77233850919889"><ele>778.0</ele><time>2026-04-09T09:19:20Z</time></trkpt><trkpt lat="44.547277426636725" lon="8.77232630686565"><ele>778.5000000000001</ele><time>2026-04-09T09:19:21Z</time></trkpt><trkpt lat="44.54719468595198" lon="8.772286190885023"><ele>779.0</ele><time>2026-04-09T09:19:22Z</time></trkpt><trkpt lat="44.547115065179035" lon="8.772229052839911"><ele>779.0000000000001</ele><time>2026-04-09T09:19:23Z</time></trkpt><trkpt lat="44.54704582625042" lon="8.772186004295111"><ele>779.0</ele><time>2026-04-09T09:19:24Z</time></trkpt><trkpt lat="44.546966180793625" lon="8.772141895594102"><ele>779.0</ele><time>2026-04-09T09:19:26Z</time></trkpt><trkpt lat="44.54689751170181" lon="8.772113883134407"><ele>779.0</ele><time>2026-04-09T09:20:58Z</time></trkpt><trkpt lat="44.54680868411859" lon="8.771985639440187"><ele>779.0000000000001</ele><time>2026-04-09T09:21:00Z</time></trkpt><trkpt lat="44.54673721733195" lon="8.77195572784972"><ele>779.0</ele><time>2026-04-09T09:21:01Z</time></trkpt><trkpt lat="44.546670753622465" lon="8.771889509019164"><ele>776.0</ele><time>2026-04-09T09:21:02Z</time></trkpt><trkpt lat="44.546593687071095" lon="8.771820150492182"><ele>773.0</ele><time>2026-04-09T09:21:03Z</time></trkpt><trkpt lat="44.54651022118455" lon="8.771747021828928"><ele>770.0</ele><time>2026-04-09T09:21:04Z</time></trkpt><trkpt lat="44.5464512694431" lon="8.771626739649"><ele>767.0</ele><time>2026-04-09T09:21:05Z</time></trkpt><trkpt lat="44.5463698354234" lon="8.771545621601012"><ele>764.0</ele><time>2026-04-09T09:21:06Z</time></trkpt><trkpt lat="44.5462878236522" lon="8.771470266480167"><ele>765.2</ele><time>2026-04-09T09:21:07Z</time></trkpt><trkpt lat="44.54620485789281" lon="8.77140825314229"><ele>766.4000000000001</ele><time>2026-04-09T09:21:08Z</time></trkpt><trkpt lat="44.54610612072779" lon="8.771360345405265"><ele>767.6</ele><time>2026-04-09T09:21:09Z</time></trkpt><trkpt lat="44.54599854035538" lon="8.771327776482027"><ele>768.8</ele><time>2026-04-09T09:21:10Z</time></trkpt><trkpt lat="44.545889530628905" lon="8.771311632586672"><ele>770.0</ele><time>2026-04-09T09:21:11Z</time></trkpt><trkpt lat="44.54578145059378" lon="8.771306627161973"><ele>770.0</ele><time>2026-04-09T09:21:12Z</time></trkpt><trkpt lat="44.54567532078285" lon="8.771292261290045"><ele>770.0</ele><time>2026-04-09T09:21:13Z</time></trkpt><trkpt lat="44.54557542867354" lon="8.771254595325038"><ele>770.0</ele><time>2026-04-09T09:21:14Z</time></trkpt><trkpt lat="44.54548543399023" lon="8.771193810530077"><ele>770.0</ele><time>2026-04-09T09:21:15Z</time></trkpt><trkpt lat="44.54539831459121" lon="8.771115267661148"><ele>770.0</ele><time>2026-04-09T09:21:16Z</time></trkpt><trkpt lat="44.545312817006256" lon="8.771039739001814"><ele>768.8</ele><time>2026-04-09T09:21:17Z</time></trkpt><trkpt lat="44.54521630160937" lon="8.770993877637773"><ele>767.6</ele><time>2026-04-09T09:21:18Z</time></trkpt><trkpt lat="44.54512906925222" lon="8.770934830372596"><ele>766.4000000000001</ele><time>2026-04-09T09:21:19Z</time></trkpt><trkpt lat="44.545033252894754" lon="8.770914492660655"><ele>765.2</ele><time>2026-04-09T09:21:20Z</time></trkpt><trkpt lat="44.54494059929868" lon="8.77089940951255"><ele>764.0</ele><time>2026-04-09T09:21:21Z</time></trkpt><trkpt lat="44.544852868199385" lon="8.770885127704465"><ele>764.0</ele><time>2026-04-09T09:21:22Z</time></trkpt><trkpt lat="44.54476915526238" lon="8.77086795141956"><ele>764.0</ele><time>2026-04-09T09:21:23Z</time></trkpt><trkpt lat="44.544684688170626" lon="8.770861557222872"><ele>764.0</ele><time>2026-04-09T09:21:24Z</time></trkpt><trkpt lat="44.544625840431834" lon="8.770797610851412"><ele>764.0</ele><time>2026-04-09T09:21:25Z</time></trkpt><trkpt lat="44.544595148786904" lon="8.770704168678499"><ele>764.0</ele><time>2026-04-09T09:21:26Z</time></trkpt><trkpt lat="44.54462323745715" lon="8.770607687621231"><ele>764.0</ele><time>2026-04-09T09:21:27Z</time></trkpt><trkpt lat="44.54465355995187" lon="8.770512014953386"><ele>764.0</ele><time>2026-04-09T09:21:28Z</time></trkpt><trkpt lat="44.5446742426981" lon="8.770389891321031"><ele>764.0</ele><time>2026-04-09T09:21:29Z</time></trkpt><trkpt lat="44.54472192083389" lon="8.770287390884924"><ele>764.0</ele><time>2026-04-09T09:21:30Z</time></trkpt><trkpt lat="44.54475720034087" lon="8.770166859601458"><ele>764.0</ele><time>2026-04-09T09:21:31Z</time></trkpt><trkpt lat="44.544771669952965" lon="8.770035428835591"><ele>764.0</ele><time>2026-04-09T09:21:32Z</time></trkpt><trkpt lat="44.5447973644901" lon="8.769915671563668"><ele>762.4000000000001</ele><time>2026-04-09T09:21:33Z</time></trkpt><trkpt lat="44.54477709323982" lon="8.769793241264457"><ele>760.8</ele><time>2026-04-09T09:21:34Z</time></trkpt><trkpt lat="44.54472182274959" lon="8.76968457207791"><ele>759.2</ele><time>2026-04-09T09:21:35Z</time></trkpt><trkpt lat="44.54465654548231" lon="8.76959140585004"><ele>757.5999999999999</ele><time>2026-04-09T09:21:36Z</time></trkpt><trkpt lat="44.54458957779561" lon="8.769486000068813"><ele>756.0</ele><time>2026-04-09T09:21:37Z</time></trkpt><trkpt lat="44.544540520516435" lon="8.769371471518737"><ele>758.0</ele><time>2026-04-09T09:21:38Z</time></trkpt><trkpt lat="44.54452675202175" lon="8.769249962896332"><ele>760.0</ele><time>2026-04-09T09:21:39Z</time></trkpt><trkpt lat="44.544530935836534" lon="8.769140532759115"><ele>762.0</ele><time>2026-04-09T09:21:40Z</time></trkpt><trkpt lat="44.54452708589008" lon="8.76899101265829"><ele>764.0</ele><time>2026-04-09T09:21:42Z</time></trkpt><trkpt lat="44.54447688248447" lon="8.768803902882206"><ele>766.0</ele><time>2026-04-09T09:21:44Z</time></trkpt><trkpt lat="44.54443218102643" lon="8.768702048227038"><ele>766.0</ele><time>2026-04-09T09:21:45Z</time></trkpt><trkpt lat="44.54437617720179" lon="8.76860044125725"><ele>766.0</ele><time>2026-04-09T09:21:46Z</time></trkpt><trkpt lat="44.54429434691871" lon="8.768535315868395"><ele>766.0</ele><time>2026-04-09T09:21:47Z</time></trkpt><trkpt lat="44.54422663386291" lon="8.768463543752206"><ele>766.0</ele><time>2026-04-09T09:21:48Z</time></trkpt><trkpt lat="44.544164383204105" lon="8.76839903729317"><ele>766.0</ele><time>2026-04-09T09:21:49Z</time></trkpt><trkpt lat="44.544130035365384" lon="8.768312594778312"><ele>766.0</ele><time>2026-04-09T09:21:50Z</time></trkpt><trkpt lat="44.544099529960505" lon="8.768233498245271"><ele>764.6666666666667</ele><time>2026-04-09T09:21:51Z</time></trkpt><trkpt lat="44.54412686958175" lon="8.768074200506328"><ele>763.3333333333334</ele><time>2026-04-09T09:21:53Z</time></trkpt><trkpt lat="44.54417689991499" lon="8.768019208038737"><ele>762.0</ele><time>2026-04-09T09:21:54Z</time></trkpt><trkpt lat="44.54423339817746" lon="8.767949546709616"><ele>760.6666666666666</ele><time>2026-04-09T09:21:55Z</time></trkpt><trkpt lat="44.54429723702361" lon="8.767876174886341"><ele>759.3333333333333</ele><time>2026-04-09T09:21:56Z</time></trkpt><trkpt lat="44.54435846070826" lon="8.767788296764781"><ele>758.0</ele><time>2026-04-09T09:21:57Z</time></trkpt><trkpt lat="44.54441650437294" lon="8.767693607771314"><ele>756.0</ele><time>2026-04-09T09:21:58Z</time></trkpt><trkpt lat="44.54447055526758" lon="8.767600174498302"><ele>754.0</ele><time>2026-04-09T09:21:59Z</time></trkpt><trkpt lat="44.54452107053222" lon="8.767500142001776"><ele>752.0</ele><time>2026-04-09T09:22:00Z</time></trkpt><trkpt lat="44.544550846637975" lon="8.767379807288158"><ele>750.0</ele><time>2026-04-09T09:22:01Z</time></trkpt><trkpt lat="44.544544437210774" lon="8.7672469828015"><ele>748.0</ele><time>2026-04-09T09:22:02Z</time></trkpt><trkpt lat="44.544507735097575" lon="8.767125273613164"><ele>748.0</ele><time>2026-04-09T09:22:03Z</time></trkpt><trkpt lat="44.54445832784514" lon="8.767013849714317"><ele>748.0</ele><time>2026-04-09T09:22:04Z</time></trkpt><trkpt lat="44.54441109908864" lon="8.766908155932596"><ele>748.0</ele><time>2026-04-09T09:22:05Z</time></trkpt><trkpt lat="44.54437128556258" lon="8.766795249357829"><ele>748.0</ele><time>2026-04-09T09:22:06Z</time></trkpt><trkpt lat="44.54433098975189" lon="8.766674289167879"><ele>748.0</ele><time>2026-04-09T09:22:07Z</time></trkpt><trkpt lat="44.54429587611324" lon="8.766556809936546"><ele>747.4</ele><time>2026-04-09T09:22:08Z</time></trkpt><trkpt lat="44.54426837395946" lon="8.766434213989243"><ele>746.8</ele><time>2026-04-09T09:22:09Z</time></trkpt><trkpt lat="44.54425051371092" lon="8.76631111998234"><ele>746.2</ele><time>2026-04-09T09:22:10Z</time></trkpt><trkpt lat="44.54424727120757" lon="8.766192360066364"><ele>745.6</ele><time>2026-04-09T09:22:11Z</time></trkpt><trkpt lat="44.544250679740095" lon="8.76606607533605"><ele>745.0</ele><time>2026-04-09T09:22:12Z</time></trkpt><trkpt lat="44.54423967437566" lon="8.765935604227245"><ele>745.0</ele><time>2026-04-09T09:22:13Z</time></trkpt><trkpt lat="44.54419490910387" lon="8.765808363016827"><ele>745.0</ele><time>2026-04-09T09:22:14Z</time></trkpt><trkpt lat="44.54413757359353" lon="8.765707154127108"><ele>745.0</ele><time>2026-04-09T09:22:15Z</time></trkpt><trkpt lat="44.54409237461425" lon="8.765603684598215"><ele>745.0</ele><time>2026-04-09T09:22:16Z</time></trkpt><trkpt lat="44.54407447607837" lon="8.765503036609116"><ele>745.0</ele><time>2026-04-09T09:22:17Z</time></trkpt><trkpt lat="44.54407282572376" lon="8.765392592380865"><ele>745.0</ele><time>2026-04-09T09:22:18Z</time></trkpt><trkpt lat="44.54407154630576" lon="8.765271985435591"><ele>744.4</ele><time>2026-04-09T09:22:19Z</time></trkpt><trkpt lat="44.544076590229665" lon="8.765151472721037"><ele>743.8</ele><time>2026-04-09T09:22:20Z</time></trkpt><trkpt lat="44.54409062947294" lon="8.765036483841142"><ele>743.2</ele><time>2026-04-09T09:22:21Z</time></trkpt><trkpt lat="44.544124888243935" lon="8.764925273433974"><ele>742.6</ele><time>2026-04-09T09:22:22Z</time></trkpt><trkpt lat="44.5441595742797" lon="8.764795551748707"><ele>742.0</ele><time>2026-04-09T09:22:23Z</time></trkpt><trkpt lat="44.544189620951904" lon="8.764660239852676"><ele>742.0</ele><time>2026-04-09T09:22:24Z</time></trkpt><trkpt lat="44.544217187718004" lon="8.76452142384639"><ele>742.0</ele><time>2026-04-09T09:22:25Z</time></trkpt><trkpt lat="44.54424451022572" lon="8.76437439290379"><ele>742.0</ele><time>2026-04-09T09:22:26Z</time></trkpt><trkpt lat="44.54427160263536" lon="8.764223922310439"><ele>742.0</ele><time>2026-04-09T09:22:27Z</time></trkpt><trkpt lat="44.54429170076823" lon="8.764064112354903"><ele>742.0</ele><time>2026-04-09T09:22:28Z</time></trkpt><trkpt lat="44.54430141614945" lon="8.76390624761871"><ele>740.6</ele><time>2026-04-09T09:22:29Z</time></trkpt><trkpt lat="44.54430172343645" lon="8.763754734578962"><ele>739.2</ele><time>2026-04-09T09:22:30Z</time></trkpt><trkpt lat="44.5442911299551" lon="8.76361389238445"><ele>737.8</ele><time>2026-04-09T09:22:31Z</time></trkpt><trkpt lat="44.54426699494602" lon="8.763483394885352"><ele>736.4</ele><time>2026-04-09T09:22:32Z</time></trkpt><trkpt lat="44.54420735040925" lon="8.763371953354326"><ele>735.0</ele><time>2026-04-09T09:22:33Z</time></trkpt><trkpt lat="44.544144667855974" lon="8.763286209612527"><ele>735.0</ele><time>2026-04-09T09:22:34Z</time></trkpt><trkpt lat="44.54409107213002" lon="8.763201339737714"><ele>735.0</ele><time>2026-04-09T09:22:35Z</time></trkpt><trkpt lat="44.544049527524265" lon="8.763114290647781"><ele>735.0</ele><time>2026-04-09T09:22:36Z</time></trkpt><trkpt lat="44.544019378955234" lon="8.763011073565115"><ele>735.0</ele><time>2026-04-09T09:22:37Z</time></trkpt><trkpt lat="44.54400580637947" lon="8.762897614348677"><ele>735.0</ele><time>2026-04-09T09:22:38Z</time></trkpt><trkpt lat="44.54401319219162" lon="8.76278212921348"><ele>735.0</ele><time>2026-04-09T09:22:39Z</time></trkpt><trkpt lat="44.54402667392246" lon="8.76266081202118"><ele>735.2</ele><time>2026-04-09T09:22:40Z</time></trkpt><trkpt lat="44.544045762484764" lon="8.762532484363657"><ele>735.4</ele><time>2026-04-09T09:22:41Z</time></trkpt><trkpt lat="44.544070119790995" lon="8.762396764089146"><ele>735.5999999999999</ele><time>2026-04-09T09:22:42Z</time></trkpt><trkpt lat="44.54409673096098" lon="8.762256291269617"><ele>735.8</ele><time>2026-04-09T09:22:43Z</time></trkpt><trkpt lat="44.54408796228263" lon="8.762105715204457"><ele>736.0</ele><time>2026-04-09T09:22:44Z</time></trkpt><trkpt lat="44.54409855265821" lon="8.761975566494183"><ele>735.6666666666667</ele><time>2026-04-09T09:22:45Z</time></trkpt><trkpt lat="44.544118884138456" lon="8.76185193266794"><ele>735.3333333333334</ele><time>2026-04-09T09:22:46Z</time></trkpt><trkpt lat="44.544147145520654" lon="8.761733452471896"><ele>735.0</ele><time>2026-04-09T09:22:47Z</time></trkpt><trkpt lat="44.54421444674153" lon="8.761644452387593"><ele>734.6666666666666</ele><time>2026-04-09T09:22:48Z</time></trkpt><trkpt lat="44.54426667458616" lon="8.761550557869542"><ele>734.3333333333333</ele><time>2026-04-09T09:22:49Z</time></trkpt><trkpt lat="44.544333721275024" lon="8.761466235418379"><ele>734.0</ele><time>2026-04-09T09:22:50Z</time></trkpt><trkpt lat="44.544402366148454" lon="8.761386853127437"><ele>734.0</ele><time>2026-04-09T09:22:51Z</time></trkpt><trkpt lat="44.54448757186087" lon="8.761345905495437"><ele>734.0</ele><time>2026-04-09T09:22:52Z</time></trkpt><trkpt lat="44.544573404852365" lon="8.761320164658445"><ele>734.0</ele><time>2026-04-09T09:22:53Z</time></trkpt><trkpt lat="44.54464957241329" lon="8.761247975027898"><ele>734.0</ele><time>2026-04-09T09:22:54Z</time></trkpt><trkpt lat="44.54470999832121" lon="8.761146068266608"><ele>734.0</ele><time>2026-04-09T09:22:55Z</time></trkpt><trkpt lat="44.54475032638582" lon="8.761025642662107"><ele>736.1666666666666</ele><time>2026-04-09T09:22:56Z</time></trkpt><trkpt lat="44.544756946306784" lon="8.760886465703095"><ele>738.3333333333333</ele><time>2026-04-09T09:22:57Z</time></trkpt><trkpt lat="44.54474509119795" lon="8.76076453763413"><ele>740.5</ele><time>2026-04-09T09:22:58Z</time></trkpt><trkpt lat="44.544729724647226" lon="8.760650083600002"><ele>742.6666666666666</ele><time>2026-04-09T09:22:59Z</time></trkpt><trkpt lat="44.544713523175226" lon="8.760545328752091"><ele>744.8333333333334</ele><time>2026-04-09T09:23:00Z</time></trkpt><trkpt lat="44.544698188616735" lon="8.760447202733625"><ele>747.0</ele><time>2026-04-09T09:23:01Z</time></trkpt><trkpt lat="44.54468594640321" lon="8.76034474357285"><ele>746.2</ele><time>2026-04-09T09:23:02Z</time></trkpt><trkpt lat="44.544727670812" lon="8.760167190689565"><ele>745.4000000000001</ele><time>2026-04-09T09:23:04Z</time></trkpt><trkpt lat="44.54476770780732" lon="8.760055063967002"><ele>744.5999999999999</ele><time>2026-04-09T09:23:05Z</time></trkpt><trkpt lat="44.544796673770925" lon="8.759938131234788"><ele>743.8</ele><time>2026-04-09T09:23:06Z</time></trkpt><trkpt lat="44.54479428054454" lon="8.75980855243613"><ele>743.0</ele><time>2026-04-09T09:23:07Z</time></trkpt><trkpt lat="44.54474374908396" lon="8.759691941084018"><ele>743.0</ele><time>2026-04-09T09:23:08Z</time></trkpt><trkpt lat="44.54469604003435" lon="8.75959647049719"><ele>743.0</ele><time>2026-04-09T09:23:09Z</time></trkpt><trkpt lat="44.54465935617379" lon="8.75949936205576"><ele>743.0</ele><time>2026-04-09T09:23:10Z</time></trkpt><trkpt lat="44.54463087208943" lon="8.75940274761226"><ele>743.0</ele><time>2026-04-09T09:23:11Z</time></trkpt><trkpt lat="44.54460485482796" lon="8.759307259842547"><ele>743.0</ele><time>2026-04-09T09:23:12Z</time></trkpt><trkpt lat="44.54458361963663" lon="8.759218101653248"><ele>743.0</ele><time>2026-04-09T09:23:13Z</time></trkpt><trkpt lat="44.544566378059045" lon="8.75912669440262"><ele>743.0</ele><time>2026-04-09T09:23:14Z</time></trkpt><trkpt lat="44.54451685327801" lon="8.759039587670097"><ele>740.0</ele><time>2026-04-09T09:23:15Z</time></trkpt><trkpt lat="44.54450205933265" lon="8.758937617287577"><ele>737.0</ele><time>2026-04-09T09:23:16Z</time></trkpt><trkpt lat="44.5444993390005" lon="8.758829313671392"><ele>734.0</ele><time>2026-04-09T09:23:17Z</time></trkpt><trkpt lat="44.544501225714065" lon="8.758720236276096"><ele>731.0</ele><time>2026-04-09T09:23:18Z</time></trkpt><trkpt lat="44.544501248411656" lon="8.758609570309329"><ele>728.0</ele><time>2026-04-09T09:23:19Z</time></trkpt><trkpt lat="44.544490932083086" lon="8.758503095062128"><ele>725.0</ele><time>2026-04-09T09:23:20Z</time></trkpt><trkpt lat="44.54449940249698" lon="8.75839744752163"><ele>725.0</ele><time>2026-04-09T09:23:21Z</time></trkpt><trkpt lat="44.54453974577448" lon="8.758290539837681"><ele>725.0</ele><time>2026-04-09T09:23:22Z</time></trkpt><trkpt lat="44.544533838541554" lon="8.758181277193227"><ele>725.0</ele><time>2026-04-09T09:23:23Z</time></trkpt><trkpt lat="44.54452451053622" lon="8.758085285507153"><ele>725.0</ele><time>2026-04-09T09:23:24Z</time></trkpt><trkpt lat="44.54451750323957" lon="8.757995984941912"><ele>725.0</ele><time>2026-04-09T09:23:25Z</time></trkpt><trkpt lat="44.5445477408847" lon="8.757871890067555"><ele>725.0</ele><time>2026-04-09T09:23:27Z</time></trkpt><trkpt lat="44.544646353794995" lon="8.757774114327573"><ele>726.1666666666666</ele><time>2026-04-09T09:23:29Z</time></trkpt><trkpt lat="44.54471358798165" lon="8.757738950045288"><ele>727.3333333333333</ele><time>2026-04-09T09:23:30Z</time></trkpt><trkpt lat="44.544798595885666" lon="8.757706668004731"><ele>728.5</ele><time>2026-04-09T09:23:31Z</time></trkpt><trkpt lat="44.54488723687335" lon="8.757672179034563"><ele>729.6666666666666</ele><time>2026-04-09T09:23:32Z</time></trkpt><trkpt lat="44.544962579364686" lon="8.757622495955664"><ele>730.8333333333334</ele><time>2026-04-09T09:23:33Z</time></trkpt><trkpt lat="44.54504026530331" lon="8.757592324558113"><ele>732.0</ele><time>2026-04-09T09:23:34Z</time></trkpt><trkpt lat="44.54511115473589" lon="8.757545828303156"><ele>732.0</ele><time>2026-04-09T09:23:35Z</time></trkpt><trkpt lat="44.54518669581476" lon="8.757510354037198"><ele>732.0</ele><time>2026-04-09T09:23:36Z</time></trkpt><trkpt lat="44.54526719097062" lon="8.757489237965137"><ele>732.0</ele><time>2026-04-09T09:23:37Z</time></trkpt><trkpt lat="44.54534121165259" lon="8.757469588005828"><ele>732.0</ele><time>2026-04-09T09:23:38Z</time></trkpt><trkpt lat="44.54540361869323" lon="8.757445776186257"><ele>732.0</ele><time>2026-04-09T09:23:39Z</time></trkpt><trkpt lat="44.545468368128994" lon="8.757426950114628"><ele>732.0</ele><time>2026-04-09T09:23:40Z</time></trkpt><trkpt lat="44.54554579236261" lon="8.75740364121636"><ele>732.0</ele><time>2026-04-09T09:23:41Z</time></trkpt><trkpt lat="44.545642038276" lon="8.757396827028064"><ele>733.2</ele><time>2026-04-09T09:23:42Z</time></trkpt><trkpt lat="44.54574700596056" lon="8.757361273113904"><ele>734.4000000000001</ele><time>2026-04-09T09:23:43Z</time></trkpt><trkpt lat="44.545857667350866" lon="8.757318600830992"><ele>735.5999999999999</ele><time>2026-04-09T09:23:44Z</time></trkpt><trkpt lat="44.5459727778823" lon="8.757301327615382"><ele>736.8</ele><time>2026-04-09T09:23:45Z</time></trkpt><trkpt lat="44.546072918020954" lon="8.757289856135017"><ele>738.0</ele><time>2026-04-09T09:23:46Z</time></trkpt><trkpt lat="44.54616054972198" lon="8.757262112865897"><ele>739.0</ele><time>2026-04-09T09:23:47Z</time></trkpt><trkpt lat="44.546230591460905" lon="8.757239365719128"><ele>740.0</ele><time>2026-04-09T09:23:48Z</time></trkpt><trkpt lat="44.546344528910296" lon="8.757142981257683"><ele>741.0</ele><time>2026-04-09T09:23:50Z</time></trkpt><trkpt lat="44.54635600465895" lon="8.756993511943625"><ele>742.0</ele><time>2026-04-09T09:23:51Z</time></trkpt><trkpt lat="44.54629122885559" lon="8.756867042282943"><ele>743.0</ele><time>2026-04-09T09:23:52Z</time></trkpt><trkpt lat="44.54628386434883" lon="8.756754254881358"><ele>743.0</ele><time>2026-04-09T09:23:53Z</time></trkpt><trkpt lat="44.54628820480525" lon="8.756622246873004"><ele>743.0</ele><time>2026-04-09T09:23:54Z</time></trkpt><trkpt lat="44.54629214633901" lon="8.756487871867511"><ele>743.0</ele><time>2026-04-09T09:23:55Z</time></trkpt><trkpt lat="44.54629648158701" lon="8.756371923325341"><ele>743.0</ele><time>2026-04-09T09:23:56Z</time></trkpt><trkpt lat="44.54631131841384" lon="8.756263866131917"><ele>743.0</ele><time>2026-04-09T09:23:57Z</time></trkpt><trkpt lat="44.546346119098885" lon="8.756169468355147"><ele>743.0</ele><time>2026-04-09T09:23:58Z</time></trkpt><trkpt lat="44.54637896887898" lon="8.756058098345177"><ele>741.8</ele><time>2026-04-09T09:23:59Z</time></trkpt><trkpt lat="44.54640908995934" lon="8.755940778032112"><ele>740.5999999999999</ele><time>2026-04-09T09:24:00Z</time></trkpt><trkpt lat="44.54643623196441" lon="8.75582327408658"><ele>739.4000000000001</ele><time>2026-04-09T09:24:01Z</time></trkpt><trkpt lat="44.54647342390765" lon="8.755710072569864"><ele>738.2</ele><time>2026-04-09T09:24:02Z</time></trkpt><trkpt lat="44.54652141188122" lon="8.755599651721699"><ele>737.0</ele><time>2026-04-09T09:24:03Z</time></trkpt><trkpt lat="44.54656859140081" lon="8.755472021431464"><ele>737.0</ele><time>2026-04-09T09:24:04Z</time></trkpt><trkpt lat="44.54660671463266" lon="8.755330808841379"><ele>737.0</ele><time>2026-04-09T09:24:05Z</time></trkpt><trkpt lat="44.54664245836967" lon="8.755189634945545"><ele>737.0</ele><time>2026-04-09T09:24:06Z</time></trkpt><trkpt lat="44.54667646779443" lon="8.755047159778726"><ele>737.0</ele><time>2026-04-09T09:24:07Z</time></trkpt><trkpt lat="44.546730134852815" lon="8.754910237004312"><ele>737.0</ele><time>2026-04-09T09:24:08Z</time></trkpt><trkpt lat="44.54675313865437" lon="8.754748510450224"><ele>734.6</ele><time>2026-04-09T09:24:09Z</time></trkpt><trkpt lat="44.5467697301143" lon="8.75459507905891"><ele>732.2</ele><time>2026-04-09T09:24:10Z</time></trkpt><trkpt lat="44.5467883555563" lon="8.754446854879337"><ele>729.8</ele><time>2026-04-09T09:24:11Z</time></trkpt><trkpt lat="44.546791583511954" lon="8.754300719258563"><ele>727.4</ele><time>2026-04-09T09:24:12Z</time></trkpt><trkpt lat="44.546816064924236" lon="8.754163232204473"><ele>725.0</ele><time>2026-04-09T09:24:13Z</time></trkpt><trkpt lat="44.54681694636712" lon="8.75402203890885"><ele>724.2</ele><time>2026-04-09T09:24:14Z</time></trkpt><trkpt lat="44.546815223635306" lon="8.753892642957661"><ele>723.4</ele><time>2026-04-09T09:24:15Z</time></trkpt><trkpt lat="44.54680767981311" lon="8.753761750691817"><ele>722.5999999999999</ele><time>2026-04-09T09:24:16Z</time></trkpt><trkpt lat="44.546781839704366" lon="8.753618573977311"><ele>721.8</ele><time>2026-04-09T09:24:17Z</time></trkpt><trkpt lat="44.546743201067414" lon="8.753484401291109"><ele>721.0</ele><time>2026-04-09T09:24:18Z</time></trkpt><trkpt lat="44.546692475488356" lon="8.753348315895613"><ele>721.0</ele><time>2026-04-09T09:24:19Z</time></trkpt><trkpt lat="44.5466358535212" lon="8.753209086494486"><ele>721.0</ele><time>2026-04-09T09:24:20Z</time></trkpt><trkpt lat="44.546584392534555" lon="8.753083399371986"><ele>721.0</ele><time>2026-04-09T09:24:21Z</time></trkpt><trkpt lat="44.546540940758135" lon="8.75296611106697"><ele>721.0</ele><time>2026-04-09T09:24:22Z</time></trkpt><trkpt lat="44.54650985880592" lon="8.752863356502123"><ele>721.0</ele><time>2026-04-09T09:24:23Z</time></trkpt><trkpt lat="44.54649328434366" lon="8.752763532424087"><ele>720.6666666666667</ele><time>2026-04-09T09:24:24Z</time></trkpt><trkpt lat="44.54647060447757" lon="8.752659257227535"><ele>720.3333333333334</ele><time>2026-04-09T09:24:25Z</time></trkpt><trkpt lat="44.546476419876754" lon="8.752544844651126"><ele>720.0</ele><time>2026-04-09T09:24:26Z</time></trkpt><trkpt lat="44.54648890507179" lon="8.752429915883958"><ele>719.6666666666666</ele><time>2026-04-09T09:24:27Z</time></trkpt><trkpt lat="44.54651300120619" lon="8.752319202678928"><ele>719.3333333333333</ele><time>2026-04-09T09:24:28Z</time></trkpt><trkpt lat="44.54655565266759" lon="8.75221697713202"><ele>719.0</ele><time>2026-04-09T09:24:29Z</time></trkpt><trkpt lat="44.54656454639768" lon="8.75209254000322"><ele>719.0</ele><time>2026-04-09T09:24:30Z</time></trkpt><trkpt lat="44.546534739116176" lon="8.751950618098707"><ele>719.0</ele><time>2026-04-09T09:24:31Z</time></trkpt><trkpt lat="44.546499580032695" lon="8.751829426315595"><ele>719.0</ele><time>2026-04-09T09:24:32Z</time></trkpt><trkpt lat="44.54646343195919" lon="8.751716851412942"><ele>719.0</ele><time>2026-04-09T09:24:33Z</time></trkpt><trkpt lat="44.54641665592954" lon="8.75160328331758"><ele>719.0</ele><time>2026-04-09T09:24:34Z</time></trkpt><trkpt lat="44.546343761779454" lon="8.751508785278174"><ele>719.0</ele><time>2026-04-09T09:24:35Z</time></trkpt><trkpt lat="44.54627299418851" lon="8.75143236292817"><ele>719.0</ele><time>2026-04-09T09:24:36Z</time></trkpt><trkpt lat="44.54620008878741" lon="8.751353653746909"><ele>719.0</ele><time>2026-04-09T09:24:37Z</time></trkpt><trkpt lat="44.546128918109254" lon="8.751270582111452"><ele>719.0</ele><time>2026-04-09T09:24:38Z</time></trkpt><trkpt lat="44.54606445967175" lon="8.751183041977189"><ele>719.0</ele><time>2026-04-09T09:24:39Z</time></trkpt><trkpt lat="44.546013348949074" lon="8.751094057637514"><ele>719.0</ele><time>2026-04-09T09:24:40Z</time></trkpt><trkpt lat="44.54597503106519" lon="8.751005884530045"><ele>713.0</ele><time>2026-04-09T09:24:41Z</time></trkpt><trkpt lat="44.545957248307936" lon="8.750919494956012"><ele>707.0</ele><time>2026-04-09T09:24:42Z</time></trkpt><trkpt lat="44.54600397281758" lon="8.750730001615667"><ele>701.0</ele><time>2026-04-09T09:24:44Z</time></trkpt><trkpt lat="44.54601428670091" lon="8.750618030931523"><ele>695.0</ele><time>2026-04-09T09:24:45Z</time></trkpt><trkpt lat="44.54600335317382" lon="8.750486462718392"><ele>689.0</ele><time>2026-04-09T09:24:46Z</time></trkpt><trkpt lat="44.545972892924425" lon="8.750371841852505"><ele>689.0</ele><time>2026-04-09T09:24:47Z</time></trkpt><trkpt lat="44.54591461304735" lon="8.750278909218128"><ele>689.0</ele><time>2026-04-09T09:24:48Z</time></trkpt><trkpt lat="44.5458637202184" lon="8.750201483848578"><ele>689.0</ele><time>2026-04-09T09:24:49Z</time></trkpt><trkpt lat="44.54581983649577" lon="8.750126176241148"><ele>689.0</ele><time>2026-04-09T09:24:50Z</time></trkpt><trkpt lat="44.54575220860484" lon="8.750069460025566"><ele>689.0</ele><time>2026-04-09T09:24:51Z</time></trkpt><trkpt lat="44.54566774827022" lon="8.750044620721608"><ele>689.0</ele><time>2026-04-09T09:24:52Z</time></trkpt><trkpt lat="44.54560039285215" lon="8.750009362467713"><ele>688.8333333333333</ele><time>2026-04-09T09:24:53Z</time></trkpt><trkpt lat="44.545544965174294" lon="8.749875959390328"><ele>688.6666666666666</ele><time>2026-04-09T09:24:55Z</time></trkpt><trkpt lat="44.545577705285254" lon="8.749795932168055"><ele>688.5</ele><time>2026-04-09T09:24:56Z</time></trkpt><trkpt lat="44.54557923600989" lon="8.749688791742818"><ele>688.3333333333334</ele><time>2026-04-09T09:24:57Z</time></trkpt><trkpt lat="44.54558061521973" lon="8.74955548397114"><ele>688.1666666666667</ele><time>2026-04-09T09:24:58Z</time></trkpt><trkpt lat="44.54558795842533" lon="8.749418465209171"><ele>688.0</ele><time>2026-04-09T09:24:59Z</time></trkpt><trkpt lat="44.54560702025567" lon="8.749277267401927"><ele>688.0</ele><time>2026-04-09T09:25:00Z</time></trkpt><trkpt lat="44.545620115128" lon="8.749120369194141"><ele>688.0</ele><time>2026-04-09T09:25:01Z</time></trkpt><trkpt lat="44.545615293280456" lon="8.748974732544095"><ele>688.0</ele><time>2026-04-09T09:25:02Z</time></trkpt><trkpt lat="44.54564960192514" lon="8.748838458311662"><ele>688.0</ele><time>2026-04-09T09:25:03Z</time></trkpt><trkpt lat="44.545683105276474" lon="8.748708362313874"><ele>688.0</ele><time>2026-04-09T09:25:04Z</time></trkpt><trkpt lat="44.54570746088603" lon="8.748584887803196"><ele>688.5999999999999</ele><time>2026-04-09T09:25:05Z</time></trkpt><trkpt lat="44.545721225718616" lon="8.748462530785442"><ele>689.1999999999999</ele><time>2026-04-09T09:25:06Z</time></trkpt><trkpt lat="44.54566112103949" lon="8.7483358996911"><ele>689.8</ele><time>2026-04-09T09:25:07Z</time></trkpt><trkpt lat="44.54556701601407" lon="8.748280951309438"><ele>690.4</ele><time>2026-04-09T09:25:08Z</time></trkpt><trkpt lat="44.54548721381895" lon="8.748218391597446"><ele>691.0</ele><time>2026-04-09T09:25:09Z</time></trkpt><trkpt lat="44.54542162467835" lon="8.748155828438492"><ele>687.0</ele><time>2026-04-09T09:25:10Z</time></trkpt><trkpt lat="44.54537523583908" lon="8.748058563840415"><ele>683.0</ele><time>2026-04-09T09:25:11Z</time></trkpt><trkpt lat="44.54533190921991" lon="8.747957934922356"><ele>679.0</ele><time>2026-04-09T09:25:12Z</time></trkpt><trkpt lat="44.54532318408458" lon="8.747849879222663"><ele>675.0</ele><time>2026-04-09T09:25:13Z</time></trkpt><trkpt lat="44.545327950905644" lon="8.747731509235685"><ele>671.0</ele><time>2026-04-09T09:25:14Z</time></trkpt><trkpt lat="44.54533835672975" lon="8.747609310801625"><ele>667.0</ele><time>2026-04-09T09:25:15Z</time></trkpt><trkpt lat="44.54534692857488" lon="8.74748362563837"><ele>667.0</ele><time>2026-04-09T09:25:16Z</time></trkpt><trkpt lat="44.5453406246889" lon="8.747360752910408"><ele>667.0</ele><time>2026-04-09T09:25:17Z</time></trkpt><trkpt lat="44.54526618000801" lon="8.747255113495141"><ele>667.0</ele><time>2026-04-09T09:25:18Z</time></trkpt><trkpt lat="44.54516984574926" lon="8.747235231314882"><ele>667.0</ele><time>2026-04-09T09:25:19Z</time></trkpt><trkpt lat="44.54508691341881" lon="8.747222238596414"><ele>667.0</ele><time>2026-04-09T09:25:20Z</time></trkpt><trkpt lat="44.545021305708744" lon="8.747157969406361"><ele>667.0000000000001</ele><time>2026-04-09T09:25:21Z</time></trkpt><trkpt lat="44.54495596423127" lon="8.74707599084345"><ele>667.0</ele><time>2026-04-09T09:25:22Z</time></trkpt><trkpt lat="44.544905645158" lon="8.746990034938435"><ele>667.0</ele><time>2026-04-09T09:25:23Z</time></trkpt><trkpt lat="44.54486965550679" lon="8.74690331697899"><ele>667.0</ele><time>2026-04-09T09:25:24Z</time></trkpt><trkpt lat="44.54484917816046" lon="8.74681120878424"><ele>667.0</ele><time>2026-04-09T09:25:25Z</time></trkpt><trkpt lat="44.54483700796165" lon="8.746721268752292"><ele>667.0000000000001</ele><time>2026-04-09T09:25:26Z</time></trkpt><trkpt lat="44.544840887222804" lon="8.746623976161553"><ele>667.0</ele><time>2026-04-09T09:25:27Z</time></trkpt><trkpt lat="44.54483433640232" lon="8.746510852702864"><ele>667.8</ele><time>2026-04-09T09:25:28Z</time></trkpt><trkpt lat="44.54482015214341" lon="8.746395057510881"><ele>668.6</ele><time>2026-04-09T09:25:29Z</time></trkpt><trkpt lat="44.54476233145237" lon="8.746293141990465"><ele>669.4</ele><time>2026-04-09T09:25:30Z</time></trkpt><trkpt lat="44.544642405826195" lon="8.746325851017858"><ele>670.1999999999999</ele><time>2026-04-09T09:25:31Z</time></trkpt><trkpt lat="44.54456110714951" lon="8.746344210585702"><ele>671.0</ele><time>2026-04-09T09:25:32Z</time></trkpt><trkpt lat="44.544491973719104" lon="8.746318309942044"><ele>670.5999999999999</ele><time>2026-04-09T09:25:33Z</time></trkpt><trkpt lat="44.54445835348296" lon="8.746218660330099"><ele>670.2</ele><time>2026-04-09T09:25:34Z</time></trkpt><trkpt lat="44.54449697204898" lon="8.746038714858674"><ele>669.8</ele><time>2026-04-09T09:25:36Z</time></trkpt><trkpt lat="44.54452445258749" lon="8.745918585688795"><ele>669.4000000000001</ele><time>2026-04-09T09:25:37Z</time></trkpt><trkpt lat="44.54456107294443" lon="8.745791960871633"><ele>669.0</ele><time>2026-04-09T09:25:38Z</time></trkpt><trkpt lat="44.54460664894735" lon="8.745667714026863"><ele>669.0</ele><time>2026-04-09T09:25:39Z</time></trkpt><trkpt lat="44.54465960008785" lon="8.74555929984519"><ele>669.0</ele><time>2026-04-09T09:25:40Z</time></trkpt><trkpt lat="44.54472886256403" lon="8.745480664325212"><ele>669.0</ele><time>2026-04-09T09:25:41Z</time></trkpt><trkpt lat="44.54478066782847" lon="8.74536443333968"><ele>669.0</ele><time>2026-04-09T09:25:42Z</time></trkpt><trkpt lat="44.54476598475613" lon="8.745200040270436"><ele>669.0</ele><time>2026-04-09T09:25:43Z</time></trkpt><trkpt lat="44.54477388752605" lon="8.745065117224478"><ele>669.0</ele><time>2026-04-09T09:25:44Z</time></trkpt><trkpt lat="44.54479201205323" lon="8.744945939961262"><ele>669.0</ele><time>2026-04-09T09:25:45Z</time></trkpt><trkpt lat="44.544823883841346" lon="8.744831561633104"><ele>669.0</ele><time>2026-04-09T09:25:46Z</time></trkpt><trkpt lat="44.54484045745728" lon="8.744724313189963"><ele>669.0</ele><time>2026-04-09T09:25:47Z</time></trkpt><trkpt lat="44.54481386117893" lon="8.74461634410954"><ele>669.0</ele><time>2026-04-09T09:25:48Z</time></trkpt><trkpt lat="44.54477890267256" lon="8.74452443324597"><ele>669.0</ele><time>2026-04-09T09:25:49Z</time></trkpt><trkpt lat="44.54470084350847" lon="8.744448106818485"><ele>669.0</ele><time>2026-04-09T09:25:50Z</time></trkpt><trkpt lat="44.544592388305134" lon="8.744438217126309"><ele>669.0</ele><time>2026-04-09T09:25:51Z</time></trkpt><trkpt lat="44.544515348106984" lon="8.744371653442208"><ele>669.0</ele><time>2026-04-09T09:25:52Z</time></trkpt><trkpt lat="44.544455011593236" lon="8.744308606029463"><ele>669.0</ele><time>2026-04-09T09:25:53Z</time></trkpt><trkpt lat="44.544424141147566" lon="8.74422227656704"><ele>669.0</ele><time>2026-04-09T09:25:54Z</time></trkpt><trkpt lat="44.54438156437723" lon="8.74411150282029"><ele>669.0</ele><time>2026-04-09T09:25:55Z</time></trkpt><trkpt lat="44.544327364944074" lon="8.743998094578213"><ele>666.5</ele><time>2026-04-09T09:25:56Z</time></trkpt><trkpt lat="44.544278447714575" lon="8.743885016038266"><ele>664.0</ele><time>2026-04-09T09:25:57Z</time></trkpt><trkpt lat="44.544230403826504" lon="8.743766340397976"><ele>661.5</ele><time>2026-04-09T09:25:58Z</time></trkpt><trkpt lat="44.54420197620899" lon="8.743661103180617"><ele>659.0</ele><time>2026-04-09T09:25:59Z</time></trkpt><trkpt lat="44.544185087637054" lon="8.743549870846174"><ele>656.5</ele><time>2026-04-09T09:26:00Z</time></trkpt><trkpt lat="44.544188416568446" lon="8.74342491663947"><ele>654.0</ele><time>2026-04-09T09:26:01Z</time></trkpt><trkpt lat="44.544194152290295" lon="8.743271286656569"><ele>654.0</ele><time>2026-04-09T09:26:02Z</time></trkpt><trkpt lat="44.544195857847065" lon="8.74310565303878"><ele>654.0</ele><time>2026-04-09T09:26:03Z</time></trkpt><trkpt lat="44.544174345674286" lon="8.742933112265293"><ele>654.0</ele><time>2026-04-09T09:26:04Z</time></trkpt><trkpt lat="44.54415069115453" lon="8.742763678572425"><ele>654.0</ele><time>2026-04-09T09:26:05Z</time></trkpt><trkpt lat="44.54414146542775" lon="8.742609660254661"><ele>654.3333333333334</ele><time>2026-04-09T09:26:06Z</time></trkpt><trkpt lat="44.54413990259777" lon="8.74245761302105"><ele>654.6666666666666</ele><time>2026-04-09T09:26:07Z</time></trkpt><trkpt lat="44.54413740300727" lon="8.742332426047481"><ele>655.0</ele><time>2026-04-09T09:26:08Z</time></trkpt><trkpt lat="44.544121107975485" lon="8.742220176508443"><ele>655.3333333333333</ele><time>2026-04-09T09:26:09Z</time></trkpt><trkpt lat="44.54407717974156" lon="8.742132671133803"><ele>655.6666666666666</ele><time>2026-04-09T09:26:10Z</time></trkpt><trkpt lat="44.543987300266224" lon="8.742102548501835"><ele>656.0</ele><time>2026-04-09T09:26:11Z</time></trkpt><trkpt lat="44.54390123386299" lon="8.742111015525419"><ele>656.0</ele><time>2026-04-09T09:26:12Z</time></trkpt><trkpt lat="44.543830315795496" lon="8.742029793072586"><ele>656.0</ele><time>2026-04-09T09:26:13Z</time></trkpt><trkpt lat="44.543755959156776" lon="8.74194212609656"><ele>656.0</ele><time>2026-04-09T09:26:14Z</time></trkpt><trkpt lat="44.543684292713536" lon="8.741831605583545"><ele>656.0</ele><time>2026-04-09T09:26:15Z</time></trkpt><trkpt lat="44.543617930815664" lon="8.741698939468158"><ele>656.0</ele><time>2026-04-09T09:26:16Z</time></trkpt><trkpt lat="44.543543544299894" lon="8.741548776433604"><ele>657.5</ele><time>2026-04-09T09:26:17Z</time></trkpt><trkpt lat="44.543463299565296" lon="8.741399687538818"><ele>659.0</ele><time>2026-04-09T09:26:18Z</time></trkpt><trkpt lat="44.54336527545561" lon="8.74127506482615"><ele>660.5</ele><time>2026-04-09T09:26:19Z</time></trkpt><trkpt lat="44.54327234741222" lon="8.741155037329362"><ele>662.0</ele><time>2026-04-09T09:26:20Z</time></trkpt><trkpt lat="44.543185799045446" lon="8.741033464844751"><ele>662.0</ele><time>2026-04-09T09:26:21Z</time></trkpt><trkpt lat="44.543125281872456" lon="8.740892722613909"><ele>662.0</ele><time>2026-04-09T09:26:22Z</time></trkpt><trkpt lat="44.54306413778493" lon="8.740768239650093"><ele>662.0</ele><time>2026-04-09T09:26:23Z</time></trkpt><trkpt lat="44.543009095654945" lon="8.740650909152256"><ele>662.0</ele><time>2026-04-09T09:26:24Z</time></trkpt><trkpt lat="44.54296073037376" lon="8.74053712629854"><ele>662.0</ele><time>2026-04-09T09:26:25Z</time></trkpt><trkpt lat="44.54289681366798" lon="8.740452483578734"><ele>660.0</ele><time>2026-04-09T09:26:26Z</time></trkpt><trkpt lat="44.542811181089185" lon="8.740387691988191"><ele>658.0</ele><time>2026-04-09T09:26:27Z</time></trkpt><trkpt lat="44.54273754694642" lon="8.740319421746602"><ele>656.0</ele><time>2026-04-09T09:26:28Z</time></trkpt><trkpt lat="44.54270157482328" lon="8.740231443740749"><ele>654.0</ele><time>2026-04-09T09:26:29Z</time></trkpt><trkpt lat="44.542728128078856" lon="8.740113142161514"><ele>652.0</ele><time>2026-04-09T09:26:30Z</time></trkpt><trkpt lat="44.54271503194409" lon="8.73998535563237"><ele>650.0</ele><time>2026-04-09T09:26:31Z</time></trkpt><trkpt lat="44.54268055750877" lon="8.73984876263646"><ele>650.0</ele><time>2026-04-09T09:26:32Z</time></trkpt><trkpt lat="44.542638764952606" lon="8.739710150751913"><ele>650.0</ele><time>2026-04-09T09:26:33Z</time></trkpt><trkpt lat="44.54257512313013" lon="8.739581017316501"><ele>650.0</ele><time>2026-04-09T09:26:34Z</time></trkpt><trkpt lat="44.54251611652376" lon="8.739470869110619"><ele>650.0</ele><time>2026-04-09T09:26:35Z</time></trkpt><trkpt lat="44.54242868074176" lon="8.739417665227055"><ele>650.0</ele><time>2026-04-09T09:26:36Z</time></trkpt><trkpt lat="44.54235156633972" lon="8.739370243767361"><ele>652.2857142857142</ele><time>2026-04-09T09:26:37Z</time></trkpt><trkpt lat="44.542281980689" lon="8.739323238806953"><ele>654.5714285714287</ele><time>2026-04-09T09:26:38Z</time></trkpt><trkpt lat="44.5422526666229" lon="8.739227532796095"><ele>656.8571428571429</ele><time>2026-04-09T09:26:39Z</time></trkpt><trkpt lat="44.54225040256003" lon="8.739136439202156"><ele>659.1428571428571</ele><time>2026-04-09T09:26:40Z</time></trkpt><trkpt lat="44.54226274140715" lon="8.739026538530277"><ele>661.4285714285713</ele><time>2026-04-09T09:26:41Z</time></trkpt><trkpt lat="44.542243773148726" lon="8.73894144951708"><ele>663.7142857142858</ele><time>2026-04-09T09:26:42Z</time></trkpt><trkpt lat="44.54222320436859" lon="8.738843600992324"><ele>666.0</ele><time>2026-04-09T09:26:44Z</time></trkpt><trkpt lat="44.54216768943316" lon="8.73866305807619"><ele>666.0</ele><time>2026-04-09T09:26:54Z</time></trkpt><trkpt lat="44.54213252799136" lon="8.738556047985298"><ele>666.0</ele><time>2026-04-09T09:26:55Z</time></trkpt><trkpt lat="44.54211138819102" lon="8.738472754741721"><ele>666.0</ele><time>2026-04-09T09:26:56Z</time></trkpt><trkpt lat="44.542118325636544" lon="8.738291649500338"><ele>666.0</ele><time>2026-04-09T09:26:58Z</time></trkpt><trkpt lat="44.54210989234649" lon="8.738169789887282"><ele>666.0</ele><time>2026-04-09T09:26:59Z</time></trkpt><trkpt lat="44.542090820475764" lon="8.738041237771924"><ele>668.4</ele><time>2026-04-09T09:27:00Z</time></trkpt><trkpt lat="44.542049608865725" lon="8.737915075829786"><ele>670.8</ele><time>2026-04-09T09:27:01Z</time></trkpt><trkpt lat="44.54200194634014" lon="8.737792819104591"><ele>673.1999999999999</ele><time>2026-04-09T09:27:02Z</time></trkpt><trkpt lat="44.54195578405317" lon="8.737672617199667"><ele>675.5999999999999</ele><time>2026-04-09T09:27:03Z</time></trkpt><trkpt lat="44.541917356499745" lon="8.737565468914342"><ele>678.0</ele><time>2026-04-09T09:27:04Z</time></trkpt><trkpt lat="44.54188722632423" lon="8.737466350923455"><ele>679.2</ele><time>2026-04-09T09:27:05Z</time></trkpt><trkpt lat="44.54187853686915" lon="8.737376730471228"><ele>680.4</ele><time>2026-04-09T09:27:06Z</time></trkpt><trkpt lat="44.541942849546324" lon="8.73722707535261"><ele>681.6</ele><time>2026-04-09T09:27:08Z</time></trkpt><trkpt lat="44.54199185302189" lon="8.737104256453314"><ele>682.8000000000001</ele><time>2026-04-09T09:27:09Z</time></trkpt><trkpt lat="44.5420370773436" lon="8.736958363374537"><ele>684.0</ele><time>2026-04-09T09:27:10Z</time></trkpt><trkpt lat="44.54207602402053" lon="8.736792636598008"><ele>684.0</ele><time>2026-04-09T09:27:11Z</time></trkpt><trkpt lat="44.5421150225155" lon="8.736625214344313"><ele>684.0</ele><time>2026-04-09T09:27:12Z</time></trkpt><trkpt lat="44.54215848884166" lon="8.736456865692544"><ele>684.0</ele><time>2026-04-09T09:27:13Z</time></trkpt><trkpt lat="44.54220491083264" lon="8.736297875973005"><ele>684.0</ele><time>2026-04-09T09:27:14Z</time></trkpt><trkpt lat="44.54225059807935" lon="8.73615192277022"><ele>681.6</ele><time>2026-04-09T09:27:15Z</time></trkpt><trkpt lat="44.542300160539554" lon="8.736024210934476"><ele>679.2</ele><time>2026-04-09T09:27:16Z</time></trkpt><trkpt lat="44.54235401229426" lon="8.735908648639349"><ele>676.8000000000001</ele><time>2026-04-09T09:27:17Z</time></trkpt><trkpt lat="44.54242632656651" lon="8.73581926259455"><ele>674.4000000000001</ele><time>2026-04-09T09:27:18Z</time></trkpt><trkpt lat="44.54252054004303" lon="8.735717092037143"><ele>672.0</ele><time>2026-04-09T09:27:19Z</time></trkpt><trkpt lat="44.54262859809576" lon="8.735582905742937"><ele>672.0</ele><time>2026-04-09T09:27:20Z</time></trkpt><trkpt lat="44.54271936741768" lon="8.735449990397074"><ele>672.0</ele><time>2026-04-09T09:27:21Z</time></trkpt><trkpt lat="44.54277710054178" lon="8.735322070142404"><ele>672.0</ele><time>2026-04-09T09:27:22Z</time></trkpt><trkpt lat="44.542841932393074" lon="8.735202073428946"><ele>672.0</ele><time>2026-04-09T09:27:23Z</time></trkpt><trkpt lat="44.542836430503385" lon="8.73501945709859"><ele>669.5</ele><time>2026-04-09T09:27:24Z</time></trkpt><trkpt lat="44.54284317839367" lon="8.734830771421853"><ele>667.0</ele><time>2026-04-09T09:27:25Z</time></trkpt><trkpt lat="44.542845786473336" lon="8.734648257861904"><ele>664.5</ele><time>2026-04-09T09:27:26Z</time></trkpt><trkpt lat="44.542848846502125" lon="8.734466045372551"><ele>662.0</ele><time>2026-04-09T09:27:27Z</time></trkpt><trkpt lat="44.54283401329227" lon="8.734283451280655"><ele>662.0</ele><time>2026-04-09T09:27:28Z</time></trkpt><trkpt lat="44.54279872500159" lon="8.734095451297128"><ele>662.0</ele><time>2026-04-09T09:27:29Z</time></trkpt><trkpt lat="44.54275093545282" lon="8.733915378303946"><ele>662.0</ele><time>2026-04-09T09:27:30Z</time></trkpt><trkpt lat="44.54266133122946" lon="8.733801943363396"><ele>662.0</ele><time>2026-04-09T09:27:31Z</time></trkpt><trkpt lat="44.54258813147238" lon="8.73369037251303"><ele>662.0</ele><time>2026-04-09T09:27:32Z</time></trkpt><trkpt lat="44.542540326849526" lon="8.733582560081494"><ele>662.0</ele><time>2026-04-09T09:27:33Z</time></trkpt><trkpt lat="44.542533836721326" lon="8.733465900746772"><ele>662.0</ele><time>2026-04-09T09:27:34Z</time></trkpt><trkpt lat="44.54259947522538" lon="8.733376729927265"><ele>662.0</ele><time>2026-04-09T09:27:35Z</time></trkpt><trkpt lat="44.542651266738574" lon="8.733309490979945"><ele>662.0</ele><time>2026-04-09T09:27:36Z</time></trkpt><trkpt lat="44.54267579824823" lon="8.733210771384359"><ele>662.0</ele><time>2026-04-09T09:27:37Z</time></trkpt><trkpt lat="44.542649444698164" lon="8.733096720765335"><ele>663.8</ele><time>2026-04-09T09:27:38Z</time></trkpt><trkpt lat="44.54254929189767" lon="8.73302610230484"><ele>665.6</ele><time>2026-04-09T09:27:39Z</time></trkpt><trkpt lat="44.54243715443833" lon="8.733061995841839"><ele>667.4</ele><time>2026-04-09T09:27:40Z</time></trkpt><trkpt lat="44.54233327088923" lon="8.733065456398192"><ele>669.1999999999999</ele><time>2026-04-09T09:27:41Z</time></trkpt><trkpt lat="44.54224037740136" lon="8.73302982519713"><ele>671.0</ele><time>2026-04-09T09:27:42Z</time></trkpt><trkpt lat="44.54216074909109" lon="8.732949984649848"><ele>671.0</ele><time>2026-04-09T09:27:43Z</time></trkpt><trkpt lat="44.54208159374823" lon="8.732864017739738"><ele>671.0</ele><time>2026-04-09T09:27:44Z</time></trkpt><trkpt lat="44.54199460637709" lon="8.732762708263316"><ele>671.0</ele><time>2026-04-09T09:27:45Z</time></trkpt><trkpt lat="44.54192346079378" lon="8.732681295673514"><ele>671.0</ele><time>2026-04-09T09:27:46Z</time></trkpt><trkpt lat="44.541849064146405" lon="8.732616593134466"><ele>671.0</ele><time>2026-04-09T09:27:47Z</time></trkpt><trkpt lat="44.541752686226914" lon="8.732603831605926"><ele>672.4</ele><time>2026-04-09T09:27:48Z</time></trkpt><trkpt lat="44.54166720442458" lon="8.732692764774951"><ele>673.8</ele><time>2026-04-09T09:27:49Z</time></trkpt><trkpt lat="44.54159671757012" lon="8.732787831164579"><ele>675.1999999999999</ele><time>2026-04-09T09:27:50Z</time></trkpt><trkpt lat="44.54151858629689" lon="8.732856438786639"><ele>676.5999999999999</ele><time>2026-04-09T09:27:51Z</time></trkpt><trkpt lat="44.54144416747979" lon="8.73285657857575"><ele>678.0</ele><time>2026-04-09T09:27:52Z</time></trkpt><trkpt lat="44.54138802827503" lon="8.73273685131657"><ele>678.0</ele><time>2026-04-09T09:27:54Z</time></trkpt><trkpt lat="44.54138470841968" lon="8.732647889416512"><ele>678.0</ele><time>2026-04-09T09:27:55Z</time></trkpt><trkpt lat="44.54136584281" lon="8.732534041910432"><ele>678.0</ele><time>2026-04-09T09:27:56Z</time></trkpt><trkpt lat="44.54133611030154" lon="8.732418439678703"><ele>678.0</ele><time>2026-04-09T09:27:57Z</time></trkpt><trkpt lat="44.54129628557567" lon="8.732313498550258"><ele>678.0</ele><time>2026-04-09T09:27:58Z</time></trkpt><trkpt lat="44.541220020414805" lon="8.732232874166396"><ele>678.0</ele><time>2026-04-09T09:27:59Z</time></trkpt><trkpt lat="44.54111102420507" lon="8.732251774987937"><ele>675.5999999999999</ele><time>2026-04-09T09:28:00Z</time></trkpt><trkpt lat="44.54100756762078" lon="8.732248799503106"><ele>673.1999999999999</ele><time>2026-04-09T09:28:01Z</time></trkpt><trkpt lat="44.54090124145317" lon="8.732241810666645"><ele>670.8</ele><time>2026-04-09T09:28:02Z</time></trkpt><trkpt lat="44.54079132212705" lon="8.732237685487071"><ele>668.4</ele><time>2026-04-09T09:28:03Z</time></trkpt><trkpt lat="44.54068469104916" lon="8.732253830170537"><ele>666.0</ele><time>2026-04-09T09:28:04Z</time></trkpt><trkpt lat="44.540579853772606" lon="8.732280358283472"><ele>666.0</ele><time>2026-04-09T09:28:05Z</time></trkpt><trkpt lat="44.54046994378483" lon="8.732290423258927"><ele>666.0</ele><time>2026-04-09T09:28:06Z</time></trkpt><trkpt lat="44.54038154951943" lon="8.732302164082347"><ele>666.0</ele><time>2026-04-09T09:28:07Z</time></trkpt><trkpt lat="44.54030635132385" lon="8.73231436576171"><ele>666.0</ele><time>2026-04-09T09:28:08Z</time></trkpt><trkpt lat="44.540241783326564" lon="8.732298110812687"><ele>666.0</ele><time>2026-04-09T09:28:09Z</time></trkpt><trkpt lat="44.54018393288925" lon="8.732248345568928"><ele>666.0</ele><time>2026-04-09T09:28:10Z</time></trkpt><trkpt lat="44.54015695479213" lon="8.732148275841944"><ele>662.8</ele><time>2026-04-09T09:28:11Z</time></trkpt><trkpt lat="44.54011671298546" lon="8.732069356681523"><ele>659.5999999999999</ele><time>2026-04-09T09:28:12Z</time></trkpt><trkpt lat="44.54006481617224" lon="8.731979050830947"><ele>656.4</ele><time>2026-04-09T09:28:13Z</time></trkpt><trkpt lat="44.53997191373377" lon="8.731915548669102"><ele>653.2</ele><time>2026-04-09T09:28:14Z</time></trkpt><trkpt lat="44.53986094753088" lon="8.731915563885739"><ele>650.0</ele><time>2026-04-09T09:28:15Z</time></trkpt><trkpt lat="44.53974584483553" lon="8.7319063221731"><ele>650.6</ele><time>2026-04-09T09:28:16Z</time></trkpt><trkpt lat="44.53964278529276" lon="8.73187133394995"><ele>651.2</ele><time>2026-04-09T09:28:17Z</time></trkpt><trkpt lat="44.53954940702024" lon="8.731831349600032"><ele>651.8</ele><time>2026-04-09T09:28:18Z</time></trkpt><trkpt lat="44.539456576337564" lon="8.731813618070852"><ele>652.4</ele><time>2026-04-09T09:28:19Z</time></trkpt><trkpt lat="44.53936269813206" lon="8.731817217491042"><ele>653.0</ele><time>2026-04-09T09:28:20Z</time></trkpt><trkpt lat="44.5392731759701" lon="8.73183475187882"><ele>653.0</ele><time>2026-04-09T09:28:21Z</time></trkpt><trkpt lat="44.53921569834904" lon="8.731786777775966"><ele>653.0</ele><time>2026-04-09T09:28:22Z</time></trkpt><trkpt lat="44.53920885866054" lon="8.731695666622697"><ele>653.0</ele><time>2026-04-09T09:28:23Z</time></trkpt><trkpt lat="44.539262352813836" lon="8.731559541544199"><ele>653.0</ele><time>2026-04-09T09:28:25Z</time></trkpt><trkpt lat="44.53929911271032" lon="8.731462974706288"><ele>653.0</ele><time>2026-04-09T09:28:26Z</time></trkpt><trkpt lat="44.53934999980002" lon="8.731337090519897"><ele>653.0</ele><time>2026-04-09T09:28:27Z</time></trkpt><trkpt lat="44.539381425675174" lon="8.73120995871125"><ele>654.25</ele><time>2026-04-09T09:28:28Z</time></trkpt><trkpt lat="44.53938865087197" lon="8.731035599599888"><ele>655.5</ele><time>2026-04-09T09:28:29Z</time></trkpt><trkpt lat="44.53934434510729" lon="8.730867832155244"><ele>656.75</ele><time>2026-04-09T09:28:30Z</time></trkpt><trkpt lat="44.53926834161954" lon="8.730703526514755"><ele>658.0</ele><time>2026-04-09T09:28:31Z</time></trkpt><trkpt lat="44.53920754059206" lon="8.730574013830308"><ele>658.0</ele><time>2026-04-09T09:28:32Z</time></trkpt><trkpt lat="44.539152804658244" lon="8.730445721532098"><ele>658.0</ele><time>2026-04-09T09:28:33Z</time></trkpt><trkpt lat="44.53911086427593" lon="8.730336140941667"><ele>658.0</ele><time>2026-04-09T09:28:34Z</time></trkpt><trkpt lat="44.53908913825929" lon="8.73022951769326"><ele>658.0</ele><time>2026-04-09T09:28:35Z</time></trkpt><trkpt lat="44.539094746547356" lon="8.730138804436766"><ele>658.0</ele><time>2026-04-09T09:28:36Z</time></trkpt><trkpt lat="44.53912666327749" lon="8.730046675562242"><ele>658.0</ele><time>2026-04-09T09:28:37Z</time></trkpt><trkpt lat="44.5391433752806" lon="8.729926750887465"><ele>659.5999999999999</ele><time>2026-04-09T09:28:38Z</time></trkpt><trkpt lat="44.53914332269172" lon="8.72979881281389"><ele>661.1999999999999</ele><time>2026-04-09T09:28:39Z</time></trkpt><trkpt lat="44.53909114174472" lon="8.72964969127723"><ele>662.8</ele><time>2026-04-09T09:28:40Z</time></trkpt><trkpt lat="44.538998589069436" lon="8.729529478300964"><ele>664.4</ele><time>2026-04-09T09:28:41Z</time></trkpt><trkpt lat="44.53892655411755" lon="8.729414998000822"><ele>666.0</ele><time>2026-04-09T09:28:42Z</time></trkpt><trkpt lat="44.53885824866964" lon="8.729320616686099"><ele>662.75</ele><time>2026-04-09T09:28:43Z</time></trkpt><trkpt lat="44.538754533168195" lon="8.729268246342926"><ele>659.5</ele><time>2026-04-09T09:28:44Z</time></trkpt><trkpt lat="44.53863560051732" lon="8.729232094532831"><ele>656.25</ele><time>2026-04-09T09:28:45Z</time></trkpt><trkpt lat="44.538513678666156" lon="8.729213782337093"><ele>653.0</ele><time>2026-04-09T09:28:46Z</time></trkpt><trkpt lat="44.538376376899116" lon="8.729170401840847"><ele>653.0</ele><time>2026-04-09T09:28:47Z</time></trkpt><trkpt lat="44.53826731490398" lon="8.729103317245237"><ele>653.0</ele><time>2026-04-09T09:28:48Z</time></trkpt><trkpt lat="44.53817720052029" lon="8.729018890085223"><ele>653.0</ele><time>2026-04-09T09:28:49Z</time></trkpt><trkpt lat="44.53808948724674" lon="8.728943931863833"><ele>653.0</ele><time>2026-04-09T09:28:50Z</time></trkpt><trkpt lat="44.538014105233835" lon="8.728884889868844"><ele>653.0</ele><time>2026-04-09T09:28:51Z</time></trkpt><trkpt lat="44.53791818481871" lon="8.728846820281186"><ele>651.25</ele><time>2026-04-09T09:28:52Z</time></trkpt><trkpt lat="44.537808822227454" lon="8.728901264504847"><ele>649.5</ele><time>2026-04-09T09:28:53Z</time></trkpt><trkpt lat="44.537696184865325" lon="8.728929116227212"><ele>647.75</ele><time>2026-04-09T09:28:54Z</time></trkpt><trkpt lat="44.53757952541867" lon="8.72896575631387"><ele>646.0</ele><time>2026-04-09T09:28:55Z</time></trkpt><trkpt lat="44.53746227534319" lon="8.729005416333019"><ele>646.0</ele><time>2026-04-09T09:28:56Z</time></trkpt><trkpt lat="44.53735503365669" lon="8.729056498258524"><ele>646.0</ele><time>2026-04-09T09:28:57Z</time></trkpt><trkpt lat="44.53725687495641" lon="8.729071310987827"><ele>646.0</ele><time>2026-04-09T09:28:58Z</time></trkpt><trkpt lat="44.53717166473195" lon="8.729045660813824"><ele>646.0</ele><time>2026-04-09T09:28:59Z</time></trkpt><trkpt lat="44.53710513164656" lon="8.728992856187945"><ele>646.0</ele><time>2026-04-09T09:29:00Z</time></trkpt><trkpt lat="44.53701926056868" lon="8.728926432377449"><ele>645.75</ele><time>2026-04-09T09:29:01Z</time></trkpt><trkpt lat="44.53693723129189" lon="8.728837192263715"><ele>645.5</ele><time>2026-04-09T09:29:02Z</time></trkpt><trkpt lat="44.53685974322235" lon="8.72871439234103"><ele>645.25</ele><time>2026-04-09T09:29:03Z</time></trkpt><trkpt lat="44.5367610266225" lon="8.728619254909175"><ele>645.0</ele><time>2026-04-09T09:29:04Z</time></trkpt><trkpt lat="44.53666819962959" lon="8.728537941260816"><ele>645.0</ele><time>2026-04-09T09:29:05Z</time></trkpt><trkpt lat="44.536582053370125" lon="8.728457706603153"><ele>645.0</ele><time>2026-04-09T09:29:06Z</time></trkpt><trkpt lat="44.53651786120329" lon="8.728383002386948"><ele>645.0</ele><time>2026-04-09T09:29:07Z</time></trkpt><trkpt lat="44.53649100377153" lon="8.728297147666593"><ele>645.0</ele><time>2026-04-09T09:29:08Z</time></trkpt><trkpt lat="44.53651223897252" lon="8.728211478084704"><ele>645.0</ele><time>2026-04-09T09:29:09Z</time></trkpt><trkpt lat="44.53658817213262" lon="8.728069729824211"><ele>645.0</ele><time>2026-04-09T09:29:11Z</time></trkpt><trkpt lat="44.53663976732756" lon="8.727975425646967"><ele>645.0</ele><time>2026-04-09T09:29:12Z</time></trkpt><trkpt lat="44.53669785570615" lon="8.72785027013601"><ele>645.0</ele><time>2026-04-09T09:29:13Z</time></trkpt><trkpt lat="44.536743076561194" lon="8.727718998779686"><ele>645.0</ele><time>2026-04-09T09:29:14Z</time></trkpt><trkpt lat="44.536740946593596" lon="8.727561225522747"><ele>645.0</ele><time>2026-04-09T09:29:15Z</time></trkpt><trkpt lat="44.53671899832094" lon="8.72742218127746"><ele>645.0</ele><time>2026-04-09T09:29:16Z</time></trkpt><trkpt lat="44.53667203415438" lon="8.727284962776173"><ele>646.0</ele><time>2026-04-09T09:29:17Z</time></trkpt><trkpt lat="44.5365596624737" lon="8.727195307699672"><ele>647.0</ele><time>2026-04-09T09:29:18Z</time></trkpt><trkpt lat="44.536467254329764" lon="8.727098730324947"><ele>648.0</ele><time>2026-04-09T09:29:19Z</time></trkpt><trkpt lat="44.53637481897813" lon="8.72701583007434"><ele>649.0</ele><time>2026-04-09T09:29:20Z</time></trkpt><trkpt lat="44.53626958921107" lon="8.726950692373775"><ele>644.4000000000001</ele><time>2026-04-09T09:29:21Z</time></trkpt><trkpt lat="44.53616411829277" lon="8.72692426314878"><ele>639.8000000000001</ele><time>2026-04-09T09:29:22Z</time></trkpt><trkpt lat="44.5360746096728" lon="8.726914773857203"><ele>635.2</ele><time>2026-04-09T09:29:23Z</time></trkpt><trkpt lat="44.53598594081916" lon="8.7269814999642"><ele>630.6</ele><time>2026-04-09T09:29:24Z</time></trkpt><trkpt lat="44.53592587103591" lon="8.727087379158718"><ele>626.0</ele><time>2026-04-09T09:29:25Z</time></trkpt><trkpt lat="44.53585682422417" lon="8.727192172016853"><ele>626.0</ele><time>2026-04-09T09:29:26Z</time></trkpt><trkpt lat="44.53578475584217" lon="8.72723295104606"><ele>626.0</ele><time>2026-04-09T09:29:27Z</time></trkpt><trkpt lat="44.53570886013126" lon="8.72721473873275"><ele>626.0</ele><time>2026-04-09T09:29:28Z</time></trkpt><trkpt lat="44.535600579611234" lon="8.727269350522525"><ele>626.0</ele><time>2026-04-09T09:29:30Z</time></trkpt><trkpt lat="44.53547410760995" lon="8.727016894025585"><ele>625.2</ele><time>2026-04-09T09:29:31Z</time></trkpt><trkpt lat="44.53535939668968" lon="8.72700493793291"><ele>624.4000000000001</ele><time>2026-04-09T09:29:32Z</time></trkpt><trkpt lat="44.53524217400479" lon="8.726995722616074"><ele>623.6</ele><time>2026-04-09T09:29:33Z</time></trkpt><trkpt lat="44.53514132400669" lon="8.726967031045822"><ele>622.8000000000001</ele><time>2026-04-09T09:29:34Z</time></trkpt><trkpt lat="44.53504892302634" lon="8.726937548134034"><ele>622.0</ele><time>2026-04-09T09:29:35Z</time></trkpt><trkpt lat="44.53495043673623" lon="8.726934430772515"><ele>622.0</ele><time>2026-04-09T09:29:36Z</time></trkpt><trkpt lat="44.53486407403551" lon="8.726955852944393"><ele>622.0</ele><time>2026-04-09T09:29:37Z</time></trkpt><trkpt lat="44.534767050701596" lon="8.726973123061773"><ele>622.0</ele><time>2026-04-09T09:29:38Z</time></trkpt><trkpt lat="44.53465783249594" lon="8.727007650170894"><ele>622.0</ele><time>2026-04-09T09:29:39Z</time></trkpt><trkpt lat="44.53455453437853" lon="8.727068943064323"><ele>622.0</ele><time>2026-04-09T09:29:40Z</time></trkpt><trkpt lat="44.53446109609177" lon="8.72714523502221"><ele>623.4</ele><time>2026-04-09T09:29:41Z</time></trkpt><trkpt lat="44.534366402875044" lon="8.727233251060586"><ele>624.8000000000001</ele><time>2026-04-09T09:29:42Z</time></trkpt><trkpt lat="44.534274310596835" lon="8.727323108446592"><ele>626.2</ele><time>2026-04-09T09:29:43Z</time></trkpt><trkpt lat="44.5341914142217" lon="8.727426335398096"><ele>627.6</ele><time>2026-04-09T09:29:44Z</time></trkpt><trkpt lat="44.53411294736236" lon="8.727524504381241"><ele>629.0</ele><time>2026-04-09T09:29:45Z</time></trkpt><trkpt lat="44.53404032980775" lon="8.727605053014715"><ele>629.0</ele><time>2026-04-09T09:29:46Z</time></trkpt><trkpt lat="44.53397057626173" lon="8.72766283137938"><ele>629.0</ele><time>2026-04-09T09:29:47Z</time></trkpt><trkpt lat="44.533881081169554" lon="8.727668620825304"><ele>629.0</ele><time>2026-04-09T09:29:48Z</time></trkpt><trkpt lat="44.53378683968991" lon="8.727621037658547"><ele>629.0</ele><time>2026-04-09T09:29:49Z</time></trkpt><trkpt lat="44.53368468565636" lon="8.727574057616216"><ele>629.0</ele><time>2026-04-09T09:29:50Z</time></trkpt><trkpt lat="44.533557140652604" lon="8.727579024184058"><ele>627.5</ele><time>2026-04-09T09:29:51Z</time></trkpt><trkpt lat="44.53342354684676" lon="8.727564104930558"><ele>626.0</ele><time>2026-04-09T09:29:52Z</time></trkpt><trkpt lat="44.53329341877336" lon="8.727548447763157"><ele>624.5</ele><time>2026-04-09T09:29:53Z</time></trkpt><trkpt lat="44.53316624260094" lon="8.727552284021932"><ele>623.0</ele><time>2026-04-09T09:29:54Z</time></trkpt><trkpt lat="44.53304595313776" lon="8.727568814803409"><ele>623.0</ele><time>2026-04-09T09:29:55Z</time></trkpt><trkpt lat="44.53293560661244" lon="8.727563667046082"><ele>623.0</ele><time>2026-04-09T09:29:56Z</time></trkpt><trkpt lat="44.53284508109953" lon="8.727564811469263"><ele>623.0</ele><time>2026-04-09T09:29:57Z</time></trkpt><trkpt lat="44.53277613120837" lon="8.727542889459347"><ele>623.0</ele><time>2026-04-09T09:29:58Z</time></trkpt><trkpt lat="44.5327066738822" lon="8.727446981039986"><ele>623.0</ele><time>2026-04-09T09:30:00Z</time></trkpt><trkpt lat="44.532753357098315" lon="8.727269615382907"><ele>619.4</ele><time>2026-04-09T09:30:02Z</time></trkpt><trkpt lat="44.53278458651093" lon="8.727170235267963"><ele>615.8</ele><time>2026-04-09T09:30:03Z</time></trkpt><trkpt lat="44.53279995885085" lon="8.727052396598927"><ele>612.2</ele><time>2026-04-09T09:30:04Z</time></trkpt><trkpt lat="44.532782544682256" lon="8.72693471449954"><ele>608.6</ele><time>2026-04-09T09:30:05Z</time></trkpt><trkpt lat="44.53272523538324" lon="8.726811162133536"><ele>605.0</ele><time>2026-04-09T09:30:06Z</time></trkpt><trkpt lat="44.53264948960847" lon="8.726704319554003"><ele>605.0</ele><time>2026-04-09T09:30:07Z</time></trkpt><trkpt lat="44.53255858121069" lon="8.726611849082337"><ele>605.0</ele><time>2026-04-09T09:30:08Z</time></trkpt><trkpt lat="44.53248619946685" lon="8.726490335487975"><ele>605.0</ele><time>2026-04-09T09:30:09Z</time></trkpt><trkpt lat="44.53242649775956" lon="8.726349298459995"><ele>605.0</ele><time>2026-04-09T09:30:10Z</time></trkpt><trkpt lat="44.532367411988766" lon="8.726201683974969"><ele>605.0</ele><time>2026-04-09T09:30:11Z</time></trkpt><trkpt lat="44.53231178113284" lon="8.726070938340557"><ele>605.0</ele><time>2026-04-09T09:30:12Z</time></trkpt><trkpt lat="44.53221905020071" lon="8.72596277677961"><ele>605.0</ele><time>2026-04-09T09:30:13Z</time></trkpt><trkpt lat="44.53211806981973" lon="8.725893399267965"><ele>605.0</ele><time>2026-04-09T09:30:14Z</time></trkpt><trkpt lat="44.53202019577419" lon="8.725801852720782"><ele>602.2</ele><time>2026-04-09T09:30:15Z</time></trkpt><trkpt lat="44.531933569955115" lon="8.725707030246992"><ele>599.4</ele><time>2026-04-09T09:30:16Z</time></trkpt><trkpt lat="44.531839903618206" lon="8.725614169919027"><ele>596.6</ele><time>2026-04-09T09:30:17Z</time></trkpt><trkpt lat="44.53175029084814" lon="8.725542369070707"><ele>593.8</ele><time>2026-04-09T09:30:18Z</time></trkpt><trkpt lat="44.53165641388278" lon="8.725493971057784"><ele>591.0</ele><time>2026-04-09T09:30:19Z</time></trkpt><trkpt lat="44.53157067119937" lon="8.72545413338982"><ele>591.0</ele><time>2026-04-09T09:30:20Z</time></trkpt><trkpt lat="44.53150061789909" lon="8.725402140255472"><ele>591.0</ele><time>2026-04-09T09:30:21Z</time></trkpt><trkpt lat="44.53144258547222" lon="8.72525906600734"><ele>591.0</ele><time>2026-04-09T09:30:23Z</time></trkpt><trkpt lat="44.53149387131123" lon="8.725071816070834"><ele>591.0</ele><time>2026-04-09T09:30:25Z</time></trkpt><trkpt lat="44.53153184898707" lon="8.724962442307593"><ele>591.0</ele><time>2026-04-09T09:30:26Z</time></trkpt><trkpt lat="44.531554257555754" lon="8.724818527706768"><ele>591.8</ele><time>2026-04-09T09:30:27Z</time></trkpt><trkpt lat="44.53154751833475" lon="8.724677525429835"><ele>592.6</ele><time>2026-04-09T09:30:28Z</time></trkpt><trkpt lat="44.53154767368658" lon="8.72454393327306"><ele>593.4</ele><time>2026-04-09T09:30:29Z</time></trkpt><trkpt lat="44.531587615908165" lon="8.724433709145012"><ele>594.2</ele><time>2026-04-09T09:30:30Z</time></trkpt><trkpt lat="44.53164177286862" lon="8.72430228387764"><ele>595.0</ele><time>2026-04-09T09:30:31Z</time></trkpt><trkpt lat="44.53168698047856" lon="8.724170550881459"><ele>592.4</ele><time>2026-04-09T09:30:32Z</time></trkpt><trkpt lat="44.53172901719061" lon="8.724021449337629"><ele>589.8</ele><time>2026-04-09T09:30:33Z</time></trkpt><trkpt lat="44.53174981398941" lon="8.72387758032035"><ele>587.2</ele><time>2026-04-09T09:30:34Z</time></trkpt><trkpt lat="44.53176016279389" lon="8.723748270858419"><ele>584.6</ele><time>2026-04-09T09:30:35Z</time></trkpt><trkpt lat="44.53178402411491" lon="8.723647573727181"><ele>582.0</ele><time>2026-04-09T09:30:36Z</time></trkpt><trkpt lat="44.531842641007394" lon="8.723570101541618"><ele>581.5</ele><time>2026-04-09T09:30:37Z</time></trkpt><trkpt lat="44.53191663110801" lon="8.723505788620082"><ele>581.0</ele><time>2026-04-09T09:30:38Z</time></trkpt><trkpt lat="44.53200220402907" lon="8.723452802361221"><ele>580.5</ele><time>2026-04-09T09:30:39Z</time></trkpt><trkpt lat="44.53208392007162" lon="8.723395952073389"><ele>580.0</ele><time>2026-04-09T09:30:40Z</time></trkpt><trkpt lat="44.532153822843995" lon="8.723353986979486"><ele>579.5</ele><time>2026-04-09T09:30:41Z</time></trkpt><trkpt lat="44.53218290950541" lon="8.723271684260732"><ele>579.0</ele><time>2026-04-09T09:30:42Z</time></trkpt><trkpt lat="44.532179730683964" lon="8.723146060358514"><ele>579.0</ele><time>2026-04-09T09:30:43Z</time></trkpt><trkpt lat="44.532128030183316" lon="8.723034280150578"><ele>579.0</ele><time>2026-04-09T09:30:44Z</time></trkpt><trkpt lat="44.53204370665762" lon="8.722958233443663"><ele>579.0</ele><time>2026-04-09T09:30:45Z</time></trkpt><trkpt lat="44.53194075163732" lon="8.722890668399621"><ele>579.0</ele><time>2026-04-09T09:30:46Z</time></trkpt><trkpt lat="44.53183676579699" lon="8.72282416041907"><ele>579.0</ele><time>2026-04-09T09:30:47Z</time></trkpt><trkpt lat="44.531720384099465" lon="8.722779144883482"><ele>579.0</ele><time>2026-04-09T09:30:48Z</time></trkpt><trkpt lat="44.53158690335929" lon="8.722770825330738"><ele>579.0</ele><time>2026-04-09T09:30:49Z</time></trkpt><trkpt lat="44.53144573158834" lon="8.722764556021573"><ele>579.0</ele><time>2026-04-09T09:30:50Z</time></trkpt><trkpt lat="44.53130865171887" lon="8.722750538891555"><ele>579.0</ele><time>2026-04-09T09:30:51Z</time></trkpt><trkpt lat="44.531183042866346" lon="8.722724045232779"><ele>575.0</ele><time>2026-04-09T09:30:52Z</time></trkpt><trkpt lat="44.531056876090425" lon="8.722696213328856"><ele>571.0</ele><time>2026-04-09T09:30:53Z</time></trkpt><trkpt lat="44.53093762726096" lon="8.72270512120246"><ele>567.0</ele><time>2026-04-09T09:30:54Z</time></trkpt><trkpt lat="44.530826810262724" lon="8.722747761717061"><ele>563.0</ele><time>2026-04-09T09:30:55Z</time></trkpt><trkpt lat="44.53073504779599" lon="8.72283778722339"><ele>563.0</ele><time>2026-04-09T09:30:56Z</time></trkpt><trkpt lat="44.530649153476254" lon="8.722935591125392"><ele>563.0</ele><time>2026-04-09T09:30:57Z</time></trkpt><trkpt lat="44.53055039465679" lon="8.722959082891993"><ele>563.0</ele><time>2026-04-09T09:30:58Z</time></trkpt><trkpt lat="44.5304383468166" lon="8.72294681183238"><ele>563.0</ele><time>2026-04-09T09:30:59Z</time></trkpt><trkpt lat="44.530315422732066" lon="8.72294970946951"><ele>563.0</ele><time>2026-04-09T09:31:00Z</time></trkpt><trkpt lat="44.5301782561072" lon="8.722978149716138"><ele>562.1999999999999</ele><time>2026-04-09T09:31:01Z</time></trkpt><trkpt lat="44.5300571582195" lon="8.723009023950139"><ele>561.4</ele><time>2026-04-09T09:31:02Z</time></trkpt><trkpt lat="44.52996054236284" lon="8.723030323215616"><ele>560.5999999999999</ele><time>2026-04-09T09:31:03Z</time></trkpt><trkpt lat="44.529863267679495" lon="8.723055029931087"><ele>559.8</ele><time>2026-04-09T09:31:04Z</time></trkpt><trkpt lat="44.529777755699314" lon="8.723056354774899"><ele>559.0</ele><time>2026-04-09T09:31:05Z</time></trkpt><trkpt lat="44.529698970791806" lon="8.723018921897896"><ele>559.0</ele><time>2026-04-09T09:31:06Z</time></trkpt><trkpt lat="44.5296451213236" lon="8.72294599201817"><ele>559.0</ele><time>2026-04-09T09:31:07Z</time></trkpt><trkpt lat="44.52962661586373" lon="8.722849514746768"><ele>559.0</ele><time>2026-04-09T09:31:08Z</time></trkpt><trkpt lat="44.52961048516766" lon="8.722727937907191"><ele>559.0</ele><time>2026-04-09T09:31:09Z</time></trkpt><trkpt lat="44.52959499035356" lon="8.722603539001403"><ele>559.0</ele><time>2026-04-09T09:31:10Z</time></trkpt><trkpt lat="44.5295646284919" lon="8.722486036843463"><ele>559.0</ele><time>2026-04-09T09:31:11Z</time></trkpt><trkpt lat="44.529489208914285" lon="8.722396025437984"><ele>559.4</ele><time>2026-04-09T09:31:12Z</time></trkpt><trkpt lat="44.52939485973873" lon="8.72235311046228"><ele>559.8</ele><time>2026-04-09T09:31:13Z</time></trkpt><trkpt lat="44.52928765632528" lon="8.722306237635111"><ele>560.2</ele><time>2026-04-09T09:31:14Z</time></trkpt><trkpt lat="44.52920015181246" lon="8.722254850245767"><ele>560.6</ele><time>2026-04-09T09:31:15Z</time></trkpt><trkpt lat="44.52913276005308" lon="8.722188777352947"><ele>561.0</ele><time>2026-04-09T09:31:16Z</time></trkpt><trkpt lat="44.529071509108284" lon="8.722116327191694"><ele>561.0</ele><time>2026-04-09T09:31:17Z</time></trkpt><trkpt lat="44.52901764582443" lon="8.722031207699647"><ele>561.0</ele><time>2026-04-09T09:31:18Z</time></trkpt><trkpt lat="44.528961340724194" lon="8.721938448285457"><ele>561.0</ele><time>2026-04-09T09:31:19Z</time></trkpt><trkpt lat="44.528908541206505" lon="8.721842145904215"><ele>561.0</ele><time>2026-04-09T09:31:20Z</time></trkpt><trkpt lat="44.52886695608092" lon="8.721733547179669"><ele>561.0</ele><time>2026-04-09T09:31:21Z</time></trkpt><trkpt lat="44.528843111088" lon="8.721615913243603"><ele>561.0</ele><time>2026-04-09T09:31:22Z</time></trkpt><trkpt lat="44.528822757784575" lon="8.721496078266929"><ele>559.8</ele><time>2026-04-09T09:31:23Z</time></trkpt><trkpt lat="44.528789126259724" lon="8.72138617034128"><ele>558.6</ele><time>2026-04-09T09:31:24Z</time></trkpt><trkpt lat="44.52871929080794" lon="8.721299739232034"><ele>557.4</ele><time>2026-04-09T09:31:25Z</time></trkpt><trkpt lat="44.528623097930975" lon="8.721254378173631"><ele>556.2</ele><time>2026-04-09T09:31:26Z</time></trkpt><trkpt lat="44.528516226555226" lon="8.721231372135602"><ele>555.0</ele><time>2026-04-09T09:31:27Z</time></trkpt><trkpt lat="44.528410458913996" lon="8.721226478328235"><ele>555.0</ele><time>2026-04-09T09:31:28Z</time></trkpt><trkpt lat="44.528308353767585" lon="8.721255832638075"><ele>555.0</ele><time>2026-04-09T09:31:29Z</time></trkpt><trkpt lat="44.528200146719115" lon="8.721287289062102"><ele>555.0</ele><time>2026-04-09T09:31:30Z</time></trkpt><trkpt lat="44.52809082395488" lon="8.721317658147886"><ele>555.0</ele><time>2026-04-09T09:31:31Z</time></trkpt><trkpt lat="44.527984187060284" lon="8.72133036154539"><ele>555.0</ele><time>2026-04-09T09:31:32Z</time></trkpt><trkpt lat="44.52788863265401" lon="8.721374980750566"><ele>553.2</ele><time>2026-04-09T09:31:33Z</time></trkpt><trkpt lat="44.5277947027456" lon="8.721370249521076"><ele>551.4</ele><time>2026-04-09T09:31:34Z</time></trkpt><trkpt lat="44.527715800452135" lon="8.721353317140935"><ele>549.6</ele><time>2026-04-09T09:31:35Z</time></trkpt><trkpt lat="44.527612097241935" lon="8.721244179728437"><ele>547.8</ele><time>2026-04-09T09:31:37Z</time></trkpt><trkpt lat="44.52757851608117" lon="8.721152170521757"><ele>546.0</ele><time>2026-04-09T09:31:38Z</time></trkpt><trkpt lat="44.52756436739382" lon="8.721032637310385"><ele>546.0</ele><time>2026-04-09T09:31:39Z</time></trkpt><trkpt lat="44.527557365416556" lon="8.720900466252843"><ele>546.0</ele><time>2026-04-09T09:31:40Z</time></trkpt><trkpt lat="44.52754674246787" lon="8.720751781076077"><ele>546.0</ele><time>2026-04-09T09:31:41Z</time></trkpt><trkpt lat="44.52751186301614" lon="8.720600415277737"><ele>546.0</ele><time>2026-04-09T09:31:42Z</time></trkpt><trkpt lat="44.52748510883207" lon="8.72042864512208"><ele>546.0</ele><time>2026-04-09T09:31:43Z</time></trkpt><trkpt lat="44.52744558065076" lon="8.720263218278536"><ele>549.0</ele><time>2026-04-09T09:31:44Z</time></trkpt><trkpt lat="44.527401802574985" lon="8.72010236616157"><ele>552.0</ele><time>2026-04-09T09:31:45Z</time></trkpt><trkpt lat="44.5273421392696" lon="8.719956284772035"><ele>555.0</ele><time>2026-04-09T09:31:46Z</time></trkpt><trkpt lat="44.527278205815506" lon="8.719830309486003"><ele>558.0</ele><time>2026-04-09T09:31:47Z</time></trkpt><trkpt lat="44.52722390683857" lon="8.719707979010115"><ele>558.0</ele><time>2026-04-09T09:31:48Z</time></trkpt><trkpt lat="44.52717402477594" lon="8.719588221932709"><ele>558.0</ele><time>2026-04-09T09:31:49Z</time></trkpt><trkpt lat="44.52712993550016" lon="8.719482372205606"><ele>558.0</ele><time>2026-04-09T09:31:50Z</time></trkpt><trkpt lat="44.5270821295412" lon="8.719402006246087"><ele>558.0</ele><time>2026-04-09T09:31:51Z</time></trkpt><trkpt lat="44.52704226217405" lon="8.719324750204924"><ele>558.0</ele><time>2026-04-09T09:31:52Z</time></trkpt><trkpt lat="44.52698955696416" lon="8.719262593161709"><ele>558.0</ele><time>2026-04-09T09:31:53Z</time></trkpt><trkpt lat="44.526927266596616" lon="8.719231541651903"><ele>554.8333333333334</ele><time>2026-04-09T09:31:54Z</time></trkpt><trkpt lat="44.52686013485488" lon="8.719183044101095"><ele>551.6666666666666</ele><time>2026-04-09T09:31:55Z</time></trkpt><trkpt lat="44.52675151910543" lon="8.719233538050034"><ele>548.5</ele><time>2026-04-09T09:31:56Z</time></trkpt><trkpt lat="44.526663226946454" lon="8.719198255421526"><ele>545.3333333333333</ele><time>2026-04-09T09:31:57Z</time></trkpt><trkpt lat="44.526577575898486" lon="8.719194718525637"><ele>542.1666666666666</ele><time>2026-04-09T09:31:58Z</time></trkpt><trkpt lat="44.526533836917956" lon="8.719108064546743"><ele>539.0</ele><time>2026-04-09T09:31:59Z</time></trkpt><trkpt lat="44.526514518458484" lon="8.718944999588372"><ele>539.0</ele><time>2026-04-09T09:32:01Z</time></trkpt><trkpt lat="44.526497512175304" lon="8.718839641593693"><ele>539.0</ele><time>2026-04-09T09:32:02Z</time></trkpt><trkpt lat="44.52647895011957" lon="8.718730700814952"><ele>539.0</ele><time>2026-04-09T09:32:03Z</time></trkpt><trkpt lat="44.52645651098887" lon="8.718623390172628"><ele>539.0</ele><time>2026-04-09T09:32:04Z</time></trkpt><trkpt lat="44.52642944621099" lon="8.718516766043797"><ele>539.0</ele><time>2026-04-09T09:32:05Z</time></trkpt><trkpt lat="44.526394860633566" lon="8.718410588409888"><ele>539.0</ele><time>2026-04-09T09:32:06Z</time></trkpt><trkpt lat="44.52633978117715" lon="8.718309008343489"><ele>539.2</ele><time>2026-04-09T09:32:07Z</time></trkpt><trkpt lat="44.52625510584657" lon="8.718224546993119"><ele>539.4</ele><time>2026-04-09T09:32:08Z</time></trkpt><trkpt lat="44.52616693735387" lon="8.718144061728468"><ele>539.6</ele><time>2026-04-09T09:32:09Z</time></trkpt><trkpt lat="44.52607526821714" lon="8.718063929414324"><ele>539.8</ele><time>2026-04-09T09:32:10Z</time></trkpt><trkpt lat="44.525987745761434" lon="8.717988582121716"><ele>540.0</ele><time>2026-04-09T09:32:11Z</time></trkpt><trkpt lat="44.52591396446516" lon="8.717923832537652"><ele>536.1666666666666</ele><time>2026-04-09T09:32:12Z</time></trkpt><trkpt lat="44.525865678237814" lon="8.717866456562028"><ele>532.3333333333334</ele><time>2026-04-09T09:32:13Z</time></trkpt><trkpt lat="44.52585524691845" lon="8.717732309248921"><ele>528.5</ele><time>2026-04-09T09:32:15Z</time></trkpt><trkpt lat="44.5259554197634" lon="8.717655817831455"><ele>524.6666666666667</ele><time>2026-04-09T09:32:17Z</time></trkpt><trkpt lat="44.526028868478704" lon="8.717601953772014"><ele>520.8333333333334</ele><time>2026-04-09T09:32:18Z</time></trkpt><trkpt lat="44.52610890950825" lon="8.717546888248508"><ele>517.0</ele><time>2026-04-09T09:32:19Z</time></trkpt><trkpt lat="44.52613832039617" lon="8.717410934441032"><ele>517.0</ele><time>2026-04-09T09:32:20Z</time></trkpt><trkpt lat="44.52614670346789" lon="8.717274441391634"><ele>517.0</ele><time>2026-04-09T09:32:21Z</time></trkpt><trkpt lat="44.52613089793246" lon="8.717152911029856"><ele>517.0</ele><time>2026-04-09T09:32:22Z</time></trkpt><trkpt lat="44.52609994353512" lon="8.717012593553825"><ele>517.0</ele><time>2026-04-09T09:32:23Z</time></trkpt><trkpt lat="44.52604515296515" lon="8.716880035402369"><ele>517.0</ele><time>2026-04-09T09:32:24Z</time></trkpt><trkpt lat="44.52600784492095" lon="8.716760140383016"><ele>518.1666666666667</ele><time>2026-04-09T09:32:25Z</time></trkpt><trkpt lat="44.52598337813198" lon="8.716653425091641"><ele>519.3333333333334</ele><time>2026-04-09T09:32:26Z</time></trkpt><trkpt lat="44.52596549179278" lon="8.71655651477022"><ele>520.5</ele><time>2026-04-09T09:32:27Z</time></trkpt><trkpt lat="44.525943207657164" lon="8.716473717633868"><ele>521.6666666666666</ele><time>2026-04-09T09:32:28Z</time></trkpt><trkpt lat="44.525905797736804" lon="8.71639154139981"><ele>522.8333333333333</ele><time>2026-04-09T09:32:29Z</time></trkpt><trkpt lat="44.52582725798251" lon="8.716336247914644"><ele>524.0</ele><time>2026-04-09T09:32:30Z</time></trkpt><trkpt lat="44.52572173621931" lon="8.716404678968681"><ele>524.0</ele><time>2026-04-09T09:32:31Z</time></trkpt><trkpt lat="44.52562884618411" lon="8.716441069059726"><ele>524.0</ele><time>2026-04-09T09:32:32Z</time></trkpt><trkpt lat="44.52552439245301" lon="8.71646819816974"><ele>524.0</ele><time>2026-04-09T09:32:33Z</time></trkpt><trkpt lat="44.525415793110795" lon="8.716466004151746"><ele>524.0</ele><time>2026-04-09T09:32:34Z</time></trkpt><trkpt lat="44.52530044472034" lon="8.716440543733208"><ele>524.0</ele><time>2026-04-09T09:32:35Z</time></trkpt><trkpt lat="44.525183891598424" lon="8.716417547380338"><ele>520.5</ele><time>2026-04-09T09:32:36Z</time></trkpt><trkpt lat="44.52508102064766" lon="8.716438282969253"><ele>517.0</ele><time>2026-04-09T09:32:37Z</time></trkpt><trkpt lat="44.52496278886445" lon="8.71647748035725"><ele>513.5</ele><time>2026-04-09T09:32:38Z</time></trkpt><trkpt lat="44.52484862023597" lon="8.716519658976829"><ele>510.0</ele><time>2026-04-09T09:32:39Z</time></trkpt><trkpt lat="44.52472750016494" lon="8.716568492229115"><ele>510.0</ele><time>2026-04-09T09:32:40Z</time></trkpt><trkpt lat="44.52461433918939" lon="8.716607387419863"><ele>510.0</ele><time>2026-04-09T09:32:41Z</time></trkpt><trkpt lat="44.52451227590243" lon="8.716656973054175"><ele>510.0</ele><time>2026-04-09T09:32:42Z</time></trkpt><trkpt lat="44.52441539232169" lon="8.716697261879014"><ele>510.0</ele><time>2026-04-09T09:32:43Z</time></trkpt><trkpt lat="44.524322234215234" lon="8.716721408097468"><ele>510.0</ele><time>2026-04-09T09:32:44Z</time></trkpt><trkpt lat="44.52423009023727" lon="8.716739863221203"><ele>506.6666666666667</ele><time>2026-04-09T09:32:45Z</time></trkpt><trkpt lat="44.52414810202147" lon="8.716704050412451"><ele>503.33333333333337</ele><time>2026-04-09T09:32:46Z</time></trkpt><trkpt lat="44.52407080874266" lon="8.716654434384445"><ele>500.0</ele><time>2026-04-09T09:32:47Z</time></trkpt><trkpt lat="44.524009378349646" lon="8.71657814958036"><ele>496.6666666666667</ele><time>2026-04-09T09:32:48Z</time></trkpt><trkpt lat="44.52395341745523" lon="8.716488676218198"><ele>493.33333333333337</ele><time>2026-04-09T09:32:49Z</time></trkpt><trkpt lat="44.52389919376659" lon="8.716378255286363"><ele>490.0</ele><time>2026-04-09T09:32:50Z</time></trkpt><trkpt lat="44.523853583925145" lon="8.716263930465281"><ele>490.00000000000006</ele><time>2026-04-09T09:32:51Z</time></trkpt><trkpt lat="44.52381902285262" lon="8.716147182852431"><ele>490.0</ele><time>2026-04-09T09:32:52Z</time></trkpt><trkpt lat="44.52381137913616" lon="8.716023405502957"><ele>490.0</ele><time>2026-04-09T09:32:53Z</time></trkpt><trkpt lat="44.52379703162342" lon="8.715905140983153"><ele>490.0</ele><time>2026-04-09T09:32:54Z</time></trkpt><trkpt lat="44.5237805211577" lon="8.715792770743596"><ele>490.00000000000006</ele><time>2026-04-09T09:32:55Z</time></trkpt><trkpt lat="44.52378548708194" lon="8.715689379980432"><ele>490.0</ele><time>2026-04-09T09:32:56Z</time></trkpt><trkpt lat="44.523812054538546" lon="8.715579942915854"><ele>490.0</ele><time>2026-04-09T09:32:57Z</time></trkpt><trkpt lat="44.5238570159499" lon="8.715479441522797"><ele>490.0</ele><time>2026-04-09T09:32:58Z</time></trkpt><trkpt lat="44.523913732862134" lon="8.715382607893227"><ele>490.0</ele><time>2026-04-09T09:32:59Z</time></trkpt><trkpt lat="44.52397726436013" lon="8.715288117389619"><ele>490.0</ele><time>2026-04-09T09:33:00Z</time></trkpt><trkpt lat="44.52405046770678" lon="8.715177419683037"><ele>490.0</ele><time>2026-04-09T09:33:01Z</time></trkpt><trkpt lat="44.524100156534494" lon="8.715042424583537"><ele>490.0</ele><time>2026-04-09T09:33:02Z</time></trkpt><trkpt lat="44.524128082659" lon="8.714901067158973"><ele>490.0</ele><time>2026-04-09T09:33:03Z</time></trkpt><trkpt lat="44.52415527552497" lon="8.714766188666308"><ele>490.0</ele><time>2026-04-09T09:33:04Z</time></trkpt><trkpt lat="44.52418482022932" lon="8.714624369053974"><ele>490.0</ele><time>2026-04-09T09:33:05Z</time></trkpt><trkpt lat="44.52423827149598" lon="8.714508514974943"><ele>490.0</ele><time>2026-04-09T09:33:06Z</time></trkpt><trkpt lat="44.524262704467624" lon="8.7143759971197"><ele>487.00000000000006</ele><time>2026-04-09T09:33:07Z</time></trkpt><trkpt lat="44.5242774188569" lon="8.714250938924966"><ele>484.0</ele><time>2026-04-09T09:33:08Z</time></trkpt><trkpt lat="44.524277369324096" lon="8.71412196020067"><ele>481.0</ele><time>2026-04-09T09:33:09Z</time></trkpt><trkpt lat="44.52430677966588" lon="8.714011335678476"><ele>478.0</ele><time>2026-04-09T09:33:10Z</time></trkpt><trkpt lat="44.52432308991387" lon="8.713915229477328"><ele>475.00000000000006</ele><time>2026-04-09T09:33:11Z</time></trkpt><trkpt lat="44.524341883233646" lon="8.71382460363358"><ele>472.0</ele><time>2026-04-09T09:33:12Z</time></trkpt><trkpt lat="44.52438466550387" lon="8.713750660891321"><ele>472.00000000000006</ele><time>2026-04-09T09:33:13Z</time></trkpt><trkpt lat="44.52443656851732" lon="8.713664876361198"><ele>472.0</ele><time>2026-04-09T09:33:14Z</time></trkpt><trkpt lat="44.52448959130621" lon="8.713575866980253"><ele>472.0</ele><time>2026-04-09T09:33:15Z</time></trkpt><trkpt lat="44.52454875665098" lon="8.713493903300817"><ele>472.0</ele><time>2026-04-09T09:33:16Z</time></trkpt><trkpt lat="44.52461409235408" lon="8.71344730491956"><ele>472.00000000000006</ele><time>2026-04-09T09:33:17Z</time></trkpt><trkpt lat="44.52469640912188" lon="8.71340585175744"><ele>472.0</ele><time>2026-04-09T09:33:18Z</time></trkpt><trkpt lat="44.52477833151588" lon="8.713360205849716"><ele>473.40000000000003</ele><time>2026-04-09T09:33:19Z</time></trkpt><trkpt lat="44.52484109418714" lon="8.713325235447963"><ele>474.80000000000007</ele><time>2026-04-09T09:33:20Z</time></trkpt><trkpt lat="44.52495548025771" lon="8.713247298652039"><ele>476.2</ele><time>2026-04-09T09:33:22Z</time></trkpt><trkpt lat="44.52497892573792" lon="8.71309693111021"><ele>477.6</ele><time>2026-04-09T09:33:23Z</time></trkpt><trkpt lat="44.524941876185636" lon="8.712954251598648"><ele>479.0</ele><time>2026-04-09T09:33:24Z</time></trkpt><trkpt lat="44.52486618432742" lon="8.712871930122235"><ele>479.0</ele><time>2026-04-09T09:33:25Z</time></trkpt><trkpt lat="44.52481304452669" lon="8.712776968524562"><ele>479.0</ele><time>2026-04-09T09:33:26Z</time></trkpt><trkpt lat="44.52480464335441" lon="8.712652717204035"><ele>479.0</ele><time>2026-04-09T09:33:27Z</time></trkpt><trkpt lat="44.524777574411665" lon="8.712514111885488"><ele>479.0</ele><time>2026-04-09T09:33:28Z</time></trkpt><trkpt lat="44.52475950773859" lon="8.712398796667621"><ele>479.0</ele><time>2026-04-09T09:33:29Z</time></trkpt><trkpt lat="44.52476857798665" lon="8.712251431585651"><ele>474.99999999999994</ele><time>2026-04-09T09:33:31Z</time></trkpt><trkpt lat="44.524840866246834" lon="8.71217637743953"><ele>471.0</ele><time>2026-04-09T09:33:33Z</time></trkpt><trkpt lat="44.524914633544356" lon="8.712213729888845"><ele>467.0</ele><time>2026-04-09T09:33:34Z</time></trkpt><trkpt lat="44.524993913212086" lon="8.712222790679732"><ele>463.0</ele><time>2026-04-09T09:33:35Z</time></trkpt><trkpt lat="44.52507384054281" lon="8.71223272822785"><ele>458.99999999999994</ele><time>2026-04-09T09:33:36Z</time></trkpt><trkpt lat="44.525160126703476" lon="8.712221940778525"><ele>455.0</ele><time>2026-04-09T09:33:37Z</time></trkpt><trkpt lat="44.525227483967896" lon="8.712176882473637"><ele>455.0</ele><time>2026-04-09T09:33:38Z</time></trkpt><trkpt lat="44.52528130946381" lon="8.712119401148009"><ele>455.0</ele><time>2026-04-09T09:33:39Z</time></trkpt><trkpt lat="44.52535134488728" lon="8.711850015074349"><ele>455.0</ele><time>2026-04-09T09:33:41Z</time></trkpt><trkpt lat="44.525350410126826" lon="8.711713505584619"><ele>455.0</ele><time>2026-04-09T09:33:42Z</time></trkpt><trkpt lat="44.525339050857426" lon="8.71158496290618"><ele>457.16666666666663</ele><time>2026-04-09T09:33:43Z</time></trkpt><trkpt lat="44.52533687880691" lon="8.711487822832302"><ele>459.3333333333333</ele><time>2026-04-09T09:33:44Z</time></trkpt><trkpt lat="44.52539179310195" lon="8.711351667632242"><ele>461.5</ele><time>2026-04-09T09:33:46Z</time></trkpt><trkpt lat="44.525454848114734" lon="8.711289495925946"><ele>463.66666666666663</ele><time>2026-04-09T09:33:47Z</time></trkpt><trkpt lat="44.52552142524479" lon="8.711201468338714"><ele>465.8333333333333</ele><time>2026-04-09T09:33:48Z</time></trkpt><trkpt lat="44.525600920831195" lon="8.711134493704595"><ele>468.0</ele><time>2026-04-09T09:33:49Z</time></trkpt><trkpt lat="44.52566606321979" lon="8.711036616269594"><ele>463.5</ele><time>2026-04-09T09:33:50Z</time></trkpt><trkpt lat="44.525717153184864" lon="8.710925008562205"><ele>459.0</ele><time>2026-04-09T09:33:51Z</time></trkpt><trkpt lat="44.52576816551042" lon="8.710829449345026"><ele>454.5</ele><time>2026-04-09T09:33:52Z</time></trkpt><trkpt lat="44.52582443974084" lon="8.710749680128677"><ele>450.0</ele><time>2026-04-09T09:33:53Z</time></trkpt><trkpt lat="44.52588764648518" lon="8.710683464900335"><ele>445.5</ele><time>2026-04-09T09:33:54Z</time></trkpt><trkpt lat="44.525951764667575" lon="8.710616992957531"><ele>441.0</ele><time>2026-04-09T09:33:55Z</time></trkpt><trkpt lat="44.52602225651866" lon="8.710576802798096"><ele>441.0</ele><time>2026-04-09T09:33:56Z</time></trkpt><trkpt lat="44.52610245946601" lon="8.710544918944118"><ele>441.0</ele><time>2026-04-09T09:33:57Z</time></trkpt><trkpt lat="44.52618797586533" lon="8.710521420992674"><ele>441.0</ele><time>2026-04-09T09:33:58Z</time></trkpt><trkpt lat="44.5262728475493" lon="8.710505588569541"><ele>441.0</ele><time>2026-04-09T09:33:59Z</time></trkpt><trkpt lat="44.526357440870434" lon="8.710507598985176"><ele>441.0</ele><time>2026-04-09T09:34:00Z</time></trkpt><trkpt lat="44.52642512023508" lon="8.710532664885765"><ele>441.0</ele><time>2026-04-09T09:34:01Z</time></trkpt><trkpt lat="44.52648669887886" lon="8.710572242630892"><ele>444.8</ele><time>2026-04-09T09:34:02Z</time></trkpt><trkpt lat="44.52659351546428" lon="8.710544979203453"><ele>448.6</ele><time>2026-04-09T09:34:04Z</time></trkpt><trkpt lat="44.526692325357715" lon="8.710421445514159"><ele>452.4</ele><time>2026-04-09T09:34:06Z</time></trkpt><trkpt lat="44.52672833094354" lon="8.710310148674782"><ele>456.2</ele><time>2026-04-09T09:34:07Z</time></trkpt><trkpt lat="44.526768434649696" lon="8.710205946378885"><ele>460.0</ele><time>2026-04-09T09:34:08Z</time></trkpt><trkpt lat="44.52682259346039" lon="8.71010675232767"><ele>455.4</ele><time>2026-04-09T09:34:09Z</time></trkpt><trkpt lat="44.52689172039133" lon="8.710013306184273"><ele>450.8</ele><time>2026-04-09T09:34:10Z</time></trkpt><trkpt lat="44.52697629089402" lon="8.709945502686208"><ele>446.20000000000005</ele><time>2026-04-09T09:34:11Z</time></trkpt><trkpt lat="44.52705014273395" lon="8.709866500122141"><ele>441.6</ele><time>2026-04-09T09:34:12Z</time></trkpt><trkpt lat="44.52712389671191" lon="8.709785934349297"><ele>437.0</ele><time>2026-04-09T09:34:13Z</time></trkpt><trkpt lat="44.527170279739245" lon="8.709683566852146"><ele>436.99999999999994</ele><time>2026-04-09T09:34:14Z</time></trkpt><trkpt lat="44.52721089239431" lon="8.709587780903055"><ele>437.0</ele><time>2026-04-09T09:34:15Z</time></trkpt><trkpt lat="44.52728427069876" lon="8.709554463527242"><ele>437.0</ele><time>2026-04-09T09:34:16Z</time></trkpt><trkpt lat="44.527363036234405" lon="8.709562124433846"><ele>437.0</ele><time>2026-04-09T09:34:17Z</time></trkpt><trkpt lat="44.527447601903475" lon="8.709579033667548"><ele>436.99999999999994</ele><time>2026-04-09T09:34:18Z</time></trkpt><trkpt lat="44.52753672970502" lon="8.709586870862534"><ele>437.0</ele><time>2026-04-09T09:34:19Z</time></trkpt><trkpt lat="44.52763346712086" lon="8.70959696705032"><ele>437.0</ele><time>2026-04-09T09:34:20Z</time></trkpt><trkpt lat="44.52773042525272" lon="8.709589325197038"><ele>437.00000000000006</ele><time>2026-04-09T09:34:21Z</time></trkpt><trkpt lat="44.52782774759307" lon="8.709586514950226"><ele>437.00000000000006</ele><time>2026-04-09T09:34:22Z</time></trkpt><trkpt lat="44.52791358821372" lon="8.709519074954217"><ele>437.0</ele><time>2026-04-09T09:34:23Z</time></trkpt><trkpt lat="44.528007014811244" lon="8.709497131658335"><ele>437.0</ele><time>2026-04-09T09:34:24Z</time></trkpt><trkpt lat="44.52810530165411" lon="8.709492823943828"><ele>436.8333333333333</ele><time>2026-04-09T09:34:25Z</time></trkpt><trkpt lat="44.52820529231693" lon="8.709493985973427"><ele>436.66666666666663</ele><time>2026-04-09T09:34:26Z</time></trkpt><trkpt lat="44.52829804869424" lon="8.709496347380936"><ele>436.5</ele><time>2026-04-09T09:34:27Z</time></trkpt><trkpt lat="44.528383720644385" lon="8.709509052016452"><ele>436.33333333333337</ele><time>2026-04-09T09:34:28Z</time></trkpt><trkpt lat="44.528458468970705" lon="8.709556853356936"><ele>436.1666666666667</ele><time>2026-04-09T09:34:29Z</time></trkpt><trkpt lat="44.52851842736501" lon="8.709620311054426"><ele>436.0</ele><time>2026-04-09T09:34:30Z</time></trkpt><trkpt lat="44.52856892164208" lon="8.709712396859024"><ele>436.00000000000006</ele><time>2026-04-09T09:34:31Z</time></trkpt><trkpt lat="44.52860373289685" lon="8.709822525101119"><ele>436.0</ele><time>2026-04-09T09:34:32Z</time></trkpt><trkpt lat="44.528630155269546" lon="8.709925564640708"><ele>436.0</ele><time>2026-04-09T09:34:33Z</time></trkpt><trkpt lat="44.52868308117652" lon="8.709996587573276"><ele>436.0</ele><time>2026-04-09T09:34:34Z</time></trkpt><trkpt lat="44.52874806450281" lon="8.710021299490883"><ele>436.00000000000006</ele><time>2026-04-09T09:34:35Z</time></trkpt><trkpt lat="44.52884304704624" lon="8.710022589528727"><ele>436.0</ele><time>2026-04-09T09:34:36Z</time></trkpt><trkpt lat="44.528920749702436" lon="8.709954652895597"><ele>433.4</ele><time>2026-04-09T09:34:37Z</time></trkpt><trkpt lat="44.52896908660972" lon="8.70981886354147"><ele>430.8</ele><time>2026-04-09T09:34:38Z</time></trkpt><trkpt lat="44.529010041283335" lon="8.70969537681993"><ele>428.2</ele><time>2026-04-09T09:34:39Z</time></trkpt><trkpt lat="44.52905134688587" lon="8.709554424819464"><ele>425.59999999999997</ele><time>2026-04-09T09:34:40Z</time></trkpt><trkpt lat="44.52909476454293" lon="8.7094289673711"><ele>423.0</ele><time>2026-04-09T09:34:41Z</time></trkpt><trkpt lat="44.52914254667287" lon="8.709329288063813"><ele>423.0</ele><time>2026-04-09T09:34:42Z</time></trkpt><trkpt lat="44.52918470675555" lon="8.709239651766346"><ele>423.0</ele><time>2026-04-09T09:34:43Z</time></trkpt><trkpt lat="44.52925384273274" lon="8.709208813401528"><ele>423.0</ele><time>2026-04-09T09:34:44Z</time></trkpt><trkpt lat="44.529322633526085" lon="8.70920798560082"><ele>423.0</ele><time>2026-04-09T09:34:45Z</time></trkpt><trkpt lat="44.5293971662503" lon="8.709347391952369"><ele>423.0</ele><time>2026-04-09T09:34:47Z</time></trkpt><trkpt lat="44.529421698136126" lon="8.709454187220043"><ele>423.0</ele><time>2026-04-09T09:34:48Z</time></trkpt><trkpt lat="44.52946336181982" lon="8.709564477054121"><ele>423.0</ele><time>2026-04-09T09:34:49Z</time></trkpt><trkpt lat="44.529520007564976" lon="8.70967354420304"><ele>423.0</ele><time>2026-04-09T09:34:50Z</time></trkpt><trkpt lat="44.52958385863997" lon="8.709781152826809"><ele>423.0</ele><time>2026-04-09T09:34:51Z</time></trkpt><trkpt lat="44.529648019905466" lon="8.709876450329046"><ele>423.0</ele><time>2026-04-09T09:34:52Z</time></trkpt><trkpt lat="44.52971412623085" lon="8.709961368443993"><ele>423.0</ele><time>2026-04-09T09:34:53Z</time></trkpt><trkpt lat="44.52977532562229" lon="8.710025859299126"><ele>421.59999999999997</ele><time>2026-04-09T09:34:54Z</time></trkpt><trkpt lat="44.5298862552911" lon="8.710075586341503"><ele>420.2</ele><time>2026-04-09T09:34:56Z</time></trkpt><trkpt lat="44.52999568806279" lon="8.709992148099595"><ele>418.8</ele><time>2026-04-09T09:34:58Z</time></trkpt><trkpt lat="44.52998779201292" lon="8.709866432608681"><ele>417.4</ele><time>2026-04-09T09:34:59Z</time></trkpt><trkpt lat="44.52995673983201" lon="8.709760791934274"><ele>416.0</ele><time>2026-04-09T09:35:00Z</time></trkpt><trkpt lat="44.52992861201164" lon="8.7096536339506"><ele>415.99999999999994</ele><time>2026-04-09T09:35:01Z</time></trkpt><trkpt lat="44.5299017789384" lon="8.709548131172143"><ele>416.0</ele><time>2026-04-09T09:35:02Z</time></trkpt><trkpt lat="44.529881828260855" lon="8.70945573434075"><ele>416.0</ele><time>2026-04-09T09:35:03Z</time></trkpt><trkpt lat="44.5298953242088" lon="8.709295512034231"><ele>416.0</ele><time>2026-04-09T09:35:05Z</time></trkpt><trkpt lat="44.52992528835194" lon="8.709187314719195"><ele>415.99999999999994</ele><time>2026-04-09T09:35:06Z</time></trkpt><trkpt lat="44.52994837794605" lon="8.709050314155796"><ele>416.0</ele><time>2026-04-09T09:35:07Z</time></trkpt><trkpt lat="44.529951371150496" lon="8.708920638048632"><ele>412.6</ele><time>2026-04-09T09:35:08Z</time></trkpt><trkpt lat="44.52995119294565" lon="8.708802085146479"><ele>409.20000000000005</ele><time>2026-04-09T09:35:09Z</time></trkpt><trkpt lat="44.53000607825481" lon="8.708664970455615"><ele>405.79999999999995</ele><time>2026-04-09T09:35:11Z</time></trkpt><trkpt lat="44.53013069404083" lon="8.708646138742731"><ele>402.4</ele><time>2026-04-09T09:35:13Z</time></trkpt><trkpt lat="44.53021244261548" lon="8.708655331498662"><ele>399.0</ele><time>2026-04-09T09:35:14Z</time></trkpt><trkpt lat="44.5303092988895" lon="8.70866106700292"><ele>396.6</ele><time>2026-04-09T09:35:15Z</time></trkpt><trkpt lat="44.53041256577779" lon="8.708669595581432"><ele>394.2</ele><time>2026-04-09T09:35:16Z</time></trkpt><trkpt lat="44.53049204786941" lon="8.708672671390172"><ele>391.8</ele><time>2026-04-09T09:35:17Z</time></trkpt><trkpt lat="44.53057436123829" lon="8.708654786069843"><ele>389.40000000000003</ele><time>2026-04-09T09:35:18Z</time></trkpt><trkpt lat="44.53065226104956" lon="8.708585071790273"><ele>387.0</ele><time>2026-04-09T09:35:19Z</time></trkpt><trkpt lat="44.53072094828886" lon="8.70848661541099"><ele>387.0</ele><time>2026-04-09T09:35:20Z</time></trkpt><trkpt lat="44.530790084909704" lon="8.708419746060585"><ele>387.0</ele><time>2026-04-09T09:35:21Z</time></trkpt><trkpt lat="44.53086536756307" lon="8.708399803369296"><ele>387.0</ele><time>2026-04-09T09:35:22Z</time></trkpt><trkpt lat="44.53095033089665" lon="8.708408172154277"><ele>387.0</ele><time>2026-04-09T09:35:23Z</time></trkpt><trkpt lat="44.531023824903066" lon="8.708371661926684"><ele>387.0</ele><time>2026-04-09T09:35:24Z</time></trkpt><trkpt lat="44.53109657033206" lon="8.708298270502997"><ele>387.0</ele><time>2026-04-09T09:35:25Z</time></trkpt><trkpt lat="44.53117486820811" lon="8.7082216157574"><ele>390.0</ele><time>2026-04-09T09:35:26Z</time></trkpt><trkpt lat="44.53125426492552" lon="8.70815466556752"><ele>393.0</ele><time>2026-04-09T09:35:27Z</time></trkpt><trkpt lat="44.53134563232891" lon="8.708105199041563"><ele>396.0</ele><time>2026-04-09T09:35:28Z</time></trkpt><trkpt lat="44.531444293453234" lon="8.708062478307253"><ele>399.0</ele><time>2026-04-09T09:35:29Z</time></trkpt><trkpt lat="44.531526352572705" lon="8.70801895681706"><ele>402.0</ele><time>2026-04-09T09:35:30Z</time></trkpt><trkpt lat="44.53160101152656" lon="8.708022047659737"><ele>402.0</ele><time>2026-04-09T09:35:31Z</time></trkpt><trkpt lat="44.5316719198883" lon="8.708015169893327"><ele>402.0</ele><time>2026-04-09T09:35:32Z</time></trkpt><trkpt lat="44.53173293908347" lon="8.707948224090726"><ele>402.0</ele><time>2026-04-09T09:35:33Z</time></trkpt><trkpt lat="44.531764993249716" lon="8.70781645144199"><ele>402.0</ele><time>2026-04-09T09:35:34Z</time></trkpt><trkpt lat="44.53180691930836" lon="8.707698342130293"><ele>402.0</ele><time>2026-04-09T09:35:35Z</time></trkpt><trkpt lat="44.53184762348676" lon="8.707595207867575"><ele>402.0</ele><time>2026-04-09T09:35:36Z</time></trkpt><trkpt lat="44.53189150261577" lon="8.707512269690467"><ele>400.8333333333333</ele><time>2026-04-09T09:35:37Z</time></trkpt><trkpt lat="44.53195356674345" lon="8.707450059525126"><ele>399.66666666666663</ele><time>2026-04-09T09:35:38Z</time></trkpt><trkpt lat="44.532001999383034" lon="8.707370882674072"><ele>398.5</ele><time>2026-04-09T09:35:39Z</time></trkpt><trkpt lat="44.532033961526736" lon="8.707250950757265"><ele>397.3333333333333</ele><time>2026-04-09T09:35:40Z</time></trkpt><trkpt lat="44.53201496424151" lon="8.707120840743249"><ele>396.16666666666663</ele><time>2026-04-09T09:35:41Z</time></trkpt><trkpt lat="44.53204039587578" lon="8.707021072048878"><ele>395.0</ele><time>2026-04-09T09:35:42Z</time></trkpt><trkpt lat="44.53207070481038" lon="8.706942877851196"><ele>392.4285714285714</ele><time>2026-04-09T09:35:43Z</time></trkpt><trkpt lat="44.532119220436364" lon="8.70686958375577"><ele>389.8571428571429</ele><time>2026-04-09T09:35:44Z</time></trkpt><trkpt lat="44.53218101609383" lon="8.706792888706389"><ele>387.2857142857143</ele><time>2026-04-09T09:35:45Z</time></trkpt><trkpt lat="44.532243765597514" lon="8.706723225729698"><ele>384.71428571428567</ele><time>2026-04-09T09:35:46Z</time></trkpt><trkpt lat="44.53231057543369" lon="8.706663521602376"><ele>382.1428571428571</ele><time>2026-04-09T09:35:47Z</time></trkpt><trkpt lat="44.532369586298195" lon="8.706613096936284"><ele>379.57142857142856</ele><time>2026-04-09T09:35:48Z</time></trkpt><trkpt lat="44.532434625626784" lon="8.706628364074886"><ele>377.0</ele><time>2026-04-09T09:35:49Z</time></trkpt><trkpt lat="44.53253601671356" lon="8.706741872054458"><ele>377.0</ele><time>2026-04-09T09:35:51Z</time></trkpt><trkpt lat="44.53257477528175" lon="8.70683294423387"><ele>377.0</ele><time>2026-04-09T09:35:52Z</time></trkpt><trkpt lat="44.53261586613191" lon="8.706927535348774"><ele>377.0</ele><time>2026-04-09T09:35:53Z</time></trkpt><trkpt lat="44.53265357919823" lon="8.707033272276831"><ele>377.0</ele><time>2026-04-09T09:35:54Z</time></trkpt><trkpt lat="44.532692085711965" lon="8.707128751178349"><ele>377.0</ele><time>2026-04-09T09:35:55Z</time></trkpt><trkpt lat="44.53273118891146" lon="8.707220170158035"><ele>377.0</ele><time>2026-04-09T09:35:56Z</time></trkpt><trkpt lat="44.53276867626589" lon="8.70729352039082"><ele>379.8</ele><time>2026-04-09T09:35:57Z</time></trkpt><trkpt lat="44.532859105221384" lon="8.70736933671116"><ele>382.6</ele><time>2026-04-09T09:35:59Z</time></trkpt><trkpt lat="44.53293592703097" lon="8.707343268153295"><ele>385.40000000000003</ele><time>2026-04-09T09:36:00Z</time></trkpt><trkpt lat="44.532980516666626" lon="8.707211267728194"><ele>388.20000000000005</ele><time>2026-04-09T09:36:01Z</time></trkpt><trkpt lat="44.53304373105861" lon="8.707127407583373"><ele>391.0</ele><time>2026-04-09T09:36:02Z</time></trkpt><trkpt lat="44.53310585742544" lon="8.707044557382636"><ele>391.00000000000006</ele><time>2026-04-09T09:36:03Z</time></trkpt><trkpt lat="44.53317283397604" lon="8.706963556779936"><ele>391.0</ele><time>2026-04-09T09:36:04Z</time></trkpt><trkpt lat="44.53322762997236" lon="8.706918176177378"><ele>391.0</ele><time>2026-04-09T09:36:05Z</time></trkpt><trkpt lat="44.533321273752236" lon="8.706880396325495"><ele>391.0</ele><time>2026-04-09T09:36:07Z</time></trkpt><trkpt lat="44.53337757356136" lon="8.706957537121296"><ele>391.00000000000006</ele><time>2026-04-09T09:36:08Z</time></trkpt><trkpt lat="44.533410698275766" lon="8.707069818651975"><ele>391.0</ele><time>2026-04-09T09:36:09Z</time></trkpt><trkpt lat="44.53343403696824" lon="8.707163106333464"><ele>391.0</ele><time>2026-04-09T09:36:10Z</time></trkpt><trkpt lat="44.53352083841773" lon="8.70723857232818"><ele>391.0</ele><time>2026-04-09T09:36:12Z</time></trkpt><trkpt lat="44.53359531917928" lon="8.707198765224993"><ele>391.0</ele><time>2026-04-09T09:36:13Z</time></trkpt><trkpt lat="44.53364290658789" lon="8.707069608793732"><ele>391.0</ele><time>2026-04-09T09:36:14Z</time></trkpt><trkpt lat="44.53364649490328" lon="8.706934243725877"><ele>391.0</ele><time>2026-04-09T09:36:15Z</time></trkpt><trkpt lat="44.53368854522122" lon="8.70682667600515"><ele>390.20000000000005</ele><time>2026-04-09T09:36:16Z</time></trkpt><trkpt lat="44.53375933297454" lon="8.706759077841301"><ele>389.40000000000003</ele><time>2026-04-09T09:36:17Z</time></trkpt><trkpt lat="44.53382401609548" lon="8.70665415030613"><ele>388.6</ele><time>2026-04-09T09:36:18Z</time></trkpt><trkpt lat="44.53388883844742" lon="8.706537768575384"><ele>387.8</ele><time>2026-04-09T09:36:19Z</time></trkpt><trkpt lat="44.53394030162175" lon="8.706431754765708"><ele>387.0</ele><time>2026-04-09T09:36:20Z</time></trkpt><trkpt lat="44.53398471507845" lon="8.706331189571415"><ele>387.0</ele><time>2026-04-09T09:36:21Z</time></trkpt><trkpt lat="44.53402320202149" lon="8.706233696505183"><ele>387.0</ele><time>2026-04-09T09:36:22Z</time></trkpt><trkpt lat="44.5340557980344" lon="8.70614534228862"><ele>387.0</ele><time>2026-04-09T09:36:23Z</time></trkpt><trkpt lat="44.534076163821226" lon="8.706050105434686"><ele>387.0</ele><time>2026-04-09T09:36:24Z</time></trkpt><trkpt lat="44.53411761484148" lon="8.705941208174831"><ele>387.0</ele><time>2026-04-09T09:36:26Z</time></trkpt><trkpt lat="44.53414922025971" lon="8.705858542963488"><ele>387.0</ele><time>2026-04-09T09:37:40Z</time></trkpt><trkpt lat="44.53404851403022" lon="8.705722125620728"><ele>384.8333333333333</ele><time>2026-04-09T09:37:43Z</time></trkpt><trkpt lat="44.53399124181299" lon="8.705661683296427"><ele>382.6666666666667</ele><time>2026-04-09T09:37:44Z</time></trkpt><trkpt lat="44.53393957228506" lon="8.70558213013264"><ele>380.5</ele><time>2026-04-09T09:37:45Z</time></trkpt><trkpt lat="44.53390179625452" lon="8.705482222347324"><ele>378.33333333333337</ele><time>2026-04-09T09:37:46Z</time></trkpt><trkpt lat="44.53389186057451" lon="8.70536590763878"><ele>376.1666666666667</ele><time>2026-04-09T09:37:47Z</time></trkpt><trkpt lat="44.533896563251126" lon="8.705228238859162"><ele>374.0</ele><time>2026-04-09T09:37:48Z</time></trkpt><trkpt lat="44.53390104932431" lon="8.705091188703129"><ele>371.79999999999995</ele><time>2026-04-09T09:37:49Z</time></trkpt><trkpt lat="44.53389008119085" lon="8.704951729355706"><ele>369.59999999999997</ele><time>2026-04-09T09:37:50Z</time></trkpt><trkpt lat="44.53383844285543" lon="8.704824007358908"><ele>367.4</ele><time>2026-04-09T09:37:51Z</time></trkpt><trkpt lat="44.53381583353844" lon="8.704691882037135"><ele>365.2</ele><time>2026-04-09T09:37:52Z</time></trkpt><trkpt lat="44.53378622964236" lon="8.704576633865795"><ele>363.0</ele><time>2026-04-09T09:37:53Z</time></trkpt><trkpt lat="44.53375052638664" lon="8.70447198875072"><ele>362.59999999999997</ele><time>2026-04-09T09:37:54Z</time></trkpt><trkpt lat="44.533754650622775" lon="8.704347850974495"><ele>362.2</ele><time>2026-04-09T09:37:55Z</time></trkpt><trkpt lat="44.533763773559336" lon="8.704217061555877"><ele>361.8</ele><time>2026-04-09T09:37:56Z</time></trkpt><trkpt lat="44.53377012252074" lon="8.704087501120139"><ele>361.4</ele><time>2026-04-09T09:37:57Z</time></trkpt><trkpt lat="44.533785822937595" lon="8.70394803487523"><ele>361.0</ele><time>2026-04-09T09:37:58Z</time></trkpt><trkpt lat="44.53380239312151" lon="8.703809660215619"><ele>361.0</ele><time>2026-04-09T09:37:59Z</time></trkpt><trkpt lat="44.53381995069223" lon="8.703655168583358"><ele>361.0</ele><time>2026-04-09T09:38:00Z</time></trkpt><trkpt lat="44.53384325141321" lon="8.703512258249198"><ele>361.0</ele><time>2026-04-09T09:38:01Z</time></trkpt><trkpt lat="44.533872595464345" lon="8.703372524853163"><ele>361.0</ele><time>2026-04-09T09:38:02Z</time></trkpt><trkpt lat="44.533907680758254" lon="8.703228299642728"><ele>361.0</ele><time>2026-04-09T09:38:03Z</time></trkpt><trkpt lat="44.53393910559799" lon="8.70307816534523"><ele>360.75</ele><time>2026-04-09T09:38:04Z</time></trkpt><trkpt lat="44.53398362841524" lon="8.702927495695395"><ele>360.5</ele><time>2026-04-09T09:38:05Z</time></trkpt><trkpt lat="44.53404384250483" lon="8.702784926630263"><ele>360.25</ele><time>2026-04-09T09:38:06Z</time></trkpt><trkpt lat="44.534103104552266" lon="8.702645095988267"><ele>360.0</ele><time>2026-04-09T09:38:07Z</time></trkpt><trkpt lat="44.53416346749155" lon="8.702505985973165"><ele>361.5</ele><time>2026-04-09T09:38:08Z</time></trkpt><trkpt lat="44.534228389233355" lon="8.702373785585515"><ele>363.0</ele><time>2026-04-09T09:38:09Z</time></trkpt><trkpt lat="44.53429018280942" lon="8.702242858271903"><ele>364.5</ele><time>2026-04-09T09:38:10Z</time></trkpt><trkpt lat="44.53436006057184" lon="8.702111591669947"><ele>366.0</ele><time>2026-04-09T09:38:11Z</time></trkpt><trkpt lat="44.53443221273155" lon="8.701974130108548"><ele>368.20000000000005</ele><time>2026-04-09T09:38:12Z</time></trkpt><trkpt lat="44.534512340279704" lon="8.701850463044371"><ele>370.40000000000003</ele><time>2026-04-09T09:38:13Z</time></trkpt><trkpt lat="44.53457181609258" lon="8.701710075784671"><ele>372.6</ele><time>2026-04-09T09:38:14Z</time></trkpt><trkpt lat="44.53463633164095" lon="8.70160241399857"><ele>374.8</ele><time>2026-04-09T09:38:15Z</time></trkpt><trkpt lat="44.53468110467697" lon="8.701520703287557"><ele>377.0</ele><time>2026-04-09T09:38:16Z</time></trkpt><trkpt lat="44.534716084969894" lon="8.701439248855957"><ele>373.6666666666667</ele><time>2026-04-09T09:38:17Z</time></trkpt><trkpt lat="44.534752700917856" lon="8.701356471472318"><ele>370.33333333333337</ele><time>2026-04-09T09:38:18Z</time></trkpt><trkpt lat="44.53480056171697" lon="8.701268058442952"><ele>367.0</ele><time>2026-04-09T09:38:19Z</time></trkpt><trkpt lat="44.53485135345059" lon="8.701161257175693"><ele>363.6666666666667</ele><time>2026-04-09T09:38:20Z</time></trkpt><trkpt lat="44.534902010253404" lon="8.701047120575668"><ele>360.3333333333333</ele><time>2026-04-09T09:38:21Z</time></trkpt><trkpt lat="44.53496451301727" lon="8.70093105884976"><ele>357.0</ele><time>2026-04-09T09:38:22Z</time></trkpt><trkpt lat="44.53501829006604" lon="8.700807490761079"><ele>357.0</ele><time>2026-04-09T09:38:23Z</time></trkpt><trkpt lat="44.53507316194171" lon="8.700681674876508"><ele>357.0</ele><time>2026-04-09T09:38:24Z</time></trkpt><trkpt lat="44.53513782463892" lon="8.700559047289588"><ele>357.0</ele><time>2026-04-09T09:38:25Z</time></trkpt><trkpt lat="44.53518461901443" lon="8.700424350055489"><ele>357.0</ele><time>2026-04-09T09:38:26Z</time></trkpt><trkpt lat="44.53523515257951" lon="8.7002911190748"><ele>357.0</ele><time>2026-04-09T09:38:27Z</time></trkpt><trkpt lat="44.53527730324234" lon="8.70015448113727"><ele>358.0</ele><time>2026-04-09T09:38:28Z</time></trkpt><trkpt lat="44.53532170911524" lon="8.700025071106898"><ele>359.0</ele><time>2026-04-09T09:38:29Z</time></trkpt><trkpt lat="44.53535697933356" lon="8.699896978683041"><ele>360.0</ele><time>2026-04-09T09:38:30Z</time></trkpt><trkpt lat="44.53538874036982" lon="8.699774891180923"><ele>361.0</ele><time>2026-04-09T09:38:31Z</time></trkpt><trkpt lat="44.53542259823717" lon="8.69966107179123"><ele>362.0</ele><time>2026-04-09T09:38:32Z</time></trkpt><trkpt lat="44.53545868044784" lon="8.699558705001254"><ele>359.8</ele><time>2026-04-09T09:38:33Z</time></trkpt><trkpt lat="44.53550809987333" lon="8.699481888760392"><ele>357.6</ele><time>2026-04-09T09:38:34Z</time></trkpt><trkpt lat="44.53556739036902" lon="8.699335609368855"><ele>355.40000000000003</ele><time>2026-04-09T09:38:36Z</time></trkpt><trkpt lat="44.53562200306869" lon="8.699238828270257"><ele>353.20000000000005</ele><time>2026-04-09T09:38:38Z</time></trkpt><trkpt lat="44.535698175851074" lon="8.69920968400874"><ele>351.0</ele><time>2026-04-09T09:38:40Z</time></trkpt><trkpt lat="44.5357948076471" lon="8.69923622090065"><ele>351.0</ele><time>2026-04-09T09:38:42Z</time></trkpt><trkpt lat="44.53586251813336" lon="8.69925831272052"><ele>351.0</ele><time>2026-04-09T09:38:44Z</time></trkpt><trkpt lat="44.535926840717096" lon="8.699278258426052"><ele>351.0</ele><time>2026-04-09T09:38:47Z</time></trkpt><trkpt lat="44.53599460096767" lon="8.699368415682857"><ele>351.0</ele><time>2026-04-09T09:38:50Z</time></trkpt><trkpt lat="44.536071777732175" lon="8.699424636044276"><ele>351.0</ele><time>2026-04-09T09:38:52Z</time></trkpt><trkpt lat="44.536156061534435" lon="8.699474739636262"><ele>351.0</ele><time>2026-04-09T09:38:54Z</time></trkpt><trkpt lat="44.53622710095198" lon="8.699520679007769"><ele>351.0</ele><time>2026-04-09T09:38:56Z</time></trkpt><trkpt lat="44.53629945956422" lon="8.699580567796145"><ele>351.0</ele><time>2026-04-09T09:38:58Z</time></trkpt><trkpt lat="44.536367948990026" lon="8.699629016822199"><ele>351.0</ele><time>2026-04-09T09:39:00Z</time></trkpt><trkpt lat="44.536434168147125" lon="8.699650398156706"><ele>351.0</ele><time>2026-04-09T09:39:03Z</time></trkpt><trkpt lat="44.53634931687567" lon="8.699615836566432"><ele>351.0</ele><time>2026-04-09T09:39:40Z</time></trkpt><trkpt lat="44.53626991039639" lon="8.69955966488445"><ele>351.0</ele><time>2026-04-09T09:39:43Z</time></trkpt><trkpt lat="44.53621353818254" lon="8.6995198574547"><ele>351.0</ele><time>2026-04-09T09:39:45Z</time></trkpt><trkpt lat="44.5361335465719" lon="8.699463742040635"><ele>351.0</ele><time>2026-04-09T09:39:48Z</time></trkpt><trkpt lat="44.53605121899486" lon="8.699404024339007"><ele>351.0</ele><time>2026-04-09T09:39:51Z</time></trkpt><trkpt lat="44.53598665902546" lon="8.699356637674727"><ele>351.0</ele><time>2026-04-09T09:39:53Z</time></trkpt><trkpt lat="44.53594408435341" lon="8.699285717825205"><ele>351.0</ele><time>2026-04-09T09:39:55Z</time></trkpt><trkpt lat="44.53588885737809" lon="8.699231125829124"><ele>351.0</ele><time>2026-04-09T09:39:57Z</time></trkpt><trkpt lat="44.535883491473655" lon="8.69910517462221"><ele>351.0</ele><time>2026-04-09T09:40:01Z</time></trkpt><trkpt lat="44.535966121923714" lon="8.699084470575205"><ele>351.0</ele><time>2026-04-09T09:40:11Z</time></trkpt><trkpt lat="44.53604394874696" lon="8.699106679802442"><ele>351.0</ele><time>2026-04-09T09:40:14Z</time></trkpt><trkpt lat="44.536130195244326" lon="8.69913487290145"><ele>351.0</ele><time>2026-04-09T09:40:17Z</time></trkpt><trkpt lat="44.53621974901768" lon="8.699122872605573"><ele>351.0</ele><time>2026-04-09T09:40:20Z</time></trkpt><trkpt lat="44.53628598903468" lon="8.699122241764911"><ele>351.0</ele><time>2026-04-09T09:40:22Z</time></trkpt><trkpt lat="44.53636576501812" lon="8.699154979766087"><ele>351.6666666666667</ele><time>2026-04-09T09:40:25Z</time></trkpt><trkpt lat="44.53645029501741" lon="8.69914677859141"><ele>352.3333333333333</ele><time>2026-04-09T09:40:28Z</time></trkpt><trkpt lat="44.53653333226194" lon="8.699157196444324"><ele>353.0</ele><time>2026-04-09T09:40:31Z</time></trkpt><trkpt lat="44.53661797012929" lon="8.699185442566508"><ele>353.66666666666663</ele><time>2026-04-09T09:40:34Z</time></trkpt><trkpt lat="44.5366921924182" lon="8.699188532627335"><ele>354.3333333333333</ele><time>2026-04-09T09:40:36Z</time></trkpt><trkpt lat="44.536758551551465" lon="8.699196587213066"><ele>355.0</ele><time>2026-04-09T09:40:38Z</time></trkpt><trkpt lat="44.53682924376068" lon="8.699203039335657"><ele>355.0</ele><time>2026-04-09T09:40:40Z</time></trkpt><trkpt lat="44.53690987896741" lon="8.699198254461127"><ele>355.0</ele><time>2026-04-09T09:40:42Z</time></trkpt><trkpt lat="44.53698630055874" lon="8.69920813857977"><ele>355.0</ele><time>2026-04-09T09:40:44Z</time></trkpt><trkpt lat="44.537061507958285" lon="8.699214667408128"><ele>355.0</ele><time>2026-04-09T09:40:46Z</time></trkpt><trkpt lat="44.537135356744656" lon="8.699220356672349"><ele>355.0</ele><time>2026-04-09T09:40:48Z</time></trkpt><trkpt lat="44.53723114131872" lon="8.699259186778233"><ele>355.0</ele><time>2026-04-09T09:40:50Z</time></trkpt><trkpt lat="44.537304460939055" lon="8.699255819801058"><ele>354.6</ele><time>2026-04-09T09:40:52Z</time></trkpt><trkpt lat="44.53739490415817" lon="8.69927812701009"><ele>354.2</ele><time>2026-04-09T09:40:54Z</time></trkpt><trkpt lat="44.53748993627247" lon="8.699301565324149"><ele>353.79999999999995</ele><time>2026-04-09T09:40:56Z</time></trkpt><trkpt lat="44.53758133803342" lon="8.699317255422738"><ele>353.4</ele><time>2026-04-09T09:40:58Z</time></trkpt><trkpt lat="44.537692924635145" lon="8.699342222379592"><ele>353.0</ele><time>2026-04-09T09:41:00Z</time></trkpt><trkpt lat="44.53777170036469" lon="8.69932322836856"><ele>353.0</ele><time>2026-04-09T09:41:02Z</time></trkpt><trkpt lat="44.53783072835227" lon="8.69926011199988"><ele>353.0</ele><time>2026-04-09T09:41:04Z</time></trkpt><trkpt lat="44.53790809391249" lon="8.699196434061518"><ele>353.0</ele><time>2026-04-09T09:41:06Z</time></trkpt><trkpt lat="44.53798408078569" lon="8.699117200333905"><ele>353.0</ele><time>2026-04-09T09:41:08Z</time></trkpt><trkpt lat="44.538078433219646" lon="8.699071046131932"><ele>353.0</ele><time>2026-04-09T09:41:10Z</time></trkpt><trkpt lat="44.53818333340766" lon="8.699072436044961"><ele>352.2</ele><time>2026-04-09T09:41:12Z</time></trkpt><trkpt lat="44.53829618442518" lon="8.699084699099265"><ele>351.4</ele><time>2026-04-09T09:41:14Z</time></trkpt><trkpt lat="44.53840679954864" lon="8.699088953059762"><ele>350.59999999999997</ele><time>2026-04-09T09:41:16Z</time></trkpt><trkpt lat="44.53849412207933" lon="8.699062966072265"><ele>349.79999999999995</ele><time>2026-04-09T09:41:18Z</time></trkpt><trkpt lat="44.5385948347477" lon="8.699069162846236"><ele>349.0</ele><time>2026-04-09T09:41:20Z</time></trkpt><trkpt lat="44.53866497678705" lon="8.699055086458804"><ele>350.6</ele><time>2026-04-09T09:41:21Z</time></trkpt><trkpt lat="44.538784898428716" lon="8.698992104943503"><ele>352.2</ele><time>2026-04-09T09:41:23Z</time></trkpt><trkpt lat="44.538855857815705" lon="8.698956810842361"><ele>353.8</ele><time>2026-04-09T09:41:24Z</time></trkpt><trkpt lat="44.53891747177729" lon="8.698926165350755"><ele>355.40000000000003</ele><time>2026-04-09T09:41:25Z</time></trkpt><trkpt lat="44.539027125891586" lon="8.69884887283135"><ele>357.0</ele><time>2026-04-09T09:41:27Z</time></trkpt><trkpt lat="44.53907188162146" lon="8.698763328262086"><ele>357.0</ele><time>2026-04-09T09:41:29Z</time></trkpt><trkpt lat="44.53915767898365" lon="8.698738378800291"><ele>357.0</ele><time>2026-04-09T09:41:36Z</time></trkpt><trkpt lat="44.539287138106666" lon="8.698707070967615"><ele>357.0</ele><time>2026-04-09T09:41:38Z</time></trkpt><trkpt lat="44.53935829249898" lon="8.698694850416237"><ele>357.0</ele><time>2026-04-09T09:41:39Z</time></trkpt><trkpt lat="44.53944387956256" lon="8.698664754739601"><ele>357.0</ele><time>2026-04-09T09:41:40Z</time></trkpt><trkpt lat="44.53953992138339" lon="8.698637158587799"><ele>355.6</ele><time>2026-04-09T09:41:41Z</time></trkpt><trkpt lat="44.53964281318919" lon="8.69859416617921"><ele>354.20000000000005</ele><time>2026-04-09T09:41:42Z</time></trkpt><trkpt lat="44.53974912172558" lon="8.698554527196848"><ele>352.8</ele><time>2026-04-09T09:41:43Z</time></trkpt><trkpt lat="44.539850601732645" lon="8.698507752770412"><ele>351.4</ele><time>2026-04-09T09:41:44Z</time></trkpt><trkpt lat="44.53996116654537" lon="8.698445302890066"><ele>350.0</ele><time>2026-04-09T09:41:45Z</time></trkpt><trkpt lat="44.54006565121363" lon="8.698359030338532"><ele>350.0</ele><time>2026-04-09T09:41:46Z</time></trkpt><trkpt lat="44.540165351197594" lon="8.698248579867256"><ele>350.0</ele><time>2026-04-09T09:41:47Z</time></trkpt><trkpt lat="44.54025216020835" lon="8.698120996817739"><ele>350.0</ele><time>2026-04-09T09:41:48Z</time></trkpt><trkpt lat="44.54035630713328" lon="8.69798368182939"><ele>350.0</ele><time>2026-04-09T09:41:49Z</time></trkpt><trkpt lat="44.54045434373767" lon="8.697862491827351"><ele>349.5</ele><time>2026-04-09T09:41:50Z</time></trkpt><trkpt lat="44.540550177173294" lon="8.697748494653487"><ele>349.0</ele><time>2026-04-09T09:41:51Z</time></trkpt><trkpt lat="44.54064897999519" lon="8.697627205464906"><ele>348.5</ele><time>2026-04-09T09:41:52Z</time></trkpt><trkpt lat="44.54074365868943" lon="8.697517208378937"><ele>348.0</ele><time>2026-04-09T09:41:53Z</time></trkpt><trkpt lat="44.54084142752855" lon="8.697412370194819"><ele>348.0</ele><time>2026-04-09T09:41:54Z</time></trkpt><trkpt lat="44.54093221049431" lon="8.697307246401191"><ele>348.0</ele><time>2026-04-09T09:41:55Z</time></trkpt><trkpt lat="44.54101803835897" lon="8.697204191799075"><ele>348.0</ele><time>2026-04-09T09:41:56Z</time></trkpt><trkpt lat="44.54111068049079" lon="8.69710754155748"><ele>348.0</ele><time>2026-04-09T09:41:57Z</time></trkpt><trkpt lat="44.54120929508337" lon="8.697015656171132"><ele>348.5</ele><time>2026-04-09T09:41:58Z</time></trkpt><trkpt lat="44.54131503190407" lon="8.696945017767122"><ele>349.0</ele><time>2026-04-09T09:41:59Z</time></trkpt><trkpt lat="44.54141903299117" lon="8.696870804966082"><ele>349.5</ele><time>2026-04-09T09:42:00Z</time></trkpt><trkpt lat="44.5415249003482" lon="8.696803020091416"><ele>350.0</ele><time>2026-04-09T09:42:01Z</time></trkpt><trkpt lat="44.54162100495122" lon="8.696724324451289"><ele>350.0</ele><time>2026-04-09T09:42:02Z</time></trkpt><trkpt lat="44.541712174212726" lon="8.69665280730144"><ele>350.0</ele><time>2026-04-09T09:42:03Z</time></trkpt><trkpt lat="44.541801952458435" lon="8.696557059116984"><ele>350.0</ele><time>2026-04-09T09:42:04Z</time></trkpt><trkpt lat="44.541885062258295" lon="8.696450659000329"><ele>350.0</ele><time>2026-04-09T09:42:05Z</time></trkpt><trkpt lat="44.54196453791274" lon="8.696329899149575"><ele>350.0</ele><time>2026-04-09T09:42:06Z</time></trkpt><trkpt lat="44.54204093359884" lon="8.69619941132371"><ele>353.0</ele><time>2026-04-09T09:42:07Z</time></trkpt><trkpt lat="44.54212211994166" lon="8.696065552787788"><ele>356.0</ele><time>2026-04-09T09:42:08Z</time></trkpt><trkpt lat="44.5422082917486" lon="8.695918529415952"><ele>359.0</ele><time>2026-04-09T09:42:09Z</time></trkpt><trkpt lat="44.542290825118684" lon="8.695773916336107"><ele>362.0</ele><time>2026-04-09T09:42:10Z</time></trkpt><trkpt lat="44.542358240948005" lon="8.695627364284471"><ele>362.0</ele><time>2026-04-09T09:42:11Z</time></trkpt><trkpt lat="44.542425124468544" lon="8.69547145408622"><ele>362.0</ele><time>2026-04-09T09:42:12Z</time></trkpt><trkpt lat="44.542490031443045" lon="8.695312258703295"><ele>362.0</ele><time>2026-04-09T09:42:13Z</time></trkpt><trkpt lat="44.54255458104004" lon="8.695154012892981"><ele>362.0</ele><time>2026-04-09T09:42:14Z</time></trkpt><trkpt lat="44.54262602615252" lon="8.694995056551514"><ele>359.75</ele><time>2026-04-09T09:42:15Z</time></trkpt><trkpt lat="44.54269861766964" lon="8.694836133642944"><ele>357.5</ele><time>2026-04-09T09:42:16Z</time></trkpt><trkpt lat="44.54277353355201" lon="8.694672539780477"><ele>355.25</ele><time>2026-04-09T09:42:17Z</time></trkpt><trkpt lat="44.54284843954509" lon="8.694504902990321"><ele>353.0</ele><time>2026-04-09T09:42:18Z</time></trkpt><trkpt lat="44.54290681861664" lon="8.694327687259168"><ele>353.0</ele><time>2026-04-09T09:42:19Z</time></trkpt><trkpt lat="44.54294926563307" lon="8.694138362766516"><ele>353.0</ele><time>2026-04-09T09:42:20Z</time></trkpt><trkpt lat="44.54300098054478" lon="8.693950323897532"><ele>353.0</ele><time>2026-04-09T09:42:21Z</time></trkpt><trkpt lat="44.543052429482124" lon="8.693760150547533"><ele>353.0</ele><time>2026-04-09T09:42:22Z</time></trkpt><trkpt lat="44.54310217903452" lon="8.693568007584869"><ele>351.33333333333337</ele><time>2026-04-09T09:42:23Z</time></trkpt><trkpt lat="44.54315408071279" lon="8.693371829222334"><ele>349.6666666666667</ele><time>2026-04-09T09:42:24Z</time></trkpt><trkpt lat="44.54320211788145" lon="8.693163325485894"><ele>348.0</ele><time>2026-04-09T09:42:25Z</time></trkpt><trkpt lat="44.54325633382751" lon="8.692973027753041"><ele>348.0</ele><time>2026-04-09T09:42:26Z</time></trkpt><trkpt lat="44.54331636040214" lon="8.692790725058325"><ele>348.0</ele><time>2026-04-09T09:42:27Z</time></trkpt><trkpt lat="44.54339036731738" lon="8.692628966023157"><ele>348.0</ele><time>2026-04-09T09:42:28Z</time></trkpt><trkpt lat="44.54347432877604" lon="8.69247192433888"><ele>348.0</ele><time>2026-04-09T09:42:29Z</time></trkpt><trkpt lat="44.54356634945898" lon="8.692330052672837"><ele>347.75</ele><time>2026-04-09T09:42:30Z</time></trkpt><trkpt lat="44.54367005170977" lon="8.6922012009773"><ele>347.5</ele><time>2026-04-09T09:42:31Z</time></trkpt><trkpt lat="44.54376658327108" lon="8.69207564404221"><ele>347.25</ele><time>2026-04-09T09:42:32Z</time></trkpt><trkpt lat="44.54386041162051" lon="8.691958670374941"><ele>347.0</ele><time>2026-04-09T09:42:33Z</time></trkpt><trkpt lat="44.54395207958525" lon="8.6918375873199"><ele>347.0</ele><time>2026-04-09T09:42:34Z</time></trkpt><trkpt lat="44.544033329071986" lon="8.691722448762263"><ele>347.0</ele><time>2026-04-09T09:42:35Z</time></trkpt><trkpt lat="44.54410994165175" lon="8.691612989076402"><ele>347.0</ele><time>2026-04-09T09:42:36Z</time></trkpt><trkpt lat="44.5441714936373" lon="8.691496839233206"><ele>347.0</ele><time>2026-04-09T09:42:37Z</time></trkpt><trkpt lat="44.544213584335374" lon="8.691355033649122"><ele>347.0</ele><time>2026-04-09T09:42:38Z</time></trkpt><trkpt lat="44.544237374373516" lon="8.69119787166186"><ele>344.5</ele><time>2026-04-09T09:42:39Z</time></trkpt><trkpt lat="44.54423169134983" lon="8.69103682514836"><ele>342.0</ele><time>2026-04-09T09:42:40Z</time></trkpt><trkpt lat="44.54418977929343" lon="8.690875889724376"><ele>339.5</ele><time>2026-04-09T09:42:41Z</time></trkpt><trkpt lat="44.54414955334423" lon="8.690710801668724"><ele>337.0</ele><time>2026-04-09T09:42:42Z</time></trkpt><trkpt lat="44.54409467693955" lon="8.690541225427486"><ele>337.0</ele><time>2026-04-09T09:42:43Z</time></trkpt><trkpt lat="44.544031871217584" lon="8.690399186074666"><ele>337.0</ele><time>2026-04-09T09:42:44Z</time></trkpt><trkpt lat="44.54399523017562" lon="8.69023550407325"><ele>337.0</ele><time>2026-04-09T09:42:45Z</time></trkpt><trkpt lat="44.543979254399545" lon="8.690069961981635"><ele>337.0</ele><time>2026-04-09T09:42:46Z</time></trkpt><trkpt lat="44.54399328304488" lon="8.689902429741638"><ele>338.0</ele><time>2026-04-09T09:42:47Z</time></trkpt><trkpt lat="44.54400579043812" lon="8.689726228827903"><ele>339.0</ele><time>2026-04-09T09:42:48Z</time></trkpt><trkpt lat="44.54400957278228" lon="8.689553743755278"><ele>340.0</ele><time>2026-04-09T09:42:49Z</time></trkpt><trkpt lat="44.54401493716479" lon="8.68936868708475"><ele>341.0</ele><time>2026-04-09T09:42:50Z</time></trkpt><trkpt lat="44.544028966842866" lon="8.689174416801231"><ele>341.25</ele><time>2026-04-09T09:42:51Z</time></trkpt><trkpt lat="44.54401384564535" lon="8.688968930884403"><ele>341.5</ele><time>2026-04-09T09:42:52Z</time></trkpt><trkpt lat="44.543998155433286" lon="8.688770188128252"><ele>341.75</ele><time>2026-04-09T09:42:53Z</time></trkpt><trkpt lat="44.54398231820341" lon="8.688576219650578"><ele>342.0</ele><time>2026-04-09T09:42:54Z</time></trkpt><trkpt lat="44.543954920141346" lon="8.688390760601251"><ele>342.25</ele><time>2026-04-09T09:42:55Z</time></trkpt><trkpt lat="44.5439527373753" lon="8.688212787046018"><ele>342.5</ele><time>2026-04-09T09:42:56Z</time></trkpt><trkpt lat="44.543953944831685" lon="8.688052081362581"><ele>342.75</ele><time>2026-04-09T09:42:57Z</time></trkpt><trkpt lat="44.5439606562959" lon="8.687904308493202"><ele>343.0</ele><time>2026-04-09T09:42:58Z</time></trkpt><trkpt lat="44.54397947635765" lon="8.687760033915866"><ele>343.0</ele><time>2026-04-09T09:42:59Z</time></trkpt><trkpt lat="44.54401646483176" lon="8.687619278610205"><ele>343.0</ele><time>2026-04-09T09:43:00Z</time></trkpt><trkpt lat="44.54407098200698" lon="8.687481944353921"><ele>343.0</ele><time>2026-04-09T09:43:01Z</time></trkpt><trkpt lat="44.5441376609386" lon="8.68734789412526"><ele>343.0</ele><time>2026-04-09T09:43:02Z</time></trkpt><trkpt lat="44.54420277190505" lon="8.687208873730334"><ele>343.0</ele><time>2026-04-09T09:43:03Z</time></trkpt><trkpt lat="44.54425699012224" lon="8.687051473070785"><ele>343.0</ele><time>2026-04-09T09:43:04Z</time></trkpt><trkpt lat="44.544304069149845" lon="8.686879394011372"><ele>343.0</ele><time>2026-04-09T09:43:05Z</time></trkpt><trkpt lat="44.54434190009118" lon="8.686686274466915"><ele>343.0</ele><time>2026-04-09T09:43:06Z</time></trkpt><trkpt lat="44.544381896796025" lon="8.68648451114812"><ele>347.66666666666663</ele><time>2026-04-09T09:43:07Z</time></trkpt><trkpt lat="44.544418946518505" lon="8.686281779730198"><ele>352.3333333333333</ele><time>2026-04-09T09:43:08Z</time></trkpt><trkpt lat="44.544469375285196" lon="8.6860730378038"><ele>357.0</ele><time>2026-04-09T09:43:09Z</time></trkpt><trkpt lat="44.544495082558186" lon="8.685854675043938"><ele>357.25</ele><time>2026-04-09T09:43:10Z</time></trkpt><trkpt lat="44.54451483678743" lon="8.68564371772523"><ele>357.5</ele><time>2026-04-09T09:43:11Z</time></trkpt><trkpt lat="44.544528131890516" lon="8.68543621703453"><ele>357.75</ele><time>2026-04-09T09:43:12Z</time></trkpt><trkpt lat="44.5445337178556" lon="8.68522754369833"><ele>358.0</ele><time>2026-04-09T09:43:13Z</time></trkpt><trkpt lat="44.5445225806327" lon="8.685017699682923"><ele>358.0</ele><time>2026-04-09T09:43:14Z</time></trkpt><trkpt lat="44.54445260272934" lon="8.684807667429792"><ele>358.0</ele><time>2026-04-09T09:43:15Z</time></trkpt><trkpt lat="44.54441667457289" lon="8.684585350820221"><ele>358.0</ele><time>2026-04-09T09:43:16Z</time></trkpt><trkpt lat="44.544384507281876" lon="8.684360696540573"><ele>353.3333333333333</ele><time>2026-04-09T09:43:17Z</time></trkpt><trkpt lat="44.54435747531956" lon="8.684140050397739"><ele>348.6666666666667</ele><time>2026-04-09T09:43:18Z</time></trkpt><trkpt lat="44.54432607125608" lon="8.6839062665609"><ele>344.0</ele><time>2026-04-09T09:43:19Z</time></trkpt><trkpt lat="44.54432573557118" lon="8.683661324222623"><ele>339.6666666666667</ele><time>2026-04-09T09:43:20Z</time></trkpt><trkpt lat="44.54428956394722" lon="8.683429691208591"><ele>335.3333333333333</ele><time>2026-04-09T09:43:21Z</time></trkpt><trkpt lat="44.544256035542716" lon="8.68320739971939"><ele>331.0</ele><time>2026-04-09T09:43:22Z</time></trkpt><trkpt lat="44.54422141157415" lon="8.682977156861119"><ele>332.66666666666663</ele><time>2026-04-09T09:43:23Z</time></trkpt><trkpt lat="44.54418699427235" lon="8.682740171533583"><ele>334.3333333333333</ele><time>2026-04-09T09:43:24Z</time></trkpt><trkpt lat="44.544153752501416" lon="8.682510966950064"><ele>336.0</ele><time>2026-04-09T09:43:25Z</time></trkpt><trkpt lat="44.544122745988474" lon="8.68228758257349"><ele>336.0</ele><time>2026-04-09T09:43:26Z</time></trkpt><trkpt lat="44.54409245694186" lon="8.682067345294662"><ele>336.0</ele><time>2026-04-09T09:43:27Z</time></trkpt><trkpt lat="44.54406636437268" lon="8.681858888728266"><ele>336.0</ele><time>2026-04-09T09:43:28Z</time></trkpt><trkpt lat="44.544042533003406" lon="8.681656249615004"><ele>337.25</ele><time>2026-04-09T09:43:29Z</time></trkpt><trkpt lat="44.54402009919079" lon="8.68145184983309"><ele>338.5</ele><time>2026-04-09T09:43:30Z</time></trkpt><trkpt lat="44.544002260188805" lon="8.681269186564343"><ele>339.75</ele><time>2026-04-09T09:43:31Z</time></trkpt><trkpt lat="44.543992726375045" lon="8.681088880106111"><ele>341.0</ele><time>2026-04-09T09:43:32Z</time></trkpt><trkpt lat="44.543993180475255" lon="8.680891751767765"><ele>341.5</ele><time>2026-04-09T09:43:33Z</time></trkpt><trkpt lat="44.54402597691505" lon="8.68069303312574"><ele>342.0</ele><time>2026-04-09T09:43:34Z</time></trkpt><trkpt lat="44.54406995564177" lon="8.68050162821618"><ele>342.5</ele><time>2026-04-09T09:43:35Z</time></trkpt><trkpt lat="44.544132697051126" lon="8.68031461544377"><ele>343.0</ele><time>2026-04-09T09:43:36Z</time></trkpt><trkpt lat="44.54420736981673" lon="8.680134164519275"><ele>340.0</ele><time>2026-04-09T09:43:37Z</time></trkpt><trkpt lat="44.54429566648017" lon="8.679958413812733"><ele>337.0</ele><time>2026-04-09T09:43:38Z</time></trkpt><trkpt lat="44.54439424437433" lon="8.67977783757087"><ele>334.0</ele><time>2026-04-09T09:43:39Z</time></trkpt><trkpt lat="44.54449885822596" lon="8.679597140851964"><ele>336.0</ele><time>2026-04-09T09:43:40Z</time></trkpt><trkpt lat="44.54460626721827" lon="8.679414275363051"><ele>338.0</ele><time>2026-04-09T09:43:41Z</time></trkpt><trkpt lat="44.54471699627637" lon="8.679240296502828"><ele>340.0</ele><time>2026-04-09T09:43:42Z</time></trkpt><trkpt lat="44.544830750927886" lon="8.679073630899321"><ele>340.0</ele><time>2026-04-09T09:43:43Z</time></trkpt><trkpt lat="44.54494062149292" lon="8.678909084292128"><ele>340.0</ele><time>2026-04-09T09:43:44Z</time></trkpt><trkpt lat="44.545055305860394" lon="8.678759717388331"><ele>340.0</ele><time>2026-04-09T09:43:45Z</time></trkpt><trkpt lat="44.54517596105835" lon="8.67862655866705"><ele>343.25</ele><time>2026-04-09T09:43:46Z</time></trkpt><trkpt lat="44.5452954348089" lon="8.678497400339495"><ele>346.5</ele><time>2026-04-09T09:43:47Z</time></trkpt><trkpt lat="44.54541127215932" lon="8.678372489818967"><ele>349.75</ele><time>2026-04-09T09:43:48Z</time></trkpt><trkpt lat="44.545520776818975" lon="8.678242541100433"><ele>353.0</ele><time>2026-04-09T09:43:49Z</time></trkpt><trkpt lat="44.545626603157146" lon="8.678106835754987"><ele>353.0</ele><time>2026-04-09T09:43:50Z</time></trkpt><trkpt lat="44.54571909392942" lon="8.677967620698146"><ele>353.0</ele><time>2026-04-09T09:43:51Z</time></trkpt><trkpt lat="44.54579819530729" lon="8.677822429344484"><ele>353.0</ele><time>2026-04-09T09:43:52Z</time></trkpt><trkpt lat="44.54587970936375" lon="8.677693128844833"><ele>353.0</ele><time>2026-04-09T09:43:53Z</time></trkpt><trkpt lat="44.545933008487886" lon="8.677539473559124"><ele>352.79999999999995</ele><time>2026-04-09T09:43:54Z</time></trkpt><trkpt lat="44.54599460424673" lon="8.67741346562439"><ele>352.6</ele><time>2026-04-09T09:43:55Z</time></trkpt><trkpt lat="44.54605471863166" lon="8.67730118051938"><ele>352.4</ele><time>2026-04-09T09:43:56Z</time></trkpt><trkpt lat="44.54612607027993" lon="8.67721000925037"><ele>352.20000000000005</ele><time>2026-04-09T09:43:57Z</time></trkpt><trkpt lat="44.54621726242649" lon="8.677160750726724"><ele>352.0</ele><time>2026-04-09T09:43:58Z</time></trkpt><trkpt lat="44.54631843033693" lon="8.677133396007592"><ele>352.0</ele><time>2026-04-09T09:43:59Z</time></trkpt><trkpt lat="44.54643187573286" lon="8.677123127186144"><ele>352.0</ele><time>2026-04-09T09:44:00Z</time></trkpt><trkpt lat="44.546555846295895" lon="8.677120523169126"><ele>352.0</ele><time>2026-04-09T09:44:01Z</time></trkpt><trkpt lat="44.54669075606512" lon="8.677120241930249"><ele>352.0</ele><time>2026-04-09T09:44:02Z</time></trkpt><trkpt lat="44.54681837032391" lon="8.67711553117917"><ele>352.0</ele><time>2026-04-09T09:44:03Z</time></trkpt><trkpt lat="44.54695340025298" lon="8.677106845690293"><ele>352.0</ele><time>2026-04-09T09:44:04Z</time></trkpt><trkpt lat="44.54709454691071" lon="8.677093404670165"><ele>352.0</ele><time>2026-04-09T09:44:05Z</time></trkpt><trkpt lat="44.547240307129755" lon="8.677071158794112"><ele>352.0</ele><time>2026-04-09T09:44:06Z</time></trkpt><trkpt lat="44.547388593267314" lon="8.67703661439787"><ele>352.5</ele><time>2026-04-09T09:44:07Z</time></trkpt><trkpt lat="44.54753128296769" lon="8.676991954209686"><ele>353.0</ele><time>2026-04-09T09:44:08Z</time></trkpt><trkpt lat="44.54766772751575" lon="8.676943165456283"><ele>353.5</ele><time>2026-04-09T09:44:09Z</time></trkpt><trkpt lat="44.54779693093209" lon="8.676892038586141"><ele>354.0</ele><time>2026-04-09T09:44:10Z</time></trkpt><trkpt lat="44.547919322007274" lon="8.676832819780836"><ele>354.0</ele><time>2026-04-09T09:44:11Z</time></trkpt><trkpt lat="44.5480285202243" lon="8.676749830844077"><ele>354.0</ele><time>2026-04-09T09:44:12Z</time></trkpt><trkpt lat="44.54814246891264" lon="8.676647929308004"><ele>354.0</ele><time>2026-04-09T09:44:13Z</time></trkpt><trkpt lat="44.548233803360965" lon="8.676510502843692"><ele>354.0</ele><time>2026-04-09T09:44:14Z</time></trkpt><trkpt lat="44.54830290649191" lon="8.676350207436643"><ele>354.0</ele><time>2026-04-09T09:44:15Z</time></trkpt><trkpt lat="44.548345198054406" lon="8.67616928239667"><ele>354.0</ele><time>2026-04-09T09:44:16Z</time></trkpt><trkpt lat="44.54837709500939" lon="8.67598076488747"><ele>354.0</ele><time>2026-04-09T09:44:17Z</time></trkpt><trkpt lat="44.54840731792152" lon="8.67579265274212"><ele>354.0</ele><time>2026-04-09T09:44:18Z</time></trkpt><trkpt lat="44.548435097107244" lon="8.675606409614643"><ele>348.75</ele><time>2026-04-09T09:44:19Z</time></trkpt><trkpt lat="44.548455630310976" lon="8.675419162484241"><ele>343.5</ele><time>2026-04-09T09:44:20Z</time></trkpt><trkpt lat="44.54846656474392" lon="8.675238998974846"><ele>338.25</ele><time>2026-04-09T09:44:21Z</time></trkpt><trkpt lat="44.54846585895606" lon="8.675064846239994"><ele>333.0</ele><time>2026-04-09T09:44:22Z</time></trkpt><trkpt lat="44.54846399460974" lon="8.674895418863516"><ele>331.4</ele><time>2026-04-09T09:44:23Z</time></trkpt><trkpt lat="44.54846101768847" lon="8.674736422510417"><ele>329.79999999999995</ele><time>2026-04-09T09:44:24Z</time></trkpt><trkpt lat="44.54846889256647" lon="8.674585718338976"><ele>328.2</ele><time>2026-04-09T09:44:25Z</time></trkpt><trkpt lat="44.548496061183734" lon="8.67443915802347"><ele>326.6</ele><time>2026-04-09T09:44:26Z</time></trkpt><trkpt lat="44.54853869975066" lon="8.674298057766526"><ele>325.0</ele><time>2026-04-09T09:44:27Z</time></trkpt><trkpt lat="44.54859674812277" lon="8.674166922909757"><ele>324.0</ele><time>2026-04-09T09:44:28Z</time></trkpt><trkpt lat="44.54866645902321" lon="8.674046382424446"><ele>323.0</ele><time>2026-04-09T09:44:29Z</time></trkpt><trkpt lat="44.54874311762257" lon="8.673941448333215"><ele>322.0</ele><time>2026-04-09T09:44:30Z</time></trkpt><trkpt lat="44.548822790980644" lon="8.67385950151468"><ele>321.0</ele><time>2026-04-09T09:44:31Z</time></trkpt><trkpt lat="44.54891507012773" lon="8.673792566341138"><ele>320.0</ele><time>2026-04-09T09:44:32Z</time></trkpt><trkpt lat="44.54902414541118" lon="8.673737497039642"><ele>324.25</ele><time>2026-04-09T09:44:33Z</time></trkpt><trkpt lat="44.5491478067228" lon="8.673703638572041"><ele>328.5</ele><time>2026-04-09T09:44:34Z</time></trkpt><trkpt lat="44.54927811900506" lon="8.673676742480332"><ele>332.75</ele><time>2026-04-09T09:44:35Z</time></trkpt><trkpt lat="44.54940932703983" lon="8.673649797854672"><ele>337.0</ele><time>2026-04-09T09:44:36Z</time></trkpt><trkpt lat="44.54955357326292" lon="8.673621823497998"><ele>330.3333333333333</ele><time>2026-04-09T09:44:37Z</time></trkpt><trkpt lat="44.54970786595431" lon="8.67359098249979"><ele>323.6666666666667</ele><time>2026-04-09T09:44:38Z</time></trkpt><trkpt lat="44.54986319464076" lon="8.673543015067553"><ele>317.0</ele><time>2026-04-09T09:44:39Z</time></trkpt><trkpt lat="44.550024475845" lon="8.673495048135736"><ele>317.0</ele><time>2026-04-09T09:44:40Z</time></trkpt><trkpt lat="44.550187572934185" lon="8.673452210935404"><ele>317.0</ele><time>2026-04-09T09:44:41Z</time></trkpt><trkpt lat="44.55035918653741" lon="8.673415028774693"><ele>317.0</ele><time>2026-04-09T09:44:42Z</time></trkpt><trkpt lat="44.55053282919322" lon="8.673374351024092"><ele>316.33333333333337</ele><time>2026-04-09T09:44:43Z</time></trkpt><trkpt lat="44.55070685486126" lon="8.673328034603381"><ele>315.6666666666667</ele><time>2026-04-09T09:44:44Z</time></trkpt><trkpt lat="44.55087666358073" lon="8.673275002202425"><ele>315.0</ele><time>2026-04-09T09:44:45Z</time></trkpt><trkpt lat="44.55104385331008" lon="8.673226907773058"><ele>315.0</ele><time>2026-04-09T09:44:46Z</time></trkpt><trkpt lat="44.5512063750998" lon="8.67317966357885"><ele>315.0</ele><time>2026-04-09T09:44:47Z</time></trkpt><trkpt lat="44.5513683497994" lon="8.673144731774256"><ele>315.0</ele><time>2026-04-09T09:44:48Z</time></trkpt><trkpt lat="44.551532352189824" lon="8.673126180581436"><ele>316.3333333333333</ele><time>2026-04-09T09:44:49Z</time></trkpt><trkpt lat="44.55170301511691" lon="8.673118281523383"><ele>317.66666666666663</ele><time>2026-04-09T09:44:50Z</time></trkpt><trkpt lat="44.55187195692529" lon="8.673107143578603"><ele>319.0</ele><time>2026-04-09T09:44:51Z</time></trkpt><trkpt lat="44.552045432598554" lon="8.673105188681285"><ele>319.0</ele><time>2026-04-09T09:44:52Z</time></trkpt><trkpt lat="44.55221735199214" lon="8.673087027140369"><ele>319.0</ele><time>2026-04-09T09:44:53Z</time></trkpt><trkpt lat="44.55239234885723" lon="8.673049715677822"><ele>319.0</ele><time>2026-04-09T09:44:54Z</time></trkpt><trkpt lat="44.55258065418732" lon="8.672991802871215"><ele>319.0</ele><time>2026-04-09T09:44:55Z</time></trkpt><trkpt lat="44.55277045751969" lon="8.672930020495118"><ele>319.0</ele><time>2026-04-09T09:44:56Z</time></trkpt><trkpt lat="44.5529547740233" lon="8.672869906455603"><ele>319.0</ele><time>2026-04-09T09:44:57Z</time></trkpt><trkpt lat="44.55314967740627" lon="8.672808054246712"><ele>315.66666666666663</ele><time>2026-04-09T09:44:58Z</time></trkpt><trkpt lat="44.5533422701321" lon="8.67274473389486"><ele>312.3333333333333</ele><time>2026-04-09T09:44:59Z</time></trkpt><trkpt lat="44.55353599809768" lon="8.672683960113101"><ele>309.0</ele><time>2026-04-09T09:45:00Z</time></trkpt><trkpt lat="44.55372498925356" lon="8.672622716515749"><ele>309.0</ele><time>2026-04-09T09:45:01Z</time></trkpt><trkpt lat="44.55390909725498" lon="8.672567565603632"><ele>309.0</ele><time>2026-04-09T09:45:02Z</time></trkpt><trkpt lat="44.554084042955836" lon="8.672514593899962"><ele>309.0</ele><time>2026-04-09T09:45:03Z</time></trkpt><trkpt lat="44.554248381256194" lon="8.672470389132274"><ele>309.0</ele><time>2026-04-09T09:45:04Z</time></trkpt><trkpt lat="44.554400908887914" lon="8.672420519790224"><ele>309.0</ele><time>2026-04-09T09:45:05Z</time></trkpt><trkpt lat="44.55454604604663" lon="8.672364022548432"><ele>309.0</ele><time>2026-04-09T09:45:06Z</time></trkpt><trkpt lat="44.55467770436252" lon="8.672317199636737"><ele>309.0</ele><time>2026-04-09T09:45:07Z</time></trkpt><trkpt lat="44.55479695975462" lon="8.672272254762069"><ele>309.8</ele><time>2026-04-09T09:45:08Z</time></trkpt><trkpt lat="44.55490678877075" lon="8.672225753077825"><ele>310.59999999999997</ele><time>2026-04-09T09:45:09Z</time></trkpt><trkpt lat="44.55501047730123" lon="8.67219050650333"><ele>311.4</ele><time>2026-04-09T09:45:10Z</time></trkpt><trkpt lat="44.55510622349287" lon="8.67215329141001"><ele>312.2</ele><time>2026-04-09T09:45:11Z</time></trkpt><trkpt lat="44.55518131207793" lon="8.672120252659164"><ele>313.0</ele><time>2026-04-09T09:45:12Z</time></trkpt><trkpt lat="44.55524948008664" lon="8.672090795014105"><ele>313.0</ele><time>2026-04-09T09:45:13Z</time></trkpt><trkpt lat="44.55534376279148" lon="8.672046213257286"><ele>313.0</ele><time>2026-04-09T09:45:15Z</time></trkpt><trkpt lat="44.55541866973062" lon="8.672022981013418"><ele>313.0</ele><time>2026-04-09T09:45:18Z</time></trkpt><trkpt lat="44.555483154265644" lon="8.671984576893772"><ele>313.0</ele><time>2026-04-09T09:46:02Z</time></trkpt><trkpt lat="44.55560813069795" lon="8.67193416321911"><ele>313.0</ele><time>2026-04-09T09:46:04Z</time></trkpt><trkpt lat="44.55567151709215" lon="8.67191561583258"><ele>313.0</ele><time>2026-04-09T09:46:05Z</time></trkpt><trkpt lat="44.55574198935991" lon="8.671899973347985"><ele>311.16666666666663</ele><time>2026-04-09T09:46:06Z</time></trkpt><trkpt lat="44.55581589714854" lon="8.671885078428067"><ele>309.3333333333333</ele><time>2026-04-09T09:46:07Z</time></trkpt><trkpt lat="44.55589500585477" lon="8.67187535790691"><ele>307.5</ele><time>2026-04-09T09:46:08Z</time></trkpt><trkpt lat="44.55597553662739" lon="8.671861829105497"><ele>305.6666666666667</ele><time>2026-04-09T09:46:09Z</time></trkpt><trkpt lat="44.556059310175065" lon="8.671851329222909"><ele>303.83333333333337</ele><time>2026-04-09T09:46:10Z</time></trkpt><trkpt lat="44.55614659968663" lon="8.67184327362818"><ele>302.0</ele><time>2026-04-09T09:46:11Z</time></trkpt><trkpt lat="44.55623223515644" lon="8.671836871271353"><ele>302.0</ele><time>2026-04-09T09:46:12Z</time></trkpt><trkpt lat="44.556321593511285" lon="8.67184142455064"><ele>302.0</ele><time>2026-04-09T09:46:13Z</time></trkpt><trkpt lat="44.55640698977202" lon="8.671833348242098"><ele>302.0</ele><time>2026-04-09T09:46:14Z</time></trkpt><trkpt lat="44.55649713592682" lon="8.671833589931836"><ele>302.0</ele><time>2026-04-09T09:46:15Z</time></trkpt><trkpt lat="44.55659496819835" lon="8.671838846143226"><ele>302.0</ele><time>2026-04-09T09:46:16Z</time></trkpt><trkpt lat="44.55669867194424" lon="8.671855102799432"><ele>302.0</ele><time>2026-04-09T09:46:17Z</time></trkpt><trkpt lat="44.5568051050075" lon="8.671885711154124"><ele>302.0</ele><time>2026-04-09T09:46:18Z</time></trkpt><trkpt lat="44.55691484580368" lon="8.671940814954255"><ele>302.0</ele><time>2026-04-09T09:46:19Z</time></trkpt><trkpt lat="44.55702943023962" lon="8.672007951751434"><ele>302.0</ele><time>2026-04-09T09:46:20Z</time></trkpt><trkpt lat="44.557140079536815" lon="8.672091760192414"><ele>304.0</ele><time>2026-04-09T09:46:21Z</time></trkpt><trkpt lat="44.55724481024269" lon="8.672177523270316"><ele>306.0</ele><time>2026-04-09T09:46:22Z</time></trkpt><trkpt lat="44.557347303202306" lon="8.672263270322182"><ele>308.0</ele><time>2026-04-09T09:46:23Z</time></trkpt><trkpt lat="44.557449899466285" lon="8.672344670817388"><ele>310.0</ele><time>2026-04-09T09:46:24Z</time></trkpt><trkpt lat="44.557555350798566" lon="8.672421784498704"><ele>310.0</ele><time>2026-04-09T09:46:25Z</time></trkpt><trkpt lat="44.55766667518855" lon="8.672489807322668"><ele>310.0</ele><time>2026-04-09T09:46:26Z</time></trkpt><trkpt lat="44.55778547542584" lon="8.67254339060997"><ele>310.0</ele><time>2026-04-09T09:46:27Z</time></trkpt><trkpt lat="44.55790030343571" lon="8.672588736386302"><ele>310.0</ele><time>2026-04-09T09:46:28Z</time></trkpt><trkpt lat="44.55801163790375" lon="8.672635400245257"><ele>308.6</ele><time>2026-04-09T09:46:29Z</time></trkpt><trkpt lat="44.558120045115515" lon="8.672670817650406"><ele>307.2</ele><time>2026-04-09T09:46:30Z</time></trkpt><trkpt lat="44.558227320086" lon="8.67270160967858"><ele>305.8</ele><time>2026-04-09T09:46:31Z</time></trkpt><trkpt lat="44.558336473168865" lon="8.67273320789762"><ele>304.4</ele><time>2026-04-09T09:46:32Z</time></trkpt><trkpt lat="44.55844746634023" lon="8.672764317689602"><ele>303.0</ele><time>2026-04-09T09:46:33Z</time></trkpt><trkpt lat="44.558561183104985" lon="8.672807538972135"><ele>302.75</ele><time>2026-04-09T09:46:34Z</time></trkpt><trkpt lat="44.55867255875163" lon="8.672843001816029"><ele>302.5</ele><time>2026-04-09T09:46:35Z</time></trkpt><trkpt lat="44.55878666112095" lon="8.672862752741484"><ele>302.25</ele><time>2026-04-09T09:46:36Z</time></trkpt><trkpt lat="44.55890553534565" lon="8.672858839076008"><ele>302.0</ele><time>2026-04-09T09:46:37Z</time></trkpt><trkpt lat="44.55901927587596" lon="8.672820231241031"><ele>302.75</ele><time>2026-04-09T09:46:38Z</time></trkpt><trkpt lat="44.55913522823244" lon="8.672752678053596"><ele>303.5</ele><time>2026-04-09T09:46:39Z</time></trkpt><trkpt lat="44.55925486336784" lon="8.672657637728953"><ele>304.25</ele><time>2026-04-09T09:46:40Z</time></trkpt><trkpt lat="44.55937521146109" lon="8.672547403918983"><ele>305.0</ele><time>2026-04-09T09:46:41Z</time></trkpt><trkpt lat="44.55948678578582" lon="8.672436012364166"><ele>304.0</ele><time>2026-04-09T09:46:42Z</time></trkpt><trkpt lat="44.55960211295416" lon="8.672327993784272"><ele>303.0</ele><time>2026-04-09T09:46:43Z</time></trkpt><trkpt lat="44.559711164673665" lon="8.672218417600263"><ele>302.0</ele><time>2026-04-09T09:46:44Z</time></trkpt><trkpt lat="44.55982220816606" lon="8.672113447666906"><ele>301.0</ele><time>2026-04-09T09:46:45Z</time></trkpt><trkpt lat="44.559930425058674" lon="8.67201532852933"><ele>298.75</ele><time>2026-04-09T09:46:46Z</time></trkpt><trkpt lat="44.56003559133417" lon="8.671910526795376"><ele>296.5</ele><time>2026-04-09T09:46:47Z</time></trkpt><trkpt lat="44.56013260228916" lon="8.671819385684747"><ele>294.25</ele><time>2026-04-09T09:46:48Z</time></trkpt><trkpt lat="44.560226622716165" lon="8.671732483193596"><ele>292.0</ele><time>2026-04-09T09:46:49Z</time></trkpt><trkpt lat="44.560330694118576" lon="8.671631787071679"><ele>292.75</ele><time>2026-04-09T09:46:50Z</time></trkpt><trkpt lat="44.560425682400954" lon="8.671539350728656"><ele>293.5</ele><time>2026-04-09T09:46:51Z</time></trkpt><trkpt lat="44.56051957281556" lon="8.67144524210937"><ele>294.25</ele><time>2026-04-09T09:46:52Z</time></trkpt><trkpt lat="44.56062259236275" lon="8.671345624176556"><ele>295.0</ele><time>2026-04-09T09:46:53Z</time></trkpt><trkpt lat="44.560732633069726" lon="8.671250342508086"><ele>295.0</ele><time>2026-04-09T09:46:54Z</time></trkpt><trkpt lat="44.56084218512949" lon="8.67115237509955"><ele>295.0</ele><time>2026-04-09T09:46:55Z</time></trkpt><trkpt lat="44.56094990642794" lon="8.671051157627389"><ele>295.0</ele><time>2026-04-09T09:46:56Z</time></trkpt><trkpt lat="44.561063901119816" lon="8.670957046338287"><ele>295.0</ele><time>2026-04-09T09:46:57Z</time></trkpt><trkpt lat="44.56118565404349" lon="8.67086268705"><ele>295.25</ele><time>2026-04-09T09:46:58Z</time></trkpt><trkpt lat="44.56130157547498" lon="8.670768359089497"><ele>295.5</ele><time>2026-04-09T09:46:59Z</time></trkpt><trkpt lat="44.56142072017828" lon="8.67068202766198"><ele>295.75</ele><time>2026-04-09T09:47:00Z</time></trkpt><trkpt lat="44.56153535142481" lon="8.670598113512499"><ele>296.0</ele><time>2026-04-09T09:47:01Z</time></trkpt><trkpt lat="44.56164671128869" lon="8.670515651469435"><ele>296.0</ele><time>2026-04-09T09:47:02Z</time></trkpt><trkpt lat="44.56175174534139" lon="8.670441256753623"><ele>296.0</ele><time>2026-04-09T09:47:03Z</time></trkpt><trkpt lat="44.561848732902945" lon="8.670370862028056"><ele>296.0</ele><time>2026-04-09T09:47:04Z</time></trkpt><trkpt lat="44.56194049689869" lon="8.67030110880659"><ele>296.0</ele><time>2026-04-09T09:47:05Z</time></trkpt><trkpt lat="44.56203062825014" lon="8.670235846869756"><ele>296.0</ele><time>2026-04-09T09:47:06Z</time></trkpt><trkpt lat="44.562124645591254" lon="8.670168089889017"><ele>297.0</ele><time>2026-04-09T09:47:07Z</time></trkpt><trkpt lat="44.5622282655257" lon="8.67010739607231"><ele>298.0</ele><time>2026-04-09T09:47:08Z</time></trkpt><trkpt lat="44.56232413713046" lon="8.670030563770265"><ele>299.0</ele><time>2026-04-09T09:47:09Z</time></trkpt><trkpt lat="44.562422694837636" lon="8.669951434182996"><ele>300.0</ele><time>2026-04-09T09:47:10Z</time></trkpt><trkpt lat="44.562518569273315" lon="8.669862373111233"><ele>300.0</ele><time>2026-04-09T09:47:11Z</time></trkpt><trkpt lat="44.56261211346117" lon="8.669763409113466"><ele>300.0</ele><time>2026-04-09T09:47:12Z</time></trkpt><trkpt lat="44.56270525635743" lon="8.669656296020015"><ele>300.0</ele><time>2026-04-09T09:47:13Z</time></trkpt><trkpt lat="44.56279993195791" lon="8.66955308682254"><ele>300.0</ele><time>2026-04-09T09:47:14Z</time></trkpt><trkpt lat="44.562895262859" lon="8.669439395798861"><ele>299.25</ele><time>2026-04-09T09:47:15Z</time></trkpt><trkpt lat="44.56298601623075" lon="8.669324335956665"><ele>298.5</ele><time>2026-04-09T09:47:16Z</time></trkpt><trkpt lat="44.563075588837506" lon="8.669207093882351"><ele>297.75</ele><time>2026-04-09T09:47:17Z</time></trkpt><trkpt lat="44.56316648855104" lon="8.669092011201764"><ele>297.0</ele><time>2026-04-09T09:47:18Z</time></trkpt><trkpt lat="44.56325680391402" lon="8.668975227098878"><ele>297.0</ele><time>2026-04-09T09:47:19Z</time></trkpt><trkpt lat="44.56334751626228" lon="8.6688617508409"><ele>297.0</ele><time>2026-04-09T09:47:20Z</time></trkpt><trkpt lat="44.56343953118968" lon="8.668757674544894"><ele>297.0</ele><time>2026-04-09T09:47:21Z</time></trkpt><trkpt lat="44.563532932011235" lon="8.668655706377022"><ele>297.0</ele><time>2026-04-09T09:47:22Z</time></trkpt><trkpt lat="44.56361438211485" lon="8.668555737819979"><ele>296.8</ele><time>2026-04-09T09:47:23Z</time></trkpt><trkpt lat="44.56368596618903" lon="8.668462527696837"><ele>296.6</ele><time>2026-04-09T09:47:24Z</time></trkpt><trkpt lat="44.5637523851749" lon="8.66836650586657"><ele>296.40000000000003</ele><time>2026-04-09T09:47:25Z</time></trkpt><trkpt lat="44.56382875551182" lon="8.668287968760652"><ele>296.2</ele><time>2026-04-09T09:47:26Z</time></trkpt><trkpt lat="44.56389967633568" lon="8.668179279676215"><ele>296.0</ele><time>2026-04-09T09:47:27Z</time></trkpt><trkpt lat="44.563965655422805" lon="8.668056951124793"><ele>296.0</ele><time>2026-04-09T09:47:28Z</time></trkpt><trkpt lat="44.56402074691463" lon="8.667916500805706"><ele>296.0</ele><time>2026-04-09T09:47:29Z</time></trkpt><trkpt lat="44.56407090758102" lon="8.667757085503851"><ele>296.0</ele><time>2026-04-09T09:47:30Z</time></trkpt><trkpt lat="44.564112362804025" lon="8.667590431342566"><ele>296.0</ele><time>2026-04-09T09:47:31Z</time></trkpt><trkpt lat="44.5641727534237" lon="8.667435303342664"><ele>298.75</ele><time>2026-04-09T09:47:32Z</time></trkpt><trkpt lat="44.56424108038695" lon="8.6672698053281"><ele>301.5</ele><time>2026-04-09T09:47:33Z</time></trkpt><trkpt lat="44.56432335500034" lon="8.667118749629228"><ele>304.25</ele><time>2026-04-09T09:47:34Z</time></trkpt><trkpt lat="44.56441938557618" lon="8.666970836059491"><ele>307.0</ele><time>2026-04-09T09:47:35Z</time></trkpt><trkpt lat="44.56452400075246" lon="8.66680074655295"><ele>305.75</ele><time>2026-04-09T09:47:36Z</time></trkpt><trkpt lat="44.56463392537525" lon="8.666647341628959"><ele>304.5</ele><time>2026-04-09T09:47:37Z</time></trkpt><trkpt lat="44.564738834807706" lon="8.666507610427002"><ele>303.25</ele><time>2026-04-09T09:47:38Z</time></trkpt><trkpt lat="44.56483473912049" lon="8.666371252045806"><ele>302.0</ele><time>2026-04-09T09:47:39Z</time></trkpt><trkpt lat="44.56492320908544" lon="8.666237202501513"><ele>303.75</ele><time>2026-04-09T09:47:40Z</time></trkpt><trkpt lat="44.565009300390265" lon="8.666108231726913"><ele>305.5</ele><time>2026-04-09T09:47:41Z</time></trkpt><trkpt lat="44.56509522796913" lon="8.66599089319453"><ele>307.25</ele><time>2026-04-09T09:47:42Z</time></trkpt><trkpt lat="44.565183457606174" lon="8.665882946916232"><ele>309.0</ele><time>2026-04-09T09:47:43Z</time></trkpt><trkpt lat="44.565284812689235" lon="8.66579314053815"><ele>307.0</ele><time>2026-04-09T09:47:44Z</time></trkpt><trkpt lat="44.56539821081553" lon="8.665717467070516"><ele>305.0</ele><time>2026-04-09T09:47:45Z</time></trkpt><trkpt lat="44.565522185795395" lon="8.665638658830774"><ele>303.0</ele><time>2026-04-09T09:47:46Z</time></trkpt><trkpt lat="44.56565032082815" lon="8.665562079295961"><ele>301.0</ele><time>2026-04-09T09:47:47Z</time></trkpt><trkpt lat="44.56578841599641" lon="8.665492727496709"><ele>301.0</ele><time>2026-04-09T09:47:48Z</time></trkpt><trkpt lat="44.56591093513074" lon="8.665400514956955"><ele>301.0</ele><time>2026-04-09T09:47:49Z</time></trkpt><trkpt lat="44.566039902277" lon="8.665320434894134"><ele>301.0</ele><time>2026-04-09T09:47:50Z</time></trkpt><trkpt lat="44.566159006409414" lon="8.665230677986207"><ele>301.0</ele><time>2026-04-09T09:47:51Z</time></trkpt><trkpt lat="44.56626666256275" lon="8.665139350565422"><ele>300.25</ele><time>2026-04-09T09:47:52Z</time></trkpt><trkpt lat="44.56636924065981" lon="8.665036961830602"><ele>299.5</ele><time>2026-04-09T09:47:53Z</time></trkpt><trkpt lat="44.566468799608074" lon="8.664929735141083"><ele>298.75</ele><time>2026-04-09T09:47:54Z</time></trkpt><trkpt lat="44.56656454499591" lon="8.66480241128247"><ele>298.0</ele><time>2026-04-09T09:47:55Z</time></trkpt><trkpt lat="44.56666070904907" lon="8.66466720195205"><ele>298.0</ele><time>2026-04-09T09:47:56Z</time></trkpt><trkpt lat="44.56675737458864" lon="8.664531285211655"><ele>298.0</ele><time>2026-04-09T09:47:57Z</time></trkpt><trkpt lat="44.56686299958605" lon="8.664408540785283"><ele>298.0</ele><time>2026-04-09T09:47:58Z</time></trkpt><trkpt lat="44.56697181691745" lon="8.664301749539852"><ele>298.0</ele><time>2026-04-09T09:47:59Z</time></trkpt><trkpt lat="44.5670864999241" lon="8.664218592376617"><ele>297.4</ele><time>2026-04-09T09:48:00Z</time></trkpt><trkpt lat="44.56720249380869" lon="8.664159565737565"><ele>296.8</ele><time>2026-04-09T09:48:01Z</time></trkpt><trkpt lat="44.56731331674188" lon="8.664129486030918"><ele>296.2</ele><time>2026-04-09T09:48:02Z</time></trkpt><trkpt lat="44.567420391474286" lon="8.66411300010736"><ele>295.6</ele><time>2026-04-09T09:48:03Z</time></trkpt><trkpt lat="44.56751556792808" lon="8.664113588797223"><ele>295.0</ele><time>2026-04-09T09:48:04Z</time></trkpt><trkpt lat="44.567601924604325" lon="8.664119140545463"><ele>295.0</ele><time>2026-04-09T09:48:05Z</time></trkpt><trkpt lat="44.56767594657437" lon="8.66413112562927"><ele>295.0</ele><time>2026-04-09T09:48:06Z</time></trkpt><trkpt lat="44.5677774040892" lon="8.664153200575168"><ele>295.0</ele><time>2026-04-09T09:48:08Z</time></trkpt><trkpt lat="44.56785430644071" lon="8.663985965478904"><ele>295.0</ele><time>2026-04-09T09:48:11Z</time></trkpt><trkpt lat="44.56784277052658" lon="8.663881862108695"><ele>295.0</ele><time>2026-04-09T09:48:12Z</time></trkpt><trkpt lat="44.56784247037098" lon="8.663765078198153"><ele>295.0</ele><time>2026-04-09T09:48:13Z</time></trkpt><trkpt lat="44.56784653597129" lon="8.663630884098412"><ele>295.0</ele><time>2026-04-09T09:48:14Z</time></trkpt><trkpt lat="44.56785346670371" lon="8.663484353384456"><ele>295.0</ele><time>2026-04-09T09:48:15Z</time></trkpt><trkpt lat="44.567866129924454" lon="8.66333195491342"><ele>295.0</ele><time>2026-04-09T09:48:16Z</time></trkpt><trkpt lat="44.56788107958201" lon="8.663178328614519"><ele>295.0</ele><time>2026-04-09T09:48:17Z</time></trkpt><trkpt lat="44.56789615758239" lon="8.663027926524448"><ele>299.6</ele><time>2026-04-09T09:48:18Z</time></trkpt><trkpt lat="44.567904411375494" lon="8.662881655561346"><ele>304.2</ele><time>2026-04-09T09:48:19Z</time></trkpt><trkpt lat="44.56790694503813" lon="8.66274532208218"><ele>308.8</ele><time>2026-04-09T09:48:20Z</time></trkpt><trkpt lat="44.56790647457068" lon="8.662646305293215"><ele>313.4</ele><time>2026-04-09T09:48:21Z</time></trkpt><trkpt lat="44.56791556665067" lon="8.662460148636917"><ele>318.0</ele><time>2026-04-09T09:48:23Z</time></trkpt><trkpt lat="44.567923985337615" lon="8.662341855086982"><ele>318.0</ele><time>2026-04-09T09:48:24Z</time></trkpt><trkpt lat="44.56794485100623" lon="8.662219022242882"><ele>318.0</ele><time>2026-04-09T09:48:25Z</time></trkpt><trkpt lat="44.567963767460206" lon="8.66209539741165"><ele>318.0</ele><time>2026-04-09T09:48:26Z</time></trkpt><trkpt lat="44.567982804148315" lon="8.661967636153689"><ele>318.0</ele><time>2026-04-09T09:48:27Z</time></trkpt><trkpt lat="44.568001055147015" lon="8.66183906818437"><ele>318.0</ele><time>2026-04-09T09:48:28Z</time></trkpt><trkpt lat="44.568030962864334" lon="8.661718006070046"><ele>317.6</ele><time>2026-04-09T09:48:29Z</time></trkpt><trkpt lat="44.56806473254958" lon="8.66159571308584"><ele>317.20000000000005</ele><time>2026-04-09T09:48:30Z</time></trkpt><trkpt lat="44.568102957827364" lon="8.661464650700301"><ele>316.8</ele><time>2026-04-09T09:48:31Z</time></trkpt><trkpt lat="44.56814340239903" lon="8.661331862255683"><ele>316.40000000000003</ele><time>2026-04-09T09:48:32Z</time></trkpt><trkpt lat="44.568185295042404" lon="8.661189970043404"><ele>316.0</ele><time>2026-04-09T09:48:33Z</time></trkpt><trkpt lat="44.56822420542624" lon="8.661037450651353"><ele>315.5</ele><time>2026-04-09T09:48:34Z</time></trkpt><trkpt lat="44.56826188569161" lon="8.660888800691296"><ele>315.0</ele><time>2026-04-09T09:48:35Z</time></trkpt><trkpt lat="44.5683165558425" lon="8.660745002687548"><ele>314.5</ele><time>2026-04-09T09:48:36Z</time></trkpt><trkpt lat="44.56833642740495" lon="8.660573572906038"><ele>314.0</ele><time>2026-04-09T09:48:37Z</time></trkpt><trkpt lat="44.56837051290342" lon="8.660397826761876"><ele>312.75</ele><time>2026-04-09T09:48:38Z</time></trkpt><trkpt lat="44.56839261815438" lon="8.66023176496416"><ele>311.5</ele><time>2026-04-09T09:48:39Z</time></trkpt><trkpt lat="44.568426003196386" lon="8.660077994553118"><ele>310.25</ele><time>2026-04-09T09:48:40Z</time></trkpt><trkpt lat="44.56847600273891" lon="8.659921693615493"><ele>309.0</ele><time>2026-04-09T09:48:41Z</time></trkpt><trkpt lat="44.56854059098731" lon="8.659768757361187"><ele>309.0</ele><time>2026-04-09T09:48:42Z</time></trkpt><trkpt lat="44.56861073942521" lon="8.659613762738333"><ele>309.0</ele><time>2026-04-09T09:48:43Z</time></trkpt><trkpt lat="44.56866810357217" lon="8.659460316560954"><ele>309.0</ele><time>2026-04-09T09:48:44Z</time></trkpt><trkpt lat="44.56871061874024" lon="8.659297774996665"><ele>309.0</ele><time>2026-04-09T09:48:45Z</time></trkpt><trkpt lat="44.568744855066534" lon="8.659125946165364"><ele>308.25</ele><time>2026-04-09T09:48:46Z</time></trkpt><trkpt lat="44.56874695253252" lon="8.658921594844054"><ele>307.5</ele><time>2026-04-09T09:48:47Z</time></trkpt><trkpt lat="44.568730437275704" lon="8.658709192996707"><ele>306.75</ele><time>2026-04-09T09:48:48Z</time></trkpt><trkpt lat="44.56869895461973" lon="8.658518459746755"><ele>306.0</ele><time>2026-04-09T09:48:49Z</time></trkpt><trkpt lat="44.56865907709815" lon="8.658342135802656"><ele>306.0</ele><time>2026-04-09T09:48:50Z</time></trkpt><trkpt lat="44.5686284824377" lon="8.658163563578176"><ele>306.0</ele><time>2026-04-09T09:48:51Z</time></trkpt><trkpt lat="44.56862327739595" lon="8.657973869725808"><ele>306.0</ele><time>2026-04-09T09:48:52Z</time></trkpt><trkpt lat="44.56863140944738" lon="8.657765043235374"><ele>306.0</ele><time>2026-04-09T09:48:53Z</time></trkpt><trkpt lat="44.5686338781477" lon="8.657574741254377"><ele>305.75</ele><time>2026-04-09T09:48:54Z</time></trkpt><trkpt lat="44.56863998076233" lon="8.657374013270115"><ele>305.5</ele><time>2026-04-09T09:48:55Z</time></trkpt><trkpt lat="44.56865666051879" lon="8.657181001871795"><ele>305.25</ele><time>2026-04-09T09:48:56Z</time></trkpt><trkpt lat="44.56868454007613" lon="8.657005680909453"><ele>305.0</ele><time>2026-04-09T09:48:57Z</time></trkpt><trkpt lat="44.56872331355957" lon="8.656849759481494"><ele>313.0</ele><time>2026-04-09T09:48:58Z</time></trkpt><trkpt lat="44.56879079379722" lon="8.656706130583764"><ele>321.0</ele><time>2026-04-09T09:48:59Z</time></trkpt><trkpt lat="44.56886270136819" lon="8.656557313447104"><ele>329.0</ele><time>2026-04-09T09:49:00Z</time></trkpt><trkpt lat="44.56891421934923" lon="8.656384553864207"><ele>337.0</ele><time>2026-04-09T09:49:01Z</time></trkpt><trkpt lat="44.56895531889721" lon="8.656216870716456"><ele>335.0</ele><time>2026-04-09T09:49:02Z</time></trkpt><trkpt lat="44.56898789096512" lon="8.656056098320084"><ele>333.0</ele><time>2026-04-09T09:49:03Z</time></trkpt><trkpt lat="44.56901443806108" lon="8.6559142444313"><ele>331.0</ele><time>2026-04-09T09:49:04Z</time></trkpt><trkpt lat="44.56901872909675" lon="8.655777090473572"><ele>329.0</ele><time>2026-04-09T09:49:05Z</time></trkpt><trkpt lat="44.56898153372926" lon="8.655637487756033"><ele>327.0</ele><time>2026-04-09T09:49:06Z</time></trkpt><trkpt lat="44.56890809176374" lon="8.655501716373225"><ele>327.0</ele><time>2026-04-09T09:49:07Z</time></trkpt><trkpt lat="44.56883348371419" lon="8.655363564541291"><ele>327.0</ele><time>2026-04-09T09:49:08Z</time></trkpt><trkpt lat="44.568723993753636" lon="8.655249679223376"><ele>327.0</ele><time>2026-04-09T09:49:09Z</time></trkpt><trkpt lat="44.568588801453195" lon="8.65519326489368"><ele>327.0</ele><time>2026-04-09T09:49:10Z</time></trkpt><trkpt lat="44.56845175507471" lon="8.655135300287968"><ele>323.5</ele><time>2026-04-09T09:49:11Z</time></trkpt><trkpt lat="44.56831016630166" lon="8.655062856284275"><ele>320.0</ele><time>2026-04-09T09:49:12Z</time></trkpt><trkpt lat="44.56816624100517" lon="8.655041420091486"><ele>316.5</ele><time>2026-04-09T09:49:13Z</time></trkpt><trkpt lat="44.56803620654104" lon="8.655058339045691"><ele>313.0</ele><time>2026-04-09T09:49:14Z</time></trkpt><trkpt lat="44.56791172884563" lon="8.655046949358399"><ele>312.8</ele><time>2026-04-09T09:49:15Z</time></trkpt><trkpt lat="44.56780438627656" lon="8.655010881491874"><ele>312.6</ele><time>2026-04-09T09:49:16Z</time></trkpt><trkpt lat="44.56771549752939" lon="8.654943291757297"><ele>312.4</ele><time>2026-04-09T09:49:17Z</time></trkpt><trkpt lat="44.56764168346574" lon="8.654832101239434"><ele>312.2</ele><time>2026-04-09T09:49:18Z</time></trkpt><trkpt lat="44.567602229274094" lon="8.654697692422614"><ele>312.0</ele><time>2026-04-09T09:49:19Z</time></trkpt><trkpt lat="44.56759487546078" lon="8.654541478883237"><ele>312.75</ele><time>2026-04-09T09:49:20Z</time></trkpt><trkpt lat="44.56760483159066" lon="8.654379048801726"><ele>313.5</ele><time>2026-04-09T09:49:21Z</time></trkpt><trkpt lat="44.56759480144141" lon="8.654211775044864"><ele>314.25</ele><time>2026-04-09T09:49:22Z</time></trkpt><trkpt lat="44.5675503380198" lon="8.6540535381791"><ele>315.0</ele><time>2026-04-09T09:49:23Z</time></trkpt><trkpt lat="44.56747275422063" lon="8.65391045722739"><ele>315.0</ele><time>2026-04-09T09:49:24Z</time></trkpt><trkpt lat="44.56740187620128" lon="8.653762983051415"><ele>315.0</ele><time>2026-04-09T09:49:25Z</time></trkpt><trkpt lat="44.5673624092122" lon="8.653601476445289"><ele>315.0</ele><time>2026-04-09T09:49:26Z</time></trkpt><trkpt lat="44.56733725137602" lon="8.65343714910945"><ele>315.0</ele><time>2026-04-09T09:49:27Z</time></trkpt><trkpt lat="44.56721518928046" lon="8.653296350740149"><ele>313.0</ele><time>2026-04-09T09:49:28Z</time></trkpt><trkpt lat="44.567093866261295" lon="8.653179906289033"><ele>311.0</ele><time>2026-04-09T09:49:29Z</time></trkpt><trkpt lat="44.56697240049713" lon="8.653068622112354"><ele>309.0</ele><time>2026-04-09T09:49:30Z</time></trkpt><trkpt lat="44.566857019255195" lon="8.652966895941615"><ele>307.0</ele><time>2026-04-09T09:49:31Z</time></trkpt><trkpt lat="44.56674671501608" lon="8.652883892895401"><ele>311.75</ele><time>2026-04-09T09:49:32Z</time></trkpt><trkpt lat="44.56666107928008" lon="8.652775224105545"><ele>316.5</ele><time>2026-04-09T09:49:33Z</time></trkpt><trkpt lat="44.56659201488119" lon="8.652644603450302"><ele>321.25</ele><time>2026-04-09T09:49:34Z</time></trkpt><trkpt lat="44.56652101480569" lon="8.652510705494574"><ele>326.0</ele><time>2026-04-09T09:49:35Z</time></trkpt><trkpt lat="44.566433215073026" lon="8.652379665220451"><ele>326.0</ele><time>2026-04-09T09:49:36Z</time></trkpt><trkpt lat="44.566306898354426" lon="8.652301525914172"><ele>326.0</ele><time>2026-04-09T09:49:37Z</time></trkpt><trkpt lat="44.566182681795375" lon="8.652270179418933"><ele>326.0</ele><time>2026-04-09T09:49:38Z</time></trkpt><trkpt lat="44.5660733606384" lon="8.652213079623172"><ele>326.0</ele><time>2026-04-09T09:49:39Z</time></trkpt><trkpt lat="44.565969949022765" lon="8.652161294156963"><ele>327.6</ele><time>2026-04-09T09:49:40Z</time></trkpt><trkpt lat="44.56588771353968" lon="8.652115895300296"><ele>329.20000000000005</ele><time>2026-04-09T09:49:41Z</time></trkpt><trkpt lat="44.56582243351229" lon="8.652089574419257"><ele>330.79999999999995</ele><time>2026-04-09T09:49:42Z</time></trkpt><trkpt lat="44.565706314977206" lon="8.652017277988582"><ele>332.4</ele><time>2026-04-09T09:49:44Z</time></trkpt><trkpt lat="44.56562519201895" lon="8.651977894492642"><ele>334.0</ele><time>2026-04-09T09:49:45Z</time></trkpt><trkpt lat="44.56553026775485" lon="8.65193221570679"><ele>334.0</ele><time>2026-04-09T09:49:46Z</time></trkpt><trkpt lat="44.56542625450709" lon="8.651883267570552"><ele>334.0</ele><time>2026-04-09T09:49:47Z</time></trkpt><trkpt lat="44.56530890490061" lon="8.651846617047246"><ele>334.0</ele><time>2026-04-09T09:49:48Z</time></trkpt><trkpt lat="44.56518608293814" lon="8.651786008353987"><ele>334.0</ele><time>2026-04-09T09:49:49Z</time></trkpt><trkpt lat="44.565059282754106" lon="8.651715067165998"><ele>331.25</ele><time>2026-04-09T09:49:50Z</time></trkpt><trkpt lat="44.56493705010423" lon="8.65164377446606"><ele>328.5</ele><time>2026-04-09T09:49:51Z</time></trkpt><trkpt lat="44.564809506538474" lon="8.65155094398117"><ele>325.75</ele><time>2026-04-09T09:49:52Z</time></trkpt><trkpt lat="44.564676315958586" lon="8.6514536375026"><ele>323.0</ele><time>2026-04-09T09:49:53Z</time></trkpt><trkpt lat="44.56453819742366" lon="8.651350807628289"><ele>322.25</ele><time>2026-04-09T09:49:54Z</time></trkpt><trkpt lat="44.56440177150018" lon="8.651245544996767"><ele>321.5</ele><time>2026-04-09T09:49:55Z</time></trkpt><trkpt lat="44.564280666017254" lon="8.651131367289285"><ele>320.75</ele><time>2026-04-09T09:49:56Z</time></trkpt><trkpt lat="44.564178798352835" lon="8.65101116913716"><ele>320.0</ele><time>2026-04-09T09:49:57Z</time></trkpt><trkpt lat="44.564091821543116" lon="8.650889983575771"><ele>321.75</ele><time>2026-04-09T09:49:58Z</time></trkpt><trkpt lat="44.56399952511105" lon="8.650787947894008"><ele>323.5</ele><time>2026-04-09T09:49:59Z</time></trkpt><trkpt lat="44.56389208264824" lon="8.650724791276264"><ele>325.25</ele><time>2026-04-09T09:50:00Z</time></trkpt><trkpt lat="44.56377053074027" lon="8.650695014234122"><ele>327.0</ele><time>2026-04-09T09:50:01Z</time></trkpt><trkpt lat="44.563644653721504" lon="8.65068796725253"><ele>327.0</ele><time>2026-04-09T09:50:02Z</time></trkpt><trkpt lat="44.563522272290435" lon="8.650670089275737"><ele>327.0</ele><time>2026-04-09T09:50:03Z</time></trkpt><trkpt lat="44.56339273723888" lon="8.6506539431307"><ele>327.0</ele><time>2026-04-09T09:50:04Z</time></trkpt><trkpt lat="44.56325936960724" lon="8.65064033803955"><ele>327.0</ele><time>2026-04-09T09:50:05Z</time></trkpt><trkpt lat="44.56311989840061" lon="8.650650776669698"><ele>327.0</ele><time>2026-04-09T09:50:06Z</time></trkpt><trkpt lat="44.56297693924492" lon="8.650668048118137"><ele>327.0</ele><time>2026-04-09T09:50:07Z</time></trkpt><trkpt lat="44.56282537074599" lon="8.65069461100389"><ele>327.0</ele><time>2026-04-09T09:50:08Z</time></trkpt><trkpt lat="44.56268109734134" lon="8.650711611952454"><ele>327.0</ele><time>2026-04-09T09:50:09Z</time></trkpt><trkpt lat="44.56254811940927" lon="8.65073209992911"><ele>327.6</ele><time>2026-04-09T09:50:10Z</time></trkpt><trkpt lat="44.562431283767104" lon="8.650749506822525"><ele>328.20000000000005</ele><time>2026-04-09T09:50:11Z</time></trkpt><trkpt lat="44.56233047311904" lon="8.650759218728682"><ele>328.8</ele><time>2026-04-09T09:50:12Z</time></trkpt><trkpt lat="44.56223982387636" lon="8.650735754271908"><ele>329.4</ele><time>2026-04-09T09:50:13Z</time></trkpt><trkpt lat="44.56214939907949" lon="8.650678198882183"><ele>330.0</ele><time>2026-04-09T09:50:14Z</time></trkpt><trkpt lat="44.56207112885434" lon="8.650583947447084"><ele>330.0</ele><time>2026-04-09T09:50:15Z</time></trkpt><trkpt lat="44.561998324949656" lon="8.650464922643677"><ele>330.0</ele><time>2026-04-09T09:50:16Z</time></trkpt><trkpt lat="44.56192058229035" lon="8.65033668633434"><ele>330.0</ele><time>2026-04-09T09:50:17Z</time></trkpt><trkpt lat="44.5618354137688" lon="8.650203201819894"><ele>330.0</ele><time>2026-04-09T09:50:18Z</time></trkpt><trkpt lat="44.56174429580412" lon="8.650061612534547"><ele>331.5</ele><time>2026-04-09T09:50:19Z</time></trkpt><trkpt lat="44.56164731680911" lon="8.649910001409205"><ele>333.0</ele><time>2026-04-09T09:50:20Z</time></trkpt><trkpt lat="44.561549563180364" lon="8.649753043210753"><ele>334.5</ele><time>2026-04-09T09:50:21Z</time></trkpt><trkpt lat="44.56145340584043" lon="8.64958870564479"><ele>336.0</ele><time>2026-04-09T09:50:22Z</time></trkpt><trkpt lat="44.56136657662678" lon="8.649437243005535"><ele>334.0</ele><time>2026-04-09T09:50:23Z</time></trkpt><trkpt lat="44.56128444040889" lon="8.649276895790605"><ele>332.0</ele><time>2026-04-09T09:50:24Z</time></trkpt><trkpt lat="44.56117118531566" lon="8.649080950680725"><ele>330.0</ele><time>2026-04-09T09:50:25Z</time></trkpt><trkpt lat="44.56109075344202" lon="8.648879339519581"><ele>330.0</ele><time>2026-04-09T09:50:26Z</time></trkpt><trkpt lat="44.561015323332846" lon="8.648689097484416"><ele>330.0</ele><time>2026-04-09T09:50:27Z</time></trkpt><trkpt lat="44.560942029832816" lon="8.64850561301275"><ele>330.0</ele><time>2026-04-09T09:50:28Z</time></trkpt><trkpt lat="44.56088259094861" lon="8.64833778736061"><ele>330.0</ele><time>2026-04-09T09:50:29Z</time></trkpt><trkpt lat="44.56082056883076" lon="8.648194447188226"><ele>333.5</ele><time>2026-04-09T09:50:30Z</time></trkpt><trkpt lat="44.56072307223813" lon="8.64806649911482"><ele>337.0</ele><time>2026-04-09T09:50:31Z</time></trkpt><trkpt lat="44.56060368040438" lon="8.64795273871216"><ele>340.5</ele><time>2026-04-09T09:50:32Z</time></trkpt><trkpt lat="44.560482259327344" lon="8.647838678396472"><ele>344.0</ele><time>2026-04-09T09:50:33Z</time></trkpt><trkpt lat="44.56036558258759" lon="8.647724205116134"><ele>344.0</ele><time>2026-04-09T09:50:34Z</time></trkpt><trkpt lat="44.56026281656886" lon="8.647621593340366"><ele>344.0</ele><time>2026-04-09T09:50:35Z</time></trkpt><trkpt lat="44.560169552247146" lon="8.647527279500254"><ele>344.0</ele><time>2026-04-09T09:50:36Z</time></trkpt><trkpt lat="44.56007645740723" lon="8.647472692567161"><ele>344.0</ele><time>2026-04-09T09:50:37Z</time></trkpt><trkpt lat="44.55996863983781" lon="8.647451230339296"><ele>344.0</ele><time>2026-04-09T09:50:38Z</time></trkpt><trkpt lat="44.559853061539485" lon="8.647469932149644"><ele>344.0</ele><time>2026-04-09T09:50:39Z</time></trkpt><trkpt lat="44.559749846962184" lon="8.647469314175101"><ele>344.0</ele><time>2026-04-09T09:50:40Z</time></trkpt><trkpt lat="44.55966933709797" lon="8.647398734792102"><ele>344.0</ele><time>2026-04-09T09:50:41Z</time></trkpt><trkpt lat="44.55961892782411" lon="8.647286654053639"><ele>344.0</ele><time>2026-04-09T09:50:42Z</time></trkpt><trkpt lat="44.55959057635346" lon="8.647140845897761"><ele>344.0</ele><time>2026-04-09T09:50:43Z</time></trkpt><trkpt lat="44.5595804979481" lon="8.646965535723488"><ele>344.0</ele><time>2026-04-09T09:50:44Z</time></trkpt><trkpt lat="44.55957925196429" lon="8.646761343820636"><ele>344.0</ele><time>2026-04-09T09:50:45Z</time></trkpt><trkpt lat="44.559577244935525" lon="8.646543068640662"><ele>344.0</ele><time>2026-04-09T09:50:46Z</time></trkpt><trkpt lat="44.559555496984004" lon="8.646323453187652"><ele>345.5</ele><time>2026-04-09T09:50:47Z</time></trkpt><trkpt lat="44.559510347276166" lon="8.646120374141846"><ele>347.0</ele><time>2026-04-09T09:50:48Z</time></trkpt><trkpt lat="44.55945062320706" lon="8.645937606344841"><ele>348.5</ele><time>2026-04-09T09:50:49Z</time></trkpt><trkpt lat="44.55938135826234" lon="8.645767815264186"><ele>350.0</ele><time>2026-04-09T09:50:50Z</time></trkpt><trkpt lat="44.559309152611945" lon="8.64560673482631"><ele>350.0</ele><time>2026-04-09T09:50:51Z</time></trkpt><trkpt lat="44.55924095700726" lon="8.645451879187751"><ele>350.0</ele><time>2026-04-09T09:50:52Z</time></trkpt><trkpt lat="44.55919233638517" lon="8.645321822098454"><ele>350.0</ele><time>2026-04-09T09:50:53Z</time></trkpt><trkpt lat="44.5591546152487" lon="8.645192087850829"><ele>350.0</ele><time>2026-04-09T09:50:54Z</time></trkpt><trkpt lat="44.55915500078869" lon="8.64504463431309"><ele>350.0</ele><time>2026-04-09T09:50:55Z</time></trkpt><trkpt lat="44.5592063283661" lon="8.644916968784369"><ele>351.75</ele><time>2026-04-09T09:50:56Z</time></trkpt><trkpt lat="44.559290433841646" lon="8.64483889146783"><ele>353.5</ele><time>2026-04-09T09:50:57Z</time></trkpt><trkpt lat="44.55939991620072" lon="8.644816081181542"><ele>355.25</ele><time>2026-04-09T09:50:58Z</time></trkpt><trkpt lat="44.55955686862079" lon="8.644910109066629"><ele>357.0</ele><time>2026-04-09T09:50:59Z</time></trkpt><trkpt lat="44.55966153789173" lon="8.644993951420588"><ele>360.75</ele><time>2026-04-09T09:51:00Z</time></trkpt><trkpt lat="44.55977635358264" lon="8.645059750265478"><ele>364.5</ele><time>2026-04-09T09:51:01Z</time></trkpt><trkpt lat="44.55988486302065" lon="8.64507234798259"><ele>368.25</ele><time>2026-04-09T09:51:02Z</time></trkpt><trkpt lat="44.55999782464607" lon="8.645021333341024"><ele>372.0</ele><time>2026-04-09T09:51:03Z</time></trkpt><trkpt lat="44.56010394538709" lon="8.64490880134625"><ele>372.0</ele><time>2026-04-09T09:51:04Z</time></trkpt><trkpt lat="44.560204922825406" lon="8.644779397486486"><ele>372.0</ele><time>2026-04-09T09:51:05Z</time></trkpt><trkpt lat="44.56031242443149" lon="8.6446702669882"><ele>372.0</ele><time>2026-04-09T09:51:06Z</time></trkpt><trkpt lat="44.56041947762851" lon="8.64457113584527"><ele>372.0</ele><time>2026-04-09T09:51:07Z</time></trkpt><trkpt lat="44.56051036381818" lon="8.6444888101983"><ele>376.0</ele><time>2026-04-09T09:51:08Z</time></trkpt><trkpt lat="44.56058220271979" lon="8.644395445702488"><ele>380.0</ele><time>2026-04-09T09:51:09Z</time></trkpt><trkpt lat="44.56061509024622" lon="8.644286200931132"><ele>384.0</ele><time>2026-04-09T09:51:10Z</time></trkpt><trkpt lat="44.56060660168591" lon="8.64413885383116"><ele>388.0</ele><time>2026-04-09T09:51:11Z</time></trkpt><trkpt lat="44.560556884826646" lon="8.643994604612741"><ele>392.0</ele><time>2026-04-09T09:51:12Z</time></trkpt><trkpt lat="44.56048242784417" lon="8.643858666530248"><ele>392.0</ele><time>2026-04-09T09:51:13Z</time></trkpt><trkpt lat="44.56040291778419" lon="8.643736224323796"><ele>392.0</ele><time>2026-04-09T09:51:14Z</time></trkpt><trkpt lat="44.560336945377415" lon="8.643611683507064"><ele>392.0</ele><time>2026-04-09T09:51:15Z</time></trkpt><trkpt lat="44.56025811193667" lon="8.643515994531844"><ele>392.0</ele><time>2026-04-09T09:51:16Z</time></trkpt><trkpt lat="44.56014480117727" lon="8.6434617529259"><ele>387.75</ele><time>2026-04-09T09:51:17Z</time></trkpt><trkpt lat="44.56001247831155" lon="8.643427513237167"><ele>383.5</ele><time>2026-04-09T09:51:18Z</time></trkpt><trkpt lat="44.55987949516742" lon="8.64337926276934"><ele>379.25</ele><time>2026-04-09T09:51:19Z</time></trkpt><trkpt lat="44.55973863522506" lon="8.64331872403709"><ele>375.0</ele><time>2026-04-09T09:51:20Z</time></trkpt><trkpt lat="44.55959905898584" lon="8.64325906984065"><ele>376.2</ele><time>2026-04-09T09:51:21Z</time></trkpt><trkpt lat="44.559474736173456" lon="8.643218184560206"><ele>377.4</ele><time>2026-04-09T09:51:22Z</time></trkpt><trkpt lat="44.55936599097897" lon="8.643185929595807"><ele>378.6</ele><time>2026-04-09T09:51:23Z</time></trkpt><trkpt lat="44.55927031850544" lon="8.643199696277643"><ele>379.8</ele><time>2026-04-09T09:51:24Z</time></trkpt><trkpt lat="44.55918720062395" lon="8.643264287592666"><ele>381.0</ele><time>2026-04-09T09:51:25Z</time></trkpt><trkpt lat="44.55912449838147" lon="8.643385199873805"><ele>381.0</ele><time>2026-04-09T09:51:26Z</time></trkpt><trkpt lat="44.55908064221155" lon="8.643518034407444"><ele>381.0</ele><time>2026-04-09T09:51:27Z</time></trkpt><trkpt lat="44.55902179653596" lon="8.64361446729289"><ele>381.0</ele><time>2026-04-09T09:51:28Z</time></trkpt><trkpt lat="44.55893928116056" lon="8.643655240575594"><ele>381.0</ele><time>2026-04-09T09:51:29Z</time></trkpt><trkpt lat="44.55884227963736" lon="8.643633765209842"><ele>381.0</ele><time>2026-04-09T09:51:30Z</time></trkpt><trkpt lat="44.55873999210049" lon="8.643566775519153"><ele>384.25</ele><time>2026-04-09T09:51:31Z</time></trkpt><trkpt lat="44.558626656593276" lon="8.643481371189845"><ele>387.5</ele><time>2026-04-09T09:51:32Z</time></trkpt><trkpt lat="44.55850584796573" lon="8.643412425603195"><ele>390.75</ele><time>2026-04-09T09:51:33Z</time></trkpt><trkpt lat="44.55839449631028" lon="8.643363217663582"><ele>394.0</ele><time>2026-04-09T09:51:34Z</time></trkpt><trkpt lat="44.55828470443819" lon="8.643350336114727"><ele>394.0</ele><time>2026-04-09T09:51:35Z</time></trkpt><trkpt lat="44.55817752005879" lon="8.643418203739786"><ele>394.0</ele><time>2026-04-09T09:51:36Z</time></trkpt><trkpt lat="44.55808395582736" lon="8.643542040367706"><ele>394.0</ele><time>2026-04-09T09:51:37Z</time></trkpt><trkpt lat="44.55798604410718" lon="8.643674877150419"><ele>394.0</ele><time>2026-04-09T09:51:38Z</time></trkpt><trkpt lat="44.5578785656273" lon="8.643791121135898"><ele>390.0</ele><time>2026-04-09T09:51:39Z</time></trkpt><trkpt lat="44.55777451847492" lon="8.643895841220866"><ele>386.0</ele><time>2026-04-09T09:51:40Z</time></trkpt><trkpt lat="44.55768446183577" lon="8.643998075235327"><ele>382.0</ele><time>2026-04-09T09:51:41Z</time></trkpt><trkpt lat="44.557597553949144" lon="8.644068376527231"><ele>378.0</ele><time>2026-04-09T09:51:42Z</time></trkpt><trkpt lat="44.557506397428604" lon="8.644076202500667"><ele>374.0</ele><time>2026-04-09T09:51:43Z</time></trkpt><trkpt lat="44.55742000107685" lon="8.644018313716685"><ele>374.0</ele><time>2026-04-09T09:51:44Z</time></trkpt><trkpt lat="44.55734057430426" lon="8.643918094967603"><ele>374.0</ele><time>2026-04-09T09:51:45Z</time></trkpt><trkpt lat="44.55726906535375" lon="8.643790163228253"><ele>374.0</ele><time>2026-04-09T09:51:46Z</time></trkpt><trkpt lat="44.55719664399487" lon="8.643669477208958"><ele>374.0</ele><time>2026-04-09T09:51:47Z</time></trkpt><trkpt lat="44.55713766933992" lon="8.643540068610617"><ele>374.0</ele><time>2026-04-09T09:51:48Z</time></trkpt><trkpt lat="44.55712285141942" lon="8.643386415592605"><ele>379.5</ele><time>2026-04-09T09:51:49Z</time></trkpt><trkpt lat="44.557146777193104" lon="8.643218821251896"><ele>385.0</ele><time>2026-04-09T09:51:50Z</time></trkpt><trkpt lat="44.55719194893384" lon="8.643052782363949"><ele>390.5</ele><time>2026-04-09T09:51:51Z</time></trkpt><trkpt lat="44.55727080409112" lon="8.642891032374209"><ele>396.0</ele><time>2026-04-09T09:51:52Z</time></trkpt><trkpt lat="44.55734427131125" lon="8.642738318566277"><ele>398.0</ele><time>2026-04-09T09:51:53Z</time></trkpt><trkpt lat="44.55740943587211" lon="8.642586327061808"><ele>400.0</ele><time>2026-04-09T09:51:54Z</time></trkpt><trkpt lat="44.557443944421294" lon="8.642443793776184"><ele>402.0</ele><time>2026-04-09T09:51:55Z</time></trkpt><trkpt lat="44.55743477799936" lon="8.642278486549909"><ele>404.0</ele><time>2026-04-09T09:51:56Z</time></trkpt><trkpt lat="44.55739789246356" lon="8.642112497226504"><ele>401.6</ele><time>2026-04-09T09:51:57Z</time></trkpt><trkpt lat="44.55735076790126" lon="8.641963305055317"><ele>399.2</ele><time>2026-04-09T09:51:58Z</time></trkpt><trkpt lat="44.55729246399872" lon="8.641837706579665"><ele>396.8</ele><time>2026-04-09T09:51:59Z</time></trkpt><trkpt lat="44.55720765257467" lon="8.641758893528811"><ele>394.40000000000003</ele><time>2026-04-09T09:52:00Z</time></trkpt><trkpt lat="44.55710316433527" lon="8.641711891356756"><ele>392.0</ele><time>2026-04-09T09:52:01Z</time></trkpt><trkpt lat="44.55699193568355" lon="8.641662522028163"><ele>392.0</ele><time>2026-04-09T09:52:02Z</time></trkpt><trkpt lat="44.5569190561709" lon="8.641564200625186"><ele>392.0</ele><time>2026-04-09T09:52:03Z</time></trkpt><trkpt lat="44.556855486323144" lon="8.641450895929234"><ele>392.0</ele><time>2026-04-09T09:52:04Z</time></trkpt><trkpt lat="44.556829064286276" lon="8.641283778966045"><ele>392.0</ele><time>2026-04-09T09:52:05Z</time></trkpt><trkpt lat="44.556832825616766" lon="8.641125712565346"><ele>392.0</ele><time>2026-04-09T09:52:06Z</time></trkpt><trkpt lat="44.55686399704786" lon="8.640979704509528"><ele>395.5</ele><time>2026-04-09T09:52:06.999Z</time></trkpt><trkpt lat="44.55689772766526" lon="8.6408152079427"><ele>399.0</ele><time>2026-04-09T09:52:07.999Z</time></trkpt><trkpt lat="44.55692312575774" lon="8.64064162966376"><ele>402.5</ele><time>2026-04-09T09:52:08.999Z</time></trkpt><trkpt lat="44.5569334941867" lon="8.640490478063592"><ele>406.0</ele><time>2026-04-09T09:52:09.999Z</time></trkpt><trkpt lat="44.556931688726436" lon="8.640354787373058"><ele>408.75</ele><time>2026-04-09T09:52:10.999Z</time></trkpt><trkpt lat="44.556887006438465" lon="8.64022517236732"><ele>411.5</ele><time>2026-04-09T09:52:12Z</time></trkpt><trkpt lat="44.556803771965406" lon="8.640123853447424"><ele>414.25</ele><time>2026-04-09T09:52:13Z</time></trkpt><trkpt lat="44.55668955940412" lon="8.640068655560897"><ele>417.0</ele><time>2026-04-09T09:52:14Z</time></trkpt><trkpt lat="44.5565520184648" lon="8.64006120956229"><ele>417.0</ele><time>2026-04-09T09:52:15Z</time></trkpt><trkpt lat="44.556416452652314" lon="8.64009330816405"><ele>417.0</ele><time>2026-04-09T09:52:16Z</time></trkpt><trkpt lat="44.55628394315" lon="8.640126389740612"><ele>417.0</ele><time>2026-04-09T09:52:17Z</time></trkpt><trkpt lat="44.55616059687434" lon="8.640142451449224"><ele>417.0</ele><time>2026-04-09T09:52:18Z</time></trkpt><trkpt lat="44.55604530784084" lon="8.640141734275463"><ele>416.8</ele><time>2026-04-09T09:52:19Z</time></trkpt><trkpt lat="44.555951754918404" lon="8.640099193423913"><ele>416.6</ele><time>2026-04-09T09:52:20Z</time></trkpt><trkpt lat="44.55586260295692" lon="8.640045231785683"><ele>416.40000000000003</ele><time>2026-04-09T09:52:21Z</time></trkpt><trkpt lat="44.5558053484239" lon="8.639919308633427"><ele>416.20000000000005</ele><time>2026-04-09T09:52:22Z</time></trkpt><trkpt lat="44.55575380068778" lon="8.639790055568342"><ele>416.0</ele><time>2026-04-09T09:52:23Z</time></trkpt><trkpt lat="44.55569003464975" lon="8.639659104376307"><ele>416.0</ele><time>2026-04-09T09:52:24Z</time></trkpt><trkpt lat="44.55563828990055" lon="8.639489965441609"><ele>416.0</ele><time>2026-04-09T09:52:25Z</time></trkpt><trkpt lat="44.555565044202694" lon="8.639339350297893"><ele>416.0</ele><time>2026-04-09T09:52:26Z</time></trkpt><trkpt lat="44.555497458531256" lon="8.639180560494237"><ele>416.0</ele><time>2026-04-09T09:52:27Z</time></trkpt><trkpt lat="44.5554671767923" lon="8.639046424253626"><ele>418.5</ele><time>2026-04-09T09:52:28Z</time></trkpt><trkpt lat="44.55548016405281" lon="8.638903056822093"><ele>421.0</ele><time>2026-04-09T09:52:29Z</time></trkpt><trkpt lat="44.55553398231615" lon="8.638750028571435"><ele>423.5</ele><time>2026-04-09T09:52:30Z</time></trkpt><trkpt lat="44.555599700098014" lon="8.63859743563951"><ele>426.0</ele><time>2026-04-09T09:52:31Z</time></trkpt><trkpt lat="44.55567136823175" lon="8.638434828680195"><ele>427.25</ele><time>2026-04-09T09:52:32Z</time></trkpt><trkpt lat="44.555747513637044" lon="8.638255494059255"><ele>428.5</ele><time>2026-04-09T09:52:33Z</time></trkpt><trkpt lat="44.55581627746463" lon="8.638057063505194"><ele>429.75</ele><time>2026-04-09T09:52:34Z</time></trkpt><trkpt lat="44.5558675829754" lon="8.637873458231724"><ele>431.0</ele><time>2026-04-09T09:52:35Z</time></trkpt><trkpt lat="44.55590912836295" lon="8.637702515352697"><ele>431.3333333333333</ele><time>2026-04-09T09:52:36Z</time></trkpt><trkpt lat="44.555946834315876" lon="8.63756126471755"><ele>431.66666666666663</ele><time>2026-04-09T09:52:37Z</time></trkpt><trkpt lat="44.55596765812404" lon="8.637443767584163"><ele>432.0</ele><time>2026-04-09T09:52:38Z</time></trkpt><trkpt lat="44.55595514142304" lon="8.637353952369152"><ele>432.33333333333337</ele><time>2026-04-09T09:52:39Z</time></trkpt><trkpt lat="44.555892804194386" lon="8.637275090007716"><ele>432.6666666666667</ele><time>2026-04-09T09:52:40Z</time></trkpt><trkpt lat="44.55581068181819" lon="8.63720883392031"><ele>433.0</ele><time>2026-04-09T09:52:41Z</time></trkpt><trkpt lat="44.55571113556066" lon="8.637188548662017"><ele>433.0</ele><time>2026-04-09T09:52:42Z</time></trkpt><trkpt lat="44.55560551024315" lon="8.637231959640916"><ele>433.0</ele><time>2026-04-09T09:52:43Z</time></trkpt><trkpt lat="44.55550444897458" lon="8.63732773183752"><ele>433.0</ele><time>2026-04-09T09:52:44Z</time></trkpt><trkpt lat="44.5554102645651" lon="8.637460903431958"><ele>433.0</ele><time>2026-04-09T09:52:45Z</time></trkpt><trkpt lat="44.555321435419" lon="8.637608224146064"><ele>433.59999999999997</ele><time>2026-04-09T09:52:46Z</time></trkpt><trkpt lat="44.55524027688761" lon="8.637746955727128"><ele>434.19999999999993</ele><time>2026-04-09T09:52:47Z</time></trkpt><trkpt lat="44.55517089687234" lon="8.637868104792256"><ele>434.8</ele><time>2026-04-09T09:52:48Z</time></trkpt><trkpt lat="44.55509671944692" lon="8.637941249089874"><ele>435.4</ele><time>2026-04-09T09:52:49Z</time></trkpt><trkpt lat="44.555037519735414" lon="8.638021115818358"><ele>436.0</ele><time>2026-04-09T09:52:50Z</time></trkpt><trkpt lat="44.55493739158527" lon="8.638026676803772"><ele>436.0</ele><time>2026-04-09T09:52:51Z</time></trkpt><trkpt lat="44.55484182940299" lon="8.638001188358109"><ele>436.0</ele><time>2026-04-09T09:52:52Z</time></trkpt><trkpt lat="44.55477312616526" lon="8.637903968737609"><ele>436.0</ele><time>2026-04-09T09:52:53Z</time></trkpt><trkpt lat="44.5547302332813" lon="8.637779012853274"><ele>436.0</ele><time>2026-04-09T09:52:54Z</time></trkpt><trkpt lat="44.554663547866035" lon="8.637639456244443"><ele>436.0</ele><time>2026-04-09T09:52:55Z</time></trkpt><trkpt lat="44.55457824052801" lon="8.637495461527676"><ele>436.4</ele><time>2026-04-09T09:52:56Z</time></trkpt><trkpt lat="44.554511110998135" lon="8.637325819641825"><ele>436.8</ele><time>2026-04-09T09:52:57Z</time></trkpt><trkpt lat="44.554451110027635" lon="8.637183938073354"><ele>437.19999999999993</ele><time>2026-04-09T09:52:58Z</time></trkpt><trkpt lat="44.55439622635731" lon="8.637068379324301"><ele>437.59999999999997</ele><time>2026-04-09T09:52:59Z</time></trkpt><trkpt lat="44.55435499003973" lon="8.636990033782396"><ele>438.0</ele><time>2026-04-09T09:53:00Z</time></trkpt><trkpt lat="44.554296826186096" lon="8.63693729605504"><ele>438.0</ele><time>2026-04-09T09:53:01Z</time></trkpt><trkpt lat="44.55422534829429" lon="8.636902391655598"><ele>437.99999999999994</ele><time>2026-04-09T09:53:02Z</time></trkpt><trkpt lat="44.55411759307125" lon="8.637002174643433"><ele>437.99999999999994</ele><time>2026-04-09T09:53:03Z</time></trkpt><trkpt lat="44.55402478762972" lon="8.637087632096222"><ele>438.0</ele><time>2026-04-09T09:53:04Z</time></trkpt><trkpt lat="44.55394917837902" lon="8.637150928461335"><ele>438.0</ele><time>2026-04-09T09:53:05Z</time></trkpt><trkpt lat="44.553887931926496" lon="8.637229234138857"><ele>438.0</ele><time>2026-04-09T09:53:06Z</time></trkpt><trkpt lat="44.5538711436854" lon="8.637352045489626"><ele>437.99999999999994</ele><time>2026-04-09T09:53:07Z</time></trkpt><trkpt lat="44.55388958221453" lon="8.637493048155568"><ele>437.99999999999994</ele><time>2026-04-09T09:53:08Z</time></trkpt><trkpt lat="44.55393814456808" lon="8.637659415856435"><ele>438.0</ele><time>2026-04-09T09:53:09Z</time></trkpt><trkpt lat="44.55396618805748" lon="8.637811615478602"><ele>438.0</ele><time>2026-04-09T09:53:10Z</time></trkpt><trkpt lat="44.553992965416235" lon="8.637981505218834"><ele>437.79999999999995</ele><time>2026-04-09T09:53:11Z</time></trkpt><trkpt lat="44.554013365601655" lon="8.638143613526513"><ele>437.59999999999997</ele><time>2026-04-09T09:53:12Z</time></trkpt><trkpt lat="44.55401634086783" lon="8.6382965203899"><ele>437.40000000000003</ele><time>2026-04-09T09:53:13Z</time></trkpt><trkpt lat="44.5539867888357" lon="8.638436020267479"><ele>437.20000000000005</ele><time>2026-04-09T09:53:14Z</time></trkpt><trkpt lat="44.55393435287768" lon="8.63857051687856"><ele>437.0</ele><time>2026-04-09T09:53:15Z</time></trkpt><trkpt lat="44.55386546089412" lon="8.638693851121465"><ele>435.75</ele><time>2026-04-09T09:53:16Z</time></trkpt><trkpt lat="44.55381194677388" lon="8.638845139065639"><ele>434.5</ele><time>2026-04-09T09:53:17Z</time></trkpt><trkpt lat="44.553798836995576" lon="8.639010632734564"><ele>433.25</ele><time>2026-04-09T09:53:18Z</time></trkpt><trkpt lat="44.55380292268958" lon="8.639175280799353"><ele>432.0</ele><time>2026-04-09T09:53:19Z</time></trkpt><trkpt lat="44.55381420435572" lon="8.639326733770568"><ele>432.0</ele><time>2026-04-09T09:53:20Z</time></trkpt><trkpt lat="44.55380685602301" lon="8.639453949953475"><ele>432.00000000000006</ele><time>2026-04-09T09:53:21Z</time></trkpt><trkpt lat="44.553774572977595" lon="8.639585429861075"><ele>432.00000000000006</ele><time>2026-04-09T09:53:22Z</time></trkpt><trkpt lat="44.553711214664844" lon="8.639693556584131"><ele>432.0</ele><time>2026-04-09T09:53:23Z</time></trkpt><trkpt lat="44.553622694815864" lon="8.63976305999597"><ele>432.0</ele><time>2026-04-09T09:53:24Z</time></trkpt><trkpt lat="44.55352540781766" lon="8.639767424464944"><ele>431.6</ele><time>2026-04-09T09:53:25Z</time></trkpt><trkpt lat="44.553436005208475" lon="8.639685348462688"><ele>431.20000000000005</ele><time>2026-04-09T09:53:26Z</time></trkpt><trkpt lat="44.55334436004028" lon="8.63961494613165"><ele>430.8</ele><time>2026-04-09T09:53:27Z</time></trkpt><trkpt lat="44.553253499135685" lon="8.639515152948718"><ele>430.4</ele><time>2026-04-09T09:53:28Z</time></trkpt><trkpt lat="44.55317915453659" lon="8.639378785653538"><ele>430.0</ele><time>2026-04-09T09:53:29Z</time></trkpt><trkpt lat="44.55311617402674" lon="8.639233888371685"><ele>434.25</ele><time>2026-04-09T09:53:30Z</time></trkpt><trkpt lat="44.553081212460086" lon="8.63906643520749"><ele>438.5</ele><time>2026-04-09T09:53:31Z</time></trkpt><trkpt lat="44.55304377041113" lon="8.638886566546233"><ele>442.75</ele><time>2026-04-09T09:53:32Z</time></trkpt><trkpt lat="44.55300506353751" lon="8.63870514294282"><ele>447.0</ele><time>2026-04-09T09:53:33Z</time></trkpt><trkpt lat="44.55296353354722" lon="8.638531454205477"><ele>444.0</ele><time>2026-04-09T09:53:34Z</time></trkpt><trkpt lat="44.5529122884401" lon="8.638365604498842"><ele>441.0</ele><time>2026-04-09T09:53:35Z</time></trkpt><trkpt lat="44.55284603766936" lon="8.638217843356061"><ele>438.0</ele><time>2026-04-09T09:53:36Z</time></trkpt><trkpt lat="44.55277931567882" lon="8.63808358060088"><ele>435.0</ele><time>2026-04-09T09:53:37Z</time></trkpt><trkpt lat="44.552712046781906" lon="8.637949509903782"><ele>435.0</ele><time>2026-04-09T09:53:38Z</time></trkpt><trkpt lat="44.55264679686584" lon="8.637825652222949"><ele>435.0</ele><time>2026-04-09T09:53:39Z</time></trkpt><trkpt lat="44.55256056844009" lon="8.637716045292997"><ele>435.0</ele><time>2026-04-09T09:53:40Z</time></trkpt><trkpt lat="44.55245769443017" lon="8.637648577342567"><ele>435.0</ele><time>2026-04-09T09:53:41Z</time></trkpt><trkpt lat="44.552355848630505" lon="8.637580243378448"><ele>436.4</ele><time>2026-04-09T09:53:42Z</time></trkpt><trkpt lat="44.55225520889773" lon="8.637509828388657"><ele>437.8</ele><time>2026-04-09T09:53:43Z</time></trkpt><trkpt lat="44.55216507176296" lon="8.63743564617739"><ele>439.20000000000005</ele><time>2026-04-09T09:53:44Z</time></trkpt><trkpt lat="44.55208940076152" lon="8.637357351941276"><ele>440.6</ele><time>2026-04-09T09:53:45Z</time></trkpt><trkpt lat="44.55203261384211" lon="8.637276087461437"><ele>442.0</ele><time>2026-04-09T09:53:46Z</time></trkpt><trkpt lat="44.55203410652548" lon="8.637163772341143"><ele>446.0</ele><time>2026-04-09T09:53:47Z</time></trkpt><trkpt lat="44.55209423257412" lon="8.637069751688644"><ele>450.00000000000006</ele><time>2026-04-09T09:53:48Z</time></trkpt><trkpt lat="44.55215456261259" lon="8.6369860013292"><ele>454.00000000000006</ele><time>2026-04-09T09:53:49Z</time></trkpt><trkpt lat="44.552211861900794" lon="8.636867199670213"><ele>458.0</ele><time>2026-04-09T09:53:50Z</time></trkpt><trkpt lat="44.55223982002257" lon="8.636709409983903"><ele>462.0</ele><time>2026-04-09T09:53:51Z</time></trkpt><trkpt lat="44.55223041034665" lon="8.636531976070817"><ele>464.5</ele><time>2026-04-09T09:53:52Z</time></trkpt><trkpt lat="44.5522170094292" lon="8.63634888394161"><ele>467.0</ele><time>2026-04-09T09:53:53Z</time></trkpt><trkpt lat="44.552205024477" lon="8.63617633326079"><ele>469.5</ele><time>2026-04-09T09:53:54Z</time></trkpt><trkpt lat="44.552201246985405" lon="8.635997933866708"><ele>472.0</ele><time>2026-04-09T09:53:55Z</time></trkpt><trkpt lat="44.552222855797716" lon="8.63582154211883"><ele>472.25</ele><time>2026-04-09T09:53:56Z</time></trkpt><trkpt lat="44.552246661159906" lon="8.635659632398747"><ele>472.5</ele><time>2026-04-09T09:53:57Z</time></trkpt><trkpt lat="44.55229406281509" lon="8.635514551636295"><ele>472.75</ele><time>2026-04-09T09:53:58Z</time></trkpt><trkpt lat="44.55229074526242" lon="8.635343933488198"><ele>473.0</ele><time>2026-04-09T09:53:59Z</time></trkpt><trkpt lat="44.552273078180804" lon="8.635170504563632"><ele>473.25</ele><time>2026-04-09T09:54:00Z</time></trkpt><trkpt lat="44.552224968326506" lon="8.63501904684692"><ele>473.5</ele><time>2026-04-09T09:54:01Z</time></trkpt><trkpt lat="44.55215757723724" lon="8.634895867548648"><ele>473.75</ele><time>2026-04-09T09:54:02Z</time></trkpt><trkpt lat="44.552062126556386" lon="8.634833914176593"><ele>474.0</ele><time>2026-04-09T09:54:03Z</time></trkpt><trkpt lat="44.55194213153099" lon="8.634805011748588"><ele>474.6</ele><time>2026-04-09T09:54:04Z</time></trkpt><trkpt lat="44.55182471596926" lon="8.634774154641791"><ele>475.2</ele><time>2026-04-09T09:54:05Z</time></trkpt><trkpt lat="44.551749150977514" lon="8.634678853633"><ele>475.80000000000007</ele><time>2026-04-09T09:54:06Z</time></trkpt><trkpt lat="44.55169875330112" lon="8.634544654855803"><ele>476.40000000000003</ele><time>2026-04-09T09:54:07Z</time></trkpt><trkpt lat="44.55164941492028" lon="8.634409832311182"><ele>477.0</ele><time>2026-04-09T09:54:08Z</time></trkpt><trkpt lat="44.551568460437935" lon="8.634298535098486"><ele>477.0</ele><time>2026-04-09T09:54:09Z</time></trkpt><trkpt lat="44.55147512537959" lon="8.634179024070038"><ele>477.0</ele><time>2026-04-09T09:54:10Z</time></trkpt><trkpt lat="44.55135335551141" lon="8.63408114328579"><ele>477.0</ele><time>2026-04-09T09:54:11Z</time></trkpt><trkpt lat="44.55124747633836" lon="8.633962168687134"><ele>477.0</ele><time>2026-04-09T09:54:12Z</time></trkpt><trkpt lat="44.5511468551396" lon="8.633847380090153"><ele>478.75</ele><time>2026-04-09T09:54:13Z</time></trkpt><trkpt lat="44.55105516849401" lon="8.633722369049314"><ele>480.5</ele><time>2026-04-09T09:54:14Z</time></trkpt><trkpt lat="44.55100540136549" lon="8.633556739949382"><ele>482.25</ele><time>2026-04-09T09:54:15Z</time></trkpt><trkpt lat="44.55094565075919" lon="8.633401012411422"><ele>484.0</ele><time>2026-04-09T09:54:16Z</time></trkpt><trkpt lat="44.55090145055428" lon="8.633255765699747"><ele>484.2</ele><time>2026-04-09T09:54:17Z</time></trkpt><trkpt lat="44.550873382019084" lon="8.633125110476731"><ele>484.4</ele><time>2026-04-09T09:54:18Z</time></trkpt><trkpt lat="44.55087485555092" lon="8.632987086290408"><ele>484.6</ele><time>2026-04-09T09:54:19Z</time></trkpt><trkpt lat="44.55090971385085" lon="8.632840940385222"><ele>484.8</ele><time>2026-04-09T09:54:20Z</time></trkpt><trkpt lat="44.550943672119466" lon="8.632692413654471"><ele>485.0</ele><time>2026-04-09T09:54:21Z</time></trkpt><trkpt lat="44.55096247925286" lon="8.632528426396952"><ele>485.25</ele><time>2026-04-09T09:54:22Z</time></trkpt><trkpt lat="44.55095976727165" lon="8.63234721825995"><ele>485.5</ele><time>2026-04-09T09:54:23Z</time></trkpt><trkpt lat="44.55093872808318" lon="8.632169194301389"><ele>485.75</ele><time>2026-04-09T09:54:24Z</time></trkpt><trkpt lat="44.55091017754255" lon="8.632014217969322"><ele>486.0</ele><time>2026-04-09T09:54:25Z</time></trkpt><trkpt lat="44.55087257254118" lon="8.631874847100159"><ele>486.25</ele><time>2026-04-09T09:54:26Z</time></trkpt><trkpt lat="44.550775208440555" lon="8.631775361830028"><ele>486.5</ele><time>2026-04-09T09:54:27Z</time></trkpt><trkpt lat="44.550685047577296" lon="8.63166817923634"><ele>486.75</ele><time>2026-04-09T09:54:28Z</time></trkpt><trkpt lat="44.55059110561382" lon="8.631555898924423"><ele>487.0</ele><time>2026-04-09T09:54:29Z</time></trkpt><trkpt lat="44.550493730384076" lon="8.631438000868805"><ele>487.0</ele><time>2026-04-09T09:54:30Z</time></trkpt><trkpt lat="44.55040512049053" lon="8.631322047226128"><ele>487.0</ele><time>2026-04-09T09:54:31Z</time></trkpt><trkpt lat="44.550322373674504" lon="8.631219105607457"><ele>487.0</ele><time>2026-04-09T09:54:32Z</time></trkpt><trkpt lat="44.550223521749984" lon="8.631129054176006"><ele>487.0</ele><time>2026-04-09T09:54:33Z</time></trkpt><trkpt lat="44.550103652600086" lon="8.631072616472833"><ele>486.20000000000005</ele><time>2026-04-09T09:54:34Z</time></trkpt><trkpt lat="44.54998608196379" lon="8.631033796848735"><ele>485.40000000000003</ele><time>2026-04-09T09:54:35Z</time></trkpt><trkpt lat="44.549875820349314" lon="8.631021123602045"><ele>484.59999999999997</ele><time>2026-04-09T09:54:36Z</time></trkpt><trkpt lat="44.54977220403719" lon="8.631047333591376"><ele>483.79999999999995</ele><time>2026-04-09T09:54:37Z</time></trkpt><trkpt lat="44.54967963757996" lon="8.631126386770152"><ele>483.0</ele><time>2026-04-09T09:54:38Z</time></trkpt><trkpt lat="44.549607553095335" lon="8.631262408738557"><ele>483.0</ele><time>2026-04-09T09:54:39Z</time></trkpt><trkpt lat="44.54954993406643" lon="8.631406490627493"><ele>482.99999999999994</ele><time>2026-04-09T09:54:40Z</time></trkpt><trkpt lat="44.54947232346381" lon="8.631523718823301"><ele>482.99999999999994</ele><time>2026-04-09T09:54:41Z</time></trkpt><trkpt lat="44.54937940964108" lon="8.631591679186702"><ele>483.0</ele><time>2026-04-09T09:54:42Z</time></trkpt><trkpt lat="44.54927584511055" lon="8.631627723935308"><ele>483.0</ele><time>2026-04-09T09:54:43Z</time></trkpt><trkpt lat="44.5491679836911" lon="8.631640979644732"><ele>485.25</ele><time>2026-04-09T09:54:44Z</time></trkpt><trkpt lat="44.549048930349464" lon="8.631615095479086"><ele>487.5</ele><time>2026-04-09T09:54:45Z</time></trkpt><trkpt lat="44.548927823817166" lon="8.631576732543595"><ele>489.75</ele><time>2026-04-09T09:54:46Z</time></trkpt><trkpt lat="44.5488127632317" lon="8.631528721110985"><ele>492.0</ele><time>2026-04-09T09:54:47Z</time></trkpt><trkpt lat="44.54871315474926" lon="8.631473829705223"><ele>491.0</ele><time>2026-04-09T09:54:48Z</time></trkpt><trkpt lat="44.548646223874755" lon="8.631377200169014"><ele>490.00000000000006</ele><time>2026-04-09T09:54:49Z</time></trkpt><trkpt lat="44.54861929391327" lon="8.631249088813787"><ele>489.00000000000006</ele><time>2026-04-09T09:54:50Z</time></trkpt><trkpt lat="44.54861295388148" lon="8.631110745943532"><ele>488.0</ele><time>2026-04-09T09:54:51Z</time></trkpt><trkpt lat="44.54858524703677" lon="8.63098159241655"><ele>487.0</ele><time>2026-04-09T09:54:52Z</time></trkpt><trkpt lat="44.54851804921467" lon="8.630885666009634"><ele>490.6</ele><time>2026-04-09T09:54:53Z</time></trkpt><trkpt lat="44.54842419787121" lon="8.630849624455957"><ele>494.20000000000005</ele><time>2026-04-09T09:54:54Z</time></trkpt><trkpt lat="44.54831958400923" lon="8.630858599292687"><ele>497.8</ele><time>2026-04-09T09:54:55Z</time></trkpt><trkpt lat="44.54821454590177" lon="8.63089504655957"><ele>501.4</ele><time>2026-04-09T09:54:56Z</time></trkpt><trkpt lat="44.548110694423144" lon="8.63089866643381"><ele>505.0</ele><time>2026-04-09T09:54:57Z</time></trkpt><trkpt lat="44.54800556383587" lon="8.630935228323075"><ele>505.0</ele><time>2026-04-09T09:54:58Z</time></trkpt><trkpt lat="44.547883736087925" lon="8.630949595138748"><ele>505.0</ele><time>2026-04-09T09:54:59Z</time></trkpt><trkpt lat="44.54775789368153" lon="8.630969094552924"><ele>505.0</ele><time>2026-04-09T09:55:00Z</time></trkpt><trkpt lat="44.547647220380206" lon="8.63099390793241"><ele>505.0</ele><time>2026-04-09T09:55:01Z</time></trkpt><trkpt lat="44.547540455535476" lon="8.631007034758529"><ele>505.2</ele><time>2026-04-09T09:55:02Z</time></trkpt><trkpt lat="44.54744252289322" lon="8.630983083239862"><ele>505.4</ele><time>2026-04-09T09:55:03Z</time></trkpt><trkpt lat="44.54735970639285" lon="8.630917314394432"><ele>505.6</ele><time>2026-04-09T09:55:04Z</time></trkpt><trkpt lat="44.54730124568483" lon="8.630822500523077"><ele>505.8</ele><time>2026-04-09T09:55:05Z</time></trkpt><trkpt lat="44.547258458288994" lon="8.630696633428105"><ele>506.0</ele><time>2026-04-09T09:55:06Z</time></trkpt><trkpt lat="44.54723932643646" lon="8.630553980703649"><ele>506.0</ele><time>2026-04-09T09:55:07Z</time></trkpt><trkpt lat="44.5472210640491" lon="8.630405148193956"><ele>506.0</ele><time>2026-04-09T09:55:08Z</time></trkpt><trkpt lat="44.54717515763359" lon="8.630259242371046"><ele>506.0</ele><time>2026-04-09T09:55:09Z</time></trkpt><trkpt lat="44.547104175113255" lon="8.630125318853425"><ele>506.0</ele><time>2026-04-09T09:55:10Z</time></trkpt><trkpt lat="44.54703009294347" lon="8.630025811251837"><ele>506.0</ele><time>2026-04-09T09:55:11Z</time></trkpt><trkpt lat="44.546957640549294" lon="8.62995445615832"><ele>508.20000000000005</ele><time>2026-04-09T09:55:12Z</time></trkpt><trkpt lat="44.54687884585432" lon="8.62991395337962"><ele>510.40000000000003</ele><time>2026-04-09T09:55:13Z</time></trkpt><trkpt lat="44.546789950340475" lon="8.629923193356255"><ele>512.6</ele><time>2026-04-09T09:55:14Z</time></trkpt><trkpt lat="44.5467111629974" lon="8.629991164573019"><ele>514.8000000000001</ele><time>2026-04-09T09:55:15Z</time></trkpt><trkpt lat="44.54666063004947" lon="8.630102427821628"><ele>517.0</ele><time>2026-04-09T09:55:16Z</time></trkpt><trkpt lat="44.546625398934296" lon="8.630231056545675"><ele>518.1666666666667</ele><time>2026-04-09T09:55:17Z</time></trkpt><trkpt lat="44.546579865293445" lon="8.630339518344304"><ele>519.3333333333334</ele><time>2026-04-09T09:55:18Z</time></trkpt><trkpt lat="44.546521146334015" lon="8.630413347086622"><ele>520.5</ele><time>2026-04-09T09:55:19Z</time></trkpt><trkpt lat="44.5464435010281" lon="8.63042857662002"><ele>521.6666666666666</ele><time>2026-04-09T09:55:20Z</time></trkpt><trkpt lat="44.54635445207614" lon="8.630393556020973"><ele>522.8333333333333</ele><time>2026-04-09T09:55:21Z</time></trkpt><trkpt lat="44.546265486342435" lon="8.630320125980116"><ele>524.0</ele><time>2026-04-09T09:55:22Z</time></trkpt><trkpt lat="44.54616428426377" lon="8.630245072736107"><ele>524.0</ele><time>2026-04-09T09:55:23Z</time></trkpt><trkpt lat="44.546048155713066" lon="8.630184439150927"><ele>524.0</ele><time>2026-04-09T09:55:24Z</time></trkpt><trkpt lat="44.54594000495326" lon="8.63013704188174"><ele>524.0</ele><time>2026-04-09T09:55:25Z</time></trkpt><trkpt lat="44.545839173953" lon="8.63011697387424"><ele>524.0</ele><time>2026-04-09T09:55:26Z</time></trkpt><trkpt lat="44.5457507415224" lon="8.630131557053616"><ele>524.0</ele><time>2026-04-09T09:55:27Z</time></trkpt><trkpt lat="44.54567097412163" lon="8.630200636425307"><ele>520.0</ele><time>2026-04-09T09:55:28Z</time></trkpt><trkpt lat="44.545611669612796" lon="8.630312680560843"><ele>516.0</ele><time>2026-04-09T09:55:29Z</time></trkpt><trkpt lat="44.545575152154846" lon="8.630441991005577"><ele>512.0</ele><time>2026-04-09T09:55:30Z</time></trkpt><trkpt lat="44.545547709527234" lon="8.630587256896673"><ele>508.0</ele><time>2026-04-09T09:55:31Z</time></trkpt><trkpt lat="44.545538511291525" lon="8.630740435864242"><ele>504.0</ele><time>2026-04-09T09:55:32Z</time></trkpt><trkpt lat="44.54552130067536" lon="8.6308833835554"><ele>504.0</ele><time>2026-04-09T09:55:33Z</time></trkpt><trkpt lat="44.54549146011344" lon="8.631005782853103"><ele>504.0</ele><time>2026-04-09T09:55:34Z</time></trkpt><trkpt lat="44.54544138676566" lon="8.631098343733854"><ele>504.0</ele><time>2026-04-09T09:55:35Z</time></trkpt><trkpt lat="44.5453599891449" lon="8.631169418723436"><ele>504.0</ele><time>2026-04-09T09:55:36Z</time></trkpt><trkpt lat="44.54526324963852" lon="8.631216280637453"><ele>504.0</ele><time>2026-04-09T09:55:37Z</time></trkpt><trkpt lat="44.545164776122355" lon="8.631291149269291"><ele>508.25</ele><time>2026-04-09T09:55:38Z</time></trkpt><trkpt lat="44.545068015694774" lon="8.631398684963195"><ele>512.5</ele><time>2026-04-09T09:55:39Z</time></trkpt><trkpt lat="44.544971841235316" lon="8.631499578348443"><ele>516.75</ele><time>2026-04-09T09:55:40Z</time></trkpt><trkpt lat="44.54489085398063" lon="8.631607077589063"><ele>521.0</ele><time>2026-04-09T09:55:41Z</time></trkpt><trkpt lat="44.544836554010736" lon="8.631733161846977"><ele>521.0</ele><time>2026-04-09T09:55:42Z</time></trkpt><trkpt lat="44.544829860444516" lon="8.631882510099016"><ele>521.0</ele><time>2026-04-09T09:55:43Z</time></trkpt><trkpt lat="44.5448547823428" lon="8.632029734813779"><ele>521.0</ele><time>2026-04-09T09:55:44Z</time></trkpt><trkpt lat="44.544880453705765" lon="8.632160935860679"><ele>521.0</ele><time>2026-04-09T09:55:45Z</time></trkpt><trkpt lat="44.5448675399036" lon="8.63227353281242"><ele>521.0</ele><time>2026-04-09T09:55:46Z</time></trkpt><trkpt lat="44.54481026116474" lon="8.632374416914793"><ele>521.8</ele><time>2026-04-09T09:55:47Z</time></trkpt><trkpt lat="44.54473267596333" lon="8.63246862587433"><ele>522.6</ele><time>2026-04-09T09:55:48Z</time></trkpt><trkpt lat="44.54464712571525" lon="8.632569587741456"><ele>523.4</ele><time>2026-04-09T09:55:49Z</time></trkpt><trkpt lat="44.5445675689667" lon="8.63268370278046"><ele>524.2</ele><time>2026-04-09T09:55:50Z</time></trkpt><trkpt lat="44.544501955926414" lon="8.632819184160473"><ele>525.0</ele><time>2026-04-09T09:55:51Z</time></trkpt><trkpt lat="44.54447196709468" lon="8.632966318684561"><ele>525.0</ele><time>2026-04-09T09:55:52Z</time></trkpt><trkpt lat="44.544471613948865" lon="8.633114412993207"><ele>525.0</ele><time>2026-04-09T09:55:53Z</time></trkpt><trkpt lat="44.54448424411276" lon="8.633259330631592"><ele>525.0</ele><time>2026-04-09T09:55:54Z</time></trkpt><trkpt lat="44.544478283321865" lon="8.633383635925433"><ele>525.0</ele><time>2026-04-09T09:55:55Z</time></trkpt><trkpt lat="44.54442835791889" lon="8.633487915489049"><ele>525.0</ele><time>2026-04-09T09:55:56Z</time></trkpt><trkpt lat="44.54435652108794" lon="8.633538351717698"><ele>525.0</ele><time>2026-04-09T09:55:57Z</time></trkpt><trkpt lat="44.544281537023494" lon="8.633524874209108"><ele>525.0</ele><time>2026-04-09T09:55:58Z</time></trkpt><trkpt lat="44.54421620990065" lon="8.63346255786852"><ele>525.0</ele><time>2026-04-09T09:55:59Z</time></trkpt><trkpt lat="44.544194151455294" lon="8.633346091679822"><ele>525.0</ele><time>2026-04-09T09:56:00Z</time></trkpt><trkpt lat="44.54415653664317" lon="8.633224410452511"><ele>525.0</ele><time>2026-04-09T09:56:01Z</time></trkpt><trkpt lat="44.54409069054361" lon="8.633102804510836"><ele>525.0</ele><time>2026-04-09T09:56:02Z</time></trkpt><trkpt lat="44.544009214458306" lon="8.632991493596144"><ele>525.0</ele><time>2026-04-09T09:56:03Z</time></trkpt><trkpt lat="44.543905401329255" lon="8.63289305561712"><ele>525.0</ele><time>2026-04-09T09:56:04Z</time></trkpt><trkpt lat="44.54379523605969" lon="8.632794741690605"><ele>525.0</ele><time>2026-04-09T09:56:05Z</time></trkpt><trkpt lat="44.5437009834371" lon="8.632695629119896"><ele>525.0</ele><time>2026-04-09T09:56:06Z</time></trkpt><trkpt lat="44.54363055923621" lon="8.63258096758302"><ele>524.1666666666666</ele><time>2026-04-09T09:56:07Z</time></trkpt><trkpt lat="44.54359748890736" lon="8.63246478613374"><ele>523.3333333333334</ele><time>2026-04-09T09:56:08Z</time></trkpt><trkpt lat="44.543631134888145" lon="8.63235453722402"><ele>522.5</ele><time>2026-04-09T09:56:09Z</time></trkpt><trkpt lat="44.54368448289302" lon="8.63228011869054"><ele>521.6666666666667</ele><time>2026-04-09T09:56:10Z</time></trkpt><trkpt lat="44.543724154919026" lon="8.632165796035821"><ele>520.8333333333334</ele><time>2026-04-09T09:56:11Z</time></trkpt><trkpt lat="44.54375648145871" lon="8.632039726169756"><ele>520.0</ele><time>2026-04-09T09:56:12Z</time></trkpt><trkpt lat="44.54376336916645" lon="8.631895196668665"><ele>524.75</ele><time>2026-04-09T09:56:13Z</time></trkpt><trkpt lat="44.54368750957393" lon="8.631766703905386"><ele>529.5</ele><time>2026-04-09T09:56:14Z</time></trkpt><trkpt lat="44.543590244316256" lon="8.63165244149317"><ele>534.25</ele><time>2026-04-09T09:56:15Z</time></trkpt><trkpt lat="44.543489326808334" lon="8.631517955894434"><ele>539.0</ele><time>2026-04-09T09:56:16Z</time></trkpt><trkpt lat="44.543376594187485" lon="8.631385355818699"><ele>539.0</ele><time>2026-04-09T09:56:17Z</time></trkpt><trkpt lat="44.54324063449412" lon="8.631287872063925"><ele>539.0</ele><time>2026-04-09T09:56:18Z</time></trkpt><trkpt lat="44.54312152116095" lon="8.631200447015946"><ele>539.0</ele><time>2026-04-09T09:56:19Z</time></trkpt><trkpt lat="44.54303097825735" lon="8.631115570709898"><ele>539.0</ele><time>2026-04-09T09:56:20Z</time></trkpt><trkpt lat="44.542907629716005" lon="8.6310316691508"><ele>543.0</ele><time>2026-04-09T09:56:21Z</time></trkpt><trkpt lat="44.54281135932476" lon="8.630984862384183"><ele>547.0</ele><time>2026-04-09T09:56:22Z</time></trkpt><trkpt lat="44.542699740498755" lon="8.630989519781073"><ele>551.0</ele><time>2026-04-09T09:56:23Z</time></trkpt><trkpt lat="44.54258161917038" lon="8.631049981278014"><ele>555.0</ele><time>2026-04-09T09:56:24Z</time></trkpt><trkpt lat="44.54246924141757" lon="8.631103472910182"><ele>555.0</ele><time>2026-04-09T09:56:25Z</time></trkpt><trkpt lat="44.542377982650734" lon="8.631068472729519"><ele>555.0</ele><time>2026-04-09T09:56:26Z</time></trkpt><trkpt lat="44.54230832627096" lon="8.630981284650357"><ele>555.0</ele><time>2026-04-09T09:56:27Z</time></trkpt><trkpt lat="44.5422630639076" lon="8.630871422578966"><ele>555.0</ele><time>2026-04-09T09:56:28Z</time></trkpt><trkpt lat="44.54220505883512" lon="8.630743279350144"><ele>555.0</ele><time>2026-04-09T09:56:29Z</time></trkpt><trkpt lat="44.5421448361521" lon="8.630604319989695"><ele>555.0</ele><time>2026-04-09T09:56:30Z</time></trkpt><trkpt lat="44.54207179304201" lon="8.630477905814454"><ele>555.0</ele><time>2026-04-09T09:56:31Z</time></trkpt><trkpt lat="44.54199252443053" lon="8.630388415993211"><ele>555.0</ele><time>2026-04-09T09:56:32Z</time></trkpt><trkpt lat="44.54187746455806" lon="8.63038540349502"><ele>555.0</ele><time>2026-04-09T09:56:33Z</time></trkpt><trkpt lat="44.541765776945404" lon="8.630422859557365"><ele>555.0</ele><time>2026-04-09T09:56:34Z</time></trkpt><trkpt lat="44.5416545889967" lon="8.630482812292753"><ele>553.0</ele><time>2026-04-09T09:56:35Z</time></trkpt><trkpt lat="44.54153646775394" lon="8.630531898130368"><ele>551.0</ele><time>2026-04-09T09:56:36Z</time></trkpt><trkpt lat="44.541409022083066" lon="8.630580433697029"><ele>549.0</ele><time>2026-04-09T09:56:37Z</time></trkpt><trkpt lat="44.54127709857224" lon="8.6306291896157"><ele>547.0</ele><time>2026-04-09T09:56:38Z</time></trkpt><trkpt lat="44.54114595941906" lon="8.63063004152343"><ele>547.0</ele><time>2026-04-09T09:56:39Z</time></trkpt><trkpt lat="44.541008590387115" lon="8.6306156245679"><ele>547.0</ele><time>2026-04-09T09:56:40Z</time></trkpt><trkpt lat="44.540883239739635" lon="8.630611754718144"><ele>547.0</ele><time>2026-04-09T09:56:41Z</time></trkpt><trkpt lat="44.5407574266502" lon="8.630608038314016"><ele>547.0</ele><time>2026-04-09T09:56:42Z</time></trkpt><trkpt lat="44.54064322649868" lon="8.630610309582663"><ele>547.0</ele><time>2026-04-09T09:56:43Z</time></trkpt><trkpt lat="44.54055493390196" lon="8.630610352778328"><ele>547.0</ele><time>2026-04-09T09:56:44Z</time></trkpt><trkpt lat="44.54047454289921" lon="8.630611940693168"><ele>547.0</ele><time>2026-04-09T09:56:45Z</time></trkpt><trkpt lat="44.54040684788996" lon="8.63060929534853"><ele>547.0</ele><time>2026-04-09T09:56:46Z</time></trkpt><trkpt lat="44.540325619186305" lon="8.6306267409182"><ele>547.0</ele><time>2026-04-09T09:56:48Z</time></trkpt><trkpt lat="44.54024896473786" lon="8.630668141021252"><ele>547.0</ele><time>2026-04-09T09:56:50Z</time></trkpt><trkpt lat="44.54018469546366" lon="8.630694836840306"><ele>549.6666666666667</ele><time>2026-04-09T09:56:51Z</time></trkpt><trkpt lat="44.540105982976264" lon="8.630729278215693"><ele>552.3333333333334</ele><time>2026-04-09T09:56:52Z</time></trkpt><trkpt lat="44.540018372235124" lon="8.630768524345118"><ele>555.0</ele><time>2026-04-09T09:56:53Z</time></trkpt><trkpt lat="44.5399429696175" lon="8.630809220181828"><ele>557.6666666666666</ele><time>2026-04-09T09:56:54Z</time></trkpt><trkpt lat="44.53988456735229" lon="8.630872820782013"><ele>560.3333333333333</ele><time>2026-04-09T09:56:55Z</time></trkpt><trkpt lat="44.53985349400209" lon="8.630968098923228"><ele>563.0</ele><time>2026-04-09T09:56:56Z</time></trkpt><trkpt lat="44.539851066032284" lon="8.63108137656471"><ele>561.6666666666666</ele><time>2026-04-09T09:56:57Z</time></trkpt><trkpt lat="44.539877643455156" lon="8.631203438240025"><ele>560.3333333333333</ele><time>2026-04-09T09:56:58Z</time></trkpt><trkpt lat="44.53992727663552" lon="8.631310294728625"><ele>559.0</ele><time>2026-04-09T09:56:59Z</time></trkpt><trkpt lat="44.53997546979557" lon="8.631414480082698"><ele>557.6666666666666</ele><time>2026-04-09T09:57:00Z</time></trkpt><trkpt lat="44.539993765195604" lon="8.631521938691684"><ele>556.3333333333334</ele><time>2026-04-09T09:57:01Z</time></trkpt><trkpt lat="44.539975763189545" lon="8.63163561283805"><ele>555.0</ele><time>2026-04-09T09:57:02Z</time></trkpt><trkpt lat="44.5399328207496" lon="8.631757585045351"><ele>555.0</ele><time>2026-04-09T09:57:03Z</time></trkpt><trkpt lat="44.53988381466876" lon="8.631877630937357"><ele>555.0</ele><time>2026-04-09T09:57:04Z</time></trkpt><trkpt lat="44.5398396391789" lon="8.631991810808133"><ele>555.0</ele><time>2026-04-09T09:57:05Z</time></trkpt><trkpt lat="44.53978914850566" lon="8.632071715269559"><ele>555.0</ele><time>2026-04-09T09:57:06Z</time></trkpt><trkpt lat="44.53972207790219" lon="8.632103283597147"><ele>555.0</ele><time>2026-04-09T09:57:07Z</time></trkpt><trkpt lat="44.53964963617871" lon="8.632092382110914"><ele>555.0</ele><time>2026-04-09T09:57:08Z</time></trkpt><trkpt lat="44.53957821572115" lon="8.632038943977925"><ele>555.0</ele><time>2026-04-09T09:57:09Z</time></trkpt><trkpt lat="44.53955359260998" lon="8.6319128597557"><ele>555.0</ele><time>2026-04-09T09:57:10Z</time></trkpt><trkpt lat="44.53950214308329" lon="8.63179432557559"><ele>555.0</ele><time>2026-04-09T09:57:11Z</time></trkpt><trkpt lat="44.53943850292342" lon="8.631642468796345"><ele>555.0</ele><time>2026-04-09T09:57:12Z</time></trkpt><trkpt lat="44.5393637434568" lon="8.631469201826853"><ele>554.2</ele><time>2026-04-09T09:57:13Z</time></trkpt><trkpt lat="44.539295746519564" lon="8.63130877531458"><ele>553.4</ele><time>2026-04-09T09:57:14Z</time></trkpt><trkpt lat="44.539242298104114" lon="8.6311729361324"><ele>552.6</ele><time>2026-04-09T09:57:15Z</time></trkpt><trkpt lat="44.53919874814052" lon="8.631037254440706"><ele>551.8</ele><time>2026-04-09T09:57:16Z</time></trkpt><trkpt lat="44.5391546191013" lon="8.63091867246457"><ele>551.0</ele><time>2026-04-09T09:57:17Z</time></trkpt><trkpt lat="44.53919344310458" lon="8.630809638555098"><ele>552.6</ele><time>2026-04-09T09:57:18Z</time></trkpt><trkpt lat="44.539240662387776" lon="8.630716555110746"><ele>554.2</ele><time>2026-04-09T09:57:19Z</time></trkpt><trkpt lat="44.539281406229556" lon="8.630597978764884"><ele>555.8</ele><time>2026-04-09T09:57:20Z</time></trkpt><trkpt lat="44.53931754649882" lon="8.630467756393317"><ele>557.4</ele><time>2026-04-09T09:57:21Z</time></trkpt><trkpt lat="44.53930924294631" lon="8.630323602437594"><ele>559.0</ele><time>2026-04-09T09:57:22Z</time></trkpt><trkpt lat="44.539297979289735" lon="8.630179990832756"><ele>560.2</ele><time>2026-04-09T09:57:23Z</time></trkpt><trkpt lat="44.539276907845625" lon="8.630037826682361"><ele>561.4</ele><time>2026-04-09T09:57:24Z</time></trkpt><trkpt lat="44.53926070072924" lon="8.629907134987882"><ele>562.6</ele><time>2026-04-09T09:57:25Z</time></trkpt><trkpt lat="44.53924530732006" lon="8.629790611752542"><ele>563.8</ele><time>2026-04-09T09:57:26Z</time></trkpt><trkpt lat="44.53921590636533" lon="8.62967746181348"><ele>565.0</ele><time>2026-04-09T09:57:27Z</time></trkpt><trkpt lat="44.5391644855439" lon="8.629572716950705"><ele>565.0</ele><time>2026-04-09T09:57:28Z</time></trkpt><trkpt lat="44.539086459237666" lon="8.629487070463728"><ele>565.0</ele><time>2026-04-09T09:57:29Z</time></trkpt><trkpt lat="44.53898373986379" lon="8.62942628148446"><ele>565.0</ele><time>2026-04-09T09:57:30Z</time></trkpt><trkpt lat="44.53888244945289" lon="8.629381910434814"><ele>565.0</ele><time>2026-04-09T09:57:31Z</time></trkpt><trkpt lat="44.53879676687378" lon="8.629309796132912"><ele>565.0</ele><time>2026-04-09T09:57:32Z</time></trkpt><trkpt lat="44.538712983067484" lon="8.62926161795341"><ele>564.6</ele><time>2026-04-09T09:57:33Z</time></trkpt><trkpt lat="44.538674555079666" lon="8.629138470332448"><ele>564.2</ele><time>2026-04-09T09:57:34Z</time></trkpt><trkpt lat="44.53860035266849" lon="8.629035437257091"><ele>563.8</ele><time>2026-04-09T09:57:35Z</time></trkpt><trkpt lat="44.53854987041183" lon="8.628908427949414"><ele>563.4</ele><time>2026-04-09T09:57:36Z</time></trkpt><trkpt lat="44.53849429193579" lon="8.628788202349229"><ele>563.0</ele><time>2026-04-09T09:57:37Z</time></trkpt><trkpt lat="44.538445063379235" lon="8.62868286053406"><ele>564.8333333333333</ele><time>2026-04-09T09:57:38Z</time></trkpt><trkpt lat="44.53841329434418" lon="8.628578969618715"><ele>566.6666666666666</ele><time>2026-04-09T09:57:39Z</time></trkpt><trkpt lat="44.53840433456143" lon="8.628464059812059"><ele>568.5</ele><time>2026-04-09T09:57:40Z</time></trkpt><trkpt lat="44.53841566203531" lon="8.62834038768144"><ele>570.3333333333334</ele><time>2026-04-09T09:57:41Z</time></trkpt><trkpt lat="44.53843403447271" lon="8.628214957091926"><ele>572.1666666666667</ele><time>2026-04-09T09:57:42Z</time></trkpt><trkpt lat="44.53846324819181" lon="8.62808063010148"><ele>574.0</ele><time>2026-04-09T09:57:43Z</time></trkpt><trkpt lat="44.53849226642891" lon="8.627937923672134"><ele>575.8</ele><time>2026-04-09T09:57:44Z</time></trkpt><trkpt lat="44.5385183237179" lon="8.627803346708681"><ele>577.5999999999999</ele><time>2026-04-09T09:57:45Z</time></trkpt><trkpt lat="44.538537975647465" lon="8.627685651719318"><ele>579.4</ele><time>2026-04-09T09:57:46Z</time></trkpt><trkpt lat="44.53855737524235" lon="8.627538039063113"><ele>581.1999999999999</ele><time>2026-04-09T09:57:48Z</time></trkpt><trkpt lat="44.538541080957685" lon="8.627437244453043"><ele>583.0</ele><time>2026-04-09T09:57:50Z</time></trkpt><trkpt lat="44.53847560922381" lon="8.627266312400566"><ele>583.0</ele><time>2026-04-09T09:57:52Z</time></trkpt><trkpt lat="44.538443969899795" lon="8.627157805871356"><ele>583.0</ele><time>2026-04-09T09:57:53Z</time></trkpt><trkpt lat="44.53843590137155" lon="8.627018222284528"><ele>583.0</ele><time>2026-04-09T09:57:54Z</time></trkpt><trkpt lat="44.53845261373973" lon="8.626876873122646"><ele>583.0</ele><time>2026-04-09T09:57:55Z</time></trkpt><trkpt lat="44.538526563992775" lon="8.626763768950957"><ele>583.0</ele><time>2026-04-09T09:57:56Z</time></trkpt><trkpt lat="44.53859211421884" lon="8.62663722424636"><ele>584.8</ele><time>2026-04-09T09:57:57Z</time></trkpt><trkpt lat="44.53864767087218" lon="8.626506260280554"><ele>586.5999999999999</ele><time>2026-04-09T09:57:58Z</time></trkpt><trkpt lat="44.538704296961455" lon="8.626397673365423"><ele>588.4000000000001</ele><time>2026-04-09T09:57:59Z</time></trkpt><trkpt lat="44.53873577503263" lon="8.626280424843578"><ele>590.2</ele><time>2026-04-09T09:58:00Z</time></trkpt><trkpt lat="44.538725113845224" lon="8.626146177016379"><ele>592.0</ele><time>2026-04-09T09:58:01Z</time></trkpt><trkpt lat="44.53868444184856" lon="8.62601294857992"><ele>593.0</ele><time>2026-04-09T09:58:02Z</time></trkpt><trkpt lat="44.538653354007785" lon="8.625881378465131"><ele>594.0</ele><time>2026-04-09T09:58:03Z</time></trkpt><trkpt lat="44.53867836625163" lon="8.625747795164315"><ele>595.0</ele><time>2026-04-09T09:58:04Z</time></trkpt><trkpt lat="44.53874374729422" lon="8.625635962895364"><ele>596.0</ele><time>2026-04-09T09:58:05Z</time></trkpt><trkpt lat="44.53880526607416" lon="8.62552841674024"><ele>597.0</ele><time>2026-04-09T09:58:06Z</time></trkpt><trkpt lat="44.53883013707876" lon="8.625393371938616"><ele>596.75</ele><time>2026-04-09T09:58:07Z</time></trkpt><trkpt lat="44.53880164360026" lon="8.625240799671065"><ele>596.5</ele><time>2026-04-09T09:58:08Z</time></trkpt><trkpt lat="44.53872705564293" lon="8.625108258232917"><ele>596.25</ele><time>2026-04-09T09:58:09Z</time></trkpt><trkpt lat="44.53862760593091" lon="8.625002073148574"><ele>596.0</ele><time>2026-04-09T09:58:10Z</time></trkpt><trkpt lat="44.538518852041676" lon="8.624915732688473"><ele>596.0</ele><time>2026-04-09T09:58:11Z</time></trkpt><trkpt lat="44.53840708271916" lon="8.62484985484139"><ele>596.0</ele><time>2026-04-09T09:58:12Z</time></trkpt><trkpt lat="44.538295590452485" lon="8.624809355963977"><ele>596.0</ele><time>2026-04-09T09:58:13Z</time></trkpt><trkpt lat="44.538180785049796" lon="8.624811025335982"><ele>596.0</ele><time>2026-04-09T09:58:14Z</time></trkpt><trkpt lat="44.53806855818632" lon="8.624848865147195"><ele>596.0</ele><time>2026-04-09T09:58:15Z</time></trkpt><trkpt lat="44.53797591193299" lon="8.624923786955392"><ele>596.0</ele><time>2026-04-09T09:58:16Z</time></trkpt><trkpt lat="44.53790429499431" lon="8.625034188222529"><ele>596.0</ele><time>2026-04-09T09:58:17Z</time></trkpt><trkpt lat="44.537840431548716" lon="8.625155546210332"><ele>596.0</ele><time>2026-04-09T09:58:18Z</time></trkpt><trkpt lat="44.537773868400244" lon="8.625251159789622"><ele>596.0</ele><time>2026-04-09T09:58:19Z</time></trkpt><trkpt lat="44.5376976971776" lon="8.62530936676662"><ele>597.2</ele><time>2026-04-09T09:58:20Z</time></trkpt><trkpt lat="44.53762184405478" lon="8.62533820596133"><ele>598.4000000000001</ele><time>2026-04-09T09:58:21Z</time></trkpt><trkpt lat="44.537544045912895" lon="8.625286170166465"><ele>599.6</ele><time>2026-04-09T09:58:22Z</time></trkpt><trkpt lat="44.53748262650196" lon="8.625202688889967"><ele>600.8000000000001</ele><time>2026-04-09T09:58:23Z</time></trkpt><trkpt lat="44.53743383436569" lon="8.625099042285322"><ele>602.0</ele><time>2026-04-09T09:58:24Z</time></trkpt><trkpt lat="44.53744788366267" lon="8.62494486018545"><ele>602.0</ele><time>2026-04-09T09:58:25Z</time></trkpt><trkpt lat="44.53743147925846" lon="8.624790266691207"><ele>602.0</ele><time>2026-04-09T09:58:26Z</time></trkpt><trkpt lat="44.5374053854614" lon="8.62462708081775"><ele>602.0</ele><time>2026-04-09T09:58:27Z</time></trkpt><trkpt lat="44.5373958771434" lon="8.62445478778968"><ele>602.0</ele><time>2026-04-09T09:58:28Z</time></trkpt><trkpt lat="44.5374251791151" lon="8.624283794601684"><ele>602.25</ele><time>2026-04-09T09:58:29Z</time></trkpt><trkpt lat="44.53742213734893" lon="8.624112274032306"><ele>602.5</ele><time>2026-04-09T09:58:30Z</time></trkpt><trkpt lat="44.53741099258862" lon="8.623935100371174"><ele>602.75</ele><time>2026-04-09T09:58:31Z</time></trkpt><trkpt lat="44.53739148135931" lon="8.623751699709576"><ele>603.0</ele><time>2026-04-09T09:58:32Z</time></trkpt><trkpt lat="44.53743262281844" lon="8.623590431473023"><ele>603.0</ele><time>2026-04-09T09:58:33Z</time></trkpt><trkpt lat="44.537467768368096" lon="8.623429064215602"><ele>603.0</ele><time>2026-04-09T09:58:34Z</time></trkpt><trkpt lat="44.537498739721116" lon="8.6232654682283"><ele>603.0</ele><time>2026-04-09T09:58:35Z</time></trkpt><trkpt lat="44.537512329804" lon="8.623102316193059"><ele>603.0</ele><time>2026-04-09T09:58:36Z</time></trkpt><trkpt lat="44.537533671720475" lon="8.622950562076634"><ele>602.1999999999999</ele><time>2026-04-09T09:58:37Z</time></trkpt><trkpt lat="44.537540322247715" lon="8.622811358166325"><ele>601.4</ele><time>2026-04-09T09:58:38Z</time></trkpt><trkpt lat="44.53752362015759" lon="8.622681680702327"><ele>600.5999999999999</ele><time>2026-04-09T09:58:39Z</time></trkpt><trkpt lat="44.53747653966073" lon="8.622548540684006"><ele>599.8</ele><time>2026-04-09T09:58:40Z</time></trkpt><trkpt lat="44.53739376547467" lon="8.62243230097264"><ele>599.0</ele><time>2026-04-09T09:58:41Z</time></trkpt><trkpt lat="44.537288342928484" lon="8.622348891959764"><ele>599.0</ele><time>2026-04-09T09:58:42Z</time></trkpt><trkpt lat="44.537173308463224" lon="8.622273661401811"><ele>599.0</ele><time>2026-04-09T09:58:43Z</time></trkpt><trkpt lat="44.53707191348878" lon="8.622163688914064"><ele>599.0</ele><time>2026-04-09T09:58:44Z</time></trkpt><trkpt lat="44.53696235725246" lon="8.622092776034957"><ele>599.0</ele><time>2026-04-09T09:58:45Z</time></trkpt><trkpt lat="44.536877072397864" lon="8.62199526417911"><ele>603.2</ele><time>2026-04-09T09:58:46Z</time></trkpt><trkpt lat="44.53681016311683" lon="8.621886464491904"><ele>607.4</ele><time>2026-04-09T09:58:47Z</time></trkpt><trkpt lat="44.53676317595624" lon="8.621755025204948"><ele>611.6</ele><time>2026-04-09T09:58:48Z</time></trkpt><trkpt lat="44.536768320421" lon="8.621593831413904"><ele>615.8</ele><time>2026-04-09T09:58:49Z</time></trkpt><trkpt lat="44.536773602320196" lon="8.62142884703434"><ele>620.0</ele><time>2026-04-09T09:58:50Z</time></trkpt><trkpt lat="44.536794107431476" lon="8.621256850018785"><ele>620.5</ele><time>2026-04-09T09:58:51Z</time></trkpt><trkpt lat="44.536838200473824" lon="8.621081566813725"><ele>621.0</ele><time>2026-04-09T09:58:52Z</time></trkpt><trkpt lat="44.53689872932704" lon="8.620908869279035"><ele>621.5</ele><time>2026-04-09T09:58:53Z</time></trkpt><trkpt lat="44.53697231722355" lon="8.620731807739215"><ele>622.0</ele><time>2026-04-09T09:58:54Z</time></trkpt><trkpt lat="44.537040537070204" lon="8.620569589388618"><ele>616.5</ele><time>2026-04-09T09:58:55Z</time></trkpt><trkpt lat="44.53710702290595" lon="8.620411289833324"><ele>611.0</ele><time>2026-04-09T09:58:56Z</time></trkpt><trkpt lat="44.53714527128565" lon="8.620248932874771"><ele>605.5</ele><time>2026-04-09T09:58:57Z</time></trkpt><trkpt lat="44.537183789889404" lon="8.620093252478746"><ele>600.0</ele><time>2026-04-09T09:58:58Z</time></trkpt><trkpt lat="44.53715187200023" lon="8.61992069378938"><ele>600.0</ele><time>2026-04-09T09:58:59Z</time></trkpt><trkpt lat="44.53711406752455" lon="8.619752253225833"><ele>600.0</ele><time>2026-04-09T09:59:00Z</time></trkpt><trkpt lat="44.53701161893205" lon="8.619645200367117"><ele>600.0</ele><time>2026-04-09T09:59:01Z</time></trkpt><trkpt lat="44.53691456330009" lon="8.619574975302234"><ele>600.0</ele><time>2026-04-09T09:59:02Z</time></trkpt><trkpt lat="44.536795899222575" lon="8.619548816269534"><ele>606.0</ele><time>2026-04-09T09:59:03Z</time></trkpt><trkpt lat="44.53667160083652" lon="8.619548019545174"><ele>612.0</ele><time>2026-04-09T09:59:04Z</time></trkpt><trkpt lat="44.53654137972108" lon="8.61955661039764"><ele>618.0</ele><time>2026-04-09T09:59:05Z</time></trkpt><trkpt lat="44.53641336902249" lon="8.619558512884684"><ele>624.0</ele><time>2026-04-09T09:59:06Z</time></trkpt><trkpt lat="44.53630057900053" lon="8.619562201762125"><ele>623.0</ele><time>2026-04-09T09:59:07Z</time></trkpt><trkpt lat="44.53620419898562" lon="8.619556852917322"><ele>622.0</ele><time>2026-04-09T09:59:08Z</time></trkpt><trkpt lat="44.536110720434316" lon="8.619560684737776"><ele>621.0</ele><time>2026-04-09T09:59:09Z</time></trkpt><trkpt lat="44.53602706252635" lon="8.619570059313787"><ele>620.0</ele><time>2026-04-09T09:59:10Z</time></trkpt><trkpt lat="44.53595046945109" lon="8.619575450702484"><ele>619.0</ele><time>2026-04-09T09:59:11Z</time></trkpt><trkpt lat="44.5358778523287" lon="8.619570148528233"><ele>618.0</ele><time>2026-04-09T09:59:12Z</time></trkpt><trkpt lat="44.53575805400154" lon="8.619568017552071"><ele>618.0</ele><time>2026-04-09T09:59:14Z</time></trkpt><trkpt lat="44.53562730405538" lon="8.619531993392261"><ele>618.0</ele><time>2026-04-09T09:59:16Z</time></trkpt><trkpt lat="44.53554402713685" lon="8.619506880995488"><ele>618.0</ele><time>2026-04-09T09:59:17Z</time></trkpt><trkpt lat="44.535453984602185" lon="8.619468357379073"><ele>618.0</ele><time>2026-04-09T09:59:18Z</time></trkpt><trkpt lat="44.53537398650646" lon="8.619419185372456"><ele>618.0</ele><time>2026-04-09T09:59:19Z</time></trkpt><trkpt lat="44.535304855485634" lon="8.619380741213686"><ele>617.8333333333334</ele><time>2026-04-09T09:59:20Z</time></trkpt><trkpt lat="44.5352428554337" lon="8.61933978725217"><ele>617.6666666666666</ele><time>2026-04-09T09:59:21Z</time></trkpt><trkpt lat="44.53517930458651" lon="8.61930638825333"><ele>617.5</ele><time>2026-04-09T09:59:22Z</time></trkpt><trkpt lat="44.535112614011474" lon="8.619271635796538"><ele>617.3333333333333</ele><time>2026-04-09T09:59:23Z</time></trkpt><trkpt lat="44.53503650573656" lon="8.619233586279627"><ele>617.1666666666666</ele><time>2026-04-09T09:59:24Z</time></trkpt><trkpt lat="44.534953064751754" lon="8.619200438188868"><ele>617.0</ele><time>2026-04-09T09:59:25Z</time></trkpt><trkpt lat="44.53485474007624" lon="8.61917986606416"><ele>617.0</ele><time>2026-04-09T09:59:26Z</time></trkpt><trkpt lat="44.53475140829748" lon="8.619158499319457"><ele>617.0</ele><time>2026-04-09T09:59:27Z</time></trkpt><trkpt lat="44.534638269199355" lon="8.619174748149126"><ele>617.0</ele><time>2026-04-09T09:59:28Z</time></trkpt><trkpt lat="44.53452503200568" lon="8.619194688460075"><ele>617.0</ele><time>2026-04-09T09:59:29Z</time></trkpt><trkpt lat="44.534406210562935" lon="8.619242200253627"><ele>616.6</ele><time>2026-04-09T09:59:30Z</time></trkpt><trkpt lat="44.53430539924303" lon="8.619287937305215"><ele>616.2</ele><time>2026-04-09T09:59:31Z</time></trkpt><trkpt lat="44.534209225219776" lon="8.6193318217484"><ele>615.8</ele><time>2026-04-09T09:59:32Z</time></trkpt><trkpt lat="44.53411859833056" lon="8.619338084559757"><ele>615.4</ele><time>2026-04-09T09:59:33Z</time></trkpt><trkpt lat="44.53403026263883" lon="8.619312280851705"><ele>615.0</ele><time>2026-04-09T09:59:34Z</time></trkpt><trkpt lat="44.53394117269937" lon="8.619239674503543"><ele>615.0</ele><time>2026-04-09T09:59:35Z</time></trkpt><trkpt lat="44.53386488628653" lon="8.619135695588533"><ele>615.0</ele><time>2026-04-09T09:59:36Z</time></trkpt><trkpt lat="44.53382118500793" lon="8.618999572617737"><ele>615.0</ele><time>2026-04-09T09:59:37Z</time></trkpt><trkpt lat="44.53379002465516" lon="8.618852298038465"><ele>615.0</ele><time>2026-04-09T09:59:38Z</time></trkpt><trkpt lat="44.53375516247758" lon="8.618682013923456"><ele>615.0</ele><time>2026-04-09T09:59:39Z</time></trkpt><trkpt lat="44.53370748661857" lon="8.61850870634172"><ele>611.0</ele><time>2026-04-09T09:59:40Z</time></trkpt><trkpt lat="44.53366555213075" lon="8.618349245739369"><ele>607.0</ele><time>2026-04-09T09:59:41Z</time></trkpt><trkpt lat="44.533616552682886" lon="8.618205581139012"><ele>603.0</ele><time>2026-04-09T09:59:42Z</time></trkpt><trkpt lat="44.533566331883264" lon="8.618072977332814"><ele>599.0</ele><time>2026-04-09T09:59:43Z</time></trkpt><trkpt lat="44.53349365991826" lon="8.617951688801561"><ele>599.0</ele><time>2026-04-09T09:59:44Z</time></trkpt><trkpt lat="44.53339872142649" lon="8.61786401577936"><ele>599.0</ele><time>2026-04-09T09:59:45Z</time></trkpt><trkpt lat="44.53328680011673" lon="8.617810374387286"><ele>599.0</ele><time>2026-04-09T09:59:46Z</time></trkpt><trkpt lat="44.5331631441226" lon="8.617793434675782"><ele>599.0</ele><time>2026-04-09T09:59:47Z</time></trkpt><trkpt lat="44.533045120391805" lon="8.617807904362756"><ele>599.0</ele><time>2026-04-09T09:59:48Z</time></trkpt><trkpt lat="44.532931308089005" lon="8.617826043816683"><ele>599.0</ele><time>2026-04-09T09:59:49Z</time></trkpt><trkpt lat="44.532826451767406" lon="8.61780498306674"><ele>599.0</ele><time>2026-04-09T09:59:50Z</time></trkpt><trkpt lat="44.53272812669014" lon="8.617746363404656"><ele>599.0</ele><time>2026-04-09T09:59:51Z</time></trkpt><trkpt lat="44.532649006578396" lon="8.617655404337363"><ele>599.0</ele><time>2026-04-09T09:59:52Z</time></trkpt><trkpt lat="44.532590783677854" lon="8.61753843329793"><ele>597.75</ele><time>2026-04-09T09:59:53Z</time></trkpt><trkpt lat="44.532568361490995" lon="8.617395870449869"><ele>596.5</ele><time>2026-04-09T09:59:54Z</time></trkpt><trkpt lat="44.53256725062388" lon="8.6172309402507"><ele>595.25</ele><time>2026-04-09T09:59:55Z</time></trkpt><trkpt lat="44.53256200350559" lon="8.617059921116624"><ele>594.0</ele><time>2026-04-09T09:59:56Z</time></trkpt><trkpt lat="44.53253609762169" lon="8.616880402258571"><ele>594.0</ele><time>2026-04-09T09:59:57Z</time></trkpt><trkpt lat="44.532480997782926" lon="8.616711471915124"><ele>594.0</ele><time>2026-04-09T09:59:58Z</time></trkpt><trkpt lat="44.53240443154197" lon="8.616553547812806"><ele>594.0</ele><time>2026-04-09T09:59:59Z</time></trkpt><trkpt lat="44.53233046310005" lon="8.616395941308092"><ele>594.0</ele><time>2026-04-09T10:00:00Z</time></trkpt><trkpt lat="44.53226467724931" lon="8.616234344950149"><ele>595.0</ele><time>2026-04-09T10:00:01Z</time></trkpt><trkpt lat="44.53220651415624" lon="8.616074440226406"><ele>596.0</ele><time>2026-04-09T10:00:02Z</time></trkpt><trkpt lat="44.53215778210822" lon="8.615914931785575"><ele>597.0</ele><time>2026-04-09T10:00:03Z</time></trkpt><trkpt lat="44.53212062618133" lon="8.615761819406382"><ele>598.0</ele><time>2026-04-09T10:00:04Z</time></trkpt><trkpt lat="44.5320891248711" lon="8.615615425196687"><ele>598.0</ele><time>2026-04-09T10:00:05Z</time></trkpt><trkpt lat="44.5320592720482" lon="8.615485565700109"><ele>598.0</ele><time>2026-04-09T10:00:06Z</time></trkpt><trkpt lat="44.53201754532558" lon="8.615369680966516"><ele>598.0</ele><time>2026-04-09T10:00:07Z</time></trkpt><trkpt lat="44.531951460132376" lon="8.61527903182661"><ele>598.0</ele><time>2026-04-09T10:00:08Z</time></trkpt><trkpt lat="44.53186237459266" lon="8.615216152064463"><ele>598.0</ele><time>2026-04-09T10:00:09Z</time></trkpt><trkpt lat="44.531762355737456" lon="8.615198058225236"><ele>595.0</ele><time>2026-04-09T10:00:10Z</time></trkpt><trkpt lat="44.53166215366268" lon="8.615232471536208"><ele>592.0</ele><time>2026-04-09T10:00:11Z</time></trkpt><trkpt lat="44.531572999368315" lon="8.615314953438974"><ele>589.0</ele><time>2026-04-09T10:00:12Z</time></trkpt><trkpt lat="44.5315072595903" lon="8.61543198840601"><ele>586.0</ele><time>2026-04-09T10:00:13Z</time></trkpt><trkpt lat="44.531466941094614" lon="8.615576628597886"><ele>583.0</ele><time>2026-04-09T10:00:14Z</time></trkpt><trkpt lat="44.53145570950707" lon="8.615733395198276"><ele>583.0</ele><time>2026-04-09T10:00:15Z</time></trkpt><trkpt lat="44.53146443233632" lon="8.615909634663616"><ele>583.0</ele><time>2026-04-09T10:00:16Z</time></trkpt><trkpt lat="44.531467687707014" lon="8.616083465098983"><ele>583.0</ele><time>2026-04-09T10:00:17Z</time></trkpt><trkpt lat="44.53145927740604" lon="8.616241837323372"><ele>583.0</ele><time>2026-04-09T10:00:18Z</time></trkpt><trkpt lat="44.53145575467615" lon="8.616392355496853"><ele>582.25</ele><time>2026-04-09T10:00:19Z</time></trkpt><trkpt lat="44.531481109225616" lon="8.616543090845456"><ele>581.5</ele><time>2026-04-09T10:00:20Z</time></trkpt><trkpt lat="44.53153790475479" lon="8.616696382085182"><ele>580.75</ele><time>2026-04-09T10:00:21Z</time></trkpt><trkpt lat="44.531619183584986" lon="8.616846643055268"><ele>580.0</ele><time>2026-04-09T10:00:22Z</time></trkpt><trkpt lat="44.53170880117458" lon="8.616994157763553"><ele>578.25</ele><time>2026-04-09T10:00:23Z</time></trkpt><trkpt lat="44.53178969513739" lon="8.617138517216478"><ele>576.5</ele><time>2026-04-09T10:00:24Z</time></trkpt><trkpt lat="44.531861942102864" lon="8.617286770244357"><ele>574.75</ele><time>2026-04-09T10:00:25Z</time></trkpt><trkpt lat="44.53190296796423" lon="8.617444915456261"><ele>573.0</ele><time>2026-04-09T10:00:26Z</time></trkpt><trkpt lat="44.53190740926866" lon="8.617608697782373"><ele>573.0</ele><time>2026-04-09T10:00:27Z</time></trkpt><trkpt lat="44.531922478291975" lon="8.617758696408139"><ele>573.0</ele><time>2026-04-09T10:00:28Z</time></trkpt><trkpt lat="44.531968001850906" lon="8.617910166305691"><ele>573.0</ele><time>2026-04-09T10:00:29Z</time></trkpt><trkpt lat="44.532041321365696" lon="8.618059769527369"><ele>573.0</ele><time>2026-04-09T10:00:30Z</time></trkpt><trkpt lat="44.53213210210937" lon="8.6182039134787"><ele>571.75</ele><time>2026-04-09T10:00:31Z</time></trkpt><trkpt lat="44.532224851301" lon="8.618341087334866"><ele>570.5</ele><time>2026-04-09T10:00:32Z</time></trkpt><trkpt lat="44.532313194729305" lon="8.61847791784612"><ele>569.25</ele><time>2026-04-09T10:00:33Z</time></trkpt><trkpt lat="44.5323950150097" lon="8.618615163620484"><ele>568.0</ele><time>2026-04-09T10:00:34Z</time></trkpt><trkpt lat="44.532466894290735" lon="8.618750337472562"><ele>568.0</ele><time>2026-04-09T10:00:35Z</time></trkpt><trkpt lat="44.532525066150406" lon="8.618886962876482"><ele>568.0</ele><time>2026-04-09T10:00:36Z</time></trkpt><trkpt lat="44.532561589144436" lon="8.619030103104524"><ele>568.0</ele><time>2026-04-09T10:00:37Z</time></trkpt><trkpt lat="44.53256318174767" lon="8.619174534879123"><ele>568.0</ele><time>2026-04-09T10:00:38Z</time></trkpt><trkpt lat="44.53253656296881" lon="8.619312480739794"><ele>568.0</ele><time>2026-04-09T10:00:39Z</time></trkpt><trkpt lat="44.53248937451122" lon="8.61946027727605"><ele>567.75</ele><time>2026-04-09T10:00:40Z</time></trkpt><trkpt lat="44.532429426625704" lon="8.619611616624304"><ele>567.5</ele><time>2026-04-09T10:00:41Z</time></trkpt><trkpt lat="44.53236837500414" lon="8.619764027765257"><ele>567.25</ele><time>2026-04-09T10:00:42Z</time></trkpt><trkpt lat="44.53231299966459" lon="8.61990291382952"><ele>567.0</ele><time>2026-04-09T10:00:43Z</time></trkpt><trkpt lat="44.532267019677484" lon="8.620030645792943"><ele>567.0</ele><time>2026-04-09T10:00:44Z</time></trkpt><trkpt lat="44.532235540892614" lon="8.620160597157945"><ele>567.0</ele><time>2026-04-09T10:00:45Z</time></trkpt><trkpt lat="44.53222193389404" lon="8.620314329912109"><ele>567.0</ele><time>2026-04-09T10:00:46Z</time></trkpt><trkpt lat="44.53223621469569" lon="8.620471105285368"><ele>567.0</ele><time>2026-04-09T10:00:47Z</time></trkpt><trkpt lat="44.532260521230874" lon="8.620646620800983"><ele>567.0</ele><time>2026-04-09T10:00:48Z</time></trkpt><trkpt lat="44.53229150212569" lon="8.620802139658482"><ele>565.5</ele><time>2026-04-09T10:00:49Z</time></trkpt><trkpt lat="44.53233334452117" lon="8.620955715342278"><ele>564.0</ele><time>2026-04-09T10:00:50Z</time></trkpt><trkpt lat="44.532393975626235" lon="8.621101640331709"><ele>562.5</ele><time>2026-04-09T10:00:51Z</time></trkpt><trkpt lat="44.53246815457237" lon="8.621244060380059"><ele>561.0</ele><time>2026-04-09T10:00:52Z</time></trkpt><trkpt lat="44.53253904203996" lon="8.62138644200193"><ele>561.75</ele><time>2026-04-09T10:00:53Z</time></trkpt><trkpt lat="44.53255482362036" lon="8.621559638496059"><ele>562.5</ele><time>2026-04-09T10:00:54Z</time></trkpt><trkpt lat="44.532541906174096" lon="8.621727661955116"><ele>563.25</ele><time>2026-04-09T10:00:55Z</time></trkpt><trkpt lat="44.53252379598308" lon="8.62189929435336"><ele>564.0</ele><time>2026-04-09T10:00:56Z</time></trkpt><trkpt lat="44.53251007752103" lon="8.622058460525611"><ele>564.0</ele><time>2026-04-09T10:00:57Z</time></trkpt><trkpt lat="44.532471251975956" lon="8.622195962316782"><ele>564.0</ele><time>2026-04-09T10:00:58Z</time></trkpt><trkpt lat="44.53241262347263" lon="8.622307363070163"><ele>564.0</ele><time>2026-04-09T10:00:59Z</time></trkpt><trkpt lat="44.53233446444217" lon="8.62239908523505"><ele>564.0</ele><time>2026-04-09T10:01:00Z</time></trkpt><trkpt lat="44.53223420294605" lon="8.622483068427794"><ele>564.0</ele><time>2026-04-09T10:01:01Z</time></trkpt><trkpt lat="44.53215158429497" lon="8.622578050117278"><ele>564.0</ele><time>2026-04-09T10:01:02Z</time></trkpt><trkpt lat="44.5320709436279" lon="8.622674654932018"><ele>564.0</ele><time>2026-04-09T10:01:03Z</time></trkpt><trkpt lat="44.531980606081056" lon="8.622738621906347"><ele>564.0</ele><time>2026-04-09T10:01:04Z</time></trkpt><trkpt lat="44.531884984416266" lon="8.622748759628326"><ele>564.0</ele><time>2026-04-09T10:01:05Z</time></trkpt><trkpt lat="44.53179471771884" lon="8.622707506419513"><ele>564.0</ele><time>2026-04-09T10:01:06Z</time></trkpt><trkpt lat="44.531716006468265" lon="8.622618217169835"><ele>560.8</ele><time>2026-04-09T10:01:07Z</time></trkpt><trkpt lat="44.531653444231736" lon="8.622494685085538"><ele>557.5999999999999</ele><time>2026-04-09T10:01:08Z</time></trkpt><trkpt lat="44.53159694071696" lon="8.62235705044841"><ele>554.4</ele><time>2026-04-09T10:01:09Z</time></trkpt><trkpt lat="44.531537185863606" lon="8.62223998759908"><ele>551.1999999999999</ele><time>2026-04-09T10:01:10Z</time></trkpt><trkpt lat="44.53146442770691" lon="8.622146378519"><ele>548.0</ele><time>2026-04-09T10:01:11Z</time></trkpt><trkpt lat="44.53137290734702" lon="8.62208175686499"><ele>548.0</ele><time>2026-04-09T10:01:12Z</time></trkpt><trkpt lat="44.531274645014726" lon="8.622051897906506"><ele>548.0</ele><time>2026-04-09T10:01:13Z</time></trkpt><trkpt lat="44.53117697904079" lon="8.622060507866095"><ele>548.0</ele><time>2026-04-09T10:01:14Z</time></trkpt><trkpt lat="44.5311011226847" lon="8.622077940700478"><ele>548.0</ele><time>2026-04-09T10:01:15Z</time></trkpt><trkpt lat="44.5310235542834" lon="8.622059069713263"><ele>548.0</ele><time>2026-04-09T10:01:16Z</time></trkpt><trkpt lat="44.53095151581528" lon="8.622007008411192"><ele>548.0</ele><time>2026-04-09T10:01:17Z</time></trkpt><trkpt lat="44.53088219647742" lon="8.621922632806902"><ele>546.0</ele><time>2026-04-09T10:01:18Z</time></trkpt><trkpt lat="44.53082975378357" lon="8.62182085107952"><ele>544.0</ele><time>2026-04-09T10:01:19Z</time></trkpt><trkpt lat="44.530775041468814" lon="8.621727392268184"><ele>542.0</ele><time>2026-04-09T10:01:20Z</time></trkpt><trkpt lat="44.53070914582771" lon="8.621634147166995"><ele>540.0</ele><time>2026-04-09T10:01:21Z</time></trkpt><trkpt lat="44.530626992984516" lon="8.621567837633595"><ele>538.0</ele><time>2026-04-09T10:01:22Z</time></trkpt><trkpt lat="44.53053841658408" lon="8.621538916624365"><ele>538.0</ele><time>2026-04-09T10:01:23Z</time></trkpt><trkpt lat="44.53044524354766" lon="8.621554961931489"><ele>538.0</ele><time>2026-04-09T10:01:24Z</time></trkpt><trkpt lat="44.53036027999881" lon="8.621620542753233"><ele>538.0</ele><time>2026-04-09T10:01:25Z</time></trkpt><trkpt lat="44.53029348235279" lon="8.621730033387072"><ele>538.0</ele><time>2026-04-09T10:01:26Z</time></trkpt><trkpt lat="44.53024814921586" lon="8.621875666155209"><ele>538.0</ele><time>2026-04-09T10:01:27Z</time></trkpt><trkpt lat="44.53022136069387" lon="8.622018408217667"><ele>539.0</ele><time>2026-04-09T10:01:28Z</time></trkpt><trkpt lat="44.53017202901477" lon="8.62213985085475"><ele>540.0</ele><time>2026-04-09T10:01:29Z</time></trkpt><trkpt lat="44.5300927296107" lon="8.622234609072423"><ele>541.0</ele><time>2026-04-09T10:01:30Z</time></trkpt><trkpt lat="44.52999528219139" lon="8.622283900645268"><ele>542.0</ele><time>2026-04-09T10:01:31Z</time></trkpt><trkpt lat="44.529891915271214" lon="8.622274829956675"><ele>543.0</ele><time>2026-04-09T10:01:32Z</time></trkpt><trkpt lat="44.529795957340795" lon="8.622218611948988"><ele>543.0</ele><time>2026-04-09T10:01:33Z</time></trkpt><trkpt lat="44.52970140208284" lon="8.622135929655927"><ele>543.0</ele><time>2026-04-09T10:01:34Z</time></trkpt><trkpt lat="44.52961765417924" lon="8.622033064211456"><ele>543.0</ele><time>2026-04-09T10:01:35Z</time></trkpt><trkpt lat="44.52954939416481" lon="8.621924967343942"><ele>543.0</ele><time>2026-04-09T10:01:36Z</time></trkpt><trkpt lat="44.529480726987686" lon="8.621834762953597"><ele>543.0</ele><time>2026-04-09T10:01:37Z</time></trkpt><trkpt lat="44.52940254377085" lon="8.621769931430347"><ele>542.0</ele><time>2026-04-09T10:01:38Z</time></trkpt><trkpt lat="44.52931570907053" lon="8.621757246662892"><ele>541.0</ele><time>2026-04-09T10:01:39Z</time></trkpt><trkpt lat="44.529231596367175" lon="8.621809359995657"><ele>540.0</ele><time>2026-04-09T10:01:40Z</time></trkpt><trkpt lat="44.52915706661465" lon="8.621907813758122"><ele>539.0</ele><time>2026-04-09T10:01:41Z</time></trkpt><trkpt lat="44.52911228570836" lon="8.622035519571538"><ele>538.0</ele><time>2026-04-09T10:01:42Z</time></trkpt><trkpt lat="44.529070585898346" lon="8.622152187686687"><ele>538.0</ele><time>2026-04-09T10:01:43Z</time></trkpt><trkpt lat="44.52899842708555" lon="8.62223632039714"><ele>538.0</ele><time>2026-04-09T10:01:44Z</time></trkpt><trkpt lat="44.52890722463141" lon="8.62228365344911"><ele>538.0</ele><time>2026-04-09T10:01:45Z</time></trkpt><trkpt lat="44.52880885368906" lon="8.622298069736587"><ele>538.0</ele><time>2026-04-09T10:01:46Z</time></trkpt><trkpt lat="44.52871125617457" lon="8.622309956685706"><ele>538.0</ele><time>2026-04-09T10:01:47Z</time></trkpt><trkpt lat="44.5286163521408" lon="8.622348850060723"><ele>537.1999999999999</ele><time>2026-04-09T10:01:48Z</time></trkpt><trkpt lat="44.52852002013907" lon="8.622422983998039"><ele>536.4</ele><time>2026-04-09T10:01:49Z</time></trkpt><trkpt lat="44.528429446071456" lon="8.622500902642862"><ele>535.5999999999999</ele><time>2026-04-09T10:01:50Z</time></trkpt><trkpt lat="44.52833742078708" lon="8.622537338648817"><ele>534.8</ele><time>2026-04-09T10:01:51Z</time></trkpt><trkpt lat="44.528249619407525" lon="8.622523772212723"><ele>534.0</ele><time>2026-04-09T10:01:52Z</time></trkpt><trkpt lat="44.528172677216475" lon="8.622468496474728"><ele>534.0</ele><time>2026-04-09T10:01:53Z</time></trkpt><trkpt lat="44.52812641298664" lon="8.62236725939803"><ele>534.0</ele><time>2026-04-09T10:01:54Z</time></trkpt><trkpt lat="44.528105634472915" lon="8.62223790016443"><ele>534.0</ele><time>2026-04-09T10:01:55Z</time></trkpt><trkpt lat="44.528113904500245" lon="8.62209585577646"><ele>534.0</ele><time>2026-04-09T10:01:56Z</time></trkpt><trkpt lat="44.528142396091184" lon="8.621957106993387"><ele>534.0</ele><time>2026-04-09T10:01:57Z</time></trkpt><trkpt lat="44.528166251209115" lon="8.621828507396495"><ele>531.8</ele><time>2026-04-09T10:01:58Z</time></trkpt><trkpt lat="44.52817195042883" lon="8.621705951397994"><ele>529.5999999999999</ele><time>2026-04-09T10:01:59Z</time></trkpt><trkpt lat="44.52814054905109" lon="8.621573521172753"><ele>527.4</ele><time>2026-04-09T10:02:00Z</time></trkpt><trkpt lat="44.52808217044063" lon="8.621440842691175"><ele>525.1999999999999</ele><time>2026-04-09T10:02:01Z</time></trkpt><trkpt lat="44.527995885395335" lon="8.621314794582444"><ele>523.0</ele><time>2026-04-09T10:02:02Z</time></trkpt><trkpt lat="44.527899046955" lon="8.621190537257165"><ele>523.0</ele><time>2026-04-09T10:02:03Z</time></trkpt><trkpt lat="44.52780119116561" lon="8.621058842739693"><ele>523.0</ele><time>2026-04-09T10:02:04Z</time></trkpt><trkpt lat="44.52771017797299" lon="8.620916016083148"><ele>523.0</ele><time>2026-04-09T10:02:05Z</time></trkpt><trkpt lat="44.527626481655965" lon="8.620772254952373"><ele>523.0</ele><time>2026-04-09T10:02:06Z</time></trkpt><trkpt lat="44.52755205615389" lon="8.620630478504259"><ele>523.0</ele><time>2026-04-09T10:02:07Z</time></trkpt><trkpt lat="44.52748373375235" lon="8.62048219072238"><ele>523.0</ele><time>2026-04-09T10:02:08Z</time></trkpt><trkpt lat="44.527422158305214" lon="8.620337123862804"><ele>523.0</ele><time>2026-04-09T10:02:09Z</time></trkpt><trkpt lat="44.52736240728183" lon="8.620190580660509"><ele>523.0</ele><time>2026-04-09T10:02:10Z</time></trkpt><trkpt lat="44.527304631814815" lon="8.620047553688599"><ele>522.25</ele><time>2026-04-09T10:02:11Z</time></trkpt><trkpt lat="44.5272499940093" lon="8.619904175007289"><ele>521.5</ele><time>2026-04-09T10:02:12Z</time></trkpt><trkpt lat="44.5271902606622" lon="8.619768055134251"><ele>520.75</ele><time>2026-04-09T10:02:13Z</time></trkpt><trkpt lat="44.527141423459575" lon="8.619625029273871"><ele>520.0</ele><time>2026-04-09T10:02:14Z</time></trkpt><trkpt lat="44.527038721641816" lon="8.619518944009386"><ele>515.75</ele><time>2026-04-09T10:02:15Z</time></trkpt><trkpt lat="44.526927457594724" lon="8.61942438787418"><ele>511.5</ele><time>2026-04-09T10:02:16Z</time></trkpt><trkpt lat="44.52680164358688" lon="8.61933735298163"><ele>507.25</ele><time>2026-04-09T10:02:17Z</time></trkpt><trkpt lat="44.526671074542506" lon="8.619263181459537"><ele>503.0</ele><time>2026-04-09T10:02:18Z</time></trkpt><trkpt lat="44.52652465525318" lon="8.619220972148222"><ele>503.0</ele><time>2026-04-09T10:02:19Z</time></trkpt><trkpt lat="44.52637473165222" lon="8.619186111178852"><ele>503.0</ele><time>2026-04-09T10:02:20Z</time></trkpt><trkpt lat="44.52623624790878" lon="8.619149218431998"><ele>503.0</ele><time>2026-04-09T10:02:21Z</time></trkpt><trkpt lat="44.52610282533527" lon="8.619102511396445"><ele>503.0</ele><time>2026-04-09T10:02:22Z</time></trkpt><trkpt lat="44.52597581093033" lon="8.619060629971555"><ele>503.75</ele><time>2026-04-09T10:02:23Z</time></trkpt><trkpt lat="44.52586071115404" lon="8.619039344746701"><ele>504.5</ele><time>2026-04-09T10:02:24Z</time></trkpt><trkpt lat="44.52573697835005" lon="8.619040528391457"><ele>505.25</ele><time>2026-04-09T10:02:25Z</time></trkpt><trkpt lat="44.52559822336546" lon="8.619052703813624"><ele>506.0</ele><time>2026-04-09T10:02:26Z</time></trkpt><trkpt lat="44.525470629908526" lon="8.619140342271896"><ele>504.5</ele><time>2026-04-09T10:02:27Z</time></trkpt><trkpt lat="44.52534657331517" lon="8.61920727937111"><ele>503.0</ele><time>2026-04-09T10:02:28Z</time></trkpt><trkpt lat="44.52522502692731" lon="8.619273904446342"><ele>501.5</ele><time>2026-04-09T10:02:29Z</time></trkpt><trkpt lat="44.525107155305975" lon="8.619316471625975"><ele>500.0</ele><time>2026-04-09T10:02:30Z</time></trkpt><trkpt lat="44.52499615534807" lon="8.619318781015696"><ele>499.99999999999994</ele><time>2026-04-09T10:02:31Z</time></trkpt><trkpt lat="44.52490338806981" lon="8.61929315512644"><ele>500.0</ele><time>2026-04-09T10:02:32Z</time></trkpt><trkpt lat="44.52481832503309" lon="8.619259348799076"><ele>500.0</ele><time>2026-04-09T10:02:33Z</time></trkpt><trkpt lat="44.52474304988611" lon="8.619203351757568"><ele>500.0</ele><time>2026-04-09T10:02:34Z</time></trkpt><trkpt lat="44.5246776397669" lon="8.619141978043608"><ele>499.99999999999994</ele><time>2026-04-09T10:02:35Z</time></trkpt><trkpt lat="44.52462659816826" lon="8.619065198426629"><ele>500.0</ele><time>2026-04-09T10:02:36Z</time></trkpt><trkpt lat="44.52459048447274" lon="8.61897591906785"><ele>499.99999999999994</ele><time>2026-04-09T10:02:37Z</time></trkpt><trkpt lat="44.52458721867444" lon="8.618873685806829"><ele>500.0</ele><time>2026-04-09T10:02:38Z</time></trkpt><trkpt lat="44.52461947259784" lon="8.618766205052525"><ele>500.0</ele><time>2026-04-09T10:02:39Z</time></trkpt><trkpt lat="44.52468527823694" lon="8.61869822641525"><ele>500.0</ele><time>2026-04-09T10:02:40Z</time></trkpt><trkpt lat="44.52477166104028" lon="8.618680153555808"><ele>499.99999999999994</ele><time>2026-04-09T10:02:41Z</time></trkpt><trkpt lat="44.524867264598306" lon="8.618707548433639"><ele>500.0</ele><time>2026-04-09T10:02:42Z</time></trkpt><trkpt lat="44.52496096269494" lon="8.618775419169753"><ele>500.0</ele><time>2026-04-09T10:02:43Z</time></trkpt><trkpt lat="44.52505410928662" lon="8.61885945871753"><ele>500.0</ele><time>2026-04-09T10:02:44Z</time></trkpt><trkpt lat="44.5251654450684" lon="8.618913360869513"><ele>500.0</ele><time>2026-04-09T10:02:45Z</time></trkpt><trkpt lat="44.52528970275264" lon="8.618902344503455"><ele>500.0</ele><time>2026-04-09T10:02:46Z</time></trkpt><trkpt lat="44.52539305204785" lon="8.618826510278666"><ele>501.5</ele><time>2026-04-09T10:02:47Z</time></trkpt><trkpt lat="44.525482347571625" lon="8.618691654449057"><ele>503.0</ele><time>2026-04-09T10:02:48Z</time></trkpt><trkpt lat="44.52555135377476" lon="8.618526682114616"><ele>504.5</ele><time>2026-04-09T10:02:49Z</time></trkpt><trkpt lat="44.525610926954414" lon="8.618356339501123"><ele>506.0</ele><time>2026-04-09T10:02:50Z</time></trkpt><trkpt lat="44.525669266464966" lon="8.618213945248032"><ele>503.20000000000005</ele><time>2026-04-09T10:02:51Z</time></trkpt><trkpt lat="44.52574463013184" lon="8.618101465996586"><ele>500.40000000000003</ele><time>2026-04-09T10:02:52Z</time></trkpt><trkpt lat="44.5258337849896" lon="8.618035507669575"><ele>497.6</ele><time>2026-04-09T10:02:53Z</time></trkpt><trkpt lat="44.52592545703538" lon="8.61801434120008"><ele>494.8</ele><time>2026-04-09T10:02:54Z</time></trkpt><trkpt lat="44.526013500835205" lon="8.618038977549828"><ele>492.0</ele><time>2026-04-09T10:02:55Z</time></trkpt><trkpt lat="44.526103824477886" lon="8.618102612077314"><ele>492.0</ele><time>2026-04-09T10:02:56Z</time></trkpt><trkpt lat="44.526183293060946" lon="8.618204917697243"><ele>492.00000000000006</ele><time>2026-04-09T10:02:57Z</time></trkpt><trkpt lat="44.5262329855074" lon="8.618333481055931"><ele>492.00000000000006</ele><time>2026-04-09T10:02:58Z</time></trkpt><trkpt lat="44.526276880617324" lon="8.618477470038393"><ele>492.0</ele><time>2026-04-09T10:02:59Z</time></trkpt><trkpt lat="44.52633141911366" lon="8.618619454901186"><ele>492.0</ele><time>2026-04-09T10:03:00Z</time></trkpt><trkpt lat="44.52640130730093" lon="8.6187358647516"><ele>494.75</ele><time>2026-04-09T10:03:01Z</time></trkpt><trkpt lat="44.526494608885244" lon="8.618813437332086"><ele>497.5</ele><time>2026-04-09T10:03:02Z</time></trkpt><trkpt lat="44.5266171950677" lon="8.61883963716526"><ele>500.25</ele><time>2026-04-09T10:03:03Z</time></trkpt><trkpt lat="44.52675241230092" lon="8.61884042998156"><ele>503.0</ele><time>2026-04-09T10:03:04Z</time></trkpt><trkpt lat="44.52689247187371" lon="8.618852902268172"><ele>503.0</ele><time>2026-04-09T10:03:05Z</time></trkpt><trkpt lat="44.52703336058342" lon="8.618884025763768"><ele>503.0</ele><time>2026-04-09T10:03:06Z</time></trkpt><trkpt lat="44.527169360562496" lon="8.618929482971353"><ele>503.0</ele><time>2026-04-09T10:03:07Z</time></trkpt><trkpt lat="44.52728619526355" lon="8.618993509650261"><ele>503.0</ele><time>2026-04-09T10:03:08Z</time></trkpt><trkpt lat="44.52739173801128" lon="8.619067550083615"><ele>500.4</ele><time>2026-04-09T10:03:09Z</time></trkpt><trkpt lat="44.527485639708715" lon="8.619127154918958"><ele>497.79999999999995</ele><time>2026-04-09T10:03:10Z</time></trkpt><trkpt lat="44.527574228111625" lon="8.61918595699263"><ele>495.2</ele><time>2026-04-09T10:03:11Z</time></trkpt><trkpt lat="44.52765818958072" lon="8.619214164135531"><ele>492.6</ele><time>2026-04-09T10:03:12Z</time></trkpt><trkpt lat="44.52773853596029" lon="8.619198918816426"><ele>490.0</ele><time>2026-04-09T10:03:13Z</time></trkpt><trkpt lat="44.5278263383958" lon="8.61915075485951"><ele>490.0</ele><time>2026-04-09T10:03:14Z</time></trkpt><trkpt lat="44.52788676302743" lon="8.618999481460694"><ele>490.0</ele><time>2026-04-09T10:03:15Z</time></trkpt><trkpt lat="44.527933822898206" lon="8.618858676723777"><ele>490.0</ele><time>2026-04-09T10:03:16Z</time></trkpt><trkpt lat="44.52800096675155" lon="8.618721442098279"><ele>490.0</ele><time>2026-04-09T10:03:17Z</time></trkpt><trkpt lat="44.528057104583844" lon="8.618572771770985"><ele>488.25</ele><time>2026-04-09T10:03:18Z</time></trkpt><trkpt lat="44.52811722988074" lon="8.6184140781053"><ele>486.5</ele><time>2026-04-09T10:03:19Z</time></trkpt><trkpt lat="44.52817213234121" lon="8.61824068111956"><ele>484.75</ele><time>2026-04-09T10:03:20Z</time></trkpt><trkpt lat="44.528243788814855" lon="8.618084778618707"><ele>483.0</ele><time>2026-04-09T10:03:21Z</time></trkpt><trkpt lat="44.528307894094965" lon="8.617920751857039"><ele>482.5</ele><time>2026-04-09T10:03:22Z</time></trkpt><trkpt lat="44.528363411704866" lon="8.617752239472988"><ele>482.0</ele><time>2026-04-09T10:03:23Z</time></trkpt><trkpt lat="44.52839222317429" lon="8.617568966132316"><ele>481.5</ele><time>2026-04-09T10:03:24Z</time></trkpt><trkpt lat="44.528400335914476" lon="8.617381550543296"><ele>481.0</ele><time>2026-04-09T10:03:25Z</time></trkpt><trkpt lat="44.52838520014639" lon="8.617192215604693"><ele>481.0</ele><time>2026-04-09T10:03:26Z</time></trkpt><trkpt lat="44.528351177442175" lon="8.617004325958296"><ele>481.0</ele><time>2026-04-09T10:03:27Z</time></trkpt><trkpt lat="44.528291533801294" lon="8.61683431925869"><ele>481.0</ele><time>2026-04-09T10:03:28Z</time></trkpt><trkpt lat="44.52822215591571" lon="8.616668817417127"><ele>481.0</ele><time>2026-04-09T10:03:29Z</time></trkpt><trkpt lat="44.528154698585574" lon="8.616512923451277"><ele>480.75</ele><time>2026-04-09T10:03:30Z</time></trkpt><trkpt lat="44.52809096638874" lon="8.616367728985344"><ele>480.5</ele><time>2026-04-09T10:03:31Z</time></trkpt><trkpt lat="44.52803273848606" lon="8.616233132116923"><ele>480.25</ele><time>2026-04-09T10:03:32Z</time></trkpt><trkpt lat="44.52797745963036" lon="8.616098745139535"><ele>480.0</ele><time>2026-04-09T10:03:33Z</time></trkpt><trkpt lat="44.52791716927081" lon="8.615973157257024"><ele>476.0</ele><time>2026-04-09T10:03:34Z</time></trkpt><trkpt lat="44.52784004306661" lon="8.61587517849773"><ele>472.0</ele><time>2026-04-09T10:03:35Z</time></trkpt><trkpt lat="44.52773524260705" lon="8.615810156993454"><ele>468.0</ele><time>2026-04-09T10:03:36Z</time></trkpt><trkpt lat="44.52761375207367" lon="8.615773578805285"><ele>464.0</ele><time>2026-04-09T10:03:37Z</time></trkpt><trkpt lat="44.52748803230776" lon="8.615737530491534"><ele>464.0</ele><time>2026-04-09T10:03:38Z</time></trkpt><trkpt lat="44.52736914275505" lon="8.615686170631436"><ele>464.0</ele><time>2026-04-09T10:03:39Z</time></trkpt><trkpt lat="44.52726916280548" lon="8.615595770829959"><ele>464.0</ele><time>2026-04-09T10:03:40Z</time></trkpt><trkpt lat="44.52719083811394" lon="8.615464722742114"><ele>464.0</ele><time>2026-04-09T10:03:41Z</time></trkpt><trkpt lat="44.52711839729942" lon="8.615297933641129"><ele>460.3333333333333</ele><time>2026-04-09T10:03:42Z</time></trkpt><trkpt lat="44.527038804560384" lon="8.615118026171004"><ele>456.66666666666663</ele><time>2026-04-09T10:03:43Z</time></trkpt><trkpt lat="44.5269402101137" lon="8.614940628598001"><ele>453.0</ele><time>2026-04-09T10:03:44Z</time></trkpt><trkpt lat="44.52684292657049" lon="8.614772112600136"><ele>453.0</ele><time>2026-04-09T10:03:45Z</time></trkpt><trkpt lat="44.52675505194827" lon="8.614616010759068"><ele>453.0</ele><time>2026-04-09T10:03:46Z</time></trkpt><trkpt lat="44.5266891923669" lon="8.614459897068572"><ele>453.0</ele><time>2026-04-09T10:03:47Z</time></trkpt><trkpt lat="44.52661781293382" lon="8.614337061099803"><ele>453.0</ele><time>2026-04-09T10:03:48Z</time></trkpt><trkpt lat="44.526597263713064" lon="8.614122538345473"><ele>453.25</ele><time>2026-04-09T10:03:49Z</time></trkpt><trkpt lat="44.52657457146532" lon="8.613931021772338"><ele>453.5</ele><time>2026-04-09T10:03:50Z</time></trkpt><trkpt lat="44.52653509309837" lon="8.613748997305033"><ele>453.75</ele><time>2026-04-09T10:03:51Z</time></trkpt><trkpt lat="44.52649471017162" lon="8.61356265212389"><ele>454.0</ele><time>2026-04-09T10:03:52Z</time></trkpt><trkpt lat="44.52643412054623" lon="8.613396017438532"><ele>452.4</ele><time>2026-04-09T10:03:53Z</time></trkpt><trkpt lat="44.526349477144706" lon="8.61326336752151"><ele>450.79999999999995</ele><time>2026-04-09T10:03:54Z</time></trkpt><trkpt lat="44.526266878449036" lon="8.613154022524323"><ele>449.20000000000005</ele><time>2026-04-09T10:03:55Z</time></trkpt><trkpt lat="44.52618783297679" lon="8.613074435343025"><ele>447.6</ele><time>2026-04-09T10:03:56Z</time></trkpt><trkpt lat="44.5261287006045" lon="8.612999763685046"><ele>446.0</ele><time>2026-04-09T10:03:57Z</time></trkpt><trkpt lat="44.526102885857036" lon="8.612913839156546"><ele>446.0</ele><time>2026-04-09T10:03:58Z</time></trkpt><trkpt lat="44.526117519334115" lon="8.612809242236276"><ele>446.0</ele><time>2026-04-09T10:03:59Z</time></trkpt><trkpt lat="44.526177423431626" lon="8.612737614557613"><ele>446.0</ele><time>2026-04-09T10:04:00Z</time></trkpt><trkpt lat="44.52626299605094" lon="8.6127073390271"><ele>446.0</ele><time>2026-04-09T10:04:01Z</time></trkpt><trkpt lat="44.52636258425398" lon="8.612753428177832"><ele>446.0</ele><time>2026-04-09T10:04:02Z</time></trkpt><trkpt lat="44.52641829494027" lon="8.612895297697696"><ele>446.0</ele><time>2026-04-09T10:04:03Z</time></trkpt><trkpt lat="44.52649303183366" lon="8.613025151120372"><ele>446.0</ele><time>2026-04-09T10:04:04Z</time></trkpt><trkpt lat="44.526584698238615" lon="8.613159120352002"><ele>446.0</ele><time>2026-04-09T10:04:05Z</time></trkpt><trkpt lat="44.526670310574445" lon="8.613281449656284"><ele>446.0</ele><time>2026-04-09T10:04:06Z</time></trkpt><trkpt lat="44.52676265625123" lon="8.613360250833365"><ele>446.0</ele><time>2026-04-09T10:04:07Z</time></trkpt><trkpt lat="44.526867662492656" lon="8.613387190300012"><ele>446.0</ele><time>2026-04-09T10:04:08Z</time></trkpt><trkpt lat="44.526976663686014" lon="8.613352040986522"><ele>446.0</ele><time>2026-04-09T10:04:09Z</time></trkpt><trkpt lat="44.52706915944677" lon="8.613257756882897"><ele>446.0</ele><time>2026-04-09T10:04:10Z</time></trkpt><trkpt lat="44.527130355223036" lon="8.613130936434047"><ele>446.0</ele><time>2026-04-09T10:04:11Z</time></trkpt><trkpt lat="44.527133527888644" lon="8.612915508154204"><ele>448.25</ele><time>2026-04-09T10:04:12Z</time></trkpt><trkpt lat="44.527112642233206" lon="8.612729233810231"><ele>450.5</ele><time>2026-04-09T10:04:13Z</time></trkpt><trkpt lat="44.527085788049604" lon="8.612538769957457"><ele>452.75</ele><time>2026-04-09T10:04:14Z</time></trkpt><trkpt lat="44.52707014893305" lon="8.61234698724625"><ele>455.0</ele><time>2026-04-09T10:04:15Z</time></trkpt><trkpt lat="44.52705490841105" lon="8.612162726398733"><ele>447.75</ele><time>2026-04-09T10:04:16Z</time></trkpt><trkpt lat="44.52704358204105" lon="8.611980334294838"><ele>440.5</ele><time>2026-04-09T10:04:17Z</time></trkpt><trkpt lat="44.52703117956165" lon="8.61181361524524"><ele>433.25</ele><time>2026-04-09T10:04:18Z</time></trkpt><trkpt lat="44.52702151110804" lon="8.611648770782033"><ele>426.0</ele><time>2026-04-09T10:04:19Z</time></trkpt><trkpt lat="44.52701236343301" lon="8.611487241004129"><ele>426.0</ele><time>2026-04-09T10:04:20Z</time></trkpt><trkpt lat="44.52699940108182" lon="8.611331594678191"><ele>426.0</ele><time>2026-04-09T10:04:21Z</time></trkpt><trkpt lat="44.52698806945811" lon="8.611176368825205"><ele>426.0</ele><time>2026-04-09T10:04:22Z</time></trkpt><trkpt lat="44.526978894371744" lon="8.61103816931329"><ele>426.0</ele><time>2026-04-09T10:04:23Z</time></trkpt><trkpt lat="44.526984891078655" lon="8.61090726545238"><ele>426.0</ele><time>2026-04-09T10:04:24Z</time></trkpt><trkpt lat="44.52702410430912" lon="8.610788201228646"><ele>429.20000000000005</ele><time>2026-04-09T10:04:25Z</time></trkpt><trkpt lat="44.5270710034272" lon="8.610666696256143"><ele>432.40000000000003</ele><time>2026-04-09T10:04:26Z</time></trkpt><trkpt lat="44.52713467170175" lon="8.610560767486787"><ele>435.6</ele><time>2026-04-09T10:04:27Z</time></trkpt><trkpt lat="44.52721914209466" lon="8.610477198144554"><ele>438.8</ele><time>2026-04-09T10:04:28Z</time></trkpt><trkpt lat="44.52731569151358" lon="8.610415653516254"><ele>442.0</ele><time>2026-04-09T10:04:29Z</time></trkpt><trkpt lat="44.527415025319506" lon="8.61036215333865"><ele>439.00000000000006</ele><time>2026-04-09T10:04:30Z</time></trkpt><trkpt lat="44.5275050575016" lon="8.610311450522008"><ele>436.0</ele><time>2026-04-09T10:04:31Z</time></trkpt><trkpt lat="44.52758360405845" lon="8.61025887401205"><ele>433.0</ele><time>2026-04-09T10:04:32Z</time></trkpt><trkpt lat="44.52764802704225" lon="8.610212448372062"><ele>430.0</ele><time>2026-04-09T10:04:33Z</time></trkpt><trkpt lat="44.527706671205216" lon="8.610170846629485"><ele>427.00000000000006</ele><time>2026-04-09T10:04:34Z</time></trkpt><trkpt lat="44.52778236341581" lon="8.610045540704233"><ele>424.0</ele><time>2026-04-09T10:04:36Z</time></trkpt><trkpt lat="44.52778521373496" lon="8.609949651460377"><ele>424.00000000000006</ele><time>2026-04-09T10:04:37Z</time></trkpt><trkpt lat="44.52775700859913" lon="8.609850521046303"><ele>424.0</ele><time>2026-04-09T10:04:38Z</time></trkpt><trkpt lat="44.52771120862545" lon="8.6097712383596"><ele>424.0</ele><time>2026-04-09T10:04:39Z</time></trkpt><trkpt lat="44.52763699368955" lon="8.6097321142037"><ele>424.0</ele><time>2026-04-09T10:04:40Z</time></trkpt><trkpt lat="44.52754230272273" lon="8.609734290782175"><ele>424.00000000000006</ele><time>2026-04-09T10:04:41Z</time></trkpt><trkpt lat="44.5274461509374" lon="8.609769938680124"><ele>424.0</ele><time>2026-04-09T10:04:42Z</time></trkpt><trkpt lat="44.52735635987411" lon="8.609798151408802"><ele>424.00000000000006</ele><time>2026-04-09T10:04:43Z</time></trkpt><trkpt lat="44.527276651867375" lon="8.60981991778699"><ele>424.0</ele><time>2026-04-09T10:04:44Z</time></trkpt><trkpt lat="44.527200859097704" lon="8.609839571100286"><ele>424.0</ele><time>2026-04-09T10:04:45Z</time></trkpt><trkpt lat="44.52712691210221" lon="8.609859848267615"><ele>424.0</ele><time>2026-04-09T10:04:46Z</time></trkpt><trkpt lat="44.52705558795426" lon="8.609875441228617"><ele>424.00000000000006</ele><time>2026-04-09T10:04:47Z</time></trkpt><trkpt lat="44.52697271705328" lon="8.609920412765414"><ele>424.0</ele><time>2026-04-09T10:04:48Z</time></trkpt><trkpt lat="44.526878767716795" lon="8.60997970443714"><ele>420.4</ele><time>2026-04-09T10:04:49Z</time></trkpt><trkpt lat="44.52679115096816" lon="8.61006060511756"><ele>416.79999999999995</ele><time>2026-04-09T10:04:50Z</time></trkpt><trkpt lat="44.52669403824327" lon="8.610123692873046"><ele>413.20000000000005</ele><time>2026-04-09T10:04:51Z</time></trkpt><trkpt lat="44.52660705113348" lon="8.610192713977005"><ele>409.6</ele><time>2026-04-09T10:04:52Z</time></trkpt><trkpt lat="44.52652341718464" lon="8.61026492082204"><ele>406.0</ele><time>2026-04-09T10:04:53Z</time></trkpt><trkpt lat="44.52642456057704" lon="8.61025549407647"><ele>406.00000000000006</ele><time>2026-04-09T10:04:54Z</time></trkpt><trkpt lat="44.526332976066456" lon="8.610242340922735"><ele>406.0</ele><time>2026-04-09T10:04:55Z</time></trkpt><trkpt lat="44.52625295786443" lon="8.610230194050768"><ele>406.0</ele><time>2026-04-09T10:04:56Z</time></trkpt><trkpt lat="44.5261881504661" lon="8.610182168358673"><ele>406.0</ele><time>2026-04-09T10:04:57Z</time></trkpt><trkpt lat="44.52612121370929" lon="8.61009213020452"><ele>406.00000000000006</ele><time>2026-04-09T10:04:59Z</time></trkpt><trkpt lat="44.52607464886719" lon="8.61000539502059"><ele>406.0</ele><time>2026-04-09T10:05:01Z</time></trkpt><trkpt lat="44.52603449253122" lon="8.60992607677878"><ele>404.0</ele><time>2026-04-09T10:05:02Z</time></trkpt><trkpt lat="44.52599666542247" lon="8.609827975875065"><ele>402.0</ele><time>2026-04-09T10:05:03Z</time></trkpt><trkpt lat="44.525962787095914" lon="8.609715553584298"><ele>400.0</ele><time>2026-04-09T10:05:04Z</time></trkpt><trkpt lat="44.525929705831096" lon="8.609586500608486"><ele>398.0</ele><time>2026-04-09T10:05:05Z</time></trkpt><trkpt lat="44.52589404720811" lon="8.609455442731834"><ele>396.0</ele><time>2026-04-09T10:05:06Z</time></trkpt><trkpt lat="44.525860474754346" lon="8.609320755491487"><ele>394.6666666666667</ele><time>2026-04-09T10:05:07Z</time></trkpt><trkpt lat="44.52582758659135" lon="8.609196797739598"><ele>393.33333333333337</ele><time>2026-04-09T10:05:08Z</time></trkpt><trkpt lat="44.525795724536955" lon="8.60909497279381"><ele>392.0</ele><time>2026-04-09T10:05:09Z</time></trkpt><trkpt lat="44.52576823571616" lon="8.609006500428691"><ele>390.6666666666667</ele><time>2026-04-09T10:05:10Z</time></trkpt><trkpt lat="44.52572572256759" lon="8.608853709314635"><ele>389.33333333333337</ele><time>2026-04-09T10:05:12Z</time></trkpt><trkpt lat="44.52569838868621" lon="8.60876521591371"><ele>388.0</ele><time>2026-04-09T10:05:13Z</time></trkpt><trkpt lat="44.52567301486426" lon="8.608660985254561"><ele>387.6666666666667</ele><time>2026-04-09T10:05:14Z</time></trkpt><trkpt lat="44.52564786064403" lon="8.608570806423844"><ele>387.33333333333337</ele><time>2026-04-09T10:05:15Z</time></trkpt><trkpt lat="44.52561562074881" lon="8.608468233459563"><ele>387.0</ele><time>2026-04-09T10:05:16Z</time></trkpt><trkpt lat="44.525586118296125" lon="8.608370748600652"><ele>386.66666666666663</ele><time>2026-04-09T10:05:17Z</time></trkpt><trkpt lat="44.52555917073792" lon="8.608266914771495"><ele>386.3333333333333</ele><time>2026-04-09T10:05:18Z</time></trkpt><trkpt lat="44.52553136601688" lon="8.608157457892528"><ele>386.0</ele><time>2026-04-09T10:05:19Z</time></trkpt><trkpt lat="44.52550297465111" lon="8.60804131134212"><ele>386.0</ele><time>2026-04-09T10:05:20Z</time></trkpt><trkpt lat="44.52547281208689" lon="8.607941410461683"><ele>386.0</ele><time>2026-04-09T10:05:21Z</time></trkpt><trkpt lat="44.52544047177559" lon="8.607837378247309"><ele>386.0</ele><time>2026-04-09T10:05:22Z</time></trkpt><trkpt lat="44.525368773037705" lon="8.607711548829927"><ele>386.0</ele><time>2026-04-09T10:05:24Z</time></trkpt><trkpt lat="44.52526762113904" lon="8.607596568932316"><ele>386.0</ele><time>2026-04-09T10:05:26Z</time></trkpt><trkpt lat="44.525198402318686" lon="8.607528030514796"><ele>388.4</ele><time>2026-04-09T10:05:27Z</time></trkpt><trkpt lat="44.525114662687265" lon="8.607494643105676"><ele>390.8</ele><time>2026-04-09T10:05:28Z</time></trkpt><trkpt lat="44.52501888771206" lon="8.607469380386675"><ele>393.2</ele><time>2026-04-09T10:05:29Z</time></trkpt><trkpt lat="44.524912582535556" lon="8.607450276031113"><ele>395.59999999999997</ele><time>2026-04-09T10:05:30Z</time></trkpt><trkpt lat="44.52481026145618" lon="8.607407294555497"><ele>398.0</ele><time>2026-04-09T10:05:31Z</time></trkpt><trkpt lat="44.52470059322109" lon="8.60739638184464"><ele>398.0</ele><time>2026-04-09T10:05:32Z</time></trkpt><trkpt lat="44.52458530623122" lon="8.6073961402"><ele>398.0</ele><time>2026-04-09T10:05:33Z</time></trkpt><trkpt lat="44.52447680824646" lon="8.607409369457287"><ele>398.0</ele><time>2026-04-09T10:05:34Z</time></trkpt><trkpt lat="44.524365519684366" lon="8.607424270412112"><ele>398.0</ele><time>2026-04-09T10:05:35Z</time></trkpt><trkpt lat="44.5242643852772" lon="8.607435182942284"><ele>398.0</ele><time>2026-04-09T10:05:36Z</time></trkpt><trkpt lat="44.52417179607282" lon="8.607475320244149"><ele>399.79999999999995</ele><time>2026-04-09T10:05:37Z</time></trkpt><trkpt lat="44.52407647565682" lon="8.60747298555136"><ele>401.6</ele><time>2026-04-09T10:05:38Z</time></trkpt><trkpt lat="44.5239791753074" lon="8.607490112999699"><ele>403.4</ele><time>2026-04-09T10:05:39Z</time></trkpt><trkpt lat="44.52388488490647" lon="8.607529950710417"><ele>405.20000000000005</ele><time>2026-04-09T10:05:40Z</time></trkpt><trkpt lat="44.52380093297978" lon="8.60760634344944"><ele>407.0</ele><time>2026-04-09T10:05:41Z</time></trkpt><trkpt lat="44.52372162572381" lon="8.607714369724576"><ele>409.75</ele><time>2026-04-09T10:05:42Z</time></trkpt><trkpt lat="44.5236458176595" lon="8.6078405617572"><ele>412.5</ele><time>2026-04-09T10:05:43Z</time></trkpt><trkpt lat="44.52356719963482" lon="8.607964773661477"><ele>415.25</ele><time>2026-04-09T10:05:44Z</time></trkpt><trkpt lat="44.523486219861994" lon="8.60809248422386"><ele>418.0</ele><time>2026-04-09T10:05:45Z</time></trkpt><trkpt lat="44.523406046513884" lon="8.608220483265162"><ele>418.0</ele><time>2026-04-09T10:05:46Z</time></trkpt><trkpt lat="44.52332538184924" lon="8.608356394645845"><ele>418.0</ele><time>2026-04-09T10:05:47Z</time></trkpt><trkpt lat="44.523235597932505" lon="8.608478590528275"><ele>418.0</ele><time>2026-04-09T10:05:48Z</time></trkpt><trkpt lat="44.52313622045008" lon="8.608594974165568"><ele>418.0</ele><time>2026-04-09T10:05:49Z</time></trkpt><trkpt lat="44.52303516436689" lon="8.608689058374113"><ele>420.5</ele><time>2026-04-09T10:05:50Z</time></trkpt><trkpt lat="44.522921793967974" lon="8.608777600089264"><ele>423.0</ele><time>2026-04-09T10:05:51Z</time></trkpt><trkpt lat="44.52281391843091" lon="8.608857581927543"><ele>425.5</ele><time>2026-04-09T10:05:52Z</time></trkpt><trkpt lat="44.522707175307175" lon="8.608936462128373"><ele>428.0</ele><time>2026-04-09T10:05:53Z</time></trkpt><trkpt lat="44.5226128046161" lon="8.609012077313594"><ele>428.0</ele><time>2026-04-09T10:05:54Z</time></trkpt><trkpt lat="44.522526481357964" lon="8.609081052860184"><ele>427.99999999999994</ele><time>2026-04-09T10:05:55Z</time></trkpt><trkpt lat="44.52243836742984" lon="8.609154052748718"><ele>427.99999999999994</ele><time>2026-04-09T10:05:56Z</time></trkpt><trkpt lat="44.52234192029038" lon="8.609242161803962"><ele>428.0</ele><time>2026-04-09T10:05:57Z</time></trkpt><trkpt lat="44.52226557204036" lon="8.609340700317157"><ele>428.0</ele><time>2026-04-09T10:05:58Z</time></trkpt><trkpt lat="44.52219963728326" lon="8.6094637211293"><ele>428.79999999999995</ele><time>2026-04-09T10:05:59Z</time></trkpt><trkpt lat="44.522167102206055" lon="8.609611465478544"><ele>429.59999999999997</ele><time>2026-04-09T10:06:00Z</time></trkpt><trkpt lat="44.522131519615264" lon="8.609756572096424"><ele>430.40000000000003</ele><time>2026-04-09T10:06:01Z</time></trkpt><trkpt lat="44.5221040417357" lon="8.609889363188628"><ele>431.20000000000005</ele><time>2026-04-09T10:06:02Z</time></trkpt><trkpt lat="44.522068280012235" lon="8.610033287375662"><ele>432.0</ele><time>2026-04-09T10:06:03Z</time></trkpt><trkpt lat="44.52199633834989" lon="8.610145340203774"><ele>432.0</ele><time>2026-04-09T10:06:04Z</time></trkpt><trkpt lat="44.52189065504412" lon="8.610207838311988"><ele>432.00000000000006</ele><time>2026-04-09T10:06:05Z</time></trkpt><trkpt lat="44.52179075364953" lon="8.610252293044269"><ele>432.00000000000006</ele><time>2026-04-09T10:06:06Z</time></trkpt><trkpt lat="44.521682712237016" lon="8.610295768416615"><ele>432.0</ele><time>2026-04-09T10:06:07Z</time></trkpt><trkpt lat="44.521573273999714" lon="8.610354188943612"><ele>432.0</ele><time>2026-04-09T10:06:08Z</time></trkpt><trkpt lat="44.52145501805099" lon="8.610383089465744"><ele>433.75</ele><time>2026-04-09T10:06:09Z</time></trkpt><trkpt lat="44.521336999610156" lon="8.610413974980597"><ele>435.5</ele><time>2026-04-09T10:06:10Z</time></trkpt><trkpt lat="44.521226185533465" lon="8.610423184442748"><ele>437.25</ele><time>2026-04-09T10:06:11Z</time></trkpt><trkpt lat="44.521110208863746" lon="8.610410964273147"><ele>439.0</ele><time>2026-04-09T10:06:12Z</time></trkpt><trkpt lat="44.52098974232537" lon="8.610360164481957"><ele>438.75</ele><time>2026-04-09T10:06:13Z</time></trkpt><trkpt lat="44.52086894601333" lon="8.610314833982107"><ele>438.5</ele><time>2026-04-09T10:06:14Z</time></trkpt><trkpt lat="44.520744631928956" lon="8.610266129410032"><ele>438.25</ele><time>2026-04-09T10:06:15Z</time></trkpt><trkpt lat="44.52059737359973" lon="8.610221471094091"><ele>438.0</ele><time>2026-04-09T10:06:16Z</time></trkpt><trkpt lat="44.520455438448266" lon="8.610152127380585"><ele>442.0</ele><time>2026-04-09T10:06:17Z</time></trkpt><trkpt lat="44.52031372419069" lon="8.610105538935468"><ele>446.0</ele><time>2026-04-09T10:06:18Z</time></trkpt><trkpt lat="44.5201699250918" lon="8.610057964504493"><ele>450.0</ele><time>2026-04-09T10:06:19Z</time></trkpt><trkpt lat="44.52001161630519" lon="8.61000750476854"><ele>450.0</ele><time>2026-04-09T10:06:20Z</time></trkpt><trkpt lat="44.51986244919121" lon="8.609958647526643"><ele>450.0</ele><time>2026-04-09T10:06:21Z</time></trkpt><trkpt lat="44.519706117085626" lon="8.609902043473095"><ele>450.0</ele><time>2026-04-09T10:06:22Z</time></trkpt><trkpt lat="44.51956626266316" lon="8.60985421562589"><ele>452.75</ele><time>2026-04-09T10:06:23Z</time></trkpt><trkpt lat="44.51943086822741" lon="8.6098100299465"><ele>455.5</ele><time>2026-04-09T10:06:24Z</time></trkpt><trkpt lat="44.51930556009238" lon="8.609755703844035"><ele>458.25</ele><time>2026-04-09T10:06:25Z</time></trkpt><trkpt lat="44.519191437530246" lon="8.609692252033138"><ele>461.0</ele><time>2026-04-09T10:06:26Z</time></trkpt><trkpt lat="44.5190943820741" lon="8.609604889120302"><ele>461.0</ele><time>2026-04-09T10:06:27Z</time></trkpt><trkpt lat="44.51901982698737" lon="8.609495302255375"><ele>461.0</ele><time>2026-04-09T10:06:28Z</time></trkpt><trkpt lat="44.51897256131416" lon="8.609352537675093"><ele>461.0</ele><time>2026-04-09T10:06:29Z</time></trkpt><trkpt lat="44.518953668563455" lon="8.60919959448566"><ele>461.0</ele><time>2026-04-09T10:06:30Z</time></trkpt><trkpt lat="44.518942753908426" lon="8.6090313910986"><ele>461.20000000000005</ele><time>2026-04-09T10:06:31Z</time></trkpt><trkpt lat="44.518927296446584" lon="8.60887732696729"><ele>461.40000000000003</ele><time>2026-04-09T10:06:32Z</time></trkpt><trkpt lat="44.5188744325194" lon="8.60874383314333"><ele>461.6</ele><time>2026-04-09T10:06:33Z</time></trkpt><trkpt lat="44.51879281886941" lon="8.608658511898149"><ele>461.8</ele><time>2026-04-09T10:06:34Z</time></trkpt><trkpt lat="44.518703277050214" lon="8.608575465312095"><ele>462.0</ele><time>2026-04-09T10:06:35Z</time></trkpt><trkpt lat="44.51859989546034" lon="8.608512366314027"><ele>462.0</ele><time>2026-04-09T10:06:36Z</time></trkpt><trkpt lat="44.5184841924232" lon="8.608487075391308"><ele>462.00000000000006</ele><time>2026-04-09T10:06:37Z</time></trkpt><trkpt lat="44.51837185036997" lon="8.60849213279878"><ele>462.00000000000006</ele><time>2026-04-09T10:06:38Z</time></trkpt><trkpt lat="44.5182738409334" lon="8.608549695860388"><ele>462.0</ele><time>2026-04-09T10:06:39Z</time></trkpt><trkpt lat="44.51818263874909" lon="8.608639048398295"><ele>462.0</ele><time>2026-04-09T10:06:40Z</time></trkpt><trkpt lat="44.51810545215324" lon="8.60875709842452"><ele>464.25</ele><time>2026-04-09T10:06:41Z</time></trkpt><trkpt lat="44.51804979363704" lon="8.608894747117734"><ele>466.5</ele><time>2026-04-09T10:06:42Z</time></trkpt><trkpt lat="44.51802063897615" lon="8.609050175863096"><ele>468.75</ele><time>2026-04-09T10:06:43Z</time></trkpt><trkpt lat="44.51801891199301" lon="8.609212652665423"><ele>471.0</ele><time>2026-04-09T10:06:44Z</time></trkpt><trkpt lat="44.51804556408236" lon="8.609374017867692"><ele>472.75</ele><time>2026-04-09T10:06:45Z</time></trkpt><trkpt lat="44.518090485638794" lon="8.609537536762684"><ele>474.5</ele><time>2026-04-09T10:06:46Z</time></trkpt><trkpt lat="44.518139551888744" lon="8.609702710749565"><ele>476.25</ele><time>2026-04-09T10:06:47Z</time></trkpt><trkpt lat="44.51818123714237" lon="8.609870629191592"><ele>478.0</ele><time>2026-04-09T10:06:48Z</time></trkpt><trkpt lat="44.518222163643074" lon="8.610039338162629"><ele>478.0</ele><time>2026-04-09T10:06:49Z</time></trkpt><trkpt lat="44.51825504681536" lon="8.610212365263967"><ele>478.0</ele><time>2026-04-09T10:06:50Z</time></trkpt><trkpt lat="44.51827906585045" lon="8.610390622618283"><ele>478.0</ele><time>2026-04-09T10:06:51Z</time></trkpt><trkpt lat="44.51829927292623" lon="8.61056709321486"><ele>478.0</ele><time>2026-04-09T10:06:52Z</time></trkpt><trkpt lat="44.518309601255325" lon="8.610733160475405"><ele>479.25</ele><time>2026-04-09T10:06:53Z</time></trkpt><trkpt lat="44.51832139586713" lon="8.610915099886052"><ele>480.5</ele><time>2026-04-09T10:06:54Z</time></trkpt><trkpt lat="44.518335196194634" lon="8.611107850647"><ele>481.75</ele><time>2026-04-09T10:06:55Z</time></trkpt><trkpt lat="44.518354763410095" lon="8.611278061027138"><ele>483.0</ele><time>2026-04-09T10:06:56Z</time></trkpt><trkpt lat="44.51837398906482" lon="8.611412066189683"><ele>483.59999999999997</ele><time>2026-04-09T10:06:57Z</time></trkpt><trkpt lat="44.51838644320834" lon="8.611553384223823"><ele>484.19999999999993</ele><time>2026-04-09T10:06:58Z</time></trkpt><trkpt lat="44.51838051111794" lon="8.611693569839018"><ele>484.8</ele><time>2026-04-09T10:06:59Z</time></trkpt><trkpt lat="44.51835954947304" lon="8.611842294308993"><ele>485.4</ele><time>2026-04-09T10:07:00Z</time></trkpt><trkpt lat="44.51830648636761" lon="8.611982820455825"><ele>486.0</ele><time>2026-04-09T10:07:01Z</time></trkpt><trkpt lat="44.51823094119065" lon="8.612115172336344"><ele>486.0</ele><time>2026-04-09T10:07:02Z</time></trkpt><trkpt lat="44.51813036941357" lon="8.612246855603628"><ele>486.0</ele><time>2026-04-09T10:07:03Z</time></trkpt><trkpt lat="44.51801747027821" lon="8.612375412416254"><ele>486.0</ele><time>2026-04-09T10:07:04Z</time></trkpt><trkpt lat="44.517897639652354" lon="8.612502628425359"><ele>486.0</ele><time>2026-04-09T10:07:05Z</time></trkpt><trkpt lat="44.517797870248906" lon="8.612615601576676"><ele>488.0</ele><time>2026-04-09T10:07:06Z</time></trkpt><trkpt lat="44.517708655262915" lon="8.612727264543173"><ele>490.0</ele><time>2026-04-09T10:07:07Z</time></trkpt><trkpt lat="44.517595119356805" lon="8.612825668233421"><ele>492.0</ele><time>2026-04-09T10:07:08Z</time></trkpt><trkpt lat="44.5174596968322" lon="8.612884237920401"><ele>494.0</ele><time>2026-04-09T10:07:09Z</time></trkpt><trkpt lat="44.51731466430869" lon="8.612942274359694"><ele>494.0</ele><time>2026-04-09T10:07:10Z</time></trkpt><trkpt lat="44.51715992886502" lon="8.613002159622193"><ele>494.0</ele><time>2026-04-09T10:07:11Z</time></trkpt><trkpt lat="44.51701721383583" lon="8.613044778291144"><ele>494.0</ele><time>2026-04-09T10:07:12Z</time></trkpt><trkpt lat="44.516879189246936" lon="8.61307696921682"><ele>494.0</ele><time>2026-04-09T10:07:13Z</time></trkpt><trkpt lat="44.516742820358424" lon="8.613098112809563"><ele>495.0</ele><time>2026-04-09T10:07:14Z</time></trkpt><trkpt lat="44.51661219278111" lon="8.61307854943488"><ele>496.0</ele><time>2026-04-09T10:07:15Z</time></trkpt><trkpt lat="44.51649851074381" lon="8.613028584534"><ele>497.0</ele><time>2026-04-09T10:07:16Z</time></trkpt><trkpt lat="44.51638299450335" lon="8.612955722424903"><ele>498.0</ele><time>2026-04-09T10:07:17Z</time></trkpt><trkpt lat="44.516298507286386" lon="8.612876139400736"><ele>499.5</ele><time>2026-04-09T10:07:18Z</time></trkpt><trkpt lat="44.51617095071071" lon="8.612782167199041"><ele>501.0</ele><time>2026-04-09T10:07:19Z</time></trkpt><trkpt lat="44.516049323960644" lon="8.61269047062661"><ele>502.5</ele><time>2026-04-09T10:07:20Z</time></trkpt><trkpt lat="44.515946116015584" lon="8.612603794850392"><ele>504.0</ele><time>2026-04-09T10:07:21Z</time></trkpt><trkpt lat="44.51584989645063" lon="8.612510142267665"><ele>504.0</ele><time>2026-04-09T10:07:22Z</time></trkpt><trkpt lat="44.51576744884947" lon="8.612392115786356"><ele>504.0</ele><time>2026-04-09T10:07:23Z</time></trkpt><trkpt lat="44.51570942139506" lon="8.612246867540847"><ele>504.0</ele><time>2026-04-09T10:07:24Z</time></trkpt><trkpt lat="44.51562757063005" lon="8.612102307037292"><ele>504.0</ele><time>2026-04-09T10:07:25Z</time></trkpt><trkpt lat="44.51552629596611" lon="8.611961550606086"><ele>505.0</ele><time>2026-04-09T10:07:26Z</time></trkpt><trkpt lat="44.51541183764267" lon="8.611831859760038"><ele>506.0</ele><time>2026-04-09T10:07:27Z</time></trkpt><trkpt lat="44.51529864448335" lon="8.611709253351812"><ele>507.0</ele><time>2026-04-09T10:07:28Z</time></trkpt><trkpt lat="44.51517900420607" lon="8.611579663149632"><ele>508.0</ele><time>2026-04-09T10:07:29Z</time></trkpt><trkpt lat="44.51504976355664" lon="8.611457566595668"><ele>508.0</ele><time>2026-04-09T10:07:30Z</time></trkpt><trkpt lat="44.51492386152841" lon="8.611330016064464"><ele>508.0</ele><time>2026-04-09T10:07:31Z</time></trkpt><trkpt lat="44.514799143752334" lon="8.611202371368112"><ele>508.0</ele><time>2026-04-09T10:07:32Z</time></trkpt><trkpt lat="44.51468401835866" lon="8.61105298821129"><ele>509.33333333333337</ele><time>2026-04-09T10:07:33Z</time></trkpt><trkpt lat="44.514561789406635" lon="8.610923496388294"><ele>510.66666666666663</ele><time>2026-04-09T10:07:34Z</time></trkpt><trkpt lat="44.51444043308796" lon="8.610794003079238"><ele>512.0</ele><time>2026-04-09T10:07:35Z</time></trkpt><trkpt lat="44.51431978119231" lon="8.610681012124585"><ele>512.0</ele><time>2026-04-09T10:07:36Z</time></trkpt><trkpt lat="44.51420240232987" lon="8.610556511219515"><ele>512.0</ele><time>2026-04-09T10:07:37Z</time></trkpt><trkpt lat="44.5140997830156" lon="8.610445799737912"><ele>512.0</ele><time>2026-04-09T10:07:38Z</time></trkpt><trkpt lat="44.514005383790284" lon="8.610342885159685"><ele>512.0</ele><time>2026-04-09T10:07:39Z</time></trkpt><trkpt lat="44.51390227884499" lon="8.610238105989664"><ele>513.75</ele><time>2026-04-09T10:07:40Z</time></trkpt><trkpt lat="44.513807809154876" lon="8.610127889102838"><ele>515.5</ele><time>2026-04-09T10:07:41Z</time></trkpt><trkpt lat="44.51369500443242" lon="8.610016324793813"><ele>517.25</ele><time>2026-04-09T10:07:42Z</time></trkpt><trkpt lat="44.51358522456852" lon="8.609902065023526"><ele>519.0</ele><time>2026-04-09T10:07:43Z</time></trkpt><trkpt lat="44.51347273765565" lon="8.609789684635842"><ele>519.0</ele><time>2026-04-09T10:07:44Z</time></trkpt><trkpt lat="44.51335899347388" lon="8.609687467410849"><ele>519.0</ele><time>2026-04-09T10:07:45Z</time></trkpt><trkpt lat="44.51324444949357" lon="8.609582919125256"><ele>519.0</ele><time>2026-04-09T10:07:46Z</time></trkpt><trkpt lat="44.51313294040716" lon="8.609475001659064"><ele>519.0</ele><time>2026-04-09T10:07:47Z</time></trkpt><trkpt lat="44.51302061890995" lon="8.609366908372747"><ele>518.75</ele><time>2026-04-09T10:07:48Z</time></trkpt><trkpt lat="44.51290462164198" lon="8.609260411544595"><ele>518.5</ele><time>2026-04-09T10:07:49Z</time></trkpt><trkpt lat="44.51278943089416" lon="8.609148714835856"><ele>518.25</ele><time>2026-04-09T10:07:50Z</time></trkpt><trkpt lat="44.5126753672219" lon="8.609046048227633"><ele>518.0</ele><time>2026-04-09T10:07:51Z</time></trkpt><trkpt lat="44.51256369330781" lon="8.608940325829934"><ele>518.0</ele><time>2026-04-09T10:07:52Z</time></trkpt><trkpt lat="44.51244696809277" lon="8.60883474997309"><ele>518.0</ele><time>2026-04-09T10:07:53Z</time></trkpt><trkpt lat="44.51232568134958" lon="8.608755388319567"><ele>518.0</ele><time>2026-04-09T10:07:54Z</time></trkpt><trkpt lat="44.51219865566643" lon="8.608677555493525"><ele>518.0</ele><time>2026-04-09T10:07:55Z</time></trkpt><trkpt lat="44.51206288353635" lon="8.60861591891082"><ele>519.0</ele><time>2026-04-09T10:07:56Z</time></trkpt><trkpt lat="44.51192371743711" lon="8.608562335018282"><ele>520.0</ele><time>2026-04-09T10:07:57Z</time></trkpt><trkpt lat="44.51179463010806" lon="8.608483749083844"><ele>521.0</ele><time>2026-04-09T10:07:58Z</time></trkpt><trkpt lat="44.51166211581222" lon="8.608422340427829"><ele>522.0</ele><time>2026-04-09T10:07:59Z</time></trkpt><trkpt lat="44.51153118414227" lon="8.608364714369596"><ele>522.0</ele><time>2026-04-09T10:08:00Z</time></trkpt><trkpt lat="44.511401896903294" lon="8.608315014542494"><ele>522.0</ele><time>2026-04-09T10:08:01Z</time></trkpt><trkpt lat="44.511275582568985" lon="8.608259690086106"><ele>522.0</ele><time>2026-04-09T10:08:02Z</time></trkpt><trkpt lat="44.511151256396055" lon="8.608187434166515"><ele>522.0</ele><time>2026-04-09T10:08:03Z</time></trkpt><trkpt lat="44.51103547392022" lon="8.608111389776656"><ele>523.25</ele><time>2026-04-09T10:08:04Z</time></trkpt><trkpt lat="44.510924152436154" lon="8.608018990522675"><ele>524.5</ele><time>2026-04-09T10:08:05Z</time></trkpt><trkpt lat="44.510808571673394" lon="8.607914383079981"><ele>525.75</ele><time>2026-04-09T10:08:06Z</time></trkpt><trkpt lat="44.5106908799266" lon="8.607805045265563"><ele>527.0</ele><time>2026-04-09T10:08:07Z</time></trkpt><trkpt lat="44.51057108756142" lon="8.607701466588129"><ele>527.0</ele><time>2026-04-09T10:08:08Z</time></trkpt><trkpt lat="44.51044774449993" lon="8.607605483401374"><ele>527.0</ele><time>2026-04-09T10:08:09Z</time></trkpt><trkpt lat="44.51030770832428" lon="8.607522582731155"><ele>527.0</ele><time>2026-04-09T10:08:10Z</time></trkpt><trkpt lat="44.51016380405431" lon="8.607448383742964"><ele>527.0</ele><time>2026-04-09T10:08:11Z</time></trkpt><trkpt lat="44.51002386980035" lon="8.607379022155355"><ele>524.25</ele><time>2026-04-09T10:08:12Z</time></trkpt><trkpt lat="44.5098877903827" lon="8.607310849368547"><ele>521.5</ele><time>2026-04-09T10:08:13Z</time></trkpt><trkpt lat="44.50975132823922" lon="8.607240268737739"><ele>518.75</ele><time>2026-04-09T10:08:14Z</time></trkpt><trkpt lat="44.50961650028479" lon="8.607176008994749"><ele>516.0</ele><time>2026-04-09T10:08:15Z</time></trkpt><trkpt lat="44.50947979726634" lon="8.607109264752165"><ele>515.25</ele><time>2026-04-09T10:08:16Z</time></trkpt><trkpt lat="44.5093549978117" lon="8.607053049901246"><ele>514.5</ele><time>2026-04-09T10:08:17Z</time></trkpt><trkpt lat="44.5092316796513" lon="8.60698440544009"><ele>513.75</ele><time>2026-04-09T10:08:18Z</time></trkpt><trkpt lat="44.50910630504191" lon="8.606913285702671"><ele>513.0</ele><time>2026-04-09T10:08:19Z</time></trkpt><trkpt lat="44.508986344254275" lon="8.606854552538392"><ele>514.4</ele><time>2026-04-09T10:08:20Z</time></trkpt><trkpt lat="44.50887183864419" lon="8.606798000614367"><ele>515.8</ele><time>2026-04-09T10:08:21Z</time></trkpt><trkpt lat="44.50877697602695" lon="8.60673419368718"><ele>517.2</ele><time>2026-04-09T10:08:22Z</time></trkpt><trkpt lat="44.50869474461342" lon="8.606658256757868"><ele>518.6</ele><time>2026-04-09T10:08:23Z</time></trkpt><trkpt lat="44.5086297002999" lon="8.606580412368622"><ele>520.0</ele><time>2026-04-09T10:08:24Z</time></trkpt><trkpt lat="44.50857022426116" lon="8.606474587395802"><ele>520.0</ele><time>2026-04-09T10:08:25Z</time></trkpt><trkpt lat="44.508510539451734" lon="8.606345928017175"><ele>520.0</ele><time>2026-04-09T10:08:26Z</time></trkpt><trkpt lat="44.508463971255246" lon="8.60619649287244"><ele>520.0</ele><time>2026-04-09T10:08:27Z</time></trkpt><trkpt lat="44.50840787164685" lon="8.60604490930356"><ele>520.0</ele><time>2026-04-09T10:08:28Z</time></trkpt><trkpt lat="44.508351140494355" lon="8.605875308841767"><ele>521.0</ele><time>2026-04-09T10:08:29Z</time></trkpt><trkpt lat="44.50829712050429" lon="8.60569737242443"><ele>522.0</ele><time>2026-04-09T10:08:30Z</time></trkpt><trkpt lat="44.50821931266154" lon="8.605521235990274"><ele>523.0</ele><time>2026-04-09T10:08:31Z</time></trkpt><trkpt lat="44.508139833303865" lon="8.60536267614108"><ele>524.0</ele><time>2026-04-09T10:08:32Z</time></trkpt><trkpt lat="44.50805833110962" lon="8.605225895379359"><ele>524.8</ele><time>2026-04-09T10:08:33Z</time></trkpt><trkpt lat="44.50798144934273" lon="8.605089993054317"><ele>525.5999999999999</ele><time>2026-04-09T10:08:34Z</time></trkpt><trkpt lat="44.50791262784313" lon="8.604983651637998"><ele>526.4</ele><time>2026-04-09T10:08:35Z</time></trkpt><trkpt lat="44.50786386063832" lon="8.604863073677242"><ele>527.1999999999999</ele><time>2026-04-09T10:08:36Z</time></trkpt><trkpt lat="44.50783977592894" lon="8.604737466417596"><ele>528.0</ele><time>2026-04-09T10:08:37Z</time></trkpt><trkpt lat="44.50783205662359" lon="8.604616252782364"><ele>526.8333333333334</ele><time>2026-04-09T10:08:38Z</time></trkpt><trkpt lat="44.50786231195062" lon="8.604501356820247"><ele>525.6666666666666</ele><time>2026-04-09T10:08:39Z</time></trkpt><trkpt lat="44.50791526073408" lon="8.604401159721988"><ele>524.5</ele><time>2026-04-09T10:08:40Z</time></trkpt><trkpt lat="44.507982314449265" lon="8.604320412717255"><ele>523.3333333333333</ele><time>2026-04-09T10:08:41Z</time></trkpt><trkpt lat="44.508060243455596" lon="8.604255867209417"><ele>522.1666666666666</ele><time>2026-04-09T10:08:42Z</time></trkpt><trkpt lat="44.50814463473016" lon="8.60420458744313"><ele>521.0</ele><time>2026-04-09T10:08:43Z</time></trkpt><trkpt lat="44.50822773588587" lon="8.604139657934097"><ele>521.0</ele><time>2026-04-09T10:08:44Z</time></trkpt><trkpt lat="44.50830953939261" lon="8.604073583838952"><ele>521.0</ele><time>2026-04-09T10:08:45Z</time></trkpt><trkpt lat="44.50840158115086" lon="8.604002291325454"><ele>521.0</ele><time>2026-04-09T10:08:46Z</time></trkpt><trkpt lat="44.508493915729396" lon="8.603905562926197"><ele>521.0</ele><time>2026-04-09T10:08:47Z</time></trkpt><trkpt lat="44.50856968675124" lon="8.603783436774775"><ele>521.0</ele><time>2026-04-09T10:08:48Z</time></trkpt><trkpt lat="44.50862016230284" lon="8.603614258445063"><ele>518.75</ele><time>2026-04-09T10:08:49Z</time></trkpt><trkpt lat="44.50865402283118" lon="8.60342486953168"><ele>516.5</ele><time>2026-04-09T10:08:50Z</time></trkpt><trkpt lat="44.50866921538421" lon="8.603224557372126"><ele>514.25</ele><time>2026-04-09T10:08:51Z</time></trkpt><trkpt lat="44.508689439816" lon="8.603014644511342"><ele>512.0</ele><time>2026-04-09T10:08:52Z</time></trkpt><trkpt lat="44.50871531607019" lon="8.602812948292453"><ele>512.0</ele><time>2026-04-09T10:08:53Z</time></trkpt><trkpt lat="44.50873878911833" lon="8.602640193568435"><ele>512.0</ele><time>2026-04-09T10:08:54Z</time></trkpt><trkpt lat="44.508750046104524" lon="8.602478517456483"><ele>512.0</ele><time>2026-04-09T10:08:55Z</time></trkpt><trkpt lat="44.50877801503731" lon="8.602328171872557"><ele>512.0</ele><time>2026-04-09T10:08:56Z</time></trkpt><trkpt lat="44.508806148861666" lon="8.602157452359975"><ele>515.25</ele><time>2026-04-09T10:08:57Z</time></trkpt><trkpt lat="44.50882706223818" lon="8.601983227730857"><ele>518.5</ele><time>2026-04-09T10:08:58Z</time></trkpt><trkpt lat="44.508840891225006" lon="8.601814013114078"><ele>521.75</ele><time>2026-04-09T10:08:59Z</time></trkpt><trkpt lat="44.50885341286562" lon="8.601651655746847"><ele>525.0</ele><time>2026-04-09T10:09:00Z</time></trkpt><trkpt lat="44.508847908895504" lon="8.601498431372828"><ele>525.0</ele><time>2026-04-09T10:09:01Z</time></trkpt><trkpt lat="44.50882669666281" lon="8.601347179344705"><ele>525.0</ele><time>2026-04-09T10:09:02Z</time></trkpt><trkpt lat="44.50877787283955" lon="8.60120617847698"><ele>525.0</ele><time>2026-04-09T10:09:03Z</time></trkpt><trkpt lat="44.50872424454719" lon="8.601059229947532"><ele>525.0</ele><time>2026-04-09T10:09:04Z</time></trkpt><trkpt lat="44.50866570587628" lon="8.600900413827988"><ele>521.0</ele><time>2026-04-09T10:09:05Z</time></trkpt><trkpt lat="44.50860796755156" lon="8.600731516993317"><ele>517.0</ele><time>2026-04-09T10:09:06Z</time></trkpt><trkpt lat="44.50855269051853" lon="8.600551486477835"><ele>513.0</ele><time>2026-04-09T10:09:07Z</time></trkpt><trkpt lat="44.50849588189274" lon="8.6003821534479"><ele>509.0</ele><time>2026-04-09T10:09:08Z</time></trkpt><trkpt lat="44.50844820506998" lon="8.600229542217091"><ele>509.0</ele><time>2026-04-09T10:09:09Z</time></trkpt><trkpt lat="44.50840208081961" lon="8.600096988991018"><ele>509.0</ele><time>2026-04-09T10:09:10Z</time></trkpt><trkpt lat="44.50835792231206" lon="8.599962926661002"><ele>509.0</ele><time>2026-04-09T10:09:11Z</time></trkpt><trkpt lat="44.508313078010715" lon="8.599832286161389"><ele>509.0</ele><time>2026-04-09T10:09:12Z</time></trkpt><trkpt lat="44.508268257117955" lon="8.599689540743801"><ele>509.0</ele><time>2026-04-09T10:09:13Z</time></trkpt><trkpt lat="44.50822388656766" lon="8.599538772875379"><ele>508.6</ele><time>2026-04-09T10:09:14Z</time></trkpt><trkpt lat="44.508168604264476" lon="8.599397843082164"><ele>508.2</ele><time>2026-04-09T10:09:15Z</time></trkpt><trkpt lat="44.508113094623724" lon="8.59926755816492"><ele>507.80000000000007</ele><time>2026-04-09T10:09:16Z</time></trkpt><trkpt lat="44.50805695934307" lon="8.599157001878167"><ele>507.40000000000003</ele><time>2026-04-09T10:09:17Z</time></trkpt><trkpt lat="44.507982609294245" lon="8.599053876788357"><ele>507.0</ele><time>2026-04-09T10:09:18Z</time></trkpt><trkpt lat="44.507882882486946" lon="8.598975199662625"><ele>507.0</ele><time>2026-04-09T10:09:19Z</time></trkpt><trkpt lat="44.50777349009652" lon="8.598916996838907"><ele>507.0</ele><time>2026-04-09T10:09:20Z</time></trkpt><trkpt lat="44.50765982646835" lon="8.598864445230992"><ele>507.0</ele><time>2026-04-09T10:09:21Z</time></trkpt><trkpt lat="44.50754290354296" lon="8.598801752067594"><ele>507.0</ele><time>2026-04-09T10:09:22Z</time></trkpt><trkpt lat="44.50742149728228" lon="8.598732028803028"><ele>507.75</ele><time>2026-04-09T10:09:23Z</time></trkpt><trkpt lat="44.50730163045183" lon="8.598665413351751"><ele>508.5</ele><time>2026-04-09T10:09:24Z</time></trkpt><trkpt lat="44.50717864100936" lon="8.598608350034402"><ele>509.25</ele><time>2026-04-09T10:09:25Z</time></trkpt><trkpt lat="44.507064156232964" lon="8.598543771268947"><ele>510.0</ele><time>2026-04-09T10:09:26Z</time></trkpt><trkpt lat="44.506962290719045" lon="8.59847979062024"><ele>510.0</ele><time>2026-04-09T10:09:27Z</time></trkpt><trkpt lat="44.50686355276407" lon="8.598427303849672"><ele>510.0</ele><time>2026-04-09T10:09:28Z</time></trkpt><trkpt lat="44.50676245203567" lon="8.598414870186836"><ele>510.0</ele><time>2026-04-09T10:09:29Z</time></trkpt><trkpt lat="44.506660089752785" lon="8.598457581326594"><ele>510.0</ele><time>2026-04-09T10:09:30Z</time></trkpt><trkpt lat="44.506545987571954" lon="8.59849072554493"><ele>510.0</ele><time>2026-04-09T10:09:31Z</time></trkpt><trkpt lat="44.506443180355454" lon="8.598522902461845"><ele>510.0</ele><time>2026-04-09T10:09:32Z</time></trkpt><trkpt lat="44.506346596332726" lon="8.598557239660149"><ele>510.0</ele><time>2026-04-09T10:09:33Z</time></trkpt><trkpt lat="44.50624553083852" lon="8.598581186889618"><ele>510.0</ele><time>2026-04-09T10:09:34Z</time></trkpt><trkpt lat="44.506147765882055" lon="8.59859141028311"><ele>510.0</ele><time>2026-04-09T10:09:35Z</time></trkpt><trkpt lat="44.50605660083947" lon="8.598622221539564"><ele>510.0</ele><time>2026-04-09T10:09:36Z</time></trkpt><trkpt lat="44.505982185195464" lon="8.598679548288116"><ele>507.75</ele><time>2026-04-09T10:09:37Z</time></trkpt><trkpt lat="44.505897067789036" lon="8.598748360161808"><ele>505.5</ele><time>2026-04-09T10:09:38Z</time></trkpt><trkpt lat="44.50582376223513" lon="8.598873009274206"><ele>503.25</ele><time>2026-04-09T10:09:39Z</time></trkpt><trkpt lat="44.50578164823839" lon="8.599036282154394"><ele>501.0</ele><time>2026-04-09T10:09:40Z</time></trkpt><trkpt lat="44.50577059028473" lon="8.599213257244868"><ele>501.0</ele><time>2026-04-09T10:09:41Z</time></trkpt><trkpt lat="44.505759710389455" lon="8.599386896948536"><ele>501.0</ele><time>2026-04-09T10:09:42Z</time></trkpt><trkpt lat="44.50573698098907" lon="8.59954650167179"><ele>501.0</ele><time>2026-04-09T10:09:43Z</time></trkpt><trkpt lat="44.50569289526187" lon="8.59969396245302"><ele>501.0</ele><time>2026-04-09T10:09:44Z</time></trkpt><trkpt lat="44.50563168841032" lon="8.599809085807962"><ele>498.4</ele><time>2026-04-09T10:09:45Z</time></trkpt><trkpt lat="44.5055543034403" lon="8.59989940714012"><ele>495.8</ele><time>2026-04-09T10:09:46Z</time></trkpt><trkpt lat="44.505468850615934" lon="8.599942198176437"><ele>493.19999999999993</ele><time>2026-04-09T10:09:47Z</time></trkpt><trkpt lat="44.50536724369366" lon="8.599956644315776"><ele>490.59999999999997</ele><time>2026-04-09T10:09:48Z</time></trkpt><trkpt lat="44.505264606254684" lon="8.59991169031418"><ele>488.0</ele><time>2026-04-09T10:09:49Z</time></trkpt><trkpt lat="44.5051521300099" lon="8.599897601809824"><ele>487.0</ele><time>2026-04-09T10:09:50Z</time></trkpt><trkpt lat="44.50503430572977" lon="8.59984491622577"><ele>486.0</ele><time>2026-04-09T10:09:51Z</time></trkpt><trkpt lat="44.50491246141144" lon="8.599800346420928"><ele>485.0</ele><time>2026-04-09T10:09:52Z</time></trkpt><trkpt lat="44.50478940068409" lon="8.599736902076753"><ele>484.0</ele><time>2026-04-09T10:09:53Z</time></trkpt><trkpt lat="44.504660722852016" lon="8.599680667073946"><ele>480.75</ele><time>2026-04-09T10:09:54Z</time></trkpt><trkpt lat="44.504510710983205" lon="8.599637673456513"><ele>477.5</ele><time>2026-04-09T10:09:55Z</time></trkpt><trkpt lat="44.50436680001736" lon="8.599592613570525"><ele>474.25</ele><time>2026-04-09T10:09:56Z</time></trkpt><trkpt lat="44.504218959979525" lon="8.599574556820096"><ele>471.0</ele><time>2026-04-09T10:09:57Z</time></trkpt><trkpt lat="44.50409540284254" lon="8.599512044545511"><ele>473.75</ele><time>2026-04-09T10:09:58Z</time></trkpt><trkpt lat="44.50395671198217" lon="8.599486056618938"><ele>476.5</ele><time>2026-04-09T10:09:59Z</time></trkpt><trkpt lat="44.50383157364774" lon="8.59948329437484"><ele>479.25</ele><time>2026-04-09T10:10:00Z</time></trkpt><trkpt lat="44.50371340656348" lon="8.599471815148059"><ele>482.0</ele><time>2026-04-09T10:10:01Z</time></trkpt><trkpt lat="44.50359893256082" lon="8.599463102804405"><ele>482.0</ele><time>2026-04-09T10:10:02Z</time></trkpt><trkpt lat="44.503485406962795" lon="8.59944472174619"><ele>482.0</ele><time>2026-04-09T10:10:03Z</time></trkpt><trkpt lat="44.50337654182859" lon="8.599379025633358"><ele>482.0</ele><time>2026-04-09T10:10:04Z</time></trkpt><trkpt lat="44.50324857855523" lon="8.5993362047256"><ele>482.0</ele><time>2026-04-09T10:10:05Z</time></trkpt><trkpt lat="44.50311998956938" lon="8.599263724962181"><ele>482.0</ele><time>2026-04-09T10:10:06Z</time></trkpt><trkpt lat="44.502993921207235" lon="8.59919515252034"><ele>482.0</ele><time>2026-04-09T10:10:07Z</time></trkpt><trkpt lat="44.50286949117772" lon="8.59913491712595"><ele>482.0</ele><time>2026-04-09T10:10:08Z</time></trkpt><trkpt lat="44.50276106650116" lon="8.599079851066"><ele>482.0</ele><time>2026-04-09T10:10:09Z</time></trkpt><trkpt lat="44.502654611245795" lon="8.599021682337126"><ele>479.0</ele><time>2026-04-09T10:10:10Z</time></trkpt><trkpt lat="44.502549294955664" lon="8.598964515585312"><ele>476.0</ele><time>2026-04-09T10:10:11Z</time></trkpt><trkpt lat="44.50243627839543" lon="8.598903817294557"><ele>473.0</ele><time>2026-04-09T10:10:12Z</time></trkpt><trkpt lat="44.502320993548835" lon="8.59884130773534"><ele>470.0</ele><time>2026-04-09T10:10:13Z</time></trkpt><trkpt lat="44.50220585060358" lon="8.598783009474523"><ele>470.0</ele><time>2026-04-09T10:10:14Z</time></trkpt><trkpt lat="44.50209094125284" lon="8.598729926919217"><ele>470.0</ele><time>2026-04-09T10:10:15Z</time></trkpt><trkpt lat="44.50197099964193" lon="8.598706430196602"><ele>470.0</ele><time>2026-04-09T10:10:16Z</time></trkpt><trkpt lat="44.50184168677664" lon="8.598713025699432"><ele>470.0</ele><time>2026-04-09T10:10:17Z</time></trkpt><trkpt lat="44.501717435646114" lon="8.598745382931323"><ele>469.5</ele><time>2026-04-09T10:10:18Z</time></trkpt><trkpt lat="44.501593667693356" lon="8.598788147162093"><ele>469.0</ele><time>2026-04-09T10:10:19Z</time></trkpt><trkpt lat="44.50146770219308" lon="8.598838798942692"><ele>468.5</ele><time>2026-04-09T10:10:20Z</time></trkpt><trkpt lat="44.50134004653639" lon="8.598860066184503"><ele>468.0</ele><time>2026-04-09T10:10:21Z</time></trkpt><trkpt lat="44.50122058564263" lon="8.598815173748283"><ele>467.25</ele><time>2026-04-09T10:10:22Z</time></trkpt><trkpt lat="44.501097811426895" lon="8.598755509102409"><ele>466.5</ele><time>2026-04-09T10:10:23Z</time></trkpt><trkpt lat="44.50096731109636" lon="8.598683977129603"><ele>465.75</ele><time>2026-04-09T10:10:24Z</time></trkpt><trkpt lat="44.50083175378824" lon="8.598609763409774"><ele>465.0</ele><time>2026-04-09T10:10:25Z</time></trkpt><trkpt lat="44.500689554611725" lon="8.598536642114349"><ele>468.75</ele><time>2026-04-09T10:10:26Z</time></trkpt><trkpt lat="44.50055999231861" lon="8.59845681550861"><ele>472.5</ele><time>2026-04-09T10:10:27Z</time></trkpt><trkpt lat="44.500429159279946" lon="8.598395348184358"><ele>476.25</ele><time>2026-04-09T10:10:28Z</time></trkpt><trkpt lat="44.500299643671774" lon="8.598336106736102"><ele>480.0</ele><time>2026-04-09T10:10:29Z</time></trkpt><trkpt lat="44.500173116380914" lon="8.598315430061987"><ele>480.0</ele><time>2026-04-09T10:10:30Z</time></trkpt><trkpt lat="44.50003909681931" lon="8.598313318860338"><ele>480.0</ele><time>2026-04-09T10:10:31Z</time></trkpt><trkpt lat="44.49991246499745" lon="8.598328048684689"><ele>480.0</ele><time>2026-04-09T10:10:32Z</time></trkpt><trkpt lat="44.49977514606446" lon="8.598398081278038"><ele>480.0</ele><time>2026-04-09T10:10:33Z</time></trkpt><trkpt lat="44.49964823469098" lon="8.598488965604737"><ele>478.75</ele><time>2026-04-09T10:10:34Z</time></trkpt><trkpt lat="44.49951994436337" lon="8.598585609693433"><ele>477.5</ele><time>2026-04-09T10:10:35Z</time></trkpt><trkpt lat="44.49940441301723" lon="8.598663760025234"><ele>476.25</ele><time>2026-04-09T10:10:36Z</time></trkpt><trkpt lat="44.499296855842076" lon="8.598729797896258"><ele>475.0</ele><time>2026-04-09T10:10:37Z</time></trkpt><trkpt lat="44.49918626131318" lon="8.598806862208189"><ele>475.0</ele><time>2026-04-09T10:10:38Z</time></trkpt><trkpt lat="44.499089150347196" lon="8.59888912434704"><ele>475.0</ele><time>2026-04-09T10:10:39Z</time></trkpt><trkpt lat="44.49900801162842" lon="8.598999960963642"><ele>475.0</ele><time>2026-04-09T10:10:40Z</time></trkpt><trkpt lat="44.498939770257934" lon="8.599150756178693"><ele>475.0</ele><time>2026-04-09T10:10:41Z</time></trkpt><trkpt lat="44.498889347049335" lon="8.599319718892836"><ele>475.0</ele><time>2026-04-09T10:10:42Z</time></trkpt><trkpt lat="44.49884155834823" lon="8.59949006638494"><ele>475.0</ele><time>2026-04-09T10:10:43Z</time></trkpt><trkpt lat="44.49877843831856" lon="8.599638854745487"><ele>475.0</ele><time>2026-04-09T10:10:44Z</time></trkpt><trkpt lat="44.49869108713894" lon="8.599779806800145"><ele>475.0</ele><time>2026-04-09T10:10:45Z</time></trkpt><trkpt lat="44.49858719697524" lon="8.599921062806777"><ele>475.25</ele><time>2026-04-09T10:10:46Z</time></trkpt><trkpt lat="44.498475309042625" lon="8.600081659404713"><ele>475.5</ele><time>2026-04-09T10:10:47Z</time></trkpt><trkpt lat="44.4983771478857" lon="8.600211873600564"><ele>475.75</ele><time>2026-04-09T10:10:48Z</time></trkpt><trkpt lat="44.49828421780697" lon="8.600309299765179"><ele>476.0</ele><time>2026-04-09T10:10:49Z</time></trkpt><trkpt lat="44.498205016236184" lon="8.600388468613746"><ele>476.0</ele><time>2026-04-09T10:10:50Z</time></trkpt><trkpt lat="44.49814322937658" lon="8.60049321325488"><ele>476.0</ele><time>2026-04-09T10:10:51Z</time></trkpt><trkpt lat="44.49810702806805" lon="8.60063183778117"><ele>476.0</ele><time>2026-04-09T10:10:52Z</time></trkpt><trkpt lat="44.49810807085202" lon="8.600806343490554"><ele>476.0</ele><time>2026-04-09T10:10:53Z</time></trkpt><trkpt lat="44.49812256524582" lon="8.600991569676154"><ele>478.0</ele><time>2026-04-09T10:10:54Z</time></trkpt><trkpt lat="44.498129871055994" lon="8.601176928744405"><ele>480.0</ele><time>2026-04-09T10:10:55Z</time></trkpt><trkpt lat="44.49813051225161" lon="8.601350661646562"><ele>482.0</ele><time>2026-04-09T10:10:56Z</time></trkpt><trkpt lat="44.498114519249754" lon="8.60151196166132"><ele>484.0</ele><time>2026-04-09T10:10:57Z</time></trkpt><trkpt lat="44.49805189041881" lon="8.601642882047267"><ele>484.0</ele><time>2026-04-09T10:10:58Z</time></trkpt><trkpt lat="44.497963127705255" lon="8.601757951796198"><ele>484.0</ele><time>2026-04-09T10:10:59Z</time></trkpt><trkpt lat="44.4978729994837" lon="8.601881403244187"><ele>484.0</ele><time>2026-04-09T10:11:00Z</time></trkpt><trkpt lat="44.49778969306402" lon="8.602013277201072"><ele>484.0</ele><time>2026-04-09T10:11:01Z</time></trkpt><trkpt lat="44.49771056681637" lon="8.602143891071862"><ele>483.6</ele><time>2026-04-09T10:11:02Z</time></trkpt><trkpt lat="44.49763841262049" lon="8.60225571498313"><ele>483.2</ele><time>2026-04-09T10:11:03Z</time></trkpt><trkpt lat="44.4975679920357" lon="8.602363133575418"><ele>482.80000000000007</ele><time>2026-04-09T10:11:04Z</time></trkpt><trkpt lat="44.49749974449049" lon="8.60246458015911"><ele>482.40000000000003</ele><time>2026-04-09T10:11:05Z</time></trkpt><trkpt lat="44.49743854971941" lon="8.602582366028788"><ele>482.0</ele><time>2026-04-09T10:11:06Z</time></trkpt><trkpt lat="44.49737045483664" lon="8.602692227332737"><ele>481.99999999999994</ele><time>2026-04-09T10:11:07Z</time></trkpt><trkpt lat="44.49731230845594" lon="8.602789400947092"><ele>482.0</ele><time>2026-04-09T10:11:08Z</time></trkpt><trkpt lat="44.49725178664634" lon="8.60288359475493"><ele>482.0</ele><time>2026-04-09T10:11:09Z</time></trkpt><trkpt lat="44.49719060543057" lon="8.602963221545204"><ele>482.0</ele><time>2026-04-09T10:11:10Z</time></trkpt><trkpt lat="44.49714163233011" lon="8.603066819583757"><ele>481.99999999999994</ele><time>2026-04-09T10:11:11Z</time></trkpt><trkpt lat="44.49710589485802" lon="8.603174073237133"><ele>482.0</ele><time>2026-04-09T10:11:12Z</time></trkpt><trkpt lat="44.49708290752914" lon="8.603268623790306"><ele>481.8333333333333</ele><time>2026-04-09T10:11:13Z</time></trkpt><trkpt lat="44.497063721609486" lon="8.60335319252895"><ele>481.66666666666663</ele><time>2026-04-09T10:11:14Z</time></trkpt><trkpt lat="44.497040370159986" lon="8.603442528208491"><ele>481.5</ele><time>2026-04-09T10:11:15Z</time></trkpt><trkpt lat="44.497000423237026" lon="8.603547204573246"><ele>481.33333333333337</ele><time>2026-04-09T10:11:16Z</time></trkpt><trkpt lat="44.496961719640424" lon="8.603672512079568"><ele>481.1666666666667</ele><time>2026-04-09T10:11:17Z</time></trkpt><trkpt lat="44.496925323017166" lon="8.603804595692244"><ele>481.0</ele><time>2026-04-09T10:11:18Z</time></trkpt><trkpt lat="44.49688871928287" lon="8.603935722084604"><ele>481.0</ele><time>2026-04-09T10:11:19Z</time></trkpt><trkpt lat="44.49685517757274" lon="8.604065133731085"><ele>481.0</ele><time>2026-04-09T10:11:20Z</time></trkpt><trkpt lat="44.49682186437421" lon="8.604184768813356"><ele>481.0</ele><time>2026-04-09T10:11:21Z</time></trkpt><trkpt lat="44.49678610367001" lon="8.604307892384323"><ele>481.0</ele><time>2026-04-09T10:11:22Z</time></trkpt><trkpt lat="44.496743611927094" lon="8.604423597008134"><ele>481.0</ele><time>2026-04-09T10:11:23Z</time></trkpt><trkpt lat="44.496691252912264" lon="8.604527521261382"><ele>482.6</ele><time>2026-04-09T10:11:24Z</time></trkpt><trkpt lat="44.496627331083474" lon="8.604603395001723"><ele>484.20000000000005</ele><time>2026-04-09T10:11:25Z</time></trkpt><trkpt lat="44.496533986264325" lon="8.604622187822137"><ele>485.79999999999995</ele><time>2026-04-09T10:11:26Z</time></trkpt><trkpt lat="44.496443023491075" lon="8.604684443270324"><ele>487.4</ele><time>2026-04-09T10:11:27Z</time></trkpt><trkpt lat="44.49634754016173" lon="8.604699683255484"><ele>489.0</ele><time>2026-04-09T10:11:28Z</time></trkpt><trkpt lat="44.49625432047946" lon="8.604666881113063"><ele>488.0</ele><time>2026-04-09T10:11:29Z</time></trkpt><trkpt lat="44.496173565663725" lon="8.604570117926905"><ele>487.0</ele><time>2026-04-09T10:11:30Z</time></trkpt><trkpt lat="44.496096101371904" lon="8.604457960133189"><ele>486.0</ele><time>2026-04-09T10:11:31Z</time></trkpt><trkpt lat="44.49600871870847" lon="8.604350840107656"><ele>485.0</ele><time>2026-04-09T10:11:32Z</time></trkpt><trkpt lat="44.49591165806778" lon="8.60424171461705"><ele>485.0</ele><time>2026-04-09T10:11:33Z</time></trkpt><trkpt lat="44.49578601864" lon="8.604169138526427"><ele>485.0</ele><time>2026-04-09T10:11:34Z</time></trkpt><trkpt lat="44.49563736323012" lon="8.604115264257274"><ele>485.0</ele><time>2026-04-09T10:11:35Z</time></trkpt><trkpt lat="44.495480244027334" lon="8.604049854205133"><ele>490.75</ele><time>2026-04-09T10:11:36Z</time></trkpt><trkpt lat="44.495336282755545" lon="8.603978953177586"><ele>496.5</ele><time>2026-04-09T10:11:37Z</time></trkpt><trkpt lat="44.495201314238756" lon="8.603912130320273"><ele>502.25</ele><time>2026-04-09T10:11:38Z</time></trkpt><trkpt lat="44.495075266005806" lon="8.603859622349203"><ele>508.0</ele><time>2026-04-09T10:11:39Z</time></trkpt><trkpt lat="44.49495740026905" lon="8.603806576626058"><ele>508.0</ele><time>2026-04-09T10:11:40Z</time></trkpt><trkpt lat="44.49485514670534" lon="8.60375999687216"><ele>507.99999999999994</ele><time>2026-04-09T10:11:41Z</time></trkpt><trkpt lat="44.49476855766881" lon="8.603705462215991"><ele>507.99999999999994</ele><time>2026-04-09T10:11:42Z</time></trkpt><trkpt lat="44.494681175209564" lon="8.603657807939289"><ele>508.0</ele><time>2026-04-09T10:11:43Z</time></trkpt><trkpt lat="44.49458727518683" lon="8.603621868358562"><ele>508.0</ele><time>2026-04-09T10:11:44Z</time></trkpt><trkpt lat="44.49449405053616" lon="8.603580700509935"><ele>508.59999999999997</ele><time>2026-04-09T10:11:45Z</time></trkpt><trkpt lat="44.494399589426" lon="8.60354273593044"><ele>509.19999999999993</ele><time>2026-04-09T10:11:46Z</time></trkpt><trkpt lat="44.49432456155411" lon="8.603481383019385"><ele>509.8</ele><time>2026-04-09T10:11:47Z</time></trkpt><trkpt lat="44.49426742994904" lon="8.60339117970485"><ele>510.4</ele><time>2026-04-09T10:11:48Z</time></trkpt><trkpt lat="44.494242468370956" lon="8.603269291343384"><ele>511.0</ele><time>2026-04-09T10:11:49Z</time></trkpt><trkpt lat="44.49427487620664" lon="8.60312003090206"><ele>511.0</ele><time>2026-04-09T10:11:50Z</time></trkpt><trkpt lat="44.49429090791738" lon="8.602957587211195"><ele>511.0</ele><time>2026-04-09T10:11:51Z</time></trkpt><trkpt lat="44.49433937307501" lon="8.602794405623111"><ele>511.0</ele><time>2026-04-09T10:11:52Z</time></trkpt><trkpt lat="44.494408050212314" lon="8.602664096505992"><ele>511.0</ele><time>2026-04-09T10:11:53Z</time></trkpt><trkpt lat="44.49446232173226" lon="8.602542643193697"><ele>510.8</ele><time>2026-04-09T10:11:54Z</time></trkpt><trkpt lat="44.49451305547737" lon="8.602442628446019"><ele>510.6</ele><time>2026-04-09T10:11:55Z</time></trkpt><trkpt lat="44.494505845047776" lon="8.602300221761105"><ele>510.4</ele><time>2026-04-09T10:11:56Z</time></trkpt><trkpt lat="44.494476315050235" lon="8.602143956546481"><ele>510.2</ele><time>2026-04-09T10:11:57Z</time></trkpt><trkpt lat="44.49444366219526" lon="8.601959597926502"><ele>510.0</ele><time>2026-04-09T10:11:58Z</time></trkpt><trkpt lat="44.49442804990103" lon="8.601793831202377"><ele>510.0</ele><time>2026-04-09T10:11:59Z</time></trkpt><trkpt lat="44.49444246222089" lon="8.601627601285298"><ele>510.0</ele><time>2026-04-09T10:12:00Z</time></trkpt><trkpt lat="44.4944375911852" lon="8.6014688427428"><ele>510.0</ele><time>2026-04-09T10:12:01Z</time></trkpt><trkpt lat="44.49440462143578" lon="8.601336519114659"><ele>510.0</ele><time>2026-04-09T10:12:02Z</time></trkpt><trkpt lat="44.494328653930104" lon="8.601220434461595"><ele>510.0</ele><time>2026-04-09T10:12:03Z</time></trkpt><trkpt lat="44.49423332448352" lon="8.601143135240958"><ele>508.75</ele><time>2026-04-09T10:12:04Z</time></trkpt><trkpt lat="44.494105838422" lon="8.601124788962098"><ele>507.5</ele><time>2026-04-09T10:12:05Z</time></trkpt><trkpt lat="44.493979076709714" lon="8.601136244908057"><ele>506.25</ele><time>2026-04-09T10:12:06Z</time></trkpt><trkpt lat="44.493857436756414" lon="8.601151503262665"><ele>505.0</ele><time>2026-04-09T10:12:07Z</time></trkpt><trkpt lat="44.493755715824584" lon="8.601117872584553"><ele>508.2</ele><time>2026-04-09T10:12:08Z</time></trkpt><trkpt lat="44.493674106430525" lon="8.601026568923826"><ele>511.4</ele><time>2026-04-09T10:12:09Z</time></trkpt><trkpt lat="44.49363669648449" lon="8.600887511378954"><ele>514.6</ele><time>2026-04-09T10:12:10Z</time></trkpt><trkpt lat="44.49365340545123" lon="8.600723802003802"><ele>517.8</ele><time>2026-04-09T10:12:11Z</time></trkpt><trkpt lat="44.493643354652605" lon="8.60055773600998"><ele>521.0</ele><time>2026-04-09T10:12:12Z</time></trkpt><trkpt lat="44.49360902843634" lon="8.600378089480532"><ele>521.0</ele><time>2026-04-09T10:12:13Z</time></trkpt><trkpt lat="44.49356785118031" lon="8.600188517416823"><ele>521.0</ele><time>2026-04-09T10:12:14Z</time></trkpt><trkpt lat="44.49350040107855" lon="8.599984025753589"><ele>521.0</ele><time>2026-04-09T10:12:15Z</time></trkpt><trkpt lat="44.493452431416095" lon="8.599763689471814"><ele>521.0</ele><time>2026-04-09T10:12:16Z</time></trkpt><trkpt lat="44.493389370954766" lon="8.599547706049428"><ele>521.0</ele><time>2026-04-09T10:12:17Z</time></trkpt><trkpt lat="44.4933229003266" lon="8.59932512224509"><ele>521.0</ele><time>2026-04-09T10:12:18Z</time></trkpt><trkpt lat="44.493249051528515" lon="8.599127845824196"><ele>520.0</ele><time>2026-04-09T10:12:19Z</time></trkpt><trkpt lat="44.49318451846064" lon="8.598930380753526"><ele>519.0</ele><time>2026-04-09T10:12:20Z</time></trkpt><trkpt lat="44.493118668971775" lon="8.598739770558394"><ele>518.0</ele><time>2026-04-09T10:12:21Z</time></trkpt><trkpt lat="44.493058943651505" lon="8.59855932204393"><ele>517.0</ele><time>2026-04-09T10:12:22Z</time></trkpt><trkpt lat="44.493016734053924" lon="8.598384951146606"><ele>516.2</ele><time>2026-04-09T10:12:23Z</time></trkpt><trkpt lat="44.4929685039367" lon="8.598241767176374"><ele>515.4000000000001</ele><time>2026-04-09T10:12:24Z</time></trkpt><trkpt lat="44.49292612736693" lon="8.598112909566197"><ele>514.5999999999999</ele><time>2026-04-09T10:12:25Z</time></trkpt><trkpt lat="44.49289462479177" lon="8.597992037577253"><ele>513.8</ele><time>2026-04-09T10:12:26Z</time></trkpt><trkpt lat="44.49287489664601" lon="8.597866081805288"><ele>513.0</ele><time>2026-04-09T10:12:27Z</time></trkpt><trkpt lat="44.49286121452344" lon="8.597731869957096"><ele>517.8</ele><time>2026-04-09T10:12:28Z</time></trkpt><trkpt lat="44.492834130312914" lon="8.597602376552807"><ele>522.5999999999999</ele><time>2026-04-09T10:12:29Z</time></trkpt><trkpt lat="44.49282259545312" lon="8.597458756935485"><ele>527.4000000000001</ele><time>2026-04-09T10:12:30Z</time></trkpt><trkpt lat="44.492808999172915" lon="8.597308595824419"><ele>532.2</ele><time>2026-04-09T10:12:31Z</time></trkpt><trkpt lat="44.49278909864489" lon="8.59714711725812"><ele>537.0</ele><time>2026-04-09T10:12:32Z</time></trkpt><trkpt lat="44.4927616460642" lon="8.596983483229005"><ele>537.0</ele><time>2026-04-09T10:12:33Z</time></trkpt><trkpt lat="44.49274190914435" lon="8.59681652972881"><ele>537.0</ele><time>2026-04-09T10:12:34Z</time></trkpt><trkpt lat="44.49270352432503" lon="8.596644956826125"><ele>537.0</ele><time>2026-04-09T10:12:35Z</time></trkpt><trkpt lat="44.49268310677618" lon="8.596476041566047"><ele>537.0</ele><time>2026-04-09T10:12:36Z</time></trkpt><trkpt lat="44.492691394940245" lon="8.596324925221015"><ele>537.0</ele><time>2026-04-09T10:12:37Z</time></trkpt><trkpt lat="44.49274039540761" lon="8.596184518326744"><ele>537.0</ele><time>2026-04-09T10:12:38Z</time></trkpt><trkpt lat="44.492797702544074" lon="8.59606382005236"><ele>537.0</ele><time>2026-04-09T10:12:39Z</time></trkpt><trkpt lat="44.49282765398437" lon="8.595937424028802"><ele>537.0</ele><time>2026-04-09T10:12:40Z</time></trkpt><trkpt lat="44.49285176938522" lon="8.595801820417881"><ele>537.0</ele><time>2026-04-09T10:12:41Z</time></trkpt><trkpt lat="44.49283088788587" lon="8.595659564515072"><ele>536.6</ele><time>2026-04-09T10:12:42Z</time></trkpt><trkpt lat="44.49277015955472" lon="8.595563930245245"><ele>536.2</ele><time>2026-04-09T10:12:43Z</time></trkpt><trkpt lat="44.492684923272215" lon="8.595507768299036"><ele>535.8</ele><time>2026-04-09T10:12:44Z</time></trkpt><trkpt lat="44.49257738339769" lon="8.595494678396403"><ele>535.4</ele><time>2026-04-09T10:12:45Z</time></trkpt><trkpt lat="44.49246870317307" lon="8.59551475610407"><ele>535.0</ele><time>2026-04-09T10:12:46Z</time></trkpt><trkpt lat="44.49236885602434" lon="8.5955027826074"><ele>535.0</ele><time>2026-04-09T10:12:47Z</time></trkpt><trkpt lat="44.492290891543746" lon="8.595415425643976"><ele>535.0</ele><time>2026-04-09T10:12:48Z</time></trkpt><trkpt lat="44.49223930982739" lon="8.59528661181634"><ele>535.0</ele><time>2026-04-09T10:12:49Z</time></trkpt><trkpt lat="44.492204391479966" lon="8.59513499810871"><ele>535.0</ele><time>2026-04-09T10:12:50Z</time></trkpt><trkpt lat="44.49216975635793" lon="8.594975942424838"><ele>535.0</ele><time>2026-04-09T10:12:51Z</time></trkpt><trkpt lat="44.49214380941849" lon="8.594817808861922"><ele>535.0</ele><time>2026-04-09T10:12:52Z</time></trkpt><trkpt lat="44.49212162617641" lon="8.59468264676321"><ele>535.0</ele><time>2026-04-09T10:12:53Z</time></trkpt><trkpt lat="44.49208475119045" lon="8.594565878617216"><ele>535.0</ele><time>2026-04-09T10:12:54Z</time></trkpt><trkpt lat="44.49201965868182" lon="8.594472250338018"><ele>535.0</ele><time>2026-04-09T10:12:55Z</time></trkpt><trkpt lat="44.491932236885155" lon="8.594443130120496"><ele>535.0</ele><time>2026-04-09T10:12:56Z</time></trkpt><trkpt lat="44.49183194086953" lon="8.594464408422716"><ele>538.25</ele><time>2026-04-09T10:12:57Z</time></trkpt><trkpt lat="44.491722890780565" lon="8.594528009299111"><ele>541.5</ele><time>2026-04-09T10:12:58Z</time></trkpt><trkpt lat="44.49160970050374" lon="8.594594330171907"><ele>544.75</ele><time>2026-04-09T10:12:59Z</time></trkpt><trkpt lat="44.49149968508823" lon="8.594646308894397"><ele>548.0</ele><time>2026-04-09T10:13:00Z</time></trkpt><trkpt lat="44.49139011569988" lon="8.59467156885215"><ele>548.0</ele><time>2026-04-09T10:13:01Z</time></trkpt><trkpt lat="44.491295316527314" lon="8.594672042459022"><ele>548.0</ele><time>2026-04-09T10:13:02Z</time></trkpt><trkpt lat="44.4912140949787" lon="8.594625756967929"><ele>548.0</ele><time>2026-04-09T10:13:03Z</time></trkpt><trkpt lat="44.49115329735626" lon="8.594526204548645"><ele>548.0</ele><time>2026-04-09T10:13:04Z</time></trkpt><trkpt lat="44.49108788641637" lon="8.594403384113935"><ele>548.0</ele><time>2026-04-09T10:13:05Z</time></trkpt><trkpt lat="44.49103678135236" lon="8.594249761300828"><ele>549.25</ele><time>2026-04-09T10:13:06Z</time></trkpt><trkpt lat="44.490973266117905" lon="8.59410401338761"><ele>550.5</ele><time>2026-04-09T10:13:07Z</time></trkpt><trkpt lat="44.49088944028329" lon="8.593967835437338"><ele>551.75</ele><time>2026-04-09T10:13:08Z</time></trkpt><trkpt lat="44.490765044407134" lon="8.593890975992753"><ele>553.0</ele><time>2026-04-09T10:13:09Z</time></trkpt><trkpt lat="44.490642432471724" lon="8.5937918477011"><ele>553.0</ele><time>2026-04-09T10:13:10Z</time></trkpt><trkpt lat="44.49049253394941" lon="8.593728028333189"><ele>553.0</ele><time>2026-04-09T10:13:11Z</time></trkpt><trkpt lat="44.4903380842866" lon="8.59369417151787"><ele>553.0</ele><time>2026-04-09T10:13:12Z</time></trkpt><trkpt lat="44.49019189893684" lon="8.593624290205643"><ele>552.75</ele><time>2026-04-09T10:13:13Z</time></trkpt><trkpt lat="44.49005942963993" lon="8.59357857277138"><ele>552.5</ele><time>2026-04-09T10:13:14Z</time></trkpt><trkpt lat="44.48993642283994" lon="8.593529341293475"><ele>552.25</ele><time>2026-04-09T10:13:15Z</time></trkpt><trkpt lat="44.48983144503315" lon="8.593472497466186"><ele>552.0</ele><time>2026-04-09T10:13:16Z</time></trkpt><trkpt lat="44.48973570682454" lon="8.59340354525052"><ele>552.0</ele><time>2026-04-09T10:13:17Z</time></trkpt><trkpt lat="44.48966829390882" lon="8.593326801977025"><ele>552.0</ele><time>2026-04-09T10:13:18Z</time></trkpt><trkpt lat="44.48960507866244" lon="8.593239255749946"><ele>552.0</ele><time>2026-04-09T10:13:19Z</time></trkpt><trkpt lat="44.489554210891775" lon="8.593133789253189"><ele>552.0</ele><time>2026-04-09T10:13:20Z</time></trkpt><trkpt lat="44.48950536650845" lon="8.593015979456583"><ele>552.0</ele><time>2026-04-09T10:13:21Z</time></trkpt><trkpt lat="44.48945827165519" lon="8.592903469469904"><ele>553.2</ele><time>2026-04-09T10:13:22Z</time></trkpt><trkpt lat="44.48942690554807" lon="8.592786533410841"><ele>554.4000000000001</ele><time>2026-04-09T10:13:23Z</time></trkpt><trkpt lat="44.48939387901368" lon="8.592673520967043"><ele>555.5999999999999</ele><time>2026-04-09T10:13:24Z</time></trkpt><trkpt lat="44.48935072567289" lon="8.592562537171334"><ele>556.8</ele><time>2026-04-09T10:13:25Z</time></trkpt><trkpt lat="44.48930046008144" lon="8.592450610163613"><ele>558.0</ele><time>2026-04-09T10:13:26Z</time></trkpt><trkpt lat="44.48922556298069" lon="8.592368081009827"><ele>558.0</ele><time>2026-04-09T10:13:27Z</time></trkpt><trkpt lat="44.4891515192625" lon="8.592296870254476"><ele>558.0</ele><time>2026-04-09T10:13:28Z</time></trkpt><trkpt lat="44.48908104721919" lon="8.592228930326034"><ele>558.0</ele><time>2026-04-09T10:13:29Z</time></trkpt><trkpt lat="44.48900314900792" lon="8.592178694561218"><ele>558.0</ele><time>2026-04-09T10:13:30Z</time></trkpt><trkpt lat="44.48893500381139" lon="8.59210910191926"><ele>558.0</ele><time>2026-04-09T10:13:31Z</time></trkpt><trkpt lat="44.48886343276753" lon="8.592039956963403"><ele>558.0</ele><time>2026-04-09T10:13:32Z</time></trkpt><trkpt lat="44.48878369998625" lon="8.591981430963019"><ele>557.1999999999999</ele><time>2026-04-09T10:13:33Z</time></trkpt><trkpt lat="44.488698009076785" lon="8.591946432018133"><ele>556.4</ele><time>2026-04-09T10:13:34Z</time></trkpt><trkpt lat="44.48860582918774" lon="8.591937131446157"><ele>555.5999999999999</ele><time>2026-04-09T10:13:35Z</time></trkpt><trkpt lat="44.48851637586889" lon="8.591956574543826"><ele>554.8</ele><time>2026-04-09T10:13:36Z</time></trkpt><trkpt lat="44.4884297086054" lon="8.591999951286416"><ele>554.0</ele><time>2026-04-09T10:13:37Z</time></trkpt><trkpt lat="44.48834677897644" lon="8.59204061679396"><ele>554.0</ele><time>2026-04-09T10:13:38Z</time></trkpt><trkpt lat="44.48826041419885" lon="8.59208067696352"><ele>554.0</ele><time>2026-04-09T10:13:39Z</time></trkpt><trkpt lat="44.48817174066921" lon="8.592118373796431"><ele>554.0</ele><time>2026-04-09T10:13:40Z</time></trkpt><trkpt lat="44.488078853567664" lon="8.592138119362314"><ele>554.0</ele><time>2026-04-09T10:13:41Z</time></trkpt><trkpt lat="44.487991672740115" lon="8.59214082447659"><ele>554.0</ele><time>2026-04-09T10:13:42Z</time></trkpt><trkpt lat="44.48790803116231" lon="8.592088837784983"><ele>553.8</ele><time>2026-04-09T10:13:43Z</time></trkpt><trkpt lat="44.487816764238495" lon="8.59205437797329"><ele>553.5999999999999</ele><time>2026-04-09T10:13:44Z</time></trkpt><trkpt lat="44.487724993172684" lon="8.591995902670115"><ele>553.4</ele><time>2026-04-09T10:13:45Z</time></trkpt><trkpt lat="44.48762771377163" lon="8.591939022710001"><ele>553.1999999999999</ele><time>2026-04-09T10:13:46Z</time></trkpt><trkpt lat="44.48752953033238" lon="8.591883916528248"><ele>553.0</ele><time>2026-04-09T10:13:47Z</time></trkpt><trkpt lat="44.48743238446899" lon="8.591826879749993"><ele>551.6</ele><time>2026-04-09T10:13:48Z</time></trkpt><trkpt lat="44.48733481623696" lon="8.591769815611976"><ele>550.1999999999999</ele><time>2026-04-09T10:13:49Z</time></trkpt><trkpt lat="44.487235926759716" lon="8.591711439085563"><ele>548.8</ele><time>2026-04-09T10:13:50Z</time></trkpt><trkpt lat="44.487143205312435" lon="8.59162794747028"><ele>547.4</ele><time>2026-04-09T10:13:51Z</time></trkpt><trkpt lat="44.4870366669693" lon="8.591582174875574"><ele>546.0</ele><time>2026-04-09T10:13:52Z</time></trkpt><trkpt lat="44.4869378764053" lon="8.591514205744344"><ele>546.0</ele><time>2026-04-09T10:13:53Z</time></trkpt><trkpt lat="44.48683686107805" lon="8.59145179306118"><ele>546.0</ele><time>2026-04-09T10:13:54Z</time></trkpt><trkpt lat="44.48674011482814" lon="8.591378349399452"><ele>546.0</ele><time>2026-04-09T10:13:55Z</time></trkpt><trkpt lat="44.48665510618999" lon="8.591297754085794"><ele>546.0</ele><time>2026-04-09T10:13:56Z</time></trkpt><trkpt lat="44.486583556035406" lon="8.591209069401923"><ele>546.0</ele><time>2026-04-09T10:13:57Z</time></trkpt><trkpt lat="44.48652218740854" lon="8.591111703780708"><ele>544.0</ele><time>2026-04-09T10:13:58Z</time></trkpt><trkpt lat="44.48646797901554" lon="8.591004054367032"><ele>542.0</ele><time>2026-04-09T10:13:59Z</time></trkpt><trkpt lat="44.486414933454" lon="8.590892109537256"><ele>540.0</ele><time>2026-04-09T10:14:00Z</time></trkpt><trkpt lat="44.48635706319696" lon="8.590781572794608"><ele>538.0</ele><time>2026-04-09T10:14:01Z</time></trkpt><trkpt lat="44.486283297776616" lon="8.5906870944287"><ele>536.0</ele><time>2026-04-09T10:14:02Z</time></trkpt><trkpt lat="44.48619983138848" lon="8.590604418656675"><ele>535.3333333333333</ele><time>2026-04-09T10:14:03Z</time></trkpt><trkpt lat="44.48611141305604" lon="8.590535942221292"><ele>534.6666666666666</ele><time>2026-04-09T10:14:04Z</time></trkpt><trkpt lat="44.486028678268376" lon="8.59045928155138"><ele>534.0</ele><time>2026-04-09T10:14:05Z</time></trkpt><trkpt lat="44.48595210770833" lon="8.590411180367807"><ele>533.3333333333334</ele><time>2026-04-09T10:14:06Z</time></trkpt><trkpt lat="44.48588072470511" lon="8.590367927560509"><ele>532.6666666666667</ele><time>2026-04-09T10:14:07Z</time></trkpt><trkpt lat="44.48581209670446" lon="8.59032634403955"><ele>532.0</ele><time>2026-04-09T10:14:08Z</time></trkpt><trkpt lat="44.48572993260448" lon="8.590306489184055"><ele>531.8333333333334</ele><time>2026-04-09T10:14:09Z</time></trkpt><trkpt lat="44.48566092915633" lon="8.590237945393875"><ele>531.6666666666667</ele><time>2026-04-09T10:14:10Z</time></trkpt><trkpt lat="44.48558471986344" lon="8.590190467941468"><ele>531.5</ele><time>2026-04-09T10:14:11Z</time></trkpt><trkpt lat="44.485533747506096" lon="8.590096400048408"><ele>531.3333333333334</ele><time>2026-04-09T10:14:12Z</time></trkpt><trkpt lat="44.48549622347218" lon="8.589984265153912"><ele>531.1666666666666</ele><time>2026-04-09T10:14:13Z</time></trkpt><trkpt lat="44.48546046967936" lon="8.58985939190798"><ele>531.0</ele><time>2026-04-09T10:14:14Z</time></trkpt><trkpt lat="44.48541637820126" lon="8.589729740058466"><ele>535.8</ele><time>2026-04-09T10:14:15Z</time></trkpt><trkpt lat="44.48539314434899" lon="8.589589501517763"><ele>540.6</ele><time>2026-04-09T10:14:16Z</time></trkpt><trkpt lat="44.485357509865835" lon="8.58946977965312"><ele>545.4</ele><time>2026-04-09T10:14:17Z</time></trkpt><trkpt lat="44.485324114271485" lon="8.58936057489726"><ele>550.2</ele><time>2026-04-09T10:14:18Z</time></trkpt><trkpt lat="44.48528639631715" lon="8.589247969196844"><ele>555.0</ele><time>2026-04-09T10:14:19Z</time></trkpt><trkpt lat="44.48526286476235" lon="8.5891215883405"><ele>556.4</ele><time>2026-04-09T10:14:20Z</time></trkpt><trkpt lat="44.485246869031954" lon="8.588989578609613"><ele>557.8</ele><time>2026-04-09T10:14:21Z</time></trkpt><trkpt lat="44.48524184642582" lon="8.588846476178515"><ele>559.2</ele><time>2026-04-09T10:14:22Z</time></trkpt><trkpt lat="44.485251173876186" lon="8.588700233556201"><ele>560.6</ele><time>2026-04-09T10:14:23Z</time></trkpt><trkpt lat="44.48527241288946" lon="8.588549296452676"><ele>562.0</ele><time>2026-04-09T10:14:24Z</time></trkpt><trkpt lat="44.48530106592228" lon="8.588402200727726"><ele>562.8000000000001</ele><time>2026-04-09T10:14:25Z</time></trkpt><trkpt lat="44.48534011333967" lon="8.588253328106452"><ele>563.6</ele><time>2026-04-09T10:14:26Z</time></trkpt><trkpt lat="44.48538590557757" lon="8.588112198315216"><ele>564.4000000000001</ele><time>2026-04-09T10:14:27Z</time></trkpt><trkpt lat="44.485430422566296" lon="8.587986814437436"><ele>565.2</ele><time>2026-04-09T10:14:28Z</time></trkpt><trkpt lat="44.48547051774058" lon="8.587868098611008"><ele>566.0</ele><time>2026-04-09T10:14:29Z</time></trkpt><trkpt lat="44.485511985309685" lon="8.587751666695873"><ele>562.0</ele><time>2026-04-09T10:14:30Z</time></trkpt><trkpt lat="44.48555157552231" lon="8.587632054364164"><ele>558.0</ele><time>2026-04-09T10:14:31Z</time></trkpt><trkpt lat="44.485601038833934" lon="8.587512029456837"><ele>554.0</ele><time>2026-04-09T10:14:32Z</time></trkpt><trkpt lat="44.48566029774557" lon="8.587395499786185"><ele>550.0</ele><time>2026-04-09T10:14:33Z</time></trkpt><trkpt lat="44.48571843490482" lon="8.587293787197853"><ele>546.0</ele><time>2026-04-09T10:14:34Z</time></trkpt><trkpt lat="44.485780458159084" lon="8.587195823576408"><ele>546.0</ele><time>2026-04-09T10:14:35Z</time></trkpt><trkpt lat="44.48585599340192" lon="8.58712162596956"><ele>546.0</ele><time>2026-04-09T10:14:36Z</time></trkpt><trkpt lat="44.485924217041685" lon="8.587041650261787"><ele>546.0</ele><time>2026-04-09T10:14:37Z</time></trkpt><trkpt lat="44.48599114193791" lon="8.58696678028858"><ele>546.0</ele><time>2026-04-09T10:14:38Z</time></trkpt><trkpt lat="44.48604873270672" lon="8.586875913838288"><ele>546.0</ele><time>2026-04-09T10:14:39Z</time></trkpt><trkpt lat="44.48612226948763" lon="8.586817427087517"><ele>546.0</ele><time>2026-04-09T10:14:40Z</time></trkpt><trkpt lat="44.486188071344664" lon="8.586755436309328"><ele>547.1666666666666</ele><time>2026-04-09T10:14:41Z</time></trkpt><trkpt lat="44.48626481324366" lon="8.586718155136323"><ele>548.3333333333334</ele><time>2026-04-09T10:14:42Z</time></trkpt><trkpt lat="44.48634412788407" lon="8.586710740887018"><ele>549.5</ele><time>2026-04-09T10:14:43Z</time></trkpt><trkpt lat="44.486421383416065" lon="8.586738936179609"><ele>550.6666666666667</ele><time>2026-04-09T10:14:44Z</time></trkpt><trkpt lat="44.4864971791409" lon="8.58679814101776"><ele>551.8333333333334</ele><time>2026-04-09T10:14:45Z</time></trkpt><trkpt lat="44.486566640084135" lon="8.586850959628421"><ele>553.0</ele><time>2026-04-09T10:14:46Z</time></trkpt><trkpt lat="44.48663611605814" lon="8.58689288030163"><ele>553.0</ele><time>2026-04-09T10:14:47Z</time></trkpt><trkpt lat="44.48669604219052" lon="8.586953513269792"><ele>553.0</ele><time>2026-04-09T10:14:48Z</time></trkpt><trkpt lat="44.48676549787167" lon="8.586980821878244"><ele>553.0</ele><time>2026-04-09T10:14:49Z</time></trkpt><trkpt lat="44.486834429963984" lon="8.58697595267199"><ele>553.0</ele><time>2026-04-09T10:14:50Z</time></trkpt><trkpt lat="44.486898816729884" lon="8.586989671890159"><ele>553.0</ele><time>2026-04-09T10:14:51Z</time></trkpt><trkpt lat="44.48696245283831" lon="8.587001543203176"><ele>553.0</ele><time>2026-04-09T10:14:52Z</time></trkpt><trkpt lat="44.48702593712014" lon="8.587010224442611"><ele>553.0</ele><time>2026-04-09T10:14:53Z</time></trkpt><trkpt lat="44.48712100844338" lon="8.587058236710337"><ele>553.4</ele><time>2026-04-09T10:14:55Z</time></trkpt><trkpt lat="44.48721842186699" lon="8.58707348165197"><ele>553.8</ele><time>2026-04-09T10:14:57Z</time></trkpt><trkpt lat="44.4873053089043" lon="8.587074586432433"><ele>554.2</ele><time>2026-04-09T10:14:59Z</time></trkpt><trkpt lat="44.48740610495204" lon="8.58701666607603"><ele>554.6</ele><time>2026-04-09T10:15:02Z</time></trkpt><trkpt lat="44.48750881306829" lon="8.58692638328371"><ele>555.0</ele><time>2026-04-09T10:15:04Z</time></trkpt><trkpt lat="44.48754909327021" lon="8.586823474435409"><ele>555.0</ele><time>2026-04-09T10:15:05Z</time></trkpt><trkpt lat="44.48755834876548" lon="8.586699315106705"><ele>555.0</ele><time>2026-04-09T10:15:06Z</time></trkpt><trkpt lat="44.48756597680969" lon="8.58657386974714"><ele>555.0</ele><time>2026-04-09T10:15:07Z</time></trkpt><trkpt lat="44.48757874468825" lon="8.586452100900583"><ele>555.0</ele><time>2026-04-09T10:15:08Z</time></trkpt><trkpt lat="44.48759344543829" lon="8.5863367723157"><ele>555.0</ele><time>2026-04-09T10:15:09Z</time></trkpt><trkpt lat="44.48759323537171" lon="8.586220702448257"><ele>555.0</ele><time>2026-04-09T10:15:10Z</time></trkpt><trkpt lat="44.48757266388536" lon="8.586104310866622"><ele>556.4</ele><time>2026-04-09T10:15:11Z</time></trkpt><trkpt lat="44.487503280292295" lon="8.586008855326615"><ele>557.8</ele><time>2026-04-09T10:15:12Z</time></trkpt><trkpt lat="44.487407859220376" lon="8.585973871634735"><ele>559.2</ele><time>2026-04-09T10:15:13Z</time></trkpt><trkpt lat="44.48731451855382" lon="8.585975198364489"><ele>560.6</ele><time>2026-04-09T10:15:14Z</time></trkpt><trkpt lat="44.487223199426474" lon="8.586027394212133"><ele>562.0</ele><time>2026-04-09T10:15:15Z</time></trkpt><trkpt lat="44.48713910933669" lon="8.58609737621518"><ele>563.4</ele><time>2026-04-09T10:15:16Z</time></trkpt><trkpt lat="44.4870538170978" lon="8.586147161077925"><ele>564.8000000000001</ele><time>2026-04-09T10:15:17Z</time></trkpt><trkpt lat="44.48695508093077" lon="8.586165137896629"><ele>566.2</ele><time>2026-04-09T10:15:18Z</time></trkpt><trkpt lat="44.48684612476011" lon="8.586171829759977"><ele>567.6</ele><time>2026-04-09T10:15:19Z</time></trkpt><trkpt lat="44.48673824307526" lon="8.58617527372609"><ele>569.0</ele><time>2026-04-09T10:15:20Z</time></trkpt><trkpt lat="44.48664085087368" lon="8.586181547253677"><ele>568.0</ele><time>2026-04-09T10:15:21Z</time></trkpt><trkpt lat="44.486544701446526" lon="8.586195746397149"><ele>567.0</ele><time>2026-04-09T10:15:22Z</time></trkpt><trkpt lat="44.48645571744576" lon="8.586239515050448"><ele>566.0</ele><time>2026-04-09T10:15:23Z</time></trkpt><trkpt lat="44.48636716526313" lon="8.586272746990689"><ele>565.0</ele><time>2026-04-09T10:15:24Z</time></trkpt><trkpt lat="44.48628946051888" lon="8.586315224817595"><ele>564.0</ele><time>2026-04-09T10:15:25Z</time></trkpt><trkpt lat="44.486221378756355" lon="8.586361348322312"><ele>563.0</ele><time>2026-04-09T10:15:26Z</time></trkpt><trkpt lat="44.486146851991336" lon="8.586339880222537"><ele>563.0</ele><time>2026-04-09T10:15:27Z</time></trkpt><trkpt lat="44.48610367963538" lon="8.586244565542048"><ele>563.0</ele><time>2026-04-09T10:15:28Z</time></trkpt><trkpt lat="44.486072408308814" lon="8.586158937508017"><ele>563.0</ele><time>2026-04-09T10:15:29Z</time></trkpt><trkpt lat="44.48607758205423" lon="8.586054633680861"><ele>563.0</ele><time>2026-04-09T10:15:30Z</time></trkpt><trkpt lat="44.48610829696673" lon="8.585960983001266"><ele>563.0</ele><time>2026-04-09T10:15:31Z</time></trkpt><trkpt lat="44.48616631061403" lon="8.585879537086143"><ele>563.0</ele><time>2026-04-09T10:15:32Z</time></trkpt><trkpt lat="44.48625909607351" lon="8.585836932739582"><ele>564.1999999999999</ele><time>2026-04-09T10:15:33Z</time></trkpt><trkpt lat="44.48636012942349" lon="8.58580710288628"><ele>565.4</ele><time>2026-04-09T10:15:34Z</time></trkpt><trkpt lat="44.48644409830821" lon="8.585840659147017"><ele>566.5999999999999</ele><time>2026-04-09T10:15:35Z</time></trkpt><trkpt lat="44.48653201668596" lon="8.585849804432799"><ele>567.8</ele><time>2026-04-09T10:15:36Z</time></trkpt><trkpt lat="44.48662289180318" lon="8.585871887670317"><ele>569.0</ele><time>2026-04-09T10:15:37Z</time></trkpt><trkpt lat="44.48671292887925" lon="8.585880309664573"><ele>569.0</ele><time>2026-04-09T10:15:38Z</time></trkpt><trkpt lat="44.48681190555522" lon="8.585877372889735"><ele>569.0</ele><time>2026-04-09T10:15:39Z</time></trkpt><trkpt lat="44.48690267657751" lon="8.585810878194327"><ele>569.0</ele><time>2026-04-09T10:15:40Z</time></trkpt><trkpt lat="44.48698626868145" lon="8.585757092223504"><ele>569.0</ele><time>2026-04-09T10:15:41Z</time></trkpt><trkpt lat="44.487070991858445" lon="8.58570449712059"><ele>569.0</ele><time>2026-04-09T10:15:42Z</time></trkpt><trkpt lat="44.48716693976367" lon="8.585661622001176"><ele>567.6</ele><time>2026-04-09T10:15:43Z</time></trkpt><trkpt lat="44.487257920334855" lon="8.585587918533696"><ele>566.2</ele><time>2026-04-09T10:15:44Z</time></trkpt><trkpt lat="44.487336260574445" lon="8.585494869948244"><ele>564.8000000000001</ele><time>2026-04-09T10:15:45Z</time></trkpt><trkpt lat="44.48740621532827" lon="8.585399550913822"><ele>563.4</ele><time>2026-04-09T10:15:46Z</time></trkpt><trkpt lat="44.48748025109549" lon="8.585312512700304"><ele>562.0</ele><time>2026-04-09T10:15:47Z</time></trkpt><trkpt lat="44.48756011164231" lon="8.5852385949988"><ele>564.2</ele><time>2026-04-09T10:15:48Z</time></trkpt><trkpt lat="44.48764339030236" lon="8.585163560065252"><ele>566.4000000000001</ele><time>2026-04-09T10:15:49Z</time></trkpt><trkpt lat="44.48772643369473" lon="8.585088737197637"><ele>568.5999999999999</ele><time>2026-04-09T10:15:50Z</time></trkpt><trkpt lat="44.48780338942479" lon="8.585012734297843"><ele>570.8</ele><time>2026-04-09T10:15:51Z</time></trkpt><trkpt lat="44.48787188727387" lon="8.584919501122311"><ele>573.0</ele><time>2026-04-09T10:15:52Z</time></trkpt><trkpt lat="44.48792916045781" lon="8.584822379594392"><ele>573.0</ele><time>2026-04-09T10:15:53Z</time></trkpt><trkpt lat="44.487984925015084" lon="8.584721237883938"><ele>573.0</ele><time>2026-04-09T10:15:54Z</time></trkpt><trkpt lat="44.48805460789558" lon="8.584649965184994"><ele>573.0</ele><time>2026-04-09T10:15:55Z</time></trkpt><trkpt lat="44.48814170665243" lon="8.584598197377144"><ele>573.0</ele><time>2026-04-09T10:15:56Z</time></trkpt><trkpt lat="44.488247713366924" lon="8.584556956496321"><ele>573.0</ele><time>2026-04-09T10:15:57Z</time></trkpt><trkpt lat="44.488358967493504" lon="8.584560553453857"><ele>573.0</ele><time>2026-04-09T10:15:58Z</time></trkpt><trkpt lat="44.48846475966161" lon="8.584592148546038"><ele>573.0</ele><time>2026-04-09T10:15:59Z</time></trkpt><trkpt lat="44.48856114428627" lon="8.584636380226275"><ele>573.0</ele><time>2026-04-09T10:16:00Z</time></trkpt><trkpt lat="44.48865480400764" lon="8.584678849398696"><ele>573.0</ele><time>2026-04-09T10:16:01Z</time></trkpt><trkpt lat="44.488736538238925" lon="8.584714722708354"><ele>573.0</ele><time>2026-04-09T10:16:02Z</time></trkpt><trkpt lat="44.488813699767135" lon="8.584766350047037"><ele>575.3333333333334</ele><time>2026-04-09T10:16:03Z</time></trkpt><trkpt lat="44.48886988748993" lon="8.584842382104737"><ele>577.6666666666666</ele><time>2026-04-09T10:16:04Z</time></trkpt><trkpt lat="44.48889719200083" lon="8.584953968408817"><ele>580.0</ele><time>2026-04-09T10:16:05Z</time></trkpt><trkpt lat="44.488905141474156" lon="8.585084844668279"><ele>582.3333333333333</ele><time>2026-04-09T10:16:06Z</time></trkpt><trkpt lat="44.48891579406157" lon="8.585212754040844"><ele>584.6666666666666</ele><time>2026-04-09T10:16:07Z</time></trkpt><trkpt lat="44.48893514351479" lon="8.58534619075789"><ele>587.0</ele><time>2026-04-09T10:16:08Z</time></trkpt><trkpt lat="44.488968780719276" lon="8.58548281969443"><ele>587.0</ele><time>2026-04-09T10:16:09Z</time></trkpt><trkpt lat="44.4890342295843" lon="8.585613992381885"><ele>587.0</ele><time>2026-04-09T10:16:10Z</time></trkpt><trkpt lat="44.48908050800493" lon="8.58576386684233"><ele>587.0</ele><time>2026-04-09T10:16:11Z</time></trkpt><trkpt lat="44.48913862792172" lon="8.5859152109155"><ele>587.0</ele><time>2026-04-09T10:16:12Z</time></trkpt><trkpt lat="44.48919687375654" lon="8.586066882628922"><ele>583.8000000000001</ele><time>2026-04-09T10:16:13Z</time></trkpt><trkpt lat="44.48926441349502" lon="8.58620001126853"><ele>580.6</ele><time>2026-04-09T10:16:14Z</time></trkpt><trkpt lat="44.489301973422094" lon="8.586342000209589"><ele>577.4000000000001</ele><time>2026-04-09T10:16:15Z</time></trkpt><trkpt lat="44.48932704905156" lon="8.586479663815489"><ele>574.2</ele><time>2026-04-09T10:16:16Z</time></trkpt><trkpt lat="44.48935957577079" lon="8.586598122964997"><ele>571.0</ele><time>2026-04-09T10:16:17Z</time></trkpt><trkpt lat="44.48941366819631" lon="8.586708839239668"><ele>571.0</ele><time>2026-04-09T10:16:18Z</time></trkpt><trkpt lat="44.48949337797637" lon="8.586792277543768"><ele>571.0</ele><time>2026-04-09T10:16:19Z</time></trkpt><trkpt lat="44.48959495250852" lon="8.586822497631315"><ele>571.0</ele><time>2026-04-09T10:16:20Z</time></trkpt><trkpt lat="44.489690153501584" lon="8.586828879648555"><ele>571.0</ele><time>2026-04-09T10:16:21Z</time></trkpt><trkpt lat="44.489783233989414" lon="8.586793204044016"><ele>571.0</ele><time>2026-04-09T10:16:22Z</time></trkpt><trkpt lat="44.48987841571603" lon="8.586728436972491"><ele>575.4</ele><time>2026-04-09T10:16:23Z</time></trkpt><trkpt lat="44.48996525632434" lon="8.586662689425747"><ele>579.8</ele><time>2026-04-09T10:16:24Z</time></trkpt><trkpt lat="44.49005160685049" lon="8.586616199716858"><ele>584.1999999999999</ele><time>2026-04-09T10:16:25Z</time></trkpt><trkpt lat="44.49013557802396" lon="8.586590951232454"><ele>588.6</ele><time>2026-04-09T10:16:26Z</time></trkpt><trkpt lat="44.49022965311248" lon="8.586602919862806"><ele>593.0</ele><time>2026-04-09T10:16:27Z</time></trkpt><trkpt lat="44.49032081381593" lon="8.58663539472841"><ele>593.0</ele><time>2026-04-09T10:16:28Z</time></trkpt><trkpt lat="44.49041451633777" lon="8.586679607663354"><ele>593.0</ele><time>2026-04-09T10:16:29Z</time></trkpt><trkpt lat="44.490501125694806" lon="8.586717781093524"><ele>593.0</ele><time>2026-04-09T10:16:30Z</time></trkpt><trkpt lat="44.490581960558316" lon="8.586751485766925"><ele>593.0</ele><time>2026-04-09T10:16:31Z</time></trkpt><trkpt lat="44.490659411752965" lon="8.586769438813372"><ele>593.0</ele><time>2026-04-09T10:16:32Z</time></trkpt><trkpt lat="44.49074542575882" lon="8.58674046070009"><ele>593.0</ele><time>2026-04-09T10:16:33Z</time></trkpt><trkpt lat="44.4908136659166" lon="8.5866493690245"><ele>593.25</ele><time>2026-04-09T10:16:34Z</time></trkpt><trkpt lat="44.49086885053004" lon="8.586525361237015"><ele>593.5</ele><time>2026-04-09T10:16:35Z</time></trkpt><trkpt lat="44.490930539678956" lon="8.586391108546083"><ele>593.75</ele><time>2026-04-09T10:16:36Z</time></trkpt><trkpt lat="44.49103515674923" lon="8.586290286822768"><ele>594.0</ele><time>2026-04-09T10:16:37Z</time></trkpt><trkpt lat="44.49113619570234" lon="8.586154974102367"><ele>595.25</ele><time>2026-04-09T10:16:38Z</time></trkpt><trkpt lat="44.49123215995037" lon="8.585979928350993"><ele>596.5</ele><time>2026-04-09T10:16:39Z</time></trkpt><trkpt lat="44.491307089060335" lon="8.585815700811033"><ele>597.75</ele><time>2026-04-09T10:16:40Z</time></trkpt><trkpt lat="44.491371360706495" lon="8.585675292170109"><ele>599.0</ele><time>2026-04-09T10:16:41Z</time></trkpt><trkpt lat="44.49145908010838" lon="8.585559461330403"><ele>599.0</ele><time>2026-04-09T10:16:42Z</time></trkpt><trkpt lat="44.491565056133176" lon="8.585495097134144"><ele>599.0</ele><time>2026-04-09T10:16:43Z</time></trkpt><trkpt lat="44.4916926462106" lon="8.585427267081833"><ele>599.0</ele><time>2026-04-09T10:16:44Z</time></trkpt><trkpt lat="44.49182089812131" lon="8.58535948119629"><ele>599.0</ele><time>2026-04-09T10:16:45Z</time></trkpt><trkpt lat="44.49193942156196" lon="8.58530434056265"><ele>599.8</ele><time>2026-04-09T10:16:46Z</time></trkpt><trkpt lat="44.4920468168804" lon="8.585280769500633"><ele>600.5999999999999</ele><time>2026-04-09T10:16:47Z</time></trkpt><trkpt lat="44.4921331367161" lon="8.585286678928924"><ele>601.4</ele><time>2026-04-09T10:16:48Z</time></trkpt><trkpt lat="44.492225487899006" lon="8.585323223499177"><ele>602.1999999999999</ele><time>2026-04-09T10:16:49Z</time></trkpt><trkpt lat="44.49231596454125" lon="8.585396020828481"><ele>603.0</ele><time>2026-04-09T10:16:50Z</time></trkpt><trkpt lat="44.492433072227776" lon="8.585501051033965"><ele>603.0</ele><time>2026-04-09T10:16:51Z</time></trkpt><trkpt lat="44.492582878281304" lon="8.585643571076407"><ele>603.0</ele><time>2026-04-09T10:16:52Z</time></trkpt><trkpt lat="44.49273853538764" lon="8.585788529085388"><ele>603.0</ele><time>2026-04-09T10:16:53Z</time></trkpt><trkpt lat="44.49291008406638" lon="8.585947568220647"><ele>604.3333333333334</ele><time>2026-04-09T10:16:54Z</time></trkpt><trkpt lat="44.493100823477356" lon="8.586100751271733"><ele>605.6666666666667</ele><time>2026-04-09T10:16:55Z</time></trkpt><trkpt lat="44.49326169191821" lon="8.58626728691169"><ele>607.0</ele><time>2026-04-09T10:16:56Z</time></trkpt><trkpt lat="44.49341147382872" lon="8.586420092855096"><ele>607.0</ele><time>2026-04-09T10:16:57Z</time></trkpt><trkpt lat="44.493544851256246" lon="8.586557105534238"><ele>607.0</ele><time>2026-04-09T10:16:58Z</time></trkpt><trkpt lat="44.49366802085097" lon="8.58668168928628"><ele>607.0</ele><time>2026-04-09T10:16:59Z</time></trkpt><trkpt lat="44.493770968174175" lon="8.586807715344921"><ele>608.75</ele><time>2026-04-09T10:17:00Z</time></trkpt><trkpt lat="44.49384598726562" lon="8.586955402971991"><ele>610.5</ele><time>2026-04-09T10:17:01Z</time></trkpt><trkpt lat="44.493896400197904" lon="8.587129087504184"><ele>612.25</ele><time>2026-04-09T10:17:02Z</time></trkpt><trkpt lat="44.493916668448065" lon="8.587306000258085"><ele>614.0</ele><time>2026-04-09T10:17:03Z</time></trkpt><trkpt lat="44.49393711358867" lon="8.58748996838193"><ele>614.0</ele><time>2026-04-09T10:17:04Z</time></trkpt><trkpt lat="44.49396956093229" lon="8.587643511426226"><ele>614.0</ele><time>2026-04-09T10:17:05Z</time></trkpt><trkpt lat="44.494027428699724" lon="8.58774473178243"><ele>614.0</ele><time>2026-04-09T10:17:06Z</time></trkpt><trkpt lat="44.49410845337319" lon="8.587819738686358"><ele>614.0</ele><time>2026-04-09T10:17:07Z</time></trkpt><trkpt lat="44.494206552577964" lon="8.587828205032263"><ele>614.0</ele><time>2026-04-09T10:17:08Z</time></trkpt><trkpt lat="44.49428770837136" lon="8.587768217925627"><ele>614.0</ele><time>2026-04-09T10:17:09Z</time></trkpt><trkpt lat="44.4943458770693" lon="8.587650463605431"><ele>614.0</ele><time>2026-04-09T10:17:10Z</time></trkpt><trkpt lat="44.494366852191746" lon="8.587502771199244"><ele>614.0</ele><time>2026-04-09T10:17:11Z</time></trkpt><trkpt lat="44.49435323409848" lon="8.587338579583154"><ele>614.0</ele><time>2026-04-09T10:17:12Z</time></trkpt><trkpt lat="44.49432325648778" lon="8.587156189845098"><ele>616.25</ele><time>2026-04-09T10:17:13Z</time></trkpt><trkpt lat="44.494296799713005" lon="8.586972732618342"><ele>618.5</ele><time>2026-04-09T10:17:14Z</time></trkpt><trkpt lat="44.49426483282232" lon="8.586800907675105"><ele>620.75</ele><time>2026-04-09T10:17:15Z</time></trkpt><trkpt lat="44.49420685366095" lon="8.586641520653723"><ele>623.0</ele><time>2026-04-09T10:17:16Z</time></trkpt><trkpt lat="44.49411622089109" lon="8.586512754636207"><ele>623.0</ele><time>2026-04-09T10:17:17Z</time></trkpt><trkpt lat="44.49400559676557" lon="8.586434142858149"><ele>623.0</ele><time>2026-04-09T10:17:18Z</time></trkpt><trkpt lat="44.4938967148803" lon="8.586377325141367"><ele>623.0</ele><time>2026-04-09T10:17:19Z</time></trkpt><trkpt lat="44.49379800512971" lon="8.586299115170855"><ele>623.0</ele><time>2026-04-09T10:17:20Z</time></trkpt><trkpt lat="44.49372135365561" lon="8.5861784391432"><ele>621.75</ele><time>2026-04-09T10:17:21Z</time></trkpt><trkpt lat="44.49367936941577" lon="8.586038617095115"><ele>620.5</ele><time>2026-04-09T10:17:22Z</time></trkpt><trkpt lat="44.49367063186083" lon="8.585890632956742"><ele>619.25</ele><time>2026-04-09T10:17:23Z</time></trkpt><trkpt lat="44.49370183406612" lon="8.585729197696349"><ele>618.0</ele><time>2026-04-09T10:17:24Z</time></trkpt><trkpt lat="44.49374994366863" lon="8.585564661907934"><ele>619.8</ele><time>2026-04-09T10:17:25Z</time></trkpt><trkpt lat="44.49378382615959" lon="8.585407705900563"><ele>621.5999999999999</ele><time>2026-04-09T10:17:26Z</time></trkpt><trkpt lat="44.49382624277325" lon="8.585278885231023"><ele>623.4000000000001</ele><time>2026-04-09T10:17:27Z</time></trkpt><trkpt lat="44.49383494393545" lon="8.585142381737022"><ele>625.2</ele><time>2026-04-09T10:17:28Z</time></trkpt><trkpt lat="44.493797846823455" lon="8.585008605573751"><ele>627.0</ele><time>2026-04-09T10:17:29Z</time></trkpt><trkpt lat="44.49371177564718" lon="8.584886093994296"><ele>627.0</ele><time>2026-04-09T10:17:30Z</time></trkpt><trkpt lat="44.49358838113378" lon="8.584774623312644"><ele>627.0</ele><time>2026-04-09T10:17:31Z</time></trkpt><trkpt lat="44.493455121819295" lon="8.584634829783353"><ele>627.0</ele><time>2026-04-09T10:17:32Z</time></trkpt><trkpt lat="44.49334098098258" lon="8.584456958039102"><ele>629.0</ele><time>2026-04-09T10:17:33Z</time></trkpt><trkpt lat="44.493238923851855" lon="8.584281395334239"><ele>631.0</ele><time>2026-04-09T10:17:34Z</time></trkpt><trkpt lat="44.49314539497684" lon="8.58412121606601"><ele>633.0</ele><time>2026-04-09T10:17:35Z</time></trkpt><trkpt lat="44.493060827569664" lon="8.583988181671025"><ele>635.0</ele><time>2026-04-09T10:17:36Z</time></trkpt><trkpt lat="44.49298305592152" lon="8.58388221027117"><ele>634.6</ele><time>2026-04-09T10:17:37Z</time></trkpt><trkpt lat="44.49288616783159" lon="8.583834316141647"><ele>634.2</ele><time>2026-04-09T10:17:38Z</time></trkpt><trkpt lat="44.492771672368846" lon="8.583839086644298"><ele>633.8</ele><time>2026-04-09T10:17:39Z</time></trkpt><trkpt lat="44.492650591960206" lon="8.583856665801713"><ele>633.4</ele><time>2026-04-09T10:17:40Z</time></trkpt><trkpt lat="44.49254629778719" lon="8.583864142746839"><ele>633.0</ele><time>2026-04-09T10:17:41Z</time></trkpt><trkpt lat="44.49242943497968" lon="8.58384767112942"><ele>633.0</ele><time>2026-04-09T10:17:42Z</time></trkpt><trkpt lat="44.49232879187769" lon="8.583805111935096"><ele>633.0</ele><time>2026-04-09T10:17:43Z</time></trkpt><trkpt lat="44.49224310054576" lon="8.583756968751521"><ele>633.0</ele><time>2026-04-09T10:17:44Z</time></trkpt><trkpt lat="44.4921742091076" lon="8.583677531469604"><ele>633.0</ele><time>2026-04-09T10:17:45Z</time></trkpt><trkpt lat="44.49211932735249" lon="8.583577859427024"><ele>633.0</ele><time>2026-04-09T10:17:46Z</time></trkpt><trkpt lat="44.49206317028069" lon="8.583454783316139"><ele>637.0</ele><time>2026-04-09T10:17:47Z</time></trkpt><trkpt lat="44.491998456195155" lon="8.583332500350913"><ele>641.0</ele><time>2026-04-09T10:17:48Z</time></trkpt><trkpt lat="44.49193049591348" lon="8.583201478230006"><ele>645.0</ele><time>2026-04-09T10:17:49Z</time></trkpt><trkpt lat="44.49186016101711" lon="8.583084035387254"><ele>649.0</ele><time>2026-04-09T10:17:50Z</time></trkpt><trkpt lat="44.49175265456107" lon="8.583008484066061"><ele>649.0</ele><time>2026-04-09T10:17:51Z</time></trkpt><trkpt lat="44.491621071293224" lon="8.582981040520748"><ele>649.0</ele><time>2026-04-09T10:17:52Z</time></trkpt><trkpt lat="44.49147527494262" lon="8.582982504980395"><ele>649.0</ele><time>2026-04-09T10:17:53Z</time></trkpt><trkpt lat="44.491323461436195" lon="8.582987911782768"><ele>649.0</ele><time>2026-04-09T10:17:54Z</time></trkpt><trkpt lat="44.491169040453904" lon="8.582980893403898"><ele>649.3333333333334</ele><time>2026-04-09T10:17:55Z</time></trkpt><trkpt lat="44.49100951226524" lon="8.582973239630801"><ele>649.6666666666666</ele><time>2026-04-09T10:17:56Z</time></trkpt><trkpt lat="44.490843743836244" lon="8.582950471179592"><ele>650.0</ele><time>2026-04-09T10:17:57Z</time></trkpt><trkpt lat="44.49068841426083" lon="8.582922084343092"><ele>650.0</ele><time>2026-04-09T10:17:58Z</time></trkpt><trkpt lat="44.490539375135576" lon="8.58289452741429"><ele>650.0</ele><time>2026-04-09T10:17:59Z</time></trkpt><trkpt lat="44.49039325311545" lon="8.582862717907691"><ele>650.0</ele><time>2026-04-09T10:18:00Z</time></trkpt><trkpt lat="44.490259458323465" lon="8.582825364781637"><ele>650.0</ele><time>2026-04-09T10:18:01Z</time></trkpt><trkpt lat="44.49014376902438" lon="8.582783593403688"><ele>652.0</ele><time>2026-04-09T10:18:02Z</time></trkpt><trkpt lat="44.49003940161966" lon="8.582734861200015"><ele>654.0</ele><time>2026-04-09T10:18:03Z</time></trkpt><trkpt lat="44.489943060191614" lon="8.582672751576196"><ele>656.0</ele><time>2026-04-09T10:18:04Z</time></trkpt><trkpt lat="44.48985324704189" lon="8.582585612250812"><ele>658.0</ele><time>2026-04-09T10:18:05Z</time></trkpt><trkpt lat="44.48977931311936" lon="8.5824626225315"><ele>660.0</ele><time>2026-04-09T10:18:06Z</time></trkpt><trkpt lat="44.489716339052144" lon="8.582323656528077"><ele>660.0</ele><time>2026-04-09T10:18:07Z</time></trkpt><trkpt lat="44.48966105024243" lon="8.582175758966178"><ele>660.0</ele><time>2026-04-09T10:18:08Z</time></trkpt><trkpt lat="44.4896212681935" lon="8.582036342282336"><ele>660.0</ele><time>2026-04-09T10:18:09Z</time></trkpt><trkpt lat="44.48957657643238" lon="8.581922279664273"><ele>660.0</ele><time>2026-04-09T10:18:10Z</time></trkpt><trkpt lat="44.48951156832397" lon="8.58183986167289"><ele>660.0</ele><time>2026-04-09T10:18:11Z</time></trkpt><trkpt lat="44.4894139481987" lon="8.581809576299639"><ele>660.6666666666666</ele><time>2026-04-09T10:18:12Z</time></trkpt><trkpt lat="44.48930445313457" lon="8.581818192387807"><ele>661.3333333333334</ele><time>2026-04-09T10:18:13Z</time></trkpt><trkpt lat="44.48920427281218" lon="8.58182831270766"><ele>662.0</ele><time>2026-04-09T10:18:14Z</time></trkpt><trkpt lat="44.48911844222012" lon="8.58181884322858"><ele>662.6666666666667</ele><time>2026-04-09T10:18:15Z</time></trkpt><trkpt lat="44.48905202125003" lon="8.581775904361756"><ele>663.3333333333334</ele><time>2026-04-09T10:18:16Z</time></trkpt><trkpt lat="44.48899649373321" lon="8.581696254511773"><ele>664.0</ele><time>2026-04-09T10:18:17Z</time></trkpt><trkpt lat="44.48896702636756" lon="8.58157871536128"><ele>664.0</ele><time>2026-04-09T10:18:18Z</time></trkpt><trkpt lat="44.48895665702063" lon="8.581437134755399"><ele>664.0</ele><time>2026-04-09T10:18:19Z</time></trkpt><trkpt lat="44.48895790877073" lon="8.581261042092843"><ele>664.0</ele><time>2026-04-09T10:18:20Z</time></trkpt><trkpt lat="44.48897820310861" lon="8.581090268809215"><ele>664.0</ele><time>2026-04-09T10:18:21Z</time></trkpt><trkpt lat="44.48900687784111" lon="8.580917891266969"><ele>664.25</ele><time>2026-04-09T10:18:22Z</time></trkpt><trkpt lat="44.48903414745698" lon="8.58074446862681"><ele>664.5</ele><time>2026-04-09T10:18:23Z</time></trkpt><trkpt lat="44.48903691767937" lon="8.580567290150373"><ele>664.75</ele><time>2026-04-09T10:18:24Z</time></trkpt><trkpt lat="44.489012247077554" lon="8.580386686731835"><ele>665.0</ele><time>2026-04-09T10:18:25Z</time></trkpt><trkpt lat="44.488970793355726" lon="8.580220188323011"><ele>665.0</ele><time>2026-04-09T10:18:26Z</time></trkpt><trkpt lat="44.48894775080804" lon="8.58006108579478"><ele>665.0</ele><time>2026-04-09T10:18:27Z</time></trkpt><trkpt lat="44.4889507488014" lon="8.579894352835327"><ele>665.0</ele><time>2026-04-09T10:18:28Z</time></trkpt><trkpt lat="44.48898745942841" lon="8.579726070787412"><ele>665.0</ele><time>2026-04-09T10:18:29Z</time></trkpt><trkpt lat="44.48904604783303" lon="8.579559688807151"><ele>666.0</ele><time>2026-04-09T10:18:30Z</time></trkpt><trkpt lat="44.48912424242213" lon="8.579413411343056"><ele>667.0</ele><time>2026-04-09T10:18:31Z</time></trkpt><trkpt lat="44.48921917805527" lon="8.579291894851439"><ele>668.0</ele><time>2026-04-09T10:18:32Z</time></trkpt><trkpt lat="44.48932371744975" lon="8.57917719984806"><ele>669.0</ele><time>2026-04-09T10:18:33Z</time></trkpt><trkpt lat="44.48943117965188" lon="8.579074613959813"><ele>669.0</ele><time>2026-04-09T10:18:34Z</time></trkpt><trkpt lat="44.48953651428221" lon="8.578979944888175"><ele>669.0</ele><time>2026-04-09T10:18:35Z</time></trkpt><trkpt lat="44.489633436531406" lon="8.578873610134835"><ele>669.0</ele><time>2026-04-09T10:18:36Z</time></trkpt><trkpt lat="44.489715070644266" lon="8.578745588738364"><ele>669.0</ele><time>2026-04-09T10:18:37Z</time></trkpt><trkpt lat="44.489774372307835" lon="8.578595201302424"><ele>668.5</ele><time>2026-04-09T10:18:38Z</time></trkpt><trkpt lat="44.48979602861884" lon="8.57843040687115"><ele>668.0</ele><time>2026-04-09T10:18:39Z</time></trkpt><trkpt lat="44.48978217958962" lon="8.57825751352059"><ele>667.5</ele><time>2026-04-09T10:18:40Z</time></trkpt><trkpt lat="44.48973767704584" lon="8.578091650171544"><ele>667.0</ele><time>2026-04-09T10:18:41Z</time></trkpt><trkpt lat="44.48966595561956" lon="8.577946712764602"><ele>668.25</ele><time>2026-04-09T10:18:42Z</time></trkpt><trkpt lat="44.48956885778446" lon="8.57782202081766"><ele>669.5</ele><time>2026-04-09T10:18:43Z</time></trkpt><trkpt lat="44.4894545993885" lon="8.577692349666425"><ele>670.75</ele><time>2026-04-09T10:18:44Z</time></trkpt><trkpt lat="44.48933627570519" lon="8.57756717079612"><ele>672.0</ele><time>2026-04-09T10:18:45Z</time></trkpt><trkpt lat="44.48920814623797" lon="8.577455954402343"><ele>672.0</ele><time>2026-04-09T10:18:46Z</time></trkpt><trkpt lat="44.489065493213026" lon="8.577344631179212"><ele>672.0</ele><time>2026-04-09T10:18:47Z</time></trkpt><trkpt lat="44.48891494084779" lon="8.577239904915851"><ele>672.0</ele><time>2026-04-09T10:18:48Z</time></trkpt><trkpt lat="44.48875987937903" lon="8.57713571679022"><ele>672.75</ele><time>2026-04-09T10:18:49Z</time></trkpt><trkpt lat="44.48861397303378" lon="8.577047704426812"><ele>673.5</ele><time>2026-04-09T10:18:50Z</time></trkpt><trkpt lat="44.488479193388734" lon="8.576978922875867"><ele>674.25</ele><time>2026-04-09T10:18:51Z</time></trkpt><trkpt lat="44.488340290416126" lon="8.576932136583602"><ele>675.0</ele><time>2026-04-09T10:18:52Z</time></trkpt><trkpt lat="44.48819652264017" lon="8.576923450789351"><ele>675.0</ele><time>2026-04-09T10:18:53Z</time></trkpt><trkpt lat="44.4880580989575" lon="8.576948955310355"><ele>675.0</ele><time>2026-04-09T10:18:54Z</time></trkpt><trkpt lat="44.487917399966065" lon="8.57700370411073"><ele>675.0</ele><time>2026-04-09T10:18:55Z</time></trkpt><trkpt lat="44.48778287742988" lon="8.577092052535008"><ele>675.0</ele><time>2026-04-09T10:18:56Z</time></trkpt><trkpt lat="44.487650560160915" lon="8.577209204972998"><ele>679.0</ele><time>2026-04-09T10:18:57Z</time></trkpt><trkpt lat="44.48750971430349" lon="8.577330696365973"><ele>683.0</ele><time>2026-04-09T10:18:58Z</time></trkpt><trkpt lat="44.487365866608535" lon="8.577434083725894"><ele>687.0</ele><time>2026-04-09T10:18:59Z</time></trkpt><trkpt lat="44.48722243555796" lon="8.577491565200516"><ele>687.0</ele><time>2026-04-09T10:19:00Z</time></trkpt><trkpt lat="44.487098686175784" lon="8.577577677726179"><ele>687.0</ele><time>2026-04-09T10:19:01Z</time></trkpt><trkpt lat="44.486966611461355" lon="8.577622924479467"><ele>687.0</ele><time>2026-04-09T10:19:02Z</time></trkpt><trkpt lat="44.48682656798138" lon="8.577617334958704"><ele>687.0</ele><time>2026-04-09T10:19:03Z</time></trkpt><trkpt lat="44.48667943476667" lon="8.577622609084194"><ele>687.5</ele><time>2026-04-09T10:19:04Z</time></trkpt><trkpt lat="44.486539123881094" lon="8.57764955792046"><ele>688.0</ele><time>2026-04-09T10:19:05Z</time></trkpt><trkpt lat="44.48641519285052" lon="8.57766395623022"><ele>688.5</ele><time>2026-04-09T10:19:06Z</time></trkpt><trkpt lat="44.486307378823106" lon="8.577681236781649"><ele>689.0</ele><time>2026-04-09T10:19:07Z</time></trkpt><trkpt lat="44.48621271354411" lon="8.577684322696747"><ele>689.8333333333333</ele><time>2026-04-09T10:19:08Z</time></trkpt><trkpt lat="44.486129695836006" lon="8.577653433116366"><ele>690.6666666666666</ele><time>2026-04-09T10:19:09Z</time></trkpt><trkpt lat="44.4860848969403" lon="8.577576886790192"><ele>691.5</ele><time>2026-04-09T10:19:10Z</time></trkpt><trkpt lat="44.486059198709206" lon="8.57745858724114"><ele>692.3333333333334</ele><time>2026-04-09T10:19:11Z</time></trkpt><trkpt lat="44.48605225515752" lon="8.577337928746479"><ele>693.1666666666667</ele><time>2026-04-09T10:19:12Z</time></trkpt><trkpt lat="44.48608905082187" lon="8.577232171014312"><ele>694.0</ele><time>2026-04-09T10:19:13Z</time></trkpt><trkpt lat="44.486166454338296" lon="8.577161122655713"><ele>693.75</ele><time>2026-04-09T10:19:14Z</time></trkpt><trkpt lat="44.48626531851018" lon="8.577106150643536"><ele>693.5</ele><time>2026-04-09T10:19:15Z</time></trkpt><trkpt lat="44.48637537960374" lon="8.577040010675047"><ele>693.25</ele><time>2026-04-09T10:19:16Z</time></trkpt><trkpt lat="44.486489602187284" lon="8.576972074458798"><ele>693.0</ele><time>2026-04-09T10:19:17Z</time></trkpt><trkpt lat="44.486607013096375" lon="8.576891699527259"><ele>693.0</ele><time>2026-04-09T10:19:18Z</time></trkpt><trkpt lat="44.4867041517304" lon="8.576792475664016"><ele>693.0</ele><time>2026-04-09T10:19:19Z</time></trkpt><trkpt lat="44.48677535314746" lon="8.576649388400629"><ele>693.0</ele><time>2026-04-09T10:19:20Z</time></trkpt><trkpt lat="44.48681477781363" lon="8.576483533250638"><ele>693.0</ele><time>2026-04-09T10:19:21Z</time></trkpt><trkpt lat="44.486820701806984" lon="8.576334909496099"><ele>693.25</ele><time>2026-04-09T10:19:22Z</time></trkpt><trkpt lat="44.48679334125329" lon="8.57618449081222"><ele>693.5</ele><time>2026-04-09T10:19:23Z</time></trkpt><trkpt lat="44.48672596887494" lon="8.576042364826845"><ele>693.75</ele><time>2026-04-09T10:19:24Z</time></trkpt><trkpt lat="44.48662564876192" lon="8.575926579137557"><ele>694.0</ele><time>2026-04-09T10:19:25Z</time></trkpt><trkpt lat="44.48650692932471" lon="8.575860037971983"><ele>694.0</ele><time>2026-04-09T10:19:26Z</time></trkpt><trkpt lat="44.48637585258681" lon="8.575844605631964"><ele>694.0</ele><time>2026-04-09T10:19:27Z</time></trkpt><trkpt lat="44.48623367103162" lon="8.575869585375019"><ele>694.0</ele><time>2026-04-09T10:19:28Z</time></trkpt><trkpt lat="44.486085695099405" lon="8.575895133227926"><ele>694.0</ele><time>2026-04-09T10:19:29Z</time></trkpt><trkpt lat="44.48593367557302" lon="8.575922808462334"><ele>695.25</ele><time>2026-04-09T10:19:30Z</time></trkpt><trkpt lat="44.48578569646445" lon="8.575948389974656"><ele>696.5</ele><time>2026-04-09T10:19:31Z</time></trkpt><trkpt lat="44.485638832099916" lon="8.575954176663435"><ele>697.75</ele><time>2026-04-09T10:19:32Z</time></trkpt><trkpt lat="44.485486929287426" lon="8.575935940110021"><ele>699.0</ele><time>2026-04-09T10:19:33Z</time></trkpt><trkpt lat="44.485339465210664" lon="8.575877658521472"><ele>702.25</ele><time>2026-04-09T10:19:34Z</time></trkpt><trkpt lat="44.485217500644026" lon="8.575805722196332"><ele>705.5</ele><time>2026-04-09T10:19:35Z</time></trkpt><trkpt lat="44.48509747808329" lon="8.575701540072979"><ele>708.75</ele><time>2026-04-09T10:19:36Z</time></trkpt><trkpt lat="44.484981942696145" lon="8.575561050954148"><ele>712.0</ele><time>2026-04-09T10:19:37Z</time></trkpt><trkpt lat="44.484866350758594" lon="8.57542487524276"><ele>710.75</ele><time>2026-04-09T10:19:38Z</time></trkpt><trkpt lat="44.48475793163554" lon="8.575310671376375"><ele>709.5</ele><time>2026-04-09T10:19:39Z</time></trkpt><trkpt lat="44.48466597005195" lon="8.575190828101425"><ele>708.25</ele><time>2026-04-09T10:19:40Z</time></trkpt><trkpt lat="44.484607730248214" lon="8.575044444174209"><ele>707.0</ele><time>2026-04-09T10:19:41Z</time></trkpt><trkpt lat="44.484599147120385" lon="8.574884286582044"><ele>707.0</ele><time>2026-04-09T10:19:42Z</time></trkpt><trkpt lat="44.48463479377329" lon="8.574740537726136"><ele>707.0</ele><time>2026-04-09T10:19:43Z</time></trkpt><trkpt lat="44.4847107252053" lon="8.574621359421748"><ele>707.0</ele><time>2026-04-09T10:19:44Z</time></trkpt><trkpt lat="44.48481395929965" lon="8.574521554649724"><ele>707.0</ele><time>2026-04-09T10:19:45Z</time></trkpt><trkpt lat="44.484921396514416" lon="8.574426701520316"><ele>709.25</ele><time>2026-04-09T10:19:46Z</time></trkpt><trkpt lat="44.48500671855342" lon="8.574301159027756"><ele>711.5</ele><time>2026-04-09T10:19:47Z</time></trkpt><trkpt lat="44.4850592201398" lon="8.574144201632333"><ele>713.75</ele><time>2026-04-09T10:19:48Z</time></trkpt><trkpt lat="44.48507606507707" lon="8.573974426975917"><ele>716.0</ele><time>2026-04-09T10:19:49Z</time></trkpt><trkpt lat="44.48505683202008" lon="8.573809487040176"><ele>717.0</ele><time>2026-04-09T10:19:50Z</time></trkpt><trkpt lat="44.48499337470339" lon="8.573649623516282"><ele>718.0</ele><time>2026-04-09T10:19:51Z</time></trkpt><trkpt lat="44.48491202089342" lon="8.57349261541682"><ele>719.0</ele><time>2026-04-09T10:19:52Z</time></trkpt><trkpt lat="44.48482023354445" lon="8.573328077186453"><ele>720.0</ele><time>2026-04-09T10:19:53Z</time></trkpt><trkpt lat="44.484735828085896" lon="8.573163462394607"><ele>720.0</ele><time>2026-04-09T10:19:54Z</time></trkpt><trkpt lat="44.48466571445074" lon="8.573011917951918"><ele>720.0</ele><time>2026-04-09T10:19:55Z</time></trkpt><trkpt lat="44.48462820553344" lon="8.572852446633554"><ele>720.0</ele><time>2026-04-09T10:19:56Z</time></trkpt><trkpt lat="44.48462983388139" lon="8.572680776648163"><ele>720.0</ele><time>2026-04-09T10:19:57Z</time></trkpt><trkpt lat="44.48465611079929" lon="8.572510872459302"><ele>720.75</ele><time>2026-04-09T10:19:58Z</time></trkpt><trkpt lat="44.48466603969826" lon="8.572324884937307"><ele>721.5</ele><time>2026-04-09T10:19:59Z</time></trkpt><trkpt lat="44.484677023252964" lon="8.57214533314956"><ele>722.25</ele><time>2026-04-09T10:20:00Z</time></trkpt><trkpt lat="44.484702793509356" lon="8.57197243097649"><ele>723.0</ele><time>2026-04-09T10:20:01Z</time></trkpt><trkpt lat="44.484731443879255" lon="8.571817332966152"><ele>723.2</ele><time>2026-04-09T10:20:02Z</time></trkpt><trkpt lat="44.48474671807032" lon="8.571663462021414"><ele>723.4</ele><time>2026-04-09T10:20:03Z</time></trkpt><trkpt lat="44.48474165371604" lon="8.571525552751584"><ele>723.6</ele><time>2026-04-09T10:20:04Z</time></trkpt><trkpt lat="44.48470198379758" lon="8.571397826983608"><ele>723.8000000000001</ele><time>2026-04-09T10:20:05Z</time></trkpt><trkpt lat="44.48462278597752" lon="8.571303753238821"><ele>724.0</ele><time>2026-04-09T10:20:06Z</time></trkpt><trkpt lat="44.484520301392934" lon="8.571260041592462"><ele>724.0</ele><time>2026-04-09T10:20:07Z</time></trkpt><trkpt lat="44.48439690360106" lon="8.571248675933084"><ele>724.0</ele><time>2026-04-09T10:20:08Z</time></trkpt><trkpt lat="44.484267784512376" lon="8.571234743760444"><ele>724.0</ele><time>2026-04-09T10:20:09Z</time></trkpt><trkpt lat="44.48413380549215" lon="8.571191693198266"><ele>724.0</ele><time>2026-04-09T10:20:10Z</time></trkpt><trkpt lat="44.48400839355413" lon="8.571144802440188"><ele>724.0</ele><time>2026-04-09T10:20:11Z</time></trkpt><trkpt lat="44.483896253528485" lon="8.571099654843245"><ele>724.0</ele><time>2026-04-09T10:20:12Z</time></trkpt><trkpt lat="44.48379316826162" lon="8.571045993718563"><ele>724.0</ele><time>2026-04-09T10:20:13Z</time></trkpt><trkpt lat="44.48371381181484" lon="8.570976752465054"><ele>724.0</ele><time>2026-04-09T10:20:14Z</time></trkpt><trkpt lat="44.48366430983237" lon="8.57087021480678"><ele>724.0</ele><time>2026-04-09T10:20:15Z</time></trkpt><trkpt lat="44.483659566426425" lon="8.570740374276742"><ele>729.25</ele><time>2026-04-09T10:20:16Z</time></trkpt><trkpt lat="44.48368585833939" lon="8.57059966773624"><ele>734.5</ele><time>2026-04-09T10:20:17Z</time></trkpt><trkpt lat="44.48372216636455" lon="8.57044214534661"><ele>739.75</ele><time>2026-04-09T10:20:18Z</time></trkpt><trkpt lat="44.483737825828456" lon="8.570268929990206"><ele>745.0</ele><time>2026-04-09T10:20:19Z</time></trkpt><trkpt lat="44.48373390907138" lon="8.570085132873245"><ele>745.0</ele><time>2026-04-09T10:20:20Z</time></trkpt><trkpt lat="44.48372815981459" lon="8.569923595081805"><ele>745.0</ele><time>2026-04-09T10:20:21Z</time></trkpt><trkpt lat="44.483690386766" lon="8.569767194335185"><ele>745.0</ele><time>2026-04-09T10:20:22Z</time></trkpt><trkpt lat="44.483629398309674" lon="8.569613381845885"><ele>745.0</ele><time>2026-04-09T10:20:23Z</time></trkpt><trkpt lat="44.48356906085996" lon="8.569450662742438"><ele>744.0</ele><time>2026-04-09T10:20:24Z</time></trkpt><trkpt lat="44.483529215645234" lon="8.569274694003818"><ele>743.0</ele><time>2026-04-09T10:20:25Z</time></trkpt><trkpt lat="44.48350254457394" lon="8.569095554708987"><ele>742.0</ele><time>2026-04-09T10:20:26Z</time></trkpt><trkpt lat="44.483462795801266" lon="8.568928432957927"><ele>741.0</ele><time>2026-04-09T10:20:27Z</time></trkpt><trkpt lat="44.48340340623566" lon="8.568774598307941"><ele>740.8</ele><time>2026-04-09T10:20:28Z</time></trkpt><trkpt lat="44.483332695800456" lon="8.568638329986818"><ele>740.5999999999999</ele><time>2026-04-09T10:20:29Z</time></trkpt><trkpt lat="44.4832645429592" lon="8.56851970285226"><ele>740.4</ele><time>2026-04-09T10:20:30Z</time></trkpt><trkpt lat="44.48322691633832" lon="8.568403997294666"><ele>740.2</ele><time>2026-04-09T10:20:31Z</time></trkpt><trkpt lat="44.48323485618914" lon="8.56828208727445"><ele>740.0</ele><time>2026-04-09T10:20:32Z</time></trkpt><trkpt lat="44.48328614969256" lon="8.568175659987736"><ele>740.0</ele><time>2026-04-09T10:20:33Z</time></trkpt><trkpt lat="44.48337395845657" lon="8.568109512222263"><ele>740.0</ele><time>2026-04-09T10:20:34Z</time></trkpt><trkpt lat="44.48348425800246" lon="8.568111599404231"><ele>740.0</ele><time>2026-04-09T10:20:35Z</time></trkpt><trkpt lat="44.48359376985785" lon="8.568072957647885"><ele>740.0</ele><time>2026-04-09T10:20:36Z</time></trkpt><trkpt lat="44.483712844744964" lon="8.568015780306744"><ele>740.0</ele><time>2026-04-09T10:20:37Z</time></trkpt><trkpt lat="44.483823750571" lon="8.567921484370377"><ele>739.2</ele><time>2026-04-09T10:20:38Z</time></trkpt><trkpt lat="44.48390656245883" lon="8.567818870036266"><ele>738.4</ele><time>2026-04-09T10:20:39Z</time></trkpt><trkpt lat="44.483951244451504" lon="8.567693733203669"><ele>737.5999999999999</ele><time>2026-04-09T10:20:40Z</time></trkpt><trkpt lat="44.48395830151677" lon="8.567546895280332"><ele>736.8</ele><time>2026-04-09T10:20:41Z</time></trkpt><trkpt lat="44.4839305911397" lon="8.567396796600047"><ele>736.0</ele><time>2026-04-09T10:20:42Z</time></trkpt><trkpt lat="44.48387901337613" lon="8.567237610566506"><ele>736.0</ele><time>2026-04-09T10:20:43Z</time></trkpt><trkpt lat="44.48383133254564" lon="8.56706427085529"><ele>736.0</ele><time>2026-04-09T10:20:44Z</time></trkpt><trkpt lat="44.48380735974313" lon="8.56687580230689"><ele>736.0</ele><time>2026-04-09T10:20:45Z</time></trkpt><trkpt lat="44.48380865121524" lon="8.566699218435485"><ele>736.0</ele><time>2026-04-09T10:20:46Z</time></trkpt><trkpt lat="44.48383249633871" lon="8.566529863526592"><ele>736.5</ele><time>2026-04-09T10:20:47Z</time></trkpt><trkpt lat="44.48385126468315" lon="8.566364892294764"><ele>737.0</ele><time>2026-04-09T10:20:48Z</time></trkpt><trkpt lat="44.48383412423482" lon="8.566195309904543"><ele>737.5</ele><time>2026-04-09T10:20:49Z</time></trkpt><trkpt lat="44.48377886315824" lon="8.566016199116797"><ele>738.0</ele><time>2026-04-09T10:20:50Z</time></trkpt><trkpt lat="44.48371262065241" lon="8.56584663396174"><ele>739.75</ele><time>2026-04-09T10:20:51Z</time></trkpt><trkpt lat="44.48365176623763" lon="8.56567632601393"><ele>741.5</ele><time>2026-04-09T10:20:52Z</time></trkpt><trkpt lat="44.48360069789346" lon="8.565503987019195"><ele>743.25</ele><time>2026-04-09T10:20:53Z</time></trkpt><trkpt lat="44.48355710678424" lon="8.565338336149601"><ele>745.0</ele><time>2026-04-09T10:20:54Z</time></trkpt><trkpt lat="44.48352816482732" lon="8.565187520908706"><ele>745.0</ele><time>2026-04-09T10:20:55Z</time></trkpt><trkpt lat="44.48350229997016" lon="8.565044638431278"><ele>745.0</ele><time>2026-04-09T10:20:56Z</time></trkpt><trkpt lat="44.48347945196835" lon="8.564926003132216"><ele>745.0</ele><time>2026-04-09T10:20:57Z</time></trkpt><trkpt lat="44.48344240196836" lon="8.564819476123727"><ele>745.0</ele><time>2026-04-09T10:20:58Z</time></trkpt><trkpt lat="44.48337475105241" lon="8.564725868114182"><ele>745.0</ele><time>2026-04-09T10:20:59Z</time></trkpt><trkpt lat="44.48328150067075" lon="8.564658646100895"><ele>745.0</ele><time>2026-04-09T10:21:00Z</time></trkpt><trkpt lat="44.48317945979338" lon="8.564607309511707"><ele>745.0</ele><time>2026-04-09T10:21:01Z</time></trkpt><trkpt lat="44.48306616295984" lon="8.56456694759336"><ele>745.0</ele><time>2026-04-09T10:21:02Z</time></trkpt><trkpt lat="44.482951164461944" lon="8.564524815003994"><ele>745.0</ele><time>2026-04-09T10:21:03Z</time></trkpt><trkpt lat="44.48283480428393" lon="8.564494030044875"><ele>744.25</ele><time>2026-04-09T10:21:04Z</time></trkpt><trkpt lat="44.482716439782656" lon="8.564470500059178"><ele>743.5</ele><time>2026-04-09T10:21:05Z</time></trkpt><trkpt lat="44.482601352451724" lon="8.564447803847544"><ele>742.75</ele><time>2026-04-09T10:21:06Z</time></trkpt><trkpt lat="44.482497975263854" lon="8.56439122915005"><ele>742.0</ele><time>2026-04-09T10:21:07Z</time></trkpt><trkpt lat="44.48240848928884" lon="8.564290519221936"><ele>742.0</ele><time>2026-04-09T10:21:08Z</time></trkpt><trkpt lat="44.482321495819185" lon="8.56417328176689"><ele>742.0</ele><time>2026-04-09T10:21:09Z</time></trkpt><trkpt lat="44.482239441119496" lon="8.564045432146301"><ele>742.0</ele><time>2026-04-09T10:21:10Z</time></trkpt><trkpt lat="44.48215979361532" lon="8.563908229682724"><ele>742.0</ele><time>2026-04-09T10:21:11Z</time></trkpt><trkpt lat="44.482082285561766" lon="8.5637659742199"><ele>743.25</ele><time>2026-04-09T10:21:12Z</time></trkpt><trkpt lat="44.48200327434816" lon="8.563636214088993"><ele>744.5</ele><time>2026-04-09T10:21:13Z</time></trkpt><trkpt lat="44.481926971943636" lon="8.563516973178267"><ele>745.75</ele><time>2026-04-09T10:21:14Z</time></trkpt><trkpt lat="44.4818514136296" lon="8.56339904437143"><ele>747.0</ele><time>2026-04-09T10:21:15Z</time></trkpt><trkpt lat="44.48180282364582" lon="8.563260928130633"><ele>747.0</ele><time>2026-04-09T10:21:16Z</time></trkpt><trkpt lat="44.48175318536666" lon="8.563123976526537"><ele>747.0</ele><time>2026-04-09T10:21:17Z</time></trkpt><trkpt lat="44.481743096695986" lon="8.56295840054861"><ele>747.0</ele><time>2026-04-09T10:21:18Z</time></trkpt><trkpt lat="44.48175749312869" lon="8.562795688090695"><ele>747.0</ele><time>2026-04-09T10:21:19Z</time></trkpt><trkpt lat="44.481803247257346" lon="8.562641226186182"><ele>748.0</ele><time>2026-04-09T10:21:20Z</time></trkpt><trkpt lat="44.48187560363966" lon="8.562501951117808"><ele>749.0</ele><time>2026-04-09T10:21:21Z</time></trkpt><trkpt lat="44.48198647098147" lon="8.562401859386265"><ele>750.0</ele><time>2026-04-09T10:21:22Z</time></trkpt><trkpt lat="44.48208976212196" lon="8.562273668492885"><ele>751.0</ele><time>2026-04-09T10:21:23Z</time></trkpt><trkpt lat="44.48218758677672" lon="8.562155071471695"><ele>747.5</ele><time>2026-04-09T10:21:24Z</time></trkpt><trkpt lat="44.48227394670817" lon="8.562009605413218"><ele>744.0</ele><time>2026-04-09T10:21:25Z</time></trkpt><trkpt lat="44.48234368048538" lon="8.56183179998655"><ele>740.5</ele><time>2026-04-09T10:21:26Z</time></trkpt><trkpt lat="44.48239610458888" lon="8.561647101100448"><ele>737.0</ele><time>2026-04-09T10:21:27Z</time></trkpt><trkpt lat="44.48244078754231" lon="8.561466286564984"><ele>737.0</ele><time>2026-04-09T10:21:28Z</time></trkpt><trkpt lat="44.4824809166884" lon="8.56129672857596"><ele>737.0</ele><time>2026-04-09T10:21:29Z</time></trkpt><trkpt lat="44.48251770060792" lon="8.561134673200332"><ele>737.0</ele><time>2026-04-09T10:21:30Z</time></trkpt><trkpt lat="44.48253600724926" lon="8.560972468598765"><ele>737.0</ele><time>2026-04-09T10:21:31Z</time></trkpt><trkpt lat="44.482539653709274" lon="8.560797611315945"><ele>738.25</ele><time>2026-04-09T10:21:32Z</time></trkpt><trkpt lat="44.48253296309497" lon="8.56061934077181"><ele>739.5</ele><time>2026-04-09T10:21:33Z</time></trkpt><trkpt lat="44.48252969707568" lon="8.560438668758305"><ele>740.75</ele><time>2026-04-09T10:21:34Z</time></trkpt><trkpt lat="44.482531642338294" lon="8.560257803127346"><ele>742.0</ele><time>2026-04-09T10:21:35Z</time></trkpt><trkpt lat="44.482544370180314" lon="8.560074821092142"><ele>742.0</ele><time>2026-04-09T10:21:36Z</time></trkpt><trkpt lat="44.4825743683104" lon="8.559892598634192"><ele>742.0</ele><time>2026-04-09T10:21:37Z</time></trkpt><trkpt lat="44.48260919966163" lon="8.559719596769003"><ele>742.0</ele><time>2026-04-09T10:21:38Z</time></trkpt><trkpt lat="44.48265274899953" lon="8.559568492623342"><ele>742.0</ele><time>2026-04-09T10:21:39Z</time></trkpt><trkpt lat="44.48270378287556" lon="8.559428136399747"><ele>743.0</ele><time>2026-04-09T10:21:40Z</time></trkpt><trkpt lat="44.48277614497541" lon="8.559310707014479"><ele>744.0</ele><time>2026-04-09T10:21:41Z</time></trkpt><trkpt lat="44.48285671163412" lon="8.559209280539402"><ele>745.0</ele><time>2026-04-09T10:21:42Z</time></trkpt><trkpt lat="44.48292773039627" lon="8.559101821108431"><ele>746.0</ele><time>2026-04-09T10:21:43Z</time></trkpt><trkpt lat="44.48296543192105" lon="8.558961609345266"><ele>747.0</ele><time>2026-04-09T10:21:44Z</time></trkpt><trkpt lat="44.48298528433297" lon="8.558792850179742"><ele>741.25</ele><time>2026-04-09T10:21:45Z</time></trkpt><trkpt lat="44.48301023107616" lon="8.558619363921615"><ele>735.5</ele><time>2026-04-09T10:21:46Z</time></trkpt><trkpt lat="44.48303751961642" lon="8.558468595436654"><ele>729.75</ele><time>2026-04-09T10:21:47Z</time></trkpt><trkpt lat="44.48304108488806" lon="8.558313028038784"><ele>724.0</ele><time>2026-04-09T10:21:48Z</time></trkpt><trkpt lat="44.48303474123603" lon="8.558139752017167"><ele>724.0</ele><time>2026-04-09T10:21:49Z</time></trkpt><trkpt lat="44.482997544650964" lon="8.557963493208659"><ele>724.0</ele><time>2026-04-09T10:21:50Z</time></trkpt><trkpt lat="44.48296086738433" lon="8.557795434740681"><ele>724.0</ele><time>2026-04-09T10:21:51Z</time></trkpt><trkpt lat="44.48293009199113" lon="8.557636216528133"><ele>724.0</ele><time>2026-04-09T10:21:52Z</time></trkpt><trkpt lat="44.48290652752269" lon="8.55748467505134"><ele>721.8000000000001</ele><time>2026-04-09T10:21:53Z</time></trkpt><trkpt lat="44.48291672945908" lon="8.557322483896836"><ele>719.6</ele><time>2026-04-09T10:21:54Z</time></trkpt><trkpt lat="44.48293856614298" lon="8.557162410066736"><ele>717.4</ele><time>2026-04-09T10:21:55Z</time></trkpt><trkpt lat="44.483002002300665" lon="8.557031222252222"><ele>715.2</ele><time>2026-04-09T10:21:56Z</time></trkpt><trkpt lat="44.48303910937823" lon="8.556904698958904"><ele>713.0</ele><time>2026-04-09T10:21:57Z</time></trkpt><trkpt lat="44.483056841206555" lon="8.556778378149852"><ele>711.4</ele><time>2026-04-09T10:21:58Z</time></trkpt><trkpt lat="44.48303735641387" lon="8.556645052111993"><ele>709.8</ele><time>2026-04-09T10:21:59Z</time></trkpt><trkpt lat="44.48298063543846" lon="8.556529358354187"><ele>708.2</ele><time>2026-04-09T10:22:00Z</time></trkpt><trkpt lat="44.48290418564443" lon="8.556466754107051"><ele>706.6</ele><time>2026-04-09T10:22:01Z</time></trkpt><trkpt lat="44.48280127261199" lon="8.556453898979282"><ele>705.0</ele><time>2026-04-09T10:22:02Z</time></trkpt><trkpt lat="44.48266961574586" lon="8.556476899269413"><ele>710.25</ele><time>2026-04-09T10:22:03Z</time></trkpt><trkpt lat="44.4825419639046" lon="8.55647967662219"><ele>715.5</ele><time>2026-04-09T10:22:04Z</time></trkpt><trkpt lat="44.48240597375457" lon="8.556460846451671"><ele>720.75</ele><time>2026-04-09T10:22:05Z</time></trkpt><trkpt lat="44.482273616396064" lon="8.556426726720966"><ele>726.0</ele><time>2026-04-09T10:22:06Z</time></trkpt><trkpt lat="44.48215092985038" lon="8.55638997183426"><ele>728.0</ele><time>2026-04-09T10:22:07Z</time></trkpt><trkpt lat="44.48204799792698" lon="8.556316532154607"><ele>730.0</ele><time>2026-04-09T10:22:08Z</time></trkpt><trkpt lat="44.481936643772656" lon="8.556281876730193"><ele>732.0</ele><time>2026-04-09T10:22:09Z</time></trkpt><trkpt lat="44.48185439459965" lon="8.556231805519253"><ele>734.0</ele><time>2026-04-09T10:22:10Z</time></trkpt><trkpt lat="44.48178167127679" lon="8.556161280295703"><ele>736.0</ele><time>2026-04-09T10:22:11Z</time></trkpt><trkpt lat="44.48173578982903" lon="8.55603485068109"><ele>731.0</ele><time>2026-04-09T10:22:12Z</time></trkpt><trkpt lat="44.481707772273644" lon="8.555908901568014"><ele>726.0</ele><time>2026-04-09T10:22:13Z</time></trkpt><trkpt lat="44.48170403286047" lon="8.555755545356053"><ele>721.0</ele><time>2026-04-09T10:22:14Z</time></trkpt><trkpt lat="44.481753606960865" lon="8.555590835098293"><ele>716.0</ele><time>2026-04-09T10:22:15Z</time></trkpt><trkpt lat="44.48177299613445" lon="8.555418992176252"><ele>714.75</ele><time>2026-04-09T10:22:16Z</time></trkpt><trkpt lat="44.481808501880046" lon="8.55524750519235"><ele>713.5</ele><time>2026-04-09T10:22:17Z</time></trkpt><trkpt lat="44.48183388580617" lon="8.555075304165982"><ele>712.25</ele><time>2026-04-09T10:22:18Z</time></trkpt><trkpt lat="44.481858250735286" lon="8.554911599635018"><ele>711.0</ele><time>2026-04-09T10:22:19Z</time></trkpt><trkpt lat="44.481889645339045" lon="8.554751794872253"><ele>711.0</ele><time>2026-04-09T10:22:20Z</time></trkpt><trkpt lat="44.48193488097273" lon="8.554604514699953"><ele>711.0</ele><time>2026-04-09T10:22:21Z</time></trkpt><trkpt lat="44.48199423771365" lon="8.554462670998767"><ele>711.0</ele><time>2026-04-09T10:22:22Z</time></trkpt><trkpt lat="44.4820782136753" lon="8.554332371457354"><ele>711.0</ele><time>2026-04-09T10:22:23Z</time></trkpt><trkpt lat="44.48218879085224" lon="8.55426941064687"><ele>708.25</ele><time>2026-04-09T10:22:24Z</time></trkpt><trkpt lat="44.48229087523249" lon="8.554185586199992"><ele>705.5</ele><time>2026-04-09T10:22:25Z</time></trkpt><trkpt lat="44.482401459371765" lon="8.554126657468505"><ele>702.75</ele><time>2026-04-09T10:22:26Z</time></trkpt><trkpt lat="44.48249942374864" lon="8.554035726106518"><ele>700.0</ele><time>2026-04-09T10:22:27Z</time></trkpt><trkpt lat="44.48258493522393" lon="8.553905363092467"><ele>700.0</ele><time>2026-04-09T10:22:28Z</time></trkpt><trkpt lat="44.48265811735891" lon="8.553768855582007"><ele>700.0</ele><time>2026-04-09T10:22:29Z</time></trkpt><trkpt lat="44.48274648816275" lon="8.553640509504294"><ele>700.0</ele><time>2026-04-09T10:22:30Z</time></trkpt><trkpt lat="44.482835503941324" lon="8.553530181553008"><ele>700.0</ele><time>2026-04-09T10:22:31Z</time></trkpt><trkpt lat="44.48294673291024" lon="8.553488100356534"><ele>698.5</ele><time>2026-04-09T10:22:32Z</time></trkpt><trkpt lat="44.483051249625014" lon="8.553409575852093"><ele>697.0</ele><time>2026-04-09T10:22:33Z</time></trkpt><trkpt lat="44.483166905595226" lon="8.553372319582028"><ele>695.5</ele><time>2026-04-09T10:22:34Z</time></trkpt><trkpt lat="44.483275644739955" lon="8.55332145715303"><ele>694.0</ele><time>2026-04-09T10:22:35Z</time></trkpt><trkpt lat="44.48337173174795" lon="8.55324900306737"><ele>694.0</ele><time>2026-04-09T10:22:36Z</time></trkpt><trkpt lat="44.48345203106853" lon="8.553155787039536"><ele>694.0</ele><time>2026-04-09T10:22:37Z</time></trkpt><trkpt lat="44.48353700611417" lon="8.553032999662483"><ele>694.0</ele><time>2026-04-09T10:22:38Z</time></trkpt><trkpt lat="44.48361423465217" lon="8.552913557760968"><ele>694.0</ele><time>2026-04-09T10:22:39Z</time></trkpt><trkpt lat="44.48368980991758" lon="8.552843126529838"><ele>694.0</ele><time>2026-04-09T10:22:40Z</time></trkpt><trkpt lat="44.48375614731488" lon="8.552772017177858"><ele>690.8333333333334</ele><time>2026-04-09T10:22:41Z</time></trkpt><trkpt lat="44.48378662373836" lon="8.552687724540588"><ele>687.6666666666667</ele><time>2026-04-09T10:22:42Z</time></trkpt><trkpt lat="44.483800235427566" lon="8.552566045343696"><ele>684.5</ele><time>2026-04-09T10:22:43Z</time></trkpt><trkpt lat="44.48378584861595" lon="8.552431823073412"><ele>681.3333333333334</ele><time>2026-04-09T10:22:44Z</time></trkpt><trkpt lat="44.48377958934158" lon="8.552296185344973"><ele>678.1666666666666</ele><time>2026-04-09T10:22:45Z</time></trkpt><trkpt lat="44.48380726504373" lon="8.552165125603999"><ele>675.0</ele><time>2026-04-09T10:22:46Z</time></trkpt><trkpt lat="44.48385533671363" lon="8.552041269038796"><ele>676.0</ele><time>2026-04-09T10:22:47Z</time></trkpt><trkpt lat="44.483887551496515" lon="8.551908050748366"><ele>677.0</ele><time>2026-04-09T10:22:48Z</time></trkpt><trkpt lat="44.483894429795065" lon="8.551756168416874"><ele>678.0</ele><time>2026-04-09T10:22:49Z</time></trkpt><trkpt lat="44.483879467956825" lon="8.551598980766313"><ele>679.0</ele><time>2026-04-09T10:22:50Z</time></trkpt><trkpt lat="44.48384020525725" lon="8.551427027670416"><ele>679.0</ele><time>2026-04-09T10:22:51Z</time></trkpt><trkpt lat="44.48378609613594" lon="8.551269534452977"><ele>679.0</ele><time>2026-04-09T10:22:52Z</time></trkpt><trkpt lat="44.483733665007634" lon="8.55113336822702"><ele>679.0</ele><time>2026-04-09T10:22:53Z</time></trkpt><trkpt lat="44.48369643515964" lon="8.551020066013642"><ele>679.0</ele><time>2026-04-09T10:22:54Z</time></trkpt><trkpt lat="44.48363938124908" lon="8.550926432670206"><ele>679.0</ele><time>2026-04-09T10:22:55Z</time></trkpt><trkpt lat="44.48356157661081" lon="8.550869458079976"><ele>680.2</ele><time>2026-04-09T10:22:56Z</time></trkpt><trkpt lat="44.48346960602914" lon="8.550827052813384"><ele>681.4000000000001</ele><time>2026-04-09T10:22:57Z</time></trkpt><trkpt lat="44.48337109082597" lon="8.550785515714999"><ele>682.6</ele><time>2026-04-09T10:22:58Z</time></trkpt><trkpt lat="44.483263447983006" lon="8.550757752588188"><ele>683.8</ele><time>2026-04-09T10:22:59Z</time></trkpt><trkpt lat="44.483148310531675" lon="8.55073354519036"><ele>685.0</ele><time>2026-04-09T10:23:00Z</time></trkpt><trkpt lat="44.483020466250366" lon="8.55072541133836"><ele>685.5</ele><time>2026-04-09T10:23:01Z</time></trkpt><trkpt lat="44.48289656296279" lon="8.550746068231236"><ele>686.0</ele><time>2026-04-09T10:23:02Z</time></trkpt><trkpt lat="44.482777967265655" lon="8.550768559521837"><ele>686.5</ele><time>2026-04-09T10:23:03Z</time></trkpt><trkpt lat="44.48266728601339" lon="8.550720267828467"><ele>687.0</ele><time>2026-04-09T10:23:04Z</time></trkpt><trkpt lat="44.482554530094546" lon="8.550674653975259"><ele>687.0</ele><time>2026-04-09T10:23:05Z</time></trkpt><trkpt lat="44.48244500408629" lon="8.550646962480691"><ele>687.0</ele><time>2026-04-09T10:23:06Z</time></trkpt><trkpt lat="44.48232855737196" lon="8.550698481712852"><ele>687.0</ele><time>2026-04-09T10:23:07Z</time></trkpt><trkpt lat="44.48219804744266" lon="8.550726123773996"><ele>687.0</ele><time>2026-04-09T10:23:08Z</time></trkpt><trkpt lat="44.48207673317145" lon="8.550741312729908"><ele>685.25</ele><time>2026-04-09T10:23:09Z</time></trkpt><trkpt lat="44.481962955993446" lon="8.550750017609573"><ele>683.5</ele><time>2026-04-09T10:23:10Z</time></trkpt><trkpt lat="44.48184026447889" lon="8.55077378682467"><ele>681.75</ele><time>2026-04-09T10:23:11Z</time></trkpt><trkpt lat="44.48171765324806" lon="8.55087066162309"><ele>680.0</ele><time>2026-04-09T10:23:12Z</time></trkpt><trkpt lat="44.48159634733115" lon="8.550963943256496"><ele>680.0</ele><time>2026-04-09T10:23:13Z</time></trkpt><trkpt lat="44.4814717732772" lon="8.551065063559095"><ele>680.0</ele><time>2026-04-09T10:23:14Z</time></trkpt><trkpt lat="44.481344356943154" lon="8.55113219787447"><ele>680.0</ele><time>2026-04-09T10:23:15Z</time></trkpt><trkpt lat="44.481237409095954" lon="8.551223897710432"><ele>680.0</ele><time>2026-04-09T10:23:16Z</time></trkpt><trkpt lat="44.48113503546464" lon="8.551287639239407"><ele>684.8</ele><time>2026-04-09T10:23:17Z</time></trkpt><trkpt lat="44.481023755077345" lon="8.551310323851057"><ele>689.6</ele><time>2026-04-09T10:23:18Z</time></trkpt><trkpt lat="44.480930910807494" lon="8.551321511933036"><ele>694.4000000000001</ele><time>2026-04-09T10:23:19Z</time></trkpt><trkpt lat="44.48083218899093" lon="8.551315435484522"><ele>699.2</ele><time>2026-04-09T10:23:20Z</time></trkpt><trkpt lat="44.48073227789868" lon="8.5512784875265"><ele>704.0</ele><time>2026-04-09T10:23:21Z</time></trkpt><trkpt lat="44.48062097115823" lon="8.551219408665272"><ele>701.0</ele><time>2026-04-09T10:23:22Z</time></trkpt><trkpt lat="44.480517724137904" lon="8.551144464154088"><ele>698.0</ele><time>2026-04-09T10:23:23Z</time></trkpt><trkpt lat="44.480418546439694" lon="8.551052326713746"><ele>695.0</ele><time>2026-04-09T10:23:24Z</time></trkpt><trkpt lat="44.48033979054583" lon="8.550960271229743"><ele>692.0</ele><time>2026-04-09T10:23:25Z</time></trkpt><trkpt lat="44.48030823186025" lon="8.55083412868086"><ele>689.0</ele><time>2026-04-09T10:23:26Z</time></trkpt><trkpt lat="44.48029460199444" lon="8.550698279670192"><ele>689.0</ele><time>2026-04-09T10:23:27Z</time></trkpt><trkpt lat="44.480278476653204" lon="8.55057243930534"><ele>689.0</ele><time>2026-04-09T10:23:28Z</time></trkpt><trkpt lat="44.48026076048283" lon="8.550455902975953"><ele>689.0</ele><time>2026-04-09T10:23:29Z</time></trkpt><trkpt lat="44.480299421116065" lon="8.550363313171513"><ele>689.0</ele><time>2026-04-09T10:23:30Z</time></trkpt><trkpt lat="44.480370360461684" lon="8.55029419452188"><ele>689.0</ele><time>2026-04-09T10:23:31Z</time></trkpt><trkpt lat="44.480467257108266" lon="8.550275772975057"><ele>689.0</ele><time>2026-04-09T10:23:32Z</time></trkpt><trkpt lat="44.48057643192104" lon="8.550311338787115"><ele>688.5</ele><time>2026-04-09T10:23:33Z</time></trkpt><trkpt lat="44.48069463229622" lon="8.550346846768365"><ele>688.0</ele><time>2026-04-09T10:23:34Z</time></trkpt><trkpt lat="44.48082649290853" lon="8.55035146007302"><ele>687.5</ele><time>2026-04-09T10:23:35Z</time></trkpt><trkpt lat="44.48094325905283" lon="8.550359037370793"><ele>687.0</ele><time>2026-04-09T10:23:36Z</time></trkpt><trkpt lat="44.481044175728606" lon="8.550363427919233"><ele>687.0</ele><time>2026-04-09T10:23:37Z</time></trkpt><trkpt lat="44.481149153857224" lon="8.550366437797162"><ele>687.0</ele><time>2026-04-09T10:23:38Z</time></trkpt><trkpt lat="44.48125486295348" lon="8.55029819372749"><ele>687.0</ele><time>2026-04-09T10:23:39Z</time></trkpt><trkpt lat="44.48135267154694" lon="8.550185678564175"><ele>687.0</ele><time>2026-04-09T10:23:40Z</time></trkpt><trkpt lat="44.48143737580445" lon="8.550071818471958"><ele>687.75</ele><time>2026-04-09T10:23:41Z</time></trkpt><trkpt lat="44.481511379139995" lon="8.549964905776882"><ele>688.5</ele><time>2026-04-09T10:23:42Z</time></trkpt><trkpt lat="44.481566275304715" lon="8.549806994721754"><ele>689.25</ele><time>2026-04-09T10:23:43Z</time></trkpt><trkpt lat="44.48158774963667" lon="8.54963664548165"><ele>690.0</ele><time>2026-04-09T10:23:44Z</time></trkpt><trkpt lat="44.481617650431396" lon="8.54948450141252"><ele>690.0</ele><time>2026-04-09T10:23:45Z</time></trkpt><trkpt lat="44.481654062654485" lon="8.549364242843934"><ele>690.0</ele><time>2026-04-09T10:23:46Z</time></trkpt><trkpt lat="44.481759258059896" lon="8.549310172052884"><ele>690.0</ele><time>2026-04-09T10:23:47Z</time></trkpt><trkpt lat="44.481865171527225" lon="8.549288112775569"><ele>690.0</ele><time>2026-04-09T10:23:48Z</time></trkpt><trkpt lat="44.48198537674904" lon="8.549268076878235"><ele>690.0</ele><time>2026-04-09T10:23:49Z</time></trkpt><trkpt lat="44.4821078863817" lon="8.549240020738443"><ele>687.75</ele><time>2026-04-09T10:23:50Z</time></trkpt><trkpt lat="44.48222415281545" lon="8.549235346473349"><ele>685.5</ele><time>2026-04-09T10:23:51Z</time></trkpt><trkpt lat="44.48234205931568" lon="8.549274052596813"><ele>683.25</ele><time>2026-04-09T10:23:52Z</time></trkpt><trkpt lat="44.48247766486522" lon="8.549316337215748"><ele>681.0</ele><time>2026-04-09T10:23:53Z</time></trkpt><trkpt lat="44.48261308764287" lon="8.54934392116446"><ele>681.0</ele><time>2026-04-09T10:23:54Z</time></trkpt><trkpt lat="44.48274977677745" lon="8.54934628035196"><ele>681.0</ele><time>2026-04-09T10:23:55Z</time></trkpt><trkpt lat="44.48287780348988" lon="8.549387213006732"><ele>681.0</ele><time>2026-04-09T10:23:56Z</time></trkpt><trkpt lat="44.48300249516164" lon="8.549403084980113"><ele>681.0</ele><time>2026-04-09T10:23:57Z</time></trkpt><trkpt lat="44.48311774808693" lon="8.549414569632072"><ele>679.4</ele><time>2026-04-09T10:23:58Z</time></trkpt><trkpt lat="44.483210876282754" lon="8.549421983377952"><ele>677.8</ele><time>2026-04-09T10:23:59Z</time></trkpt><trkpt lat="44.483315909402634" lon="8.549416674365995"><ele>676.1999999999999</ele><time>2026-04-09T10:24:00Z</time></trkpt><trkpt lat="44.48342617614847" lon="8.549350469475563"><ele>674.5999999999999</ele><time>2026-04-09T10:24:01Z</time></trkpt><trkpt lat="44.48353081441006" lon="8.549242958586298"><ele>673.0</ele><time>2026-04-09T10:24:02Z</time></trkpt><trkpt lat="44.48362254300709" lon="8.549118178183639"><ele>673.0</ele><time>2026-04-09T10:24:03Z</time></trkpt><trkpt lat="44.48369933486463" lon="8.54899064198685"><ele>673.0</ele><time>2026-04-09T10:24:04Z</time></trkpt><trkpt lat="44.483760253144375" lon="8.54884469900723"><ele>673.0</ele><time>2026-04-09T10:24:05Z</time></trkpt><trkpt lat="44.483800641544676" lon="8.548706567755865"><ele>673.0</ele><time>2026-04-09T10:24:06Z</time></trkpt><trkpt lat="44.48382032726717" lon="8.548572165015344"><ele>673.0</ele><time>2026-04-09T10:24:07Z</time></trkpt><trkpt lat="44.483809385588" lon="8.54842312463938"><ele>674.25</ele><time>2026-04-09T10:24:08Z</time></trkpt><trkpt lat="44.483751114594085" lon="8.548271888152607"><ele>675.5</ele><time>2026-04-09T10:24:09Z</time></trkpt><trkpt lat="44.48369889400428" lon="8.54813117061664"><ele>676.75</ele><time>2026-04-09T10:24:10Z</time></trkpt><trkpt lat="44.483632470028645" lon="8.547984340368677"><ele>678.0</ele><time>2026-04-09T10:24:11Z</time></trkpt><trkpt lat="44.48354796565344" lon="8.547841543689648"><ele>674.75</ele><time>2026-04-09T10:24:12Z</time></trkpt><trkpt lat="44.48345596729402" lon="8.547701653926824"><ele>671.5</ele><time>2026-04-09T10:24:13Z</time></trkpt><trkpt lat="44.48336495211115" lon="8.547560148624447"><ele>668.25</ele><time>2026-04-09T10:24:14Z</time></trkpt><trkpt lat="44.48327958557641" lon="8.547426834479378"><ele>665.0</ele><time>2026-04-09T10:24:15Z</time></trkpt><trkpt lat="44.48318477065208" lon="8.547331062420481"><ele>665.0</ele><time>2026-04-09T10:24:16Z</time></trkpt><trkpt lat="44.483102834638856" lon="8.547242411361712"><ele>665.0</ele><time>2026-04-09T10:24:17Z</time></trkpt><trkpt lat="44.48302205000177" lon="8.547188035381003"><ele>665.0</ele><time>2026-04-09T10:24:18Z</time></trkpt><trkpt lat="44.48295543262383" lon="8.547114563454839"><ele>665.0</ele><time>2026-04-09T10:24:19Z</time></trkpt><trkpt lat="44.48290485199827" lon="8.54703243207696"><ele>665.0</ele><time>2026-04-09T10:24:20Z</time></trkpt><trkpt lat="44.48290002549118" lon="8.546930475488715"><ele>665.0</ele><time>2026-04-09T10:24:21Z</time></trkpt><trkpt lat="44.48290331062896" lon="8.54680326665201"><ele>664.2</ele><time>2026-04-09T10:24:22Z</time></trkpt><trkpt lat="44.48292077604589" lon="8.54667840922584"><ele>663.4</ele><time>2026-04-09T10:24:23Z</time></trkpt><trkpt lat="44.48296852119993" lon="8.546577497644735"><ele>662.5999999999999</ele><time>2026-04-09T10:24:24Z</time></trkpt><trkpt lat="44.48304691320463" lon="8.546482172847416"><ele>661.8</ele><time>2026-04-09T10:24:25Z</time></trkpt><trkpt lat="44.483165857654214" lon="8.546456240709935"><ele>661.0</ele><time>2026-04-09T10:24:26Z</time></trkpt><trkpt lat="44.48328997945221" lon="8.546421398220463"><ele>661.0</ele><time>2026-04-09T10:24:27Z</time></trkpt><trkpt lat="44.48341497371036" lon="8.546373821246537"><ele>661.0</ele><time>2026-04-09T10:24:28Z</time></trkpt><trkpt lat="44.48352828653674" lon="8.54639195374236"><ele>661.0</ele><time>2026-04-09T10:24:29Z</time></trkpt><trkpt lat="44.48362544250246" lon="8.546447708725209"><ele>661.0</ele><time>2026-04-09T10:24:30Z</time></trkpt><trkpt lat="44.48371351295838" lon="8.546551643800012"><ele>663.0</ele><time>2026-04-09T10:24:31Z</time></trkpt><trkpt lat="44.48379281959567" lon="8.546675389633556"><ele>665.0</ele><time>2026-04-09T10:24:32Z</time></trkpt><trkpt lat="44.48388818410572" lon="8.546790719343706"><ele>667.0</ele><time>2026-04-09T10:24:33Z</time></trkpt><trkpt lat="44.484006312139805" lon="8.54688000386383"><ele>669.0</ele><time>2026-04-09T10:24:34Z</time></trkpt><trkpt lat="44.48414060524502" lon="8.546937641989619"><ele>669.0</ele><time>2026-04-09T10:24:35Z</time></trkpt><trkpt lat="44.484276832391366" lon="8.54698760753193"><ele>669.0</ele><time>2026-04-09T10:24:36Z</time></trkpt><trkpt lat="44.48441212517272" lon="8.547000420596254"><ele>669.0</ele><time>2026-04-09T10:24:37Z</time></trkpt><trkpt lat="44.48453168958449" lon="8.547014306896893"><ele>669.0</ele><time>2026-04-09T10:24:38Z</time></trkpt><trkpt lat="44.48464598291012" lon="8.547034803241534"><ele>667.5</ele><time>2026-04-09T10:24:39Z</time></trkpt><trkpt lat="44.484758529372314" lon="8.547089197130246"><ele>666.0</ele><time>2026-04-09T10:24:40Z</time></trkpt><trkpt lat="44.484850602205775" lon="8.547209006720628"><ele>664.5</ele><time>2026-04-09T10:24:41Z</time></trkpt><trkpt lat="44.484937077674594" lon="8.547344060361016"><ele>663.0</ele><time>2026-04-09T10:24:42Z</time></trkpt><trkpt lat="44.48503059311807" lon="8.547478081155502"><ele>663.0</ele><time>2026-04-09T10:24:43Z</time></trkpt><trkpt lat="44.48515045054758" lon="8.547586561625183"><ele>663.0</ele><time>2026-04-09T10:24:44Z</time></trkpt><trkpt lat="44.48528578416648" lon="8.547687085791715"><ele>663.0</ele><time>2026-04-09T10:24:45Z</time></trkpt><trkpt lat="44.48541457892776" lon="8.547769704028555"><ele>663.0</ele><time>2026-04-09T10:24:46Z</time></trkpt><trkpt lat="44.48554671559727" lon="8.547829074537551"><ele>659.6666666666666</ele><time>2026-04-09T10:24:47Z</time></trkpt><trkpt lat="44.48567762491318" lon="8.547900822664216"><ele>656.3333333333333</ele><time>2026-04-09T10:24:48Z</time></trkpt><trkpt lat="44.485871206082365" lon="8.547975245863586"><ele>653.0</ele><time>2026-04-09T10:24:49Z</time></trkpt><trkpt lat="44.48602819730399" lon="8.548008342423707"><ele>653.0</ele><time>2026-04-09T10:24:50Z</time></trkpt><trkpt lat="44.48618183257052" lon="8.548063886121602"><ele>653.0</ele><time>2026-04-09T10:24:51Z</time></trkpt><trkpt lat="44.486292591570106" lon="8.54819833842665"><ele>653.0</ele><time>2026-04-09T10:24:52Z</time></trkpt><trkpt lat="44.48640463178421" lon="8.548330516517368"><ele>653.0</ele><time>2026-04-09T10:24:53Z</time></trkpt><trkpt lat="44.48650604765497" lon="8.548475148353965"><ele>653.0</ele><time>2026-04-09T10:24:54Z</time></trkpt><trkpt lat="44.48659000680458" lon="8.548624360384114"><ele>653.0</ele><time>2026-04-09T10:24:55Z</time></trkpt><trkpt lat="44.486676553487904" lon="8.548731212368992"><ele>653.0</ele><time>2026-04-09T10:24:56Z</time></trkpt><trkpt lat="44.48673717992727" lon="8.548836745798882"><ele>653.0</ele><time>2026-04-09T10:24:57Z</time></trkpt><trkpt lat="44.48680425074071" lon="8.54891554075395"><ele>653.0</ele><time>2026-04-09T10:24:58Z</time></trkpt><trkpt lat="44.48688043742521" lon="8.548974366553393"><ele>653.0</ele><time>2026-04-09T10:24:59Z</time></trkpt><trkpt lat="44.48694710867041" lon="8.54900441468692"><ele>653.0</ele><time>2026-04-09T10:25:00Z</time></trkpt><trkpt lat="44.48701628385884" lon="8.549030086358558"><ele>653.0</ele><time>2026-04-09T10:25:01Z</time></trkpt><trkpt lat="44.48709047165017" lon="8.549055876047328"><ele>653.0</ele><time>2026-04-09T10:25:02Z</time></trkpt><trkpt lat="44.48717015380743" lon="8.549071555556317"><ele>653.8333333333333</ele><time>2026-04-09T10:25:03Z</time></trkpt><trkpt lat="44.48724595363735" lon="8.549080877725796"><ele>654.6666666666666</ele><time>2026-04-09T10:25:04Z</time></trkpt><trkpt lat="44.487317333834014" lon="8.549072660400293"><ele>655.5</ele><time>2026-04-09T10:25:05Z</time></trkpt><trkpt lat="44.48737912091077" lon="8.54904916428943"><ele>656.3333333333334</ele><time>2026-04-09T10:25:06Z</time></trkpt><trkpt lat="44.4874733104747" lon="8.549000594234794"><ele>657.1666666666667</ele><time>2026-04-09T10:25:08Z</time></trkpt><trkpt lat="44.48757841113638" lon="8.54895788204167"><ele>658.0</ele><time>2026-04-09T10:25:10Z</time></trkpt><trkpt lat="44.487651005782" lon="8.548926574455146"><ele>658.0</ele><time>2026-04-09T10:25:11Z</time></trkpt><trkpt lat="44.487735976904396" lon="8.548882819278587"><ele>658.0</ele><time>2026-04-09T10:25:12Z</time></trkpt><trkpt lat="44.4878337284178" lon="8.548860292080885"><ele>658.0</ele><time>2026-04-09T10:25:13Z</time></trkpt><trkpt lat="44.48793963851176" lon="8.54881515163358"><ele>658.0</ele><time>2026-04-09T10:25:14Z</time></trkpt><trkpt lat="44.488049351642424" lon="8.548765381173792"><ele>658.0</ele><time>2026-04-09T10:25:15Z</time></trkpt><trkpt lat="44.48816849777779" lon="8.548710974915007"><ele>656.5</ele><time>2026-04-09T10:25:16Z</time></trkpt><trkpt lat="44.488292014889716" lon="8.548647351402064"><ele>655.0</ele><time>2026-04-09T10:25:17Z</time></trkpt><trkpt lat="44.48841861736695" lon="8.54858890692881"><ele>653.5</ele><time>2026-04-09T10:25:18Z</time></trkpt><trkpt lat="44.48854104159457" lon="8.548526966884571"><ele>652.0</ele><time>2026-04-09T10:25:19Z</time></trkpt><trkpt lat="44.48866706935728" lon="8.548473319663108"><ele>651.75</ele><time>2026-04-09T10:25:20Z</time></trkpt><trkpt lat="44.48878573212101" lon="8.548422637409779"><ele>651.5</ele><time>2026-04-09T10:25:21Z</time></trkpt><trkpt lat="44.488898298427735" lon="8.548356223897027"><ele>651.25</ele><time>2026-04-09T10:25:22Z</time></trkpt><trkpt lat="44.48900107200247" lon="8.548276204983209"><ele>651.0</ele><time>2026-04-09T10:25:23Z</time></trkpt><trkpt lat="44.48908807111226" lon="8.548158326541587"><ele>651.0</ele><time>2026-04-09T10:25:24Z</time></trkpt><trkpt lat="44.489171714942856" lon="8.548025212209955"><ele>651.0</ele><time>2026-04-09T10:25:25Z</time></trkpt><trkpt lat="44.489269943604896" lon="8.547893773708802"><ele>651.0</ele><time>2026-04-09T10:25:26Z</time></trkpt><trkpt lat="44.48936641727674" lon="8.547775207490297"><ele>651.0</ele><time>2026-04-09T10:25:27Z</time></trkpt><trkpt lat="44.489459974039505" lon="8.547666325323346"><ele>650.25</ele><time>2026-04-09T10:25:28Z</time></trkpt><trkpt lat="44.48955070974867" lon="8.547554884476774"><ele>649.5</ele><time>2026-04-09T10:25:29Z</time></trkpt><trkpt lat="44.4896330338688" lon="8.547432393118138"><ele>648.75</ele><time>2026-04-09T10:25:30Z</time></trkpt><trkpt lat="44.489718951748756" lon="8.547308237487687"><ele>648.0</ele><time>2026-04-09T10:25:31Z</time></trkpt><trkpt lat="44.489810400891756" lon="8.547172894179251"><ele>646.5</ele><time>2026-04-09T10:25:32Z</time></trkpt><trkpt lat="44.48990758883006" lon="8.547024376527773"><ele>645.0</ele><time>2026-04-09T10:25:33Z</time></trkpt><trkpt lat="44.49000691318755" lon="8.54686806534431"><ele>643.5</ele><time>2026-04-09T10:25:34Z</time></trkpt><trkpt lat="44.490094830170634" lon="8.546718740585725"><ele>642.0</ele><time>2026-04-09T10:25:35Z</time></trkpt><trkpt lat="44.490182664425596" lon="8.546576720573729"><ele>642.0</ele><time>2026-04-09T10:25:36Z</time></trkpt><trkpt lat="44.49026957767362" lon="8.54644335995791"><ele>642.0</ele><time>2026-04-09T10:25:37Z</time></trkpt><trkpt lat="44.49035125764131" lon="8.546312068380587"><ele>642.0</ele><time>2026-04-09T10:25:38Z</time></trkpt><trkpt lat="44.490433813753825" lon="8.546186579850337"><ele>642.0</ele><time>2026-04-09T10:25:39Z</time></trkpt><trkpt lat="44.49052752671148" lon="8.546085836537795"><ele>639.8000000000001</ele><time>2026-04-09T10:25:40Z</time></trkpt><trkpt lat="44.49062287298305" lon="8.546003842118164"><ele>637.6</ele><time>2026-04-09T10:25:41Z</time></trkpt><trkpt lat="44.49071979188053" lon="8.545948240896742"><ele>635.4000000000001</ele><time>2026-04-09T10:25:42Z</time></trkpt><trkpt lat="44.4908220881194" lon="8.545916622979291"><ele>633.2</ele><time>2026-04-09T10:25:43Z</time></trkpt><trkpt lat="44.490915869649164" lon="8.545920364964243"><ele>631.0</ele><time>2026-04-09T10:25:44Z</time></trkpt><trkpt lat="44.491027447047635" lon="8.545972956396694"><ele>631.0</ele><time>2026-04-09T10:25:45Z</time></trkpt><trkpt lat="44.491134219272325" lon="8.546050935937373"><ele>631.0</ele><time>2026-04-09T10:25:46Z</time></trkpt><trkpt lat="44.49124879169029" lon="8.546132452728411"><ele>631.0</ele><time>2026-04-09T10:25:47Z</time></trkpt><trkpt lat="44.491358626242224" lon="8.54621672073478"><ele>631.0</ele><time>2026-04-09T10:25:48Z</time></trkpt><trkpt lat="44.49145732979744" lon="8.54628736463309"><ele>631.0</ele><time>2026-04-09T10:25:49Z</time></trkpt><trkpt lat="44.49155051474754" lon="8.54637068724605"><ele>631.0</ele><time>2026-04-09T10:25:50Z</time></trkpt><trkpt lat="44.491631165987535" lon="8.546477941099868"><ele>631.0</ele><time>2026-04-09T10:25:51Z</time></trkpt><trkpt lat="44.491679058417155" lon="8.546615100182255"><ele>631.0</ele><time>2026-04-09T10:25:52Z</time></trkpt><trkpt lat="44.491753151403614" lon="8.546735822677153"><ele>631.0</ele><time>2026-04-09T10:25:53Z</time></trkpt><trkpt lat="44.49186057329215" lon="8.546811362399097"><ele>631.0</ele><time>2026-04-09T10:25:54Z</time></trkpt><trkpt lat="44.491978742291906" lon="8.546857037552005"><ele>631.0</ele><time>2026-04-09T10:25:55Z</time></trkpt><trkpt lat="44.492097086214365" lon="8.54692292849937"><ele>631.0</ele><time>2026-04-09T10:25:56Z</time></trkpt><trkpt lat="44.492204003841586" lon="8.547032273011105"><ele>631.0</ele><time>2026-04-09T10:25:57Z</time></trkpt><trkpt lat="44.492289264738" lon="8.547173503626901"><ele>628.25</ele><time>2026-04-09T10:25:58Z</time></trkpt><trkpt lat="44.49237217480058" lon="8.547300876468126"><ele>625.5</ele><time>2026-04-09T10:25:59Z</time></trkpt><trkpt lat="44.492467056288795" lon="8.547395855614328"><ele>622.75</ele><time>2026-04-09T10:26:00Z</time></trkpt><trkpt lat="44.492563891080856" lon="8.547484476640642"><ele>620.0</ele><time>2026-04-09T10:26:01Z</time></trkpt><trkpt lat="44.49271097567746" lon="8.547472579514393"><ele>620.0</ele><time>2026-04-09T10:26:02Z</time></trkpt><trkpt lat="44.49285355204647" lon="8.547469605597637"><ele>620.0</ele><time>2026-04-09T10:26:03Z</time></trkpt><trkpt lat="44.492997129955484" lon="8.547443234572668"><ele>620.0</ele><time>2026-04-09T10:26:04Z</time></trkpt><trkpt lat="44.49313359653658" lon="8.547404506184186"><ele>620.0</ele><time>2026-04-09T10:26:05Z</time></trkpt><trkpt lat="44.49327049406581" lon="8.547317021128821"><ele>619.0</ele><time>2026-04-09T10:26:06Z</time></trkpt><trkpt lat="44.49340200298144" lon="8.54722554130944"><ele>618.0</ele><time>2026-04-09T10:26:07Z</time></trkpt><trkpt lat="44.4935211475708" lon="8.547145383757693"><ele>617.0</ele><time>2026-04-09T10:26:08Z</time></trkpt><trkpt lat="44.493621829195206" lon="8.547063574784065"><ele>616.0</ele><time>2026-04-09T10:26:09Z</time></trkpt><trkpt lat="44.493723693244526" lon="8.547023692745126"><ele>616.0</ele><time>2026-04-09T10:26:10Z</time></trkpt><trkpt lat="44.49384191653628" lon="8.547003628047454"><ele>616.0</ele><time>2026-04-09T10:26:11Z</time></trkpt><trkpt lat="44.4939518002668" lon="8.547068558765956"><ele>616.0</ele><time>2026-04-09T10:26:12Z</time></trkpt><trkpt lat="44.49405237694102" lon="8.54717405821437"><ele>616.0</ele><time>2026-04-09T10:26:13Z</time></trkpt><trkpt lat="44.49416709477261" lon="8.54728873265751"><ele>616.0</ele><time>2026-04-09T10:26:14Z</time></trkpt><trkpt lat="44.49429188308631" lon="8.547414436299348"><ele>616.0</ele><time>2026-04-09T10:26:15Z</time></trkpt><trkpt lat="44.49442896554134" lon="8.547540069886798"><ele>616.0</ele><time>2026-04-09T10:26:16Z</time></trkpt><trkpt lat="44.494567154770316" lon="8.547666649692289"><ele>616.6666666666667</ele><time>2026-04-09T10:26:17Z</time></trkpt><trkpt lat="44.494698894386396" lon="8.547801161961704"><ele>617.3333333333334</ele><time>2026-04-09T10:26:18Z</time></trkpt><trkpt lat="44.49482229761416" lon="8.547929238047123"><ele>618.0</ele><time>2026-04-09T10:26:19Z</time></trkpt><trkpt lat="44.49493236178349" lon="8.548048807905241"><ele>618.0</ele><time>2026-04-09T10:26:20Z</time></trkpt><trkpt lat="44.49503175844058" lon="8.548153125430114"><ele>618.0</ele><time>2026-04-09T10:26:21Z</time></trkpt><trkpt lat="44.49511773969112" lon="8.548247920908459"><ele>618.0</ele><time>2026-04-09T10:26:22Z</time></trkpt><trkpt lat="44.49520823948529" lon="8.548314648376953"><ele>618.0</ele><time>2026-04-09T10:26:23Z</time></trkpt><trkpt lat="44.49531043587454" lon="8.548325580227832"><ele>618.0</ele><time>2026-04-09T10:26:24Z</time></trkpt><trkpt lat="44.49542476375073" lon="8.54828693076471"><ele>617.5</ele><time>2026-04-09T10:26:25Z</time></trkpt><trkpt lat="44.4955377597103" lon="8.548195317965728"><ele>617.0</ele><time>2026-04-09T10:26:26Z</time></trkpt><trkpt lat="44.49564835976877" lon="8.548082200670436"><ele>616.5</ele><time>2026-04-09T10:26:27Z</time></trkpt><trkpt lat="44.495764274797104" lon="8.54795772862689"><ele>616.0</ele><time>2026-04-09T10:26:28Z</time></trkpt><trkpt lat="44.49589415400932" lon="8.547858937251846"><ele>618.0</ele><time>2026-04-09T10:26:29Z</time></trkpt><trkpt lat="44.49600178332746" lon="8.547730468690515"><ele>620.0</ele><time>2026-04-09T10:26:30Z</time></trkpt><trkpt lat="44.496109670100516" lon="8.54762394117486"><ele>622.0</ele><time>2026-04-09T10:26:31Z</time></trkpt><trkpt lat="44.49620974085003" lon="8.547515983552229"><ele>624.0</ele><time>2026-04-09T10:26:32Z</time></trkpt><trkpt lat="44.49629804129842" lon="8.54739820222634"><ele>619.25</ele><time>2026-04-09T10:26:33Z</time></trkpt><trkpt lat="44.49636270956613" lon="8.547255090835833"><ele>614.5</ele><time>2026-04-09T10:26:34Z</time></trkpt><trkpt lat="44.49640509152217" lon="8.547077620271729"><ele>609.75</ele><time>2026-04-09T10:26:35Z</time></trkpt><trkpt lat="44.4964309829274" lon="8.546874550707145"><ele>605.0</ele><time>2026-04-09T10:26:36Z</time></trkpt><trkpt lat="44.496425299250944" lon="8.546661470321082"><ele>605.0</ele><time>2026-04-09T10:26:37Z</time></trkpt><trkpt lat="44.496422417394314" lon="8.54644094986012"><ele>605.0</ele><time>2026-04-09T10:26:38Z</time></trkpt><trkpt lat="44.49641803966448" lon="8.54621485090052"><ele>605.0</ele><time>2026-04-09T10:26:39Z</time></trkpt><trkpt lat="44.49641651588098" lon="8.545998634445745"><ele>605.0</ele><time>2026-04-09T10:26:40Z</time></trkpt><trkpt lat="44.49643045849334" lon="8.545806113371937"><ele>605.0</ele><time>2026-04-09T10:26:41Z</time></trkpt><trkpt lat="44.49642055324998" lon="8.545657523717287"><ele>605.0</ele><time>2026-04-09T10:26:42Z</time></trkpt><trkpt lat="44.49643999506634" lon="8.545539188011963"><ele>605.0</ele><time>2026-04-09T10:26:43Z</time></trkpt><trkpt lat="44.49647059758118" lon="8.545453875438708"><ele>605.0</ele><time>2026-04-09T10:26:44Z</time></trkpt><trkpt lat="44.49653578898371" lon="8.545419684486404"><ele>605.0</ele><time>2026-04-09T10:26:45Z</time></trkpt><trkpt lat="44.49659875808804" lon="8.545393363825934"><ele>605.0</ele><time>2026-04-09T10:26:46Z</time></trkpt><trkpt lat="44.496686579258196" lon="8.545415122663051"><ele>605.0</ele><time>2026-04-09T10:26:47Z</time></trkpt><trkpt lat="44.4967797507608" lon="8.545478245806349"><ele>605.0</ele><time>2026-04-09T10:26:48Z</time></trkpt><trkpt lat="44.49686980473095" lon="8.545566094629686"><ele>605.0</ele><time>2026-04-09T10:26:49Z</time></trkpt><trkpt lat="44.49696074535406" lon="8.545669317686896"><ele>605.0</ele><time>2026-04-09T10:26:50Z</time></trkpt><trkpt lat="44.49705966685458" lon="8.545751107145852"><ele>605.0</ele><time>2026-04-09T10:26:51Z</time></trkpt><trkpt lat="44.49717665624804" lon="8.545792372401545"><ele>605.0</ele><time>2026-04-09T10:26:52Z</time></trkpt><trkpt lat="44.49730522015263" lon="8.54579315687814"><ele>605.0</ele><time>2026-04-09T10:26:53Z</time></trkpt><trkpt lat="44.49743483361732" lon="8.54575904098591"><ele>603.6</ele><time>2026-04-09T10:26:54Z</time></trkpt><trkpt lat="44.49754950668814" lon="8.545709401511095"><ele>602.2</ele><time>2026-04-09T10:26:55Z</time></trkpt><trkpt lat="44.49764719484894" lon="8.545659494201434"><ele>600.8</ele><time>2026-04-09T10:26:56Z</time></trkpt><trkpt lat="44.497734456082306" lon="8.54559977396867"><ele>599.4</ele><time>2026-04-09T10:26:57Z</time></trkpt><trkpt lat="44.497813759873935" lon="8.54552286851259"><ele>598.0</ele><time>2026-04-09T10:26:58Z</time></trkpt><trkpt lat="44.497890570708115" lon="8.545426372949441"><ele>596.75</ele><time>2026-04-09T10:26:59Z</time></trkpt><trkpt lat="44.49797020042319" lon="8.545309174992143"><ele>595.5</ele><time>2026-04-09T10:27:00Z</time></trkpt><trkpt lat="44.498069790093886" lon="8.545202123101586"><ele>594.25</ele><time>2026-04-09T10:27:01Z</time></trkpt><trkpt lat="44.49815129612222" lon="8.54505532884917"><ele>593.0</ele><time>2026-04-09T10:27:02Z</time></trkpt><trkpt lat="44.49824019134996" lon="8.544938989527862"><ele>593.0</ele><time>2026-04-09T10:27:03Z</time></trkpt><trkpt lat="44.49832898362731" lon="8.544812896217922"><ele>593.0</ele><time>2026-04-09T10:27:04Z</time></trkpt><trkpt lat="44.498425659562685" lon="8.544702413132628"><ele>593.0</ele><time>2026-04-09T10:27:05Z</time></trkpt><trkpt lat="44.49851846864425" lon="8.544605722031346"><ele>593.0</ele><time>2026-04-09T10:27:06Z</time></trkpt><trkpt lat="44.49860168088536" lon="8.544534533024466"><ele>593.0</ele><time>2026-04-09T10:27:07Z</time></trkpt><trkpt lat="44.49867427914574" lon="8.544502338746545"><ele>593.0</ele><time>2026-04-09T10:27:08Z</time></trkpt><trkpt lat="44.49875375067115" lon="8.544499146071024"><ele>593.0</ele><time>2026-04-09T10:27:09Z</time></trkpt><trkpt lat="44.49883880646535" lon="8.54454064173621"><ele>593.0</ele><time>2026-04-09T10:27:10Z</time></trkpt><trkpt lat="44.49891714054883" lon="8.544624489224113"><ele>593.0</ele><time>2026-04-09T10:27:11Z</time></trkpt><trkpt lat="44.498975331874924" lon="8.544756010289175"><ele>593.0</ele><time>2026-04-09T10:27:12Z</time></trkpt><trkpt lat="44.49905272311208" lon="8.54483741616253"><ele>593.0</ele><time>2026-04-09T10:27:13Z</time></trkpt><trkpt lat="44.499132575100916" lon="8.54490513419301"><ele>593.0</ele><time>2026-04-09T10:27:14Z</time></trkpt><trkpt lat="44.49921125040791" lon="8.544948504559096"><ele>593.0</ele><time>2026-04-09T10:27:15Z</time></trkpt><trkpt lat="44.499324537141945" lon="8.544911366176292"><ele>593.0</ele><time>2026-04-09T10:27:16Z</time></trkpt><trkpt lat="44.499423952419576" lon="8.54481031405022"><ele>593.0</ele><time>2026-04-09T10:27:17Z</time></trkpt><trkpt lat="44.49953345919447" lon="8.544744815801154"><ele>593.0</ele><time>2026-04-09T10:27:18Z</time></trkpt><trkpt lat="44.499638210199244" lon="8.54471505254743"><ele>593.0</ele><time>2026-04-09T10:27:19Z</time></trkpt><trkpt lat="44.49973563686366" lon="8.544750387977556"><ele>593.0</ele><time>2026-04-09T10:27:20Z</time></trkpt><trkpt lat="44.49983263472188" lon="8.544738589589574"><ele>593.0</ele><time>2026-04-09T10:27:21Z</time></trkpt><trkpt lat="44.499921556367084" lon="8.544716564076307"><ele>592.5</ele><time>2026-04-09T10:27:22Z</time></trkpt><trkpt lat="44.50000799064733" lon="8.54463984866446"><ele>592.0</ele><time>2026-04-09T10:27:23Z</time></trkpt><trkpt lat="44.50007133222657" lon="8.54451402060693"><ele>591.5</ele><time>2026-04-09T10:27:24Z</time></trkpt><trkpt lat="44.50010593601826" lon="8.544359847681264"><ele>591.0</ele><time>2026-04-09T10:27:25Z</time></trkpt><trkpt lat="44.50010365160317" lon="8.544174989052216"><ele>588.25</ele><time>2026-04-09T10:27:26Z</time></trkpt><trkpt lat="44.50006734855477" lon="8.543986917061034"><ele>585.5</ele><time>2026-04-09T10:27:27Z</time></trkpt><trkpt lat="44.50002393497902" lon="8.543786372976063"><ele>582.75</ele><time>2026-04-09T10:27:28Z</time></trkpt><trkpt lat="44.49998610824728" lon="8.543589184954117"><ele>580.0</ele><time>2026-04-09T10:27:29Z</time></trkpt><trkpt lat="44.49995082512619" lon="8.543397320224704"><ele>578.75</ele><time>2026-04-09T10:27:30Z</time></trkpt><trkpt lat="44.49991321792022" lon="8.54321853196035"><ele>577.5</ele><time>2026-04-09T10:27:31Z</time></trkpt><trkpt lat="44.49987974793668" lon="8.543044723979918"><ele>576.25</ele><time>2026-04-09T10:27:32Z</time></trkpt><trkpt lat="44.49985210029594" lon="8.54287750421138"><ele>575.0</ele><time>2026-04-09T10:27:33Z</time></trkpt><trkpt lat="44.499817429169454" lon="8.542716572991308"><ele>574.5</ele><time>2026-04-09T10:27:34Z</time></trkpt><trkpt lat="44.49976089344399" lon="8.542571412927423"><ele>574.0</ele><time>2026-04-09T10:27:35Z</time></trkpt><trkpt lat="44.49968597918631" lon="8.5424362172342"><ele>573.5</ele><time>2026-04-09T10:27:36Z</time></trkpt><trkpt lat="44.4995994336802" lon="8.542309132679009"><ele>573.0</ele><time>2026-04-09T10:27:37Z</time></trkpt><trkpt lat="44.49951515659184" lon="8.542187327662573"><ele>569.6</ele><time>2026-04-09T10:27:38Z</time></trkpt><trkpt lat="44.49944655266712" lon="8.542081607147432"><ele>566.1999999999999</ele><time>2026-04-09T10:27:39Z</time></trkpt><trkpt lat="44.499390328837734" lon="8.541973579061487"><ele>562.8</ele><time>2026-04-09T10:27:40Z</time></trkpt><trkpt lat="44.49934396678153" lon="8.541834066479531"><ele>559.4</ele><time>2026-04-09T10:27:41Z</time></trkpt><trkpt lat="44.49931169643368" lon="8.541679549033828"><ele>556.0</ele><time>2026-04-09T10:27:42Z</time></trkpt><trkpt lat="44.49928833849462" lon="8.5415226420705"><ele>556.0</ele><time>2026-04-09T10:27:43Z</time></trkpt><trkpt lat="44.499279621294924" lon="8.541360024654702"><ele>556.0</ele><time>2026-04-09T10:27:44Z</time></trkpt><trkpt lat="44.49929366070679" lon="8.54118783620146"><ele>556.0</ele><time>2026-04-09T10:27:45Z</time></trkpt><trkpt lat="44.49933277670313" lon="8.541013824709676"><ele>556.0</ele><time>2026-04-09T10:27:46Z</time></trkpt><trkpt lat="44.499368084031644" lon="8.540839717484223"><ele>554.5</ele><time>2026-04-09T10:27:47Z</time></trkpt><trkpt lat="44.499378015357486" lon="8.540656919414253"><ele>553.0</ele><time>2026-04-09T10:27:48Z</time></trkpt><trkpt lat="44.499360095468724" lon="8.540471436504058"><ele>551.5</ele><time>2026-04-09T10:27:49Z</time></trkpt><trkpt lat="44.499321920889166" lon="8.54028018838914"><ele>550.0</ele><time>2026-04-09T10:27:50Z</time></trkpt><trkpt lat="44.49926868606145" lon="8.54009371928296"><ele>549.0</ele><time>2026-04-09T10:27:51Z</time></trkpt><trkpt lat="44.499210237256435" lon="8.539908750304477"><ele>548.0</ele><time>2026-04-09T10:27:52Z</time></trkpt><trkpt lat="44.499147012096" lon="8.53972767714618"><ele>547.0</ele><time>2026-04-09T10:27:53Z</time></trkpt><trkpt lat="44.4990867231413" lon="8.53955435270131"><ele>546.0</ele><time>2026-04-09T10:27:54Z</time></trkpt><trkpt lat="44.49902991590455" lon="8.539389112572564"><ele>545.0</ele><time>2026-04-09T10:27:55Z</time></trkpt><trkpt lat="44.498976584254066" lon="8.539229252656193"><ele>544.0</ele><time>2026-04-09T10:27:56Z</time></trkpt><trkpt lat="44.49892301964609" lon="8.539076276284762"><ele>543.0</ele><time>2026-04-09T10:27:57Z</time></trkpt><trkpt lat="44.498862674206805" lon="8.538931794633916"><ele>542.0</ele><time>2026-04-09T10:27:58Z</time></trkpt><trkpt lat="44.498791932523865" lon="8.53880110187473"><ele>540.2</ele><time>2026-04-09T10:27:59Z</time></trkpt><trkpt lat="44.49871739289194" lon="8.53868058468487"><ele>538.4000000000001</ele><time>2026-04-09T10:28:00Z</time></trkpt><trkpt lat="44.498654266083946" lon="8.53855877819188"><ele>536.5999999999999</ele><time>2026-04-09T10:28:01Z</time></trkpt><trkpt lat="44.498612220825024" lon="8.53842976881583"><ele>534.8</ele><time>2026-04-09T10:28:02Z</time></trkpt><trkpt lat="44.498595927579665" lon="8.538300537342444"><ele>533.0</ele><time>2026-04-09T10:28:03Z</time></trkpt><trkpt lat="44.49860124451257" lon="8.538174192208714"><ele>533.0</ele><time>2026-04-09T10:28:04Z</time></trkpt><trkpt lat="44.498617804226754" lon="8.538054495207508"><ele>533.0</ele><time>2026-04-09T10:28:05Z</time></trkpt><trkpt lat="44.49862900093929" lon="8.537931286312364"><ele>533.0</ele><time>2026-04-09T10:28:06Z</time></trkpt><trkpt lat="44.49861938605342" lon="8.537805009397172"><ele>533.0</ele><time>2026-04-09T10:28:07Z</time></trkpt><trkpt lat="44.498602510176994" lon="8.537666777638442"><ele>533.0</ele><time>2026-04-09T10:28:08Z</time></trkpt><trkpt lat="44.49852452626182" lon="8.537555731975784"><ele>533.5</ele><time>2026-04-09T10:28:09Z</time></trkpt><trkpt lat="44.498467564386594" lon="8.537433488356701"><ele>534.0</ele><time>2026-04-09T10:28:10Z</time></trkpt><trkpt lat="44.498436122317244" lon="8.537288850394358"><ele>534.5</ele><time>2026-04-09T10:28:11Z</time></trkpt><trkpt lat="44.49843155877708" lon="8.537116364812599"><ele>535.0</ele><time>2026-04-09T10:28:12Z</time></trkpt><trkpt lat="44.498436144395036" lon="8.536930735254181"><ele>533.75</ele><time>2026-04-09T10:28:13Z</time></trkpt><trkpt lat="44.498431027343116" lon="8.536733038022888"><ele>532.5</ele><time>2026-04-09T10:28:14Z</time></trkpt><trkpt lat="44.49842228210107" lon="8.536534372527928"><ele>531.25</ele><time>2026-04-09T10:28:15Z</time></trkpt><trkpt lat="44.49842670278471" lon="8.536340156053765"><ele>530.0</ele><time>2026-04-09T10:28:16Z</time></trkpt><trkpt lat="44.49844861060696" lon="8.536150186402987"><ele>528.0</ele><time>2026-04-09T10:28:17Z</time></trkpt><trkpt lat="44.49846852480924" lon="8.535970246019282"><ele>526.0</ele><time>2026-04-09T10:28:18Z</time></trkpt><trkpt lat="44.49845664441083" lon="8.535794538722483"><ele>524.0</ele><time>2026-04-09T10:28:19Z</time></trkpt><trkpt lat="44.49843154996467" lon="8.535621902715052"><ele>522.0</ele><time>2026-04-09T10:28:20Z</time></trkpt><trkpt lat="44.498419451018314" lon="8.535443221816141"><ele>521.75</ele><time>2026-04-09T10:28:21Z</time></trkpt><trkpt lat="44.49842241713345" lon="8.53526306384769"><ele>521.5</ele><time>2026-04-09T10:28:22Z</time></trkpt><trkpt lat="44.49840957540304" lon="8.535089619429352"><ele>521.25</ele><time>2026-04-09T10:28:23Z</time></trkpt><trkpt lat="44.49837507501852" lon="8.534924110578462"><ele>521.0</ele><time>2026-04-09T10:28:24Z</time></trkpt><trkpt lat="44.49833083841516" lon="8.534763213517005"><ele>521.0</ele><time>2026-04-09T10:28:25Z</time></trkpt><trkpt lat="44.49827937564577" lon="8.534618107779115"><ele>521.0</ele><time>2026-04-09T10:28:26Z</time></trkpt><trkpt lat="44.49822141521626" lon="8.534490882844109"><ele>521.0</ele><time>2026-04-09T10:28:27Z</time></trkpt><trkpt lat="44.49814357316564" lon="8.534374962239504"><ele>521.0</ele><time>2026-04-09T10:28:28Z</time></trkpt><trkpt lat="44.49806113813062" lon="8.534252971811059"><ele>519.5</ele><time>2026-04-09T10:28:29Z</time></trkpt><trkpt lat="44.49794246762781" lon="8.534182019896154"><ele>518.0</ele><time>2026-04-09T10:28:30Z</time></trkpt><trkpt lat="44.49783358355738" lon="8.534100315962581"><ele>516.5</ele><time>2026-04-09T10:28:31Z</time></trkpt><trkpt lat="44.49772278619691" lon="8.534034827165346"><ele>515.0</ele><time>2026-04-09T10:28:32Z</time></trkpt><trkpt lat="44.497613603721796" lon="8.53397871604194"><ele>515.0</ele><time>2026-04-09T10:28:33Z</time></trkpt><trkpt lat="44.497513133811765" lon="8.533934765557857"><ele>515.0</ele><time>2026-04-09T10:28:34Z</time></trkpt><trkpt lat="44.49741658924764" lon="8.533887396838006"><ele>515.0</ele><time>2026-04-09T10:28:35Z</time></trkpt><trkpt lat="44.497308860720025" lon="8.533920682229986"><ele>515.0</ele><time>2026-04-09T10:28:36Z</time></trkpt><trkpt lat="44.49721550856603" lon="8.534026031361932"><ele>515.0</ele><time>2026-04-09T10:28:37Z</time></trkpt><trkpt lat="44.497117882967096" lon="8.53407944503963"><ele>515.2</ele><time>2026-04-09T10:28:38Z</time></trkpt><trkpt lat="44.49702335104059" lon="8.534084954570938"><ele>515.4</ele><time>2026-04-09T10:28:39Z</time></trkpt><trkpt lat="44.49693371739991" lon="8.534084949540937"><ele>515.6</ele><time>2026-04-09T10:28:40Z</time></trkpt><trkpt lat="44.49685338571865" lon="8.534143927946552"><ele>515.8</ele><time>2026-04-09T10:28:41Z</time></trkpt><trkpt lat="44.496782591103724" lon="8.534259891595019"><ele>516.0</ele><time>2026-04-09T10:28:42Z</time></trkpt><trkpt lat="44.496726598297926" lon="8.534408343286918"><ele>513.6</ele><time>2026-04-09T10:28:43Z</time></trkpt><trkpt lat="44.496678649112916" lon="8.534560981707964"><ele>511.20000000000005</ele><time>2026-04-09T10:28:44Z</time></trkpt><trkpt lat="44.496632586469204" lon="8.53469189612435"><ele>508.79999999999995</ele><time>2026-04-09T10:28:45Z</time></trkpt><trkpt lat="44.4965779125856" lon="8.534804334382088"><ele>506.4</ele><time>2026-04-09T10:28:46Z</time></trkpt><trkpt lat="44.49650870930823" lon="8.53487448967246"><ele>504.0</ele><time>2026-04-09T10:28:47Z</time></trkpt><trkpt lat="44.49642632651887" lon="8.534904777469693"><ele>504.0</ele><time>2026-04-09T10:28:48Z</time></trkpt><trkpt lat="44.49634111003609" lon="8.534889071376666"><ele>504.0</ele><time>2026-04-09T10:28:49Z</time></trkpt><trkpt lat="44.496248496728455" lon="8.534836108840386"><ele>504.0</ele><time>2026-04-09T10:28:50Z</time></trkpt><trkpt lat="44.49615581819477" lon="8.534761341913107"><ele>504.0</ele><time>2026-04-09T10:28:51Z</time></trkpt><trkpt lat="44.49606085699446" lon="8.534662407236393"><ele>504.0</ele><time>2026-04-09T10:28:52Z</time></trkpt><trkpt lat="44.49596500097904" lon="8.534545361079264"><ele>504.0</ele><time>2026-04-09T10:28:53Z</time></trkpt><trkpt lat="44.495886047776594" lon="8.534441911224098"><ele>504.0</ele><time>2026-04-09T10:28:54Z</time></trkpt><trkpt lat="44.49581697039581" lon="8.534350878425801"><ele>504.0</ele><time>2026-04-09T10:28:55Z</time></trkpt><trkpt lat="44.49575212449823" lon="8.534266108203344"><ele>504.0</ele><time>2026-04-09T10:28:56Z</time></trkpt><trkpt lat="44.4957004118987" lon="8.534155184462577"><ele>504.0</ele><time>2026-04-09T10:28:57Z</time></trkpt><trkpt lat="44.49566264802398" lon="8.534009078909593"><ele>504.0</ele><time>2026-04-09T10:28:58Z</time></trkpt><trkpt lat="44.495635283827504" lon="8.533852230960935"><ele>504.0</ele><time>2026-04-09T10:28:59Z</time></trkpt><trkpt lat="44.49559496142871" lon="8.533714866935"><ele>504.0</ele><time>2026-04-09T10:29:00Z</time></trkpt><trkpt lat="44.49557074490131" lon="8.53358832027844"><ele>504.0</ele><time>2026-04-09T10:29:01Z</time></trkpt><trkpt lat="44.495545993894524" lon="8.533466249967576"><ele>504.0</ele><time>2026-04-09T10:29:02Z</time></trkpt><trkpt lat="44.49557026681269" lon="8.533324029729618"><ele>503.79999999999995</ele><time>2026-04-09T10:29:03Z</time></trkpt><trkpt lat="44.495605858839774" lon="8.533170216189745"><ele>503.59999999999997</ele><time>2026-04-09T10:29:04Z</time></trkpt><trkpt lat="44.49564419238267" lon="8.533027084188278"><ele>503.4</ele><time>2026-04-09T10:29:05Z</time></trkpt><trkpt lat="44.49567428872079" lon="8.532893760001766"><ele>503.2</ele><time>2026-04-09T10:29:06Z</time></trkpt><trkpt lat="44.495676996462265" lon="8.532758316354494"><ele>503.0</ele><time>2026-04-09T10:29:07Z</time></trkpt><trkpt lat="44.495645311988575" lon="8.532631028933608"><ele>501.59999999999997</ele><time>2026-04-09T10:29:08Z</time></trkpt><trkpt lat="44.49561170190012" lon="8.532500697066213"><ele>500.19999999999993</ele><time>2026-04-09T10:29:09Z</time></trkpt><trkpt lat="44.49560158723184" lon="8.532369089946101"><ele>498.8</ele><time>2026-04-09T10:29:10Z</time></trkpt><trkpt lat="44.495634908524174" lon="8.532227681714932"><ele>497.4</ele><time>2026-04-09T10:29:11Z</time></trkpt><trkpt lat="44.49568317251121" lon="8.532103875338262"><ele>496.0</ele><time>2026-04-09T10:29:12Z</time></trkpt><trkpt lat="44.49572031857617" lon="8.531962059369967"><ele>495.6</ele><time>2026-04-09T10:29:13Z</time></trkpt><trkpt lat="44.495747049881565" lon="8.531813757267752"><ele>495.20000000000005</ele><time>2026-04-09T10:29:14Z</time></trkpt><trkpt lat="44.4957620063267" lon="8.531675754202013"><ele>494.79999999999995</ele><time>2026-04-09T10:29:15Z</time></trkpt><trkpt lat="44.49575967283634" lon="8.531543367263291"><ele>494.4</ele><time>2026-04-09T10:29:16Z</time></trkpt><trkpt lat="44.49574586983496" lon="8.531402972135767"><ele>494.0</ele><time>2026-04-09T10:29:17Z</time></trkpt><trkpt lat="44.49565869953496" lon="8.531280877011866"><ele>496.0</ele><time>2026-04-09T10:29:18Z</time></trkpt><trkpt lat="44.49556787024738" lon="8.531169746392804"><ele>498.0</ele><time>2026-04-09T10:29:19Z</time></trkpt><trkpt lat="44.495471187552326" lon="8.531061122836663"><ele>500.0</ele><time>2026-04-09T10:29:20Z</time></trkpt><trkpt lat="44.49534641327827" lon="8.530952230859082"><ele>502.0</ele><time>2026-04-09T10:29:21Z</time></trkpt><trkpt lat="44.49523152821446" lon="8.530813866829423"><ele>500.20000000000005</ele><time>2026-04-09T10:29:22Z</time></trkpt><trkpt lat="44.495118016426645" lon="8.530697753325477"><ele>498.40000000000003</ele><time>2026-04-09T10:29:23Z</time></trkpt><trkpt lat="44.495035687308395" lon="8.530582411641149"><ele>496.59999999999997</ele><time>2026-04-09T10:29:24Z</time></trkpt><trkpt lat="44.49496528532895" lon="8.530503039747295"><ele>494.79999999999995</ele><time>2026-04-09T10:29:25Z</time></trkpt><trkpt lat="44.49490483535163" lon="8.53043451890052"><ele>493.0</ele><time>2026-04-09T10:29:26Z</time></trkpt><trkpt lat="44.494822527776236" lon="8.530381474827108"><ele>484.0</ele><time>2026-04-09T10:29:28Z</time></trkpt><trkpt lat="44.494514778260296" lon="8.530058827673152"><ele>475.0</ele><time>2026-04-09T10:29:29Z</time></trkpt><trkpt lat="44.49445153531597" lon="8.52992809178289"><ele>475.0</ele><time>2026-04-09T10:29:30Z</time></trkpt><trkpt lat="44.49439614039403" lon="8.52977132046151"><ele>475.0</ele><time>2026-04-09T10:29:31Z</time></trkpt><trkpt lat="44.4943256191935" lon="8.529592688344955"><ele>475.0</ele><time>2026-04-09T10:29:32Z</time></trkpt><trkpt lat="44.49424791366728" lon="8.529404811017931"><ele>475.0</ele><time>2026-04-09T10:29:33Z</time></trkpt><trkpt lat="44.49416083239342" lon="8.529239308831107"><ele>475.0</ele><time>2026-04-09T10:29:34Z</time></trkpt><trkpt lat="44.4940940821879" lon="8.529079227785244"><ele>475.0</ele><time>2026-04-09T10:29:35Z</time></trkpt><trkpt lat="44.4940289413917" lon="8.528936622525297"><ele>475.0</ele><time>2026-04-09T10:29:36Z</time></trkpt><trkpt lat="44.49398292067536" lon="8.52881362452932"><ele>475.0</ele><time>2026-04-09T10:29:37Z</time></trkpt><trkpt lat="44.49395167993296" lon="8.528708591335368"><ele>475.0</ele><time>2026-04-09T10:29:38Z</time></trkpt><trkpt lat="44.49397319359693" lon="8.528591829724588"><ele>473.8</ele><time>2026-04-09T10:29:39Z</time></trkpt><trkpt lat="44.49400135994025" lon="8.528478179706008"><ele>472.6</ele><time>2026-04-09T10:29:40Z</time></trkpt><trkpt lat="44.4940836638287" lon="8.528393876597136"><ele>471.4</ele><time>2026-04-09T10:29:41Z</time></trkpt><trkpt lat="44.49417543065467" lon="8.528281889845404"><ele>470.2</ele><time>2026-04-09T10:29:42Z</time></trkpt><trkpt lat="44.49427082659258" lon="8.528153663365913"><ele>469.0</ele><time>2026-04-09T10:29:43Z</time></trkpt><trkpt lat="44.49434747139592" lon="8.527997913012252"><ele>466.75</ele><time>2026-04-09T10:29:44Z</time></trkpt><trkpt lat="44.49439828201344" lon="8.527807133788665"><ele>464.5</ele><time>2026-04-09T10:29:45Z</time></trkpt><trkpt lat="44.49442841926404" lon="8.527611064632806"><ele>462.25</ele><time>2026-04-09T10:29:46Z</time></trkpt><trkpt lat="44.49446932655213" lon="8.527430501558728"><ele>460.0</ele><time>2026-04-09T10:29:47Z</time></trkpt><trkpt lat="44.49449382917072" lon="8.527239462668717"><ele>459.0</ele><time>2026-04-09T10:29:48Z</time></trkpt><trkpt lat="44.494501569001805" lon="8.52705431176095"><ele>458.0</ele><time>2026-04-09T10:29:49Z</time></trkpt><trkpt lat="44.49448980929205" lon="8.526873182042907"><ele>457.0</ele><time>2026-04-09T10:29:50Z</time></trkpt><trkpt lat="44.49447263730771" lon="8.526702832396847"><ele>456.0</ele><time>2026-04-09T10:29:51Z</time></trkpt><trkpt lat="44.49443659402778" lon="8.526546377038732"><ele>456.0</ele><time>2026-04-09T10:29:52Z</time></trkpt><trkpt lat="44.49438297556139" lon="8.526395740033076"><ele>456.0</ele><time>2026-04-09T10:29:53Z</time></trkpt><trkpt lat="44.49431325036691" lon="8.526259713022812"><ele>456.0</ele><time>2026-04-09T10:29:54Z</time></trkpt><trkpt lat="44.494278593307854" lon="8.526116234649098"><ele>456.0</ele><time>2026-04-09T10:29:55Z</time></trkpt><trkpt lat="44.49423932705498" lon="8.525979654002537"><ele>455.6</ele><time>2026-04-09T10:29:56Z</time></trkpt><trkpt lat="44.49424441437128" lon="8.525816725231595"><ele>455.20000000000005</ele><time>2026-04-09T10:29:57Z</time></trkpt><trkpt lat="44.4942639067617" lon="8.525663372290703"><ele>454.79999999999995</ele><time>2026-04-09T10:29:58Z</time></trkpt><trkpt lat="44.49428469473003" lon="8.525513155806864"><ele>454.4</ele><time>2026-04-09T10:29:59Z</time></trkpt><trkpt lat="44.49431480788525" lon="8.525401630353018"><ele>454.0</ele><time>2026-04-09T10:30:00Z</time></trkpt><trkpt lat="44.494365813159554" lon="8.525296890124357"><ele>452.75</ele><time>2026-04-09T10:30:01Z</time></trkpt><trkpt lat="44.494431156253" lon="8.525182031262188"><ele>451.5</ele><time>2026-04-09T10:30:02Z</time></trkpt><trkpt lat="44.4945130697358" lon="8.525066790381862"><ele>450.25</ele><time>2026-04-09T10:30:03Z</time></trkpt><trkpt lat="44.494583070375164" lon="8.524931931786664"><ele>449.0</ele><time>2026-04-09T10:30:04Z</time></trkpt><trkpt lat="44.49463032605587" lon="8.52477066357786"><ele>449.0</ele><time>2026-04-09T10:30:05Z</time></trkpt><trkpt lat="44.49465534391073" lon="8.524586555728417"><ele>449.0</ele><time>2026-04-09T10:30:06Z</time></trkpt><trkpt lat="44.494685471818" lon="8.52438021357703"><ele>449.0</ele><time>2026-04-09T10:30:07Z</time></trkpt><trkpt lat="44.494701051922426" lon="8.524156663463069"><ele>449.0</ele><time>2026-04-09T10:30:08Z</time></trkpt><trkpt lat="44.49471638542946" lon="8.523936654834204"><ele>445.3333333333333</ele><time>2026-04-09T10:30:09Z</time></trkpt><trkpt lat="44.49473060454103" lon="8.52372619228461"><ele>441.66666666666663</ele><time>2026-04-09T10:30:10Z</time></trkpt><trkpt lat="44.494735110406964" lon="8.523516905552814"><ele>438.0</ele><time>2026-04-09T10:30:11Z</time></trkpt><trkpt lat="44.49477671260803" lon="8.523314079123246"><ele>438.0</ele><time>2026-04-09T10:30:12Z</time></trkpt><trkpt lat="44.49483958826039" lon="8.523128282761638"><ele>438.0</ele><time>2026-04-09T10:30:13Z</time></trkpt><trkpt lat="44.494891533456425" lon="8.522946026048228"><ele>438.0</ele><time>2026-04-09T10:30:14Z</time></trkpt><trkpt lat="44.494941585456544" lon="8.52277410585507"><ele>438.0</ele><time>2026-04-09T10:30:15Z</time></trkpt><trkpt lat="44.49498420655935" lon="8.522615664868335"><ele>437.0</ele><time>2026-04-09T10:30:16Z</time></trkpt><trkpt lat="44.495029783454235" lon="8.522475348527038"><ele>435.99999999999994</ele><time>2026-04-09T10:30:17Z</time></trkpt><trkpt lat="44.49508579908495" lon="8.522362305523178"><ele>434.99999999999994</ele><time>2026-04-09T10:30:18Z</time></trkpt><trkpt lat="44.49516406016172" lon="8.522288111416383"><ele>434.0</ele><time>2026-04-09T10:30:19Z</time></trkpt><trkpt lat="44.49525759772363" lon="8.522245442715521"><ele>433.0</ele><time>2026-04-09T10:30:20Z</time></trkpt><trkpt lat="44.49536850638714" lon="8.522218167848544"><ele>433.0</ele><time>2026-04-09T10:30:21Z</time></trkpt><trkpt lat="44.49547935354538" lon="8.522165256431958"><ele>433.0</ele><time>2026-04-09T10:30:22Z</time></trkpt><trkpt lat="44.49559026321136" lon="8.522126014800543"><ele>433.0</ele><time>2026-04-09T10:30:23Z</time></trkpt><trkpt lat="44.495684559358786" lon="8.5220419494225"><ele>433.0</ele><time>2026-04-09T10:30:24Z</time></trkpt><trkpt lat="44.49575383967398" lon="8.521903312730087"><ele>433.0</ele><time>2026-04-09T10:30:25Z</time></trkpt><trkpt lat="44.49580103810041" lon="8.521729882558546"><ele>433.0</ele><time>2026-04-09T10:30:26Z</time></trkpt><trkpt lat="44.49585930131383" lon="8.521560332861155"><ele>433.0</ele><time>2026-04-09T10:30:27Z</time></trkpt><trkpt lat="44.49590797264879" lon="8.521379602852543"><ele>433.0</ele><time>2026-04-09T10:30:28Z</time></trkpt><trkpt lat="44.49593467885829" lon="8.52118497761602"><ele>433.0</ele><time>2026-04-09T10:30:29Z</time></trkpt><trkpt lat="44.49592981586637" lon="8.52096839012705"><ele>433.0</ele><time>2026-04-09T10:30:30Z</time></trkpt><trkpt lat="44.495935591694774" lon="8.520748853143543"><ele>433.0</ele><time>2026-04-09T10:30:31Z</time></trkpt><trkpt lat="44.495935795431386" lon="8.52051993087208"><ele>432.75</ele><time>2026-04-09T10:30:32Z</time></trkpt><trkpt lat="44.49593749969148" lon="8.520303040654618"><ele>432.5</ele><time>2026-04-09T10:30:33Z</time></trkpt><trkpt lat="44.4959342310975" lon="8.520097293180324"><ele>432.25</ele><time>2026-04-09T10:30:34Z</time></trkpt><trkpt lat="44.49591903962409" lon="8.519892318502487"><ele>432.0</ele><time>2026-04-09T10:30:35Z</time></trkpt><trkpt lat="44.495863927098895" lon="8.519690015412241"><ele>433.0</ele><time>2026-04-09T10:30:36Z</time></trkpt><trkpt lat="44.49579013460287" lon="8.5194857328927"><ele>434.0</ele><time>2026-04-09T10:30:37Z</time></trkpt><trkpt lat="44.49571084049542" lon="8.519274436802762"><ele>435.0</ele><time>2026-04-09T10:30:38Z</time></trkpt><trkpt lat="44.49563354790751" lon="8.519055441349263"><ele>435.0</ele><time>2026-04-09T10:30:39Z</time></trkpt><trkpt lat="44.49555879800012" lon="8.51883249716222"><ele>435.0</ele><time>2026-04-09T10:30:40Z</time></trkpt><trkpt lat="44.49548467901639" lon="8.51861260792937"><ele>435.0</ele><time>2026-04-09T10:30:41Z</time></trkpt><trkpt lat="44.49540738986138" lon="8.518386136678057"><ele>433.66666666666663</ele><time>2026-04-09T10:30:42Z</time></trkpt><trkpt lat="44.49532716325641" lon="8.518158842428122"><ele>432.3333333333333</ele><time>2026-04-09T10:30:43Z</time></trkpt><trkpt lat="44.495248618237405" lon="8.517922530922133"><ele>431.0</ele><time>2026-04-09T10:30:44Z</time></trkpt><trkpt lat="44.49517328592266" lon="8.517688423978102"><ele>431.0</ele><time>2026-04-09T10:30:45Z</time></trkpt><trkpt lat="44.49510086055312" lon="8.517464994518415"><ele>431.0</ele><time>2026-04-09T10:30:46Z</time></trkpt><trkpt lat="44.495028344845615" lon="8.517249249713077"><ele>431.0</ele><time>2026-04-09T10:30:47Z</time></trkpt><trkpt lat="44.49494364998417" lon="8.517045987194601"><ele>432.66666666666663</ele><time>2026-04-09T10:30:48Z</time></trkpt><trkpt lat="44.494846411339864" lon="8.516851178209418"><ele>434.33333333333337</ele><time>2026-04-09T10:30:49Z</time></trkpt><trkpt lat="44.49473762010602" lon="8.516667836460106"><ele>436.0</ele><time>2026-04-09T10:30:50Z</time></trkpt><trkpt lat="44.49462773415274" lon="8.51648872259728"><ele>434.0</ele><time>2026-04-09T10:30:51Z</time></trkpt><trkpt lat="44.494523511851085" lon="8.51631081793745"><ele>432.0</ele><time>2026-04-09T10:30:52Z</time></trkpt><trkpt lat="44.49442684108829" lon="8.516127807722752"><ele>430.0</ele><time>2026-04-09T10:30:53Z</time></trkpt><trkpt lat="44.494339889111075" lon="8.515942855962344"><ele>430.0</ele><time>2026-04-09T10:30:54Z</time></trkpt><trkpt lat="44.494266157749756" lon="8.515756629108347"><ele>430.0</ele><time>2026-04-09T10:30:55Z</time></trkpt><trkpt lat="44.49420871436326" lon="8.515581120892481"><ele>430.0</ele><time>2026-04-09T10:30:56Z</time></trkpt><trkpt lat="44.49415459939528" lon="8.51541806747233"><ele>430.0</ele><time>2026-04-09T10:30:57Z</time></trkpt><trkpt lat="44.494090623075" lon="8.51527988836247"><ele>428.75</ele><time>2026-04-09T10:30:58Z</time></trkpt><trkpt lat="44.49400777918298" lon="8.515169471836"><ele>427.5</ele><time>2026-04-09T10:30:59Z</time></trkpt><trkpt lat="44.49389060360938" lon="8.515088087072858"><ele>426.25</ele><time>2026-04-09T10:31:00Z</time></trkpt><trkpt lat="44.4937592383395" lon="8.515031864014805"><ele>425.0</ele><time>2026-04-09T10:31:01Z</time></trkpt><trkpt lat="44.4936242764176" lon="8.514987240641366"><ele>425.0</ele><time>2026-04-09T10:31:02Z</time></trkpt><trkpt lat="44.49348289929915" lon="8.514965256349278"><ele>425.0</ele><time>2026-04-09T10:31:03Z</time></trkpt><trkpt lat="44.49334637789558" lon="8.514949599151747"><ele>425.0</ele><time>2026-04-09T10:31:04Z</time></trkpt><trkpt lat="44.493225878576226" lon="8.514937620773363"><ele>425.0</ele><time>2026-04-09T10:31:05Z</time></trkpt><trkpt lat="44.49312256677761" lon="8.514914508426948"><ele>425.0</ele><time>2026-04-09T10:31:06Z</time></trkpt><trkpt lat="44.493043391760516" lon="8.514874614442382"><ele>425.0</ele><time>2026-04-09T10:31:07Z</time></trkpt><trkpt lat="44.49297228752186" lon="8.514809089355936"><ele>425.0</ele><time>2026-04-09T10:31:08Z</time></trkpt><trkpt lat="44.49292053819597" lon="8.514717887267347"><ele>425.0</ele><time>2026-04-09T10:31:09Z</time></trkpt><trkpt lat="44.49288539649532" lon="8.514582365580388"><ele>425.0</ele><time>2026-04-09T10:31:10Z</time></trkpt><trkpt lat="44.49286566023115" lon="8.514426464456198"><ele>423.75</ele><time>2026-04-09T10:31:11Z</time></trkpt><trkpt lat="44.49283093906316" lon="8.514250912427867"><ele>422.5</ele><time>2026-04-09T10:31:12Z</time></trkpt><trkpt lat="44.492784292890676" lon="8.514070938029073"><ele>421.25</ele><time>2026-04-09T10:31:13Z</time></trkpt><trkpt lat="44.492733353790584" lon="8.513886008287821"><ele>420.0</ele><time>2026-04-09T10:31:14Z</time></trkpt><trkpt lat="44.49267279637" lon="8.513687510512534"><ele>420.0</ele><time>2026-04-09T10:31:15Z</time></trkpt><trkpt lat="44.492596559417684" lon="8.513478902135851"><ele>420.0</ele><time>2026-04-09T10:31:16Z</time></trkpt><trkpt lat="44.492500077518564" lon="8.513254590500695"><ele>420.0</ele><time>2026-04-09T10:31:17Z</time></trkpt><trkpt lat="44.492388450203975" lon="8.513032651173605"><ele>420.66666666666663</ele><time>2026-04-09T10:31:18Z</time></trkpt><trkpt lat="44.4922880493138" lon="8.512822471660664"><ele>421.3333333333333</ele><time>2026-04-09T10:31:19Z</time></trkpt><trkpt lat="44.492202342827845" lon="8.512622636584837"><ele>422.0</ele><time>2026-04-09T10:31:20Z</time></trkpt><trkpt lat="44.49212370958068" lon="8.512431062122"><ele>420.0</ele><time>2026-04-09T10:31:21Z</time></trkpt><trkpt lat="44.49203308160415" lon="8.512251584530386"><ele>418.0</ele><time>2026-04-09T10:31:22Z</time></trkpt><trkpt lat="44.49193282214364" lon="8.512071447449578"><ele>416.0</ele><time>2026-04-09T10:31:23Z</time></trkpt><trkpt lat="44.49181540161492" lon="8.51190288571827"><ele>416.0</ele><time>2026-04-09T10:31:24Z</time></trkpt><trkpt lat="44.49168686285381" lon="8.511730643437549"><ele>416.0</ele><time>2026-04-09T10:31:25Z</time></trkpt><trkpt lat="44.491570859977124" lon="8.511547758293128"><ele>416.0</ele><time>2026-04-09T10:31:26Z</time></trkpt><trkpt lat="44.491445660832504" lon="8.511364363068473"><ele>415.3333333333333</ele><time>2026-04-09T10:31:27Z</time></trkpt><trkpt lat="44.491317391268325" lon="8.51117563395483"><ele>414.66666666666663</ele><time>2026-04-09T10:31:28Z</time></trkpt><trkpt lat="44.49118519685727" lon="8.510980812732555"><ele>414.0</ele><time>2026-04-09T10:31:29Z</time></trkpt><trkpt lat="44.49104744089625" lon="8.510783389721277"><ele>414.0</ele><time>2026-04-09T10:31:30Z</time></trkpt><trkpt lat="44.490911730882644" lon="8.510588794295378"><ele>414.0</ele><time>2026-04-09T10:31:31Z</time></trkpt><trkpt lat="44.49078411418712" lon="8.510401608753495"><ele>414.0</ele><time>2026-04-09T10:31:32Z</time></trkpt><trkpt lat="44.49066565661768" lon="8.510223651376583"><ele>414.25</ele><time>2026-04-09T10:31:33Z</time></trkpt><trkpt lat="44.490555840244575" lon="8.51005714592861"><ele>414.5</ele><time>2026-04-09T10:31:34Z</time></trkpt><trkpt lat="44.49045417568762" lon="8.509905708182458"><ele>414.75</ele><time>2026-04-09T10:31:35Z</time></trkpt><trkpt lat="44.49036110814304" lon="8.509773055182455"><ele>415.0</ele><time>2026-04-09T10:31:36Z</time></trkpt><trkpt lat="44.49027941567059" lon="8.509650352387958"><ele>413.5</ele><time>2026-04-09T10:31:37Z</time></trkpt><trkpt lat="44.4902141008378" lon="8.50951998007073"><ele>412.0</ele><time>2026-04-09T10:31:38Z</time></trkpt><trkpt lat="44.49016512177321" lon="8.509366656513611"><ele>410.5</ele><time>2026-04-09T10:31:39Z</time></trkpt><trkpt lat="44.49013219751904" lon="8.509179693678982"><ele>409.0</ele><time>2026-04-09T10:31:40Z</time></trkpt><trkpt lat="44.490090143931134" lon="8.508994028111612"><ele>409.0</ele><time>2026-04-09T10:31:41Z</time></trkpt><trkpt lat="44.49005502732711" lon="8.508788315368639"><ele>409.0</ele><time>2026-04-09T10:31:42Z</time></trkpt><trkpt lat="44.49000506608826" lon="8.508596279230899"><ele>409.0</ele><time>2026-04-09T10:31:43Z</time></trkpt><trkpt lat="44.48993779208535" lon="8.508395282801574"><ele>409.0</ele><time>2026-04-09T10:31:44Z</time></trkpt><trkpt lat="44.48987105324099" lon="8.508179862926745"><ele>409.0</ele><time>2026-04-09T10:31:45Z</time></trkpt><trkpt lat="44.48977626470504" lon="8.507976118551554"><ele>409.0</ele><time>2026-04-09T10:31:46Z</time></trkpt><trkpt lat="44.4896888004225" lon="8.507761615475884"><ele>409.0</ele><time>2026-04-09T10:31:47Z</time></trkpt><trkpt lat="44.48960122979683" lon="8.507534215596861"><ele>409.0</ele><time>2026-04-09T10:31:48Z</time></trkpt><trkpt lat="44.48951247059686" lon="8.507317223750166"><ele>409.0</ele><time>2026-04-09T10:31:49Z</time></trkpt><trkpt lat="44.48942189355968" lon="8.507103652911093"><ele>405.33333333333337</ele><time>2026-04-09T10:31:50Z</time></trkpt><trkpt lat="44.4893392469615" lon="8.506893629094497"><ele>401.66666666666663</ele><time>2026-04-09T10:31:51Z</time></trkpt><trkpt lat="44.48926156862412" lon="8.506687357853835"><ele>398.0</ele><time>2026-04-09T10:31:52Z</time></trkpt><trkpt lat="44.489184703096555" lon="8.50648859888084"><ele>398.0</ele><time>2026-04-09T10:31:53Z</time></trkpt><trkpt lat="44.48910873916468" lon="8.506302913700107"><ele>398.0</ele><time>2026-04-09T10:31:54Z</time></trkpt><trkpt lat="44.489030975509" lon="8.506133976054622"><ele>398.0</ele><time>2026-04-09T10:31:55Z</time></trkpt><trkpt lat="44.48894031292387" lon="8.505974402943629"><ele>398.0</ele><time>2026-04-09T10:31:56Z</time></trkpt><trkpt lat="44.48881779896418" lon="8.505837395710262"><ele>397.0</ele><time>2026-04-09T10:31:57Z</time></trkpt><trkpt lat="44.4886785996905" lon="8.5057209023374"><ele>396.0</ele><time>2026-04-09T10:31:58Z</time></trkpt><trkpt lat="44.48852893002226" lon="8.505605181846333"><ele>395.0</ele><time>2026-04-09T10:31:59Z</time></trkpt><trkpt lat="44.4883824214715" lon="8.505493558145227"><ele>397.3333333333333</ele><time>2026-04-09T10:32:00Z</time></trkpt><trkpt lat="44.48823842433073" lon="8.505365866994293"><ele>399.66666666666663</ele><time>2026-04-09T10:32:01Z</time></trkpt><trkpt lat="44.48809824171008" lon="8.50523224392831"><ele>402.0</ele><time>2026-04-09T10:32:02Z</time></trkpt><trkpt lat="44.487966727852886" lon="8.505105063012703"><ele>399.75</ele><time>2026-04-09T10:32:03Z</time></trkpt><trkpt lat="44.487841149618724" lon="8.504991042792271"><ele>397.5</ele><time>2026-04-09T10:32:04Z</time></trkpt><trkpt lat="44.48772032268962" lon="8.504880425422447"><ele>395.25</ele><time>2026-04-09T10:32:05Z</time></trkpt><trkpt lat="44.48760361797411" lon="8.50478208804182"><ele>393.0</ele><time>2026-04-09T10:32:06Z</time></trkpt><trkpt lat="44.48748385381653" lon="8.504701222689517"><ele>393.0</ele><time>2026-04-09T10:32:07Z</time></trkpt><trkpt lat="44.48735950836239" lon="8.504663649223007"><ele>393.0</ele><time>2026-04-09T10:32:08Z</time></trkpt><trkpt lat="44.48724293187735" lon="8.504640371510659"><ele>393.0</ele><time>2026-04-09T10:32:09Z</time></trkpt><trkpt lat="44.48712908910559" lon="8.504655735336206"><ele>393.0</ele><time>2026-04-09T10:32:10Z</time></trkpt><trkpt lat="44.487019895949274" lon="8.50471828073426"><ele>392.25</ele><time>2026-04-09T10:32:11Z</time></trkpt><trkpt lat="44.48692063686579" lon="8.50482453043985"><ele>391.5</ele><time>2026-04-09T10:32:12Z</time></trkpt><trkpt lat="44.48682933483443" lon="8.504945001524465"><ele>390.75</ele><time>2026-04-09T10:32:13Z</time></trkpt><trkpt lat="44.486753939090526" lon="8.505064301748773"><ele>390.0</ele><time>2026-04-09T10:32:14Z</time></trkpt><trkpt lat="44.48666659313451" lon="8.50515844013336"><ele>390.0</ele><time>2026-04-09T10:32:15Z</time></trkpt><trkpt lat="44.48656617329208" lon="8.505201771312215"><ele>390.0</ele><time>2026-04-09T10:32:16Z</time></trkpt><trkpt lat="44.48646933692329" lon="8.505177824345685"><ele>390.0</ele><time>2026-04-09T10:32:17Z</time></trkpt><trkpt lat="44.486379047522064" lon="8.505099046442524"><ele>390.0</ele><time>2026-04-09T10:32:18Z</time></trkpt><trkpt lat="44.48628626767175" lon="8.504991140807086"><ele>390.0</ele><time>2026-04-09T10:32:19Z</time></trkpt><trkpt lat="44.48618779793596" lon="8.504867361819052"><ele>390.0</ele><time>2026-04-09T10:32:20Z</time></trkpt><trkpt lat="44.4860821073898" lon="8.504733885441818"><ele>390.0</ele><time>2026-04-09T10:32:21Z</time></trkpt><trkpt lat="44.48598132803065" lon="8.50460094527068"><ele>390.0</ele><time>2026-04-09T10:32:22Z</time></trkpt><trkpt lat="44.48587341174814" lon="8.504452066711979"><ele>390.0</ele><time>2026-04-09T10:32:23Z</time></trkpt><trkpt lat="44.48576208611198" lon="8.50430120874225"><ele>390.0</ele><time>2026-04-09T10:32:24Z</time></trkpt><trkpt lat="44.48565000568452" lon="8.504154745888723"><ele>390.0</ele><time>2026-04-09T10:32:25Z</time></trkpt><trkpt lat="44.48554803858956" lon="8.504020395009132"><ele>390.0</ele><time>2026-04-09T10:32:26Z</time></trkpt><trkpt lat="44.485453047900045" lon="8.503899124604496"><ele>390.0</ele><time>2026-04-09T10:32:27Z</time></trkpt><trkpt lat="44.48536769622854" lon="8.503790868872043"><ele>390.0</ele><time>2026-04-09T10:32:28Z</time></trkpt><trkpt lat="44.48529449663271" lon="8.503709095148276"><ele>390.0</ele><time>2026-04-09T10:32:29Z</time></trkpt><trkpt lat="44.48522454111672" lon="8.50366443946822"><ele>390.0</ele><time>2026-04-09T10:32:30Z</time></trkpt><trkpt lat="44.48513726431028" lon="8.503667202806199"><ele>390.0</ele><time>2026-04-09T10:32:31Z</time></trkpt><trkpt lat="44.48504621260869" lon="8.503726336299286"><ele>390.0</ele><time>2026-04-09T10:32:32Z</time></trkpt><trkpt lat="44.48498417326933" lon="8.503829537611162"><ele>390.0</ele><time>2026-04-09T10:32:33Z</time></trkpt><trkpt lat="44.48492324966753" lon="8.503951884780564"><ele>390.0</ele><time>2026-04-09T10:32:34Z</time></trkpt><trkpt lat="44.48484121064716" lon="8.504056608364241"><ele>390.0</ele><time>2026-04-09T10:32:35Z</time></trkpt><trkpt lat="44.48473348745967" lon="8.504124038168559"><ele>390.0</ele><time>2026-04-09T10:32:36Z</time></trkpt><trkpt lat="44.484607984365155" lon="8.504143627806249"><ele>392.5</ele><time>2026-04-09T10:32:37Z</time></trkpt><trkpt lat="44.48448274276831" lon="8.504108154252584"><ele>395.0</ele><time>2026-04-09T10:32:38Z</time></trkpt><trkpt lat="44.48436144233134" lon="8.504043799073536"><ele>397.5</ele><time>2026-04-09T10:32:39Z</time></trkpt><trkpt lat="44.48425346420214" lon="8.503970555165468"><ele>400.0</ele><time>2026-04-09T10:32:40Z</time></trkpt><trkpt lat="44.48416150221273" lon="8.503887418207194"><ele>400.0</ele><time>2026-04-09T10:32:41Z</time></trkpt><trkpt lat="44.484091058838025" lon="8.503777348025332"><ele>400.0</ele><time>2026-04-09T10:32:42Z</time></trkpt><trkpt lat="44.48405419212863" lon="8.503646415347378"><ele>400.0</ele><time>2026-04-09T10:32:43Z</time></trkpt><trkpt lat="44.48407024289019" lon="8.50352353309169"><ele>400.0</ele><time>2026-04-09T10:32:44Z</time></trkpt><trkpt lat="44.48409835885558" lon="8.50339207689118"><ele>400.0</ele><time>2026-04-09T10:32:45Z</time></trkpt><trkpt lat="44.48413347191943" lon="8.503236823000107"><ele>397.75</ele><time>2026-04-09T10:32:46Z</time></trkpt><trkpt lat="44.48413905232758" lon="8.503076878272005"><ele>395.5</ele><time>2026-04-09T10:32:47Z</time></trkpt><trkpt lat="44.48415420585581" lon="8.502906875890847"><ele>393.25</ele><time>2026-04-09T10:32:48Z</time></trkpt><trkpt lat="44.4841108969859" lon="8.502720824843239"><ele>391.0</ele><time>2026-04-09T10:32:49Z</time></trkpt><trkpt lat="44.484079646537644" lon="8.502520121333257"><ele>390.25</ele><time>2026-04-09T10:32:50Z</time></trkpt><trkpt lat="44.484048273043875" lon="8.502323824929125"><ele>389.5</ele><time>2026-04-09T10:32:51Z</time></trkpt><trkpt lat="44.484013347570496" lon="8.50214224477385"><ele>388.75</ele><time>2026-04-09T10:32:52Z</time></trkpt><trkpt lat="44.483974621932845" lon="8.501969814138537"><ele>388.0</ele><time>2026-04-09T10:32:53Z</time></trkpt><trkpt lat="44.48392766226459" lon="8.501810245106055"><ele>388.0</ele><time>2026-04-09T10:32:54Z</time></trkpt><trkpt lat="44.483858653328774" lon="8.501673920940258"><ele>388.0</ele><time>2026-04-09T10:32:55Z</time></trkpt><trkpt lat="44.48377171690151" lon="8.50156878118057"><ele>388.0</ele><time>2026-04-09T10:32:56Z</time></trkpt><trkpt lat="44.4836939503989" lon="8.501455753090724"><ele>388.0</ele><time>2026-04-09T10:32:57Z</time></trkpt><trkpt lat="44.48363344766154" lon="8.501316873400054"><ele>387.25</ele><time>2026-04-09T10:32:58Z</time></trkpt><trkpt lat="44.48358349641472" lon="8.501158202155263"><ele>386.5</ele><time>2026-04-09T10:32:59Z</time></trkpt><trkpt lat="44.483555679865326" lon="8.500980487709937"><ele>385.75</ele><time>2026-04-09T10:33:00Z</time></trkpt><trkpt lat="44.48355372216466" lon="8.50078881280524"><ele>385.0</ele><time>2026-04-09T10:33:01Z</time></trkpt><trkpt lat="44.48352340915093" lon="8.500593436042783"><ele>385.0</ele><time>2026-04-09T10:33:02Z</time></trkpt><trkpt lat="44.48350786759714" lon="8.500397904045506"><ele>385.0</ele><time>2026-04-09T10:33:03Z</time></trkpt><trkpt lat="44.4834947546698" lon="8.500211750282514"><ele>385.0</ele><time>2026-04-09T10:33:04Z</time></trkpt><trkpt lat="44.48347667042816" lon="8.500037626783813"><ele>385.0</ele><time>2026-04-09T10:33:05Z</time></trkpt><trkpt lat="44.483439497191405" lon="8.499883653165298"><ele>385.0</ele><time>2026-04-09T10:33:06Z</time></trkpt><trkpt lat="44.48337275272843" lon="8.49971839503594"><ele>385.0</ele><time>2026-04-09T10:33:07Z</time></trkpt><trkpt lat="44.48329818288756" lon="8.499554909750325"><ele>385.0</ele><time>2026-04-09T10:33:08Z</time></trkpt><trkpt lat="44.48322002408238" lon="8.499399736952533"><ele>385.0</ele><time>2026-04-09T10:33:09Z</time></trkpt><trkpt lat="44.483129475066775" lon="8.499230683382589"><ele>385.33333333333337</ele><time>2026-04-09T10:33:10Z</time></trkpt><trkpt lat="44.48304290282357" lon="8.49905642773429"><ele>385.66666666666663</ele><time>2026-04-09T10:33:11Z</time></trkpt><trkpt lat="44.48295547239675" lon="8.498881281326675"><ele>386.0</ele><time>2026-04-09T10:33:12Z</time></trkpt><trkpt lat="44.4828688823356" lon="8.49871208676906"><ele>386.0</ele><time>2026-04-09T10:33:13Z</time></trkpt><trkpt lat="44.48278502528762" lon="8.498538959147984"><ele>386.0</ele><time>2026-04-09T10:33:14Z</time></trkpt><trkpt lat="44.48271074855492" lon="8.498366225110525"><ele>386.0</ele><time>2026-04-09T10:33:15Z</time></trkpt><trkpt lat="44.4826618192125" lon="8.498177750169994"><ele>386.0</ele><time>2026-04-09T10:33:16Z</time></trkpt><trkpt lat="44.48260214489245" lon="8.497994408026054"><ele>385.5</ele><time>2026-04-09T10:33:17Z</time></trkpt><trkpt lat="44.48254287204729" lon="8.497803093137659"><ele>385.0</ele><time>2026-04-09T10:33:18Z</time></trkpt><trkpt lat="44.48248325141874" lon="8.497614716644055"><ele>384.5</ele><time>2026-04-09T10:33:19Z</time></trkpt><trkpt lat="44.48242696724611" lon="8.497438402346155"><ele>384.0</ele><time>2026-04-09T10:33:20Z</time></trkpt><trkpt lat="44.482376602403484" lon="8.497277842418097"><ele>384.0</ele><time>2026-04-09T10:33:21Z</time></trkpt><trkpt lat="44.48232368454504" lon="8.497132017770102"><ele>384.0</ele><time>2026-04-09T10:33:22Z</time></trkpt><trkpt lat="44.482278877816825" lon="8.496990971175737"><ele>384.0</ele><time>2026-04-09T10:33:23Z</time></trkpt><trkpt lat="44.48222724144532" lon="8.496844716778156"><ele>384.0</ele><time>2026-04-09T10:33:24Z</time></trkpt><trkpt lat="44.4821863353162" lon="8.496682856710759"><ele>384.25</ele><time>2026-04-09T10:33:25Z</time></trkpt><trkpt lat="44.482125951310984" lon="8.496519825840553"><ele>384.5</ele><time>2026-04-09T10:33:26Z</time></trkpt><trkpt lat="44.4820548104194" lon="8.496361740414882"><ele>384.75</ele><time>2026-04-09T10:33:27Z</time></trkpt><trkpt lat="44.48196553441597" lon="8.496212125658372"><ele>385.0</ele><time>2026-04-09T10:33:28Z</time></trkpt><trkpt lat="44.48188812935602" lon="8.496040107917779"><ele>385.0</ele><time>2026-04-09T10:33:29Z</time></trkpt><trkpt lat="44.4818226676306" lon="8.495883915598679"><ele>385.0</ele><time>2026-04-09T10:33:30Z</time></trkpt><trkpt lat="44.48176011534203" lon="8.495729836092726"><ele>385.0</ele><time>2026-04-09T10:33:31Z</time></trkpt><trkpt lat="44.48169880930354" lon="8.495589476009233"><ele>385.0</ele><time>2026-04-09T10:33:32Z</time></trkpt><trkpt lat="44.481637810196496" lon="8.495440116635319"><ele>383.25</ele><time>2026-04-09T10:33:33Z</time></trkpt><trkpt lat="44.481565148993404" lon="8.495287823554571"><ele>381.5</ele><time>2026-04-09T10:33:34Z</time></trkpt><trkpt lat="44.481475635895436" lon="8.495145556236483"><ele>379.75</ele><time>2026-04-09T10:33:35Z</time></trkpt><trkpt lat="44.48137342806259" lon="8.495007634851236"><ele>378.0</ele><time>2026-04-09T10:33:36Z</time></trkpt><trkpt lat="44.48127445065469" lon="8.494867273879152"><ele>378.6666666666667</ele><time>2026-04-09T10:33:37Z</time></trkpt><trkpt lat="44.48114500532346" lon="8.494762453345814"><ele>379.33333333333337</ele><time>2026-04-09T10:33:38Z</time></trkpt><trkpt lat="44.48101509994514" lon="8.494643739942937"><ele>380.0</ele><time>2026-04-09T10:33:39Z</time></trkpt><trkpt lat="44.480871438681824" lon="8.494518663669039"><ele>380.0</ele><time>2026-04-09T10:33:40Z</time></trkpt><trkpt lat="44.48073270939546" lon="8.49439181046347"><ele>380.0</ele><time>2026-04-09T10:33:41Z</time></trkpt><trkpt lat="44.480606995225315" lon="8.49426938507695"><ele>380.0</ele><time>2026-04-09T10:33:42Z</time></trkpt><trkpt lat="44.48048737268688" lon="8.49416151581111"><ele>382.5</ele><time>2026-04-09T10:33:43Z</time></trkpt><trkpt lat="44.480378570981074" lon="8.494059768352127"><ele>385.0</ele><time>2026-04-09T10:33:44Z</time></trkpt><trkpt lat="44.48028323689797" lon="8.493943612361742"><ele>387.5</ele><time>2026-04-09T10:33:45Z</time></trkpt><trkpt lat="44.48019897154627" lon="8.493804616587239"><ele>390.0</ele><time>2026-04-09T10:33:46Z</time></trkpt><trkpt lat="44.48013115575399" lon="8.493644971919622"><ele>390.0</ele><time>2026-04-09T10:33:47Z</time></trkpt><trkpt lat="44.480072914787186" lon="8.493483353955092"><ele>390.0</ele><time>2026-04-09T10:33:48Z</time></trkpt><trkpt lat="44.480032555440445" lon="8.49330305149197"><ele>390.0</ele><time>2026-04-09T10:33:49Z</time></trkpt><trkpt lat="44.479963337979925" lon="8.493141014717663"><ele>390.0</ele><time>2026-04-09T10:33:50Z</time></trkpt><trkpt lat="44.47991265352132" lon="8.492963114005947"><ele>388.8</ele><time>2026-04-09T10:33:51Z</time></trkpt><trkpt lat="44.479865761070066" lon="8.49278479607355"><ele>387.6</ele><time>2026-04-09T10:33:52Z</time></trkpt><trkpt lat="44.4798228914869" lon="8.492622109867217"><ele>386.4</ele><time>2026-04-09T10:33:53Z</time></trkpt><trkpt lat="44.479793913627915" lon="8.492495832191755"><ele>385.2</ele><time>2026-04-09T10:33:54Z</time></trkpt><trkpt lat="44.47976651607928" lon="8.49238749126636"><ele>384.0</ele><time>2026-04-09T10:33:55Z</time></trkpt><trkpt lat="44.47974661148809" lon="8.49229438062943"><ele>383.99999999999994</ele><time>2026-04-09T10:33:56Z</time></trkpt><trkpt lat="44.47971977125559" lon="8.492197955435453"><ele>384.0</ele><time>2026-04-09T10:33:57Z</time></trkpt><trkpt lat="44.47969625590333" lon="8.49210360693692"><ele>384.0</ele><time>2026-04-09T10:33:58Z</time></trkpt><trkpt lat="44.479675872045824" lon="8.492010725147358"><ele>384.0</ele><time>2026-04-09T10:33:59Z</time></trkpt><trkpt lat="44.479650863355324" lon="8.4919150284968"><ele>384.0</ele><time>2026-04-09T10:34:00Z</time></trkpt><trkpt lat="44.479629607514596" lon="8.491809902463864"><ele>383.99999999999994</ele><time>2026-04-09T10:34:01Z</time></trkpt><trkpt lat="44.47960008064214" lon="8.491699733481486"><ele>384.0</ele><time>2026-04-09T10:34:02Z</time></trkpt><trkpt lat="44.4795817774559" lon="8.491581917957857"><ele>384.6666666666667</ele><time>2026-04-09T10:34:03Z</time></trkpt><trkpt lat="44.47958324599322" lon="8.491458456126011"><ele>385.33333333333337</ele><time>2026-04-09T10:34:04Z</time></trkpt><trkpt lat="44.479567360904284" lon="8.491343942070365"><ele>386.0</ele><time>2026-04-09T10:34:05Z</time></trkpt><trkpt lat="44.47954400615535" lon="8.491232997663559"><ele>386.6666666666667</ele><time>2026-04-09T10:34:06Z</time></trkpt><trkpt lat="44.47953228224671" lon="8.491130115965824"><ele>387.33333333333337</ele><time>2026-04-09T10:34:07Z</time></trkpt><trkpt lat="44.47952548394305" lon="8.491038995198041"><ele>388.0</ele><time>2026-04-09T10:34:08Z</time></trkpt><trkpt lat="44.479523418732285" lon="8.49088838057871"><ele>388.00000000000006</ele><time>2026-04-09T10:34:10Z</time></trkpt><trkpt lat="44.479491465535475" lon="8.49078154938636"><ele>388.0</ele><time>2026-04-09T10:34:12Z</time></trkpt><trkpt lat="44.47950071557455" lon="8.490674874472605"><ele>388.0</ele><time>2026-04-09T10:34:15Z</time></trkpt><trkpt lat="44.47950326385472" lon="8.490548728460814"><ele>388.0</ele><time>2026-04-09T10:34:19Z</time></trkpt><trkpt lat="44.479490189580005" lon="8.490449319685796"><ele>388.00000000000006</ele><time>2026-04-09T10:34:22Z</time></trkpt><trkpt lat="44.47948397879626" lon="8.490353828644851"><ele>388.0</ele><time>2026-04-09T10:34:57Z</time></trkpt><trkpt lat="44.47941101275069" lon="8.490348463763063"><ele>389.0</ele><time>2026-04-09T10:39:33Z</time></trkpt><trkpt lat="44.47937273255816" lon="8.49027674230271"><ele>389.0</ele><time>2026-04-09T10:39:41Z</time></trkpt><trkpt lat="44.47937806321705" lon="8.49017950466968"><ele>389.0</ele><time>2026-04-09T10:39:48Z</time></trkpt><trkpt lat="44.47929234188689" lon="8.490147751803523"><ele>389.0</ele><time>2026-04-09T10:40:09Z</time></trkpt></trkseg><trkseg><trkpt lat="44.53165094352351" lon="8.465014796871989"><ele>297.0</ele><time>2026-04-09T11:45:52.002Z</time></trkpt><trkpt lat="44.53171068878898" lon="8.464880891701844"><ele>297.0</ele><time>2026-04-09T11:45:53.002Z</time></trkpt><trkpt lat="44.53176959046278" lon="8.464739994199816"><ele>297.0</ele><time>2026-04-09T11:45:54.002Z</time></trkpt><trkpt lat="44.53182339799916" lon="8.464588112415216"><ele>297.0</ele><time>2026-04-09T11:45:55.002Z</time></trkpt><trkpt lat="44.53186518289221" lon="8.46442794054196"><ele>299.0</ele><time>2026-04-09T11:45:56.002Z</time></trkpt><trkpt lat="44.53190171322055" lon="8.464257712832978"><ele>301.0</ele><time>2026-04-09T11:45:57.002Z</time></trkpt><trkpt lat="44.53193123976135" lon="8.464077830065017"><ele>303.0</ele><time>2026-04-09T11:45:58.002Z</time></trkpt><trkpt lat="44.53195651199275" lon="8.463889332815263"><ele>305.0</ele><time>2026-04-09T11:45:59.002Z</time></trkpt><trkpt lat="44.531976697036484" lon="8.463697927909209"><ele>306.33333333333337</ele><time>2026-04-09T11:46:00.002Z</time></trkpt><trkpt lat="44.53199514428601" lon="8.46349398170017"><ele>307.6666666666667</ele><time>2026-04-09T11:46:01.002Z</time></trkpt><trkpt lat="44.53201307900921" lon="8.463282629538657"><ele>309.0</ele><time>2026-04-09T11:46:02.002Z</time></trkpt><trkpt lat="44.53203172170901" lon="8.46306834997649"><ele>310.0</ele><time>2026-04-09T11:46:03.001Z</time></trkpt><trkpt lat="44.53205570924242" lon="8.462851647399422"><ele>311.0</ele><time>2026-04-09T11:46:04.001Z</time></trkpt><trkpt lat="44.532083721077754" lon="8.462627784127834"><ele>312.0</ele><time>2026-04-09T11:46:05.001Z</time></trkpt><trkpt lat="44.53211378359945" lon="8.462402096159641"><ele>303.0</ele><time>2026-04-09T11:46:06.001Z</time></trkpt><trkpt lat="44.53214719237724" lon="8.462172480833553"><ele>294.0</ele><time>2026-04-09T11:46:07Z</time></trkpt><trkpt lat="44.5321768440805" lon="8.461947912042284"><ele>285.0</ele><time>2026-04-09T11:46:08Z</time></trkpt><trkpt lat="44.5322021753728" lon="8.461717511215445"><ele>285.0</ele><time>2026-04-09T11:46:09Z</time></trkpt><trkpt lat="44.53222261723703" lon="8.46148214852476"><ele>285.0</ele><time>2026-04-09T11:46:10Z</time></trkpt><trkpt lat="44.532244828009055" lon="8.461243724861053"><ele>285.0</ele><time>2026-04-09T11:46:11Z</time></trkpt><trkpt lat="44.53226509129437" lon="8.461006179375836"><ele>285.0</ele><time>2026-04-09T11:46:12Z</time></trkpt><trkpt lat="44.53228800502988" lon="8.460766586951783"><ele>285.0</ele><time>2026-04-09T11:46:13Z</time></trkpt><trkpt lat="44.53231290359398" lon="8.460524954599789"><ele>285.0</ele><time>2026-04-09T11:46:14Z</time></trkpt><trkpt lat="44.532339988178215" lon="8.460284573226673"><ele>285.0</ele><time>2026-04-09T11:46:15Z</time></trkpt><trkpt lat="44.53235973447251" lon="8.4600475349044"><ele>285.0</ele><time>2026-04-09T11:46:16Z</time></trkpt><trkpt lat="44.53238265956507" lon="8.459814554607338"><ele>285.0</ele><time>2026-04-09T11:46:17Z</time></trkpt><trkpt lat="44.53240284579729" lon="8.459584198190797"><ele>285.6666666666667</ele><time>2026-04-09T11:46:18Z</time></trkpt><trkpt lat="44.53242270860117" lon="8.459357313741808"><ele>286.33333333333337</ele><time>2026-04-09T11:46:19Z</time></trkpt><trkpt lat="44.532440734424746" lon="8.459131605372242"><ele>287.0</ele><time>2026-04-09T11:46:20Z</time></trkpt><trkpt lat="44.53245664965775" lon="8.458911958288356"><ele>288.0</ele><time>2026-04-09T11:46:21Z</time></trkpt><trkpt lat="44.53246965933453" lon="8.458698008868708"><ele>289.0</ele><time>2026-04-09T11:46:22Z</time></trkpt><trkpt lat="44.53248069847325" lon="8.458483881991853"><ele>290.0</ele><time>2026-04-09T11:46:23Z</time></trkpt><trkpt lat="44.53249910236924" lon="8.458276936609018"><ele>290.0</ele><time>2026-04-09T11:46:24Z</time></trkpt><trkpt lat="44.53253555282953" lon="8.458080815795531"><ele>290.0</ele><time>2026-04-09T11:46:25Z</time></trkpt><trkpt lat="44.53259967964996" lon="8.45788287460056"><ele>290.0</ele><time>2026-04-09T11:46:26Z</time></trkpt><trkpt lat="44.53267856703492" lon="8.457707809010724"><ele>290.0</ele><time>2026-04-09T11:46:27Z</time></trkpt><trkpt lat="44.53277206364432" lon="8.45755607920143"><ele>288.0</ele><time>2026-04-09T11:46:28Z</time></trkpt><trkpt lat="44.53287400831812" lon="8.45741763594572"><ele>286.0</ele><time>2026-04-09T11:46:29Z</time></trkpt><trkpt lat="44.532979461384336" lon="8.457302808388034"><ele>284.0</ele><time>2026-04-09T11:46:30Z</time></trkpt><trkpt lat="44.53308981580828" lon="8.457209422319869"><ele>282.0</ele><time>2026-04-09T11:46:31Z</time></trkpt><trkpt lat="44.533202995458915" lon="8.457138670402111"><ele>282.0</ele><time>2026-04-09T11:46:32Z</time></trkpt><trkpt lat="44.53331656893216" lon="8.457124724200304"><ele>282.0</ele><time>2026-04-09T11:46:33Z</time></trkpt><trkpt lat="44.53341333136962" lon="8.457142059140832"><ele>282.0</ele><time>2026-04-09T11:46:34Z</time></trkpt><trkpt lat="44.533502346063806" lon="8.457137252177423"><ele>282.0</ele><time>2026-04-09T11:46:35Z</time></trkpt><trkpt lat="44.533591241731514" lon="8.457089060601641"><ele>282.0</ele><time>2026-04-09T11:46:36Z</time></trkpt><trkpt lat="44.53367844126189" lon="8.456994839879046"><ele>281.25</ele><time>2026-04-09T11:46:37Z</time></trkpt><trkpt lat="44.53376224631379" lon="8.45688806194965"><ele>280.5</ele><time>2026-04-09T11:46:38Z</time></trkpt><trkpt lat="44.53384775218869" lon="8.456777155628409"><ele>279.75</ele><time>2026-04-09T11:46:39Z</time></trkpt><trkpt lat="44.533938022816145" lon="8.456663019694561"><ele>279.0</ele><time>2026-04-09T11:46:40Z</time></trkpt><trkpt lat="44.53402214098239" lon="8.45655506039645"><ele>279.0</ele><time>2026-04-09T11:46:41Z</time></trkpt><trkpt lat="44.53409923720908" lon="8.456451184597478"><ele>279.0</ele><time>2026-04-09T11:46:42Z</time></trkpt><trkpt lat="44.53417623054788" lon="8.456331086270616"><ele>279.0</ele><time>2026-04-09T11:46:43Z</time></trkpt><trkpt lat="44.53424385822908" lon="8.456189496607319"><ele>279.0</ele><time>2026-04-09T11:46:44.001Z</time></trkpt><trkpt lat="44.53429884006176" lon="8.456026185800411"><ele>280.25</ele><time>2026-04-09T11:46:45.001Z</time></trkpt><trkpt lat="44.53434469086714" lon="8.45584998652111"><ele>281.5</ele><time>2026-04-09T11:46:46.001Z</time></trkpt><trkpt lat="44.534377294774856" lon="8.4556718458565"><ele>282.75</ele><time>2026-04-09T11:46:47.001Z</time></trkpt><trkpt lat="44.53440275713568" lon="8.455485168861332"><ele>284.0</ele><time>2026-04-09T11:46:48.001Z</time></trkpt><trkpt lat="44.53441961039922" lon="8.455288098844273"><ele>284.75</ele><time>2026-04-09T11:46:49.001Z</time></trkpt><trkpt lat="44.53442199744949" lon="8.455084636298166"><ele>285.5</ele><time>2026-04-09T11:46:50.001Z</time></trkpt><trkpt lat="44.53440930673638" lon="8.454876886136198"><ele>286.25</ele><time>2026-04-09T11:46:51.001Z</time></trkpt><trkpt lat="44.53438481529465" lon="8.454667606724346"><ele>287.0</ele><time>2026-04-09T11:46:52.001Z</time></trkpt><trkpt lat="44.53435496455535" lon="8.454453127442145"><ele>287.0</ele><time>2026-04-09T11:46:53.001Z</time></trkpt><trkpt lat="44.534323443149674" lon="8.454232597612188"><ele>287.0</ele><time>2026-04-09T11:46:54.001Z</time></trkpt><trkpt lat="44.53429340399767" lon="8.45400776984776"><ele>287.0</ele><time>2026-04-09T11:46:55.001Z</time></trkpt><trkpt lat="44.5342609802403" lon="8.453778629727372"><ele>285.6666666666667</ele><time>2026-04-09T11:46:56.001Z</time></trkpt><trkpt lat="44.534229372614156" lon="8.45354573123764"><ele>284.3333333333333</ele><time>2026-04-09T11:46:57.001Z</time></trkpt><trkpt lat="44.534198112177336" lon="8.453309378648079"><ele>283.0</ele><time>2026-04-09T11:46:58.001Z</time></trkpt><trkpt lat="44.534169114739804" lon="8.45307098544544"><ele>283.3333333333333</ele><time>2026-04-09T11:46:59.001Z</time></trkpt><trkpt lat="44.53413863938521" lon="8.45282841623791"><ele>283.6666666666667</ele><time>2026-04-09T11:47:00.001Z</time></trkpt><trkpt lat="44.53410478451784" lon="8.452586254900758"><ele>284.0</ele><time>2026-04-09T11:47:01.001Z</time></trkpt><trkpt lat="44.534067503952066" lon="8.452342425575726"><ele>282.33333333333337</ele><time>2026-04-09T11:47:02.001Z</time></trkpt><trkpt lat="44.53402782748339" lon="8.452103477248558"><ele>280.6666666666667</ele><time>2026-04-09T11:47:03.001Z</time></trkpt><trkpt lat="44.533986185108056" lon="8.451878565919834"><ele>279.0</ele><time>2026-04-09T11:47:04.001Z</time></trkpt><trkpt lat="44.53394115101845" lon="8.451669335836199"><ele>279.0</ele><time>2026-04-09T11:47:05.001Z</time></trkpt><trkpt lat="44.53389982322239" lon="8.451466190967906"><ele>279.0</ele><time>2026-04-09T11:47:06.001Z</time></trkpt><trkpt lat="44.533861432432175" lon="8.451258288544649"><ele>279.0</ele><time>2026-04-09T11:47:07.001Z</time></trkpt><trkpt lat="44.53383328703916" lon="8.45104755549709"><ele>278.25</ele><time>2026-04-09T11:47:08.001Z</time></trkpt><trkpt lat="44.53381360123597" lon="8.450836005278427"><ele>277.5</ele><time>2026-04-09T11:47:09.001Z</time></trkpt><trkpt lat="44.53379644927414" lon="8.450632650505591"><ele>276.75</ele><time>2026-04-09T11:47:10.001Z</time></trkpt><trkpt lat="44.5337774641468" lon="8.450433672673876"><ele>276.0</ele><time>2026-04-09T11:47:11.001Z</time></trkpt><trkpt lat="44.53375962548262" lon="8.450240050374852"><ele>276.0</ele><time>2026-04-09T11:47:12.001Z</time></trkpt><trkpt lat="44.533743273530256" lon="8.450052286207914"><ele>276.0</ele><time>2026-04-09T11:47:13.001Z</time></trkpt><trkpt lat="44.53373116729777" lon="8.449867183885972"><ele>276.0</ele><time>2026-04-09T11:47:14.001Z</time></trkpt><trkpt lat="44.53372860060812" lon="8.449686321589137"><ele>276.0</ele><time>2026-04-09T11:47:15.001Z</time></trkpt><trkpt lat="44.53374418971095" lon="8.449511441904532"><ele>276.0</ele><time>2026-04-09T11:47:16.001Z</time></trkpt><trkpt lat="44.533778831223344" lon="8.449344032379669"><ele>276.0</ele><time>2026-04-09T11:47:17.001Z</time></trkpt><trkpt lat="44.53385219804595" lon="8.449200527927907"><ele>276.0</ele><time>2026-04-09T11:47:18.001Z</time></trkpt><trkpt lat="44.53395219778785" lon="8.449076453485695"><ele>276.0</ele><time>2026-04-09T11:47:19.001Z</time></trkpt><trkpt lat="44.5340715322936" lon="8.448983383709141"><ele>276.0</ele><time>2026-04-09T11:47:20.001Z</time></trkpt><trkpt lat="44.534182206138304" lon="8.448856472232967"><ele>276.0</ele><time>2026-04-09T11:47:21.001Z</time></trkpt><trkpt lat="44.534305502656274" lon="8.448753730959902"><ele>276.0</ele><time>2026-04-09T11:47:22.001Z</time></trkpt><trkpt lat="44.53442472960031" lon="8.448655191597425"><ele>276.0</ele><time>2026-04-09T11:47:23.001Z</time></trkpt><trkpt lat="44.534544571572916" lon="8.448556691539185"><ele>276.75</ele><time>2026-04-09T11:47:24.001Z</time></trkpt><trkpt lat="44.53467094751968" lon="8.448464156081908"><ele>277.5</ele><time>2026-04-09T11:47:25.001Z</time></trkpt><trkpt lat="44.534804994205906" lon="8.448383850175553"><ele>278.25</ele><time>2026-04-09T11:47:26.001Z</time></trkpt><trkpt lat="44.53494859501636" lon="8.448324246415972"><ele>279.0</ele><time>2026-04-09T11:47:27.001Z</time></trkpt><trkpt lat="44.53510136629957" lon="8.448294475735254"><ele>279.0</ele><time>2026-04-09T11:47:28.001Z</time></trkpt><trkpt lat="44.535258594277856" lon="8.448290109017886"><ele>279.0</ele><time>2026-04-09T11:47:29.001Z</time></trkpt><trkpt lat="44.53541947279689" lon="8.44829638346545"><ele>279.0</ele><time>2026-04-09T11:47:30.001Z</time></trkpt><trkpt lat="44.535583069025655" lon="8.448301959912502"><ele>280.0</ele><time>2026-04-09T11:47:31.001Z</time></trkpt><trkpt lat="44.535749490929824" lon="8.448311366139556"><ele>281.0</ele><time>2026-04-09T11:47:32.001Z</time></trkpt><trkpt lat="44.53591230150381" lon="8.448319944777674"><ele>282.0</ele><time>2026-04-09T11:47:33.001Z</time></trkpt><trkpt lat="44.53606140083547" lon="8.44832515596273"><ele>282.0</ele><time>2026-04-09T11:47:34.001Z</time></trkpt><trkpt lat="44.536197183971055" lon="8.448328607559189"><ele>282.0</ele><time>2026-04-09T11:47:35.001Z</time></trkpt><trkpt lat="44.53632344728822" lon="8.448356784585693"><ele>282.0</ele><time>2026-04-09T11:47:36.001Z</time></trkpt><trkpt lat="44.53644268691095" lon="8.44836477203462"><ele>282.0</ele><time>2026-04-09T11:47:37.001Z</time></trkpt><trkpt lat="44.53656060017103" lon="8.448369500298659"><ele>283.25</ele><time>2026-04-09T11:47:38.001Z</time></trkpt><trkpt lat="44.53665402601846" lon="8.448471903813768"><ele>284.5</ele><time>2026-04-09T11:47:39.001Z</time></trkpt><trkpt lat="44.53674001193556" lon="8.448597227738533"><ele>285.75</ele><time>2026-04-09T11:47:40.001Z</time></trkpt><trkpt lat="44.53682414272383" lon="8.448740807148246"><ele>287.0</ele><time>2026-04-09T11:47:41.001Z</time></trkpt><trkpt lat="44.53691070664288" lon="8.448886437314954"><ele>283.5</ele><time>2026-04-09T11:47:42.001Z</time></trkpt><trkpt lat="44.53700127264256" lon="8.449028279344347"><ele>280.0</ele><time>2026-04-09T11:47:43.001Z</time></trkpt><trkpt lat="44.53709281380786" lon="8.449167720528859"><ele>276.5</ele><time>2026-04-09T11:47:44.001Z</time></trkpt><trkpt lat="44.53718280052817" lon="8.44930633698499"><ele>273.0</ele><time>2026-04-09T11:47:45.001Z</time></trkpt><trkpt lat="44.537262851087334" lon="8.44944644935115"><ele>278.0</ele><time>2026-04-09T11:47:46.001Z</time></trkpt><trkpt lat="44.53731267544873" lon="8.449609607436637"><ele>283.0</ele><time>2026-04-09T11:47:47.001Z</time></trkpt><trkpt lat="44.53733715336091" lon="8.449781102138513"><ele>288.0</ele><time>2026-04-09T11:47:48.001Z</time></trkpt><trkpt lat="44.53735711666116" lon="8.449957845348207"><ele>293.0</ele><time>2026-04-09T11:47:49.001Z</time></trkpt><trkpt lat="44.53737582253264" lon="8.450133595797244"><ele>293.0</ele><time>2026-04-09T11:47:50.001Z</time></trkpt><trkpt lat="44.53739441394758" lon="8.450299254744465"><ele>293.0</ele><time>2026-04-09T11:47:51.001Z</time></trkpt><trkpt lat="44.53741242332151" lon="8.450453233057674"><ele>293.0</ele><time>2026-04-09T11:47:52.001Z</time></trkpt><trkpt lat="44.53743074028198" lon="8.450599916518996"><ele>293.0</ele><time>2026-04-09T11:47:53.001Z</time></trkpt><trkpt lat="44.53745366472858" lon="8.450739992239958"><ele>293.0</ele><time>2026-04-09T11:47:54.001Z</time></trkpt><trkpt lat="44.53748516006148" lon="8.450874264060634"><ele>290.2</ele><time>2026-04-09T11:47:55.001Z</time></trkpt><trkpt lat="44.53753550427988" lon="8.451003151187576"><ele>287.4</ele><time>2026-04-09T11:47:56.001Z</time></trkpt><trkpt lat="44.53758996083863" lon="8.45111167391477"><ele>284.59999999999997</ele><time>2026-04-09T11:47:57.001Z</time></trkpt><trkpt lat="44.53764400901078" lon="8.45121683355418"><ele>281.8</ele><time>2026-04-09T11:47:58.001Z</time></trkpt><trkpt lat="44.53769725843207" lon="8.4513204389283"><ele>279.0</ele><time>2026-04-09T11:47:59.001Z</time></trkpt><trkpt lat="44.53775350834341" lon="8.4514264556274"><ele>277.59999999999997</ele><time>2026-04-09T11:48:00.001Z</time></trkpt><trkpt lat="44.53781239335446" lon="8.45153388446046"><ele>276.2</ele><time>2026-04-09T11:48:01.001Z</time></trkpt><trkpt lat="44.5378776132958" lon="8.45163997363601"><ele>274.79999999999995</ele><time>2026-04-09T11:48:02.001Z</time></trkpt><trkpt lat="44.5379552388968" lon="8.451723936814323"><ele>273.4</ele><time>2026-04-09T11:48:03.001Z</time></trkpt><trkpt lat="44.538024987444906" lon="8.451818554722545"><ele>272.0</ele><time>2026-04-09T11:48:04.001Z</time></trkpt><trkpt lat="44.538097500283236" lon="8.451909013979106"><ele>273.2</ele><time>2026-04-09T11:48:05.001Z</time></trkpt><trkpt lat="44.53817038073864" lon="8.451996215501786"><ele>274.4</ele><time>2026-04-09T11:48:06.001Z</time></trkpt><trkpt lat="44.538256043707946" lon="8.452071229631335"><ele>275.6</ele><time>2026-04-09T11:48:07.001Z</time></trkpt><trkpt lat="44.53833594248808" lon="8.452153757173123"><ele>276.8</ele><time>2026-04-09T11:48:08.001Z</time></trkpt><trkpt lat="44.53842049733335" lon="8.452221278024206"><ele>278.0</ele><time>2026-04-09T11:48:09Z</time></trkpt><trkpt lat="44.53850486665696" lon="8.452290101845053"><ele>278.0</ele><time>2026-04-09T11:48:10Z</time></trkpt><trkpt lat="44.53859411523326" lon="8.452374350301122"><ele>278.0</ele><time>2026-04-09T11:48:11Z</time></trkpt><trkpt lat="44.53869648866722" lon="8.452437658498269"><ele>278.0</ele><time>2026-04-09T11:48:12Z</time></trkpt><trkpt lat="44.53880957594452" lon="8.452496279173829"><ele>278.0</ele><time>2026-04-09T11:48:13Z</time></trkpt><trkpt lat="44.53892929655826" lon="8.452547310942185"><ele>279.0</ele><time>2026-04-09T11:48:14Z</time></trkpt><trkpt lat="44.53905918705723" lon="8.452575083711666"><ele>280.0</ele><time>2026-04-09T11:48:15Z</time></trkpt><trkpt lat="44.539183469993326" lon="8.45262175047557"><ele>281.0</ele><time>2026-04-09T11:48:16Z</time></trkpt><trkpt lat="44.53930086530805" lon="8.45269046768949"><ele>282.0</ele><time>2026-04-09T11:48:17Z</time></trkpt><trkpt lat="44.539418687334674" lon="8.452735267823991"><ele>282.0</ele><time>2026-04-09T11:48:18Z</time></trkpt><trkpt lat="44.53953232041861" lon="8.452778475190346"><ele>282.0</ele><time>2026-04-09T11:48:19Z</time></trkpt><trkpt lat="44.53965008078814" lon="8.45282127043329"><ele>282.0</ele><time>2026-04-09T11:48:20Z</time></trkpt><trkpt lat="44.53976504619539" lon="8.452866685168992"><ele>282.0</ele><time>2026-04-09T11:48:21Z</time></trkpt><trkpt lat="44.539883789671386" lon="8.452911914694155"><ele>282.5</ele><time>2026-04-09T11:48:22Z</time></trkpt><trkpt lat="44.540002799128764" lon="8.452955499855419"><ele>283.0</ele><time>2026-04-09T11:48:23Z</time></trkpt><trkpt lat="44.54012572571174" lon="8.45297954537444"><ele>283.5</ele><time>2026-04-09T11:48:24Z</time></trkpt><trkpt lat="44.540243284197096" lon="8.453027525518532"><ele>284.0</ele><time>2026-04-09T11:48:25Z</time></trkpt><trkpt lat="44.54036269470432" lon="8.453092382848604"><ele>282.25</ele><time>2026-04-09T11:48:26Z</time></trkpt><trkpt lat="44.54048539940549" lon="8.453128102198361"><ele>280.5</ele><time>2026-04-09T11:48:27Z</time></trkpt><trkpt lat="44.540610291510035" lon="8.453158533720268"><ele>278.75</ele><time>2026-04-09T11:48:28Z</time></trkpt><trkpt lat="44.54073916616944" lon="8.453178605378776"><ele>277.0</ele><time>2026-04-09T11:48:29Z</time></trkpt><trkpt lat="44.54086853230008" lon="8.453162793191309"><ele>277.0</ele><time>2026-04-09T11:48:30Z</time></trkpt><trkpt lat="44.54099114673191" lon="8.453169429803681"><ele>277.0</ele><time>2026-04-09T11:48:31Z</time></trkpt><trkpt lat="44.541111067764014" lon="8.453170730191554"><ele>277.0</ele><time>2026-04-09T11:48:32Z</time></trkpt><trkpt lat="44.54122816916143" lon="8.45317259987985"><ele>277.0</ele><time>2026-04-09T11:48:33Z</time></trkpt><trkpt lat="44.54133931199225" lon="8.453187749329926"><ele>279.6</ele><time>2026-04-09T11:48:34Z</time></trkpt><trkpt lat="44.5414448858559" lon="8.453220246394524"><ele>282.2</ele><time>2026-04-09T11:48:35Z</time></trkpt><trkpt lat="44.54154469933527" lon="8.453265676206792"><ele>284.8</ele><time>2026-04-09T11:48:36Z</time></trkpt><trkpt lat="44.54164405655959" lon="8.453320951100913"><ele>287.4</ele><time>2026-04-09T11:48:37Z</time></trkpt><trkpt lat="44.541744780570305" lon="8.453380012705606"><ele>290.0</ele><time>2026-04-09T11:48:38Z</time></trkpt><trkpt lat="44.54184859858127" lon="8.45343980220539"><ele>290.0</ele><time>2026-04-09T11:48:39Z</time></trkpt><trkpt lat="44.54194839583458" lon="8.453515705199823"><ele>290.0</ele><time>2026-04-09T11:48:40Z</time></trkpt><trkpt lat="44.542062727881465" lon="8.453547220775075"><ele>290.0</ele><time>2026-04-09T11:48:41Z</time></trkpt><trkpt lat="44.542173005884806" lon="8.453599851707018"><ele>290.0</ele><time>2026-04-09T11:48:42Z</time></trkpt><trkpt lat="44.54228298240412" lon="8.453657858547098"><ele>291.4</ele><time>2026-04-09T11:48:43Z</time></trkpt><trkpt lat="44.542393835522894" lon="8.4536898288549"><ele>292.8</ele><time>2026-04-09T11:48:44Z</time></trkpt><trkpt lat="44.542506309156025" lon="8.453697528826902"><ele>294.2</ele><time>2026-04-09T11:48:45Z</time></trkpt><trkpt lat="44.542613124955636" lon="8.4537273125971"><ele>295.6</ele><time>2026-04-09T11:48:46Z</time></trkpt><trkpt lat="44.542719270235835" lon="8.45376048342849"><ele>297.0</ele><time>2026-04-09T11:48:47Z</time></trkpt><trkpt lat="44.54282901049129" lon="8.453784500241971"><ele>292.0</ele><time>2026-04-09T11:48:48Z</time></trkpt><trkpt lat="44.5429449773164" lon="8.453801693320974"><ele>287.0</ele><time>2026-04-09T11:48:49Z</time></trkpt><trkpt lat="44.54306383734878" lon="8.453805519917307"><ele>282.0</ele><time>2026-04-09T11:48:50Z</time></trkpt><trkpt lat="44.543183793323244" lon="8.453801061164054"><ele>277.0</ele><time>2026-04-09T11:48:51Z</time></trkpt><trkpt lat="44.54330192230979" lon="8.453789810447589"><ele>281.25</ele><time>2026-04-09T11:48:52Z</time></trkpt><trkpt lat="44.543418631280424" lon="8.453779906786343"><ele>285.5</ele><time>2026-04-09T11:48:53Z</time></trkpt><trkpt lat="44.543532130593434" lon="8.453764960900228"><ele>289.75</ele><time>2026-04-09T11:48:54Z</time></trkpt><trkpt lat="44.54364349775219" lon="8.453750179164773"><ele>294.0</ele><time>2026-04-09T11:48:55Z</time></trkpt><trkpt lat="44.543752305329754" lon="8.453731044470267"><ele>294.0</ele><time>2026-04-09T11:48:56Z</time></trkpt><trkpt lat="44.543858214399556" lon="8.45370958286639"><ele>294.0</ele><time>2026-04-09T11:48:57Z</time></trkpt><trkpt lat="44.543963671667086" lon="8.453692699823835"><ele>294.0</ele><time>2026-04-09T11:48:58Z</time></trkpt><trkpt lat="44.54406695117008" lon="8.45368603831675"><ele>294.0</ele><time>2026-04-09T11:48:59Z</time></trkpt><trkpt lat="44.544166729037855" lon="8.453694087003056"><ele>294.0</ele><time>2026-04-09T11:49:00Z</time></trkpt><trkpt lat="44.5442605106903" lon="8.453708441847374"><ele>294.0</ele><time>2026-04-09T11:49:01Z</time></trkpt><trkpt lat="44.54435011442772" lon="8.45371638689631"><ele>294.0</ele><time>2026-04-09T11:49:02Z</time></trkpt><trkpt lat="44.54444660293364" lon="8.45369341151356"><ele>294.0</ele><time>2026-04-09T11:49:03Z</time></trkpt><trkpt lat="44.544544653607616" lon="8.453646682816471"><ele>294.0</ele><time>2026-04-09T11:49:04.001Z</time></trkpt><trkpt lat="44.54464732047098" lon="8.453583658306759"><ele>294.0</ele><time>2026-04-09T11:49:05.001Z</time></trkpt><trkpt lat="44.54475530602232" lon="8.45351237563283"><ele>290.5</ele><time>2026-04-09T11:49:06.001Z</time></trkpt><trkpt lat="44.54486738689566" lon="8.453439347495804"><ele>287.0</ele><time>2026-04-09T11:49:07.001Z</time></trkpt><trkpt lat="44.54498168570067" lon="8.453368366800753"><ele>283.5</ele><time>2026-04-09T11:49:08.001Z</time></trkpt><trkpt lat="44.545088897873605" lon="8.453290895983782"><ele>280.0</ele><time>2026-04-09T11:49:09.001Z</time></trkpt><trkpt lat="44.54519444478056" lon="8.453213672472359"><ele>280.0</ele><time>2026-04-09T11:49:10.001Z</time></trkpt><trkpt lat="44.54530895339714" lon="8.453156163403152"><ele>280.0</ele><time>2026-04-09T11:49:11.001Z</time></trkpt><trkpt lat="44.54541627022793" lon="8.453059665740632"><ele>280.0</ele><time>2026-04-09T11:49:12.001Z</time></trkpt><trkpt lat="44.545540478083055" lon="8.452983139274206"><ele>280.0</ele><time>2026-04-09T11:49:13.001Z</time></trkpt><trkpt lat="44.545670144944594" lon="8.452887695356399"><ele>281.66666666666663</ele><time>2026-04-09T11:49:14.001Z</time></trkpt><trkpt lat="44.545817823507264" lon="8.452785725411854"><ele>283.3333333333333</ele><time>2026-04-09T11:49:15.001Z</time></trkpt><trkpt lat="44.545977309596765" lon="8.452661694055678"><ele>285.0</ele><time>2026-04-09T11:49:16.001Z</time></trkpt><trkpt lat="44.54614902850109" lon="8.4525292550567"><ele>281.6666666666667</ele><time>2026-04-09T11:49:17.001Z</time></trkpt><trkpt lat="44.54632673555039" lon="8.452402344248998"><ele>278.33333333333337</ele><time>2026-04-09T11:49:18.001Z</time></trkpt><trkpt lat="44.546498350171824" lon="8.452274083241917"><ele>275.0</ele><time>2026-04-09T11:49:19.001Z</time></trkpt><trkpt lat="44.54666205374243" lon="8.452152553003867"><ele>273.33333333333337</ele><time>2026-04-09T11:49:20.001Z</time></trkpt><trkpt lat="44.546809576809174" lon="8.45203025527145"><ele>271.6666666666667</ele><time>2026-04-09T11:49:21.001Z</time></trkpt><trkpt lat="44.54694618665432" lon="8.451906219912699"><ele>270.0</ele><time>2026-04-09T11:49:22.001Z</time></trkpt><trkpt lat="44.547065246825426" lon="8.451787638623596"><ele>270.0</ele><time>2026-04-09T11:49:23.001Z</time></trkpt><trkpt lat="44.5471846531148" lon="8.451694253730253"><ele>270.0</ele><time>2026-04-09T11:49:24.001Z</time></trkpt><trkpt lat="44.54730296133894" lon="8.451631513353435"><ele>270.0</ele><time>2026-04-09T11:49:25.001Z</time></trkpt><trkpt lat="44.54741842430837" lon="8.451586365640557"><ele>270.0</ele><time>2026-04-09T11:49:26.001Z</time></trkpt><trkpt lat="44.54751304588645" lon="8.451512379827742"><ele>270.0</ele><time>2026-04-09T11:49:27.001Z</time></trkpt><trkpt lat="44.54757986753949" lon="8.45139297522475"><ele>270.0</ele><time>2026-04-09T11:49:28.001Z</time></trkpt><trkpt lat="44.54761296801647" lon="8.451228762045178"><ele>270.0</ele><time>2026-04-09T11:49:29.001Z</time></trkpt><trkpt lat="44.54762245103861" lon="8.451047947814455"><ele>270.0</ele><time>2026-04-09T11:49:30.001Z</time></trkpt><trkpt lat="44.547618973806514" lon="8.450858300514344"><ele>271.25</ele><time>2026-04-09T11:49:31.001Z</time></trkpt><trkpt lat="44.54760107726517" lon="8.450684161811399"><ele>272.5</ele><time>2026-04-09T11:49:32.001Z</time></trkpt><trkpt lat="44.54755256498058" lon="8.450508751850855"><ele>273.75</ele><time>2026-04-09T11:49:33.001Z</time></trkpt><trkpt lat="44.54751262854079" lon="8.450322213584387"><ele>275.0</ele><time>2026-04-09T11:49:34.001Z</time></trkpt><trkpt lat="44.547484305844854" lon="8.450115824028783"><ele>275.33333333333337</ele><time>2026-04-09T11:49:35.001Z</time></trkpt><trkpt lat="44.547473698586124" lon="8.449904320568836"><ele>275.6666666666667</ele><time>2026-04-09T11:49:36.001Z</time></trkpt><trkpt lat="44.54748316817226" lon="8.449694796445236"><ele>276.0</ele><time>2026-04-09T11:49:37.001Z</time></trkpt><trkpt lat="44.54751401775965" lon="8.44948778084876"><ele>276.0</ele><time>2026-04-09T11:49:38.001Z</time></trkpt><trkpt lat="44.547570612853264" lon="8.449307854038098"><ele>276.0</ele><time>2026-04-09T11:49:39.001Z</time></trkpt><trkpt lat="44.547647011368376" lon="8.449154177877068"><ele>276.0</ele><time>2026-04-09T11:49:40.001Z</time></trkpt><trkpt lat="44.54773430711899" lon="8.449024071922718"><ele>276.0</ele><time>2026-04-09T11:49:41.001Z</time></trkpt><trkpt lat="44.54781347501148" lon="8.448902257549845"><ele>277.25</ele><time>2026-04-09T11:49:42.001Z</time></trkpt><trkpt lat="44.5478661014991" lon="8.448765039220062"><ele>278.5</ele><time>2026-04-09T11:49:43.001Z</time></trkpt><trkpt lat="44.5478844513872" lon="8.448619978445361"><ele>279.75</ele><time>2026-04-09T11:49:44.001Z</time></trkpt><trkpt lat="44.547885159037" lon="8.448464193597664"><ele>281.0</ele><time>2026-04-09T11:49:45.001Z</time></trkpt><trkpt lat="44.5478144924193" lon="8.448316076620275"><ele>281.0</ele><time>2026-04-09T11:49:46.001Z</time></trkpt><trkpt lat="44.5477669145678" lon="8.448160118813451"><ele>281.0</ele><time>2026-04-09T11:49:47.001Z</time></trkpt><trkpt lat="44.54774551366812" lon="8.447982077800724"><ele>281.0</ele><time>2026-04-09T11:49:48.001Z</time></trkpt><trkpt lat="44.547764869262075" lon="8.44779164927138"><ele>281.0</ele><time>2026-04-09T11:49:49.001Z</time></trkpt><trkpt lat="44.54778150448463" lon="8.447610360769534"><ele>281.25</ele><time>2026-04-09T11:49:50.001Z</time></trkpt><trkpt lat="44.547768951146345" lon="8.447437589226203"><ele>281.5</ele><time>2026-04-09T11:49:51.001Z</time></trkpt><trkpt lat="44.54776812161809" lon="8.447268425393453"><ele>281.75</ele><time>2026-04-09T11:49:52.001Z</time></trkpt><trkpt lat="44.547811560431" lon="8.44710227558227"><ele>282.0</ele><time>2026-04-09T11:49:53.001Z</time></trkpt><trkpt lat="44.54789174288337" lon="8.446950536952539"><ele>277.75</ele><time>2026-04-09T11:49:54.001Z</time></trkpt><trkpt lat="44.54797833921243" lon="8.446798886309344"><ele>273.5</ele><time>2026-04-09T11:49:55.001Z</time></trkpt><trkpt lat="44.54806807465453" lon="8.446640191676366"><ele>269.25</ele><time>2026-04-09T11:49:56.001Z</time></trkpt><trkpt lat="44.54816455774669" lon="8.446486808455175"><ele>265.0</ele><time>2026-04-09T11:49:57.001Z</time></trkpt><trkpt lat="44.54825679646556" lon="8.446355134689787"><ele>266.25</ele><time>2026-04-09T11:49:58.001Z</time></trkpt><trkpt lat="44.54833946534063" lon="8.446235335084038"><ele>267.5</ele><time>2026-04-09T11:49:59.001Z</time></trkpt><trkpt lat="44.548400819101474" lon="8.44610438980297"><ele>268.75</ele><time>2026-04-09T11:50:00.001Z</time></trkpt><trkpt lat="44.548418710427796" lon="8.445946776651391"><ele>270.0</ele><time>2026-04-09T11:50:01.001Z</time></trkpt><trkpt lat="44.54841019696156" lon="8.445776476151487"><ele>270.0</ele><time>2026-04-09T11:50:02.001Z</time></trkpt><trkpt lat="44.5483831331948" lon="8.445608193800412"><ele>270.0</ele><time>2026-04-09T11:50:03.001Z</time></trkpt><trkpt lat="44.548377179732846" lon="8.445450195636214"><ele>270.0</ele><time>2026-04-09T11:50:04.001Z</time></trkpt><trkpt lat="44.548394997920504" lon="8.445302830974809"><ele>270.0</ele><time>2026-04-09T11:50:05.001Z</time></trkpt><trkpt lat="44.54846551594557" lon="8.445185214087898"><ele>269.5</ele><time>2026-04-09T11:50:06.001Z</time></trkpt><trkpt lat="44.54852159730042" lon="8.445043143166785"><ele>269.0</ele><time>2026-04-09T11:50:07.001Z</time></trkpt><trkpt lat="44.5485995174338" lon="8.444911662185596"><ele>268.5</ele><time>2026-04-09T11:50:08.001Z</time></trkpt><trkpt lat="44.54867414645416" lon="8.444769866933031"><ele>268.0</ele><time>2026-04-09T11:50:09.001Z</time></trkpt><trkpt lat="44.548759990225065" lon="8.444641528267317"><ele>270.5</ele><time>2026-04-09T11:50:10.001Z</time></trkpt><trkpt lat="44.548868699254356" lon="8.444533323267436"><ele>273.0</ele><time>2026-04-09T11:50:11.001Z</time></trkpt><trkpt lat="44.548993374071365" lon="8.444449885426383"><ele>275.5</ele><time>2026-04-09T11:50:12.001Z</time></trkpt><trkpt lat="44.549127885606616" lon="8.444380974467506"><ele>278.0</ele><time>2026-04-09T11:50:13.001Z</time></trkpt><trkpt lat="44.549268277188276" lon="8.44431557818677"><ele>278.0</ele><time>2026-04-09T11:50:14.001Z</time></trkpt><trkpt lat="44.549400483625625" lon="8.444249764754517"><ele>278.0</ele><time>2026-04-09T11:50:15Z</time></trkpt><trkpt lat="44.54952161601743" lon="8.444218584740243"><ele>278.0</ele><time>2026-04-09T11:50:16Z</time></trkpt><trkpt lat="44.54963446045187" lon="8.44418927586706"><ele>278.0</ele><time>2026-04-09T11:50:17Z</time></trkpt><trkpt lat="44.54974677818166" lon="8.444194112326304"><ele>276.75</ele><time>2026-04-09T11:50:18Z</time></trkpt><trkpt lat="44.54985163572661" lon="8.444282573615975"><ele>275.5</ele><time>2026-04-09T11:50:19Z</time></trkpt><trkpt lat="44.54994917368644" lon="8.444392368622651"><ele>274.25</ele><time>2026-04-09T11:50:20Z</time></trkpt><trkpt lat="44.55005964711337" lon="8.444489565496625"><ele>273.0</ele><time>2026-04-09T11:50:21Z</time></trkpt><trkpt lat="44.55018361623197" lon="8.44457480231339"><ele>272.0</ele><time>2026-04-09T11:50:22Z</time></trkpt><trkpt lat="44.55031524305715" lon="8.444656229901835"><ele>271.0</ele><time>2026-04-09T11:50:23Z</time></trkpt><trkpt lat="44.55044819084384" lon="8.444741073614225"><ele>270.0</ele><time>2026-04-09T11:50:24Z</time></trkpt><trkpt lat="44.550584904995695" lon="8.444811860574266"><ele>269.0</ele><time>2026-04-09T11:50:25Z</time></trkpt><trkpt lat="44.55073131373043" lon="8.444856194520058"><ele>269.0</ele><time>2026-04-09T11:50:26Z</time></trkpt><trkpt lat="44.55088555161961" lon="8.444882206397864"><ele>269.0</ele><time>2026-04-09T11:50:27Z</time></trkpt><trkpt lat="44.551046677145926" lon="8.444899183604777"><ele>269.0</ele><time>2026-04-09T11:50:28Z</time></trkpt><trkpt lat="44.55121456322305" lon="8.444918727275477"><ele>270.6666666666667</ele><time>2026-04-09T11:50:29Z</time></trkpt><trkpt lat="44.55138642138456" lon="8.444941797706766"><ele>272.3333333333333</ele><time>2026-04-09T11:50:30Z</time></trkpt><trkpt lat="44.55156059449177" lon="8.444964223824929"><ele>274.0</ele><time>2026-04-09T11:50:31Z</time></trkpt><trkpt lat="44.55173779705756" lon="8.444990878347303"><ele>274.0</ele><time>2026-04-09T11:50:32Z</time></trkpt><trkpt lat="44.551911289911935" lon="8.445019779470057"><ele>274.0</ele><time>2026-04-09T11:50:33Z</time></trkpt><trkpt lat="44.552084511953666" lon="8.445053305432443"><ele>274.0</ele><time>2026-04-09T11:50:34Z</time></trkpt><trkpt lat="44.55225058532567" lon="8.445095798233394"><ele>274.3333333333333</ele><time>2026-04-09T11:50:35Z</time></trkpt><trkpt lat="44.55240828834654" lon="8.445151908534722"><ele>274.6666666666667</ele><time>2026-04-09T11:50:36Z</time></trkpt><trkpt lat="44.552559423835866" lon="8.445216801492046"><ele>275.0</ele><time>2026-04-09T11:50:37Z</time></trkpt><trkpt lat="44.55270476338683" lon="8.445280719408625"><ele>275.0</ele><time>2026-04-09T11:50:38Z</time></trkpt><trkpt lat="44.55285235388392" lon="8.445336617837981"><ele>275.0</ele><time>2026-04-09T11:50:39Z</time></trkpt><trkpt lat="44.55300704192018" lon="8.445393068385117"><ele>275.0</ele><time>2026-04-09T11:50:40Z</time></trkpt><trkpt lat="44.55316762800988" lon="8.445453360761462"><ele>269.33333333333337</ele><time>2026-04-09T11:50:41Z</time></trkpt><trkpt lat="44.553332794965044" lon="8.445516996366592"><ele>263.6666666666667</ele><time>2026-04-09T11:50:42Z</time></trkpt><trkpt lat="44.553493376729016" lon="8.445580727691677"><ele>258.0</ele><time>2026-04-09T11:50:43Z</time></trkpt><trkpt lat="44.55365632863417" lon="8.445646193620272"><ele>260.3333333333333</ele><time>2026-04-09T11:50:44Z</time></trkpt><trkpt lat="44.553825382807986" lon="8.44571040789209"><ele>262.66666666666663</ele><time>2026-04-09T11:50:45Z</time></trkpt><trkpt lat="44.55399867009016" lon="8.445773287126643"><ele>265.0</ele><time>2026-04-09T11:50:46Z</time></trkpt><trkpt lat="44.55417249796429" lon="8.445839863425444"><ele>265.0</ele><time>2026-04-09T11:50:47Z</time></trkpt><trkpt lat="44.55434487369935" lon="8.445908745515672"><ele>265.0</ele><time>2026-04-09T11:50:48Z</time></trkpt><trkpt lat="44.554514531337475" lon="8.445975901758041"><ele>265.0</ele><time>2026-04-09T11:50:49Z</time></trkpt><trkpt lat="44.55468879044113" lon="8.446037965115815"><ele>268.0</ele><time>2026-04-09T11:50:50Z</time></trkpt><trkpt lat="44.55486198332708" lon="8.446082202906073"><ele>271.0</ele><time>2026-04-09T11:50:51Z</time></trkpt><trkpt lat="44.55504028462235" lon="8.446096972253343"><ele>274.0</ele><time>2026-04-09T11:50:52Z</time></trkpt><trkpt lat="44.555222622947404" lon="8.44609160574007"><ele>271.3333333333333</ele><time>2026-04-09T11:50:53Z</time></trkpt><trkpt lat="44.555405982179416" lon="8.446077074591326"><ele>268.6666666666667</ele><time>2026-04-09T11:50:54Z</time></trkpt><trkpt lat="44.55559301773183" lon="8.446062588819677"><ele>266.0</ele><time>2026-04-09T11:50:55Z</time></trkpt><trkpt lat="44.555775460646856" lon="8.446050835185202"><ele>266.0</ele><time>2026-04-09T11:50:56Z</time></trkpt><trkpt lat="44.55595053122842" lon="8.446040548818832"><ele>266.0</ele><time>2026-04-09T11:50:57Z</time></trkpt><trkpt lat="44.55611805414546" lon="8.446030741353459"><ele>266.0</ele><time>2026-04-09T11:50:58Z</time></trkpt><trkpt lat="44.5562817193922" lon="8.446021108292907"><ele>263.33333333333337</ele><time>2026-04-09T11:50:59Z</time></trkpt><trkpt lat="44.55643810403267" lon="8.446002954437306"><ele>260.6666666666667</ele><time>2026-04-09T11:51:00Z</time></trkpt><trkpt lat="44.55658988573915" lon="8.445968068088593"><ele>258.0</ele><time>2026-04-09T11:51:01Z</time></trkpt><trkpt lat="44.556740291978365" lon="8.445909303393805"><ele>258.0</ele><time>2026-04-09T11:51:02Z</time></trkpt><trkpt lat="44.556888918432065" lon="8.445828942646617"><ele>258.0</ele><time>2026-04-09T11:51:03Z</time></trkpt><trkpt lat="44.557036294851116" lon="8.445729696005515"><ele>258.0</ele><time>2026-04-09T11:51:04Z</time></trkpt><trkpt lat="44.55718005965582" lon="8.445616332255947"><ele>259.3333333333333</ele><time>2026-04-09T11:51:05Z</time></trkpt><trkpt lat="44.557319370943404" lon="8.445486996960067"><ele>260.66666666666663</ele><time>2026-04-09T11:51:06Z</time></trkpt><trkpt lat="44.55744880793846" lon="8.445336297532624"><ele>262.0</ele><time>2026-04-09T11:51:07Z</time></trkpt><trkpt lat="44.557567155189794" lon="8.445165196742558"><ele>262.0</ele><time>2026-04-09T11:51:08Z</time></trkpt><trkpt lat="44.55767309427607" lon="8.44497563867328"><ele>262.0</ele><time>2026-04-09T11:51:09Z</time></trkpt><trkpt lat="44.55776900459521" lon="8.444772315847645"><ele>262.0</ele><time>2026-04-09T11:51:10Z</time></trkpt><trkpt lat="44.55785191861036" lon="8.444555517412795"><ele>260.66666666666663</ele><time>2026-04-09T11:51:11Z</time></trkpt><trkpt lat="44.55792100929883" lon="8.444333330966458"><ele>259.3333333333333</ele><time>2026-04-09T11:51:12Z</time></trkpt><trkpt lat="44.55796898054338" lon="8.444107409658589"><ele>258.0</ele><time>2026-04-09T11:51:13Z</time></trkpt><trkpt lat="44.55800150035467" lon="8.443880169418232"><ele>256.6666666666667</ele><time>2026-04-09T11:51:14Z</time></trkpt><trkpt lat="44.55802141741965" lon="8.443651431456445"><ele>255.33333333333334</ele><time>2026-04-09T11:51:15Z</time></trkpt><trkpt lat="44.55802761622462" lon="8.443425362301593"><ele>254.0</ele><time>2026-04-09T11:51:16Z</time></trkpt><trkpt lat="44.55801779856884" lon="8.443200171731629"><ele>254.0</ele><time>2026-04-09T11:51:17Z</time></trkpt><trkpt lat="44.5579889671323" lon="8.442971367383004"><ele>254.0</ele><time>2026-04-09T11:51:18.001Z</time></trkpt><trkpt lat="44.55794283345252" lon="8.442741585639322"><ele>254.0</ele><time>2026-04-09T11:51:19.001Z</time></trkpt><trkpt lat="44.55787967232797" lon="8.442513285577753"><ele>255.33333333333334</ele><time>2026-04-09T11:51:20.001Z</time></trkpt><trkpt lat="44.55780620484995" lon="8.442289292869578"><ele>256.6666666666667</ele><time>2026-04-09T11:51:21.001Z</time></trkpt><trkpt lat="44.55772117774171" lon="8.442066762312969"><ele>258.0</ele><time>2026-04-09T11:51:22.001Z</time></trkpt><trkpt lat="44.557632774777645" lon="8.441849868745384"><ele>258.0</ele><time>2026-04-09T11:51:23.001Z</time></trkpt><trkpt lat="44.557539625052016" lon="8.441630394023443"><ele>258.0</ele><time>2026-04-09T11:51:24.001Z</time></trkpt><trkpt lat="44.55744406902227" lon="8.441407766546885"><ele>258.0</ele><time>2026-04-09T11:51:25.001Z</time></trkpt><trkpt lat="44.55734366541849" lon="8.441184375267532"><ele>255.0</ele><time>2026-04-09T11:51:26.001Z</time></trkpt><trkpt lat="44.557243891137524" lon="8.440959195198484"><ele>252.0</ele><time>2026-04-09T11:51:27.001Z</time></trkpt><trkpt lat="44.55714671506953" lon="8.440727867470649"><ele>249.0</ele><time>2026-04-09T11:51:28.001Z</time></trkpt><trkpt lat="44.55704807404405" lon="8.440491695190508"><ele>251.0</ele><time>2026-04-09T11:51:29.001Z</time></trkpt><trkpt lat="44.55694843989459" lon="8.440255516473918"><ele>253.0</ele><time>2026-04-09T11:51:30.001Z</time></trkpt><trkpt lat="44.556853905476295" lon="8.440031763743665"><ele>255.0</ele><time>2026-04-09T11:51:31.001Z</time></trkpt><trkpt lat="44.55676309437838" lon="8.439822726010055"><ele>252.0</ele><time>2026-04-09T11:51:32.001Z</time></trkpt><trkpt lat="44.55667738691932" lon="8.439624500703946"><ele>249.0</ele><time>2026-04-09T11:51:33.001Z</time></trkpt><trkpt lat="44.55659649208386" lon="8.439434162676255"><ele>246.0</ele><time>2026-04-09T11:51:34.001Z</time></trkpt><trkpt lat="44.556513992676855" lon="8.439237705797414"><ele>246.0</ele><time>2026-04-09T11:51:35.001Z</time></trkpt><trkpt lat="44.55642868726059" lon="8.439037226983473"><ele>246.0</ele><time>2026-04-09T11:51:36.001Z</time></trkpt><trkpt lat="44.55633922075791" lon="8.43883263787366"><ele>246.0</ele><time>2026-04-09T11:51:37.001Z</time></trkpt><trkpt lat="44.55624461256227" lon="8.438629049037147"><ele>249.66666666666669</ele><time>2026-04-09T11:51:38.001Z</time></trkpt><trkpt lat="44.55614932470713" lon="8.438420159372862"><ele>253.33333333333334</ele><time>2026-04-09T11:51:39.001Z</time></trkpt><trkpt lat="44.55606210663342" lon="8.438202775597993"><ele>257.0</ele><time>2026-04-09T11:51:40.001Z</time></trkpt><trkpt lat="44.55598307376098" lon="8.437977814115744"><ele>256.33333333333337</ele><time>2026-04-09T11:51:41.001Z</time></trkpt><trkpt lat="44.5559189652087" lon="8.437743910347894"><ele>255.66666666666669</ele><time>2026-04-09T11:51:42.001Z</time></trkpt><trkpt lat="44.55587466372544" lon="8.437505225995283"><ele>255.0</ele><time>2026-04-09T11:51:43.001Z</time></trkpt><trkpt lat="44.55584807992421" lon="8.437260968024065"><ele>254.0</ele><time>2026-04-09T11:51:44.001Z</time></trkpt><trkpt lat="44.55583392404537" lon="8.437013408873808"><ele>253.0</ele><time>2026-04-09T11:51:45.001Z</time></trkpt><trkpt lat="44.55583641894014" lon="8.436764342463544"><ele>252.0</ele><time>2026-04-09T11:51:46.001Z</time></trkpt><trkpt lat="44.55584668291236" lon="8.436519521464112"><ele>252.0</ele><time>2026-04-09T11:51:47.001Z</time></trkpt><trkpt lat="44.55587768404003" lon="8.436274715825492"><ele>252.0</ele><time>2026-04-09T11:51:48.001Z</time></trkpt><trkpt lat="44.55592632356507" lon="8.436033377009785"><ele>252.0</ele><time>2026-04-09T11:51:49.001Z</time></trkpt><trkpt lat="44.55598729074185" lon="8.435802437582888"><ele>252.0</ele><time>2026-04-09T11:51:50.001Z</time></trkpt><trkpt lat="44.55605351453001" lon="8.435576026529706"><ele>252.0</ele><time>2026-04-09T11:51:51.001Z</time></trkpt><trkpt lat="44.55612596284249" lon="8.435351974330676"><ele>252.0</ele><time>2026-04-09T11:51:52.001Z</time></trkpt><trkpt lat="44.55620628490115" lon="8.435132233275533"><ele>249.33333333333331</ele><time>2026-04-09T11:51:53.001Z</time></trkpt><trkpt lat="44.55630186523706" lon="8.434926268280954"><ele>246.66666666666666</ele><time>2026-04-09T11:51:54.001Z</time></trkpt><trkpt lat="44.556410015053316" lon="8.434731962914768"><ele>244.0</ele><time>2026-04-09T11:51:55.001Z</time></trkpt><trkpt lat="44.55652713733974" lon="8.434548128980346"><ele>244.0</ele><time>2026-04-09T11:51:56.001Z</time></trkpt><trkpt lat="44.55665463729718" lon="8.434376084205443"><ele>244.0</ele><time>2026-04-09T11:51:57.001Z</time></trkpt><trkpt lat="44.556791338388344" lon="8.434215325915957"><ele>244.0</ele><time>2026-04-09T11:51:58.001Z</time></trkpt><trkpt lat="44.55693084178606" lon="8.434058131309365"><ele>242.0</ele><time>2026-04-09T11:51:59.001Z</time></trkpt><trkpt lat="44.55706988292571" lon="8.433902011262377"><ele>240.0</ele><time>2026-04-09T11:52:00.001Z</time></trkpt><trkpt lat="44.55720809532703" lon="8.433745734643624"><ele>238.0</ele><time>2026-04-09T11:52:01.001Z</time></trkpt><trkpt lat="44.557350281276435" lon="8.433590281268351"><ele>242.66666666666666</ele><time>2026-04-09T11:52:02.001Z</time></trkpt><trkpt lat="44.557484693767776" lon="8.433442135253767"><ele>247.33333333333331</ele><time>2026-04-09T11:52:03.001Z</time></trkpt><trkpt lat="44.55760451030698" lon="8.433310641489609"><ele>252.0</ele><time>2026-04-09T11:52:04.001Z</time></trkpt><trkpt lat="44.55771337942336" lon="8.433195521180542"><ele>252.0</ele><time>2026-04-09T11:52:05.001Z</time></trkpt><trkpt lat="44.557822296589414" lon="8.43308729293464"><ele>252.0</ele><time>2026-04-09T11:52:06.001Z</time></trkpt><trkpt lat="44.557931622939456" lon="8.432991228512135"><ele>252.0</ele><time>2026-04-09T11:52:07.001Z</time></trkpt><trkpt lat="44.55803919293153" lon="8.43290298111268"><ele>252.0</ele><time>2026-04-09T11:52:08.001Z</time></trkpt><trkpt lat="44.558144210687644" lon="8.432814394828597"><ele>251.5</ele><time>2026-04-09T11:52:09.001Z</time></trkpt><trkpt lat="44.55825192766715" lon="8.43273345777359"><ele>251.0</ele><time>2026-04-09T11:52:10.001Z</time></trkpt><trkpt lat="44.558359419599476" lon="8.432652395483306"><ele>250.5</ele><time>2026-04-09T11:52:11.001Z</time></trkpt><trkpt lat="44.55846940477656" lon="8.43257504674157"><ele>250.0</ele><time>2026-04-09T11:52:12.001Z</time></trkpt><trkpt lat="44.55858308252259" lon="8.432502726471483"><ele>248.5</ele><time>2026-04-09T11:52:13.001Z</time></trkpt><trkpt lat="44.5587017163025" lon="8.432437340466771"><ele>247.0</ele><time>2026-04-09T11:52:14.001Z</time></trkpt><trkpt lat="44.55882331490318" lon="8.432386725417642"><ele>245.5</ele><time>2026-04-09T11:52:15.001Z</time></trkpt><trkpt lat="44.55894972698148" lon="8.432352129059208"><ele>244.0</ele><time>2026-04-09T11:52:16.001Z</time></trkpt><trkpt lat="44.559076418152266" lon="8.43232510804677"><ele>244.0</ele><time>2026-04-09T11:52:17.001Z</time></trkpt><trkpt lat="44.55920910226409" lon="8.432307013864339"><ele>244.0</ele><time>2026-04-09T11:52:18.001Z</time></trkpt><trkpt lat="44.55934846273028" lon="8.432305979831742"><ele>244.0</ele><time>2026-04-09T11:52:19.001Z</time></trkpt><trkpt lat="44.55949310379613" lon="8.432321909707452"><ele>244.0</ele><time>2026-04-09T11:52:20.001Z</time></trkpt><trkpt lat="44.55964090093383" lon="8.43235451316913"><ele>245.66666666666666</ele><time>2026-04-09T11:52:21Z</time></trkpt><trkpt lat="44.55979062612608" lon="8.432405077000288"><ele>247.33333333333331</ele><time>2026-04-09T11:52:22Z</time></trkpt><trkpt lat="44.559942917467026" lon="8.43247493795381"><ele>249.0</ele><time>2026-04-09T11:52:23Z</time></trkpt><trkpt lat="44.56009551611683" lon="8.43256123805264"><ele>249.0</ele><time>2026-04-09T11:52:24Z</time></trkpt><trkpt lat="44.56025379912592" lon="8.432651706800682"><ele>249.0</ele><time>2026-04-09T11:52:25Z</time></trkpt><trkpt lat="44.56041323085209" lon="8.432743674808808"><ele>249.0</ele><time>2026-04-09T11:52:26Z</time></trkpt><trkpt lat="44.56057411309713" lon="8.432835273165068"><ele>245.33333333333331</ele><time>2026-04-09T11:52:27Z</time></trkpt><trkpt lat="44.56073547074057" lon="8.432920221359549"><ele>241.66666666666666</ele><time>2026-04-09T11:52:28Z</time></trkpt><trkpt lat="44.5608946448962" lon="8.43299761874795"><ele>238.0</ele><time>2026-04-09T11:52:29Z</time></trkpt><trkpt lat="44.56105187869341" lon="8.433062743041601"><ele>240.33333333333331</ele><time>2026-04-09T11:52:30Z</time></trkpt><trkpt lat="44.5612119868719" lon="8.43310966364977"><ele>242.66666666666669</ele><time>2026-04-09T11:52:31Z</time></trkpt><trkpt lat="44.561376777173415" lon="8.433132343996888"><ele>245.0</ele><time>2026-04-09T11:52:32Z</time></trkpt><trkpt lat="44.56154475217959" lon="8.43313111151348"><ele>245.0</ele><time>2026-04-09T11:52:33Z</time></trkpt><trkpt lat="44.56171836767473" lon="8.43312047084342"><ele>245.0</ele><time>2026-04-09T11:52:34Z</time></trkpt><trkpt lat="44.56188608896559" lon="8.43310003973786"><ele>245.0</ele><time>2026-04-09T11:52:35Z</time></trkpt><trkpt lat="44.5620571356299" lon="8.43307511980751"><ele>242.66666666666669</ele><time>2026-04-09T11:52:36Z</time></trkpt><trkpt lat="44.56223093812292" lon="8.433051149680795"><ele>240.33333333333331</ele><time>2026-04-09T11:52:37Z</time></trkpt><trkpt lat="44.562408071404555" lon="8.43302383981309"><ele>238.0</ele><time>2026-04-09T11:52:38Z</time></trkpt><trkpt lat="44.56258692581118" lon="8.433000977641475"><ele>238.0</ele><time>2026-04-09T11:52:39Z</time></trkpt><trkpt lat="44.5627684803726" lon="8.432975894834502"><ele>238.0</ele><time>2026-04-09T11:52:40Z</time></trkpt><trkpt lat="44.562952288442865" lon="8.432951775583629"><ele>238.0</ele><time>2026-04-09T11:52:41Z</time></trkpt><trkpt lat="44.563137923390784" lon="8.432927779642045"><ele>244.33333333333331</ele><time>2026-04-09T11:52:42Z</time></trkpt><trkpt lat="44.5633265650862" lon="8.432901747125683"><ele>250.66666666666669</ele><time>2026-04-09T11:52:43Z</time></trkpt><trkpt lat="44.563514075086275" lon="8.432870719258862"><ele>257.0</ele><time>2026-04-09T11:52:44Z</time></trkpt><trkpt lat="44.56370151123605" lon="8.432832305876657"><ele>257.0</ele><time>2026-04-09T11:52:45Z</time></trkpt><trkpt lat="44.56389067426098" lon="8.432786422801257"><ele>257.0</ele><time>2026-04-09T11:52:46Z</time></trkpt><trkpt lat="44.56407938497849" lon="8.432730892403441"><ele>257.0</ele><time>2026-04-09T11:52:47Z</time></trkpt><trkpt lat="44.56426895182548" lon="8.432675441228673"><ele>257.0</ele><time>2026-04-09T11:52:48Z</time></trkpt><trkpt lat="44.56446067181347" lon="8.432619992597843"><ele>257.0</ele><time>2026-04-09T11:52:49Z</time></trkpt><trkpt lat="44.56465522071715" lon="8.432564917574991"><ele>257.0</ele><time>2026-04-09T11:52:50Z</time></trkpt><trkpt lat="44.56484955635939" lon="8.432508651198287"><ele>253.0</ele><time>2026-04-09T11:52:51Z</time></trkpt><trkpt lat="44.56504298261912" lon="8.432451681537572"><ele>249.0</ele><time>2026-04-09T11:52:52Z</time></trkpt><trkpt lat="44.56523694659969" lon="8.43238944574098"><ele>245.0</ele><time>2026-04-09T11:52:53Z</time></trkpt><trkpt lat="44.56543008233759" lon="8.432326455290275"><ele>241.33333333333334</ele><time>2026-04-09T11:52:54Z</time></trkpt><trkpt lat="44.56562486444787" lon="8.432263821672922"><ele>237.66666666666669</ele><time>2026-04-09T11:52:55Z</time></trkpt><trkpt lat="44.56581920849405" lon="8.432203620029828"><ele>234.0</ele><time>2026-04-09T11:52:56Z</time></trkpt><trkpt lat="44.56601224683939" lon="8.432141505257402"><ele>237.66666666666669</ele><time>2026-04-09T11:52:57Z</time></trkpt><trkpt lat="44.56620447962684" lon="8.432079988887645"><ele>241.33333333333334</ele><time>2026-04-09T11:52:58Z</time></trkpt><trkpt lat="44.56639745394079" lon="8.43201430760765"><ele>245.0</ele><time>2026-04-09T11:52:59Z</time></trkpt><trkpt lat="44.56658767432799" lon="8.43194117053037"><ele>245.0</ele><time>2026-04-09T11:53:00Z</time></trkpt><trkpt lat="44.5667804267973" lon="8.431869520854644"><ele>245.0</ele><time>2026-04-09T11:53:01Z</time></trkpt><trkpt lat="44.56697360305229" lon="8.431798841934404"><ele>245.0</ele><time>2026-04-09T11:53:02Z</time></trkpt><trkpt lat="44.56716677020609" lon="8.431720299978565"><ele>242.66666666666669</ele><time>2026-04-09T11:53:03Z</time></trkpt><trkpt lat="44.56735702375986" lon="8.431642180800942"><ele>240.33333333333331</ele><time>2026-04-09T11:53:04Z</time></trkpt><trkpt lat="44.567549076531925" lon="8.431564291357493"><ele>238.0</ele><time>2026-04-09T11:53:05Z</time></trkpt><trkpt lat="44.56774234629872" lon="8.431484255909135"><ele>235.33333333333331</ele><time>2026-04-09T11:53:06Z</time></trkpt><trkpt lat="44.56793626543995" lon="8.431401379160242"><ele>232.66666666666669</ele><time>2026-04-09T11:53:07Z</time></trkpt><trkpt lat="44.56812632182916" lon="8.431319474839224"><ele>230.0</ele><time>2026-04-09T11:53:08Z</time></trkpt><trkpt lat="44.56831471011561" lon="8.431243240652433"><ele>234.0</ele><time>2026-04-09T11:53:09Z</time></trkpt><trkpt lat="44.56850177260104" lon="8.431165601503036"><ele>238.0</ele><time>2026-04-09T11:53:10Z</time></trkpt><trkpt lat="44.56868491288141" lon="8.431090156159584"><ele>242.0</ele><time>2026-04-09T11:53:11Z</time></trkpt><trkpt lat="44.568861377279454" lon="8.431016749805345"><ele>242.0</ele><time>2026-04-09T11:53:12Z</time></trkpt><trkpt lat="44.56903238122146" lon="8.430945873882807"><ele>242.0</ele><time>2026-04-09T11:53:13Z</time></trkpt><trkpt lat="44.56919933361024" lon="8.430878396635448"><ele>242.0</ele><time>2026-04-09T11:53:14Z</time></trkpt><trkpt lat="44.56936123406929" lon="8.430805580395505"><ele>242.0</ele><time>2026-04-09T11:53:15Z</time></trkpt><trkpt lat="44.56951853486203" lon="8.430726843816228"><ele>242.0</ele><time>2026-04-09T11:53:16Z</time></trkpt><trkpt lat="44.56967224351163" lon="8.430639150446128"><ele>242.0</ele><time>2026-04-09T11:53:17Z</time></trkpt><trkpt lat="44.569824112366334" lon="8.430532113901267"><ele>242.0</ele><time>2026-04-09T11:53:18Z</time></trkpt><trkpt lat="44.569968128771286" lon="8.430397642100635"><ele>242.0</ele><time>2026-04-09T11:53:19Z</time></trkpt><trkpt lat="44.57010593998888" lon="8.430247620010828"><ele>242.0</ele><time>2026-04-09T11:53:20Z</time></trkpt><trkpt lat="44.57024164258611" lon="8.430094915625336"><ele>241.33333333333334</ele><time>2026-04-09T11:53:21Z</time></trkpt><trkpt lat="44.570383509846735" lon="8.429941767972979"><ele>240.66666666666669</ele><time>2026-04-09T11:53:22Z</time></trkpt><trkpt lat="44.57052579564817" lon="8.429787394589665"><ele>240.0</ele><time>2026-04-09T11:53:23Z</time></trkpt><trkpt lat="44.57066874632675" lon="8.42963215028287"><ele>240.0</ele><time>2026-04-09T11:53:24Z</time></trkpt><trkpt lat="44.57080776353113" lon="8.429474339698826"><ele>240.0</ele><time>2026-04-09T11:53:25Z</time></trkpt><trkpt lat="44.57093983206763" lon="8.42930666833835"><ele>240.0</ele><time>2026-04-09T11:53:26Z</time></trkpt><trkpt lat="44.57105962469561" lon="8.429122764623362"><ele>240.0</ele><time>2026-04-09T11:53:27Z</time></trkpt><trkpt lat="44.57116077806533" lon="8.42891984682596"><ele>240.0</ele><time>2026-04-09T11:53:28.001Z</time></trkpt><trkpt lat="44.571246828225526" lon="8.428704311500745"><ele>240.0</ele><time>2026-04-09T11:53:29.001Z</time></trkpt><trkpt lat="44.571325553285" lon="8.428483218352827"><ele>238.0</ele><time>2026-04-09T11:53:30.001Z</time></trkpt><trkpt lat="44.571393276530266" lon="8.428259364540693"><ele>236.0</ele><time>2026-04-09T11:53:31.001Z</time></trkpt><trkpt lat="44.57144771651695" lon="8.42802815253711"><ele>234.0</ele><time>2026-04-09T11:53:32.001Z</time></trkpt><trkpt lat="44.5714989676914" lon="8.427797689540526"><ele>234.0</ele><time>2026-04-09T11:53:33.001Z</time></trkpt><trkpt lat="44.57155053659443" lon="8.427568553700114"><ele>234.0</ele><time>2026-04-09T11:53:34.001Z</time></trkpt><trkpt lat="44.57159982242698" lon="8.427347505505038"><ele>234.0</ele><time>2026-04-09T11:53:35.001Z</time></trkpt><trkpt lat="44.571644757001124" lon="8.427138520070509"><ele>234.0</ele><time>2026-04-09T11:53:36.001Z</time></trkpt><trkpt lat="44.57168990617391" lon="8.426938433430198"><ele>234.0</ele><time>2026-04-09T11:53:37.001Z</time></trkpt><trkpt lat="44.57173093766188" lon="8.426746341698664"><ele>234.0</ele><time>2026-04-09T11:53:38.001Z</time></trkpt><trkpt lat="44.571767310897215" lon="8.426561772995518"><ele>234.0</ele><time>2026-04-09T11:53:39.001Z</time></trkpt><trkpt lat="44.57180988951949" lon="8.426380555475632"><ele>233.75</ele><time>2026-04-09T11:53:40.001Z</time></trkpt><trkpt lat="44.57185058303785" lon="8.426200685709405"><ele>233.5</ele><time>2026-04-09T11:53:41.001Z</time></trkpt><trkpt lat="44.57188989115547" lon="8.426015421183488"><ele>233.25</ele><time>2026-04-09T11:53:42.001Z</time></trkpt><trkpt lat="44.57192727730158" lon="8.42582472398854"><ele>233.0</ele><time>2026-04-09T11:53:43.001Z</time></trkpt><trkpt lat="44.571957428192356" lon="8.42562665602072"><ele>232.33333333333334</ele><time>2026-04-09T11:53:44.001Z</time></trkpt><trkpt lat="44.57197659558811" lon="8.425420289942764"><ele>231.66666666666669</ele><time>2026-04-09T11:53:45.001Z</time></trkpt><trkpt lat="44.571985532835114" lon="8.425206347965384"><ele>231.0</ele><time>2026-04-09T11:53:46.001Z</time></trkpt><trkpt lat="44.571992055737866" lon="8.424990571259638"><ele>231.0</ele><time>2026-04-09T11:53:47.001Z</time></trkpt><trkpt lat="44.572003402662496" lon="8.424779322900084"><ele>231.0</ele><time>2026-04-09T11:53:48.001Z</time></trkpt><trkpt lat="44.57202853552729" lon="8.424571509884409"><ele>231.0</ele><time>2026-04-09T11:53:49.001Z</time></trkpt><trkpt lat="44.57206694939094" lon="8.424362616391834"><ele>229.66666666666669</ele><time>2026-04-09T11:53:50.001Z</time></trkpt><trkpt lat="44.572114641720255" lon="8.424153206918087"><ele>228.33333333333334</ele><time>2026-04-09T11:53:51.001Z</time></trkpt><trkpt lat="44.572169714130126" lon="8.42394776654952"><ele>227.0</ele><time>2026-04-09T11:53:52.001Z</time></trkpt><trkpt lat="44.57223747017098" lon="8.423753741519295"><ele>227.0</ele><time>2026-04-09T11:53:53.001Z</time></trkpt><trkpt lat="44.572315395927454" lon="8.42357188142179"><ele>227.0</ele><time>2026-04-09T11:53:54.001Z</time></trkpt><trkpt lat="44.57239745059511" lon="8.423395108933462"><ele>227.0</ele><time>2026-04-09T11:53:55.001Z</time></trkpt><trkpt lat="44.57247969676509" lon="8.423219885067322"><ele>227.0</ele><time>2026-04-09T11:53:56.001Z</time></trkpt><trkpt lat="44.57255863160665" lon="8.423047142277207"><ele>227.0</ele><time>2026-04-09T11:53:57.001Z</time></trkpt><trkpt lat="44.57263604106375" lon="8.422863024809143"><ele>227.0</ele><time>2026-04-09T11:53:58.001Z</time></trkpt><trkpt lat="44.572700495274525" lon="8.422669304800138"><ele>225.75</ele><time>2026-04-09T11:53:59.001Z</time></trkpt><trkpt lat="44.57275393658763" lon="8.422466559239973"><ele>224.5</ele><time>2026-04-09T11:54:00.001Z</time></trkpt><trkpt lat="44.57279249836957" lon="8.422266850220597"><ele>223.25</ele><time>2026-04-09T11:54:01.001Z</time></trkpt><trkpt lat="44.57283127281396" lon="8.422075734209567"><ele>222.0</ele><time>2026-04-09T11:54:02.001Z</time></trkpt><trkpt lat="44.57287745910373" lon="8.421888122269596"><ele>222.0</ele><time>2026-04-09T11:54:03.001Z</time></trkpt><trkpt lat="44.57294395921467" lon="8.421716008856288"><ele>222.0</ele><time>2026-04-09T11:54:04.001Z</time></trkpt><trkpt lat="44.57302436122151" lon="8.421564013473168"><ele>222.0</ele><time>2026-04-09T11:54:05.001Z</time></trkpt><trkpt lat="44.57311345759167" lon="8.421432052557604"><ele>222.0</ele><time>2026-04-09T11:54:06.001Z</time></trkpt><trkpt lat="44.57321072380864" lon="8.421309877409758"><ele>222.75</ele><time>2026-04-09T11:54:07.001Z</time></trkpt><trkpt lat="44.57331257064162" lon="8.421199681068453"><ele>223.5</ele><time>2026-04-09T11:54:08.001Z</time></trkpt><trkpt lat="44.573417868820385" lon="8.421091781308228"><ele>224.25</ele><time>2026-04-09T11:54:09.001Z</time></trkpt><trkpt lat="44.573525594102996" lon="8.42098509867429"><ele>225.0</ele><time>2026-04-09T11:54:10.001Z</time></trkpt><trkpt lat="44.57363469724962" lon="8.420876931101951"><ele>224.75</ele><time>2026-04-09T11:54:11.001Z</time></trkpt><trkpt lat="44.5737429997755" lon="8.420762926507155"><ele>224.5</ele><time>2026-04-09T11:54:12.001Z</time></trkpt><trkpt lat="44.57385281781468" lon="8.42064809325358"><ele>224.25</ele><time>2026-04-09T11:54:13.001Z</time></trkpt><trkpt lat="44.5739602617423" lon="8.420532650556865"><ele>224.0</ele><time>2026-04-09T11:54:14.001Z</time></trkpt><trkpt lat="44.57406824755991" lon="8.420418050195687"><ele>224.0</ele><time>2026-04-09T11:54:15.001Z</time></trkpt><trkpt lat="44.57418324684661" lon="8.420308954902367"><ele>224.0</ele><time>2026-04-09T11:54:16.001Z</time></trkpt><trkpt lat="44.57430565281938" lon="8.420201391598082"><ele>224.0</ele><time>2026-04-09T11:54:17.001Z</time></trkpt><trkpt lat="44.57443612224258" lon="8.42009869396803"><ele>224.0</ele><time>2026-04-09T11:54:18.001Z</time></trkpt><trkpt lat="44.57457312968388" lon="8.420001669537983"><ele>229.33333333333334</ele><time>2026-04-09T11:54:19.001Z</time></trkpt><trkpt lat="44.57471310971006" lon="8.419901603660227"><ele>234.66666666666669</ele><time>2026-04-09T11:54:20.001Z</time></trkpt><trkpt lat="44.574853583036266" lon="8.419791704302076"><ele>240.0</ele><time>2026-04-09T11:54:21.001Z</time></trkpt><trkpt lat="44.57499637028065" lon="8.419678641771247"><ele>239.0</ele><time>2026-04-09T11:54:22.001Z</time></trkpt><trkpt lat="44.575137714933014" lon="8.419562041670916"><ele>238.0</ele><time>2026-04-09T11:54:23.001Z</time></trkpt><trkpt lat="44.575276013591825" lon="8.419431675215876"><ele>237.0</ele><time>2026-04-09T11:54:24.001Z</time></trkpt><trkpt lat="44.57540607484323" lon="8.419283986624809"><ele>237.0</ele><time>2026-04-09T11:54:25.001Z</time></trkpt><trkpt lat="44.5755244821546" lon="8.419125618349007"><ele>237.0</ele><time>2026-04-09T11:54:26.001Z</time></trkpt><trkpt lat="44.57563085939392" lon="8.41895390487831"><ele>237.0</ele><time>2026-04-09T11:54:27Z</time></trkpt><trkpt lat="44.57572439186522" lon="8.41876591838741"><ele>233.33333333333331</ele><time>2026-04-09T11:54:28Z</time></trkpt><trkpt lat="44.575809553193096" lon="8.418565604951683"><ele>229.66666666666666</ele><time>2026-04-09T11:54:29Z</time></trkpt><trkpt lat="44.575891564361676" lon="8.418357285485916"><ele>226.0</ele><time>2026-04-09T11:54:30Z</time></trkpt><trkpt lat="44.57597309802434" lon="8.418144366970536"><ele>223.33333333333331</ele><time>2026-04-09T11:54:31Z</time></trkpt><trkpt lat="44.576054176426666" lon="8.417926748969682"><ele>220.66666666666669</ele><time>2026-04-09T11:54:32Z</time></trkpt><trkpt lat="44.57614057302266" lon="8.417706229888529"><ele>218.0</ele><time>2026-04-09T11:54:33Z</time></trkpt><trkpt lat="44.57622837924451" lon="8.417487167920685"><ele>223.66666666666669</ele><time>2026-04-09T11:54:34Z</time></trkpt><trkpt lat="44.57631200663013" lon="8.417271239441973"><ele>229.33333333333331</ele><time>2026-04-09T11:54:35Z</time></trkpt><trkpt lat="44.57639233558281" lon="8.417047750581219"><ele>235.0</ele><time>2026-04-09T11:54:36Z</time></trkpt><trkpt lat="44.57646809315557" lon="8.416819304616487"><ele>235.0</ele><time>2026-04-09T11:54:37Z</time></trkpt><trkpt lat="44.57653286783518" lon="8.416588935251276"><ele>235.0</ele><time>2026-04-09T11:54:38Z</time></trkpt><trkpt lat="44.57659034280331" lon="8.416359999294162"><ele>235.0</ele><time>2026-04-09T11:54:39Z</time></trkpt><trkpt lat="44.576642204041725" lon="8.416130817125532"><ele>230.66666666666666</ele><time>2026-04-09T11:54:40Z</time></trkpt><trkpt lat="44.57669149475089" lon="8.4159036693105"><ele>226.33333333333331</ele><time>2026-04-09T11:54:41Z</time></trkpt><trkpt lat="44.576738702779394" lon="8.415675253007825"><ele>222.0</ele><time>2026-04-09T11:54:42Z</time></trkpt><trkpt lat="44.57678646043806" lon="8.415447800847643"><ele>220.0</ele><time>2026-04-09T11:54:43Z</time></trkpt><trkpt lat="44.57683546010024" lon="8.415217601136973"><ele>218.0</ele><time>2026-04-09T11:54:44Z</time></trkpt><trkpt lat="44.57688890029956" lon="8.414992054993963"><ele>216.0</ele><time>2026-04-09T11:54:45Z</time></trkpt><trkpt lat="44.57695093313304" lon="8.414771131563713"><ele>217.25</ele><time>2026-04-09T11:54:46Z</time></trkpt><trkpt lat="44.57702119454172" lon="8.414563841096193"><ele>218.5</ele><time>2026-04-09T11:54:47Z</time></trkpt><trkpt lat="44.57708742785054" lon="8.41438247246274"><ele>219.75</ele><time>2026-04-09T11:54:48Z</time></trkpt><trkpt lat="44.57715098892475" lon="8.414228114114154"><ele>221.0</ele><time>2026-04-09T11:54:49Z</time></trkpt><trkpt lat="44.57722040502094" lon="8.414089389175956"><ele>221.0</ele><time>2026-04-09T11:54:50Z</time></trkpt><trkpt lat="44.57729730642841" lon="8.413965427158018"><ele>221.0</ele><time>2026-04-09T11:54:51Z</time></trkpt><trkpt lat="44.57739640299971" lon="8.413877214787489"><ele>221.0</ele><time>2026-04-09T11:54:52Z</time></trkpt><trkpt lat="44.57750985758188" lon="8.413811711052212"><ele>221.0</ele><time>2026-04-09T11:54:53Z</time></trkpt><trkpt lat="44.5776365989934" lon="8.413801790199733"><ele>220.5</ele><time>2026-04-09T11:54:54Z</time></trkpt><trkpt lat="44.577770268469145" lon="8.413800664080327"><ele>220.0</ele><time>2026-04-09T11:54:55Z</time></trkpt><trkpt lat="44.577910661175906" lon="8.413800501464548"><ele>219.5</ele><time>2026-04-09T11:54:56Z</time></trkpt><trkpt lat="44.57804061134567" lon="8.413884792345467"><ele>219.0</ele><time>2026-04-09T11:54:57Z</time></trkpt><trkpt lat="44.57817173142534" lon="8.413967853837192"><ele>219.0</ele><time>2026-04-09T11:54:58Z</time></trkpt><trkpt lat="44.57831376090543" lon="8.41405963073987"><ele>219.0</ele><time>2026-04-09T11:54:59Z</time></trkpt><trkpt lat="44.57845608423869" lon="8.414162633386962"><ele>219.0</ele><time>2026-04-09T11:55:00Z</time></trkpt><trkpt lat="44.578606611224444" lon="8.414258794064088"><ele>216.0</ele><time>2026-04-09T11:55:01Z</time></trkpt><trkpt lat="44.57876493511283" lon="8.414332975997999"><ele>213.0</ele><time>2026-04-09T11:55:02Z</time></trkpt><trkpt lat="44.5789208270472" lon="8.41442679832347"><ele>210.0</ele><time>2026-04-09T11:55:03Z</time></trkpt><trkpt lat="44.57907507316411" lon="8.414528009408127"><ele>210.0</ele><time>2026-04-09T11:55:04Z</time></trkpt><trkpt lat="44.57922539464389" lon="8.414638448181455"><ele>210.0</ele><time>2026-04-09T11:55:05Z</time></trkpt><trkpt lat="44.57937043923573" lon="8.414751598027069"><ele>210.0</ele><time>2026-04-09T11:55:06Z</time></trkpt><trkpt lat="44.57951981988225" lon="8.414855919616501"><ele>212.33333333333331</ele><time>2026-04-09T11:55:07Z</time></trkpt><trkpt lat="44.57967686431437" lon="8.414948891333362"><ele>214.66666666666666</ele><time>2026-04-09T11:55:08Z</time></trkpt><trkpt lat="44.57983892776068" lon="8.415036680393039"><ele>217.0</ele><time>2026-04-09T11:55:09Z</time></trkpt><trkpt lat="44.58000422993016" lon="8.415119236044209"><ele>217.0</ele><time>2026-04-09T11:55:10Z</time></trkpt><trkpt lat="44.58017447429638" lon="8.415196486292507"><ele>217.0</ele><time>2026-04-09T11:55:11Z</time></trkpt><trkpt lat="44.58034527989043" lon="8.415271681317629"><ele>217.0</ele><time>2026-04-09T11:55:12Z</time></trkpt><trkpt lat="44.58051997829142" lon="8.415343294333745"><ele>213.66666666666666</ele><time>2026-04-09T11:55:13Z</time></trkpt><trkpt lat="44.580699343531016" lon="8.41540593535068"><ele>210.33333333333331</ele><time>2026-04-09T11:55:14Z</time></trkpt><trkpt lat="44.58087607089254" lon="8.415473916872974"><ele>207.0</ele><time>2026-04-09T11:55:15Z</time></trkpt><trkpt lat="44.581061588584404" lon="8.415472585348512"><ele>207.33333333333331</ele><time>2026-04-09T11:55:16Z</time></trkpt><trkpt lat="44.58124799668337" lon="8.415465399521251"><ele>207.66666666666666</ele><time>2026-04-09T11:55:17Z</time></trkpt><trkpt lat="44.58143371628478" lon="8.41543358100224"><ele>208.0</ele><time>2026-04-09T11:55:18Z</time></trkpt><trkpt lat="44.58162106194415" lon="8.415397592031054"><ele>208.0</ele><time>2026-04-09T11:55:19Z</time></trkpt><trkpt lat="44.58181491839072" lon="8.415364085104644"><ele>208.0</ele><time>2026-04-09T11:55:20Z</time></trkpt><trkpt lat="44.58201137690211" lon="8.415332836604227"><ele>208.0</ele><time>2026-04-09T11:55:21.001Z</time></trkpt><trkpt lat="44.582204907574805" lon="8.415302417165094"><ele>209.0</ele><time>2026-04-09T11:55:22.001Z</time></trkpt><trkpt lat="44.582388588409714" lon="8.415274306704488"><ele>210.0</ele><time>2026-04-09T11:55:23.001Z</time></trkpt><trkpt lat="44.58256331266003" lon="8.415245378582382"><ele>211.0</ele><time>2026-04-09T11:55:24.001Z</time></trkpt><trkpt lat="44.58273222800985" lon="8.41521238177556"><ele>214.0</ele><time>2026-04-09T11:55:25.001Z</time></trkpt><trkpt lat="44.582885241495724" lon="8.41517263922482"><ele>217.0</ele><time>2026-04-09T11:55:26.001Z</time></trkpt><trkpt lat="44.583027688917284" lon="8.415109597370263"><ele>220.0</ele><time>2026-04-09T11:55:27.001Z</time></trkpt><trkpt lat="44.58316236855468" lon="8.415004376454132"><ele>220.0</ele><time>2026-04-09T11:55:28.001Z</time></trkpt><trkpt lat="44.58328406961418" lon="8.414870277981567"><ele>220.0</ele><time>2026-04-09T11:55:29.001Z</time></trkpt><trkpt lat="44.58340655039415" lon="8.414731187687181"><ele>220.0</ele><time>2026-04-09T11:55:30.001Z</time></trkpt><trkpt lat="44.583536784164494" lon="8.414607099590834"><ele>217.0</ele><time>2026-04-09T11:55:31.001Z</time></trkpt><trkpt lat="44.58368367313379" lon="8.41452746370751"><ele>214.0</ele><time>2026-04-09T11:55:32.001Z</time></trkpt><trkpt lat="44.583821346894" lon="8.414415631607923"><ele>211.0</ele><time>2026-04-09T11:55:33.001Z</time></trkpt><trkpt lat="44.583967002508984" lon="8.41432867249284"><ele>211.0</ele><time>2026-04-09T11:55:34.001Z</time></trkpt><trkpt lat="44.584108138432704" lon="8.414240249781825"><ele>211.0</ele><time>2026-04-09T11:55:35.001Z</time></trkpt><trkpt lat="44.58425391741725" lon="8.41416374648935"><ele>211.0</ele><time>2026-04-09T11:55:36.001Z</time></trkpt><trkpt lat="44.58440851951375" lon="8.414105238102659"><ele>212.33333333333331</ele><time>2026-04-09T11:55:37.001Z</time></trkpt><trkpt lat="44.584564745505844" lon="8.414053472392213"><ele>213.66666666666669</ele><time>2026-04-09T11:55:38.001Z</time></trkpt><trkpt lat="44.584721696667614" lon="8.414001573617254"><ele>215.0</ele><time>2026-04-09T11:55:39.001Z</time></trkpt><trkpt lat="44.584878555349015" lon="8.413953690764654"><ele>215.0</ele><time>2026-04-09T11:55:40.001Z</time></trkpt><trkpt lat="44.58503794107284" lon="8.413915185566967"><ele>215.0</ele><time>2026-04-09T11:55:41.001Z</time></trkpt><trkpt lat="44.585202003156084" lon="8.413898572949549"><ele>215.0</ele><time>2026-04-09T11:55:42.001Z</time></trkpt><trkpt lat="44.58537099137625" lon="8.413897277538627"><ele>213.66666666666669</ele><time>2026-04-09T11:55:43.001Z</time></trkpt><trkpt lat="44.58554464824365" lon="8.413902437395434"><ele>212.33333333333331</ele><time>2026-04-09T11:55:44.001Z</time></trkpt><trkpt lat="44.58572161152273" lon="8.413911131823939"><ele>211.0</ele><time>2026-04-09T11:55:45.001Z</time></trkpt><trkpt lat="44.58589846144724" lon="8.4139237619857"><ele>211.0</ele><time>2026-04-09T11:55:46.001Z</time></trkpt><trkpt lat="44.586069649565964" lon="8.413934745592194"><ele>211.0</ele><time>2026-04-09T11:55:47.001Z</time></trkpt><trkpt lat="44.58623436737978" lon="8.413942631542628"><ele>211.0</ele><time>2026-04-09T11:55:48.001Z</time></trkpt><trkpt lat="44.58639507624277" lon="8.413977885662177"><ele>210.33333333333331</ele><time>2026-04-09T11:55:49.001Z</time></trkpt><trkpt lat="44.586545614532064" lon="8.414055892879196"><ele>209.66666666666669</ele><time>2026-04-09T11:55:50.001Z</time></trkpt><trkpt lat="44.58668571097433" lon="8.414172278931122"><ele>209.0</ele><time>2026-04-09T11:55:51.001Z</time></trkpt><trkpt lat="44.58681916815885" lon="8.414311249968648"><ele>209.0</ele><time>2026-04-09T11:55:52.001Z</time></trkpt><trkpt lat="44.58695134686923" lon="8.41445729752592"><ele>209.0</ele><time>2026-04-09T11:55:53.001Z</time></trkpt><trkpt lat="44.58708556380834" lon="8.414602465092175"><ele>209.0</ele><time>2026-04-09T11:55:54.001Z</time></trkpt><trkpt lat="44.58722733862846" lon="8.41473631201179"><ele>211.66666666666669</ele><time>2026-04-09T11:55:55.001Z</time></trkpt><trkpt lat="44.587378599152515" lon="8.414856304049271"><ele>214.33333333333331</ele><time>2026-04-09T11:55:56.001Z</time></trkpt><trkpt lat="44.58753875631837" lon="8.41496340644014"><ele>217.0</ele><time>2026-04-09T11:55:57.001Z</time></trkpt><trkpt lat="44.587707197515485" lon="8.415059652482215"><ele>212.66666666666666</ele><time>2026-04-09T11:55:58.001Z</time></trkpt><trkpt lat="44.58788159331626" lon="8.415145053660947"><ele>208.33333333333331</ele><time>2026-04-09T11:55:59.001Z</time></trkpt><trkpt lat="44.58806025193748" lon="8.415214071188585"><ele>204.0</ele><time>2026-04-09T11:56:00.001Z</time></trkpt><trkpt lat="44.588243078868835" lon="8.415261675362661"><ele>204.0</ele><time>2026-04-09T11:56:01.001Z</time></trkpt><trkpt lat="44.588429547566676" lon="8.415296812432342"><ele>204.0</ele><time>2026-04-09T11:56:02.001Z</time></trkpt><trkpt lat="44.58861740355463" lon="8.41534050115229"><ele>204.0</ele><time>2026-04-09T11:56:03.001Z</time></trkpt><trkpt lat="44.588794805098146" lon="8.41540654332023"><ele>203.66666666666669</ele><time>2026-04-09T11:56:04.001Z</time></trkpt><trkpt lat="44.58897458614481" lon="8.41548321568551"><ele>203.33333333333334</ele><time>2026-04-09T11:56:05.001Z</time></trkpt><trkpt lat="44.589154214557965" lon="8.415565958322109"><ele>203.0</ele><time>2026-04-09T11:56:06.001Z</time></trkpt><trkpt lat="44.58933477682214" lon="8.415648570052669"><ele>204.66666666666669</ele><time>2026-04-09T11:56:07.001Z</time></trkpt><trkpt lat="44.58951719734576" lon="8.415726914295414"><ele>206.33333333333331</ele><time>2026-04-09T11:56:08.001Z</time></trkpt><trkpt lat="44.58969638962556" lon="8.415826900483065"><ele>208.0</ele><time>2026-04-09T11:56:09.001Z</time></trkpt><trkpt lat="44.58987891631582" lon="8.415909777996152"><ele>208.0</ele><time>2026-04-09T11:56:10.001Z</time></trkpt><trkpt lat="44.59006054006258" lon="8.415992245520762"><ele>208.0</ele><time>2026-04-09T11:56:11.001Z</time></trkpt><trkpt lat="44.590240182609385" lon="8.416073813474645"><ele>208.0</ele><time>2026-04-09T11:56:12.001Z</time></trkpt><trkpt lat="44.59041189275878" lon="8.416151779660913"><ele>210.0</ele><time>2026-04-09T11:56:13.001Z</time></trkpt><trkpt lat="44.59058566333406" lon="8.416208850316115"><ele>212.0</ele><time>2026-04-09T11:56:14.001Z</time></trkpt><trkpt lat="44.5907495883465" lon="8.416288884376423"><ele>214.0</ele><time>2026-04-09T11:56:15.001Z</time></trkpt><trkpt lat="44.590911291788466" lon="8.416370306115214"><ele>214.0</ele><time>2026-04-09T11:56:16.001Z</time></trkpt><trkpt lat="44.59106808988498" lon="8.416444038299003"><ele>214.0</ele><time>2026-04-09T11:56:17.001Z</time></trkpt><trkpt lat="44.591218762025726" lon="8.416513084445663"><ele>214.0</ele><time>2026-04-09T11:56:18.001Z</time></trkpt><trkpt lat="44.59136627897554" lon="8.416582978873745"><ele>210.0</ele><time>2026-04-09T11:56:19.001Z</time></trkpt><trkpt lat="44.59151658695381" lon="8.416653678626215"><ele>206.0</ele><time>2026-04-09T11:56:20.001Z</time></trkpt><trkpt lat="44.59167140095482" lon="8.416722216560151"><ele>202.0</ele><time>2026-04-09T11:56:21.001Z</time></trkpt><trkpt lat="44.59182889781206" lon="8.416791784458987"><ele>202.0</ele><time>2026-04-09T11:56:22.001Z</time></trkpt><trkpt lat="44.591989053939834" lon="8.416858004945322"><ele>202.0</ele><time>2026-04-09T11:56:23.001Z</time></trkpt><trkpt lat="44.59215116601205" lon="8.416916967607282"><ele>202.0</ele><time>2026-04-09T11:56:24.001Z</time></trkpt><trkpt lat="44.592318387896746" lon="8.416969981244794"><ele>200.33333333333331</ele><time>2026-04-09T11:56:25.001Z</time></trkpt><trkpt lat="44.59248918490491" lon="8.417018173156109"><ele>198.66666666666669</ele><time>2026-04-09T11:56:26.001Z</time></trkpt><trkpt lat="44.59266300136175" lon="8.417060491264701"><ele>197.0</ele><time>2026-04-09T11:56:27.001Z</time></trkpt><trkpt lat="44.59283894577061" lon="8.41709574154188"><ele>196.33333333333334</ele><time>2026-04-09T11:56:28.001Z</time></trkpt><trkpt lat="44.5930169479453" lon="8.417129946683023"><ele>195.66666666666669</ele><time>2026-04-09T11:56:29.001Z</time></trkpt><trkpt lat="44.593197252905135" lon="8.41716831596361"><ele>195.0</ele><time>2026-04-09T11:56:30.001Z</time></trkpt><trkpt lat="44.593377843474116" lon="8.417210355927677"><ele>197.0</ele><time>2026-04-09T11:56:31.001Z</time></trkpt><trkpt lat="44.593552297884706" lon="8.417251964511685"><ele>199.0</ele><time>2026-04-09T11:56:32.001Z</time></trkpt><trkpt lat="44.59371619263899" lon="8.417290617847028"><ele>201.0</ele><time>2026-04-09T11:56:33Z</time></trkpt><trkpt lat="44.59387228373973" lon="8.417322252581947"><ele>201.0</ele><time>2026-04-09T11:56:34Z</time></trkpt><trkpt lat="44.59402078489772" lon="8.417352373627516"><ele>201.0</ele><time>2026-04-09T11:56:35Z</time></trkpt><trkpt lat="44.59416067202982" lon="8.417384951049888"><ele>201.0</ele><time>2026-04-09T11:56:36Z</time></trkpt><trkpt lat="44.59429213140793" lon="8.417414671425592"><ele>201.0</ele><time>2026-04-09T11:56:37Z</time></trkpt><trkpt lat="44.59441742415445" lon="8.4174405964789"><ele>200.4</ele><time>2026-04-09T11:56:38Z</time></trkpt><trkpt lat="44.59453538746461" lon="8.417466794473746"><ele>199.8</ele><time>2026-04-09T11:56:39Z</time></trkpt><trkpt lat="44.59464806584541" lon="8.417485468542697"><ele>199.20000000000002</ele><time>2026-04-09T11:56:40Z</time></trkpt><trkpt lat="44.59475362816487" lon="8.41751066732794"><ele>198.60000000000002</ele><time>2026-04-09T11:56:41Z</time></trkpt><trkpt lat="44.59485830971778" lon="8.41753786382235"><ele>198.0</ele><time>2026-04-09T11:56:42Z</time></trkpt><trkpt lat="44.59497143231656" lon="8.417562344301833"><ele>198.0</ele><time>2026-04-09T11:56:43Z</time></trkpt><trkpt lat="44.59508927697995" lon="8.417579769980776"><ele>198.0</ele><time>2026-04-09T11:56:44Z</time></trkpt><trkpt lat="44.59521257493533" lon="8.417596847821265"><ele>198.0</ele><time>2026-04-09T11:56:45Z</time></trkpt><trkpt lat="44.595336208307764" lon="8.417627144418665"><ele>198.0</ele><time>2026-04-09T11:56:46Z</time></trkpt><trkpt lat="44.5954610230327" lon="8.417649780392436"><ele>198.25</ele><time>2026-04-09T11:56:47Z</time></trkpt><trkpt lat="44.59558872123216" lon="8.417677119184228"><ele>198.5</ele><time>2026-04-09T11:56:48Z</time></trkpt><trkpt lat="44.59571563449107" lon="8.417708909574326"><ele>198.75</ele><time>2026-04-09T11:56:49Z</time></trkpt><trkpt lat="44.59583979899221" lon="8.417734918921"><ele>199.0</ele><time>2026-04-09T11:56:50Z</time></trkpt><trkpt lat="44.59596022243764" lon="8.417764924232324"><ele>199.0</ele><time>2026-04-09T11:56:51Z</time></trkpt><trkpt lat="44.59607809524267" lon="8.417785358456852"><ele>199.0</ele><time>2026-04-09T11:56:52Z</time></trkpt><trkpt lat="44.596189034267596" lon="8.417808242198344"><ele>199.0</ele><time>2026-04-09T11:56:53Z</time></trkpt><trkpt lat="44.5962950568368" lon="8.417832866280767"><ele>199.0</ele><time>2026-04-09T11:56:54Z</time></trkpt><trkpt lat="44.59640368207442" lon="8.417856583802337"><ele>199.0</ele><time>2026-04-09T11:56:55Z</time></trkpt><trkpt lat="44.59651323143831" lon="8.417873498885221"><ele>199.0</ele><time>2026-04-09T11:56:56Z</time></trkpt><trkpt lat="44.59662610550476" lon="8.417888071445285"><ele>199.0</ele><time>2026-04-09T11:56:57Z</time></trkpt><trkpt lat="44.596742244535626" lon="8.41791293112031"><ele>199.0</ele><time>2026-04-09T11:56:58Z</time></trkpt><trkpt lat="44.59685875509784" lon="8.417934993645419"><ele>199.0</ele><time>2026-04-09T11:56:59Z</time></trkpt><trkpt lat="44.59697586990069" lon="8.417960724607628"><ele>201.0</ele><time>2026-04-09T11:57:00Z</time></trkpt><trkpt lat="44.597090116187026" lon="8.41798694956754"><ele>203.0</ele><time>2026-04-09T11:57:01Z</time></trkpt><trkpt lat="44.59720547170362" lon="8.418015560597112"><ele>205.0</ele><time>2026-04-09T11:57:02Z</time></trkpt><trkpt lat="44.597314375236174" lon="8.418047013469387"><ele>207.0</ele><time>2026-04-09T11:57:03Z</time></trkpt><trkpt lat="44.59741708028196" lon="8.418063877253507"><ele>209.0</ele><time>2026-04-09T11:57:04Z</time></trkpt><trkpt lat="44.597517934291815" lon="8.418060416179534"><ele>209.0</ele><time>2026-04-09T11:57:05Z</time></trkpt><trkpt lat="44.59762269316882" lon="8.418031232670865"><ele>209.0</ele><time>2026-04-09T11:57:06Z</time></trkpt><trkpt lat="44.597729848416556" lon="8.417992498966726"><ele>209.0</ele><time>2026-04-09T11:57:07Z</time></trkpt><trkpt lat="44.597835492895626" lon="8.417952365997362"><ele>209.0</ele><time>2026-04-09T11:57:08Z</time></trkpt><trkpt lat="44.59794214240598" lon="8.417925021373044"><ele>209.0</ele><time>2026-04-09T11:57:09Z</time></trkpt><trkpt lat="44.59804836452071" lon="8.41791936383869"><ele>207.79999999999998</ele><time>2026-04-09T11:57:10Z</time></trkpt><trkpt lat="44.59815416644307" lon="8.417929405390678"><ele>206.6</ele><time>2026-04-09T11:57:11Z</time></trkpt><trkpt lat="44.59826107004431" lon="8.41794307588892"><ele>205.4</ele><time>2026-04-09T11:57:12Z</time></trkpt><trkpt lat="44.59836319491228" lon="8.417963214015552"><ele>204.2</ele><time>2026-04-09T11:57:13Z</time></trkpt><trkpt lat="44.59846579123087" lon="8.417990266001462"><ele>203.0</ele><time>2026-04-09T11:57:14Z</time></trkpt><trkpt lat="44.59856309137086" lon="8.418021089161192"><ele>203.0</ele><time>2026-04-09T11:57:15Z</time></trkpt><trkpt lat="44.59865379541154" lon="8.41805331787291"><ele>203.0</ele><time>2026-04-09T11:57:16Z</time></trkpt><trkpt lat="44.598734263581356" lon="8.418092893424905"><ele>203.0</ele><time>2026-04-09T11:57:17Z</time></trkpt><trkpt lat="44.598817074579294" lon="8.418130644475259"><ele>203.0</ele><time>2026-04-09T11:57:18Z</time></trkpt><trkpt lat="44.598903492371434" lon="8.418180397764345"><ele>203.0</ele><time>2026-04-09T11:57:19Z</time></trkpt><trkpt lat="44.59899757328548" lon="8.418241975710963"><ele>201.60000000000002</ele><time>2026-04-09T11:57:20Z</time></trkpt><trkpt lat="44.59909340019081" lon="8.418310370050916"><ele>200.20000000000002</ele><time>2026-04-09T11:57:21Z</time></trkpt><trkpt lat="44.5991880978397" lon="8.41838576726283"><ele>198.8</ele><time>2026-04-09T11:57:22Z</time></trkpt><trkpt lat="44.59927546250919" lon="8.418457968143755"><ele>197.4</ele><time>2026-04-09T11:57:23Z</time></trkpt><trkpt lat="44.599358049668844" lon="8.418526060516161"><ele>196.0</ele><time>2026-04-09T11:57:24Z</time></trkpt><trkpt lat="44.59943251837875" lon="8.418584652212788"><ele>195.33333333333331</ele><time>2026-04-09T11:57:25Z</time></trkpt><trkpt lat="44.59950247688878" lon="8.418635513357058"><ele>194.66666666666666</ele><time>2026-04-09T11:57:26Z</time></trkpt><trkpt lat="44.59956402197348" lon="8.418681518457381"><ele>194.0</ele><time>2026-04-09T11:57:27Z</time></trkpt><trkpt lat="44.59965100421216" lon="8.418758859599151"><ele>193.33333333333331</ele><time>2026-04-09T11:57:29Z</time></trkpt><trkpt lat="44.599729473564665" lon="8.418803047284383"><ele>192.66666666666666</ele><time>2026-04-09T11:58:06.001Z</time></trkpt><trkpt lat="44.59983284412194" lon="8.4188373199881"><ele>192.0</ele><time>2026-04-09T11:58:08.001Z</time></trkpt><trkpt lat="44.599906178919284" lon="8.418901085989294"><ele>193.6</ele><time>2026-04-09T11:58:09.001Z</time></trkpt><trkpt lat="44.599999376969905" lon="8.418931922603516"><ele>195.2</ele><time>2026-04-09T11:58:10.001Z</time></trkpt><trkpt lat="44.600089612405945" lon="8.41898442412745"><ele>196.8</ele><time>2026-04-09T11:58:11.001Z</time></trkpt><trkpt lat="44.60018920056286" lon="8.419040430414213"><ele>198.4</ele><time>2026-04-09T11:58:12.001Z</time></trkpt><trkpt lat="44.6003022002595" lon="8.419091346605615"><ele>200.0</ele><time>2026-04-09T11:58:13.001Z</time></trkpt><trkpt lat="44.60041894405446" lon="8.419141027085997"><ele>200.25</ele><time>2026-04-09T11:58:14.001Z</time></trkpt><trkpt lat="44.600534167624744" lon="8.419185872065695"><ele>200.5</ele><time>2026-04-09T11:58:15.001Z</time></trkpt><trkpt lat="44.60065585005705" lon="8.419230233861123"><ele>200.75</ele><time>2026-04-09T11:58:16.001Z</time></trkpt><trkpt lat="44.600785669552955" lon="8.419269568397807"><ele>201.0</ele><time>2026-04-09T11:58:17.001Z</time></trkpt><trkpt lat="44.60091933378827" lon="8.41931173800314"><ele>201.0</ele><time>2026-04-09T11:58:18.001Z</time></trkpt><trkpt lat="44.60105647340464" lon="8.41935083119055"><ele>201.0</ele><time>2026-04-09T11:58:19.001Z</time></trkpt><trkpt lat="44.60119692976481" lon="8.419383442399782"><ele>201.0</ele><time>2026-04-09T11:58:20.001Z</time></trkpt><trkpt lat="44.601339483679325" lon="8.419412025130683"><ele>201.0</ele><time>2026-04-09T11:58:21.001Z</time></trkpt><trkpt lat="44.60148325695372" lon="8.419445114802553"><ele>199.66666666666669</ele><time>2026-04-09T11:58:22.001Z</time></trkpt><trkpt lat="44.60162699018518" lon="8.419493756285615"><ele>198.33333333333334</ele><time>2026-04-09T11:58:23.001Z</time></trkpt><trkpt lat="44.60177173974154" lon="8.419552855234432"><ele>197.0</ele><time>2026-04-09T11:58:24.001Z</time></trkpt><trkpt lat="44.60191400591083" lon="8.419639457039777"><ele>198.66666666666669</ele><time>2026-04-09T11:58:25.001Z</time></trkpt><trkpt lat="44.60206833320375" lon="8.419696759359592"><ele>200.33333333333331</ele><time>2026-04-09T11:58:26.001Z</time></trkpt><trkpt lat="44.602223400962146" lon="8.41974842239141"><ele>202.0</ele><time>2026-04-09T11:58:27.001Z</time></trkpt><trkpt lat="44.60238024282527" lon="8.419800676509785"><ele>202.0</ele><time>2026-04-09T11:58:28.001Z</time></trkpt><trkpt lat="44.602538248779545" lon="8.419830189104227"><ele>202.0</ele><time>2026-04-09T11:58:29.001Z</time></trkpt><trkpt lat="44.60268146674257" lon="8.419885893530576"><ele>202.0</ele><time>2026-04-09T11:58:30.001Z</time></trkpt><trkpt lat="44.602815196490624" lon="8.419939392101718"><ele>202.0</ele><time>2026-04-09T11:58:31.001Z</time></trkpt><trkpt lat="44.60293756564937" lon="8.419988685964878"><ele>201.75</ele><time>2026-04-09T11:58:32.001Z</time></trkpt><trkpt lat="44.603050296254175" lon="8.420028304575007"><ele>201.5</ele><time>2026-04-09T11:58:33.001Z</time></trkpt><trkpt lat="44.603160450051895" lon="8.420025028108487"><ele>201.25</ele><time>2026-04-09T11:58:34.001Z</time></trkpt><trkpt lat="44.60327439126564" lon="8.419977385427336"><ele>201.0</ele><time>2026-04-09T11:58:35.001Z</time></trkpt><trkpt lat="44.60338630317351" lon="8.419904467186226"><ele>201.0</ele><time>2026-04-09T11:58:36.001Z</time></trkpt><trkpt lat="44.603498849441486" lon="8.41981297054444"><ele>201.0</ele><time>2026-04-09T11:58:37.001Z</time></trkpt><trkpt lat="44.603612998956116" lon="8.419707952294472"><ele>201.0</ele><time>2026-04-09T11:58:38.001Z</time></trkpt><trkpt lat="44.60372578238172" lon="8.419592816438248"><ele>201.0</ele><time>2026-04-09T11:58:39Z</time></trkpt><trkpt lat="44.603843275816146" lon="8.419474464728049"><ele>200.33333333333331</ele><time>2026-04-09T11:58:40Z</time></trkpt><trkpt lat="44.60396604072062" lon="8.419355091654026"><ele>199.66666666666666</ele><time>2026-04-09T11:58:41Z</time></trkpt><trkpt lat="44.60409475100046" lon="8.419234214489036"><ele>199.0</ele><time>2026-04-09T11:58:42Z</time></trkpt><trkpt lat="44.60422471142857" lon="8.419110020799552"><ele>199.0</ele><time>2026-04-09T11:58:43Z</time></trkpt><trkpt lat="44.60435213517965" lon="8.418978702518269"><ele>199.0</ele><time>2026-04-09T11:58:44Z</time></trkpt><trkpt lat="44.6044795019644" lon="8.41884560152522"><ele>199.0</ele><time>2026-04-09T11:58:45Z</time></trkpt><trkpt lat="44.60460794116288" lon="8.418713803099589"><ele>199.33333333333331</ele><time>2026-04-09T11:58:46Z</time></trkpt><trkpt lat="44.60473647867162" lon="8.418583505489115"><ele>199.66666666666669</ele><time>2026-04-09T11:58:47Z</time></trkpt><trkpt lat="44.604866362112745" lon="8.418456184910664"><ele>200.0</ele><time>2026-04-09T11:58:48Z</time></trkpt><trkpt lat="44.60499599342176" lon="8.418330270046784"><ele>200.0</ele><time>2026-04-09T11:58:49Z</time></trkpt><trkpt lat="44.60512482644438" lon="8.418207357579465"><ele>200.0</ele><time>2026-04-09T11:58:50Z</time></trkpt><trkpt lat="44.60525426792793" lon="8.41808749334376"><ele>200.0</ele><time>2026-04-09T11:58:51Z</time></trkpt><trkpt lat="44.60538773100743" lon="8.417977039811245"><ele>200.5</ele><time>2026-04-09T11:58:52Z</time></trkpt><trkpt lat="44.605522159001644" lon="8.417877601746303"><ele>201.0</ele><time>2026-04-09T11:58:53Z</time></trkpt><trkpt lat="44.60565595410639" lon="8.41778680298883"><ele>201.5</ele><time>2026-04-09T11:58:54Z</time></trkpt><trkpt lat="44.6057879852321" lon="8.4177012492264"><ele>202.0</ele><time>2026-04-09T11:58:55Z</time></trkpt><trkpt lat="44.60591767416531" lon="8.417621284793388"><ele>202.0</ele><time>2026-04-09T11:58:56Z</time></trkpt><trkpt lat="44.60604445038111" lon="8.417538278798107"><ele>202.0</ele><time>2026-04-09T11:58:57Z</time></trkpt><trkpt lat="44.60617308893543" lon="8.417453058672631"><ele>202.0</ele><time>2026-04-09T11:58:58Z</time></trkpt><trkpt lat="44.60630491048007" lon="8.41736206780027"><ele>202.0</ele><time>2026-04-09T11:58:59Z</time></trkpt><trkpt lat="44.60643798718277" lon="8.417267998043604"><ele>202.0</ele><time>2026-04-09T11:59:00Z</time></trkpt><trkpt lat="44.60657482172948" lon="8.417176028032573"><ele>202.0</ele><time>2026-04-09T11:59:01Z</time></trkpt><trkpt lat="44.60671280281193" lon="8.417089857975439"><ele>202.0</ele><time>2026-04-09T11:59:02Z</time></trkpt><trkpt lat="44.606847290999866" lon="8.417007356652881"><ele>202.0</ele><time>2026-04-09T11:59:03Z</time></trkpt><trkpt lat="44.606975313349636" lon="8.416925277960821"><ele>202.39999999999998</ele><time>2026-04-09T11:59:04Z</time></trkpt><trkpt lat="44.60709205006516" lon="8.416851362822719"><ele>202.79999999999998</ele><time>2026-04-09T11:59:05Z</time></trkpt><trkpt lat="44.60719600069755" lon="8.416793965087477"><ele>203.2</ele><time>2026-04-09T11:59:06Z</time></trkpt><trkpt lat="44.60728140008451" lon="8.416762139587956"><ele>203.6</ele><time>2026-04-09T11:59:07Z</time></trkpt><trkpt lat="44.60735306860895" lon="8.416735321271155"><ele>204.0</ele><time>2026-04-09T11:59:08Z</time></trkpt><trkpt lat="44.607439768186765" lon="8.416721734376111"><ele>204.0</ele><time>2026-04-09T11:59:10Z</time></trkpt><trkpt lat="44.60746731869704" lon="8.4164895468618"><ele>204.0</ele><time>2026-04-09T11:59:13Z</time></trkpt><trkpt lat="44.60747284102286" lon="8.416385599075651"><ele>204.0</ele><time>2026-04-09T11:59:14Z</time></trkpt><trkpt lat="44.607489518403014" lon="8.41626919623449"><ele>204.0</ele><time>2026-04-09T11:59:15Z</time></trkpt><trkpt lat="44.60750964354526" lon="8.416139121219187"><ele>204.0</ele><time>2026-04-09T11:59:16Z</time></trkpt><trkpt lat="44.607531660481946" lon="8.415995242475285"><ele>203.79999999999998</ele><time>2026-04-09T11:59:17Z</time></trkpt><trkpt lat="44.607547126550145" lon="8.415846003255382"><ele>203.6</ele><time>2026-04-09T11:59:18Z</time></trkpt><trkpt lat="44.60754762697802" lon="8.415695204121974"><ele>203.4</ele><time>2026-04-09T11:59:19Z</time></trkpt><trkpt lat="44.60754776481223" lon="8.41554388425719"><ele>203.2</ele><time>2026-04-09T11:59:20Z</time></trkpt><trkpt lat="44.60755431351002" lon="8.415394596842287"><ele>203.0</ele><time>2026-04-09T11:59:21Z</time></trkpt><trkpt lat="44.60757557376657" lon="8.415252018098696"><ele>202.0</ele><time>2026-04-09T11:59:22Z</time></trkpt><trkpt lat="44.60761463407174" lon="8.415114451972059"><ele>201.0</ele><time>2026-04-09T11:59:23Z</time></trkpt><trkpt lat="44.60766530962993" lon="8.414970495154947"><ele>200.0</ele><time>2026-04-09T11:59:24Z</time></trkpt><trkpt lat="44.60772916354222" lon="8.414821707833582"><ele>199.0</ele><time>2026-04-09T11:59:25Z</time></trkpt><trkpt lat="44.60778707328242" lon="8.414670421989074"><ele>198.75</ele><time>2026-04-09T11:59:26Z</time></trkpt><trkpt lat="44.60786511838488" lon="8.414530739255316"><ele>198.5</ele><time>2026-04-09T11:59:27Z</time></trkpt><trkpt lat="44.60793125525216" lon="8.414368069383732"><ele>198.25</ele><time>2026-04-09T11:59:28Z</time></trkpt><trkpt lat="44.60799051663205" lon="8.414197586499283"><ele>198.0</ele><time>2026-04-09T11:59:29Z</time></trkpt><trkpt lat="44.608055932661344" lon="8.414030679142474"><ele>198.0</ele><time>2026-04-09T11:59:30Z</time></trkpt><trkpt lat="44.60812394282988" lon="8.413866427530559"><ele>198.0</ele><time>2026-04-09T11:59:31Z</time></trkpt><trkpt lat="44.60819377132471" lon="8.413706103674473"><ele>198.0</ele><time>2026-04-09T11:59:32Z</time></trkpt><trkpt lat="44.60826216832192" lon="8.413544233999039"><ele>198.0</ele><time>2026-04-09T11:59:33Z</time></trkpt><trkpt lat="44.608322932302954" lon="8.41337814363674"><ele>197.5</ele><time>2026-04-09T11:59:34Z</time></trkpt><trkpt lat="44.60836971451468" lon="8.413209926997704"><ele>197.0</ele><time>2026-04-09T11:59:35Z</time></trkpt><trkpt lat="44.60840965786465" lon="8.413042552064468"><ele>196.5</ele><time>2026-04-09T11:59:36Z</time></trkpt><trkpt lat="44.608452492844556" lon="8.412877773158442"><ele>196.0</ele><time>2026-04-09T11:59:37Z</time></trkpt><trkpt lat="44.60850855902125" lon="8.412718320861162"><ele>196.25</ele><time>2026-04-09T11:59:38Z</time></trkpt><trkpt lat="44.60858052758384" lon="8.412570866168027"><ele>196.5</ele><time>2026-04-09T11:59:39Z</time></trkpt><trkpt lat="44.60866088449395" lon="8.412434511638818"><ele>196.75</ele><time>2026-04-09T11:59:40Z</time></trkpt><trkpt lat="44.6087457120395" lon="8.41229725343498"><ele>197.0</ele><time>2026-04-09T11:59:41Z</time></trkpt><trkpt lat="44.60881966975815" lon="8.412165865827891"><ele>196.0</ele><time>2026-04-09T11:59:42Z</time></trkpt><trkpt lat="44.60887841722163" lon="8.412032846529085"><ele>195.0</ele><time>2026-04-09T11:59:43Z</time></trkpt><trkpt lat="44.608936973109515" lon="8.411889354871878"><ele>194.0</ele><time>2026-04-09T11:59:44.001Z</time></trkpt><trkpt lat="44.60900365662244" lon="8.411750610515087"><ele>193.0</ele><time>2026-04-09T11:59:45.001Z</time></trkpt><trkpt lat="44.609096916953995" lon="8.411628276578611"><ele>193.0</ele><time>2026-04-09T11:59:46.001Z</time></trkpt><trkpt lat="44.60921934946343" lon="8.411540760859083"><ele>193.0</ele><time>2026-04-09T11:59:47.001Z</time></trkpt><trkpt lat="44.60932835262881" lon="8.411420542940546"><ele>193.0</ele><time>2026-04-09T11:59:48.001Z</time></trkpt><trkpt lat="44.60943986704434" lon="8.411332612185255"><ele>193.0</ele><time>2026-04-09T11:59:49.001Z</time></trkpt><trkpt lat="44.6095467832397" lon="8.411246688395636"><ele>193.2</ele><time>2026-04-09T11:59:50.001Z</time></trkpt><trkpt lat="44.60965069249499" lon="8.41118422679817"><ele>193.4</ele><time>2026-04-09T11:59:51.001Z</time></trkpt><trkpt lat="44.60975798298679" lon="8.4111661338104"><ele>193.6</ele><time>2026-04-09T11:59:52.001Z</time></trkpt><trkpt lat="44.609860777388825" lon="8.411193843884273"><ele>193.79999999999998</ele><time>2026-04-09T11:59:53.001Z</time></trkpt><trkpt lat="44.60996169972731" lon="8.411239863008454"><ele>194.0</ele><time>2026-04-09T11:59:54.001Z</time></trkpt><trkpt lat="44.610067046231784" lon="8.411274239448844"><ele>194.0</ele><time>2026-04-09T11:59:55.001Z</time></trkpt><trkpt lat="44.61017797891618" lon="8.41129932963325"><ele>194.0</ele><time>2026-04-09T11:59:56.001Z</time></trkpt><trkpt lat="44.610290607794916" lon="8.411319220083017"><ele>194.0</ele><time>2026-04-09T11:59:57.001Z</time></trkpt><trkpt lat="44.610396830819255" lon="8.411333393307476"><ele>194.0</ele><time>2026-04-09T11:59:58.001Z</time></trkpt><trkpt lat="44.61049628591109" lon="8.411341161480932"><ele>194.0</ele><time>2026-04-09T11:59:59.001Z</time></trkpt><trkpt lat="44.61059425850666" lon="8.411338944942388"><ele>194.6</ele><time>2026-04-09T12:00:00.001Z</time></trkpt><trkpt lat="44.610687889187616" lon="8.411318694370465"><ele>195.2</ele><time>2026-04-09T12:00:01.001Z</time></trkpt><trkpt lat="44.6107819931198" lon="8.41130703182506"><ele>195.79999999999998</ele><time>2026-04-09T12:00:02.001Z</time></trkpt><trkpt lat="44.610879594033776" lon="8.411324092144431"><ele>196.39999999999998</ele><time>2026-04-09T12:00:03.001Z</time></trkpt><trkpt lat="44.61097857520177" lon="8.411358474602752"><ele>197.0</ele><time>2026-04-09T12:00:04.001Z</time></trkpt><trkpt lat="44.611078084927534" lon="8.411386041326557"><ele>197.16666666666669</ele><time>2026-04-09T12:00:05.001Z</time></trkpt><trkpt lat="44.611168938981535" lon="8.411404078431532"><ele>197.33333333333334</ele><time>2026-04-09T12:00:06.001Z</time></trkpt><trkpt lat="44.61127843049698" lon="8.41142980358113"><ele>197.5</ele><time>2026-04-09T12:00:08.001Z</time></trkpt><trkpt lat="44.61132651282695" lon="8.411360681829064"><ele>197.66666666666669</ele><time>2026-04-09T12:00:09.001Z</time></trkpt><trkpt lat="44.61137348533435" lon="8.411297459055916"><ele>197.83333333333334</ele><time>2026-04-09T12:00:10.001Z</time></trkpt><trkpt lat="44.611443548474455" lon="8.411254822007944"><ele>198.0</ele><time>2026-04-09T12:00:11.001Z</time></trkpt><trkpt lat="44.61150980666679" lon="8.411195345974082"><ele>198.0</ele><time>2026-04-09T12:00:12.001Z</time></trkpt><trkpt lat="44.611574904460596" lon="8.411144185374875"><ele>198.0</ele><time>2026-04-09T12:00:13.001Z</time></trkpt><trkpt lat="44.61164001951882" lon="8.411082326256611"><ele>198.0</ele><time>2026-04-09T12:00:14.001Z</time></trkpt><trkpt lat="44.611722241753945" lon="8.411037652588611"><ele>198.0</ele><time>2026-04-09T12:00:15.001Z</time></trkpt><trkpt lat="44.61180703741337" lon="8.410981286139283"><ele>198.0</ele><time>2026-04-09T12:00:16.001Z</time></trkpt><trkpt lat="44.61190896325256" lon="8.410933978817296"><ele>198.0</ele><time>2026-04-09T12:00:17.001Z</time></trkpt><trkpt lat="44.61201270140774" lon="8.410861633079282"><ele>201.5</ele><time>2026-04-09T12:00:18.001Z</time></trkpt><trkpt lat="44.61212504520101" lon="8.410783285875732"><ele>205.0</ele><time>2026-04-09T12:00:19.001Z</time></trkpt><trkpt lat="44.612229200795596" lon="8.410687102555048"><ele>208.5</ele><time>2026-04-09T12:00:20.001Z</time></trkpt><trkpt lat="44.612355215685724" lon="8.410629635442408"><ele>212.0</ele><time>2026-04-09T12:00:21.001Z</time></trkpt><trkpt lat="44.61247351969765" lon="8.410521379360599"><ele>210.0</ele><time>2026-04-09T12:00:22.001Z</time></trkpt><trkpt lat="44.612593979205556" lon="8.410434372589362"><ele>208.0</ele><time>2026-04-09T12:00:23.001Z</time></trkpt><trkpt lat="44.612699237827016" lon="8.410350692343108"><ele>206.0</ele><time>2026-04-09T12:00:24.001Z</time></trkpt><trkpt lat="44.612796243557064" lon="8.410269351011863"><ele>204.0</ele><time>2026-04-09T12:00:25.001Z</time></trkpt><trkpt lat="44.612896208139944" lon="8.41018025514472"><ele>204.0</ele><time>2026-04-09T12:00:26.001Z</time></trkpt><trkpt lat="44.61299911471822" lon="8.410083626045427"><ele>204.0</ele><time>2026-04-09T12:00:27.001Z</time></trkpt><trkpt lat="44.61309928431455" lon="8.409984539430862"><ele>204.0</ele><time>2026-04-09T12:00:28.001Z</time></trkpt><trkpt lat="44.61319066615585" lon="8.409872560897274"><ele>204.0</ele><time>2026-04-09T12:00:29.001Z</time></trkpt><trkpt lat="44.61327510373409" lon="8.409756195038556"><ele>201.25</ele><time>2026-04-09T12:00:30.001Z</time></trkpt><trkpt lat="44.61335113033381" lon="8.409642108333276"><ele>198.5</ele><time>2026-04-09T12:00:31.001Z</time></trkpt><trkpt lat="44.61341029812468" lon="8.409515891015719"><ele>195.75</ele><time>2026-04-09T12:00:32.001Z</time></trkpt><trkpt lat="44.61347324319984" lon="8.409377733194836"><ele>193.0</ele><time>2026-04-09T12:00:33.001Z</time></trkpt><trkpt lat="44.61348691537198" lon="8.409198618245448"><ele>193.0</ele><time>2026-04-09T12:00:34.001Z</time></trkpt><trkpt lat="44.61349838063664" lon="8.40902261337307"><ele>193.0</ele><time>2026-04-09T12:00:35.001Z</time></trkpt><trkpt lat="44.61350811421678" lon="8.408846026070972"><ele>193.0</ele><time>2026-04-09T12:00:36.001Z</time></trkpt><trkpt lat="44.613521688684216" lon="8.408669464282008"><ele>193.0</ele><time>2026-04-09T12:00:37.001Z</time></trkpt><trkpt lat="44.613545023120146" lon="8.408500568321312"><ele>192.60000000000002</ele><time>2026-04-09T12:00:38.001Z</time></trkpt><trkpt lat="44.61357018149983" lon="8.408339982029942"><ele>192.20000000000002</ele><time>2026-04-09T12:00:39.001Z</time></trkpt><trkpt lat="44.61361088804161" lon="8.40819783012343"><ele>191.8</ele><time>2026-04-09T12:00:40.001Z</time></trkpt><trkpt lat="44.61362656730813" lon="8.408063797790486"><ele>191.4</ele><time>2026-04-09T12:00:41.001Z</time></trkpt><trkpt lat="44.61363487881026" lon="8.407954558465526"><ele>191.0</ele><time>2026-04-09T12:00:42.001Z</time></trkpt><trkpt lat="44.61362537370972" lon="8.407866119549084"><ele>190.83333333333331</ele><time>2026-04-09T12:00:43.001Z</time></trkpt><trkpt lat="44.61363029180188" lon="8.407762485900479"><ele>190.66666666666666</ele><time>2026-04-09T12:00:45Z</time></trkpt><trkpt lat="44.61358825653739" lon="8.407683009186396"><ele>190.5</ele><time>2026-04-09T12:00:47Z</time></trkpt><trkpt lat="44.613470633115305" lon="8.40768913691106"><ele>190.33333333333334</ele><time>2026-04-09T12:00:49Z</time></trkpt><trkpt lat="44.61340433920562" lon="8.407662856710632"><ele>190.16666666666669</ele><time>2026-04-09T12:00:50Z</time></trkpt><trkpt lat="44.61333090806304" lon="8.407655247835304"><ele>190.0</ele><time>2026-04-09T12:00:51Z</time></trkpt><trkpt lat="44.61326784295939" lon="8.407583724708797"><ele>190.0</ele><time>2026-04-09T12:00:52Z</time></trkpt><trkpt lat="44.6132127707155" lon="8.407497358197556"><ele>190.0</ele><time>2026-04-09T12:00:53Z</time></trkpt><trkpt lat="44.61316172082258" lon="8.40740049742665"><ele>190.0</ele><time>2026-04-09T12:00:54Z</time></trkpt><trkpt lat="44.61311030633844" lon="8.407292905745186"><ele>190.0</ele><time>2026-04-09T12:00:55Z</time></trkpt><trkpt lat="44.61306401843046" lon="8.40717106955417"><ele>190.0</ele><time>2026-04-09T12:00:56Z</time></trkpt><trkpt lat="44.61302863098747" lon="8.407039777131471"><ele>189.2</ele><time>2026-04-09T12:00:57Z</time></trkpt><trkpt lat="44.612998411911946" lon="8.40690040498739"><ele>188.4</ele><time>2026-04-09T12:00:58Z</time></trkpt><trkpt lat="44.61297079641572" lon="8.406763063573498"><ele>187.60000000000002</ele><time>2026-04-09T12:00:59Z</time></trkpt><trkpt lat="44.61295023665866" lon="8.406620761852361"><ele>186.8</ele><time>2026-04-09T12:01:00Z</time></trkpt><trkpt lat="44.61294194831826" lon="8.406467069929896"><ele>186.0</ele><time>2026-04-09T12:01:01Z</time></trkpt><trkpt lat="44.612946074500016" lon="8.406308115593419"><ele>185.8</ele><time>2026-04-09T12:01:02Z</time></trkpt><trkpt lat="44.61295805035783" lon="8.40615042864364"><ele>185.60000000000002</ele><time>2026-04-09T12:01:03Z</time></trkpt><trkpt lat="44.61296110679393" lon="8.406000158665188"><ele>185.4</ele><time>2026-04-09T12:01:04Z</time></trkpt><trkpt lat="44.612956627973475" lon="8.405856196067262"><ele>185.2</ele><time>2026-04-09T12:01:05Z</time></trkpt><trkpt lat="44.61294825815816" lon="8.405727343099416"><ele>185.0</ele><time>2026-04-09T12:01:06Z</time></trkpt><trkpt lat="44.61290252038522" lon="8.405603363552977"><ele>185.0</ele><time>2026-04-09T12:01:07Z</time></trkpt><trkpt lat="44.61283122004444" lon="8.405502973740946"><ele>185.0</ele><time>2026-04-09T12:01:08Z</time></trkpt><trkpt lat="44.61276124726541" lon="8.405423109062019"><ele>185.0</ele><time>2026-04-09T12:01:09Z</time></trkpt><trkpt lat="44.612679364440154" lon="8.405364601383512"><ele>185.0</ele><time>2026-04-09T12:01:10Z</time></trkpt><trkpt lat="44.612622659703234" lon="8.405290115636095"><ele>185.0</ele><time>2026-04-09T12:01:11Z</time></trkpt><trkpt lat="44.61258251049075" lon="8.405217427118629"><ele>185.0</ele><time>2026-04-09T12:01:13Z</time></trkpt><trkpt lat="44.61256388099696" lon="8.405119252853384"><ele>184.6</ele><time>2026-04-09T12:01:32Z</time></trkpt><trkpt lat="44.612536792634344" lon="8.404989191367465"><ele>184.2</ele><time>2026-04-09T12:01:35Z</time></trkpt><trkpt lat="44.61250703758625" lon="8.404843575623095"><ele>183.8</ele><time>2026-04-09T12:01:37Z</time></trkpt><trkpt lat="44.61245820184751" lon="8.404681983674857"><ele>183.4</ele><time>2026-04-09T12:01:39Z</time></trkpt><trkpt lat="44.61244277786692" lon="8.404594215395562"><ele>183.0</ele><time>2026-04-09T12:01:40Z</time></trkpt><trkpt lat="44.612412368056795" lon="8.40443577241685"><ele>182.8</ele><time>2026-04-09T12:01:42Z</time></trkpt><trkpt lat="44.612384705369394" lon="8.404283068766512"><ele>182.60000000000002</ele><time>2026-04-09T12:01:44Z</time></trkpt><trkpt lat="44.612363790514614" lon="8.40414845561965"><ele>182.39999999999998</ele><time>2026-04-09T12:01:46Z</time></trkpt><trkpt lat="44.61235012166779" lon="8.40399630471479"><ele>182.2</ele><time>2026-04-09T12:01:48Z</time></trkpt><trkpt lat="44.612341018911565" lon="8.403869710608788"><ele>182.0</ele><time>2026-04-09T12:01:50Z</time></trkpt><trkpt lat="44.61231343456429" lon="8.403772457162075"><ele>183.33333333333331</ele><time>2026-04-09T12:07:09.999Z</time></trkpt><trkpt lat="44.61224949059645" lon="8.403715004716954"><ele>184.66666666666666</ele><time>2026-04-09T12:07:11.999Z</time></trkpt><trkpt lat="44.612162389744995" lon="8.403748136651377"><ele>186.0</ele><time>2026-04-09T12:07:13.999Z</time></trkpt><trkpt lat="44.61208242990135" lon="8.403800302580834"><ele>187.33333333333334</ele><time>2026-04-09T12:07:15.999Z</time></trkpt><trkpt lat="44.61201868881082" lon="8.403818959594801"><ele>188.66666666666669</ele><time>2026-04-09T12:07:17.999Z</time></trkpt><trkpt lat="44.61198206711442" lon="8.403721384341733"><ele>190.0</ele><time>2026-04-09T12:07:20.999Z</time></trkpt><trkpt lat="44.612054904165454" lon="8.403620830105217"><ele>190.0</ele><time>2026-04-09T12:07:23.999Z</time></trkpt><trkpt lat="44.61217627379053" lon="8.403550620221708"><ele>190.0</ele><time>2026-04-09T12:07:25.999Z</time></trkpt><trkpt lat="44.61224910332541" lon="8.40351320665529"><ele>190.0</ele><time>2026-04-09T12:07:26.999Z</time></trkpt><trkpt lat="44.612328063563965" lon="8.403492103372553"><ele>190.0</ele><time>2026-04-09T12:07:27.999Z</time></trkpt><trkpt lat="44.61240449835551" lon="8.403503231340983"><ele>190.0</ele><time>2026-04-09T12:07:28.999Z</time></trkpt><trkpt lat="44.612469714812114" lon="8.403488946880472"><ele>190.0</ele><time>2026-04-09T12:07:29.999Z</time></trkpt><trkpt lat="44.61258013094223" lon="8.403468939813866"><ele>190.0</ele><time>2026-04-09T12:07:31.999Z</time></trkpt><trkpt lat="44.61266919827976" lon="8.40346883208574"><ele>190.0</ele><time>2026-04-09T12:07:33.999Z</time></trkpt><trkpt lat="44.61274671139992" lon="8.403476335661871"><ele>190.0</ele><time>2026-04-09T12:07:36Z</time></trkpt><trkpt lat="44.612828650399706" lon="8.403509949118499"><ele>190.0</ele><time>2026-04-09T12:07:38Z</time></trkpt><trkpt lat="44.61290234919547" lon="8.403550641426945"><ele>190.0</ele><time>2026-04-09T12:07:56Z</time></trkpt><trkpt lat="44.61299454740916" lon="8.403575994576206"><ele>190.0</ele><time>2026-04-09T12:07:58Z</time></trkpt><trkpt lat="44.613064701992506" lon="8.403594979124295"><ele>189.83333333333334</ele><time>2026-04-09T12:07:59Z</time></trkpt><trkpt lat="44.613144349661" lon="8.40361133136621"><ele>189.66666666666669</ele><time>2026-04-09T12:08:00Z</time></trkpt><trkpt lat="44.613219389193496" lon="8.403622800138647"><ele>189.5</ele><time>2026-04-09T12:08:01Z</time></trkpt><trkpt lat="44.61329390148016" lon="8.40363288673456"><ele>189.33333333333334</ele><time>2026-04-09T12:08:02Z</time></trkpt><trkpt lat="44.61336375276179" lon="8.40364071239795"><ele>189.16666666666666</ele><time>2026-04-09T12:08:03Z</time></trkpt><trkpt lat="44.61342977143744" lon="8.40364562732007"><ele>189.0</ele><time>2026-04-09T12:08:04Z</time></trkpt><trkpt lat="44.61353766849489" lon="8.40364839077725"><ele>189.0</ele><time>2026-04-09T12:08:06Z</time></trkpt><trkpt lat="44.61365083497323" lon="8.403609250129264"><ele>189.0</ele><time>2026-04-09T12:08:08Z</time></trkpt><trkpt lat="44.61369361218671" lon="8.403540657047207"><ele>189.0</ele><time>2026-04-09T12:08:09Z</time></trkpt><trkpt lat="44.61369565799215" lon="8.403437623967966"><ele>189.0</ele><time>2026-04-09T12:08:10Z</time></trkpt><trkpt lat="44.61365542863617" lon="8.403294657840833"><ele>189.0</ele><time>2026-04-09T12:08:12Z</time></trkpt><trkpt lat="44.61365380292156" lon="8.403124859174499"><ele>189.0</ele><time>2026-04-09T12:08:14Z</time></trkpt><trkpt lat="44.61364181328323" lon="8.4030367178115"><ele>189.0</ele><time>2026-04-09T12:08:15Z</time></trkpt><trkpt lat="44.6136162930038" lon="8.402951606584582"><ele>189.0</ele><time>2026-04-09T12:08:16Z</time></trkpt><trkpt lat="44.61361204364321" lon="8.402859031416497"><ele>189.0</ele><time>2026-04-09T12:08:17Z</time></trkpt><trkpt lat="44.61360095094514" lon="8.402701524012494"><ele>189.0</ele><time>2026-04-09T12:08:19Z</time></trkpt><trkpt lat="44.61363247730365" lon="8.402615835277981"><ele>189.0</ele><time>2026-04-09T12:08:21Z</time></trkpt><trkpt lat="44.613725502262064" lon="8.402564986135584"><ele>190.6</ele><time>2026-04-09T12:08:23Z</time></trkpt><trkpt lat="44.61377522557413" lon="8.402401798306478"><ele>192.2</ele><time>2026-04-09T12:08:25Z</time></trkpt><trkpt lat="44.61378762040651" lon="8.40230997621318"><ele>193.79999999999998</ele><time>2026-04-09T12:08:26Z</time></trkpt><trkpt lat="44.61377986742194" lon="8.402215614469432"><ele>195.39999999999998</ele><time>2026-04-09T12:08:27Z</time></trkpt><trkpt lat="44.61380964737933" lon="8.402059952478737"><ele>197.0</ele><time>2026-04-09T12:08:29Z</time></trkpt><trkpt lat="44.61382432237958" lon="8.401879734794857"><ele>198.6</ele><time>2026-04-09T12:08:31Z</time></trkpt><trkpt lat="44.613834148745916" lon="8.401791164841958"><ele>200.2</ele><time>2026-04-09T12:08:32Z</time></trkpt><trkpt lat="44.61386134306637" lon="8.40162564461802"><ele>201.8</ele><time>2026-04-09T12:08:34Z</time></trkpt><trkpt lat="44.613896308496756" lon="8.401468001667846"><ele>203.4</ele><time>2026-04-09T12:08:36Z</time></trkpt><trkpt lat="44.61396441561203" lon="8.401373352187651"><ele>205.0</ele><time>2026-04-09T12:08:38Z</time></trkpt><trkpt lat="44.614078957843475" lon="8.401364082028534"><ele>205.0</ele><time>2026-04-09T12:08:40Z</time></trkpt><trkpt lat="44.61414861081156" lon="8.401374080117662"><ele>205.0</ele><time>2026-04-09T12:08:41.001Z</time></trkpt><trkpt lat="44.61421408180869" lon="8.401409987292688"><ele>205.0</ele><time>2026-04-09T12:08:42.001Z</time></trkpt><trkpt lat="44.61428288480823" lon="8.401440841944975"><ele>205.0</ele><time>2026-04-09T12:08:43.001Z</time></trkpt><trkpt lat="44.61435431584636" lon="8.40146541542294"><ele>205.0</ele><time>2026-04-09T12:08:44.001Z</time></trkpt><trkpt lat="44.61442721061895" lon="8.401481627711611"><ele>205.0</ele><time>2026-04-09T12:08:45.001Z</time></trkpt><trkpt lat="44.614503710201035" lon="8.401472239442338"><ele>205.0</ele><time>2026-04-09T12:08:46.001Z</time></trkpt><trkpt lat="44.61457349103831" lon="8.401483267364878"><ele>206.83333333333331</ele><time>2026-04-09T12:08:47.001Z</time></trkpt><trkpt lat="44.614635294057244" lon="8.4015217197596"><ele>208.66666666666666</ele><time>2026-04-09T12:08:48.001Z</time></trkpt><trkpt lat="44.61469845721199" lon="8.401545912698923"><ele>210.5</ele><time>2026-04-09T12:08:49.001Z</time></trkpt><trkpt lat="44.61480856227546" lon="8.401622905154733"><ele>212.33333333333331</ele><time>2026-04-09T12:08:51.001Z</time></trkpt><trkpt lat="44.61486300307386" lon="8.401671447889099"><ele>214.16666666666666</ele><time>2026-04-09T12:08:52.001Z</time></trkpt><trkpt lat="44.61491618047481" lon="8.401728432985534"><ele>216.0</ele><time>2026-04-09T12:08:53.001Z</time></trkpt><trkpt lat="44.61496991060225" lon="8.401789509588882"><ele>216.0</ele><time>2026-04-09T12:08:54.001Z</time></trkpt><trkpt lat="44.61502920850942" lon="8.401829339196164"><ele>216.0</ele><time>2026-04-09T12:08:55.001Z</time></trkpt><trkpt lat="44.615080000856736" lon="8.40188662325254"><ele>216.0</ele><time>2026-04-09T12:08:56.001Z</time></trkpt><trkpt lat="44.615133303401045" lon="8.40194059387949"><ele>216.0</ele><time>2026-04-09T12:08:57.001Z</time></trkpt><trkpt lat="44.61520685558501" lon="8.401989133412355"><ele>216.0</ele><time>2026-04-09T12:08:58.001Z</time></trkpt><trkpt lat="44.61528893146744" lon="8.402027740769487"><ele>216.0</ele><time>2026-04-09T12:08:59.001Z</time></trkpt><trkpt lat="44.61537630295353" lon="8.402059039295418"><ele>217.20000000000002</ele><time>2026-04-09T12:09:00.001Z</time></trkpt><trkpt lat="44.615469388571256" lon="8.402098427488426"><ele>218.40000000000003</ele><time>2026-04-09T12:09:01.001Z</time></trkpt><trkpt lat="44.61556732430317" lon="8.402159018685415"><ele>219.6</ele><time>2026-04-09T12:09:02.001Z</time></trkpt><trkpt lat="44.61566005372528" lon="8.402196412516746"><ele>220.8</ele><time>2026-04-09T12:09:03.001Z</time></trkpt><trkpt lat="44.61575223741084" lon="8.402233586279728"><ele>222.0</ele><time>2026-04-09T12:09:04.001Z</time></trkpt><trkpt lat="44.61583544311856" lon="8.402255696657557"><ele>222.0</ele><time>2026-04-09T12:09:05.001Z</time></trkpt><trkpt lat="44.61591494196364" lon="8.40227827654255"><ele>222.0</ele><time>2026-04-09T12:09:06.001Z</time></trkpt><trkpt lat="44.6159873632177" lon="8.40229682803872"><ele>222.0</ele><time>2026-04-09T12:09:07.001Z</time></trkpt><trkpt lat="44.616057792795715" lon="8.402284192503139"><ele>222.0</ele><time>2026-04-09T12:09:08.001Z</time></trkpt><trkpt lat="44.61613223480513" lon="8.402246924583958"><ele>222.0</ele><time>2026-04-09T12:09:08.999Z</time></trkpt><trkpt lat="44.61619710924931" lon="8.402188151342594"><ele>222.0</ele><time>2026-04-09T12:09:09.999Z</time></trkpt><trkpt lat="44.61626634692714" lon="8.40211449381234"><ele>222.0</ele><time>2026-04-09T12:09:10.999Z</time></trkpt><trkpt lat="44.6163288076116" lon="8.402065325841985"><ele>222.0</ele><time>2026-04-09T12:09:11.999Z</time></trkpt><trkpt lat="44.61644930922219" lon="8.402058540372595"><ele>222.0</ele><time>2026-04-09T12:09:13.999Z</time></trkpt><trkpt lat="44.61651232377677" lon="8.402092624842195"><ele>222.0</ele><time>2026-04-09T12:09:14.999Z</time></trkpt><trkpt lat="44.61658539333478" lon="8.402124009843467"><ele>222.0</ele><time>2026-04-09T12:09:15.999Z</time></trkpt><trkpt lat="44.61664939782595" lon="8.402141499428435"><ele>222.0</ele><time>2026-04-09T12:09:16.999Z</time></trkpt><trkpt lat="44.61671277622977" lon="8.402152835217052"><ele>222.0</ele><time>2026-04-09T12:09:17.999Z</time></trkpt><trkpt lat="44.616778326153316" lon="8.40215310366781"><ele>222.0</ele><time>2026-04-09T12:09:18.999Z</time></trkpt><trkpt lat="44.616842816695396" lon="8.402142156940641"><ele>222.0</ele><time>2026-04-09T12:09:19.999Z</time></trkpt><trkpt lat="44.616919758520964" lon="8.402109285605242"><ele>222.0</ele><time>2026-04-09T12:09:20.999Z</time></trkpt><trkpt lat="44.6169974052362" lon="8.402058401548166"><ele>222.0</ele><time>2026-04-09T12:09:21.999Z</time></trkpt><trkpt lat="44.61707327382567" lon="8.402006528068313"><ele>222.0</ele><time>2026-04-09T12:09:22.999Z</time></trkpt><trkpt lat="44.61713444171638" lon="8.401950514646325"><ele>222.2</ele><time>2026-04-09T12:09:23.999Z</time></trkpt><trkpt lat="44.61723275944979" lon="8.401910298295201"><ele>222.39999999999998</ele><time>2026-04-09T12:09:26Z</time></trkpt><trkpt lat="44.6172958605799" lon="8.401961737375576"><ele>222.60000000000002</ele><time>2026-04-09T12:09:28Z</time></trkpt><trkpt lat="44.61736041599701" lon="8.402119801904984"><ele>222.8</ele><time>2026-04-09T12:09:30Z</time></trkpt><trkpt lat="44.61738856979255" lon="8.402223687766291"><ele>223.0</ele><time>2026-04-09T12:09:31Z</time></trkpt><trkpt lat="44.61741987105363" lon="8.402326443083165"><ele>221.8</ele><time>2026-04-09T12:09:32Z</time></trkpt><trkpt lat="44.61745046284364" lon="8.402415242279273"><ele>220.60000000000002</ele><time>2026-04-09T12:09:33Z</time></trkpt><trkpt lat="44.61750582349131" lon="8.402569052979535"><ele>219.39999999999998</ele><time>2026-04-09T12:09:35Z</time></trkpt><trkpt lat="44.61763299537659" lon="8.402620806146821"><ele>218.2</ele><time>2026-04-09T12:09:37Z</time></trkpt><trkpt lat="44.617709825378554" lon="8.40256638212407"><ele>217.0</ele><time>2026-04-09T12:09:38Z</time></trkpt><trkpt lat="44.617780417652874" lon="8.402526315215919"><ele>218.66666666666666</ele><time>2026-04-09T12:09:39Z</time></trkpt><trkpt lat="44.61785423852476" lon="8.40250700444379"><ele>220.33333333333331</ele><time>2026-04-09T12:09:40Z</time></trkpt><trkpt lat="44.617933354392896" lon="8.402508208058714"><ele>222.0</ele><time>2026-04-09T12:09:41Z</time></trkpt><trkpt lat="44.618011708204854" lon="8.40252974270647"><ele>223.66666666666669</ele><time>2026-04-09T12:09:42Z</time></trkpt><trkpt lat="44.6180953516523" lon="8.402557370718112"><ele>225.33333333333334</ele><time>2026-04-09T12:09:43Z</time></trkpt><trkpt lat="44.61817234388134" lon="8.40258338370642"><ele>227.0</ele><time>2026-04-09T12:09:44Z</time></trkpt><trkpt lat="44.61824784455841" lon="8.402608406595714"><ele>227.0</ele><time>2026-04-09T12:09:45Z</time></trkpt><trkpt lat="44.61832724294548" lon="8.40263375066543"><ele>227.0</ele><time>2026-04-09T12:09:46Z</time></trkpt><trkpt lat="44.618397033300226" lon="8.402656027833787"><ele>227.0</ele><time>2026-04-09T12:09:47Z</time></trkpt><trkpt lat="44.6184685300748" lon="8.40267884969519"><ele>227.0</ele><time>2026-04-09T12:09:49Z</time></trkpt><trkpt lat="44.6183695371228" lon="8.402510669457804"><ele>227.0</ele><time>2026-04-09T12:10:11Z</time></trkpt><trkpt lat="44.618304134286305" lon="8.40246864878048"><ele>227.00000000000003</ele><time>2026-04-09T12:10:12Z</time></trkpt><trkpt lat="44.61823726538851" lon="8.402420268891877"><ele>227.0</ele><time>2026-04-09T12:10:13Z</time></trkpt><trkpt lat="44.61817468142515" lon="8.402374217794828"><ele>227.0</ele><time>2026-04-09T12:10:14Z</time></trkpt><trkpt lat="44.618114268248306" lon="8.402327676874144"><ele>227.0</ele><time>2026-04-09T12:10:15.001Z</time></trkpt><trkpt lat="44.61805758222001" lon="8.402272924390314"><ele>227.00000000000003</ele><time>2026-04-09T12:10:16.001Z</time></trkpt><trkpt lat="44.61797736020806" lon="8.402160911681543"><ele>227.0</ele><time>2026-04-09T12:10:18.001Z</time></trkpt><trkpt lat="44.61795248474823" lon="8.40200450210292"><ele>228.66666666666669</ele><time>2026-04-09T12:10:20.001Z</time></trkpt><trkpt lat="44.617996176477234" lon="8.401924586307553"><ele>230.33333333333334</ele><time>2026-04-09T12:10:21.001Z</time></trkpt><trkpt lat="44.61803707815794" lon="8.401845778480554"><ele>232.0</ele><time>2026-04-09T12:10:22.001Z</time></trkpt><trkpt lat="44.618083626077485" lon="8.401758672118756"><ele>233.66666666666669</ele><time>2026-04-09T12:10:23.001Z</time></trkpt><trkpt lat="44.6181274554976" lon="8.40167259745977"><ele>235.33333333333334</ele><time>2026-04-09T12:10:24.001Z</time></trkpt><trkpt lat="44.61816705845843" lon="8.401603016810688"><ele>237.0</ele><time>2026-04-09T12:10:25.001Z</time></trkpt><trkpt lat="44.61826738154338" lon="8.401533263052738"><ele>237.0</ele><time>2026-04-09T12:10:27.001Z</time></trkpt><trkpt lat="44.61832332383707" lon="8.401594314686042"><ele>237.0</ele><time>2026-04-09T12:10:28.001Z</time></trkpt><trkpt lat="44.6183858679498" lon="8.401653545900615"><ele>237.0</ele><time>2026-04-09T12:10:29.001Z</time></trkpt><trkpt lat="44.618459763527994" lon="8.401715399254662"><ele>237.0</ele><time>2026-04-09T12:10:30.001Z</time></trkpt><trkpt lat="44.61853427840795" lon="8.401775793370257"><ele>237.0</ele><time>2026-04-09T12:10:31.001Z</time></trkpt><trkpt lat="44.618621478268" lon="8.401823270987054"><ele>237.0</ele><time>2026-04-09T12:10:32.001Z</time></trkpt><trkpt lat="44.61871789925393" lon="8.401850915244262"><ele>237.33333333333334</ele><time>2026-04-09T12:10:33.001Z</time></trkpt><trkpt lat="44.61881622755463" lon="8.401865012098348"><ele>237.66666666666669</ele><time>2026-04-09T12:10:34.001Z</time></trkpt><trkpt lat="44.618900728655326" lon="8.401879952709903"><ele>238.0</ele><time>2026-04-09T12:10:35.001Z</time></trkpt><trkpt lat="44.61897128047578" lon="8.401896626214906"><ele>238.33333333333334</ele><time>2026-04-09T12:10:36.001Z</time></trkpt><trkpt lat="44.61909140380393" lon="8.401901275390935"><ele>238.66666666666669</ele><time>2026-04-09T12:10:38.001Z</time></trkpt><trkpt lat="44.61914830024358" lon="8.4018448394562"><ele>239.0</ele><time>2026-04-09T12:10:39.001Z</time></trkpt><trkpt lat="44.61917144550056" lon="8.401732969585465"><ele>239.0</ele><time>2026-04-09T12:10:40.001Z</time></trkpt><trkpt lat="44.61912708561569" lon="8.40161867267186"><ele>238.99999999999997</ele><time>2026-04-09T12:10:41.001Z</time></trkpt><trkpt lat="44.6190838213931" lon="8.401527131723961"><ele>238.99999999999997</ele><time>2026-04-09T12:10:42.001Z</time></trkpt><trkpt lat="44.619022129016976" lon="8.401447042713619"><ele>239.0</ele><time>2026-04-09T12:10:43.001Z</time></trkpt><trkpt lat="44.618947202036004" lon="8.401360249796406"><ele>239.0</ele><time>2026-04-09T12:10:44.001Z</time></trkpt><trkpt lat="44.61887273646554" lon="8.401258971571009"><ele>239.39999999999998</ele><time>2026-04-09T12:10:45.001Z</time></trkpt><trkpt lat="44.61880204072189" lon="8.401143244302702"><ele>239.79999999999998</ele><time>2026-04-09T12:10:46.001Z</time></trkpt><trkpt lat="44.618739273954695" lon="8.40102551606078"><ele>240.20000000000002</ele><time>2026-04-09T12:10:47.001Z</time></trkpt><trkpt lat="44.618696156872375" lon="8.400922455380599"><ele>240.60000000000002</ele><time>2026-04-09T12:10:48.001Z</time></trkpt><trkpt lat="44.6186649783936" lon="8.400815576441426"><ele>241.0</ele><time>2026-04-09T12:10:49.001Z</time></trkpt><trkpt lat="44.61864691935716" lon="8.400711175691793"><ele>241.99999999999997</ele><time>2026-04-09T12:10:50.001Z</time></trkpt><trkpt lat="44.61863518576617" lon="8.400611820536502"><ele>243.0</ele><time>2026-04-09T12:10:51.001Z</time></trkpt><trkpt lat="44.61859964972186" lon="8.400525264972181"><ele>244.0</ele><time>2026-04-09T12:10:52.001Z</time></trkpt><trkpt lat="44.61854272946533" lon="8.4004431747813"><ele>245.0</ele><time>2026-04-09T12:10:53.001Z</time></trkpt><trkpt lat="44.61847221593216" lon="8.40035338680631"><ele>245.99999999999997</ele><time>2026-04-09T12:10:54.001Z</time></trkpt><trkpt lat="44.61840177102223" lon="8.400239077286843"><ele>247.0</ele><time>2026-04-09T12:10:55.001Z</time></trkpt><trkpt lat="44.618335589532485" lon="8.400113149808616"><ele>249.0</ele><time>2026-04-09T12:10:56.001Z</time></trkpt><trkpt lat="44.61827354220704" lon="8.399972929095293"><ele>251.0</ele><time>2026-04-09T12:10:57.001Z</time></trkpt><trkpt lat="44.618215818411585" lon="8.399824277151888"><ele>253.0</ele><time>2026-04-09T12:10:58.001Z</time></trkpt><trkpt lat="44.618169814916826" lon="8.399671733162714"><ele>255.0</ele><time>2026-04-09T12:10:59.001Z</time></trkpt><trkpt lat="44.618134065909196" lon="8.399532431379253"><ele>256.2</ele><time>2026-04-09T12:11:00.001Z</time></trkpt><trkpt lat="44.6180916812544" lon="8.399419986895065"><ele>257.4</ele><time>2026-04-09T12:11:01.001Z</time></trkpt><trkpt lat="44.61803478044259" lon="8.399336236678105"><ele>258.6</ele><time>2026-04-09T12:11:02.001Z</time></trkpt><trkpt lat="44.617963140639795" lon="8.399270473655553"><ele>259.8</ele><time>2026-04-09T12:11:03.001Z</time></trkpt><trkpt lat="44.6178728620016" lon="8.399216750756507"><ele>261.0</ele><time>2026-04-09T12:11:04.001Z</time></trkpt><trkpt lat="44.6177715943842" lon="8.399170142351382"><ele>262.75</ele><time>2026-04-09T12:11:05.001Z</time></trkpt><trkpt lat="44.61766294160098" lon="8.399118867911929"><ele>264.5</ele><time>2026-04-09T12:11:06.001Z</time></trkpt><trkpt lat="44.61754501153009" lon="8.39906496758323"><ele>266.25</ele><time>2026-04-09T12:11:07.001Z</time></trkpt><trkpt lat="44.6174178661636" lon="8.399021020299957"><ele>268.0</ele><time>2026-04-09T12:11:08.001Z</time></trkpt><trkpt lat="44.617302133181575" lon="8.398987535461323"><ele>268.0</ele><time>2026-04-09T12:11:09.001Z</time></trkpt><trkpt lat="44.61720018065343" lon="8.398976554140312"><ele>268.0</ele><time>2026-04-09T12:11:10.001Z</time></trkpt><trkpt lat="44.61709891579205" lon="8.3989965262354"><ele>268.0</ele><time>2026-04-09T12:11:11.001Z</time></trkpt><trkpt lat="44.617006956846836" lon="8.399050348494926"><ele>268.0</ele><time>2026-04-09T12:11:12.001Z</time></trkpt><trkpt lat="44.616930227024255" lon="8.399108572656372"><ele>268.0</ele><time>2026-04-09T12:11:13.001Z</time></trkpt><trkpt lat="44.61686019705151" lon="8.399145338901775"><ele>270.4</ele><time>2026-04-09T12:11:14.001Z</time></trkpt><trkpt lat="44.616785851792706" lon="8.399138639709083"><ele>272.8</ele><time>2026-04-09T12:11:15Z</time></trkpt><trkpt lat="44.61669385768173" lon="8.399124967793904"><ele>275.2</ele><time>2026-04-09T12:11:16Z</time></trkpt><trkpt lat="44.6165975868534" lon="8.399099401546247"><ele>277.6</ele><time>2026-04-09T12:11:17Z</time></trkpt><trkpt lat="44.61649360404734" lon="8.399077476064113"><ele>280.0</ele><time>2026-04-09T12:11:18Z</time></trkpt><trkpt lat="44.61638183235974" lon="8.399059326480721"><ele>280.0</ele><time>2026-04-09T12:11:19Z</time></trkpt><trkpt lat="44.616265178414" lon="8.399048396492779"><ele>280.0</ele><time>2026-04-09T12:11:20Z</time></trkpt><trkpt lat="44.61614665015768" lon="8.399027818077943"><ele>280.0</ele><time>2026-04-09T12:11:21Z</time></trkpt><trkpt lat="44.61602591431386" lon="8.399004866992781"><ele>280.0</ele><time>2026-04-09T12:11:22Z</time></trkpt><trkpt lat="44.61590892651732" lon="8.39899690785215"><ele>281.2</ele><time>2026-04-09T12:11:23Z</time></trkpt><trkpt lat="44.61579492524392" lon="8.399014745861413"><ele>282.4</ele><time>2026-04-09T12:11:24Z</time></trkpt><trkpt lat="44.615685780557776" lon="8.399032090407317"><ele>283.6</ele><time>2026-04-09T12:11:25Z</time></trkpt><trkpt lat="44.61558001655685" lon="8.39904235647929"><ele>284.8</ele><time>2026-04-09T12:11:26Z</time></trkpt><trkpt lat="44.61547709667548" lon="8.39903484736673"><ele>286.0</ele><time>2026-04-09T12:11:27Z</time></trkpt><trkpt lat="44.61538393655271" lon="8.398991542577296"><ele>284.0</ele><time>2026-04-09T12:11:28Z</time></trkpt><trkpt lat="44.61530035957645" lon="8.398987327278373"><ele>282.0</ele><time>2026-04-09T12:11:29Z</time></trkpt><trkpt lat="44.615227116933795" lon="8.398946984530767"><ele>280.0</ele><time>2026-04-09T12:11:30Z</time></trkpt><trkpt lat="44.61515890212032" lon="8.39888123882802"><ele>278.0</ele><time>2026-04-09T12:11:31Z</time></trkpt><trkpt lat="44.615122845473785" lon="8.398766433666044"><ele>276.0</ele><time>2026-04-09T12:11:32Z</time></trkpt><trkpt lat="44.615063437727365" lon="8.398653957458952"><ele>274.0</ele><time>2026-04-09T12:11:33Z</time></trkpt><trkpt lat="44.61502423134229" lon="8.398513489979752"><ele>280.2</ele><time>2026-04-09T12:11:34Z</time></trkpt><trkpt lat="44.614983942746996" lon="8.39837749478049"><ele>286.4</ele><time>2026-04-09T12:11:35Z</time></trkpt><trkpt lat="44.61492968492592" lon="8.398263709003446"><ele>292.6</ele><time>2026-04-09T12:11:36Z</time></trkpt><trkpt lat="44.61485451515646" lon="8.398165643420887"><ele>298.8</ele><time>2026-04-09T12:11:37Z</time></trkpt><trkpt lat="44.61475997107983" lon="8.398095936888142"><ele>305.0</ele><time>2026-04-09T12:11:38Z</time></trkpt><trkpt lat="44.61466840603369" lon="8.398013681985674"><ele>303.5</ele><time>2026-04-09T12:11:39Z</time></trkpt><trkpt lat="44.6145861505514" lon="8.397906995094989"><ele>302.0</ele><time>2026-04-09T12:11:40Z</time></trkpt><trkpt lat="44.6145188063148" lon="8.397783697082858"><ele>300.5</ele><time>2026-04-09T12:11:41Z</time></trkpt><trkpt lat="44.61445683816339" lon="8.397642993917271"><ele>299.0</ele><time>2026-04-09T12:11:42Z</time></trkpt><trkpt lat="44.61440510032367" lon="8.39749606840076"><ele>299.0</ele><time>2026-04-09T12:11:43Z</time></trkpt><trkpt lat="44.61436428901912" lon="8.397359554491047"><ele>299.0</ele><time>2026-04-09T12:11:44Z</time></trkpt><trkpt lat="44.614325162930164" lon="8.39722398759702"><ele>299.0</ele><time>2026-04-09T12:11:45Z</time></trkpt><trkpt lat="44.614287548712674" lon="8.397089661395361"><ele>299.0</ele><time>2026-04-09T12:11:46Z</time></trkpt><trkpt lat="44.61424872523557" lon="8.396947777726805"><ele>299.0</ele><time>2026-04-09T12:11:47Z</time></trkpt><trkpt lat="44.614212857409576" lon="8.39680468510607"><ele>303.0</ele><time>2026-04-09T12:11:48Z</time></trkpt><trkpt lat="44.61417995171042" lon="8.396674008071296"><ele>307.0</ele><time>2026-04-09T12:11:49Z</time></trkpt><trkpt lat="44.61414778026669" lon="8.396551791366791"><ele>311.0</ele><time>2026-04-09T12:11:50Z</time></trkpt><trkpt lat="44.614123679696114" lon="8.396437058454461"><ele>315.0</ele><time>2026-04-09T12:11:51Z</time></trkpt><trkpt lat="44.614071650391985" lon="8.39635717486307"><ele>319.0</ele><time>2026-04-09T12:11:52Z</time></trkpt><trkpt lat="44.61399343507353" lon="8.396293661068617"><ele>323.0</ele><time>2026-04-09T12:11:53Z</time></trkpt><trkpt lat="44.61391719245668" lon="8.396263729465453"><ele>324.5</ele><time>2026-04-09T12:11:54Z</time></trkpt><trkpt lat="44.613820661816604" lon="8.396279916231114"><ele>326.0</ele><time>2026-04-09T12:11:55.001Z</time></trkpt><trkpt lat="44.61372508203956" lon="8.396306627040575"><ele>327.5</ele><time>2026-04-09T12:11:56.001Z</time></trkpt><trkpt lat="44.61364363460472" lon="8.39631649765716"><ele>329.0</ele><time>2026-04-09T12:11:57.001Z</time></trkpt><trkpt lat="44.61357127765506" lon="8.396292173797416"><ele>330.5</ele><time>2026-04-09T12:11:58.001Z</time></trkpt><trkpt lat="44.61350270383785" lon="8.39623620012514"><ele>332.0</ele><time>2026-04-09T12:11:59.001Z</time></trkpt><trkpt lat="44.6134387952683" lon="8.396168145856505"><ele>332.0</ele><time>2026-04-09T12:12:00.001Z</time></trkpt><trkpt lat="44.61336410791828" lon="8.396124811828544"><ele>332.0</ele><time>2026-04-09T12:12:01.001Z</time></trkpt><trkpt lat="44.61328530782804" lon="8.396112856223969"><ele>332.0</ele><time>2026-04-09T12:12:02.001Z</time></trkpt><trkpt lat="44.61321025503219" lon="8.396214895074378"><ele>332.0</ele><time>2026-04-09T12:12:03.001Z</time></trkpt><trkpt lat="44.613138353043425" lon="8.396310156169319"><ele>332.0</ele><time>2026-04-09T12:12:04.001Z</time></trkpt><trkpt lat="44.613062200936184" lon="8.396418107322999"><ele>333.25</ele><time>2026-04-09T12:12:05.001Z</time></trkpt><trkpt lat="44.61298218094155" lon="8.396528357748428"><ele>334.5</ele><time>2026-04-09T12:12:06.001Z</time></trkpt><trkpt lat="44.61289602524816" lon="8.396642015019488"><ele>335.75</ele><time>2026-04-09T12:12:07.001Z</time></trkpt><trkpt lat="44.61281249468363" lon="8.39675835316903"><ele>337.0</ele><time>2026-04-09T12:12:08.001Z</time></trkpt><trkpt lat="44.612726739302616" lon="8.396875798867946"><ele>337.0</ele><time>2026-04-09T12:12:09.001Z</time></trkpt><trkpt lat="44.612637080945866" lon="8.396989281250901"><ele>337.0</ele><time>2026-04-09T12:12:10.001Z</time></trkpt><trkpt lat="44.61255230294411" lon="8.397098449022428"><ele>337.0</ele><time>2026-04-09T12:12:11.001Z</time></trkpt><trkpt lat="44.61246822357999" lon="8.397215683886142"><ele>337.0</ele><time>2026-04-09T12:12:12.001Z</time></trkpt><trkpt lat="44.61238633568193" lon="8.3973382843729"><ele>335.0</ele><time>2026-04-09T12:12:13.001Z</time></trkpt><trkpt lat="44.61231292424371" lon="8.397460376241092"><ele>333.0</ele><time>2026-04-09T12:12:14.001Z</time></trkpt><trkpt lat="44.612255396680354" lon="8.397572945798096"><ele>331.0</ele><time>2026-04-09T12:12:15.001Z</time></trkpt><trkpt lat="44.612212715091225" lon="8.397675018086765"><ele>329.0</ele><time>2026-04-09T12:12:16.001Z</time></trkpt><trkpt lat="44.612170531860144" lon="8.397763511457743"><ele>327.0</ele><time>2026-04-09T12:12:17.001Z</time></trkpt><trkpt lat="44.61211589027745" lon="8.397836155285809"><ele>325.0</ele><time>2026-04-09T12:12:18.001Z</time></trkpt><trkpt lat="44.61204970422429" lon="8.397884004754937"><ele>325.66666666666663</ele><time>2026-04-09T12:12:19.001Z</time></trkpt><trkpt lat="44.611970292380164" lon="8.39790477827601"><ele>326.3333333333333</ele><time>2026-04-09T12:12:20.001Z</time></trkpt><trkpt lat="44.61188793918964" lon="8.397884748786593"><ele>327.0</ele><time>2026-04-09T12:12:21.001Z</time></trkpt><trkpt lat="44.611815844056736" lon="8.397749693860671"><ele>327.6666666666667</ele><time>2026-04-09T12:12:23.001Z</time></trkpt><trkpt lat="44.611799907687995" lon="8.397651921199184"><ele>328.33333333333337</ele><time>2026-04-09T12:12:24.001Z</time></trkpt><trkpt lat="44.611771873121796" lon="8.39753750847868"><ele>329.0</ele><time>2026-04-09T12:12:25.001Z</time></trkpt><trkpt lat="44.61172653663136" lon="8.397415642568564"><ele>329.0</ele><time>2026-04-09T12:12:26.001Z</time></trkpt><trkpt lat="44.611677766495845" lon="8.397282298926497"><ele>329.0</ele><time>2026-04-09T12:12:27.001Z</time></trkpt><trkpt lat="44.611607190105445" lon="8.397158667213606"><ele>329.0</ele><time>2026-04-09T12:12:28.001Z</time></trkpt><trkpt lat="44.61153018384504" lon="8.397054886130636"><ele>329.0</ele><time>2026-04-09T12:12:29.001Z</time></trkpt><trkpt lat="44.6114669642146" lon="8.39696315661044"><ele>329.0</ele><time>2026-04-09T12:12:30.001Z</time></trkpt><trkpt lat="44.611414685852495" lon="8.396882534667117"><ele>332.2</ele><time>2026-04-09T12:12:31.001Z</time></trkpt><trkpt lat="44.61137432875934" lon="8.396812641764797"><ele>335.4</ele><time>2026-04-09T12:12:32.001Z</time></trkpt><trkpt lat="44.61132124381567" lon="8.396677562156873"><ele>338.6</ele><time>2026-04-09T12:12:34.001Z</time></trkpt><trkpt lat="44.61127616951877" lon="8.396500772478522"><ele>341.8</ele><time>2026-04-09T12:12:36.001Z</time></trkpt><trkpt lat="44.61123492380508" lon="8.39640951030371"><ele>345.0</ele><time>2026-04-09T12:12:37.001Z</time></trkpt><trkpt lat="44.61120429693781" lon="8.39631940914709"><ele>346.8</ele><time>2026-04-09T12:12:38.001Z</time></trkpt><trkpt lat="44.6111715827343" lon="8.3962138410225"><ele>348.6</ele><time>2026-04-09T12:12:39.001Z</time></trkpt><trkpt lat="44.611103450503165" lon="8.396124692330373"><ele>350.4</ele><time>2026-04-09T12:12:40.001Z</time></trkpt><trkpt lat="44.61102913259914" lon="8.396037919290762"><ele>352.2</ele><time>2026-04-09T12:12:41.001Z</time></trkpt><trkpt lat="44.61093906043424" lon="8.395965497079283"><ele>354.0</ele><time>2026-04-09T12:12:42.001Z</time></trkpt><trkpt lat="44.61083905218616" lon="8.395907412462389"><ele>354.0</ele><time>2026-04-09T12:12:43.001Z</time></trkpt><trkpt lat="44.61073432901096" lon="8.395872016459323"><ele>354.0</ele><time>2026-04-09T12:12:44.001Z</time></trkpt><trkpt lat="44.610628838892445" lon="8.395860154398246"><ele>354.0</ele><time>2026-04-09T12:12:45.001Z</time></trkpt><trkpt lat="44.6105237504498" lon="8.395860422940707"><ele>354.0</ele><time>2026-04-09T12:12:46.001Z</time></trkpt><trkpt lat="44.61042487484131" lon="8.395843694310507"><ele>354.0</ele><time>2026-04-09T12:12:47.001Z</time></trkpt><trkpt lat="44.61034072863036" lon="8.395843694313657"><ele>353.1666666666667</ele><time>2026-04-09T12:12:48.001Z</time></trkpt><trkpt lat="44.610272849424405" lon="8.39584043544737"><ele>352.3333333333333</ele><time>2026-04-09T12:12:49.001Z</time></trkpt><trkpt lat="44.610211115950065" lon="8.39582233552441"><ele>351.5</ele><time>2026-04-09T12:12:50.001Z</time></trkpt><trkpt lat="44.61014819743648" lon="8.395792116205136"><ele>350.66666666666663</ele><time>2026-04-09T12:12:51.001Z</time></trkpt><trkpt lat="44.61008338172075" lon="8.39575485335242"><ele>349.8333333333333</ele><time>2026-04-09T12:12:52.001Z</time></trkpt><trkpt lat="44.609978859333566" lon="8.395685647204077"><ele>349.0</ele><time>2026-04-09T12:12:54.001Z</time></trkpt><trkpt lat="44.60987829985602" lon="8.395648656882653"><ele>348.99999999999994</ele><time>2026-04-09T12:12:56.001Z</time></trkpt><trkpt lat="44.60981545424638" lon="8.395634809843788"><ele>349.0</ele><time>2026-04-09T12:12:57.001Z</time></trkpt><trkpt lat="44.60975284263245" lon="8.395650928645521"><ele>349.0</ele><time>2026-04-09T12:12:58.001Z</time></trkpt><trkpt lat="44.60969308881218" lon="8.395691786445429"><ele>349.0</ele><time>2026-04-09T12:12:59.001Z</time></trkpt><trkpt lat="44.60963860962256" lon="8.395741059647033"><ele>349.0</ele><time>2026-04-09T12:13:00.001Z</time></trkpt><trkpt lat="44.60957965039452" lon="8.395795070402919"><ele>348.99999999999994</ele><time>2026-04-09T12:13:01.001Z</time></trkpt><trkpt lat="44.60951530550901" lon="8.395840730419211"><ele>349.0</ele><time>2026-04-09T12:13:02.001Z</time></trkpt><trkpt lat="44.609433267160576" lon="8.395859767214972"><ele>350.5</ele><time>2026-04-09T12:13:03.001Z</time></trkpt><trkpt lat="44.60934965280796" lon="8.395870793300299"><ele>352.0</ele><time>2026-04-09T12:13:04.002Z</time></trkpt><trkpt lat="44.60926020885066" lon="8.395875261739969"><ele>353.5</ele><time>2026-04-09T12:13:05.002Z</time></trkpt><trkpt lat="44.6091663958683" lon="8.395883329381439"><ele>355.0</ele><time>2026-04-09T12:13:06.002Z</time></trkpt><trkpt lat="44.60907453621791" lon="8.395891063289536"><ele>356.5</ele><time>2026-04-09T12:13:07.002Z</time></trkpt><trkpt lat="44.608992131597944" lon="8.395905148418912"><ele>358.0</ele><time>2026-04-09T12:13:08.002Z</time></trkpt><trkpt lat="44.608921468004226" lon="8.395952055716963"><ele>358.0</ele><time>2026-04-09T12:13:09.002Z</time></trkpt><trkpt lat="44.60885233817345" lon="8.39602989758695"><ele>358.0</ele><time>2026-04-09T12:13:10.002Z</time></trkpt><trkpt lat="44.608789750744435" lon="8.396100594411221"><ele>358.0</ele><time>2026-04-09T12:13:11.002Z</time></trkpt><trkpt lat="44.60873037450778" lon="8.39616497433994"><ele>358.0</ele><time>2026-04-09T12:13:12.002Z</time></trkpt><trkpt lat="44.6086638544103" lon="8.396215276217303"><ele>358.0</ele><time>2026-04-09T12:13:13.002Z</time></trkpt><trkpt lat="44.608591282953704" lon="8.396249542613077"><ele>358.0</ele><time>2026-04-09T12:13:14.002Z</time></trkpt><trkpt lat="44.6085143486167" lon="8.396266930534317"><ele>359.5</ele><time>2026-04-09T12:13:15.002Z</time></trkpt><trkpt lat="44.60844281600862" lon="8.396262267208739"><ele>361.0</ele><time>2026-04-09T12:13:16.002Z</time></trkpt><trkpt lat="44.608374646499755" lon="8.396212114411938"><ele>362.5</ele><time>2026-04-09T12:13:17.002Z</time></trkpt><trkpt lat="44.60828761072021" lon="8.396199778144625"><ele>364.0</ele><time>2026-04-09T12:13:18.002Z</time></trkpt><trkpt lat="44.608199062361706" lon="8.396155961161336"><ele>365.5</ele><time>2026-04-09T12:13:19.002Z</time></trkpt><trkpt lat="44.60811683211761" lon="8.396073179085981"><ele>367.0</ele><time>2026-04-09T12:13:20.002Z</time></trkpt><trkpt lat="44.608024781604435" lon="8.395986425175009"><ele>367.0</ele><time>2026-04-09T12:13:21.001Z</time></trkpt><trkpt lat="44.6079252306124" lon="8.395904079850402"><ele>367.0</ele><time>2026-04-09T12:13:22.001Z</time></trkpt><trkpt lat="44.607820076571926" lon="8.395857751168577"><ele>367.0</ele><time>2026-04-09T12:13:23.001Z</time></trkpt><trkpt lat="44.60773153391978" lon="8.395797014752988"><ele>367.0</ele><time>2026-04-09T12:13:24.001Z</time></trkpt><trkpt lat="44.60764934995545" lon="8.395716168137477"><ele>367.0</ele><time>2026-04-09T12:13:25.001Z</time></trkpt><trkpt lat="44.60760032427736" lon="8.395592515835776"><ele>371.8</ele><time>2026-04-09T12:13:26.001Z</time></trkpt><trkpt lat="44.60752133440247" lon="8.395502577217815"><ele>376.6</ele><time>2026-04-09T12:13:27.001Z</time></trkpt><trkpt lat="44.60744990347502" lon="8.395409403311062"><ele>381.40000000000003</ele><time>2026-04-09T12:13:28.001Z</time></trkpt><trkpt lat="44.607387418019236" lon="8.395305033519891"><ele>386.20000000000005</ele><time>2026-04-09T12:13:29.001Z</time></trkpt><trkpt lat="44.607332695859824" lon="8.395205432457317"><ele>391.0</ele><time>2026-04-09T12:13:30.001Z</time></trkpt><trkpt lat="44.60728192647166" lon="8.395085975939061"><ele>391.0</ele><time>2026-04-09T12:13:31.001Z</time></trkpt><trkpt lat="44.60723547646891" lon="8.39496847530114"><ele>391.0</ele><time>2026-04-09T12:13:32.001Z</time></trkpt><trkpt lat="44.607188426482615" lon="8.394842794617595"><ele>391.0</ele><time>2026-04-09T12:13:33.001Z</time></trkpt><trkpt lat="44.60712351897495" lon="8.394718368648492"><ele>391.0</ele><time>2026-04-09T12:13:34.001Z</time></trkpt><trkpt lat="44.60708047620676" lon="8.394568432203169"><ele>391.0</ele><time>2026-04-09T12:13:35.001Z</time></trkpt><trkpt lat="44.607011490432235" lon="8.394425845713352"><ele>390.75</ele><time>2026-04-09T12:13:36.001Z</time></trkpt><trkpt lat="44.606918184532425" lon="8.39430965173059"><ele>390.5</ele><time>2026-04-09T12:13:37.001Z</time></trkpt><trkpt lat="44.60683704012604" lon="8.394186017025246"><ele>390.25</ele><time>2026-04-09T12:13:38.001Z</time></trkpt><trkpt lat="44.606771088900665" lon="8.394065032731776"><ele>390.0</ele><time>2026-04-09T12:13:39.001Z</time></trkpt><trkpt lat="44.6067216314272" lon="8.393942463370115"><ele>393.5</ele><time>2026-04-09T12:13:40.001Z</time></trkpt><trkpt lat="44.606680517741964" lon="8.393833457722879"><ele>397.0</ele><time>2026-04-09T12:13:41.001Z</time></trkpt><trkpt lat="44.60664027214509" lon="8.393748773104207"><ele>400.5</ele><time>2026-04-09T12:13:42.001Z</time></trkpt><trkpt lat="44.60659765069966" lon="8.393655917833444"><ele>404.0</ele><time>2026-04-09T12:13:43.001Z</time></trkpt><trkpt lat="44.60652044623042" lon="8.393617275445967"><ele>407.5</ele><time>2026-04-09T12:13:44.001Z</time></trkpt><trkpt lat="44.606440766317675" lon="8.39358785898305"><ele>411.0</ele><time>2026-04-09T12:13:45.001Z</time></trkpt><trkpt lat="44.60635258784025" lon="8.393584849033697"><ele>411.0</ele><time>2026-04-09T12:13:46.001Z</time></trkpt><trkpt lat="44.606267203335456" lon="8.393608081385787"><ele>411.0</ele><time>2026-04-09T12:13:47.001Z</time></trkpt><trkpt lat="44.60619185418272" lon="8.393611946500526"><ele>411.0</ele><time>2026-04-09T12:13:48.001Z</time></trkpt><trkpt lat="44.60612407407593" lon="8.393588355939453"><ele>411.0</ele><time>2026-04-09T12:13:49.001Z</time></trkpt><trkpt lat="44.60605725718213" lon="8.393528707132662"><ele>411.0</ele><time>2026-04-09T12:13:50.001Z</time></trkpt><trkpt lat="44.60600829087759" lon="8.393440091347209"><ele>411.0</ele><time>2026-04-09T12:13:51.001Z</time></trkpt><trkpt lat="44.60595989143779" lon="8.393335720217992"><ele>408.20000000000005</ele><time>2026-04-09T12:13:52.001Z</time></trkpt><trkpt lat="44.60589192761327" lon="8.39324418251298"><ele>405.40000000000003</ele><time>2026-04-09T12:13:53.001Z</time></trkpt><trkpt lat="44.60580170985775" lon="8.393192973570944"><ele>402.6</ele><time>2026-04-09T12:13:54.001Z</time></trkpt><trkpt lat="44.60570618278614" lon="8.393172829542312"><ele>399.8</ele><time>2026-04-09T12:13:55.001Z</time></trkpt><trkpt lat="44.60561744691877" lon="8.393146297058433"><ele>397.0</ele><time>2026-04-09T12:13:56.001Z</time></trkpt><trkpt lat="44.605538508084315" lon="8.393089807602305"><ele>397.00000000000006</ele><time>2026-04-09T12:13:57.001Z</time></trkpt><trkpt lat="44.60546637757154" lon="8.393024675457337"><ele>397.0</ele><time>2026-04-09T12:13:58.001Z</time></trkpt><trkpt lat="44.60539792428604" lon="8.392973550392469"><ele>397.0</ele><time>2026-04-09T12:13:59.001Z</time></trkpt><trkpt lat="44.60531914837598" lon="8.392963307189254"><ele>397.0</ele><time>2026-04-09T12:14:00.001Z</time></trkpt><trkpt lat="44.605240572677296" lon="8.3929924693719"><ele>397.00000000000006</ele><time>2026-04-09T12:14:01.001Z</time></trkpt><trkpt lat="44.605156508346425" lon="8.393028406394938"><ele>397.0</ele><time>2026-04-09T12:14:02.001Z</time></trkpt><trkpt lat="44.60507656007776" lon="8.393017847105153"><ele>397.8</ele><time>2026-04-09T12:14:03.001Z</time></trkpt><trkpt lat="44.60500624208978" lon="8.393018317542722"><ele>398.6</ele><time>2026-04-09T12:14:04.001Z</time></trkpt><trkpt lat="44.60494890497682" lon="8.393068546224095"><ele>399.40000000000003</ele><time>2026-04-09T12:14:05.001Z</time></trkpt><trkpt lat="44.60491499105269" lon="8.393225190510176"><ele>400.20000000000005</ele><time>2026-04-09T12:14:07.001Z</time></trkpt><trkpt lat="44.604914229179386" lon="8.393386614112094"><ele>401.0</ele><time>2026-04-09T12:14:09.001Z</time></trkpt><trkpt lat="44.60484312288518" lon="8.393531609369564"><ele>400.99999999999994</ele><time>2026-04-09T12:14:11.001Z</time></trkpt><trkpt lat="44.60478852704704" lon="8.393579254264784"><ele>401.0</ele><time>2026-04-09T12:14:12.001Z</time></trkpt><trkpt lat="44.604727869589496" lon="8.393613082266588"><ele>401.0</ele><time>2026-04-09T12:14:13.001Z</time></trkpt><trkpt lat="44.60467182512303" lon="8.393658654936585"><ele>401.0</ele><time>2026-04-09T12:14:14.001Z</time></trkpt><trkpt lat="44.60461022312681" lon="8.393763891167232"><ele>400.99999999999994</ele><time>2026-04-09T12:14:16.001Z</time></trkpt><trkpt lat="44.604558115793786" lon="8.393904465886004"><ele>401.0</ele><time>2026-04-09T12:14:18.001Z</time></trkpt><trkpt lat="44.60453142357466" lon="8.394040646297247"><ele>401.66666666666663</ele><time>2026-04-09T12:14:20.001Z</time></trkpt><trkpt lat="44.60450626413493" lon="8.394177127790307"><ele>402.3333333333333</ele><time>2026-04-09T12:14:22.001Z</time></trkpt><trkpt lat="44.6044899998294" lon="8.39427768983761"><ele>403.0</ele><time>2026-04-09T12:14:24.001Z</time></trkpt><trkpt lat="44.60446829493502" lon="8.394388061730123"><ele>403.66666666666663</ele><time>2026-04-09T12:14:26.001Z</time></trkpt><trkpt lat="44.604437770827076" lon="8.394508701118157"><ele>404.3333333333333</ele><time>2026-04-09T12:14:28.001Z</time></trkpt><trkpt lat="44.604400091543745" lon="8.394623050843817"><ele>405.0</ele><time>2026-04-09T12:14:30.001Z</time></trkpt><trkpt lat="44.604358481534305" lon="8.394727717304034"><ele>402.2</ele><time>2026-04-09T12:14:32.001Z</time></trkpt><trkpt lat="44.60431891537234" lon="8.394845301542304"><ele>399.4</ele><time>2026-04-09T12:14:34.001Z</time></trkpt><trkpt lat="44.60426668957448" lon="8.394985716269101"><ele>396.6</ele><time>2026-04-09T12:14:36.001Z</time></trkpt><trkpt lat="44.60419219470303" lon="8.395141203383261"><ele>393.8</ele><time>2026-04-09T12:14:38.001Z</time></trkpt><trkpt lat="44.604136138569515" lon="8.395212847150749"><ele>391.0</ele><time>2026-04-09T12:14:39.001Z</time></trkpt><trkpt lat="44.60406634515042" lon="8.395282126633822"><ele>391.00000000000006</ele><time>2026-04-09T12:14:40.001Z</time></trkpt><trkpt lat="44.60399330936468" lon="8.395344458478966"><ele>391.0</ele><time>2026-04-09T12:14:41.001Z</time></trkpt><trkpt lat="44.60391427651728" lon="8.395406469919982"><ele>391.0</ele><time>2026-04-09T12:14:42.001Z</time></trkpt><trkpt lat="44.60383601165102" lon="8.395468678598332"><ele>391.0</ele><time>2026-04-09T12:14:43.001Z</time></trkpt><trkpt lat="44.6037605524125" lon="8.39552960443111"><ele>391.00000000000006</ele><time>2026-04-09T12:14:44.001Z</time></trkpt><trkpt lat="44.60368313835338" lon="8.395579867621578"><ele>391.0</ele><time>2026-04-09T12:14:45.001Z</time></trkpt><trkpt lat="44.60360001646997" lon="8.395608672682679"><ele>392.6666666666667</ele><time>2026-04-09T12:14:46.001Z</time></trkpt><trkpt lat="44.603514517564825" lon="8.395617603886581"><ele>394.33333333333337</ele><time>2026-04-09T12:14:47.001Z</time></trkpt><trkpt lat="44.60343091376575" lon="8.395622845757472"><ele>396.0</ele><time>2026-04-09T12:14:48.001Z</time></trkpt><trkpt lat="44.6033531422987" lon="8.395630115887405"><ele>397.66666666666663</ele><time>2026-04-09T12:14:49.001Z</time></trkpt><trkpt lat="44.60328399859189" lon="8.395669718643521"><ele>399.3333333333333</ele><time>2026-04-09T12:14:50.001Z</time></trkpt><trkpt lat="44.603219672287985" lon="8.395732803853287"><ele>401.0</ele><time>2026-04-09T12:14:51.001Z</time></trkpt><trkpt lat="44.60315915948601" lon="8.395806540903152"><ele>401.0</ele><time>2026-04-09T12:14:52.001Z</time></trkpt><trkpt lat="44.60309766170144" lon="8.395878899375115"><ele>401.0</ele><time>2026-04-09T12:14:53.001Z</time></trkpt><trkpt lat="44.60302770041968" lon="8.39594076182213"><ele>401.0</ele><time>2026-04-09T12:14:54.001Z</time></trkpt><trkpt lat="44.60294472661441" lon="8.395999269977525"><ele>401.0</ele><time>2026-04-09T12:14:55.001Z</time></trkpt><trkpt lat="44.60285623430936" lon="8.396059851844589"><ele>401.0</ele><time>2026-04-09T12:14:56.001Z</time></trkpt><trkpt lat="44.60277380034793" lon="8.39614055889259"><ele>401.6</ele><time>2026-04-09T12:14:57.001Z</time></trkpt><trkpt lat="44.602699771241646" lon="8.396233298246615"><ele>402.20000000000005</ele><time>2026-04-09T12:14:58.001Z</time></trkpt><trkpt lat="44.602624589269965" lon="8.396316662927331"><ele>402.79999999999995</ele><time>2026-04-09T12:14:59.001Z</time></trkpt><trkpt lat="44.60255411269066" lon="8.396395629742013"><ele>403.4</ele><time>2026-04-09T12:15:00.001Z</time></trkpt><trkpt lat="44.60248447031997" lon="8.39647386558893"><ele>404.0</ele><time>2026-04-09T12:15:01.001Z</time></trkpt><trkpt lat="44.60242463086031" lon="8.396563603407404"><ele>404.0</ele><time>2026-04-09T12:15:02.001Z</time></trkpt><trkpt lat="44.60236881518034" lon="8.39666422112551"><ele>404.0</ele><time>2026-04-09T12:15:03.001Z</time></trkpt><trkpt lat="44.60231482804" lon="8.396767892290539"><ele>404.0</ele><time>2026-04-09T12:15:04.001Z</time></trkpt><trkpt lat="44.602266669095584" lon="8.396867584687172"><ele>404.0</ele><time>2026-04-09T12:15:05.002Z</time></trkpt><trkpt lat="44.6022266523269" lon="8.396954303408716"><ele>404.0</ele><time>2026-04-09T12:15:06.002Z</time></trkpt><trkpt lat="44.602172509878756" lon="8.39709276041072"><ele>403.99999999999994</ele><time>2026-04-09T12:15:08.002Z</time></trkpt><trkpt lat="44.60212818647281" lon="8.397170061967836"><ele>404.0</ele><time>2026-04-09T12:15:10.002Z</time></trkpt><trkpt lat="44.602124245460594" lon="8.39701582281822"><ele>404.0</ele><time>2026-04-09T12:15:30.001Z</time></trkpt><trkpt lat="44.6021322695038" lon="8.396916903778752"><ele>404.0</ele><time>2026-04-09T12:15:31.001Z</time></trkpt><trkpt lat="44.60213617351036" lon="8.396810747312736"><ele>403.99999999999994</ele><time>2026-04-09T12:15:32.001Z</time></trkpt><trkpt lat="44.602133804698326" lon="8.39669343435306"><ele>404.0</ele><time>2026-04-09T12:15:33.001Z</time></trkpt><trkpt lat="44.60212840393099" lon="8.396594589095647"><ele>403.99999999999994</ele><time>2026-04-09T12:15:34.001Z</time></trkpt><trkpt lat="44.6021222729901" lon="8.396492223598466"><ele>404.0</ele><time>2026-04-09T12:15:35.001Z</time></trkpt><trkpt lat="44.602115031598665" lon="8.396384147208176"><ele>404.0</ele><time>2026-04-09T12:15:36.001Z</time></trkpt><trkpt lat="44.60210888203606" lon="8.39627599160553"><ele>404.0</ele><time>2026-04-09T12:15:37.001Z</time></trkpt><trkpt lat="44.60210477194039" lon="8.396163463770076"><ele>403.99999999999994</ele><time>2026-04-09T12:15:38.001Z</time></trkpt><trkpt lat="44.60210668003007" lon="8.396046142628016"><ele>404.0</ele><time>2026-04-09T12:15:39.001Z</time></trkpt><trkpt lat="44.60211601003029" lon="8.395910808185608"><ele>406.5</ele><time>2026-04-09T12:15:40.001Z</time></trkpt><trkpt lat="44.602117380526614" lon="8.395763451544902"><ele>409.0</ele><time>2026-04-09T12:15:41.001Z</time></trkpt><trkpt lat="44.602140993147046" lon="8.39560840846549"><ele>411.5</ele><time>2026-04-09T12:15:42.001Z</time></trkpt><trkpt lat="44.60218992715953" lon="8.395454164757611"><ele>414.0</ele><time>2026-04-09T12:15:43.001Z</time></trkpt><trkpt lat="44.60219616601887" lon="8.395289396728577"><ele>416.5</ele><time>2026-04-09T12:15:44.001Z</time></trkpt><trkpt lat="44.6022208205906" lon="8.395134159825076"><ele>419.0</ele><time>2026-04-09T12:15:45.001Z</time></trkpt><trkpt lat="44.60223057072891" lon="8.394969399640537"><ele>421.5</ele><time>2026-04-09T12:15:46.001Z</time></trkpt><trkpt lat="44.60222685973686" lon="8.394792845785888"><ele>424.0</ele><time>2026-04-09T12:15:47.001Z</time></trkpt><trkpt lat="44.60224208348733" lon="8.394613778608619"><ele>426.0</ele><time>2026-04-09T12:15:48.001Z</time></trkpt><trkpt lat="44.60224722824785" lon="8.394452222743089"><ele>428.0</ele><time>2026-04-09T12:15:49.001Z</time></trkpt><trkpt lat="44.602270431093764" lon="8.394302828433181"><ele>430.0</ele><time>2026-04-09T12:15:50.001Z</time></trkpt><trkpt lat="44.60232336533372" lon="8.394183784348808"><ele>432.0</ele><time>2026-04-09T12:15:51.001Z</time></trkpt><trkpt lat="44.60239208926624" lon="8.394071334159783"><ele>434.0</ele><time>2026-04-09T12:15:52.001Z</time></trkpt><trkpt lat="44.60247944804685" lon="8.393973500834196"><ele>434.0</ele><time>2026-04-09T12:15:53.001Z</time></trkpt><trkpt lat="44.60257527265906" lon="8.393859719110573"><ele>434.0</ele><time>2026-04-09T12:15:54.001Z</time></trkpt><trkpt lat="44.602670572723945" lon="8.393733456317795"><ele>434.0</ele><time>2026-04-09T12:15:55.001Z</time></trkpt><trkpt lat="44.60275688243251" lon="8.39360826088343"><ele>434.0</ele><time>2026-04-09T12:15:56.001Z</time></trkpt><trkpt lat="44.60283095040384" lon="8.393480733573988"><ele>433.5</ele><time>2026-04-09T12:15:57.001Z</time></trkpt><trkpt lat="44.602895641399044" lon="8.393337250545839"><ele>433.0</ele><time>2026-04-09T12:15:58.001Z</time></trkpt><trkpt lat="44.60295621655302" lon="8.393189888520174"><ele>432.5</ele><time>2026-04-09T12:15:59.001Z</time></trkpt><trkpt lat="44.60301523347179" lon="8.393043575662855"><ele>432.0</ele><time>2026-04-09T12:16:00.001Z</time></trkpt><trkpt lat="44.60306892824584" lon="8.392910457406911"><ele>434.20000000000005</ele><time>2026-04-09T12:16:01.001Z</time></trkpt><trkpt lat="44.603117033124356" lon="8.392787931151693"><ele>436.40000000000003</ele><time>2026-04-09T12:16:02.001Z</time></trkpt><trkpt lat="44.603159169284844" lon="8.39266495285807"><ele>438.59999999999997</ele><time>2026-04-09T12:16:03.001Z</time></trkpt><trkpt lat="44.603196781189915" lon="8.392523543963062"><ele>440.79999999999995</ele><time>2026-04-09T12:16:04.001Z</time></trkpt><trkpt lat="44.60322546993559" lon="8.392368229689378"><ele>443.0</ele><time>2026-04-09T12:16:05.001Z</time></trkpt><trkpt lat="44.6032462863449" lon="8.392198236126985"><ele>444.0</ele><time>2026-04-09T12:16:06.001Z</time></trkpt><trkpt lat="44.60325954233253" lon="8.392025179232881"><ele>445.0</ele><time>2026-04-09T12:16:07.001Z</time></trkpt><trkpt lat="44.60327687531931" lon="8.391862307826141"><ele>446.0</ele><time>2026-04-09T12:16:08.001Z</time></trkpt><trkpt lat="44.603309277457704" lon="8.39170353082788"><ele>447.0</ele><time>2026-04-09T12:16:09.001Z</time></trkpt><trkpt lat="44.60335676543565" lon="8.39153666770797"><ele>447.0</ele><time>2026-04-09T12:16:10.001Z</time></trkpt><trkpt lat="44.603407435468235" lon="8.391360793300016"><ele>447.0</ele><time>2026-04-09T12:16:11.001Z</time></trkpt><trkpt lat="44.60345349316833" lon="8.391191126158338"><ele>447.0</ele><time>2026-04-09T12:16:12.001Z</time></trkpt><trkpt lat="44.603488773307426" lon="8.39102822366984"><ele>447.0</ele><time>2026-04-09T12:16:13.001Z</time></trkpt><trkpt lat="44.603493746854134" lon="8.390870340888128"><ele>447.8333333333333</ele><time>2026-04-09T12:16:14.001Z</time></trkpt><trkpt lat="44.60348292199831" lon="8.390729156343344"><ele>448.66666666666663</ele><time>2026-04-09T12:16:15.001Z</time></trkpt><trkpt lat="44.603474509325856" lon="8.390605916984855"><ele>449.5</ele><time>2026-04-09T12:16:16.001Z</time></trkpt><trkpt lat="44.603479369962976" lon="8.39049762685327"><ele>450.3333333333333</ele><time>2026-04-09T12:16:17.001Z</time></trkpt><trkpt lat="44.60349616748871" lon="8.39040767152028"><ele>451.16666666666663</ele><time>2026-04-09T12:16:18.001Z</time></trkpt><trkpt lat="44.6035912470757" lon="8.390336470232315"><ele>452.0</ele><time>2026-04-09T12:16:20.001Z</time></trkpt><trkpt lat="44.603720805304114" lon="8.390341217671399"><ele>453.49999999999994</ele><time>2026-04-09T12:16:22.001Z</time></trkpt><trkpt lat="44.603798013871746" lon="8.390332396751964"><ele>455.0</ele><time>2026-04-09T12:16:23.001Z</time></trkpt><trkpt lat="44.603878593100944" lon="8.39030051161501"><ele>456.5</ele><time>2026-04-09T12:16:24.001Z</time></trkpt><trkpt lat="44.603957384043575" lon="8.390242834397796"><ele>458.0</ele><time>2026-04-09T12:16:25.001Z</time></trkpt><trkpt lat="44.60402543627836" lon="8.390170870491735"><ele>459.49999999999994</ele><time>2026-04-09T12:16:26.001Z</time></trkpt><trkpt lat="44.60408810699103" lon="8.39009856464559"><ele>461.0</ele><time>2026-04-09T12:16:27.001Z</time></trkpt><trkpt lat="44.6041493921212" lon="8.390025901287702"><ele>461.0</ele><time>2026-04-09T12:16:28.001Z</time></trkpt><trkpt lat="44.60421459373329" lon="8.389953531001682"><ele>461.0</ele><time>2026-04-09T12:16:29.001Z</time></trkpt><trkpt lat="44.60428375521177" lon="8.38987227138229"><ele>461.0</ele><time>2026-04-09T12:16:30.001Z</time></trkpt><trkpt lat="44.604351110689464" lon="8.389771411300503"><ele>461.0</ele><time>2026-04-09T12:16:31.001Z</time></trkpt><trkpt lat="44.60441469741523" lon="8.389647492935046"><ele>461.0</ele><time>2026-04-09T12:16:32.001Z</time></trkpt><trkpt lat="44.604471613331505" lon="8.389515139474778"><ele>467.0</ele><time>2026-04-09T12:16:33.001Z</time></trkpt><trkpt lat="44.60453952875717" lon="8.38938630225813"><ele>473.0</ele><time>2026-04-09T12:16:34.001Z</time></trkpt><trkpt lat="44.60460364458364" lon="8.389245148223523"><ele>479.0</ele><time>2026-04-09T12:16:35.001Z</time></trkpt><trkpt lat="44.604675999340024" lon="8.389117991888682"><ele>485.0</ele><time>2026-04-09T12:16:36.001Z</time></trkpt><trkpt lat="44.60475817138061" lon="8.388996769105033"><ele>485.0</ele><time>2026-04-09T12:16:37.001Z</time></trkpt><trkpt lat="44.604828911129445" lon="8.388858858266634"><ele>485.0</ele><time>2026-04-09T12:16:38.001Z</time></trkpt><trkpt lat="44.60489298677639" lon="8.38870182485624"><ele>485.0</ele><time>2026-04-09T12:16:39.001Z</time></trkpt><trkpt lat="44.604995524895315" lon="8.388583365575"><ele>485.0</ele><time>2026-04-09T12:16:40.001Z</time></trkpt><trkpt lat="44.60507765210279" lon="8.388470703234626"><ele>483.8</ele><time>2026-04-09T12:16:41.001Z</time></trkpt><trkpt lat="44.60514612789183" lon="8.388361604852212"><ele>482.6</ele><time>2026-04-09T12:16:42.001Z</time></trkpt><trkpt lat="44.60520874624692" lon="8.388275447855177"><ele>481.4</ele><time>2026-04-09T12:16:43.001Z</time></trkpt><trkpt lat="44.60525532010034" lon="8.388173067011826"><ele>480.2</ele><time>2026-04-09T12:16:44.001Z</time></trkpt><trkpt lat="44.605289747051714" lon="8.388051943167124"><ele>479.0</ele><time>2026-04-09T12:16:45.001Z</time></trkpt><trkpt lat="44.605279294170636" lon="8.387903104109036"><ele>479.0</ele><time>2026-04-09T12:16:46.001Z</time></trkpt><trkpt lat="44.60525225581263" lon="8.387754366393308"><ele>479.0</ele><time>2026-04-09T12:16:47.001Z</time></trkpt><trkpt lat="44.60520254536371" lon="8.387611338194535"><ele>479.0</ele><time>2026-04-09T12:16:48.001Z</time></trkpt><trkpt lat="44.605159807254765" lon="8.387462312938876"><ele>479.0</ele><time>2026-04-09T12:16:49.001Z</time></trkpt><trkpt lat="44.60510369717733" lon="8.387332594428285"><ele>479.0</ele><time>2026-04-09T12:16:50.001Z</time></trkpt><trkpt lat="44.60503440081551" lon="8.387219017587725"><ele>485.79999999999995</ele><time>2026-04-09T12:16:51.001Z</time></trkpt><trkpt lat="44.60495358110137" lon="8.387119589833041"><ele>492.59999999999997</ele><time>2026-04-09T12:16:52.001Z</time></trkpt><trkpt lat="44.604864916691696" lon="8.387047103814725"><ele>499.4</ele><time>2026-04-09T12:16:53.001Z</time></trkpt><trkpt lat="44.60477680703802" lon="8.387005962871259"><ele>506.2</ele><time>2026-04-09T12:16:54.001Z</time></trkpt><trkpt lat="44.60468228215549" lon="8.387003923343453"><ele>513.0</ele><time>2026-04-09T12:16:55.001Z</time></trkpt><trkpt lat="44.60459260423429" lon="8.387036800112508"><ele>513.0</ele><time>2026-04-09T12:16:56.001Z</time></trkpt><trkpt lat="44.60450501510266" lon="8.387065066404107"><ele>513.0</ele><time>2026-04-09T12:16:57.001Z</time></trkpt><trkpt lat="44.604413232160795" lon="8.38705322982461"><ele>513.0</ele><time>2026-04-09T12:16:58.001Z</time></trkpt><trkpt lat="44.60433219927192" lon="8.386999042795361"><ele>513.0</ele><time>2026-04-09T12:16:59.001Z</time></trkpt><trkpt lat="44.6042632090645" lon="8.386917669835606"><ele>513.0</ele><time>2026-04-09T12:17:00.001Z</time></trkpt><trkpt lat="44.60420775557309" lon="8.38681011214825"><ele>513.6</ele><time>2026-04-09T12:17:01.001Z</time></trkpt><trkpt lat="44.604161841688835" lon="8.386682678492978"><ele>514.1999999999999</ele><time>2026-04-09T12:17:02.001Z</time></trkpt><trkpt lat="44.6041230775892" lon="8.386546590815371"><ele>514.8</ele><time>2026-04-09T12:17:03.001Z</time></trkpt><trkpt lat="44.60408904003569" lon="8.386407370137952"><ele>515.4</ele><time>2026-04-09T12:17:04.001Z</time></trkpt><trkpt lat="44.60404617232534" lon="8.386268965165959"><ele>516.0</ele><time>2026-04-09T12:17:05.001Z</time></trkpt><trkpt lat="44.60395624451851" lon="8.386164468277645"><ele>516.0</ele><time>2026-04-09T12:17:06.001Z</time></trkpt><trkpt lat="44.60383207903147" lon="8.386113306890342"><ele>516.0</ele><time>2026-04-09T12:17:07.001Z</time></trkpt><trkpt lat="44.60369771151927" lon="8.38610144823039"><ele>516.0</ele><time>2026-04-09T12:17:08.001Z</time></trkpt><trkpt lat="44.603569003944564" lon="8.386066447090766"><ele>516.0</ele><time>2026-04-09T12:17:09.001Z</time></trkpt><trkpt lat="44.60344873525185" lon="8.385995995717026"><ele>511.75</ele><time>2026-04-09T12:17:10.001Z</time></trkpt><trkpt lat="44.60331808454619" lon="8.385958100531564"><ele>507.5</ele><time>2026-04-09T12:17:11.001Z</time></trkpt><trkpt lat="44.60319353849998" lon="8.385900706274466"><ele>503.25</ele><time>2026-04-09T12:17:12.001Z</time></trkpt><trkpt lat="44.6030738814473" lon="8.38585532193361"><ele>499.0</ele><time>2026-04-09T12:17:13.001Z</time></trkpt><trkpt lat="44.602959987935" lon="8.385836001922563"><ele>499.0</ele><time>2026-04-09T12:17:14.001Z</time></trkpt><trkpt lat="44.6028507653758" lon="8.385833085203357"><ele>499.0</ele><time>2026-04-09T12:17:15.001Z</time></trkpt><trkpt lat="44.60274603946372" lon="8.38584031699713"><ele>499.0</ele><time>2026-04-09T12:17:16.001Z</time></trkpt><trkpt lat="44.60264919282476" lon="8.38583171962365"><ele>499.0</ele><time>2026-04-09T12:17:17.001Z</time></trkpt><trkpt lat="44.60256906702935" lon="8.38579186199694"><ele>499.0</ele><time>2026-04-09T12:17:18.001Z</time></trkpt><trkpt lat="44.60250324346172" lon="8.385725971408355"><ele>498.2</ele><time>2026-04-09T12:17:19.001Z</time></trkpt><trkpt lat="44.60246239933187" lon="8.385625711065323"><ele>497.4</ele><time>2026-04-09T12:17:20.001Z</time></trkpt><trkpt lat="44.60246166631963" lon="8.38550698106979"><ele>496.6</ele><time>2026-04-09T12:17:21.001Z</time></trkpt><trkpt lat="44.602464396884905" lon="8.385382300642078"><ele>495.8</ele><time>2026-04-09T12:17:22.001Z</time></trkpt><trkpt lat="44.60248711438534" lon="8.385252148582623"><ele>495.0</ele><time>2026-04-09T12:17:23.001Z</time></trkpt><trkpt lat="44.60249639039832" lon="8.3850984938088"><ele>498.6</ele><time>2026-04-09T12:17:24.002Z</time></trkpt><trkpt lat="44.60252668756467" lon="8.384941748424128"><ele>502.2</ele><time>2026-04-09T12:17:25.002Z</time></trkpt><trkpt lat="44.60250819095133" lon="8.38477447248063"><ele>505.79999999999995</ele><time>2026-04-09T12:17:26.002Z</time></trkpt><trkpt lat="44.602508591261206" lon="8.384619063161866"><ele>509.4</ele><time>2026-04-09T12:17:27.002Z</time></trkpt><trkpt lat="44.60251703668199" lon="8.384489228039476"><ele>513.0</ele><time>2026-04-09T12:17:28.002Z</time></trkpt><trkpt lat="44.60251776043642" lon="8.384380924362016"><ele>516.8</ele><time>2026-04-09T12:17:29.002Z</time></trkpt><trkpt lat="44.60251000341578" lon="8.384270324607018"><ele>520.5999999999999</ele><time>2026-04-09T12:17:30.002Z</time></trkpt><trkpt lat="44.602436608448535" lon="8.384199928086492"><ele>524.4000000000001</ele><time>2026-04-09T12:17:31.002Z</time></trkpt><trkpt lat="44.60235147284296" lon="8.384166420865382"><ele>528.2</ele><time>2026-04-09T12:17:32.002Z</time></trkpt><trkpt lat="44.60225593872111" lon="8.384168525190344"><ele>532.0</ele><time>2026-04-09T12:17:33.001Z</time></trkpt><trkpt lat="44.60215370685406" lon="8.38417543193499"><ele>532.0</ele><time>2026-04-09T12:17:34.001Z</time></trkpt><trkpt lat="44.60205263082838" lon="8.384155974385347"><ele>532.0</ele><time>2026-04-09T12:17:35.001Z</time></trkpt><trkpt lat="44.60197124762864" lon="8.38409653226493"><ele>532.0</ele><time>2026-04-09T12:17:36.001Z</time></trkpt><trkpt lat="44.60191031993814" lon="8.384005809363012"><ele>532.0</ele><time>2026-04-09T12:17:37.001Z</time></trkpt><trkpt lat="44.601867162673216" lon="8.383911020873535"><ele>532.0</ele><time>2026-04-09T12:17:38.001Z</time></trkpt><trkpt lat="44.601829520677605" lon="8.383826703436702"><ele>532.0</ele><time>2026-04-09T12:17:39.001Z</time></trkpt><trkpt lat="44.60176315180938" lon="8.383725205702158"><ele>532.4</ele><time>2026-04-09T12:17:41.001Z</time></trkpt><trkpt lat="44.60170276968628" lon="8.383648180450747"><ele>532.8000000000001</ele><time>2026-04-09T12:18:03.001Z</time></trkpt><trkpt lat="44.60158668296949" lon="8.383723708998993"><ele>533.2</ele><time>2026-04-09T12:18:05.001Z</time></trkpt><trkpt lat="44.60150689169662" lon="8.383812711105278"><ele>533.6</ele><time>2026-04-09T12:18:07.001Z</time></trkpt><trkpt lat="44.601405683492644" lon="8.383899871508849"><ele>534.0</ele><time>2026-04-09T12:18:09.001Z</time></trkpt><trkpt lat="44.60133411912941" lon="8.383922052046444"><ele>534.0000000000001</ele><time>2026-04-09T12:18:10.001Z</time></trkpt><trkpt lat="44.60126529384835" lon="8.383904032737213"><ele>534.0</ele><time>2026-04-09T12:18:11.001Z</time></trkpt><trkpt lat="44.601213818909095" lon="8.383837409986283"><ele>534.0</ele><time>2026-04-09T12:18:12.001Z</time></trkpt><trkpt lat="44.60118451761773" lon="8.383747521164606"><ele>534.0</ele><time>2026-04-09T12:18:13.001Z</time></trkpt><trkpt lat="44.601155253878645" lon="8.383663125726958"><ele>534.0</ele><time>2026-04-09T12:18:14.001Z</time></trkpt><trkpt lat="44.60111070790788" lon="8.383576408162293"><ele>534.0000000000001</ele><time>2026-04-09T12:18:15.001Z</time></trkpt><trkpt lat="44.601049950451376" lon="8.38349825879533"><ele>534.0</ele><time>2026-04-09T12:18:16.001Z</time></trkpt><trkpt lat="44.600988662743774" lon="8.38343012907295"><ele>531.6</ele><time>2026-04-09T12:18:17.001Z</time></trkpt><trkpt lat="44.60093321782334" lon="8.383361822990576"><ele>529.2</ele><time>2026-04-09T12:18:18.001Z</time></trkpt><trkpt lat="44.600884521140344" lon="8.383286415408497"><ele>526.8000000000001</ele><time>2026-04-09T12:18:19.001Z</time></trkpt><trkpt lat="44.60086404878056" lon="8.383149285327999"><ele>524.4</ele><time>2026-04-09T12:18:21.001Z</time></trkpt><trkpt lat="44.600826405885556" lon="8.383000906247645"><ele>522.0</ele><time>2026-04-09T12:18:23.001Z</time></trkpt><trkpt lat="44.60079359757646" lon="8.382835386306985"><ele>520.0</ele><time>2026-04-09T12:18:25.001Z</time></trkpt><trkpt lat="44.60076149826798" lon="8.382673324685795"><ele>518.0</ele><time>2026-04-09T12:18:27.001Z</time></trkpt><trkpt lat="44.60072317791905" lon="8.382540601562997"><ele>516.0</ele><time>2026-04-09T12:18:29.001Z</time></trkpt><trkpt lat="44.600716365199105" lon="8.382418915934295"><ele>514.0</ele><time>2026-04-09T12:18:32.001Z</time></trkpt><trkpt lat="44.6007349581214" lon="8.38252344288719"><ele>512.0</ele><time>2026-04-09T12:20:12.001Z</time></trkpt><trkpt lat="44.60076499468754" lon="8.382679484905374"><ele>511.99999999999994</ele><time>2026-04-09T12:20:14.001Z</time></trkpt><trkpt lat="44.60078520209717" lon="8.382781870897963"><ele>512.0</ele><time>2026-04-09T12:20:15.001Z</time></trkpt><trkpt lat="44.60080621846974" lon="8.382888355587003"><ele>512.0</ele><time>2026-04-09T12:20:16.001Z</time></trkpt><trkpt lat="44.60082590473714" lon="8.382988100541283"><ele>512.0</ele><time>2026-04-09T12:20:17.001Z</time></trkpt><trkpt lat="44.60084512589364" lon="8.383080783021489"><ele>511.99999999999994</ele><time>2026-04-09T12:20:18.001Z</time></trkpt><trkpt lat="44.60087182344092" lon="8.383184193689294"><ele>512.0</ele><time>2026-04-09T12:20:19.001Z</time></trkpt><trkpt lat="44.600896079717835" lon="8.38330082291883"><ele>514.5</ele><time>2026-04-09T12:20:20.001Z</time></trkpt><trkpt lat="44.601044925082626" lon="8.383531810673912"><ele>517.0</ele><time>2026-04-09T12:20:22.001Z</time></trkpt><trkpt lat="44.60110223518118" lon="8.383615074580854"><ele>519.5</ele><time>2026-04-09T12:20:23.001Z</time></trkpt><trkpt lat="44.60114618208095" lon="8.383703278226914"><ele>522.0</ele><time>2026-04-09T12:20:24.001Z</time></trkpt><trkpt lat="44.60117965664292" lon="8.38379271434973"><ele>521.0</ele><time>2026-04-09T12:20:25.001Z</time></trkpt><trkpt lat="44.60121665276139" lon="8.383869982261729"><ele>520.0</ele><time>2026-04-09T12:20:26.001Z</time></trkpt><trkpt lat="44.60126712301108" lon="8.383924327701076"><ele>519.0</ele><time>2026-04-09T12:20:27.001Z</time></trkpt><trkpt lat="44.60133828524318" lon="8.383947602913912"><ele>518.0</ele><time>2026-04-09T12:20:28.001Z</time></trkpt><trkpt lat="44.60141580744446" lon="8.383932803346385"><ele>517.0</ele><time>2026-04-09T12:20:29.001Z</time></trkpt><trkpt lat="44.60148381561865" lon="8.383879045434037"><ele>516.0</ele><time>2026-04-09T12:20:30.001Z</time></trkpt><trkpt lat="44.601541671560874" lon="8.383816444153831"><ele>515.0</ele><time>2026-04-09T12:20:31.001Z</time></trkpt><trkpt lat="44.60159730602909" lon="8.3837540795766"><ele>515.0</ele><time>2026-04-09T12:20:32.001Z</time></trkpt><trkpt lat="44.60165437475686" lon="8.383700372644936"><ele>515.0</ele><time>2026-04-09T12:20:33.001Z</time></trkpt><trkpt lat="44.60171666243519" lon="8.383665060260387"><ele>515.0</ele><time>2026-04-09T12:20:34.001Z</time></trkpt><trkpt lat="44.60178901786581" lon="8.383670975710238"><ele>515.0</ele><time>2026-04-09T12:20:35.001Z</time></trkpt><trkpt lat="44.60185822712399" lon="8.383730519436494"><ele>515.0</ele><time>2026-04-09T12:20:36.001Z</time></trkpt><trkpt lat="44.601913824070735" lon="8.383820995029733"><ele>515.0</ele><time>2026-04-09T12:20:37.001Z</time></trkpt><trkpt lat="44.601963837313185" lon="8.383911773296942"><ele>518.4</ele><time>2026-04-09T12:20:38.001Z</time></trkpt><trkpt lat="44.60203254073155" lon="8.38397328677438"><ele>521.8</ele><time>2026-04-09T12:20:39.001Z</time></trkpt><trkpt lat="44.602121171585196" lon="8.383993765537683"><ele>525.2</ele><time>2026-04-09T12:20:40.001Z</time></trkpt><trkpt lat="44.60222103758266" lon="8.383992554048609"><ele>528.6</ele><time>2026-04-09T12:20:41.001Z</time></trkpt><trkpt lat="44.6023216773833" lon="8.383985635404434"><ele>532.0</ele><time>2026-04-09T12:20:42.001Z</time></trkpt><trkpt lat="44.60242108187019" lon="8.383974287411045"><ele>532.0</ele><time>2026-04-09T12:20:43.001Z</time></trkpt><trkpt lat="44.60249986642247" lon="8.383966464811467"><ele>532.0</ele><time>2026-04-09T12:20:44.001Z</time></trkpt><trkpt lat="44.602565276113666" lon="8.383987033307463"><ele>532.0</ele><time>2026-04-09T12:20:45.001Z</time></trkpt><trkpt lat="44.602621139717314" lon="8.384049699624239"><ele>532.0</ele><time>2026-04-09T12:20:46.001Z</time></trkpt><trkpt lat="44.602648017747725" lon="8.384169589214139"><ele>532.0</ele><time>2026-04-09T12:20:47.001Z</time></trkpt><trkpt lat="44.60265792525953" lon="8.384296931789507"><ele>532.0</ele><time>2026-04-09T12:20:48.001Z</time></trkpt><trkpt lat="44.6026761452129" lon="8.38443197285751"><ele>532.0</ele><time>2026-04-09T12:20:49.001Z</time></trkpt><trkpt lat="44.60269988252329" lon="8.384573323239344"><ele>532.0</ele><time>2026-04-09T12:20:50.001Z</time></trkpt><trkpt lat="44.60273411573277" lon="8.384709108065195"><ele>532.0</ele><time>2026-04-09T12:20:51.001Z</time></trkpt><trkpt lat="44.602766936120965" lon="8.384824529971418"><ele>532.0</ele><time>2026-04-09T12:20:52.001Z</time></trkpt><trkpt lat="44.60280418784748" lon="8.384915743952302"><ele>532.0</ele><time>2026-04-09T12:20:53.001Z</time></trkpt><trkpt lat="44.60284949119029" lon="8.384977137135017"><ele>532.0</ele><time>2026-04-09T12:20:54.001Z</time></trkpt><trkpt lat="44.60298707539684" lon="8.385014323321897"><ele>532.8000000000001</ele><time>2026-04-09T12:20:56.001Z</time></trkpt><trkpt lat="44.60307173594674" lon="8.38495836718056"><ele>533.6</ele><time>2026-04-09T12:20:57.001Z</time></trkpt><trkpt lat="44.60316174271482" lon="8.38491950624016"><ele>534.4000000000001</ele><time>2026-04-09T12:20:58.001Z</time></trkpt><trkpt lat="44.603262654239245" lon="8.384886958786803"><ele>535.2</ele><time>2026-04-09T12:20:59.001Z</time></trkpt><trkpt lat="44.603372800393835" lon="8.3848712906113"><ele>536.0</ele><time>2026-04-09T12:21:00.001Z</time></trkpt><trkpt lat="44.603494839684565" lon="8.384871939571026"><ele>536.0</ele><time>2026-04-09T12:21:01.001Z</time></trkpt><trkpt lat="44.60361387276168" lon="8.3849018189951"><ele>536.0</ele><time>2026-04-09T12:21:02.001Z</time></trkpt><trkpt lat="44.60373382815335" lon="8.384937994134013"><ele>536.0</ele><time>2026-04-09T12:21:03.001Z</time></trkpt><trkpt lat="44.60385409843152" lon="8.384958945930716"><ele>536.0</ele><time>2026-04-09T12:21:04.001Z</time></trkpt><trkpt lat="44.603964644033354" lon="8.38495322083463"><ele>538.25</ele><time>2026-04-09T12:21:05.001Z</time></trkpt><trkpt lat="44.60407037266394" lon="8.384969268381363"><ele>540.5</ele><time>2026-04-09T12:21:06.001Z</time></trkpt><trkpt lat="44.604172874083616" lon="8.385058559833206"><ele>542.75</ele><time>2026-04-09T12:21:07.001Z</time></trkpt><trkpt lat="44.604247800611205" lon="8.385197885209248"><ele>545.0</ele><time>2026-04-09T12:21:08.001Z</time></trkpt><trkpt lat="44.60433117934199" lon="8.385337033665358"><ele>545.0</ele><time>2026-04-09T12:21:09.001Z</time></trkpt><trkpt lat="44.60441670551171" lon="8.385471917388502"><ele>545.0</ele><time>2026-04-09T12:21:10.001Z</time></trkpt><trkpt lat="44.6044734667295" lon="8.38561366959713"><ele>545.0</ele><time>2026-04-09T12:21:11.001Z</time></trkpt><trkpt lat="44.604526792782664" lon="8.385746367173773"><ele>545.0</ele><time>2026-04-09T12:21:12.001Z</time></trkpt><trkpt lat="44.60458027647727" lon="8.385872451492563"><ele>544.8</ele><time>2026-04-09T12:21:13.001Z</time></trkpt><trkpt lat="44.604632767853346" lon="8.385978076887346"><ele>544.6</ele><time>2026-04-09T12:21:14.001Z</time></trkpt><trkpt lat="44.604697324663995" lon="8.386057654578803"><ele>544.4</ele><time>2026-04-09T12:21:15.001Z</time></trkpt><trkpt lat="44.60477887106298" lon="8.38611215849669"><ele>544.2</ele><time>2026-04-09T12:21:16.001Z</time></trkpt><trkpt lat="44.604880684557926" lon="8.386136308047764"><ele>544.0</ele><time>2026-04-09T12:21:17.001Z</time></trkpt><trkpt lat="44.60498550571082" lon="8.386169226343238"><ele>544.0</ele><time>2026-04-09T12:21:18.001Z</time></trkpt><trkpt lat="44.605093815879336" lon="8.386188073997719"><ele>544.0</ele><time>2026-04-09T12:21:19.001Z</time></trkpt><trkpt lat="44.60519588543262" lon="8.386214151673403"><ele>544.0</ele><time>2026-04-09T12:21:20.001Z</time></trkpt><trkpt lat="44.605298751179454" lon="8.386266324390544"><ele>544.0</ele><time>2026-04-09T12:21:21.001Z</time></trkpt><trkpt lat="44.60540904960106" lon="8.386339454826638"><ele>544.0</ele><time>2026-04-09T12:21:22.001Z</time></trkpt><trkpt lat="44.60549994711834" lon="8.386470055686802"><ele>542.0</ele><time>2026-04-09T12:21:23.001Z</time></trkpt><trkpt lat="44.605600961522605" lon="8.38658307790667"><ele>540.0</ele><time>2026-04-09T12:21:24.001Z</time></trkpt><trkpt lat="44.60570858610173" lon="8.386702452801181"><ele>538.0</ele><time>2026-04-09T12:21:25.001Z</time></trkpt><trkpt lat="44.60583046381842" lon="8.386796770702919"><ele>536.0</ele><time>2026-04-09T12:21:26.001Z</time></trkpt><trkpt lat="44.60593478533398" lon="8.386900915312573"><ele>536.0</ele><time>2026-04-09T12:21:27.001Z</time></trkpt><trkpt lat="44.60602884147359" lon="8.386996993655146"><ele>536.0</ele><time>2026-04-09T12:21:28.001Z</time></trkpt><trkpt lat="44.60610778903008" lon="8.38709090898923"><ele>536.0</ele><time>2026-04-09T12:21:29.001Z</time></trkpt><trkpt lat="44.60616506718967" lon="8.387214368923544"><ele>536.0</ele><time>2026-04-09T12:21:30.001Z</time></trkpt><trkpt lat="44.6061998813975" lon="8.387349411992668"><ele>536.0</ele><time>2026-04-09T12:21:31.001Z</time></trkpt><trkpt lat="44.60620590845694" lon="8.387501567991631"><ele>535.8</ele><time>2026-04-09T12:21:32.001Z</time></trkpt><trkpt lat="44.60618886996366" lon="8.387660753015577"><ele>535.6</ele><time>2026-04-09T12:21:33.001Z</time></trkpt><trkpt lat="44.606166772424174" lon="8.387809978289317"><ele>535.4</ele><time>2026-04-09T12:21:34.001Z</time></trkpt><trkpt lat="44.60614534880124" lon="8.387938681440735"><ele>535.2</ele><time>2026-04-09T12:21:35.001Z</time></trkpt><trkpt lat="44.60613458819652" lon="8.38804077337502"><ele>535.0</ele><time>2026-04-09T12:21:36.001Z</time></trkpt><trkpt lat="44.60614398139361" lon="8.38813699324818"><ele>535.2</ele><time>2026-04-09T12:21:37.001Z</time></trkpt><trkpt lat="44.60619205039031" lon="8.38822901155214"><ele>535.4</ele><time>2026-04-09T12:21:38.001Z</time></trkpt><trkpt lat="44.60626804053518" lon="8.388313672652869"><ele>535.6</ele><time>2026-04-09T12:21:39.001Z</time></trkpt><trkpt lat="44.60635870802416" lon="8.388384375003746"><ele>535.8</ele><time>2026-04-09T12:21:40.001Z</time></trkpt><trkpt lat="44.60644862533666" lon="8.388457906887433"><ele>536.0</ele><time>2026-04-09T12:21:41.001Z</time></trkpt><trkpt lat="44.60654581631506" lon="8.388537386944314"><ele>536.0</ele><time>2026-04-09T12:21:42.001Z</time></trkpt><trkpt lat="44.60665939296513" lon="8.388609141290193"><ele>536.0</ele><time>2026-04-09T12:21:43.001Z</time></trkpt><trkpt lat="44.60677511398345" lon="8.388705642495504"><ele>536.0</ele><time>2026-04-09T12:21:44.001Z</time></trkpt><trkpt lat="44.606888321987505" lon="8.388796274368898"><ele>536.0</ele><time>2026-04-09T12:21:45Z</time></trkpt><trkpt lat="44.60699756914402" lon="8.38888092947665"><ele>534.5</ele><time>2026-04-09T12:21:46Z</time></trkpt><trkpt lat="44.607097830433055" lon="8.388975283904768"><ele>533.0</ele><time>2026-04-09T12:21:47Z</time></trkpt><trkpt lat="44.607210848403376" lon="8.389019464853117"><ele>531.5</ele><time>2026-04-09T12:21:48Z</time></trkpt><trkpt lat="44.60732036927929" lon="8.38905248330365"><ele>530.0</ele><time>2026-04-09T12:21:49Z</time></trkpt><trkpt lat="44.60741902056054" lon="8.389082101171317"><ele>530.0</ele><time>2026-04-09T12:21:50Z</time></trkpt><trkpt lat="44.60750199215196" lon="8.389082101173498"><ele>530.0</ele><time>2026-04-09T12:21:51Z</time></trkpt><trkpt lat="44.60757688856881" lon="8.389082101175536"><ele>530.0</ele><time>2026-04-09T12:21:52Z</time></trkpt><trkpt lat="44.607643879579264" lon="8.38909449212838"><ele>530.0</ele><time>2026-04-09T12:21:53Z</time></trkpt><trkpt lat="44.60769767340069" lon="8.389195884811222"><ele>530.0</ele><time>2026-04-09T12:21:54Z</time></trkpt><trkpt lat="44.60774558250587" lon="8.389317199385404"><ele>530.0</ele><time>2026-04-09T12:21:55Z</time></trkpt><trkpt lat="44.60780067554609" lon="8.389441625336788"><ele>528.5</ele><time>2026-04-09T12:21:56Z</time></trkpt><trkpt lat="44.60788412597828" lon="8.389555483899255"><ele>527.0</ele><time>2026-04-09T12:21:57Z</time></trkpt><trkpt lat="44.60799676855133" lon="8.389646399227736"><ele>525.5</ele><time>2026-04-09T12:21:58Z</time></trkpt><trkpt lat="44.60811801629003" lon="8.389723210502227"><ele>524.0</ele><time>2026-04-09T12:21:59Z</time></trkpt><trkpt lat="44.60822676429244" lon="8.389801533512749"><ele>524.0</ele><time>2026-04-09T12:22:00Z</time></trkpt><trkpt lat="44.60832044690968" lon="8.389873375142422"><ele>524.0</ele><time>2026-04-09T12:22:01Z</time></trkpt><trkpt lat="44.60840072412305" lon="8.389955237404536"><ele>524.0</ele><time>2026-04-09T12:22:02Z</time></trkpt><trkpt lat="44.60849403502698" lon="8.38999140015726"><ele>524.0</ele><time>2026-04-09T12:22:03Z</time></trkpt><trkpt lat="44.60859970051133" lon="8.389992889350035"><ele>524.0</ele><time>2026-04-09T12:22:04Z</time></trkpt><trkpt lat="44.60870893355124" lon="8.390009871525226"><ele>523.8</ele><time>2026-04-09T12:22:05Z</time></trkpt><trkpt lat="44.60881540941333" lon="8.39004075301303"><ele>523.5999999999999</ele><time>2026-04-09T12:22:06Z</time></trkpt><trkpt lat="44.608926338425384" lon="8.390060886321804"><ele>523.4</ele><time>2026-04-09T12:22:07Z</time></trkpt><trkpt lat="44.60903639907379" lon="8.390103230041788"><ele>523.1999999999999</ele><time>2026-04-09T12:22:08Z</time></trkpt><trkpt lat="44.609146648946755" lon="8.390144890173849"><ele>523.0</ele><time>2026-04-09T12:22:09Z</time></trkpt><trkpt lat="44.60926445944061" lon="8.390190206029754"><ele>523.0</ele><time>2026-04-09T12:22:10Z</time></trkpt><trkpt lat="44.60938639807038" lon="8.390235395715752"><ele>523.0</ele><time>2026-04-09T12:22:11Z</time></trkpt><trkpt lat="44.609504203371756" lon="8.390278441717848"><ele>523.0</ele><time>2026-04-09T12:22:12Z</time></trkpt><trkpt lat="44.60962078086812" lon="8.390317007777156"><ele>523.0</ele><time>2026-04-09T12:22:13Z</time></trkpt><trkpt lat="44.609733910447936" lon="8.390369803979878"><ele>522.1999999999999</ele><time>2026-04-09T12:22:14Z</time></trkpt><trkpt lat="44.60985178070677" lon="8.390387598293803"><ele>521.4</ele><time>2026-04-09T12:22:15Z</time></trkpt><trkpt lat="44.60995806891796" lon="8.390445953170808"><ele>520.5999999999999</ele><time>2026-04-09T12:22:16Z</time></trkpt><trkpt lat="44.61005458977884" lon="8.390504607428195"><ele>519.8</ele><time>2026-04-09T12:22:17Z</time></trkpt><trkpt lat="44.610145107925035" lon="8.390550804508797"><ele>519.0</ele><time>2026-04-09T12:22:18Z</time></trkpt><trkpt lat="44.61024306250026" lon="8.390574210000867"><ele>516.5</ele><time>2026-04-09T12:22:19Z</time></trkpt><trkpt lat="44.6103486616016" lon="8.39059968755583"><ele>514.0</ele><time>2026-04-09T12:22:20Z</time></trkpt><trkpt lat="44.61046393722091" lon="8.390558964720627"><ele>511.5</ele><time>2026-04-09T12:22:21Z</time></trkpt><trkpt lat="44.61058369366249" lon="8.390502868159865"><ele>509.0</ele><time>2026-04-09T12:22:22Z</time></trkpt><trkpt lat="44.610709227867055" lon="8.390445205639853"><ele>509.0</ele><time>2026-04-09T12:22:23Z</time></trkpt><trkpt lat="44.61084738137189" lon="8.390383310650803"><ele>509.0</ele><time>2026-04-09T12:22:24Z</time></trkpt><trkpt lat="44.61099436142392" lon="8.390317461243514"><ele>509.0</ele><time>2026-04-09T12:22:25Z</time></trkpt><trkpt lat="44.61114139354718" lon="8.390253812475356"><ele>509.25</ele><time>2026-04-09T12:22:26Z</time></trkpt><trkpt lat="44.611279761564205" lon="8.390201161545772"><ele>509.5</ele><time>2026-04-09T12:22:27Z</time></trkpt><trkpt lat="44.61140724181428" lon="8.390126625512858"><ele>509.75</ele><time>2026-04-09T12:22:28Z</time></trkpt><trkpt lat="44.611539386637354" lon="8.390109063105934"><ele>510.0</ele><time>2026-04-09T12:22:29Z</time></trkpt><trkpt lat="44.611664500129656" lon="8.390127763295771"><ele>510.0</ele><time>2026-04-09T12:22:30Z</time></trkpt><trkpt lat="44.61178405341652" lon="8.390169155374688"><ele>510.0</ele><time>2026-04-09T12:22:31Z</time></trkpt><trkpt lat="44.611900497970744" lon="8.3902098537681"><ele>510.0</ele><time>2026-04-09T12:22:32Z</time></trkpt><trkpt lat="44.61201225429945" lon="8.39024049319299"><ele>510.0</ele><time>2026-04-09T12:22:33Z</time></trkpt><trkpt lat="44.612114439953224" lon="8.390238567352961"><ele>508.5</ele><time>2026-04-09T12:22:34Z</time></trkpt><trkpt lat="44.61221645606581" lon="8.390201677173224"><ele>507.0</ele><time>2026-04-09T12:22:35Z</time></trkpt><trkpt lat="44.61231317220607" lon="8.390122539535747"><ele>505.5</ele><time>2026-04-09T12:22:36Z</time></trkpt><trkpt lat="44.61242704600289" lon="8.390048848860454"><ele>504.0</ele><time>2026-04-09T12:22:37Z</time></trkpt><trkpt lat="44.612534272803046" lon="8.389928219285189"><ele>504.0</ele><time>2026-04-09T12:22:38Z</time></trkpt><trkpt lat="44.612635606174294" lon="8.389806181970904"><ele>504.0</ele><time>2026-04-09T12:22:39Z</time></trkpt><trkpt lat="44.612741923855175" lon="8.38970826418153"><ele>504.0</ele><time>2026-04-09T12:22:40Z</time></trkpt><trkpt lat="44.612847439279896" lon="8.38963637416716"><ele>504.0</ele><time>2026-04-09T12:22:41Z</time></trkpt><trkpt lat="44.61295621975156" lon="8.389596791094705"><ele>501.4</ele><time>2026-04-09T12:22:42Z</time></trkpt><trkpt lat="44.61306369113142" lon="8.389550270966788"><ele>498.79999999999995</ele><time>2026-04-09T12:22:43Z</time></trkpt><trkpt lat="44.613175114295395" lon="8.38953171781801"><ele>496.20000000000005</ele><time>2026-04-09T12:22:44Z</time></trkpt><trkpt lat="44.61328815661303" lon="8.389517843011186"><ele>493.6</ele><time>2026-04-09T12:22:45Z</time></trkpt><trkpt lat="44.61339514076061" lon="8.389504362273323"><ele>491.0</ele><time>2026-04-09T12:22:46Z</time></trkpt><trkpt lat="44.61349238787891" lon="8.38949760904714"><ele>491.0</ele><time>2026-04-09T12:22:47Z</time></trkpt><trkpt lat="44.61358654071292" lon="8.38949382911001"><ele>491.0</ele><time>2026-04-09T12:22:48Z</time></trkpt><trkpt lat="44.61368608654439" lon="8.389521716755251"><ele>491.0</ele><time>2026-04-09T12:22:49Z</time></trkpt><trkpt lat="44.61378850787838" lon="8.389570345670418"><ele>491.0</ele><time>2026-04-09T12:22:50Z</time></trkpt><trkpt lat="44.613893123491835" lon="8.389631832337951"><ele>491.0</ele><time>2026-04-09T12:22:51Z</time></trkpt><trkpt lat="44.613994597818916" lon="8.389690825059821"><ele>490.0</ele><time>2026-04-09T12:22:52Z</time></trkpt><trkpt lat="44.614097170411334" lon="8.389726449947878"><ele>489.0</ele><time>2026-04-09T12:22:53Z</time></trkpt><trkpt lat="44.614200589810466" lon="8.389745812624021"><ele>488.0</ele><time>2026-04-09T12:22:54Z</time></trkpt><trkpt lat="44.614309853675685" lon="8.389705828669566"><ele>487.0</ele><time>2026-04-09T12:22:55Z</time></trkpt><trkpt lat="44.61441547447968" lon="8.38961972662649"><ele>486.0</ele><time>2026-04-09T12:22:56Z</time></trkpt><trkpt lat="44.61451885002381" lon="8.389524368355081"><ele>485.25</ele><time>2026-04-09T12:22:57Z</time></trkpt><trkpt lat="44.61462622873191" lon="8.389414855227537"><ele>484.5</ele><time>2026-04-09T12:22:58Z</time></trkpt><trkpt lat="44.61471364617095" lon="8.389272051730291"><ele>483.75</ele><time>2026-04-09T12:22:59Z</time></trkpt><trkpt lat="44.61480671422492" lon="8.389146997676189"><ele>483.0</ele><time>2026-04-09T12:23:00Z</time></trkpt><trkpt lat="44.61490018214288" lon="8.38903341334435"><ele>483.0</ele><time>2026-04-09T12:23:01Z</time></trkpt><trkpt lat="44.61499408018303" lon="8.388941662277196"><ele>482.99999999999994</ele><time>2026-04-09T12:23:02Z</time></trkpt><trkpt lat="44.61508614630824" lon="8.388876819384395"><ele>482.99999999999994</ele><time>2026-04-09T12:23:03Z</time></trkpt><trkpt lat="44.6151751806401" lon="8.388831145761332"><ele>483.0</ele><time>2026-04-09T12:23:04Z</time></trkpt><trkpt lat="44.61525862060334" lon="8.388794265643144"><ele>483.0</ele><time>2026-04-09T12:23:05Z</time></trkpt><trkpt lat="44.615333893155096" lon="8.388757024514877"><ele>484.0</ele><time>2026-04-09T12:23:06Z</time></trkpt><trkpt lat="44.61540549865098" lon="8.38872177074707"><ele>485.0</ele><time>2026-04-09T12:23:07Z</time></trkpt><trkpt lat="44.615475384209425" lon="8.38868788302682"><ele>486.0</ele><time>2026-04-09T12:23:08Z</time></trkpt><trkpt lat="44.6155478352672" lon="8.388653601759973"><ele>487.0</ele><time>2026-04-09T12:23:09Z</time></trkpt><trkpt lat="44.6156324886355" lon="8.388626060686017"><ele>488.0</ele><time>2026-04-09T12:23:10Z</time></trkpt><trkpt lat="44.61573014923579" lon="8.388605037970857"><ele>489.0</ele><time>2026-04-09T12:23:11Z</time></trkpt><trkpt lat="44.615837812458075" lon="8.388591755907726"><ele>489.0</ele><time>2026-04-09T12:23:12Z</time></trkpt><trkpt lat="44.61595043779177" lon="8.388573859076537"><ele>489.0</ele><time>2026-04-09T12:23:13Z</time></trkpt><trkpt lat="44.61606947864038" lon="8.388573419234731"><ele>489.0</ele><time>2026-04-09T12:23:14Z</time></trkpt><trkpt lat="44.616182007094125" lon="8.388597522916864"><ele>489.0</ele><time>2026-04-09T12:23:15Z</time></trkpt><trkpt lat="44.616281483088194" lon="8.388639536897381"><ele>490.6</ele><time>2026-04-09T12:23:16Z</time></trkpt><trkpt lat="44.61637284407291" lon="8.388672605292756"><ele>492.2</ele><time>2026-04-09T12:23:17Z</time></trkpt><trkpt lat="44.61645835155857" lon="8.38867591951868"><ele>493.80000000000007</ele><time>2026-04-09T12:23:18Z</time></trkpt><trkpt lat="44.61655379863306" lon="8.38866209050657"><ele>495.40000000000003</ele><time>2026-04-09T12:23:19Z</time></trkpt><trkpt lat="44.61664356084195" lon="8.38858685542444"><ele>497.0</ele><time>2026-04-09T12:23:20Z</time></trkpt><trkpt lat="44.616729705926566" lon="8.388494911238674"><ele>497.0</ele><time>2026-04-09T12:23:21Z</time></trkpt><trkpt lat="44.61680858142982" lon="8.388422281248136"><ele>497.00000000000006</ele><time>2026-04-09T12:23:22Z</time></trkpt><trkpt lat="44.61689667245163" lon="8.388354097813119"><ele>497.00000000000006</ele><time>2026-04-09T12:23:23Z</time></trkpt><trkpt lat="44.61699275735913" lon="8.38830938972989"><ele>497.0</ele><time>2026-04-09T12:23:24Z</time></trkpt><trkpt lat="44.61709508543145" lon="8.388274553900684"><ele>497.0</ele><time>2026-04-09T12:23:25Z</time></trkpt><trkpt lat="44.61720730513923" lon="8.388285529922296"><ele>496.25</ele><time>2026-04-09T12:23:26Z</time></trkpt><trkpt lat="44.617321619180956" lon="8.388310455861088"><ele>495.5</ele><time>2026-04-09T12:23:27.001Z</time></trkpt><trkpt lat="44.6174363994186" lon="8.388346676581136"><ele>494.75</ele><time>2026-04-09T12:23:28.001Z</time></trkpt><trkpt lat="44.61755332183204" lon="8.38838635780826"><ele>494.0</ele><time>2026-04-09T12:23:29.001Z</time></trkpt><trkpt lat="44.61766836733038" lon="8.388419095515415"><ele>494.0</ele><time>2026-04-09T12:23:30.001Z</time></trkpt><trkpt lat="44.61778069935119" lon="8.388452915201016"><ele>494.0</ele><time>2026-04-09T12:23:31.001Z</time></trkpt><trkpt lat="44.617901080225195" lon="8.388458029705319"><ele>494.0</ele><time>2026-04-09T12:23:32.001Z</time></trkpt><trkpt lat="44.618021187284576" lon="8.388465772751092"><ele>494.0</ele><time>2026-04-09T12:23:33.001Z</time></trkpt><trkpt lat="44.61814456676952" lon="8.388466718684013"><ele>492.75</ele><time>2026-04-09T12:23:34.001Z</time></trkpt><trkpt lat="44.61826734898997" lon="8.388474745702672"><ele>491.5</ele><time>2026-04-09T12:23:35.001Z</time></trkpt><trkpt lat="44.61839107084361" lon="8.388486299340176"><ele>490.25</ele><time>2026-04-09T12:23:36.001Z</time></trkpt><trkpt lat="44.6185132999347" lon="8.388512525465412"><ele>489.0</ele><time>2026-04-09T12:23:37.001Z</time></trkpt><trkpt lat="44.618627196490095" lon="8.388555059487249"><ele>488.6</ele><time>2026-04-09T12:23:38.001Z</time></trkpt><trkpt lat="44.61873316739524" lon="8.388600686166088"><ele>488.2</ele><time>2026-04-09T12:23:39.001Z</time></trkpt><trkpt lat="44.61883540254458" lon="8.388647062989312"><ele>487.80000000000007</ele><time>2026-04-09T12:23:40.001Z</time></trkpt><trkpt lat="44.61893208882259" lon="8.388694890957343"><ele>487.40000000000003</ele><time>2026-04-09T12:23:41.001Z</time></trkpt><trkpt lat="44.61901935506204" lon="8.38876879422455"><ele>487.0</ele><time>2026-04-09T12:23:42.001Z</time></trkpt><trkpt lat="44.61909244604645" lon="8.388871505927229"><ele>488.6</ele><time>2026-04-09T12:23:43.001Z</time></trkpt><trkpt lat="44.61916099735556" lon="8.38898374937078"><ele>490.20000000000005</ele><time>2026-04-09T12:23:44.001Z</time></trkpt><trkpt lat="44.61922574047906" lon="8.389109787658052"><ele>491.8</ele><time>2026-04-09T12:23:45.001Z</time></trkpt><trkpt lat="44.61927340908425" lon="8.389254726737775"><ele>493.4</ele><time>2026-04-09T12:23:46.001Z</time></trkpt><trkpt lat="44.61931320142817" lon="8.38940552280809"><ele>495.0</ele><time>2026-04-09T12:23:47.001Z</time></trkpt><trkpt lat="44.61936511639321" lon="8.389550977459518"><ele>492.6</ele><time>2026-04-09T12:23:48.001Z</time></trkpt><trkpt lat="44.619437903367846" lon="8.389687009002396"><ele>490.2</ele><time>2026-04-09T12:23:49.001Z</time></trkpt><trkpt lat="44.6195123161371" lon="8.389811276876362"><ele>487.79999999999995</ele><time>2026-04-09T12:23:50.001Z</time></trkpt><trkpt lat="44.61958027017736" lon="8.38993091759872"><ele>485.4</ele><time>2026-04-09T12:23:51Z</time></trkpt><trkpt lat="44.61962817563688" lon="8.390049457519938"><ele>483.0</ele><time>2026-04-09T12:23:52Z</time></trkpt><trkpt lat="44.61966321783949" lon="8.390150029398013"><ele>484.5</ele><time>2026-04-09T12:23:53Z</time></trkpt><trkpt lat="44.61971235306197" lon="8.390223532528545"><ele>486.0</ele><time>2026-04-09T12:23:54Z</time></trkpt><trkpt lat="44.619786223720965" lon="8.390279161498537"><ele>487.5</ele><time>2026-04-09T12:23:55Z</time></trkpt><trkpt lat="44.61987397704914" lon="8.390319374399906"><ele>489.0</ele><time>2026-04-09T12:23:56Z</time></trkpt><trkpt lat="44.61994624212728" lon="8.39041263151371"><ele>490.5</ele><time>2026-04-09T12:23:57Z</time></trkpt><trkpt lat="44.62002759440507" lon="8.390482528492088"><ele>492.0</ele><time>2026-04-09T12:23:58Z</time></trkpt><trkpt lat="44.62009826514322" lon="8.390552481307724"><ele>492.0</ele><time>2026-04-09T12:23:59Z</time></trkpt><trkpt lat="44.62017684466354" lon="8.390589653076088"><ele>492.00000000000006</ele><time>2026-04-09T12:24:00Z</time></trkpt><trkpt lat="44.620268468274325" lon="8.390610183385965"><ele>492.00000000000006</ele><time>2026-04-09T12:24:01Z</time></trkpt><trkpt lat="44.620362786212446" lon="8.39059029463268"><ele>492.0</ele><time>2026-04-09T12:24:02Z</time></trkpt><trkpt lat="44.62046153929333" lon="8.390585607071971"><ele>492.0</ele><time>2026-04-09T12:24:03Z</time></trkpt><trkpt lat="44.62056417546209" lon="8.390605633565224"><ele>494.75</ele><time>2026-04-09T12:24:04Z</time></trkpt><trkpt lat="44.62066628587268" lon="8.390658675834269"><ele>497.5</ele><time>2026-04-09T12:24:05Z</time></trkpt><trkpt lat="44.6207700071186" lon="8.390729548757806"><ele>500.25</ele><time>2026-04-09T12:24:06Z</time></trkpt><trkpt lat="44.62088297619992" lon="8.390789770087698"><ele>503.0</ele><time>2026-04-09T12:24:07Z</time></trkpt><trkpt lat="44.62099165831528" lon="8.390872176048585"><ele>503.0</ele><time>2026-04-09T12:24:08Z</time></trkpt><trkpt lat="44.62109945403256" lon="8.390953999151836"><ele>502.99999999999994</ele><time>2026-04-09T12:24:09Z</time></trkpt><trkpt lat="44.621199472967525" lon="8.391037747926214"><ele>502.99999999999994</ele><time>2026-04-09T12:24:10Z</time></trkpt><trkpt lat="44.621289610505755" lon="8.391117710950262"><ele>503.0</ele><time>2026-04-09T12:24:11Z</time></trkpt><trkpt lat="44.62137158312257" lon="8.39119189941776"><ele>503.0</ele><time>2026-04-09T12:24:12Z</time></trkpt><trkpt lat="44.62145064495212" lon="8.391265814666477"><ele>502.79999999999995</ele><time>2026-04-09T12:24:13Z</time></trkpt><trkpt lat="44.621529702254485" lon="8.391329552774899"><ele>502.59999999999997</ele><time>2026-04-09T12:24:14Z</time></trkpt><trkpt lat="44.621610436294525" lon="8.391391609187444"><ele>502.40000000000003</ele><time>2026-04-09T12:24:15Z</time></trkpt><trkpt lat="44.621686551840305" lon="8.391470945352856"><ele>502.20000000000005</ele><time>2026-04-09T12:24:16Z</time></trkpt><trkpt lat="44.62175883649857" lon="8.391565867722495"><ele>502.0</ele><time>2026-04-09T12:24:17Z</time></trkpt><trkpt lat="44.62182701042547" lon="8.391670339313007"><ele>501.6</ele><time>2026-04-09T12:24:18Z</time></trkpt><trkpt lat="44.621894251382564" lon="8.391774317828164"><ele>501.20000000000005</ele><time>2026-04-09T12:24:19Z</time></trkpt><trkpt lat="44.62196484401951" lon="8.39187923229852"><ele>500.8</ele><time>2026-04-09T12:24:20Z</time></trkpt><trkpt lat="44.62204086457505" lon="8.391984800558124"><ele>500.4</ele><time>2026-04-09T12:24:21Z</time></trkpt><trkpt lat="44.622119249864" lon="8.39209294568597"><ele>500.0</ele><time>2026-04-09T12:24:22Z</time></trkpt><trkpt lat="44.6222013596581" lon="8.392207379946525"><ele>499.25</ele><time>2026-04-09T12:24:23Z</time></trkpt><trkpt lat="44.622287568961056" lon="8.392329689093062"><ele>498.5</ele><time>2026-04-09T12:24:24Z</time></trkpt><trkpt lat="44.62237687839325" lon="8.392455746074752"><ele>497.75</ele><time>2026-04-09T12:24:25Z</time></trkpt><trkpt lat="44.62246508873063" lon="8.392581312836064"><ele>497.0</ele><time>2026-04-09T12:24:26Z</time></trkpt><trkpt lat="44.622550680605855" lon="8.392709588715686"><ele>497.0</ele><time>2026-04-09T12:24:27Z</time></trkpt><trkpt lat="44.62263475200279" lon="8.392840905420655"><ele>497.0</ele><time>2026-04-09T12:24:28Z</time></trkpt><trkpt lat="44.62271946071324" lon="8.392971199657254"><ele>497.0</ele><time>2026-04-09T12:24:29Z</time></trkpt><trkpt lat="44.622802374630005" lon="8.393098475126779"><ele>497.0</ele><time>2026-04-09T12:24:30Z</time></trkpt><trkpt lat="44.6228693241773" lon="8.39323081064755"><ele>497.0</ele><time>2026-04-09T12:24:31Z</time></trkpt><trkpt lat="44.622917215632754" lon="8.393365751287286"><ele>497.00000000000006</ele><time>2026-04-09T12:24:32Z</time></trkpt><trkpt lat="44.62296023209022" lon="8.393491773524152"><ele>497.00000000000006</ele><time>2026-04-09T12:24:33Z</time></trkpt><trkpt lat="44.623005547057325" lon="8.39361042897341"><ele>497.0</ele><time>2026-04-09T12:24:34Z</time></trkpt><trkpt lat="44.62304727063652" lon="8.39372834059786"><ele>497.0</ele><time>2026-04-09T12:24:35Z</time></trkpt><trkpt lat="44.62308648613618" lon="8.393844686683517"><ele>496.99999999999994</ele><time>2026-04-09T12:24:36Z</time></trkpt><trkpt lat="44.62312567753283" lon="8.39396582598338"><ele>497.0</ele><time>2026-04-09T12:24:37Z</time></trkpt><trkpt lat="44.62316784308837" lon="8.394085140809201"><ele>497.0</ele><time>2026-04-09T12:24:38Z</time></trkpt><trkpt lat="44.62321251051581" lon="8.394189914344683"><ele>497.0</ele><time>2026-04-09T12:24:39Z</time></trkpt><trkpt lat="44.62326442137089" lon="8.394279761479389"><ele>496.99999999999994</ele><time>2026-04-09T12:24:40Z</time></trkpt><trkpt lat="44.62332062413602" lon="8.394350239111013"><ele>497.0</ele><time>2026-04-09T12:24:41Z</time></trkpt><trkpt lat="44.62341682046773" lon="8.394414904823373"><ele>497.0</ele><time>2026-04-09T12:24:43Z</time></trkpt><trkpt lat="44.62352803251242" lon="8.394457590848626"><ele>497.00000000000006</ele><time>2026-04-09T12:24:45Z</time></trkpt><trkpt lat="44.623619198306656" lon="8.394363636966574"><ele>497.00000000000006</ele><time>2026-04-09T12:24:46Z</time></trkpt><trkpt lat="44.62370417281089" lon="8.394333017245865"><ele>497.0</ele><time>2026-04-09T12:24:47Z</time></trkpt><trkpt lat="44.62379935437604" lon="8.394304351075066"><ele>497.0</ele><time>2026-04-09T12:24:48Z</time></trkpt><trkpt lat="44.62390278048922" lon="8.394272328971429"><ele>498.5</ele><time>2026-04-09T12:24:49Z</time></trkpt><trkpt lat="44.62400937214325" lon="8.394235494651783"><ele>500.0</ele><time>2026-04-09T12:24:50Z</time></trkpt><trkpt lat="44.62411980457706" lon="8.394197110830936"><ele>501.5</ele><time>2026-04-09T12:24:51Z</time></trkpt><trkpt lat="44.62423651348483" lon="8.394180820692663"><ele>503.0</ele><time>2026-04-09T12:24:52Z</time></trkpt><trkpt lat="44.6243441448499" lon="8.394143553818024"><ele>502.99999999999994</ele><time>2026-04-09T12:24:53Z</time></trkpt><trkpt lat="44.62443805749506" lon="8.394088014616303"><ele>503.0</ele><time>2026-04-09T12:24:54Z</time></trkpt><trkpt lat="44.62452691961907" lon="8.39407294954644"><ele>503.0</ele><time>2026-04-09T12:24:55Z</time></trkpt><trkpt lat="44.62459882002072" lon="8.394075709431354"><ele>503.0</ele><time>2026-04-09T12:24:56Z</time></trkpt><trkpt lat="44.62466275402969" lon="8.394083296586583"><ele>502.99999999999994</ele><time>2026-04-09T12:24:57Z</time></trkpt><trkpt lat="44.62473632414775" lon="8.394091278288128"><ele>503.0</ele><time>2026-04-09T12:24:58Z</time></trkpt><trkpt lat="44.62482064117821" lon="8.394116283718615"><ele>506.0</ele><time>2026-04-09T12:24:59Z</time></trkpt><trkpt lat="44.62491076238243" lon="8.394100905586653"><ele>508.99999999999994</ele><time>2026-04-09T12:25:00Z</time></trkpt><trkpt lat="44.625008186695396" lon="8.394056530763327"><ele>511.99999999999994</ele><time>2026-04-09T12:25:01Z</time></trkpt><trkpt lat="44.62510030106399" lon="8.394000584306"><ele>515.0</ele><time>2026-04-09T12:25:02Z</time></trkpt><trkpt lat="44.625193625279294" lon="8.39393936697819"><ele>518.0</ele><time>2026-04-09T12:25:03Z</time></trkpt><trkpt lat="44.625286427100946" lon="8.393885710201635"><ele>514.8333333333333</ele><time>2026-04-09T12:25:04Z</time></trkpt><trkpt lat="44.62537184908886" lon="8.393821787241933"><ele>511.66666666666663</ele><time>2026-04-09T12:25:05Z</time></trkpt><trkpt lat="44.62545150187" lon="8.393782320610821"><ele>508.5</ele><time>2026-04-09T12:25:06Z</time></trkpt><trkpt lat="44.62552423897124" lon="8.393750022262557"><ele>505.33333333333337</ele><time>2026-04-09T12:25:07Z</time></trkpt><trkpt lat="44.62559931888455" lon="8.393740565569802"><ele>502.1666666666667</ele><time>2026-04-09T12:25:08Z</time></trkpt><trkpt lat="44.625682100359754" lon="8.393756471264421"><ele>499.0</ele><time>2026-04-09T12:25:09Z</time></trkpt><trkpt lat="44.62576291066591" lon="8.39379424034166"><ele>503.79999999999995</ele><time>2026-04-09T12:25:10Z</time></trkpt><trkpt lat="44.625840838372454" lon="8.393872489166691"><ele>508.59999999999997</ele><time>2026-04-09T12:25:11Z</time></trkpt><trkpt lat="44.625929348991555" lon="8.393929767700824"><ele>513.4</ele><time>2026-04-09T12:25:12Z</time></trkpt><trkpt lat="44.626021394139414" lon="8.393971036235492"><ele>518.1999999999999</ele><time>2026-04-09T12:25:13Z</time></trkpt><trkpt lat="44.62611931157479" lon="8.393968135776632"><ele>523.0</ele><time>2026-04-09T12:25:14Z</time></trkpt><trkpt lat="44.62620835945192" lon="8.39394499227375"><ele>523.0</ele><time>2026-04-09T12:25:15Z</time></trkpt><trkpt lat="44.62629628950879" lon="8.393954666703175"><ele>523.0</ele><time>2026-04-09T12:25:16Z</time></trkpt><trkpt lat="44.62638639440746" lon="8.393978919429953"><ele>523.0</ele><time>2026-04-09T12:25:17Z</time></trkpt><trkpt lat="44.626474618872166" lon="8.394022254990773"><ele>523.0</ele><time>2026-04-09T12:25:18Z</time></trkpt><trkpt lat="44.62655876876568" lon="8.394063600877956"><ele>523.0</ele><time>2026-04-09T12:25:19Z</time></trkpt><trkpt lat="44.62664125574056" lon="8.394091640157054"><ele>523.0</ele><time>2026-04-09T12:25:20Z</time></trkpt><trkpt lat="44.62671963285119" lon="8.394096561302124"><ele>523.0</ele><time>2026-04-09T12:25:21Z</time></trkpt><trkpt lat="44.62679429208125" lon="8.394120724057279"><ele>523.0</ele><time>2026-04-09T12:25:22Z</time></trkpt><trkpt lat="44.626861755607784" lon="8.394117196525894"><ele>523.0</ele><time>2026-04-09T12:25:23Z</time></trkpt><trkpt lat="44.62692620066905" lon="8.394100167041465"><ele>523.0</ele><time>2026-04-09T12:25:24Z</time></trkpt><trkpt lat="44.627030109952436" lon="8.394163404200853"><ele>523.0</ele><time>2026-04-09T12:25:26Z</time></trkpt><trkpt lat="44.62710853593229" lon="8.39416464731816"><ele>523.0</ele><time>2026-04-09T12:25:28Z</time></trkpt><trkpt lat="44.62713137391619" lon="8.394252606900922"><ele>523.0</ele><time>2026-04-09T12:25:30Z</time></trkpt><trkpt lat="44.6270341991427" lon="8.39431258128296"><ele>523.0</ele><time>2026-04-09T12:25:33Z</time></trkpt><trkpt lat="44.62690479663699" lon="8.394346889707457"><ele>523.0</ele><time>2026-04-09T12:25:35Z</time></trkpt><trkpt lat="44.626821111217474" lon="8.394342930391662"><ele>523.0</ele><time>2026-04-09T12:25:36Z</time></trkpt><trkpt lat="44.626730036012304" lon="8.394349409840478"><ele>523.0</ele><time>2026-04-09T12:25:37Z</time></trkpt><trkpt lat="44.626651456297175" lon="8.39436260676307"><ele>523.0</ele><time>2026-04-09T12:25:38Z</time></trkpt><trkpt lat="44.62656873483335" lon="8.394377667166234"><ele>523.0</ele><time>2026-04-09T12:25:39Z</time></trkpt><trkpt lat="44.626480888721005" lon="8.394392703567132"><ele>523.0</ele><time>2026-04-09T12:25:40Z</time></trkpt><trkpt lat="44.62639725961018" lon="8.394408369108731"><ele>523.0</ele><time>2026-04-09T12:25:41Z</time></trkpt><trkpt lat="44.626321963245445" lon="8.394420024790925"><ele>523.0</ele><time>2026-04-09T12:25:42Z</time></trkpt><trkpt lat="44.62620937880167" lon="8.394436763107342"><ele>523.0</ele><time>2026-04-09T12:25:44Z</time></trkpt><trkpt lat="44.62611063230214" lon="8.394449246897672"><ele>523.8333333333334</ele><time>2026-04-09T12:25:46Z</time></trkpt><trkpt lat="44.62602920384485" lon="8.39444743985783"><ele>524.6666666666667</ele><time>2026-04-09T12:25:48Z</time></trkpt><trkpt lat="44.62596200311989" lon="8.394433181407276"><ele>525.5</ele><time>2026-04-09T12:25:51Z</time></trkpt><trkpt lat="44.625889526309855" lon="8.394391138787103"><ele>526.3333333333334</ele><time>2026-04-09T12:25:55Z</time></trkpt><trkpt lat="44.62583293211551" lon="8.394334803102804"><ele>527.1666666666666</ele><time>2026-04-09T12:27:21Z</time></trkpt><trkpt lat="44.625747627749675" lon="8.394255477412266"><ele>528.0</ele><time>2026-04-09T12:27:24Z</time></trkpt><trkpt lat="44.62565984531766" lon="8.39418626710616"><ele>528.0</ele><time>2026-04-09T12:27:26Z</time></trkpt><trkpt lat="44.62554345213134" lon="8.39421017494331"><ele>528.0</ele><time>2026-04-09T12:27:28Z</time></trkpt><trkpt lat="44.62545207185996" lon="8.394223387023871"><ele>528.0</ele><time>2026-04-09T12:27:30Z</time></trkpt><trkpt lat="44.62536970076473" lon="8.394266944255973"><ele>528.0</ele><time>2026-04-09T12:27:32Z</time></trkpt><trkpt lat="44.62529676054062" lon="8.39432101156459"><ele>528.0</ele><time>2026-04-09T12:27:34Z</time></trkpt><trkpt lat="44.625227561002575" lon="8.394331144845411"><ele>526.3333333333334</ele><time>2026-04-09T12:27:36Z</time></trkpt><trkpt lat="44.625164346783365" lon="8.394354754347171"><ele>524.6666666666666</ele><time>2026-04-09T12:27:38Z</time></trkpt><trkpt lat="44.62508971135603" lon="8.394366369874392"><ele>523.0</ele><time>2026-04-09T12:27:40Z</time></trkpt><trkpt lat="44.625000637388275" lon="8.394386786528486"><ele>521.3333333333333</ele><time>2026-04-09T12:27:42Z</time></trkpt><trkpt lat="44.62491481746436" lon="8.394434849157172"><ele>519.6666666666666</ele><time>2026-04-09T12:27:44Z</time></trkpt><trkpt lat="44.62482479600201" lon="8.39444970651478"><ele>518.0</ele><time>2026-04-09T12:27:46Z</time></trkpt><trkpt lat="44.62475941891487" lon="8.39444322978317"><ele>518.0</ele><time>2026-04-09T12:27:48Z</time></trkpt><trkpt lat="44.62469098645668" lon="8.394439021739258"><ele>518.0</ele><time>2026-04-09T12:27:50Z</time></trkpt><trkpt lat="44.624624505392205" lon="8.394452449412032"><ele>518.0</ele><time>2026-04-09T12:27:52Z</time></trkpt><trkpt lat="44.62454010741507" lon="8.394451851332938"><ele>518.0</ele><time>2026-04-09T12:27:54Z</time></trkpt><trkpt lat="44.62444392535134" lon="8.394471209687905"><ele>518.0</ele><time>2026-04-09T12:27:56Z</time></trkpt><trkpt lat="44.6243237932098" lon="8.39449185882341"><ele>518.0</ele><time>2026-04-09T12:27:58Z</time></trkpt><trkpt lat="44.62426158484346" lon="8.39450831730576"><ele>515.0</ele><time>2026-04-09T12:27:59Z</time></trkpt><trkpt lat="44.62419534503534" lon="8.39451701160785"><ele>511.99999999999994</ele><time>2026-04-09T12:28:00Z</time></trkpt><trkpt lat="44.62407369836096" lon="8.39451802766727"><ele>508.99999999999994</ele><time>2026-04-09T12:28:02Z</time></trkpt><trkpt lat="44.62395095252935" lon="8.394514074219412"><ele>506.0</ele><time>2026-04-09T12:28:04Z</time></trkpt><trkpt lat="44.623823144665266" lon="8.39450273491078"><ele>503.0</ele><time>2026-04-09T12:28:06Z</time></trkpt><trkpt lat="44.62375483993094" lon="8.39450040126587"><ele>503.0</ele><time>2026-04-09T12:28:07Z</time></trkpt><trkpt lat="44.62368281636053" lon="8.394490343290531"><ele>503.00000000000006</ele><time>2026-04-09T12:28:08Z</time></trkpt><trkpt lat="44.62360974930555" lon="8.394488225725706"><ele>503.0</ele><time>2026-04-09T12:28:09Z</time></trkpt><trkpt lat="44.62354058257562" lon="8.394475269615961"><ele>503.0</ele><time>2026-04-09T12:28:10Z</time></trkpt><trkpt lat="44.62347684566029" lon="8.39444635022307"><ele>503.00000000000006</ele><time>2026-04-09T12:28:11Z</time></trkpt><trkpt lat="44.62343031991134" lon="8.394372741463245"><ele>503.0</ele><time>2026-04-09T12:28:12Z</time></trkpt><trkpt lat="44.62334845700486" lon="8.394341265714578"><ele>503.0</ele><time>2026-04-09T12:28:13Z</time></trkpt><trkpt lat="44.62328613109174" lon="8.394258829810063"><ele>501.79999999999995</ele><time>2026-04-09T12:28:14Z</time></trkpt><trkpt lat="44.623220980068545" lon="8.394158825130061"><ele>500.59999999999997</ele><time>2026-04-09T12:28:15Z</time></trkpt><trkpt lat="44.62316431962296" lon="8.394038022019883"><ele>499.40000000000003</ele><time>2026-04-09T12:28:16Z</time></trkpt><trkpt lat="44.62311631614675" lon="8.393907591642435"><ele>498.20000000000005</ele><time>2026-04-09T12:28:17Z</time></trkpt><trkpt lat="44.62307257190167" lon="8.393760863427284"><ele>497.0</ele><time>2026-04-09T12:28:18Z</time></trkpt><trkpt lat="44.62302675900654" lon="8.393607846194667"><ele>497.0</ele><time>2026-04-09T12:28:19Z</time></trkpt><trkpt lat="44.62297585071656" lon="8.393448223724668"><ele>497.0</ele><time>2026-04-09T12:28:20Z</time></trkpt><trkpt lat="44.62292036776553" lon="8.393286336131261"><ele>497.0</ele><time>2026-04-09T12:28:21Z</time></trkpt><trkpt lat="44.62284734023455" lon="8.393127124607945"><ele>497.0</ele><time>2026-04-09T12:28:22Z</time></trkpt><trkpt lat="44.62276108983594" lon="8.392969793959866"><ele>497.0</ele><time>2026-04-09T12:28:23Z</time></trkpt><trkpt lat="44.62266152882418" lon="8.392818260241038"><ele>497.0</ele><time>2026-04-09T12:28:24Z</time></trkpt><trkpt lat="44.62256431042276" lon="8.39266700275261"><ele>497.0</ele><time>2026-04-09T12:28:25Z</time></trkpt><trkpt lat="44.62246386985773" lon="8.392516266445098"><ele>497.0</ele><time>2026-04-09T12:28:26Z</time></trkpt><trkpt lat="44.622359999866894" lon="8.39237049733465"><ele>497.0</ele><time>2026-04-09T12:28:27Z</time></trkpt><trkpt lat="44.62226329299977" lon="8.392234241695997"><ele>497.0</ele><time>2026-04-09T12:28:28Z</time></trkpt><trkpt lat="44.622177842690945" lon="8.392109446376411"><ele>497.0</ele><time>2026-04-09T12:28:29Z</time></trkpt><trkpt lat="44.62209885612025" lon="8.392000635733204"><ele>497.0</ele><time>2026-04-09T12:28:30Z</time></trkpt><trkpt lat="44.62202360967631" lon="8.391899573087548"><ele>497.6</ele><time>2026-04-09T12:28:31Z</time></trkpt><trkpt lat="44.621950570313416" lon="8.39180016106455"><ele>498.20000000000005</ele><time>2026-04-09T12:28:32Z</time></trkpt><trkpt lat="44.621881295074324" lon="8.391698668814008"><ele>498.8</ele><time>2026-04-09T12:28:33Z</time></trkpt><trkpt lat="44.62181830255385" lon="8.391597458940215"><ele>499.4</ele><time>2026-04-09T12:28:34Z</time></trkpt><trkpt lat="44.62176024651093" lon="8.391501393115716"><ele>500.0</ele><time>2026-04-09T12:28:35Z</time></trkpt><trkpt lat="44.62170770384585" lon="8.39140696021117"><ele>500.0</ele><time>2026-04-09T12:28:36Z</time></trkpt><trkpt lat="44.621642001797454" lon="8.39134368976587"><ele>500.0</ele><time>2026-04-09T12:28:37Z</time></trkpt><trkpt lat="44.62161981728593" lon="8.391206429908161"><ele>500.0</ele><time>2026-04-09T12:28:38Z</time></trkpt><trkpt lat="44.62157783839751" lon="8.39109811756883"><ele>500.0</ele><time>2026-04-09T12:28:39Z</time></trkpt><trkpt lat="44.62153284296436" lon="8.39098508198653"><ele>500.0</ele><time>2026-04-09T12:28:40Z</time></trkpt><trkpt lat="44.62149827408539" lon="8.390859766035382"><ele>500.4</ele><time>2026-04-09T12:28:41Z</time></trkpt><trkpt lat="44.621498985484564" lon="8.390712296727887"><ele>500.8</ele><time>2026-04-09T12:28:42Z</time></trkpt><trkpt lat="44.62148215698977" lon="8.390561218149768"><ele>501.20000000000005</ele><time>2026-04-09T12:28:43Z</time></trkpt><trkpt lat="44.62146845961952" lon="8.390407042066972"><ele>501.6</ele><time>2026-04-09T12:28:44Z</time></trkpt><trkpt lat="44.621458903054716" lon="8.390245951762285"><ele>502.0</ele><time>2026-04-09T12:28:45Z</time></trkpt><trkpt lat="44.62145625135403" lon="8.39008425298205"><ele>501.5</ele><time>2026-04-09T12:28:46Z</time></trkpt><trkpt lat="44.62146153292391" lon="8.389917427413316"><ele>501.0</ele><time>2026-04-09T12:28:47Z</time></trkpt><trkpt lat="44.62147470409799" lon="8.38975010506177"><ele>500.5</ele><time>2026-04-09T12:28:48Z</time></trkpt><trkpt lat="44.62147823700559" lon="8.389577026621069"><ele>500.0</ele><time>2026-04-09T12:28:49Z</time></trkpt><trkpt lat="44.62150266326527" lon="8.389402843415423"><ele>500.0</ele><time>2026-04-09T12:28:50Z</time></trkpt><trkpt lat="44.62152248083374" lon="8.389215243744777"><ele>500.0</ele><time>2026-04-09T12:28:51Z</time></trkpt><trkpt lat="44.62154644052009" lon="8.389020319217662"><ele>500.0</ele><time>2026-04-09T12:28:52Z</time></trkpt><trkpt lat="44.62158617730934" lon="8.388824742802363"><ele>500.0</ele><time>2026-04-09T12:28:53Z</time></trkpt><trkpt lat="44.621613819574456" lon="8.388632199843554"><ele>500.0</ele><time>2026-04-09T12:28:54Z</time></trkpt><trkpt lat="44.621645919191835" lon="8.388445045795713"><ele>500.0</ele><time>2026-04-09T12:28:55Z</time></trkpt><trkpt lat="44.621685046133216" lon="8.38826383536304"><ele>500.0</ele><time>2026-04-09T12:28:56Z</time></trkpt><trkpt lat="44.62173144507741" lon="8.388094422089662"><ele>500.0</ele><time>2026-04-09T12:28:57Z</time></trkpt><trkpt lat="44.62178676734927" lon="8.387934700545507"><ele>498.25</ele><time>2026-04-09T12:28:58Z</time></trkpt><trkpt lat="44.621853698398354" lon="8.38779496054808"><ele>496.5</ele><time>2026-04-09T12:28:59Z</time></trkpt><trkpt lat="44.62193573373876" lon="8.387676206277204"><ele>494.75</ele><time>2026-04-09T12:29:00Z</time></trkpt><trkpt lat="44.62202843926725" lon="8.38756302783177"><ele>493.0</ele><time>2026-04-09T12:29:01Z</time></trkpt><trkpt lat="44.62213799805671" lon="8.387463228298564"><ele>493.75</ele><time>2026-04-09T12:29:02Z</time></trkpt><trkpt lat="44.62223022915858" lon="8.387324543347638"><ele>494.5</ele><time>2026-04-09T12:29:03Z</time></trkpt><trkpt lat="44.62234373363292" lon="8.387204378291289"><ele>495.25</ele><time>2026-04-09T12:29:04Z</time></trkpt><trkpt lat="44.62246160675147" lon="8.387084052663493"><ele>496.0</ele><time>2026-04-09T12:29:05Z</time></trkpt><trkpt lat="44.62258395282142" lon="8.386968236035491"><ele>496.0</ele><time>2026-04-09T12:29:06Z</time></trkpt><trkpt lat="44.6227045317335" lon="8.386862859417903"><ele>496.0</ele><time>2026-04-09T12:29:07Z</time></trkpt><trkpt lat="44.62282882455036" lon="8.386759018279232"><ele>496.0</ele><time>2026-04-09T12:29:08Z</time></trkpt><trkpt lat="44.622962259294994" lon="8.386658228615433"><ele>496.0</ele><time>2026-04-09T12:29:09Z</time></trkpt><trkpt lat="44.62307179275081" lon="8.386504714037656"><ele>492.6666666666667</ele><time>2026-04-09T12:29:10Z</time></trkpt><trkpt lat="44.62319241249017" lon="8.386362078073443"><ele>489.33333333333337</ele><time>2026-04-09T12:29:11Z</time></trkpt><trkpt lat="44.62332696482324" lon="8.386238480677518"><ele>486.0</ele><time>2026-04-09T12:29:12Z</time></trkpt><trkpt lat="44.62344164283584" lon="8.386083400065534"><ele>485.0</ele><time>2026-04-09T12:29:13Z</time></trkpt><trkpt lat="44.62356307618229" lon="8.385943146325909"><ele>484.0</ele><time>2026-04-09T12:29:14Z</time></trkpt><trkpt lat="44.62368879179604" lon="8.385828884936641"><ele>483.0</ele><time>2026-04-09T12:29:15Z</time></trkpt><trkpt lat="44.623801937351836" lon="8.385697082121643"><ele>483.0</ele><time>2026-04-09T12:29:16Z</time></trkpt><trkpt lat="44.62390783800622" lon="8.385573719103315"><ele>483.0</ele><time>2026-04-09T12:29:17Z</time></trkpt><trkpt lat="44.62400838006844" lon="8.38545823654771"><ele>483.0</ele><time>2026-04-09T12:29:18Z</time></trkpt><trkpt lat="44.62409530829657" lon="8.385334550104615"><ele>483.0</ele><time>2026-04-09T12:29:19Z</time></trkpt><trkpt lat="44.62419458692962" lon="8.3852333756866"><ele>483.0</ele><time>2026-04-09T12:29:20Z</time></trkpt><trkpt lat="44.62428810912767" lon="8.385118833518357"><ele>482.99999999999994</ele><time>2026-04-09T12:29:21Z</time></trkpt><trkpt lat="44.62437201629404" lon="8.385003483558897"><ele>482.99999999999994</ele><time>2026-04-09T12:29:22Z</time></trkpt><trkpt lat="44.62445133872736" lon="8.384899365357587"><ele>483.0</ele><time>2026-04-09T12:29:23Z</time></trkpt><trkpt lat="44.62452412069045" lon="8.384804953982028"><ele>483.0</ele><time>2026-04-09T12:29:24.001Z</time></trkpt><trkpt lat="44.62460304387929" lon="8.384750164309159"><ele>482.79999999999995</ele><time>2026-04-09T12:29:25Z</time></trkpt><trkpt lat="44.62467659339226" lon="8.384726747059066"><ele>482.59999999999997</ele><time>2026-04-09T12:29:26Z</time></trkpt><trkpt lat="44.62475632113078" lon="8.384736235476344"><ele>482.40000000000003</ele><time>2026-04-09T12:29:27Z</time></trkpt><trkpt lat="44.624848419363566" lon="8.384742090096639"><ele>482.20000000000005</ele><time>2026-04-09T12:29:28Z</time></trkpt><trkpt lat="44.62495207382998" lon="8.384726671798521"><ele>482.0</ele><time>2026-04-09T12:29:29Z</time></trkpt><trkpt lat="44.62506149503045" lon="8.384676139282535"><ele>481.75</ele><time>2026-04-09T12:29:30Z</time></trkpt><trkpt lat="44.62517179638061" lon="8.384616195341232"><ele>481.5</ele><time>2026-04-09T12:29:31Z</time></trkpt><trkpt lat="44.62528369790398" lon="8.384555381794268"><ele>481.25</ele><time>2026-04-09T12:29:32Z</time></trkpt><trkpt lat="44.62539806950645" lon="8.384496204964043"><ele>481.0</ele><time>2026-04-09T12:29:33Z</time></trkpt><trkpt lat="44.625508249505685" lon="8.384445632893444"><ele>479.0</ele><time>2026-04-09T12:29:34Z</time></trkpt><trkpt lat="44.62562575682575" lon="8.384408155118154"><ele>477.0</ele><time>2026-04-09T12:29:35Z</time></trkpt><trkpt lat="44.625750437807824" lon="8.38437969187044"><ele>475.0</ele><time>2026-04-09T12:29:36Z</time></trkpt><trkpt lat="44.62588057744149" lon="8.384356209448473"><ele>473.0</ele><time>2026-04-09T12:29:37Z</time></trkpt><trkpt lat="44.626012756598634" lon="8.384311403125803"><ele>470.0</ele><time>2026-04-09T12:29:38Z</time></trkpt><trkpt lat="44.62614809439157" lon="8.38431902398486"><ele>467.0</ele><time>2026-04-09T12:29:39Z</time></trkpt><trkpt lat="44.626282167332164" lon="8.384280434780823"><ele>464.0</ele><time>2026-04-09T12:29:40Z</time></trkpt><trkpt lat="44.62641723211047" lon="8.38426779701716"><ele>461.0</ele><time>2026-04-09T12:29:41Z</time></trkpt><trkpt lat="44.62654338506414" lon="8.384233318205073"><ele>461.0</ele><time>2026-04-09T12:29:42Z</time></trkpt><trkpt lat="44.62666097348921" lon="8.384195692581327"><ele>461.0</ele><time>2026-04-09T12:29:43Z</time></trkpt><trkpt lat="44.62677390375094" lon="8.384155059329336"><ele>461.0</ele><time>2026-04-09T12:29:44Z</time></trkpt><trkpt lat="44.626887901426194" lon="8.384110343407547"><ele>461.0</ele><time>2026-04-09T12:29:45Z</time></trkpt><trkpt lat="44.627007905138846" lon="8.384062178979466"><ele>460.5</ele><time>2026-04-09T12:29:46Z</time></trkpt><trkpt lat="44.62713644331295" lon="8.384032389772832"><ele>460.0</ele><time>2026-04-09T12:29:47Z</time></trkpt><trkpt lat="44.627255530375194" lon="8.383943194651007"><ele>459.5</ele><time>2026-04-09T12:29:48Z</time></trkpt><trkpt lat="44.62738412444052" lon="8.383873217749297"><ele>459.0</ele><time>2026-04-09T12:29:49Z</time></trkpt><trkpt lat="44.62751950888648" lon="8.383797607814605"><ele>459.0</ele><time>2026-04-09T12:29:50Z</time></trkpt><trkpt lat="44.62765808509541" lon="8.383715603475967"><ele>459.0</ele><time>2026-04-09T12:29:51Z</time></trkpt><trkpt lat="44.627806637520344" lon="8.383659678729638"><ele>459.0</ele><time>2026-04-09T12:29:52.001Z</time></trkpt><trkpt lat="44.627941085599694" lon="8.383582731679557"><ele>459.0</ele><time>2026-04-09T12:29:53.001Z</time></trkpt><trkpt lat="44.62807082032859" lon="8.383507294823433"><ele>460.75</ele><time>2026-04-09T12:29:54.001Z</time></trkpt><trkpt lat="44.62819712396155" lon="8.38343385316048"><ele>462.5</ele><time>2026-04-09T12:29:55.001Z</time></trkpt><trkpt lat="44.62832047960151" lon="8.383362125596449"><ele>464.25</ele><time>2026-04-09T12:29:56.001Z</time></trkpt><trkpt lat="44.62844005401878" lon="8.383292378757224"><ele>466.0</ele><time>2026-04-09T12:29:57.001Z</time></trkpt><trkpt lat="44.628548653102726" lon="8.383228901840281"><ele>465.0</ele><time>2026-04-09T12:29:58.001Z</time></trkpt><trkpt lat="44.62865392930229" lon="8.383152480042027"><ele>464.0</ele><time>2026-04-09T12:29:59.001Z</time></trkpt><trkpt lat="44.628767498057634" lon="8.38309016775433"><ele>463.0</ele><time>2026-04-09T12:30:00.001Z</time></trkpt><trkpt lat="44.62888131381147" lon="8.383022914979904"><ele>462.0</ele><time>2026-04-09T12:30:01.001Z</time></trkpt><trkpt lat="44.62899422787078" lon="8.382950366651134"><ele>462.0</ele><time>2026-04-09T12:30:02.001Z</time></trkpt><trkpt lat="44.629115605585895" lon="8.38289896900472"><ele>462.0</ele><time>2026-04-09T12:30:03.001Z</time></trkpt><trkpt lat="44.629228569026104" lon="8.382832827947595"><ele>462.0</ele><time>2026-04-09T12:30:04.001Z</time></trkpt><trkpt lat="44.62934038353399" lon="8.382767825281643"><ele>462.0</ele><time>2026-04-09T12:30:05.001Z</time></trkpt><trkpt lat="44.62945050406311" lon="8.382704828949032"><ele>462.5</ele><time>2026-04-09T12:30:06.001Z</time></trkpt><trkpt lat="44.62955529995773" lon="8.382622700914961"><ele>463.0</ele><time>2026-04-09T12:30:07.001Z</time></trkpt><trkpt lat="44.62967090394935" lon="8.382574559846434"><ele>463.5</ele><time>2026-04-09T12:30:08.001Z</time></trkpt><trkpt lat="44.629791103588445" lon="8.382539681557995"><ele>464.0</ele><time>2026-04-09T12:30:09Z</time></trkpt><trkpt lat="44.62991493392711" lon="8.382516364520505"><ele>464.0</ele><time>2026-04-09T12:30:10Z</time></trkpt><trkpt lat="44.63004220853252" lon="8.38250186324413"><ele>464.0</ele><time>2026-04-09T12:30:11Z</time></trkpt><trkpt lat="44.63017476527126" lon="8.382503052853094"><ele>464.0</ele><time>2026-04-09T12:30:12Z</time></trkpt><trkpt lat="44.63030799577971" lon="8.382478080142322"><ele>464.0</ele><time>2026-04-09T12:30:13Z</time></trkpt><trkpt lat="44.63044394093844" lon="8.382444385448997"><ele>464.75</ele><time>2026-04-09T12:30:14Z</time></trkpt><trkpt lat="44.63058448656304" lon="8.382405721746833"><ele>465.5</ele><time>2026-04-09T12:30:15Z</time></trkpt><trkpt lat="44.630724290851695" lon="8.382369909906066"><ele>466.25</ele><time>2026-04-09T12:30:16Z</time></trkpt><trkpt lat="44.63086480982036" lon="8.382331970250215"><ele>467.0</ele><time>2026-04-09T12:30:17Z</time></trkpt><trkpt lat="44.63100441758933" lon="8.382289556119245"><ele>467.75</ele><time>2026-04-09T12:30:18Z</time></trkpt><trkpt lat="44.63114309189629" lon="8.382238880988927"><ele>468.5</ele><time>2026-04-09T12:30:19Z</time></trkpt><trkpt lat="44.63128218361434" lon="8.382185213133909"><ele>469.25</ele><time>2026-04-09T12:30:20Z</time></trkpt><trkpt lat="44.63142168829479" lon="8.382126061678587"><ele>470.0</ele><time>2026-04-09T12:30:21Z</time></trkpt><trkpt lat="44.631563533031176" lon="8.38205741478862"><ele>467.66666666666663</ele><time>2026-04-09T12:30:22Z</time></trkpt><trkpt lat="44.63170703562179" lon="8.381983963303158"><ele>465.33333333333337</ele><time>2026-04-09T12:30:23Z</time></trkpt><trkpt lat="44.63185117778286" lon="8.38190673327655"><ele>463.0</ele><time>2026-04-09T12:30:24Z</time></trkpt><trkpt lat="44.63198789885206" lon="8.381827562726302"><ele>463.0</ele><time>2026-04-09T12:30:25Z</time></trkpt><trkpt lat="44.63211154707322" lon="8.381752781036132"><ele>463.0</ele><time>2026-04-09T12:30:26Z</time></trkpt><trkpt lat="44.63222491773021" lon="8.381679998738267"><ele>463.0</ele><time>2026-04-09T12:30:27Z</time></trkpt><trkpt lat="44.63233166050954" lon="8.381610096787604"><ele>463.0</ele><time>2026-04-09T12:30:28Z</time></trkpt><trkpt lat="44.6324356207331" lon="8.381539626771348"><ele>463.0</ele><time>2026-04-09T12:30:29Z</time></trkpt><trkpt lat="44.63253158628878" lon="8.381467857814979"><ele>462.99999999999994</ele><time>2026-04-09T12:30:30Z</time></trkpt><trkpt lat="44.63262758932526" lon="8.381418870361836"><ele>462.99999999999994</ele><time>2026-04-09T12:30:31Z</time></trkpt><trkpt lat="44.63269953356279" lon="8.381327718305693"><ele>463.0</ele><time>2026-04-09T12:30:32Z</time></trkpt><trkpt lat="44.632773453091026" lon="8.381249647998347"><ele>463.0</ele><time>2026-04-09T12:30:33Z</time></trkpt><trkpt lat="44.63285280347829" lon="8.381153576024069"><ele>460.0</ele><time>2026-04-09T12:30:34Z</time></trkpt><trkpt lat="44.63293680798595" lon="8.38105681308071"><ele>457.0</ele><time>2026-04-09T12:30:35Z</time></trkpt><trkpt lat="44.63302193170247" lon="8.380949783563016"><ele>454.0</ele><time>2026-04-09T12:30:36Z</time></trkpt><trkpt lat="44.63311057158314" lon="8.38083792052447"><ele>451.0</ele><time>2026-04-09T12:30:37Z</time></trkpt><trkpt lat="44.63320013110946" lon="8.380721102853046"><ele>451.0</ele><time>2026-04-09T12:30:38Z</time></trkpt><trkpt lat="44.633283743265906" lon="8.38059617082892"><ele>451.0</ele><time>2026-04-09T12:30:39Z</time></trkpt><trkpt lat="44.6333593286541" lon="8.380465691436301"><ele>451.0</ele><time>2026-04-09T12:30:40Z</time></trkpt><trkpt lat="44.6334330601484" lon="8.380337812544859"><ele>451.0</ele><time>2026-04-09T12:30:41Z</time></trkpt><trkpt lat="44.63350859887263" lon="8.380203958986291"><ele>449.25</ele><time>2026-04-09T12:30:42Z</time></trkpt><trkpt lat="44.63358608742657" lon="8.380066272289975"><ele>447.5</ele><time>2026-04-09T12:30:43Z</time></trkpt><trkpt lat="44.63366675889954" lon="8.37992748277542"><ele>445.75</ele><time>2026-04-09T12:30:44Z</time></trkpt><trkpt lat="44.633752238138314" lon="8.379797798676703"><ele>444.0</ele><time>2026-04-09T12:30:45Z</time></trkpt><trkpt lat="44.63384129796419" lon="8.379674389281284"><ele>441.75</ele><time>2026-04-09T12:30:46Z</time></trkpt><trkpt lat="44.63393628970231" lon="8.379550577214205"><ele>439.5</ele><time>2026-04-09T12:30:47Z</time></trkpt><trkpt lat="44.63403580028914" lon="8.379431374703412"><ele>437.25</ele><time>2026-04-09T12:30:48Z</time></trkpt><trkpt lat="44.634137025471425" lon="8.379312406770286"><ele>435.0</ele><time>2026-04-09T12:30:49Z</time></trkpt><trkpt lat="44.63424266579049" lon="8.37919875074432"><ele>435.0</ele><time>2026-04-09T12:30:50Z</time></trkpt><trkpt lat="44.63435063796164" lon="8.379090132613554"><ele>435.0</ele><time>2026-04-09T12:30:51Z</time></trkpt><trkpt lat="44.63446177212206" lon="8.3789897475407"><ele>435.0</ele><time>2026-04-09T12:30:52Z</time></trkpt><trkpt lat="44.63457398353224" lon="8.378891164200677"><ele>435.0</ele><time>2026-04-09T12:30:53Z</time></trkpt><trkpt lat="44.63469294786315" lon="8.378807021748354"><ele>434.0</ele><time>2026-04-09T12:30:54Z</time></trkpt><trkpt lat="44.63480738587211" lon="8.378714514928978"><ele>433.0</ele><time>2026-04-09T12:30:55Z</time></trkpt><trkpt lat="44.63491798966319" lon="8.378621128518292"><ele>432.0</ele><time>2026-04-09T12:30:56Z</time></trkpt><trkpt lat="44.635023696069254" lon="8.378524353780398"><ele>431.0</ele><time>2026-04-09T12:30:57Z</time></trkpt><trkpt lat="44.63512040583111" lon="8.378421966332944"><ele>431.0</ele><time>2026-04-09T12:30:58Z</time></trkpt><trkpt lat="44.635205332135584" lon="8.37830420818124"><ele>431.0</ele><time>2026-04-09T12:30:59Z</time></trkpt><trkpt lat="44.63528557985952" lon="8.378181532164373"><ele>431.0</ele><time>2026-04-09T12:31:00Z</time></trkpt><trkpt lat="44.63536313635267" lon="8.378057931080978"><ele>431.0</ele><time>2026-04-09T12:31:01Z</time></trkpt><trkpt lat="44.635443862649936" lon="8.377943365438279"><ele>430.75</ele><time>2026-04-09T12:31:02Z</time></trkpt><trkpt lat="44.635522243857395" lon="8.377824057426043"><ele>430.5</ele><time>2026-04-09T12:31:03Z</time></trkpt><trkpt lat="44.6355892724663" lon="8.37769084420828"><ele>430.25</ele><time>2026-04-09T12:31:04Z</time></trkpt><trkpt lat="44.63564539340306" lon="8.377549593696596"><ele>430.0</ele><time>2026-04-09T12:31:05Z</time></trkpt><trkpt lat="44.635704094564595" lon="8.377413883966183"><ele>430.0</ele><time>2026-04-09T12:31:06Z</time></trkpt><trkpt lat="44.63576633835406" lon="8.37728358724709"><ele>430.0</ele><time>2026-04-09T12:31:07Z</time></trkpt><trkpt lat="44.635839517622536" lon="8.37717577775652"><ele>430.0</ele><time>2026-04-09T12:31:08Z</time></trkpt><trkpt lat="44.63592880826888" lon="8.377092704347326"><ele>430.0</ele><time>2026-04-09T12:31:09Z</time></trkpt><trkpt lat="44.636026802120206" lon="8.377022867604245"><ele>430.0</ele><time>2026-04-09T12:31:10Z</time></trkpt><trkpt lat="44.63612774843514" lon="8.376960501143822"><ele>431.6</ele><time>2026-04-09T12:31:11Z</time></trkpt><trkpt lat="44.63622819353451" lon="8.376903833587958"><ele>433.2</ele><time>2026-04-09T12:31:12Z</time></trkpt><trkpt lat="44.63632835391636" lon="8.376852845856172"><ele>434.79999999999995</ele><time>2026-04-09T12:31:13Z</time></trkpt><trkpt lat="44.63643277534047" lon="8.376806939545194"><ele>436.4</ele><time>2026-04-09T12:31:14Z</time></trkpt><trkpt lat="44.636536332815126" lon="8.376769797224458"><ele>438.0</ele><time>2026-04-09T12:31:15Z</time></trkpt><trkpt lat="44.6366428401019" lon="8.376738010409163"><ele>438.0</ele><time>2026-04-09T12:31:16Z</time></trkpt><trkpt lat="44.636752958429625" lon="8.376708446169069"><ele>437.99999999999994</ele><time>2026-04-09T12:31:17Z</time></trkpt><trkpt lat="44.63686202125062" lon="8.376684018647826"><ele>437.99999999999994</ele><time>2026-04-09T12:31:18Z</time></trkpt><trkpt lat="44.636967734726106" lon="8.376670068508421"><ele>438.0</ele><time>2026-04-09T12:31:19Z</time></trkpt><trkpt lat="44.63707365118479" lon="8.376680531106725"><ele>438.0</ele><time>2026-04-09T12:31:20Z</time></trkpt><trkpt lat="44.63717847593886" lon="8.37671267371823"><ele>440.2</ele><time>2026-04-09T12:31:21Z</time></trkpt><trkpt lat="44.63729116109932" lon="8.376740922911091"><ele>442.4</ele><time>2026-04-09T12:31:22Z</time></trkpt><trkpt lat="44.63740065746174" lon="8.376791298814801"><ele>444.59999999999997</ele><time>2026-04-09T12:31:23Z</time></trkpt><trkpt lat="44.637503259370234" lon="8.376851606770499"><ele>446.79999999999995</ele><time>2026-04-09T12:31:24Z</time></trkpt><trkpt lat="44.63759865907569" lon="8.376917841548805"><ele>449.0</ele><time>2026-04-09T12:31:25Z</time></trkpt><trkpt lat="44.63769020459524" lon="8.376975407868715"><ele>449.0</ele><time>2026-04-09T12:31:26Z</time></trkpt><trkpt lat="44.637774286894455" lon="8.37703446990166"><ele>449.0</ele><time>2026-04-09T12:31:27Z</time></trkpt><trkpt lat="44.637849264005204" lon="8.377102665964799"><ele>449.0</ele><time>2026-04-09T12:31:28Z</time></trkpt><trkpt lat="44.63791016399468" lon="8.377188188096643"><ele>449.0</ele><time>2026-04-09T12:31:29Z</time></trkpt><trkpt lat="44.63796151261203" lon="8.377294817262447"><ele>449.0</ele><time>2026-04-09T12:31:30Z</time></trkpt><trkpt lat="44.63800429743444" lon="8.377423835679927"><ele>449.4</ele><time>2026-04-09T12:31:31Z</time></trkpt><trkpt lat="44.63803673491501" lon="8.37756783991515"><ele>449.79999999999995</ele><time>2026-04-09T12:31:32Z</time></trkpt><trkpt lat="44.63806460203152" lon="8.37770806990731"><ele>450.20000000000005</ele><time>2026-04-09T12:31:33Z</time></trkpt><trkpt lat="44.638092183857275" lon="8.377827904458647"><ele>450.6</ele><time>2026-04-09T12:31:34Z</time></trkpt><trkpt lat="44.63813416185792" lon="8.377940867944707"><ele>451.0</ele><time>2026-04-09T12:31:35Z</time></trkpt><trkpt lat="44.63818849652286" lon="8.37805084571343"><ele>449.0</ele><time>2026-04-09T12:31:36Z</time></trkpt><trkpt lat="44.638250446840246" lon="8.378155099256361"><ele>447.0</ele><time>2026-04-09T12:31:37Z</time></trkpt><trkpt lat="44.63831209515804" lon="8.37824718260036"><ele>445.0</ele><time>2026-04-09T12:31:38Z</time></trkpt><trkpt lat="44.63838937172178" lon="8.378329646080953"><ele>443.0</ele><time>2026-04-09T12:31:39Z</time></trkpt><trkpt lat="44.638478640538374" lon="8.378401998485632"><ele>441.0</ele><time>2026-04-09T12:31:40Z</time></trkpt><trkpt lat="44.6385752845809" lon="8.378451261896583"><ele>442.4</ele><time>2026-04-09T12:31:41Z</time></trkpt><trkpt lat="44.63867032210375" lon="8.378507190152591"><ele>443.8</ele><time>2026-04-09T12:31:42Z</time></trkpt><trkpt lat="44.63875401011151" lon="8.378587278719333"><ele>445.19999999999993</ele><time>2026-04-09T12:31:43Z</time></trkpt><trkpt lat="44.638828445560605" lon="8.378688311578859"><ele>446.59999999999997</ele><time>2026-04-09T12:31:44Z</time></trkpt><trkpt lat="44.63889241723704" lon="8.378783591226064"><ele>448.0</ele><time>2026-04-09T12:31:45Z</time></trkpt><trkpt lat="44.63896231005815" lon="8.378840632763062"><ele>448.0</ele><time>2026-04-09T12:31:46Z</time></trkpt><trkpt lat="44.63904636997786" lon="8.378861566821886"><ele>447.99999999999994</ele><time>2026-04-09T12:31:47Z</time></trkpt><trkpt lat="44.63914701544713" lon="8.378841295155159"><ele>447.99999999999994</ele><time>2026-04-09T12:31:48.001Z</time></trkpt><trkpt lat="44.6392395491468" lon="8.378865302280083"><ele>448.0</ele><time>2026-04-09T12:31:49.001Z</time></trkpt><trkpt lat="44.63932756961375" lon="8.378872508055627"><ele>448.0</ele><time>2026-04-09T12:31:50.001Z</time></trkpt><trkpt lat="44.63940802101208" lon="8.378874522106969"><ele>445.33333333333337</ele><time>2026-04-09T12:31:51.001Z</time></trkpt><trkpt lat="44.63946969285167" lon="8.378932916562059"><ele>442.6666666666667</ele><time>2026-04-09T12:31:52.001Z</time></trkpt><trkpt lat="44.63951827206382" lon="8.379014839541723"><ele>440.0</ele><time>2026-04-09T12:31:53.001Z</time></trkpt><trkpt lat="44.639556123163686" lon="8.37910994709151"><ele>437.33333333333337</ele><time>2026-04-09T12:31:54.001Z</time></trkpt><trkpt lat="44.63958933224738" lon="8.379208233409063"><ele>434.6666666666667</ele><time>2026-04-09T12:31:55.001Z</time></trkpt><trkpt lat="44.63961966748566" lon="8.379309125048026"><ele>432.0</ele><time>2026-04-09T12:31:56.001Z</time></trkpt><trkpt lat="44.63964633209388" lon="8.379414184834403"><ele>432.0</ele><time>2026-04-09T12:31:57.001Z</time></trkpt><trkpt lat="44.63966865209934" lon="8.37952623408065"><ele>432.00000000000006</ele><time>2026-04-09T12:31:58.001Z</time></trkpt><trkpt lat="44.639691753613874" lon="8.37964410232888"><ele>432.00000000000006</ele><time>2026-04-09T12:31:59.001Z</time></trkpt><trkpt lat="44.63971687586953" lon="8.37976658150219"><ele>432.0</ele><time>2026-04-09T12:32:00.001Z</time></trkpt><trkpt lat="44.63974286214675" lon="8.379895610369086"><ele>432.0</ele><time>2026-04-09T12:32:01.001Z</time></trkpt><trkpt lat="44.63977044565531" lon="8.38002946844209"><ele>432.20000000000005</ele><time>2026-04-09T12:32:02.001Z</time></trkpt><trkpt lat="44.63979840011405" lon="8.38016961806967"><ele>432.40000000000003</ele><time>2026-04-09T12:32:03.001Z</time></trkpt><trkpt lat="44.639828441192115" lon="8.380313181951262"><ele>432.59999999999997</ele><time>2026-04-09T12:32:04.001Z</time></trkpt><trkpt lat="44.63985595502371" lon="8.380456285038482"><ele>432.79999999999995</ele><time>2026-04-09T12:32:05.001Z</time></trkpt><trkpt lat="44.63988340174686" lon="8.380600647180936"><ele>433.0</ele><time>2026-04-09T12:32:06.001Z</time></trkpt><trkpt lat="44.63991137258174" lon="8.380746939938751"><ele>433.0</ele><time>2026-04-09T12:32:07.001Z</time></trkpt><trkpt lat="44.63994296481045" lon="8.380889539922757"><ele>432.99999999999994</ele><time>2026-04-09T12:32:08.001Z</time></trkpt><trkpt lat="44.63997149926726" lon="8.381030508055773"><ele>432.99999999999994</ele><time>2026-04-09T12:32:09.001Z</time></trkpt><trkpt lat="44.639998781355956" lon="8.381167059407725"><ele>433.0</ele><time>2026-04-09T12:32:10.001Z</time></trkpt><trkpt lat="44.640025881035726" lon="8.381295726225986"><ele>433.0</ele><time>2026-04-09T12:32:11.001Z</time></trkpt><trkpt lat="44.64005430148176" lon="8.381415011247036"><ele>433.0</ele><time>2026-04-09T12:32:12.001Z</time></trkpt><trkpt lat="44.64006778177326" lon="8.381537708542018"><ele>432.99999999999994</ele><time>2026-04-09T12:32:13.001Z</time></trkpt><trkpt lat="44.64011413827793" lon="8.381635717012841"><ele>432.99999999999994</ele><time>2026-04-09T12:32:14.001Z</time></trkpt><trkpt lat="44.64013782782842" lon="8.381757006251087"><ele>433.0</ele><time>2026-04-09T12:32:15Z</time></trkpt><trkpt lat="44.64015143512189" lon="8.381892825211185"><ele>433.0</ele><time>2026-04-09T12:32:16Z</time></trkpt><trkpt lat="44.64016502493736" lon="8.382028626757542"><ele>433.0</ele><time>2026-04-09T12:32:17Z</time></trkpt><trkpt lat="44.64017934877533" lon="8.382167178065572"><ele>432.99999999999994</ele><time>2026-04-09T12:32:18Z</time></trkpt><trkpt lat="44.64019804208579" lon="8.382307436570912"><ele>432.99999999999994</ele><time>2026-04-09T12:32:19Z</time></trkpt><trkpt lat="44.64022992903143" lon="8.382444925666105"><ele>433.0</ele><time>2026-04-09T12:32:20Z</time></trkpt><trkpt lat="44.64027215962129" lon="8.3825748276562"><ele>433.0</ele><time>2026-04-09T12:32:21Z</time></trkpt><trkpt lat="44.64031953814714" lon="8.382699381100492"><ele>431.59999999999997</ele><time>2026-04-09T12:32:22Z</time></trkpt><trkpt lat="44.64036549851444" lon="8.382823999000005"><ele>430.19999999999993</ele><time>2026-04-09T12:32:23Z</time></trkpt><trkpt lat="44.64041559780644" lon="8.38294240229085"><ele>428.8</ele><time>2026-04-09T12:32:24Z</time></trkpt><trkpt lat="44.64046853173917" lon="8.383055194543592"><ele>427.4</ele><time>2026-04-09T12:32:25Z</time></trkpt><trkpt lat="44.64052007059248" lon="8.383157743812072"><ele>426.0</ele><time>2026-04-09T12:32:26Z</time></trkpt><trkpt lat="44.64057207410323" lon="8.383255177583894"><ele>426.0</ele><time>2026-04-09T12:32:27Z</time></trkpt><trkpt lat="44.64062770779267" lon="8.383341903569281"><ele>426.0</ele><time>2026-04-09T12:32:28Z</time></trkpt><trkpt lat="44.64067579886675" lon="8.383426988590577"><ele>426.0</ele><time>2026-04-09T12:32:29Z</time></trkpt><trkpt lat="44.640753280930056" lon="8.38348170919941"><ele>426.0</ele><time>2026-04-09T12:32:30Z</time></trkpt><trkpt lat="44.64084498611302" lon="8.383489381213963"><ele>426.0</ele><time>2026-04-09T12:32:31Z</time></trkpt><trkpt lat="44.640951343583076" lon="8.383429431667002"><ele>426.0</ele><time>2026-04-09T12:32:32Z</time></trkpt><trkpt lat="44.6410206248911" lon="8.383296253362285"><ele>426.0</ele><time>2026-04-09T12:32:33Z</time></trkpt><trkpt lat="44.64105660641738" lon="8.383167116801935"><ele>426.0</ele><time>2026-04-09T12:32:34Z</time></trkpt><trkpt lat="44.64109040587117" lon="8.383053112834702"><ele>426.0</ele><time>2026-04-09T12:32:35Z</time></trkpt><trkpt lat="44.64113307859808" lon="8.382904262964141"><ele>426.0</ele><time>2026-04-09T12:32:36Z</time></trkpt><trkpt lat="44.641175486703965" lon="8.382749738831796"><ele>422.20000000000005</ele><time>2026-04-09T12:32:37Z</time></trkpt><trkpt lat="44.641217217597394" lon="8.382595671901075"><ele>418.40000000000003</ele><time>2026-04-09T12:32:38Z</time></trkpt><trkpt lat="44.641258034865416" lon="8.382440760574115"><ele>414.6</ele><time>2026-04-09T12:32:39Z</time></trkpt><trkpt lat="44.64129532688137" lon="8.382298668885426"><ele>410.8</ele><time>2026-04-09T12:32:40Z</time></trkpt><trkpt lat="44.64133017405206" lon="8.38216240754207"><ele>407.0</ele><time>2026-04-09T12:32:41Z</time></trkpt><trkpt lat="44.6413432267194" lon="8.382021140425863"><ele>406.40000000000003</ele><time>2026-04-09T12:32:42Z</time></trkpt><trkpt lat="44.641365340198945" lon="8.381887761243599"><ele>405.8</ele><time>2026-04-09T12:32:43Z</time></trkpt><trkpt lat="44.641351794592026" lon="8.381740418649372"><ele>405.2</ele><time>2026-04-09T12:32:44Z</time></trkpt><trkpt lat="44.641337323798936" lon="8.381595104367747"><ele>404.6</ele><time>2026-04-09T12:32:45Z</time></trkpt><trkpt lat="44.6413294666696" lon="8.381449847331409"><ele>404.0</ele><time>2026-04-09T12:32:46Z</time></trkpt><trkpt lat="44.64134097860614" lon="8.381313689890463"><ele>403.79999999999995</ele><time>2026-04-09T12:32:47Z</time></trkpt><trkpt lat="44.641372118683435" lon="8.381181153572255"><ele>403.59999999999997</ele><time>2026-04-09T12:32:48Z</time></trkpt><trkpt lat="44.641417113213365" lon="8.381060935911576"><ele>403.4</ele><time>2026-04-09T12:32:49Z</time></trkpt><trkpt lat="44.641480399556855" lon="8.380976831858936"><ele>403.2</ele><time>2026-04-09T12:32:50Z</time></trkpt><trkpt lat="44.64155714553673" lon="8.380923912749022"><ele>403.0</ele><time>2026-04-09T12:32:51Z</time></trkpt><trkpt lat="44.641631454552545" lon="8.380847025909317"><ele>403.0</ele><time>2026-04-09T12:32:52Z</time></trkpt><trkpt lat="44.641720876358065" lon="8.380846042371402"><ele>403.0</ele><time>2026-04-09T12:32:53Z</time></trkpt><trkpt lat="44.64179949220841" lon="8.380831013914387"><ele>403.0</ele><time>2026-04-09T12:32:54Z</time></trkpt><trkpt lat="44.641856454543365" lon="8.38079216031563"><ele>403.0</ele><time>2026-04-09T12:32:55Z</time></trkpt><trkpt lat="44.64193823433651" lon="8.380637110504729"><ele>403.0</ele><time>2026-04-09T12:32:57Z</time></trkpt><trkpt lat="44.64187797514832" lon="8.380513814246552"><ele>402.25</ele><time>2026-04-09T12:32:58Z</time></trkpt><trkpt lat="44.641840560295016" lon="8.380382492707495"><ele>401.5</ele><time>2026-04-09T12:32:59Z</time></trkpt><trkpt lat="44.64178608049469" lon="8.38024650057525"><ele>400.75</ele><time>2026-04-09T12:33:00Z</time></trkpt><trkpt lat="44.64172725103453" lon="8.380099650908866"><ele>400.0</ele><time>2026-04-09T12:33:01Z</time></trkpt><trkpt lat="44.641668045160706" lon="8.379951860898155"><ele>400.0</ele><time>2026-04-09T12:33:02Z</time></trkpt><trkpt lat="44.64161352132175" lon="8.379815758673818"><ele>400.0</ele><time>2026-04-09T12:33:03Z</time></trkpt><trkpt lat="44.64156182705403" lon="8.37968481537575"><ele>400.0</ele><time>2026-04-09T12:33:04Z</time></trkpt><trkpt lat="44.64152000982669" lon="8.379559073113183"><ele>400.0</ele><time>2026-04-09T12:33:05Z</time></trkpt><trkpt lat="44.641506834067016" lon="8.379429907211037"><ele>400.0</ele><time>2026-04-09T12:33:06Z</time></trkpt><trkpt lat="44.64153049514393" lon="8.379314008066665"><ele>399.00000000000006</ele><time>2026-04-09T12:33:07Z</time></trkpt><trkpt lat="44.6415630627599" lon="8.37920594574685"><ele>398.0</ele><time>2026-04-09T12:33:08Z</time></trkpt><trkpt lat="44.64159795688124" lon="8.379094688656984"><ele>397.0</ele><time>2026-04-09T12:33:09Z</time></trkpt><trkpt lat="44.6416333944948" lon="8.378982201918957"><ele>396.0</ele><time>2026-04-09T12:33:10Z</time></trkpt><trkpt lat="44.641669277719934" lon="8.378868300503383"><ele>395.00000000000006</ele><time>2026-04-09T12:33:11Z</time></trkpt><trkpt lat="44.64170581870505" lon="8.378754769081596"><ele>394.0</ele><time>2026-04-09T12:33:12Z</time></trkpt><trkpt lat="44.641742903218756" lon="8.378639445964216"><ele>393.83333333333337</ele><time>2026-04-09T12:33:13Z</time></trkpt><trkpt lat="44.641783683465434" lon="8.37852838184683"><ele>393.6666666666667</ele><time>2026-04-09T12:33:14Z</time></trkpt><trkpt lat="44.641833399993715" lon="8.37842902570422"><ele>393.5</ele><time>2026-04-09T12:33:15Z</time></trkpt><trkpt lat="44.64189376530279" lon="8.378343068593622"><ele>393.33333333333337</ele><time>2026-04-09T12:33:16Z</time></trkpt><trkpt lat="44.641953575407356" lon="8.378272721964233"><ele>393.1666666666667</ele><time>2026-04-09T12:33:17Z</time></trkpt><trkpt lat="44.642013965542255" lon="8.378235576674204"><ele>393.0</ele><time>2026-04-09T12:33:18Z</time></trkpt><trkpt lat="44.642079488281745" lon="8.378221320290049"><ele>391.0</ele><time>2026-04-09T12:33:19Z</time></trkpt><trkpt lat="44.64214227944898" lon="8.378236115173205"><ele>389.0</ele><time>2026-04-09T12:33:20Z</time></trkpt><trkpt lat="44.6422199331727" lon="8.378252148427494"><ele>387.0</ele><time>2026-04-09T12:33:21Z</time></trkpt><trkpt lat="44.642306590386866" lon="8.378267283086723"><ele>385.0</ele><time>2026-04-09T12:33:22Z</time></trkpt><trkpt lat="44.642400801578965" lon="8.378277705519443"><ele>383.0</ele><time>2026-04-09T12:33:23Z</time></trkpt><trkpt lat="44.64250064222716" lon="8.378274266194419"><ele>381.0</ele><time>2026-04-09T12:33:24Z</time></trkpt><trkpt lat="44.642614981761454" lon="8.378261077775365"><ele>381.0</ele><time>2026-04-09T12:33:25Z</time></trkpt><trkpt lat="44.64273773490819" lon="8.378248309814422"><ele>381.0</ele><time>2026-04-09T12:33:26Z</time></trkpt><trkpt lat="44.64286392831873" lon="8.37823256277345"><ele>381.0</ele><time>2026-04-09T12:33:27Z</time></trkpt><trkpt lat="44.6429934157194" lon="8.378213939877332"><ele>381.0</ele><time>2026-04-09T12:33:28Z</time></trkpt><trkpt lat="44.643113095486754" lon="8.378174036914162"><ele>379.0</ele><time>2026-04-09T12:33:29Z</time></trkpt><trkpt lat="44.64322908407938" lon="8.378160559817061"><ele>377.0</ele><time>2026-04-09T12:33:30Z</time></trkpt><trkpt lat="44.64333775179801" lon="8.378138903428011"><ele>375.0</ele><time>2026-04-09T12:33:31Z</time></trkpt><trkpt lat="44.64344026420662" lon="8.37809408680443"><ele>373.0</ele><time>2026-04-09T12:33:32Z</time></trkpt><trkpt lat="44.64353404582202" lon="8.378032497565703"><ele>371.0</ele><time>2026-04-09T12:33:33Z</time></trkpt><trkpt lat="44.643615574694984" lon="8.377947710524525"><ele>367.5</ele><time>2026-04-09T12:33:34Z</time></trkpt><trkpt lat="44.64370277864661" lon="8.377854029066468"><ele>364.0</ele><time>2026-04-09T12:33:35Z</time></trkpt><trkpt lat="44.64377414868511" lon="8.377731901015377"><ele>360.5</ele><time>2026-04-09T12:33:36Z</time></trkpt><trkpt lat="44.64385053010423" lon="8.377600766043"><ele>357.0</ele><time>2026-04-09T12:33:37Z</time></trkpt><trkpt lat="44.64393047186027" lon="8.377476441706163"><ele>357.0</ele><time>2026-04-09T12:33:38Z</time></trkpt><trkpt lat="44.64402187327251" lon="8.377364430226612"><ele>357.0</ele><time>2026-04-09T12:33:39Z</time></trkpt><trkpt lat="44.64411813544674" lon="8.37726276480767"><ele>357.0</ele><time>2026-04-09T12:33:40Z</time></trkpt><trkpt lat="44.64421952605277" lon="8.377175979377888"><ele>357.0</ele><time>2026-04-09T12:33:41Z</time></trkpt><trkpt lat="44.6443255183458" lon="8.377093468705926"><ele>356.5</ele><time>2026-04-09T12:33:42Z</time></trkpt><trkpt lat="44.64443761431818" lon="8.3770052255139"><ele>356.0</ele><time>2026-04-09T12:33:43Z</time></trkpt><trkpt lat="44.64455245172426" lon="8.376916942722856"><ele>355.5</ele><time>2026-04-09T12:33:44Z</time></trkpt><trkpt lat="44.64466570894655" lon="8.376830084099137"><ele>355.0</ele><time>2026-04-09T12:33:45Z</time></trkpt><trkpt lat="44.64477179601489" lon="8.376745053431808"><ele>353.0</ele><time>2026-04-09T12:33:46Z</time></trkpt><trkpt lat="44.644872288479874" lon="8.37666095609254"><ele>351.0</ele><time>2026-04-09T12:33:47.001Z</time></trkpt><trkpt lat="44.64496069036044" lon="8.376568922650142"><ele>349.0</ele><time>2026-04-09T12:33:48.001Z</time></trkpt><trkpt lat="44.64502914320715" lon="8.37648917353222"><ele>347.0</ele><time>2026-04-09T12:33:49.001Z</time></trkpt><trkpt lat="44.645089393420996" lon="8.376410594721142"><ele>345.0</ele><time>2026-04-09T12:33:50.001Z</time></trkpt><trkpt lat="44.64514812148062" lon="8.376332378576082"><ele>344.8</ele><time>2026-04-09T12:33:51.001Z</time></trkpt><trkpt lat="44.64521266355103" lon="8.37624633932889"><ele>344.6</ele><time>2026-04-09T12:33:52.001Z</time></trkpt><trkpt lat="44.64528390403398" lon="8.376164900933885"><ele>344.4</ele><time>2026-04-09T12:33:53.001Z</time></trkpt><trkpt lat="44.645369088361306" lon="8.376102901818497"><ele>344.2</ele><time>2026-04-09T12:33:54.001Z</time></trkpt><trkpt lat="44.64546601046928" lon="8.376046898786642"><ele>344.0</ele><time>2026-04-09T12:33:55.001Z</time></trkpt><trkpt lat="44.645566557548655" lon="8.375979076350406"><ele>344.0</ele><time>2026-04-09T12:33:56.001Z</time></trkpt><trkpt lat="44.645673015608786" lon="8.375886762324797"><ele>344.0</ele><time>2026-04-09T12:33:57.001Z</time></trkpt><trkpt lat="44.645779525328095" lon="8.375776178909248"><ele>344.0</ele><time>2026-04-09T12:33:58.001Z</time></trkpt><trkpt lat="44.6458898840746" lon="8.375659256964083"><ele>344.0</ele><time>2026-04-09T12:33:59.001Z</time></trkpt><trkpt lat="44.64600338082402" lon="8.375550317533536"><ele>343.0</ele><time>2026-04-09T12:34:00.001Z</time></trkpt><trkpt lat="44.64611655373629" lon="8.375446055247828"><ele>342.0</ele><time>2026-04-09T12:34:01.001Z</time></trkpt><trkpt lat="44.6462263209843" lon="8.37534590650116"><ele>341.0</ele><time>2026-04-09T12:34:02.001Z</time></trkpt><trkpt lat="44.646327338349835" lon="8.3752537402524"><ele>340.0</ele><time>2026-04-09T12:34:03.001Z</time></trkpt><trkpt lat="44.64641829377171" lon="8.375168728861164"><ele>339.4</ele><time>2026-04-09T12:34:04.001Z</time></trkpt><trkpt lat="44.646499146230234" lon="8.375083104924391"><ele>338.8</ele><time>2026-04-09T12:34:05.001Z</time></trkpt><trkpt lat="44.646575894859396" lon="8.374976728669877"><ele>338.20000000000005</ele><time>2026-04-09T12:34:06.001Z</time></trkpt><trkpt lat="44.64664664336457" lon="8.374846772076472"><ele>337.6</ele><time>2026-04-09T12:34:07.001Z</time></trkpt><trkpt lat="44.64671298054649" lon="8.374701914231432"><ele>337.0</ele><time>2026-04-09T12:34:08.001Z</time></trkpt><trkpt lat="44.646775737604" lon="8.37454612620954"><ele>335.0</ele><time>2026-04-09T12:34:09.001Z</time></trkpt><trkpt lat="44.64683636399948" lon="8.374391727301475"><ele>333.0</ele><time>2026-04-09T12:34:10.001Z</time></trkpt><trkpt lat="44.64689956524708" lon="8.374243788741824"><ele>331.0</ele><time>2026-04-09T12:34:11.001Z</time></trkpt><trkpt lat="44.64696941969608" lon="8.374113839716168"><ele>329.0</ele><time>2026-04-09T12:34:12.001Z</time></trkpt><trkpt lat="44.64703332032434" lon="8.373982595939047"><ele>326.8</ele><time>2026-04-09T12:34:13.001Z</time></trkpt><trkpt lat="44.64708773105901" lon="8.373872808979675"><ele>324.59999999999997</ele><time>2026-04-09T12:34:14.001Z</time></trkpt><trkpt lat="44.64715055241855" lon="8.373775522576576"><ele>322.4</ele><time>2026-04-09T12:34:15.001Z</time></trkpt><trkpt lat="44.647175446166464" lon="8.37364600011804"><ele>320.2</ele><time>2026-04-09T12:34:16.001Z</time></trkpt><trkpt lat="44.64721383721935" lon="8.373527405581358"><ele>318.0</ele><time>2026-04-09T12:34:17.001Z</time></trkpt><trkpt lat="44.647252230376736" lon="8.373416330621874"><ele>318.0</ele><time>2026-04-09T12:34:18.001Z</time></trkpt><trkpt lat="44.647296328013006" lon="8.373315436306733"><ele>318.0</ele><time>2026-04-09T12:34:19.001Z</time></trkpt><trkpt lat="44.64735273443424" lon="8.37323885966797"><ele>318.0</ele><time>2026-04-09T12:34:20.001Z</time></trkpt><trkpt lat="44.647388674120954" lon="8.373158079527382"><ele>318.0</ele><time>2026-04-09T12:34:21Z</time></trkpt><trkpt lat="44.64742029412642" lon="8.373072035880194"><ele>318.0</ele><time>2026-04-09T12:34:22Z</time></trkpt><trkpt lat="44.64744297612689" lon="8.37297334601867"><ele>318.0</ele><time>2026-04-09T12:34:23Z</time></trkpt><trkpt lat="44.64745159194449" lon="8.372872417515007"><ele>318.0</ele><time>2026-04-09T12:34:24Z</time></trkpt><trkpt lat="44.64744696019678" lon="8.372759704329631"><ele>317.0</ele><time>2026-04-09T12:34:25Z</time></trkpt><trkpt lat="44.647423954454766" lon="8.372642776094567"><ele>316.0</ele><time>2026-04-09T12:34:26Z</time></trkpt><trkpt lat="44.647393604126464" lon="8.37253177598799"><ele>315.0</ele><time>2026-04-09T12:34:27Z</time></trkpt><trkpt lat="44.647362301352295" lon="8.37243271144403"><ele>314.0</ele><time>2026-04-09T12:34:28Z</time></trkpt><trkpt lat="44.64730455288679" lon="8.372323316014887"><ele>313.0</ele><time>2026-04-09T12:34:30Z</time></trkpt><trkpt lat="44.647313827447796" lon="8.372220454276945"><ele>312.0</ele><time>2026-04-09T12:34:33Z</time></trkpt><trkpt lat="44.64742967192333" lon="8.37225796774825"><ele>312.0</ele><time>2026-04-09T12:34:35Z</time></trkpt><trkpt lat="44.64749516276861" lon="8.372321041913096"><ele>312.0</ele><time>2026-04-09T12:34:36Z</time></trkpt><trkpt lat="44.64758527359196" lon="8.372359155448132"><ele>312.0</ele><time>2026-04-09T12:34:37Z</time></trkpt><trkpt lat="44.64768358756006" lon="8.372398563090737"><ele>312.0</ele><time>2026-04-09T12:34:38Z</time></trkpt><trkpt lat="44.64778190042205" lon="8.372438571929374"><ele>312.0</ele><time>2026-04-09T12:34:39Z</time></trkpt><trkpt lat="44.64788575150643" lon="8.372481839837148"><ele>310.0</ele><time>2026-04-09T12:34:40Z</time></trkpt><trkpt lat="44.64799192715456" lon="8.372511592390396"><ele>308.0</ele><time>2026-04-09T12:34:41Z</time></trkpt><trkpt lat="44.648093525344" lon="8.372553065991488"><ele>306.0</ele><time>2026-04-09T12:34:42Z</time></trkpt><trkpt lat="44.6481772902866" lon="8.37260319788198"><ele>304.0</ele><time>2026-04-09T12:34:43Z</time></trkpt><trkpt lat="44.64825096683807" lon="8.372644230195508"><ele>302.0</ele><time>2026-04-09T12:34:44Z</time></trkpt><trkpt lat="44.64832110312136" lon="8.372677696072722"><ele>302.0</ele><time>2026-04-09T12:34:45Z</time></trkpt><trkpt lat="44.64839980546743" lon="8.37272652612865"><ele>302.0</ele><time>2026-04-09T12:34:46Z</time></trkpt><trkpt lat="44.648504315022336" lon="8.372711658751747"><ele>302.0</ele><time>2026-04-09T12:34:47Z</time></trkpt><trkpt lat="44.648602347614144" lon="8.372647640373954"><ele>302.0</ele><time>2026-04-09T12:34:48Z</time></trkpt><trkpt lat="44.64870001253252" lon="8.372588559936377"><ele>302.0</ele><time>2026-04-09T12:34:49Z</time></trkpt><trkpt lat="44.64880491801279" lon="8.372526189571637"><ele>299.6</ele><time>2026-04-09T12:34:50Z</time></trkpt><trkpt lat="44.64891153329574" lon="8.372462802600282"><ele>297.2</ele><time>2026-04-09T12:34:51Z</time></trkpt><trkpt lat="44.649013161265295" lon="8.372402146506504"><ele>294.8</ele><time>2026-04-09T12:34:52Z</time></trkpt><trkpt lat="44.64910495294897" lon="8.372343395974822"><ele>292.4</ele><time>2026-04-09T12:34:53Z</time></trkpt><trkpt lat="44.649190420563805" lon="8.372280881440807"><ele>290.0</ele><time>2026-04-09T12:34:54Z</time></trkpt><trkpt lat="44.64926741640335" lon="8.372212925819072"><ele>290.6</ele><time>2026-04-09T12:34:55Z</time></trkpt><trkpt lat="44.64933326040318" lon="8.37212697688383"><ele>291.2</ele><time>2026-04-09T12:34:56Z</time></trkpt><trkpt lat="44.64938587126117" lon="8.372027270163478"><ele>291.8</ele><time>2026-04-09T12:34:57Z</time></trkpt><trkpt lat="44.64942023216555" lon="8.37190735805733"><ele>292.4</ele><time>2026-04-09T12:34:58Z</time></trkpt><trkpt lat="44.64944176341329" lon="8.371775774984584"><ele>293.0</ele><time>2026-04-09T12:34:59Z</time></trkpt><trkpt lat="44.64945890742455" lon="8.371638895082219"><ele>290.4</ele><time>2026-04-09T12:35:00Z</time></trkpt><trkpt lat="44.64947621261107" lon="8.37149994142288"><ele>287.8</ele><time>2026-04-09T12:35:01Z</time></trkpt><trkpt lat="44.64949305208809" lon="8.371366783727906"><ele>285.2</ele><time>2026-04-09T12:35:02Z</time></trkpt><trkpt lat="44.64950953039404" lon="8.371235360663256"><ele>282.6</ele><time>2026-04-09T12:35:03Z</time></trkpt><trkpt lat="44.64950862125289" lon="8.371110256204796"><ele>280.0</ele><time>2026-04-09T12:35:04Z</time></trkpt><trkpt lat="44.64951903326973" lon="8.3710076041782"><ele>279.8333333333333</ele><time>2026-04-09T12:35:05Z</time></trkpt><trkpt lat="44.64953495310176" lon="8.370910258789507"><ele>279.66666666666663</ele><time>2026-04-09T12:35:06Z</time></trkpt><trkpt lat="44.64950300567134" lon="8.370818576974836"><ele>279.5</ele><time>2026-04-09T12:35:07Z</time></trkpt><trkpt lat="44.649483725155775" lon="8.370728973465898"><ele>279.3333333333333</ele><time>2026-04-09T12:35:08Z</time></trkpt><trkpt lat="44.649415346696706" lon="8.370671870774803"><ele>279.1666666666667</ele><time>2026-04-09T12:35:09Z</time></trkpt><trkpt lat="44.6493260468544" lon="8.370660659517595"><ele>279.0</ele><time>2026-04-09T12:35:10Z</time></trkpt><trkpt lat="44.64923222440518" lon="8.370656881396968"><ele>279.59999999999997</ele><time>2026-04-09T12:35:11Z</time></trkpt><trkpt lat="44.649131727418286" lon="8.370663642478284"><ele>280.2</ele><time>2026-04-09T12:35:12Z</time></trkpt><trkpt lat="44.64902205460012" lon="8.37067448453255"><ele>280.79999999999995</ele><time>2026-04-09T12:35:13Z</time></trkpt><trkpt lat="44.64891236654816" lon="8.370682162383417"><ele>281.4</ele><time>2026-04-09T12:35:14Z</time></trkpt><trkpt lat="44.64881069278469" lon="8.370687389824006"><ele>282.0</ele><time>2026-04-09T12:35:15Z</time></trkpt><trkpt lat="44.64872320245652" lon="8.370690358090732"><ele>282.0</ele><time>2026-04-09T12:35:16Z</time></trkpt><trkpt lat="44.648647274074136" lon="8.370687246039727"><ele>282.0</ele><time>2026-04-09T12:35:17Z</time></trkpt><trkpt lat="44.648584853623056" lon="8.370653709107174"><ele>282.0</ele><time>2026-04-09T12:35:18Z</time></trkpt><trkpt lat="44.648544206336595" lon="8.370575980932424"><ele>282.0</ele><time>2026-04-09T12:35:19Z</time></trkpt><trkpt lat="44.648551751947174" lon="8.370409939291116"><ele>282.0</ele><time>2026-04-09T12:35:21Z</time></trkpt><trkpt lat="44.6485767233845" lon="8.370289944841058"><ele>282.0</ele><time>2026-04-09T12:35:22Z</time></trkpt><trkpt lat="44.64860749078111" lon="8.370151303269193"><ele>280.5</ele><time>2026-04-09T12:35:23Z</time></trkpt><trkpt lat="44.64864199224632" lon="8.369995835398171"><ele>279.0</ele><time>2026-04-09T12:35:24Z</time></trkpt><trkpt lat="44.64867920653549" lon="8.369822894694558"><ele>277.5</ele><time>2026-04-09T12:35:25Z</time></trkpt><trkpt lat="44.64871839421047" lon="8.369639516357175"><ele>276.0</ele><time>2026-04-09T12:35:26Z</time></trkpt><trkpt lat="44.64874949559392" lon="8.369446162558301"><ele>274.75</ele><time>2026-04-09T12:35:27Z</time></trkpt><trkpt lat="44.64878121229148" lon="8.36926008599681"><ele>273.5</ele><time>2026-04-09T12:35:28Z</time></trkpt><trkpt lat="44.64881169397459" lon="8.369083431995543"><ele>272.25</ele><time>2026-04-09T12:35:29Z</time></trkpt><trkpt lat="44.64882509674759" lon="8.36890805893111"><ele>271.0</ele><time>2026-04-09T12:35:30Z</time></trkpt><trkpt lat="44.648866188717385" lon="8.368760288337166"><ele>268.66666666666663</ele><time>2026-04-09T12:35:31Z</time></trkpt><trkpt lat="44.64888469073419" lon="8.368631410917914"><ele>266.3333333333333</ele><time>2026-04-09T12:35:32Z</time></trkpt><trkpt lat="44.64888525751298" lon="8.368514809695187"><ele>264.0</ele><time>2026-04-09T12:35:33Z</time></trkpt><trkpt lat="44.648905590493975" lon="8.368405665666756"><ele>261.6666666666667</ele><time>2026-04-09T12:35:34Z</time></trkpt><trkpt lat="44.64894670190317" lon="8.368306155531219"><ele>259.33333333333337</ele><time>2026-04-09T12:35:35Z</time></trkpt><trkpt lat="44.648985476800895" lon="8.368212566894869"><ele>257.0</ele><time>2026-04-09T12:35:36Z</time></trkpt><trkpt lat="44.64902603843603" lon="8.368108603446494"><ele>254.8</ele><time>2026-04-09T12:35:37Z</time></trkpt><trkpt lat="44.64909564770576" lon="8.368012827277225"><ele>252.6</ele><time>2026-04-09T12:35:38Z</time></trkpt><trkpt lat="44.64917954891224" lon="8.367917040509429"><ele>250.40000000000003</ele><time>2026-04-09T12:35:39Z</time></trkpt><trkpt lat="44.64927207040426" lon="8.367814211223655"><ele>248.20000000000002</ele><time>2026-04-09T12:35:40Z</time></trkpt><trkpt lat="44.64936676482744" lon="8.367701609841607"><ele>246.0</ele><time>2026-04-09T12:35:41Z</time></trkpt><trkpt lat="44.64946475248645" lon="8.367591631307008"><ele>246.0</ele><time>2026-04-09T12:35:42Z</time></trkpt><trkpt lat="44.64954449109543" lon="8.367453289602961"><ele>246.0</ele><time>2026-04-09T12:35:43Z</time></trkpt><trkpt lat="44.64960234881708" lon="8.367302683438444"><ele>246.0</ele><time>2026-04-09T12:35:44Z</time></trkpt><trkpt lat="44.64967390211392" lon="8.367175880932411"><ele>246.0</ele><time>2026-04-09T12:35:45Z</time></trkpt><trkpt lat="44.649752228467854" lon="8.367053050200719"><ele>241.0</ele><time>2026-04-09T12:35:46Z</time></trkpt><trkpt lat="44.649846054215644" lon="8.366939090081994"><ele>236.0</ele><time>2026-04-09T12:35:47Z</time></trkpt><trkpt lat="44.64994637006112" lon="8.366833474343544"><ele>231.0</ele><time>2026-04-09T12:35:48Z</time></trkpt><trkpt lat="44.65004523359833" lon="8.366725118222515"><ele>226.0</ele><time>2026-04-09T12:35:49Z</time></trkpt><trkpt lat="44.65014180425822" lon="8.366608093961313"><ele>226.0</ele><time>2026-04-09T12:35:50Z</time></trkpt><trkpt lat="44.65023520444332" lon="8.36649851836657"><ele>226.00000000000003</ele><time>2026-04-09T12:35:51Z</time></trkpt><trkpt lat="44.65032575785055" lon="8.366386579181171"><ele>226.00000000000003</ele><time>2026-04-09T12:35:52Z</time></trkpt><trkpt lat="44.65040564549375" lon="8.366301765824263"><ele>226.0</ele><time>2026-04-09T12:35:53Z</time></trkpt><trkpt lat="44.65046884984478" lon="8.366252552435665"><ele>226.0</ele><time>2026-04-09T12:35:54.001Z</time></trkpt><trkpt lat="44.65052804359685" lon="8.366219500320224"><ele>225.16666666666666</ele><time>2026-04-09T12:35:55.001Z</time></trkpt><trkpt lat="44.65059675872881" lon="8.366232350204903"><ele>224.33333333333331</ele><time>2026-04-09T12:35:56.001Z</time></trkpt><trkpt lat="44.65064303387598" lon="8.366295298989476"><ele>223.5</ele><time>2026-04-09T12:35:57.001Z</time></trkpt><trkpt lat="44.650688180875676" lon="8.366399875577669"><ele>222.66666666666669</ele><time>2026-04-09T12:35:58.001Z</time></trkpt><trkpt lat="44.65073441619576" lon="8.366492521430153"><ele>221.83333333333334</ele><time>2026-04-09T12:35:59.001Z</time></trkpt><trkpt lat="44.65077535469505" lon="8.366581160090249"><ele>221.0</ele><time>2026-04-09T12:36:00.001Z</time></trkpt><trkpt lat="44.650862909474725" lon="8.366594234368625"><ele>221.0</ele><time>2026-04-09T12:36:01.001Z</time></trkpt><trkpt lat="44.65095148609521" lon="8.36657808930769"><ele>221.00000000000003</ele><time>2026-04-09T12:36:02.001Z</time></trkpt><trkpt lat="44.651041121313646" lon="8.366519498817235"><ele>221.00000000000003</ele><time>2026-04-09T12:36:03.001Z</time></trkpt><trkpt lat="44.65114410470339" lon="8.366453389598815"><ele>221.0</ele><time>2026-04-09T12:36:04.001Z</time></trkpt><trkpt lat="44.651243435541936" lon="8.366361130206963"><ele>221.0</ele><time>2026-04-09T12:36:05.001Z</time></trkpt><trkpt lat="44.65133843308869" lon="8.366240247981535"><ele>216.25</ele><time>2026-04-09T12:36:06.001Z</time></trkpt><trkpt lat="44.65142919786338" lon="8.366117385277411"><ele>211.5</ele><time>2026-04-09T12:36:07.001Z</time></trkpt><trkpt lat="44.65150531218889" lon="8.365970842737646"><ele>206.75</ele><time>2026-04-09T12:36:08.001Z</time></trkpt><trkpt lat="44.651565309314456" lon="8.365819931100752"><ele>202.0</ele><time>2026-04-09T12:36:09.001Z</time></trkpt><trkpt lat="44.65163160697498" lon="8.365681815109024"><ele>202.0</ele><time>2026-04-09T12:36:10.001Z</time></trkpt><trkpt lat="44.65170911151331" lon="8.365572474991488"><ele>202.0</ele><time>2026-04-09T12:36:11.001Z</time></trkpt><trkpt lat="44.65179703458202" lon="8.365468846555743"><ele>202.0</ele><time>2026-04-09T12:36:12.001Z</time></trkpt><trkpt lat="44.651882139979456" lon="8.365367465760812"><ele>202.0</ele><time>2026-04-09T12:36:13.001Z</time></trkpt><trkpt lat="44.65196495108126" lon="8.365268818122352"><ele>202.0</ele><time>2026-04-09T12:36:14.001Z</time></trkpt><trkpt lat="44.65204641167267" lon="8.36517500490824"><ele>199.6</ele><time>2026-04-09T12:36:15.001Z</time></trkpt><trkpt lat="44.652122622703416" lon="8.365087357741091"><ele>197.2</ele><time>2026-04-09T12:36:16.001Z</time></trkpt><trkpt lat="44.652186191365765" lon="8.365014250018303"><ele>194.8</ele><time>2026-04-09T12:36:17.001Z</time></trkpt><trkpt lat="44.65226961483452" lon="8.364924102149502"><ele>192.4</ele><time>2026-04-09T12:36:19.001Z</time></trkpt><trkpt lat="44.652332859889285" lon="8.364858683613363"><ele>190.0</ele><time>2026-04-09T12:36:22.001Z</time></trkpt><trkpt lat="44.65229279814762" lon="8.36468658152576"><ele>190.0</ele><time>2026-04-09T12:36:24.001Z</time></trkpt><trkpt lat="44.652236010747195" lon="8.364613711416078"><ele>190.0</ele><time>2026-04-09T12:36:25.001Z</time></trkpt><trkpt lat="44.65218376800721" lon="8.364526627526756"><ele>190.0</ele><time>2026-04-09T12:36:26.001Z</time></trkpt><trkpt lat="44.65212855740624" lon="8.364425227657705"><ele>190.0</ele><time>2026-04-09T12:36:27Z</time></trkpt><trkpt lat="44.65207581942818" lon="8.364327952768628"><ele>190.0</ele><time>2026-04-09T12:36:28Z</time></trkpt><trkpt lat="44.652014536995395" lon="8.364210289525609"><ele>190.0</ele><time>2026-04-09T12:36:29Z</time></trkpt><trkpt lat="44.65194871692102" lon="8.364073124540557"><ele>191.25</ele><time>2026-04-09T12:36:30Z</time></trkpt><trkpt lat="44.65187716570444" lon="8.363929840243737"><ele>192.5</ele><time>2026-04-09T12:36:31Z</time></trkpt><trkpt lat="44.651809176570424" lon="8.363791760519161"><ele>193.75</ele><time>2026-04-09T12:36:32Z</time></trkpt><trkpt lat="44.65173693761916" lon="8.363646379960045"><ele>195.0</ele><time>2026-04-09T12:36:33Z</time></trkpt><trkpt lat="44.65166263275878" lon="8.363494558022666"><ele>195.25</ele><time>2026-04-09T12:36:34Z</time></trkpt><trkpt lat="44.65158381755163" lon="8.363338664827053"><ele>195.5</ele><time>2026-04-09T12:36:35Z</time></trkpt><trkpt lat="44.65150340328788" lon="8.363182136723921"><ele>195.75</ele><time>2026-04-09T12:36:36Z</time></trkpt><trkpt lat="44.65142069757172" lon="8.3630255531305"><ele>196.0</ele><time>2026-04-09T12:36:37Z</time></trkpt><trkpt lat="44.65134437316777" lon="8.362877478978952"><ele>195.25</ele><time>2026-04-09T12:36:38Z</time></trkpt><trkpt lat="44.65127379136669" lon="8.36273430067007"><ele>194.5</ele><time>2026-04-09T12:36:39Z</time></trkpt><trkpt lat="44.651206306560596" lon="8.362597574550392"><ele>193.75</ele><time>2026-04-09T12:36:40Z</time></trkpt><trkpt lat="44.651139651926975" lon="8.362472634386744"><ele>193.0</ele><time>2026-04-09T12:36:41Z</time></trkpt><trkpt lat="44.65107864935932" lon="8.362355686513181"><ele>192.99999999999997</ele><time>2026-04-09T12:36:42Z</time></trkpt><trkpt lat="44.65103167737206" lon="8.362260591890564"><ele>193.0</ele><time>2026-04-09T12:36:43Z</time></trkpt><trkpt lat="44.65099202206949" lon="8.362184250215188"><ele>193.0</ele><time>2026-04-09T12:36:44Z</time></trkpt><trkpt lat="44.65094656389543" lon="8.36206603638567"><ele>193.0</ele><time>2026-04-09T12:36:46Z</time></trkpt><trkpt lat="44.65094242343848" lon="8.361974126377472"><ele>192.99999999999997</ele><time>2026-04-09T12:36:48Z</time></trkpt><trkpt lat="44.65100931684837" lon="8.361919141811873"><ele>193.0</ele><time>2026-04-09T12:36:49Z</time></trkpt><trkpt lat="44.65111001174288" lon="8.361891619949596"><ele>192.33333333333331</ele><time>2026-04-09T12:36:51Z</time></trkpt><trkpt lat="44.65117246434843" lon="8.361920278361392"><ele>191.66666666666666</ele><time>2026-04-09T12:36:52Z</time></trkpt><trkpt lat="44.65124172209044" lon="8.361968906313313"><ele>191.0</ele><time>2026-04-09T12:36:53Z</time></trkpt><trkpt lat="44.65131779574752" lon="8.362019835724562"><ele>190.33333333333331</ele><time>2026-04-09T12:36:54Z</time></trkpt><trkpt lat="44.65140451346893" lon="8.36207372877528"><ele>189.66666666666666</ele><time>2026-04-09T12:36:55Z</time></trkpt><trkpt lat="44.651496996628836" lon="8.362129767543374"><ele>189.0</ele><time>2026-04-09T12:36:56Z</time></trkpt><trkpt lat="44.65158845188391" lon="8.362186520927876"><ele>189.5</ele><time>2026-04-09T12:36:57Z</time></trkpt><trkpt lat="44.651686837509764" lon="8.362249178427954"><ele>190.0</ele><time>2026-04-09T12:36:58Z</time></trkpt><trkpt lat="44.65178911084073" lon="8.362315314955946"><ele>190.5</ele><time>2026-04-09T12:36:59Z</time></trkpt><trkpt lat="44.651896051516715" lon="8.362377652877766"><ele>191.0</ele><time>2026-04-09T12:37:00Z</time></trkpt><trkpt lat="44.65200594647422" lon="8.36244447937212"><ele>191.0</ele><time>2026-04-09T12:37:01Z</time></trkpt><trkpt lat="44.65211607650621" lon="8.362508722653377"><ele>191.0</ele><time>2026-04-09T12:37:02Z</time></trkpt><trkpt lat="44.65222795098562" lon="8.36257566979942"><ele>191.0</ele><time>2026-04-09T12:37:03Z</time></trkpt><trkpt lat="44.65234575124369" lon="8.362648836347974"><ele>191.0</ele><time>2026-04-09T12:37:04Z</time></trkpt><trkpt lat="44.65246605690226" lon="8.36272222863133"><ele>191.0</ele><time>2026-04-09T12:37:05Z</time></trkpt><trkpt lat="44.652590409617616" lon="8.362794796857294"><ele>191.0</ele><time>2026-04-09T12:37:06Z</time></trkpt><trkpt lat="44.65271882743282" lon="8.362867423940454"><ele>191.0</ele><time>2026-04-09T12:37:07Z</time></trkpt><trkpt lat="44.65284786009133" lon="8.362941094466017"><ele>191.0</ele><time>2026-04-09T12:37:08Z</time></trkpt><trkpt lat="44.65298042502566" lon="8.363018777721535"><ele>190.0</ele><time>2026-04-09T12:37:09Z</time></trkpt><trkpt lat="44.65311467556098" lon="8.363095814918369"><ele>189.0</ele><time>2026-04-09T12:37:10Z</time></trkpt><trkpt lat="44.653250776475055" lon="8.363173948345151"><ele>188.0</ele><time>2026-04-09T12:37:11Z</time></trkpt><trkpt lat="44.65338671646704" lon="8.363249637559813"><ele>187.0</ele><time>2026-04-09T12:37:12Z</time></trkpt><trkpt lat="44.65352374044537" lon="8.363328764703848"><ele>186.66666666666669</ele><time>2026-04-09T12:37:13Z</time></trkpt><trkpt lat="44.65366119968882" lon="8.36341008584778"><ele>186.33333333333334</ele><time>2026-04-09T12:37:14Z</time></trkpt><trkpt lat="44.65379979503703" lon="8.363488435174089"><ele>186.0</ele><time>2026-04-09T12:37:15Z</time></trkpt><trkpt lat="44.653942663941855" lon="8.363567154651076"><ele>186.0</ele><time>2026-04-09T12:37:16Z</time></trkpt><trkpt lat="44.65408221317249" lon="8.36365043798605"><ele>186.0</ele><time>2026-04-09T12:37:17Z</time></trkpt><trkpt lat="44.65422166460754" lon="8.363735458899487"><ele>186.0</ele><time>2026-04-09T12:37:18Z</time></trkpt><trkpt lat="44.65436313273515" lon="8.363817729830556"><ele>185.0</ele><time>2026-04-09T12:37:19Z</time></trkpt><trkpt lat="44.65450416608164" lon="8.36390317149152"><ele>184.0</ele><time>2026-04-09T12:37:20Z</time></trkpt><trkpt lat="44.65464617160973" lon="8.363985564561682"><ele>183.0</ele><time>2026-04-09T12:37:21Z</time></trkpt><trkpt lat="44.654787763694216" lon="8.364069932642657"><ele>183.0</ele><time>2026-04-09T12:37:22Z</time></trkpt><trkpt lat="44.65493055973602" lon="8.364153606003384"><ele>183.0</ele><time>2026-04-09T12:37:23Z</time></trkpt><trkpt lat="44.655072799468506" lon="8.364240229041902"><ele>183.0</ele><time>2026-04-09T12:37:24Z</time></trkpt><trkpt lat="44.65521677795206" lon="8.364325418565016"><ele>180.66666666666666</ele><time>2026-04-09T12:37:25Z</time></trkpt><trkpt lat="44.65536007886425" lon="8.364409311768569"><ele>178.33333333333331</ele><time>2026-04-09T12:37:26Z</time></trkpt><trkpt lat="44.65550325953512" lon="8.364494058336922"><ele>176.0</ele><time>2026-04-09T12:37:27Z</time></trkpt><trkpt lat="44.655646254958995" lon="8.364578738721434"><ele>176.0</ele><time>2026-04-09T12:37:28Z</time></trkpt><trkpt lat="44.655789999838895" lon="8.364664015823514"><ele>176.0</ele><time>2026-04-09T12:37:29Z</time></trkpt><trkpt lat="44.65593441431572" lon="8.36474881376548"><ele>176.0</ele><time>2026-04-09T12:37:30Z</time></trkpt><trkpt lat="44.65607910741829" lon="8.36483226480472"><ele>175.0</ele><time>2026-04-09T12:37:31Z</time></trkpt><trkpt lat="44.6562236254968" lon="8.364916697690283"><ele>174.0</ele><time>2026-04-09T12:37:32Z</time></trkpt><trkpt lat="44.656367918377825" lon="8.365001875759885"><ele>173.0</ele><time>2026-04-09T12:37:33Z</time></trkpt><trkpt lat="44.656510617026406" lon="8.365086409611834"><ele>173.0</ele><time>2026-04-09T12:37:34Z</time></trkpt><trkpt lat="44.65665276185035" lon="8.365170897430556"><ele>173.0</ele><time>2026-04-09T12:37:35Z</time></trkpt><trkpt lat="44.656792110241845" lon="8.365253802249674"><ele>173.0</ele><time>2026-04-09T12:37:36Z</time></trkpt><trkpt lat="44.65693052519891" lon="8.365339387129008"><ele>172.5</ele><time>2026-04-09T12:37:37Z</time></trkpt><trkpt lat="44.65706326907762" lon="8.365425204581438"><ele>172.0</ele><time>2026-04-09T12:37:38Z</time></trkpt><trkpt lat="44.65719325026443" lon="8.365511358683145"><ele>171.5</ele><time>2026-04-09T12:37:39Z</time></trkpt><trkpt lat="44.65731234787715" lon="8.365590463947314"><ele>171.0</ele><time>2026-04-09T12:37:40Z</time></trkpt><trkpt lat="44.65742123213418" lon="8.365666954301547"><ele>170.8</ele><time>2026-04-09T12:37:41Z</time></trkpt><trkpt lat="44.65752040265431" lon="8.365742912420934"><ele>170.60000000000002</ele><time>2026-04-09T12:37:42Z</time></trkpt><trkpt lat="44.65761156340524" lon="8.365827844476634"><ele>170.4</ele><time>2026-04-09T12:37:43Z</time></trkpt><trkpt lat="44.65769705817372" lon="8.36592769128289"><ele>170.2</ele><time>2026-04-09T12:37:44Z</time></trkpt><trkpt lat="44.657773541201365" lon="8.366048428193347"><ele>170.0</ele><time>2026-04-09T12:37:45Z</time></trkpt><trkpt lat="44.65784127175588" lon="8.366192020118723"><ele>169.5</ele><time>2026-04-09T12:37:46Z</time></trkpt><trkpt lat="44.657903075749026" lon="8.366351148032082"><ele>169.0</ele><time>2026-04-09T12:37:47Z</time></trkpt><trkpt lat="44.657960741047006" lon="8.366526543322896"><ele>168.5</ele><time>2026-04-09T12:37:48Z</time></trkpt><trkpt lat="44.65801715831797" lon="8.366710973279382"><ele>168.0</ele><time>2026-04-09T12:37:49Z</time></trkpt><trkpt lat="44.658073616654974" lon="8.366894546323028"><ele>167.75</ele><time>2026-04-09T12:37:50Z</time></trkpt><trkpt lat="44.65812776780756" lon="8.36708061084451"><ele>167.5</ele><time>2026-04-09T12:37:51Z</time></trkpt><trkpt lat="44.658179839181926" lon="8.367262550737456"><ele>167.25</ele><time>2026-04-09T12:37:52Z</time></trkpt><trkpt lat="44.65823097509289" lon="8.367439205537474"><ele>167.0</ele><time>2026-04-09T12:37:53Z</time></trkpt><trkpt lat="44.658281372431475" lon="8.367612920186861"><ele>167.0</ele><time>2026-04-09T12:37:54Z</time></trkpt><trkpt lat="44.658331485158804" lon="8.367783996928365"><ele>167.0</ele><time>2026-04-09T12:37:55Z</time></trkpt><trkpt lat="44.65838001262684" lon="8.367954951892624"><ele>167.0</ele><time>2026-04-09T12:37:56Z</time></trkpt><trkpt lat="44.65842597847216" lon="8.368124050137506"><ele>167.0</ele><time>2026-04-09T12:37:57Z</time></trkpt><trkpt lat="44.65846856485184" lon="8.368294643088607"><ele>167.0</ele><time>2026-04-09T12:37:58Z</time></trkpt><trkpt lat="44.658509556400716" lon="8.368466111627946"><ele>167.0</ele><time>2026-04-09T12:37:59Z</time></trkpt><trkpt lat="44.65854986594191" lon="8.368636537343562"><ele>167.0</ele><time>2026-04-09T12:38:00Z</time></trkpt><trkpt lat="44.6585928646205" lon="8.36881212776519"><ele>167.0</ele><time>2026-04-09T12:38:01Z</time></trkpt><trkpt lat="44.65863733039157" lon="8.368983190082739"><ele>166.75</ele><time>2026-04-09T12:38:02.001Z</time></trkpt><trkpt lat="44.65868004189293" lon="8.369155008862496"><ele>166.5</ele><time>2026-04-09T12:38:03.001Z</time></trkpt><trkpt lat="44.65872010780556" lon="8.369316962257711"><ele>166.25</ele><time>2026-04-09T12:38:04.001Z</time></trkpt><trkpt lat="44.65875704977625" lon="8.369477249178408"><ele>166.0</ele><time>2026-04-09T12:38:05.001Z</time></trkpt><trkpt lat="44.65879100166681" lon="8.369632861975946"><ele>166.83333333333334</ele><time>2026-04-09T12:38:06.001Z</time></trkpt><trkpt lat="44.65882027091406" lon="8.369770575330682"><ele>167.66666666666669</ele><time>2026-04-09T12:38:07.001Z</time></trkpt><trkpt lat="44.6588430379191" lon="8.369900064949693"><ele>168.5</ele><time>2026-04-09T12:38:08.001Z</time></trkpt><trkpt lat="44.65885490200406" lon="8.370004716789154"><ele>169.33333333333334</ele><time>2026-04-09T12:38:09.001Z</time></trkpt><trkpt lat="44.65886216532275" lon="8.370142010104596"><ele>170.16666666666666</ele><time>2026-04-09T12:38:11.001Z</time></trkpt><trkpt lat="44.658923292179026" lon="8.370165905142722"><ele>171.0</ele><time>2026-04-09T12:38:12.001Z</time></trkpt><trkpt lat="44.65904263171969" lon="8.370144763964118"><ele>171.0</ele><time>2026-04-09T12:38:14.001Z</time></trkpt><trkpt lat="44.659123520985474" lon="8.370119808662086"><ele>171.0</ele><time>2026-04-09T12:38:15.001Z</time></trkpt><trkpt lat="44.65921771911545" lon="8.370100641949454"><ele>171.0</ele><time>2026-04-09T12:38:16.001Z</time></trkpt><trkpt lat="44.65932168170796" lon="8.370080765265994"><ele>171.0</ele><time>2026-04-09T12:38:17.001Z</time></trkpt><trkpt lat="44.65942871575969" lon="8.370057167480192"><ele>171.0</ele><time>2026-04-09T12:38:18.001Z</time></trkpt><trkpt lat="44.659540396408715" lon="8.370032197295787"><ele>172.0</ele><time>2026-04-09T12:38:19.001Z</time></trkpt><trkpt lat="44.65965306743544" lon="8.370006924723311"><ele>173.0</ele><time>2026-04-09T12:38:20.001Z</time></trkpt><trkpt lat="44.659762891902986" lon="8.369980177527985"><ele>174.0</ele><time>2026-04-09T12:38:21.001Z</time></trkpt><trkpt lat="44.65986591237034" lon="8.369958277358778"><ele>175.0</ele><time>2026-04-09T12:38:22.001Z</time></trkpt><trkpt lat="44.65995888334855" lon="8.369942607243827"><ele>176.0</ele><time>2026-04-09T12:38:23.001Z</time></trkpt><trkpt lat="44.660043106895344" lon="8.369922986701145"><ele>176.0</ele><time>2026-04-09T12:38:24.001Z</time></trkpt><trkpt lat="44.660113133501135" lon="8.369907786397448"><ele>176.0</ele><time>2026-04-09T12:38:25.001Z</time></trkpt><trkpt lat="44.660232201670816" lon="8.369873377809649"><ele>176.0</ele><time>2026-04-09T12:38:27.001Z</time></trkpt><trkpt lat="44.66029558041205" lon="8.369856137871931"><ele>176.0</ele><time>2026-04-09T12:38:28.001Z</time></trkpt><trkpt lat="44.6603666312993" lon="8.369834317359064"><ele>176.0</ele><time>2026-04-09T12:38:29.001Z</time></trkpt><trkpt lat="44.660434696508375" lon="8.369834241368832"><ele>176.0</ele><time>2026-04-09T12:38:30.001Z</time></trkpt><trkpt lat="44.66049733878202" lon="8.369819561526725"><ele>176.0</ele><time>2026-04-09T12:38:31.001Z</time></trkpt><trkpt lat="44.66059648419451" lon="8.36979741775685"><ele>176.0</ele><time>2026-04-09T12:38:33Z</time></trkpt><trkpt lat="44.66066253523555" lon="8.36978287181519"><ele>176.0</ele><time>2026-04-09T12:38:35Z</time></trkpt><trkpt lat="44.66075133499598" lon="8.36976331597213"><ele>176.0</ele><time>2026-04-09T12:43:12Z</time></trkpt><trkpt lat="44.66083314482905" lon="8.369737083139194"><ele>176.0</ele><time>2026-04-09T12:43:15Z</time></trkpt><trkpt lat="44.66093458690622" lon="8.369728612744156"><ele>176.0</ele><time>2026-04-09T12:43:17Z</time></trkpt><trkpt lat="44.66106651900995" lon="8.36969440497335"><ele>176.57142857142858</ele><time>2026-04-09T12:43:19Z</time></trkpt><trkpt lat="44.66113397722342" lon="8.369682287811298"><ele>177.14285714285714</ele><time>2026-04-09T12:43:20Z</time></trkpt><trkpt lat="44.661207620701894" lon="8.3696676811457"><ele>177.71428571428572</ele><time>2026-04-09T12:43:21Z</time></trkpt><trkpt lat="44.661285975521494" lon="8.36964487420923"><ele>178.28571428571428</ele><time>2026-04-09T12:43:22Z</time></trkpt><trkpt lat="44.66135781621218" lon="8.369611942061256"><ele>178.85714285714286</ele><time>2026-04-09T12:43:23Z</time></trkpt><trkpt lat="44.661431442982" lon="8.369581027280757"><ele>179.42857142857142</ele><time>2026-04-09T12:43:24Z</time></trkpt><trkpt lat="44.661502112565586" lon="8.369552130015366"><ele>180.0</ele><time>2026-04-09T12:43:25Z</time></trkpt><trkpt lat="44.661578676147336" lon="8.36954015224043"><ele>180.0</ele><time>2026-04-09T12:43:26Z</time></trkpt><trkpt lat="44.661658833988014" lon="8.36953643911502"><ele>180.0</ele><time>2026-04-09T12:43:27Z</time></trkpt><trkpt lat="44.66174344465024" lon="8.369542171955537"><ele>180.0</ele><time>2026-04-09T12:43:28Z</time></trkpt><trkpt lat="44.661827603642095" lon="8.369564921762256"><ele>180.0</ele><time>2026-04-09T12:43:29Z</time></trkpt><trkpt lat="44.661914596894135" lon="8.369603881597143"><ele>180.0</ele><time>2026-04-09T12:43:30Z</time></trkpt><trkpt lat="44.66200676256276" lon="8.369647910106732"><ele>180.0</ele><time>2026-04-09T12:43:31Z</time></trkpt><trkpt lat="44.662100853162904" lon="8.369685883445248"><ele>180.2</ele><time>2026-04-09T12:43:32Z</time></trkpt><trkpt lat="44.66219794578809" lon="8.369723504359024"><ele>180.4</ele><time>2026-04-09T12:43:33Z</time></trkpt><trkpt lat="44.66229596596654" lon="8.36975526608261"><ele>180.60000000000002</ele><time>2026-04-09T12:43:34Z</time></trkpt><trkpt lat="44.66238661514139" lon="8.369807860045398"><ele>180.8</ele><time>2026-04-09T12:43:35Z</time></trkpt><trkpt lat="44.66248041819422" lon="8.369843564251513"><ele>181.0</ele><time>2026-04-09T12:43:36Z</time></trkpt><trkpt lat="44.6625688591627" lon="8.369877985859139"><ele>181.0</ele><time>2026-04-09T12:43:37Z</time></trkpt><trkpt lat="44.66265118317072" lon="8.36991334621166"><ele>181.0</ele><time>2026-04-09T12:43:38Z</time></trkpt><trkpt lat="44.662721209443006" lon="8.369945770658937"><ele>181.0</ele><time>2026-04-09T12:43:39Z</time></trkpt><trkpt lat="44.66282793353287" lon="8.370014922807743"><ele>181.0</ele><time>2026-04-09T12:43:41Z</time></trkpt><trkpt lat="44.6628935324527" lon="8.370157742942984"><ele>181.0</ele><time>2026-04-09T12:43:43Z</time></trkpt><trkpt lat="44.66292122911746" lon="8.370250934772644"><ele>180.8</ele><time>2026-04-09T12:43:44Z</time></trkpt><trkpt lat="44.66295044371394" lon="8.370332078685466"><ele>180.60000000000002</ele><time>2026-04-09T12:43:45Z</time></trkpt><trkpt lat="44.66302777543219" lon="8.370488560986164"><ele>180.4</ele><time>2026-04-09T12:43:47Z</time></trkpt><trkpt lat="44.66310287651712" lon="8.370542271669317"><ele>180.2</ele><time>2026-04-09T12:43:48Z</time></trkpt><trkpt lat="44.663183740213064" lon="8.370617630478808"><ele>180.0</ele><time>2026-04-09T12:43:49Z</time></trkpt><trkpt lat="44.663281239040664" lon="8.370687023781025"><ele>180.0</ele><time>2026-04-09T12:43:50Z</time></trkpt><trkpt lat="44.66339345662172" lon="8.370761198386171"><ele>180.0</ele><time>2026-04-09T12:43:51Z</time></trkpt><trkpt lat="44.66349990412308" lon="8.370834122330475"><ele>180.0</ele><time>2026-04-09T12:43:52Z</time></trkpt><trkpt lat="44.66361377206535" lon="8.370912159629947"><ele>180.0</ele><time>2026-04-09T12:43:53Z</time></trkpt><trkpt lat="44.66373606681767" lon="8.370996190909374"><ele>181.75</ele><time>2026-04-09T12:43:54Z</time></trkpt><trkpt lat="44.66386254939276" lon="8.371083945624887"><ele>183.5</ele><time>2026-04-09T12:43:55Z</time></trkpt><trkpt lat="44.663992221151716" lon="8.371171551069706"><ele>185.25</ele><time>2026-04-09T12:43:56Z</time></trkpt><trkpt lat="44.66412546620056" lon="8.371262367291123"><ele>187.0</ele><time>2026-04-09T12:43:57Z</time></trkpt><trkpt lat="44.66426194417317" lon="8.371357289670165"><ele>187.0</ele><time>2026-04-09T12:43:58Z</time></trkpt><trkpt lat="44.66440149496084" lon="8.371452354705205"><ele>187.0</ele><time>2026-04-09T12:43:59Z</time></trkpt><trkpt lat="44.6645406852943" lon="8.37154788613116"><ele>187.0</ele><time>2026-04-09T12:44:00Z</time></trkpt><trkpt lat="44.66467866133311" lon="8.371643769625992"><ele>189.0</ele><time>2026-04-09T12:44:01Z</time></trkpt><trkpt lat="44.664818263822966" lon="8.371735524156945"><ele>191.0</ele><time>2026-04-09T12:44:02Z</time></trkpt><trkpt lat="44.66496160719539" lon="8.371813978182193"><ele>193.0</ele><time>2026-04-09T12:44:03Z</time></trkpt><trkpt lat="44.66510544471859" lon="8.371878581033908"><ele>193.0</ele><time>2026-04-09T12:44:04Z</time></trkpt><trkpt lat="44.66524287091242" lon="8.371932733688162"><ele>193.0</ele><time>2026-04-09T12:44:05Z</time></trkpt><trkpt lat="44.66537107868648" lon="8.37198214634155"><ele>193.0</ele><time>2026-04-09T12:44:06Z</time></trkpt><trkpt lat="44.66550182605682" lon="8.372002046577645"><ele>193.0</ele><time>2026-04-09T12:44:07Z</time></trkpt><trkpt lat="44.66563570970609" lon="8.372004161519962"><ele>195.25</ele><time>2026-04-09T12:44:08Z</time></trkpt><trkpt lat="44.6657621422384" lon="8.371917567375037"><ele>197.5</ele><time>2026-04-09T12:44:09Z</time></trkpt><trkpt lat="44.66590095899159" lon="8.371870105894873"><ele>199.75</ele><time>2026-04-09T12:44:10Z</time></trkpt><trkpt lat="44.66605460217695" lon="8.371859761936356"><ele>202.0</ele><time>2026-04-09T12:44:11Z</time></trkpt><trkpt lat="44.666219223469824" lon="8.371862822636379"><ele>205.66666666666666</ele><time>2026-04-09T12:44:12Z</time></trkpt><trkpt lat="44.66639296966177" lon="8.371868495338372"><ele>209.33333333333331</ele><time>2026-04-09T12:44:13Z</time></trkpt><trkpt lat="44.66657556932865" lon="8.37187835445109"><ele>213.0</ele><time>2026-04-09T12:44:14Z</time></trkpt><trkpt lat="44.666759579311275" lon="8.371887618204333"><ele>216.66666666666669</ele><time>2026-04-09T12:44:15Z</time></trkpt><trkpt lat="44.66694582542742" lon="8.371896415688706"><ele>220.33333333333334</ele><time>2026-04-09T12:44:16Z</time></trkpt><trkpt lat="44.66712971960774" lon="8.371904718584661"><ele>224.0</ele><time>2026-04-09T12:44:17Z</time></trkpt><trkpt lat="44.667309839306625" lon="8.371913057628984"><ele>224.0</ele><time>2026-04-09T12:44:18Z</time></trkpt><trkpt lat="44.66748738230935" lon="8.371922457374012"><ele>224.0</ele><time>2026-04-09T12:44:19Z</time></trkpt><trkpt lat="44.66766118352314" lon="8.371930844455283"><ele>224.0</ele><time>2026-04-09T12:44:20Z</time></trkpt><trkpt lat="44.66783008452805" lon="8.371930687284225"><ele>225.0</ele><time>2026-04-09T12:44:21Z</time></trkpt><trkpt lat="44.66799515869639" lon="8.37192872828984"><ele>226.0</ele><time>2026-04-09T12:44:22Z</time></trkpt><trkpt lat="44.668154724835134" lon="8.371931023490003"><ele>227.0</ele><time>2026-04-09T12:44:23Z</time></trkpt><trkpt lat="44.668311380994595" lon="8.371939618400619"><ele>227.0</ele><time>2026-04-09T12:44:24Z</time></trkpt><trkpt lat="44.66846045944943" lon="8.371951472584508"><ele>227.0</ele><time>2026-04-09T12:44:25Z</time></trkpt><trkpt lat="44.668595390685056" lon="8.37196732227909"><ele>227.0</ele><time>2026-04-09T12:44:26Z</time></trkpt><trkpt lat="44.66872043784154" lon="8.371967804716517"><ele>227.0</ele><time>2026-04-09T12:44:27Z</time></trkpt><trkpt lat="44.66884904735576" lon="8.37195349738039"><ele>228.5</ele><time>2026-04-09T12:44:28Z</time></trkpt><trkpt lat="44.66897495523903" lon="8.371918063109375"><ele>230.0</ele><time>2026-04-09T12:44:29Z</time></trkpt><trkpt lat="44.66910265949068" lon="8.371859662613673"><ele>231.5</ele><time>2026-04-09T12:44:30Z</time></trkpt><trkpt lat="44.669228470535934" lon="8.371785936469138"><ele>233.0</ele><time>2026-04-09T12:44:31Z</time></trkpt><trkpt lat="44.66935558596437" lon="8.371705908486913"><ele>234.25</ele><time>2026-04-09T12:44:32Z</time></trkpt><trkpt lat="44.669485610814704" lon="8.37162639821311"><ele>235.5</ele><time>2026-04-09T12:44:33Z</time></trkpt><trkpt lat="44.66961943722995" lon="8.371547052944997"><ele>236.75</ele><time>2026-04-09T12:44:34Z</time></trkpt><trkpt lat="44.669755178761044" lon="8.371468948506257"><ele>238.0</ele><time>2026-04-09T12:44:35Z</time></trkpt><trkpt lat="44.669887402666845" lon="8.371393960340297"><ele>241.25</ele><time>2026-04-09T12:44:36Z</time></trkpt><trkpt lat="44.67001348908025" lon="8.371320513652618"><ele>244.5</ele><time>2026-04-09T12:44:37.001Z</time></trkpt><trkpt lat="44.670134238577006" lon="8.37124978706354"><ele>247.75</ele><time>2026-04-09T12:44:38.001Z</time></trkpt><trkpt lat="44.6702474221091" lon="8.371172256652242"><ele>251.0</ele><time>2026-04-09T12:44:39.001Z</time></trkpt><trkpt lat="44.670349422617406" lon="8.371069188367407"><ele>251.0</ele><time>2026-04-09T12:44:40.001Z</time></trkpt><trkpt lat="44.670452746905546" lon="8.370938783748551"><ele>251.0</ele><time>2026-04-09T12:44:41.001Z</time></trkpt><trkpt lat="44.67055318971944" lon="8.37080165372304"><ele>251.0</ele><time>2026-04-09T12:44:42.001Z</time></trkpt><trkpt lat="44.67065717505153" lon="8.370680793180997"><ele>251.0</ele><time>2026-04-09T12:44:43.001Z</time></trkpt><trkpt lat="44.670763968843794" lon="8.370577667793805"><ele>253.0</ele><time>2026-04-09T12:44:44.001Z</time></trkpt><trkpt lat="44.670861311162746" lon="8.370481496020808"><ele>255.00000000000003</ele><time>2026-04-09T12:44:45.001Z</time></trkpt><trkpt lat="44.67093932954342" lon="8.370384527066834"><ele>257.0</ele><time>2026-04-09T12:44:46.001Z</time></trkpt><trkpt lat="44.670990389027104" lon="8.370291536974237"><ele>259.0</ele><time>2026-04-09T12:44:47.001Z</time></trkpt><trkpt lat="44.67102530579522" lon="8.370199805825674"><ele>261.0</ele><time>2026-04-09T12:44:48.001Z</time></trkpt><trkpt lat="44.67099977056044" lon="8.370081917792852"><ele>261.0</ele><time>2026-04-09T12:44:49.001Z</time></trkpt><trkpt lat="44.670933823355995" lon="8.37000344723273"><ele>261.0</ele><time>2026-04-09T12:44:50.001Z</time></trkpt><trkpt lat="44.67084011776716" lon="8.370002347098056"><ele>261.0</ele><time>2026-04-09T12:44:51Z</time></trkpt><trkpt lat="44.670744949270066" lon="8.370038208454043"><ele>261.0</ele><time>2026-04-09T12:44:52Z</time></trkpt><trkpt lat="44.670645691674856" lon="8.370100753765811"><ele>261.0</ele><time>2026-04-09T12:44:53Z</time></trkpt><trkpt lat="44.67053984079171" lon="8.370180489790396"><ele>261.0</ele><time>2026-04-09T12:44:54Z</time></trkpt><trkpt lat="44.67043277504958" lon="8.370272138317496"><ele>261.0</ele><time>2026-04-09T12:44:55Z</time></trkpt><trkpt lat="44.670330069797814" lon="8.370370416367065"><ele>261.0</ele><time>2026-04-09T12:44:56Z</time></trkpt><trkpt lat="44.67023579888167" lon="8.370468404583333"><ele>261.0</ele><time>2026-04-09T12:44:57Z</time></trkpt><trkpt lat="44.670155400089996" lon="8.37056230145508"><ele>260.6666666666667</ele><time>2026-04-09T12:44:58Z</time></trkpt><trkpt lat="44.67007833302695" lon="8.370640488094338"><ele>260.3333333333333</ele><time>2026-04-09T12:44:59Z</time></trkpt><trkpt lat="44.66999285155585" lon="8.370673886159286"><ele>260.0</ele><time>2026-04-09T12:45:00Z</time></trkpt><trkpt lat="44.66991504221975" lon="8.370652008888216"><ele>259.66666666666663</ele><time>2026-04-09T12:45:01Z</time></trkpt><trkpt lat="44.669862092243186" lon="8.370571947938215"><ele>259.3333333333333</ele><time>2026-04-09T12:45:02Z</time></trkpt><trkpt lat="44.66983309776266" lon="8.370461039379386"><ele>259.0</ele><time>2026-04-09T12:45:03Z</time></trkpt><trkpt lat="44.6698352751493" lon="8.370327410727892"><ele>259.0</ele><time>2026-04-09T12:45:04Z</time></trkpt><trkpt lat="44.66988404059171" lon="8.370191896202554"><ele>259.0</ele><time>2026-04-09T12:45:05Z</time></trkpt><trkpt lat="44.66990250033127" lon="8.370027044898736"><ele>259.0</ele><time>2026-04-09T12:45:06Z</time></trkpt><trkpt lat="44.66994875206468" lon="8.369862116341638"><ele>259.0</ele><time>2026-04-09T12:45:07Z</time></trkpt><trkpt lat="44.67000838971797" lon="8.369692198062005"><ele>259.0</ele><time>2026-04-09T12:45:08Z</time></trkpt><trkpt lat="44.67009364290665" lon="8.369558956666683"><ele>259.0</ele><time>2026-04-09T12:45:09Z</time></trkpt><trkpt lat="44.67016898072001" lon="8.369404675073897"><ele>259.0</ele><time>2026-04-09T12:45:10Z</time></trkpt><trkpt lat="44.67022856871781" lon="8.369247495885174"><ele>259.0</ele><time>2026-04-09T12:45:11Z</time></trkpt><trkpt lat="44.67030846873027" lon="8.369120242006067"><ele>261.5</ele><time>2026-04-09T12:45:12Z</time></trkpt><trkpt lat="44.670407852014435" lon="8.369011723130189"><ele>264.0</ele><time>2026-04-09T12:45:13Z</time></trkpt><trkpt lat="44.67052724489116" lon="8.368932006058115"><ele>266.5</ele><time>2026-04-09T12:45:14Z</time></trkpt><trkpt lat="44.6706604477782" lon="8.368878572250859"><ele>269.0</ele><time>2026-04-09T12:45:15Z</time></trkpt><trkpt lat="44.67080587015787" lon="8.368838403492488"><ele>270.33333333333337</ele><time>2026-04-09T12:45:16Z</time></trkpt><trkpt lat="44.67095705948602" lon="8.368790696829933"><ele>271.6666666666667</ele><time>2026-04-09T12:45:17Z</time></trkpt><trkpt lat="44.67111375248294" lon="8.368733980958533"><ele>273.0</ele><time>2026-04-09T12:45:18Z</time></trkpt><trkpt lat="44.67127749133214" lon="8.368674862281726"><ele>275.3333333333333</ele><time>2026-04-09T12:45:19Z</time></trkpt><trkpt lat="44.67144430039494" lon="8.368619199404279"><ele>277.66666666666663</ele><time>2026-04-09T12:45:20Z</time></trkpt><trkpt lat="44.67161210300084" lon="8.368557431345703"><ele>280.0</ele><time>2026-04-09T12:45:21Z</time></trkpt><trkpt lat="44.67177774808038" lon="8.36848498744589"><ele>280.0</ele><time>2026-04-09T12:45:22Z</time></trkpt><trkpt lat="44.67193605964892" lon="8.368406441087444"><ele>280.0</ele><time>2026-04-09T12:45:23Z</time></trkpt><trkpt lat="44.672093732954295" lon="8.368328956568469"><ele>280.0</ele><time>2026-04-09T12:45:24Z</time></trkpt><trkpt lat="44.67225023053411" lon="8.368256791252342"><ele>283.66666666666663</ele><time>2026-04-09T12:45:25Z</time></trkpt><trkpt lat="44.672403910847635" lon="8.368190682096678"><ele>287.3333333333333</ele><time>2026-04-09T12:45:26Z</time></trkpt><trkpt lat="44.67254931923938" lon="8.368132325843147"><ele>291.0</ele><time>2026-04-09T12:45:27Z</time></trkpt><trkpt lat="44.67268350472333" lon="8.368077902859271"><ele>293.6</ele><time>2026-04-09T12:45:28Z</time></trkpt><trkpt lat="44.67279969407882" lon="8.368029123920206"><ele>296.20000000000005</ele><time>2026-04-09T12:45:29Z</time></trkpt><trkpt lat="44.67290395412964" lon="8.36799177540582"><ele>298.79999999999995</ele><time>2026-04-09T12:45:30Z</time></trkpt><trkpt lat="44.673003508423974" lon="8.367971072781073"><ele>301.4</ele><time>2026-04-09T12:45:31Z</time></trkpt><trkpt lat="44.67310122395875" lon="8.36798924977578"><ele>304.0</ele><time>2026-04-09T12:45:32Z</time></trkpt><trkpt lat="44.673197116422905" lon="8.368048418106712"><ele>304.0</ele><time>2026-04-09T12:45:33Z</time></trkpt><trkpt lat="44.67328169833674" lon="8.368155861786452"><ele>304.0</ele><time>2026-04-09T12:45:34Z</time></trkpt><trkpt lat="44.67335066307137" lon="8.368281082486654"><ele>304.0</ele><time>2026-04-09T12:45:35Z</time></trkpt><trkpt lat="44.67339501420512" lon="8.368423849848549"><ele>304.0</ele><time>2026-04-09T12:45:36Z</time></trkpt><trkpt lat="44.6734228451716" lon="8.368563169735431"><ele>304.0</ele><time>2026-04-09T12:45:37Z</time></trkpt><trkpt lat="44.673461012168914" lon="8.36867474955988"><ele>304.0</ele><time>2026-04-09T12:45:38Z</time></trkpt><trkpt lat="44.6735214461022" lon="8.368753744294366"><ele>304.0</ele><time>2026-04-09T12:45:39Z</time></trkpt><trkpt lat="44.67360762156602" lon="8.36879031398245"><ele>304.0</ele><time>2026-04-09T12:45:40Z</time></trkpt><trkpt lat="44.67370733935893" lon="8.368789743828316"><ele>304.0</ele><time>2026-04-09T12:45:41Z</time></trkpt><trkpt lat="44.673817417806895" lon="8.36876421761939"><ele>304.0</ele><time>2026-04-09T12:45:42Z</time></trkpt><trkpt lat="44.67393868055926" lon="8.368734483585994"><ele>307.75</ele><time>2026-04-09T12:45:43Z</time></trkpt><trkpt lat="44.67406682758907" lon="8.368703371454501"><ele>311.5</ele><time>2026-04-09T12:45:44Z</time></trkpt><trkpt lat="44.6742016055518" lon="8.368662755864296"><ele>315.25</ele><time>2026-04-09T12:45:45Z</time></trkpt><trkpt lat="44.67433552540207" lon="8.368614605194766"><ele>319.0</ele><time>2026-04-09T12:45:46Z</time></trkpt><trkpt lat="44.6744654997379" lon="8.368558751274778"><ele>320.6</ele><time>2026-04-09T12:45:47Z</time></trkpt><trkpt lat="44.674585634046764" lon="8.368508462217587"><ele>322.2</ele><time>2026-04-09T12:45:48Z</time></trkpt><trkpt lat="44.6746988994734" lon="8.368475041634916"><ele>323.8</ele><time>2026-04-09T12:45:49Z</time></trkpt><trkpt lat="44.674802198035955" lon="8.368471784414112"><ele>325.40000000000003</ele><time>2026-04-09T12:45:50Z</time></trkpt><trkpt lat="44.674897955419645" lon="8.368507542402467"><ele>327.0</ele><time>2026-04-09T12:45:51Z</time></trkpt><trkpt lat="44.67496710607142" lon="8.368594444469716"><ele>327.0</ele><time>2026-04-09T12:45:52Z</time></trkpt><trkpt lat="44.67501420399936" lon="8.368715683129937"><ele>327.0</ele><time>2026-04-09T12:45:53Z</time></trkpt><trkpt lat="44.67502117964325" lon="8.368853630528623"><ele>327.0</ele><time>2026-04-09T12:45:54Z</time></trkpt><trkpt lat="44.67498605373655" lon="8.368983855883869"><ele>327.0</ele><time>2026-04-09T12:45:55Z</time></trkpt><trkpt lat="44.67490099411431" lon="8.369070681287056"><ele>327.0</ele><time>2026-04-09T12:45:56Z</time></trkpt><trkpt lat="44.674828350995725" lon="8.36918974502037"><ele>328.25</ele><time>2026-04-09T12:45:57Z</time></trkpt><trkpt lat="44.67473926353668" lon="8.369297303868555"><ele>329.5</ele><time>2026-04-09T12:45:58Z</time></trkpt><trkpt lat="44.67465674881247" lon="8.369423424836823"><ele>330.75</ele><time>2026-04-09T12:45:59Z</time></trkpt><trkpt lat="44.674593540090456" lon="8.369566029742268"><ele>332.0</ele><time>2026-04-09T12:46:00Z</time></trkpt><trkpt lat="44.67455525255763" lon="8.369716041927374"><ele>332.0</ele><time>2026-04-09T12:46:01Z</time></trkpt><trkpt lat="44.67455226980061" lon="8.369855885120023"><ele>332.0</ele><time>2026-04-09T12:46:02Z</time></trkpt><trkpt lat="44.67456920551849" lon="8.369989360673255"><ele>332.0</ele><time>2026-04-09T12:46:03Z</time></trkpt><trkpt lat="44.67460742516095" lon="8.37012848152675"><ele>332.0</ele><time>2026-04-09T12:46:04Z</time></trkpt><trkpt lat="44.67464758485323" lon="8.370275966038019"><ele>332.0</ele><time>2026-04-09T12:46:05Z</time></trkpt><trkpt lat="44.67469313460899" lon="8.370428625762589"><ele>330.0</ele><time>2026-04-09T12:46:06Z</time></trkpt><trkpt lat="44.674751322831725" lon="8.370584035513952"><ele>328.0</ele><time>2026-04-09T12:46:07Z</time></trkpt><trkpt lat="44.674815933820966" lon="8.37073267039103"><ele>326.0</ele><time>2026-04-09T12:46:08Z</time></trkpt><trkpt lat="44.67487969258714" lon="8.370864844056296"><ele>324.0</ele><time>2026-04-09T12:46:09Z</time></trkpt><trkpt lat="44.67494827201221" lon="8.370971366058688"><ele>324.0</ele><time>2026-04-09T12:46:10Z</time></trkpt><trkpt lat="44.67503906963131" lon="8.37103198867774"><ele>324.0</ele><time>2026-04-09T12:46:11Z</time></trkpt><trkpt lat="44.675148652451746" lon="8.371028849719382"><ele>324.0</ele><time>2026-04-09T12:46:12Z</time></trkpt><trkpt lat="44.67526352369792" lon="8.370968723050916"><ele>324.0</ele><time>2026-04-09T12:46:13Z</time></trkpt><trkpt lat="44.67538136584641" lon="8.370902214518559"><ele>327.0</ele><time>2026-04-09T12:46:14Z</time></trkpt><trkpt lat="44.67551296023567" lon="8.370848466122638"><ele>330.0</ele><time>2026-04-09T12:46:15Z</time></trkpt><trkpt lat="44.67564991645589" lon="8.370812551249747"><ele>333.0</ele><time>2026-04-09T12:46:16Z</time></trkpt><trkpt lat="44.675786296234975" lon="8.37080764068642"><ele>336.0</ele><time>2026-04-09T12:46:17Z</time></trkpt><trkpt lat="44.67591710175372" lon="8.370837403472384"><ele>336.0</ele><time>2026-04-09T12:46:18Z</time></trkpt><trkpt lat="44.67604655328715" lon="8.37089388831162"><ele>336.0</ele><time>2026-04-09T12:46:19Z</time></trkpt><trkpt lat="44.67618389777103" lon="8.37096787808134"><ele>336.0</ele><time>2026-04-09T12:46:20Z</time></trkpt><trkpt lat="44.67631679054579" lon="8.371032547747985"><ele>336.0</ele><time>2026-04-09T12:46:21Z</time></trkpt><trkpt lat="44.67645301686765" lon="8.371079778581306"><ele>340.0</ele><time>2026-04-09T12:46:22Z</time></trkpt><trkpt lat="44.67658344981204" lon="8.371116030426572"><ele>344.0</ele><time>2026-04-09T12:46:23Z</time></trkpt><trkpt lat="44.67670650723383" lon="8.371151018057626"><ele>348.0</ele><time>2026-04-09T12:46:24Z</time></trkpt><trkpt lat="44.676823203352356" lon="8.371198840928393"><ele>352.0</ele><time>2026-04-09T12:46:25Z</time></trkpt><trkpt lat="44.67692015354741" lon="8.371283447216152"><ele>354.5</ele><time>2026-04-09T12:46:26Z</time></trkpt><trkpt lat="44.67699501353244" lon="8.371409976398958"><ele>357.0</ele><time>2026-04-09T12:46:27Z</time></trkpt><trkpt lat="44.67705239590064" lon="8.371557455711075"><ele>359.5</ele><time>2026-04-09T12:46:28Z</time></trkpt><trkpt lat="44.67708591230792" lon="8.371717135105301"><ele>362.0</ele><time>2026-04-09T12:46:29Z</time></trkpt><trkpt lat="44.67708154237393" lon="8.371890798711798"><ele>362.0</ele><time>2026-04-09T12:46:30Z</time></trkpt><trkpt lat="44.67705078541612" lon="8.372068293877469"><ele>362.0</ele><time>2026-04-09T12:46:31Z</time></trkpt><trkpt lat="44.67701513833242" lon="8.372253333415053"><ele>362.0</ele><time>2026-04-09T12:46:32Z</time></trkpt><trkpt lat="44.67698077644137" lon="8.372442780794303"><ele>362.0</ele><time>2026-04-09T12:46:33Z</time></trkpt><trkpt lat="44.6769456665677" lon="8.37262006989093"><ele>359.5</ele><time>2026-04-09T12:46:34Z</time></trkpt><trkpt lat="44.67690327417732" lon="8.37278507303885"><ele>357.0</ele><time>2026-04-09T12:46:35Z</time></trkpt><trkpt lat="44.67683340362446" lon="8.37292101274939"><ele>354.5</ele><time>2026-04-09T12:46:36Z</time></trkpt><trkpt lat="44.67674343395858" lon="8.373023882909678"><ele>352.0</ele><time>2026-04-09T12:46:37Z</time></trkpt><trkpt lat="44.67665835675796" lon="8.37312573619166"><ele>352.0</ele><time>2026-04-09T12:46:38Z</time></trkpt><trkpt lat="44.67658599361716" lon="8.373224651014842"><ele>352.0</ele><time>2026-04-09T12:46:39Z</time></trkpt><trkpt lat="44.676533881411366" lon="8.373315102763561"><ele>352.0</ele><time>2026-04-09T12:46:40Z</time></trkpt><trkpt lat="44.676521942783154" lon="8.373436587096316"><ele>352.0</ele><time>2026-04-09T12:46:41Z</time></trkpt><trkpt lat="44.67647660495195" lon="8.373594180384613"><ele>352.0</ele><time>2026-04-09T12:46:42Z</time></trkpt><trkpt lat="44.67652891042579" lon="8.373747368764088"><ele>352.0</ele><time>2026-04-09T12:46:43Z</time></trkpt><trkpt lat="44.676678283017026" lon="8.373795786316286"><ele>352.0</ele><time>2026-04-09T12:46:44Z</time></trkpt><trkpt lat="44.67676606240686" lon="8.37384121609192"><ele>352.0</ele><time>2026-04-09T12:46:45Z</time></trkpt><trkpt lat="44.676869062802666" lon="8.373818083635099"><ele>352.0</ele><time>2026-04-09T12:46:46Z</time></trkpt><trkpt lat="44.6769687777894" lon="8.37374629442212"><ele>354.75</ele><time>2026-04-09T12:46:47Z</time></trkpt><trkpt lat="44.677086632056245" lon="8.373702111631344"><ele>357.5</ele><time>2026-04-09T12:46:48Z</time></trkpt><trkpt lat="44.67721270206029" lon="8.373633020130566"><ele>360.25</ele><time>2026-04-09T12:46:49Z</time></trkpt><trkpt lat="44.67734587734591" lon="8.373548035287605"><ele>363.0</ele><time>2026-04-09T12:46:50Z</time></trkpt><trkpt lat="44.67747961486891" lon="8.373482651085977"><ele>363.0</ele><time>2026-04-09T12:46:51Z</time></trkpt><trkpt lat="44.6776147256052" lon="8.37341399717147"><ele>363.0</ele><time>2026-04-09T12:46:52Z</time></trkpt><trkpt lat="44.67775554300562" lon="8.373345600651499"><ele>363.0</ele><time>2026-04-09T12:46:53Z</time></trkpt><trkpt lat="44.67789423750522" lon="8.373289647330243"><ele>363.0</ele><time>2026-04-09T12:46:54Z</time></trkpt><trkpt lat="44.678020026017606" lon="8.373250596774625"><ele>362.59999999999997</ele><time>2026-04-09T12:46:55Z</time></trkpt><trkpt lat="44.67812858048292" lon="8.373210947053403"><ele>362.2</ele><time>2026-04-09T12:46:56Z</time></trkpt><trkpt lat="44.67822649759457" lon="8.373164504945153"><ele>361.8</ele><time>2026-04-09T12:46:57Z</time></trkpt><trkpt lat="44.67830626647572" lon="8.373084835980261"><ele>361.4</ele><time>2026-04-09T12:46:58Z</time></trkpt><trkpt lat="44.67836824130677" lon="8.372969150417202"><ele>361.0</ele><time>2026-04-09T12:46:59Z</time></trkpt><trkpt lat="44.67841637304628" lon="8.372828529315397"><ele>365.25</ele><time>2026-04-09T12:47:00Z</time></trkpt><trkpt lat="44.67842744729503" lon="8.372661202901229"><ele>369.5</ele><time>2026-04-09T12:47:01Z</time></trkpt><trkpt lat="44.67843473639691" lon="8.372494074162967"><ele>373.75</ele><time>2026-04-09T12:47:02Z</time></trkpt><trkpt lat="44.67844248710598" lon="8.372316361435283"><ele>378.0</ele><time>2026-04-09T12:47:03Z</time></trkpt><trkpt lat="44.67844753042604" lon="8.37212759347617"><ele>378.25</ele><time>2026-04-09T12:47:04Z</time></trkpt><trkpt lat="44.678443401055446" lon="8.371933457583292"><ele>378.5</ele><time>2026-04-09T12:47:05Z</time></trkpt><trkpt lat="44.67842072947313" lon="8.371733638802207"><ele>378.75</ele><time>2026-04-09T12:47:06Z</time></trkpt><trkpt lat="44.67838879864265" lon="8.371536407965799"><ele>379.0</ele><time>2026-04-09T12:47:07Z</time></trkpt><trkpt lat="44.67835871528961" lon="8.371346240715887"><ele>380.5</ele><time>2026-04-09T12:47:08Z</time></trkpt><trkpt lat="44.67832720857079" lon="8.371167073859278"><ele>382.0</ele><time>2026-04-09T12:47:09Z</time></trkpt><trkpt lat="44.678326106781405" lon="8.37098708952574"><ele>383.5</ele><time>2026-04-09T12:47:10Z</time></trkpt><trkpt lat="44.67836342971953" lon="8.370818179033213"><ele>385.0</ele><time>2026-04-09T12:47:11Z</time></trkpt><trkpt lat="44.67841578807024" lon="8.370656596154635"><ele>384.5</ele><time>2026-04-09T12:47:12Z</time></trkpt><trkpt lat="44.67847287917031" lon="8.37049050549206"><ele>384.0</ele><time>2026-04-09T12:47:13Z</time></trkpt><trkpt lat="44.67853081436505" lon="8.37031854780905"><ele>383.5</ele><time>2026-04-09T12:47:14Z</time></trkpt><trkpt lat="44.67859040698082" lon="8.370141671016405"><ele>383.0</ele><time>2026-04-09T12:47:15Z</time></trkpt><trkpt lat="44.67865136352863" lon="8.369960745722429"><ele>383.0</ele><time>2026-04-09T12:47:16Z</time></trkpt><trkpt lat="44.67870016013226" lon="8.369766158810052"><ele>383.0</ele><time>2026-04-09T12:47:17Z</time></trkpt><trkpt lat="44.67877535410889" lon="8.369587688449089"><ele>383.0</ele><time>2026-04-09T12:47:18Z</time></trkpt><trkpt lat="44.67887021163765" lon="8.369431626584054"><ele>383.0</ele><time>2026-04-09T12:47:19Z</time></trkpt><trkpt lat="44.67898213351805" lon="8.369309562899282"><ele>387.5</ele><time>2026-04-09T12:47:20Z</time></trkpt><trkpt lat="44.67909236715307" lon="8.369210237142553"><ele>392.0</ele><time>2026-04-09T12:47:21Z</time></trkpt><trkpt lat="44.67918636699227" lon="8.36911458935055"><ele>396.5</ele><time>2026-04-09T12:47:22Z</time></trkpt><trkpt lat="44.6792876093105" lon="8.369021480757567"><ele>401.0</ele><time>2026-04-09T12:47:23Z</time></trkpt><trkpt lat="44.67937746457397" lon="8.368902076641389"><ele>400.75</ele><time>2026-04-09T12:47:24Z</time></trkpt><trkpt lat="44.67947076335875" lon="8.36877808772136"><ele>400.5</ele><time>2026-04-09T12:47:25Z</time></trkpt><trkpt lat="44.67956980059562" lon="8.368648149306852"><ele>400.25</ele><time>2026-04-09T12:47:26Z</time></trkpt><trkpt lat="44.67967093467699" lon="8.368515459686908"><ele>400.0</ele><time>2026-04-09T12:47:27Z</time></trkpt><trkpt lat="44.67976646143257" lon="8.368362986265232"><ele>400.0</ele><time>2026-04-09T12:47:28Z</time></trkpt><trkpt lat="44.67987378656406" lon="8.368221596425439"><ele>400.0</ele><time>2026-04-09T12:47:29Z</time></trkpt><trkpt lat="44.67997754396799" lon="8.368087012941007"><ele>400.0</ele><time>2026-04-09T12:47:30Z</time></trkpt><trkpt lat="44.68007037120875" lon="8.367956790524248"><ele>400.0</ele><time>2026-04-09T12:47:31Z</time></trkpt><trkpt lat="44.68016384533395" lon="8.367831668035766"><ele>400.75</ele><time>2026-04-09T12:47:32Z</time></trkpt><trkpt lat="44.68027222027116" lon="8.367728335162612"><ele>401.5</ele><time>2026-04-09T12:47:33Z</time></trkpt><trkpt lat="44.68040395369394" lon="8.367668852996688"><ele>402.25</ele><time>2026-04-09T12:47:34Z</time></trkpt><trkpt lat="44.680545393198294" lon="8.367636441185333"><ele>403.0</ele><time>2026-04-09T12:47:35Z</time></trkpt><trkpt lat="44.68069439784142" lon="8.36759604558938"><ele>403.0</ele><time>2026-04-09T12:47:36Z</time></trkpt><trkpt lat="44.680844447331445" lon="8.367538046984901"><ele>403.0</ele><time>2026-04-09T12:47:37Z</time></trkpt><trkpt lat="44.680998299721374" lon="8.367471077270444"><ele>403.0</ele><time>2026-04-09T12:47:38Z</time></trkpt><trkpt lat="44.68115515599484" lon="8.367401605895267"><ele>399.6666666666667</ele><time>2026-04-09T12:47:39Z</time></trkpt><trkpt lat="44.681309054204775" lon="8.367331635067535"><ele>396.33333333333337</ele><time>2026-04-09T12:47:40Z</time></trkpt><trkpt lat="44.68146947561005" lon="8.36726369835237"><ele>393.0</ele><time>2026-04-09T12:47:41Z</time></trkpt><trkpt lat="44.681635228831134" lon="8.367212302888486"><ele>401.33333333333337</ele><time>2026-04-09T12:47:42Z</time></trkpt><trkpt lat="44.68180260699163" lon="8.367173311374389"><ele>409.6666666666667</ele><time>2026-04-09T12:47:43Z</time></trkpt><trkpt lat="44.681969367255164" lon="8.367133847099037"><ele>418.0</ele><time>2026-04-09T12:47:44Z</time></trkpt><trkpt lat="44.682135409843106" lon="8.367084431518316"><ele>418.0</ele><time>2026-04-09T12:47:45Z</time></trkpt><trkpt lat="44.68229855801243" lon="8.36702624224622"><ele>418.0</ele><time>2026-04-09T12:47:46Z</time></trkpt><trkpt lat="44.68245255931308" lon="8.366964459228658"><ele>418.0</ele><time>2026-04-09T12:47:47Z</time></trkpt><trkpt lat="44.68259384650864" lon="8.366906143179364"><ele>418.0</ele><time>2026-04-09T12:47:48Z</time></trkpt><trkpt lat="44.68272669297624" lon="8.366873761107023"><ele>418.0</ele><time>2026-04-09T12:47:49Z</time></trkpt><trkpt lat="44.682848618501104" lon="8.366803126714899"><ele>418.0</ele><time>2026-04-09T12:47:50Z</time></trkpt><trkpt lat="44.68297070172623" lon="8.366758033326198"><ele>418.0</ele><time>2026-04-09T12:47:51Z</time></trkpt><trkpt lat="44.683080045500844" lon="8.366718140808262"><ele>417.4</ele><time>2026-04-09T12:47:52Z</time></trkpt><trkpt lat="44.68317694302686" lon="8.366673994043898"><ele>416.79999999999995</ele><time>2026-04-09T12:47:53Z</time></trkpt><trkpt lat="44.68325729739365" lon="8.366610674499075"><ele>416.2</ele><time>2026-04-09T12:47:54Z</time></trkpt><trkpt lat="44.683339387877496" lon="8.366525685738196"><ele>415.6</ele><time>2026-04-09T12:47:55Z</time></trkpt><trkpt lat="44.683365628366026" lon="8.366372578711905"><ele>415.0</ele><time>2026-04-09T12:47:56Z</time></trkpt><trkpt lat="44.68337894538618" lon="8.366223453996536"><ele>415.0</ele><time>2026-04-09T12:47:57Z</time></trkpt><trkpt lat="44.68334989325373" lon="8.366067952332081"><ele>415.0</ele><time>2026-04-09T12:47:58Z</time></trkpt><trkpt lat="44.683293985823504" lon="8.365920103087943"><ele>415.0</ele><time>2026-04-09T12:47:59Z</time></trkpt><trkpt lat="44.68323944337502" lon="8.365756846227605"><ele>415.0</ele><time>2026-04-09T12:48:00Z</time></trkpt><trkpt lat="44.683151347217624" lon="8.365624452889701"><ele>414.25</ele><time>2026-04-09T12:48:01Z</time></trkpt><trkpt lat="44.68307902219895" lon="8.365470227831638"><ele>413.5</ele><time>2026-04-09T12:48:02Z</time></trkpt><trkpt lat="44.68303048146558" lon="8.36529456263715"><ele>412.75</ele><time>2026-04-09T12:48:03Z</time></trkpt><trkpt lat="44.68300042283202" lon="8.365113857218608"><ele>412.0</ele><time>2026-04-09T12:48:04Z</time></trkpt><trkpt lat="44.68296965585628" lon="8.364922494083782"><ele>412.0</ele><time>2026-04-09T12:48:05Z</time></trkpt><trkpt lat="44.68293810290235" lon="8.364729978032793"><ele>412.0</ele><time>2026-04-09T12:48:06Z</time></trkpt><trkpt lat="44.682905142477395" lon="8.364532012849333"><ele>412.0</ele><time>2026-04-09T12:48:07Z</time></trkpt><trkpt lat="44.68284684354313" lon="8.364346074032396"><ele>412.0</ele><time>2026-04-09T12:48:08Z</time></trkpt><trkpt lat="44.68278871332987" lon="8.364157236871966"><ele>414.75</ele><time>2026-04-09T12:48:09Z</time></trkpt><trkpt lat="44.6827216695193" lon="8.36398701038229"><ele>417.5</ele><time>2026-04-09T12:48:10Z</time></trkpt><trkpt lat="44.68266701898625" lon="8.363814587213811"><ele>420.25</ele><time>2026-04-09T12:48:11Z</time></trkpt><trkpt lat="44.68263367016216" lon="8.363626863358311"><ele>423.0</ele><time>2026-04-09T12:48:12Z</time></trkpt><trkpt lat="44.68264021247287" lon="8.363421698330288"><ele>423.33333333333337</ele><time>2026-04-09T12:48:13Z</time></trkpt><trkpt lat="44.682671330247494" lon="8.363211509713329"><ele>423.6666666666667</ele><time>2026-04-09T12:48:14Z</time></trkpt><trkpt lat="44.682729893703815" lon="8.363003283415672"><ele>424.0</ele><time>2026-04-09T12:48:15Z</time></trkpt><trkpt lat="44.68277871801173" lon="8.362773641140064"><ele>422.6666666666667</ele><time>2026-04-09T12:48:16Z</time></trkpt><trkpt lat="44.68282133333517" lon="8.362522826683989"><ele>421.33333333333337</ele><time>2026-04-09T12:48:17Z</time></trkpt><trkpt lat="44.682899228103196" lon="8.362277793236412"><ele>420.0</ele><time>2026-04-09T12:48:18Z</time></trkpt><trkpt lat="44.68299729127956" lon="8.362053206273565"><ele>420.0</ele><time>2026-04-09T12:48:19Z</time></trkpt><trkpt lat="44.68306740679916" lon="8.361810300855213"><ele>420.0</ele><time>2026-04-09T12:48:20Z</time></trkpt><trkpt lat="44.68310723377328" lon="8.36156105497579"><ele>420.0</ele><time>2026-04-09T12:48:21Z</time></trkpt><trkpt lat="44.68316640100278" lon="8.36133060495118"><ele>423.66666666666663</ele><time>2026-04-09T12:48:22Z</time></trkpt><trkpt lat="44.68321262812261" lon="8.361104216479886"><ele>427.3333333333333</ele><time>2026-04-09T12:48:23Z</time></trkpt><trkpt lat="44.683241238105424" lon="8.360877759546687"><ele>431.0</ele><time>2026-04-09T12:48:24Z</time></trkpt><trkpt lat="44.68329445021261" lon="8.360668708279295"><ele>429.66666666666663</ele><time>2026-04-09T12:48:25Z</time></trkpt><trkpt lat="44.683357207056446" lon="8.360470352662563"><ele>428.33333333333337</ele><time>2026-04-09T12:48:26Z</time></trkpt><trkpt lat="44.68343766490328" lon="8.360284239395213"><ele>427.0</ele><time>2026-04-09T12:48:27Z</time></trkpt><trkpt lat="44.683553689632674" lon="8.36015180862629"><ele>427.5</ele><time>2026-04-09T12:48:28Z</time></trkpt><trkpt lat="44.68365129394205" lon="8.36000328418997"><ele>428.0</ele><time>2026-04-09T12:48:29Z</time></trkpt><trkpt lat="44.683755327304716" lon="8.359875231121347"><ele>428.5</ele><time>2026-04-09T12:48:30Z</time></trkpt><trkpt lat="44.68385685675842" lon="8.35974384483476"><ele>429.0</ele><time>2026-04-09T12:48:31Z</time></trkpt><trkpt lat="44.683923607446424" lon="8.359561530115704"><ele>432.75</ele><time>2026-04-09T12:48:32Z</time></trkpt><trkpt lat="44.683949985979666" lon="8.359359181232483"><ele>436.5</ele><time>2026-04-09T12:48:33Z</time></trkpt><trkpt lat="44.6839982023157" lon="8.359161988285049"><ele>440.25</ele><time>2026-04-09T12:48:34Z</time></trkpt><trkpt lat="44.68402566081944" lon="8.358968378152168"><ele>444.0</ele><time>2026-04-09T12:48:35Z</time></trkpt><trkpt lat="44.68402922442426" lon="8.35878993589171"><ele>444.6</ele><time>2026-04-09T12:48:36Z</time></trkpt><trkpt lat="44.68405357346514" lon="8.358635081523015"><ele>445.2</ele><time>2026-04-09T12:48:37Z</time></trkpt><trkpt lat="44.684078682307884" lon="8.358511640742343"><ele>445.80000000000007</ele><time>2026-04-09T12:48:38Z</time></trkpt><trkpt lat="44.68412305324213" lon="8.358415328431793"><ele>446.40000000000003</ele><time>2026-04-09T12:48:39Z</time></trkpt><trkpt lat="44.684204400591945" lon="8.358364160796977"><ele>447.0</ele><time>2026-04-09T12:48:40Z</time></trkpt><trkpt lat="44.68429709119475" lon="8.358351920382033"><ele>447.0</ele><time>2026-04-09T12:48:41Z</time></trkpt><trkpt lat="44.68439457110001" lon="8.358373089246472"><ele>447.0</ele><time>2026-04-09T12:48:42Z</time></trkpt><trkpt lat="44.684509759770435" lon="8.35841208915083"><ele>447.0</ele><time>2026-04-09T12:48:43Z</time></trkpt><trkpt lat="44.68463943917964" lon="8.358446659655188"><ele>447.0</ele><time>2026-04-09T12:48:44Z</time></trkpt><trkpt lat="44.68477094824572" lon="8.358477607032905"><ele>444.66666666666663</ele><time>2026-04-09T12:48:45Z</time></trkpt><trkpt lat="44.684911902165226" lon="8.358509187249991"><ele>442.3333333333333</ele><time>2026-04-09T12:48:46Z</time></trkpt><trkpt lat="44.68506202102492" lon="8.35853555928133"><ele>440.0</ele><time>2026-04-09T12:48:47Z</time></trkpt><trkpt lat="44.68522292314716" lon="8.358539479763094"><ele>437.3333333333333</ele><time>2026-04-09T12:48:48Z</time></trkpt><trkpt lat="44.68538749328801" lon="8.358507552698471"><ele>434.66666666666663</ele><time>2026-04-09T12:48:49Z</time></trkpt><trkpt lat="44.68555805385011" lon="8.358439733585236"><ele>432.0</ele><time>2026-04-09T12:48:50Z</time></trkpt><trkpt lat="44.685736739695564" lon="8.358380689668397"><ele>432.0</ele><time>2026-04-09T12:48:51Z</time></trkpt><trkpt lat="44.68592219241316" lon="8.358335552262977"><ele>432.0</ele><time>2026-04-09T12:48:52Z</time></trkpt><trkpt lat="44.68611310156146" lon="8.358302154347374"><ele>432.0</ele><time>2026-04-09T12:48:53Z</time></trkpt><trkpt lat="44.68630470181356" lon="8.358284955762162"><ele>432.66666666666663</ele><time>2026-04-09T12:48:54Z</time></trkpt><trkpt lat="44.68649186216522" lon="8.358275919450255"><ele>433.3333333333333</ele><time>2026-04-09T12:48:55Z</time></trkpt><trkpt lat="44.686669122862234" lon="8.358270270450292"><ele>434.0</ele><time>2026-04-09T12:48:56Z</time></trkpt><trkpt lat="44.686840047891074" lon="8.358266582429556"><ele>434.66666666666663</ele><time>2026-04-09T12:48:57Z</time></trkpt><trkpt lat="44.687003722286896" lon="8.358260407811684"><ele>435.33333333333337</ele><time>2026-04-09T12:48:58Z</time></trkpt><trkpt lat="44.687158149063485" lon="8.358230594074787"><ele>436.0</ele><time>2026-04-09T12:48:59Z</time></trkpt><trkpt lat="44.687298557854994" lon="8.358157060494403"><ele>436.0</ele><time>2026-04-09T12:49:00Z</time></trkpt><trkpt lat="44.687441555826204" lon="8.358065167449592"><ele>436.0</ele><time>2026-04-09T12:49:01Z</time></trkpt><trkpt lat="44.68757419343556" lon="8.357938818639097"><ele>436.0</ele><time>2026-04-09T12:49:02Z</time></trkpt><trkpt lat="44.68770314221142" lon="8.357805653122975"><ele>437.0</ele><time>2026-04-09T12:49:03Z</time></trkpt><trkpt lat="44.68783553619088" lon="8.357671603627375"><ele>438.0</ele><time>2026-04-09T12:49:04Z</time></trkpt><trkpt lat="44.687967374961694" lon="8.357533619029086"><ele>439.0</ele><time>2026-04-09T12:49:05Z</time></trkpt><trkpt lat="44.68809963906767" lon="8.35738300974136"><ele>439.0</ele><time>2026-04-09T12:49:06Z</time></trkpt><trkpt lat="44.68821765923785" lon="8.357212912535882"><ele>439.0</ele><time>2026-04-09T12:49:07Z</time></trkpt><trkpt lat="44.6883225790444" lon="8.357047018067947"><ele>439.0</ele><time>2026-04-09T12:49:08Z</time></trkpt><trkpt lat="44.688416814656186" lon="8.356891532579553"><ele>436.5</ele><time>2026-04-09T12:49:09Z</time></trkpt><trkpt lat="44.68850053772018" lon="8.356736886448026"><ele>434.0</ele><time>2026-04-09T12:49:10Z</time></trkpt><trkpt lat="44.688568406839074" lon="8.356569648436572"><ele>431.5</ele><time>2026-04-09T12:49:11Z</time></trkpt><trkpt lat="44.688615340477256" lon="8.356372166797907"><ele>429.0</ele><time>2026-04-09T12:49:12Z</time></trkpt><trkpt lat="44.688648616160144" lon="8.356162121275926"><ele>429.0</ele><time>2026-04-09T12:49:13Z</time></trkpt><trkpt lat="44.68867464386401" lon="8.355958149647746"><ele>429.0</ele><time>2026-04-09T12:49:14Z</time></trkpt><trkpt lat="44.68868244669718" lon="8.35576021063027"><ele>429.0</ele><time>2026-04-09T12:49:15Z</time></trkpt><trkpt lat="44.6886736103483" lon="8.355581213642644"><ele>429.0</ele><time>2026-04-09T12:49:16Z</time></trkpt><trkpt lat="44.688658803565666" lon="8.355425284345433"><ele>428.0</ele><time>2026-04-09T12:49:17Z</time></trkpt><trkpt lat="44.68865574670304" lon="8.355286332471506"><ele>427.0</ele><time>2026-04-09T12:49:18Z</time></trkpt><trkpt lat="44.688661915727984" lon="8.355156371331006"><ele>426.0</ele><time>2026-04-09T12:49:19Z</time></trkpt><trkpt lat="44.68871714022875" lon="8.355054713336335"><ele>425.0</ele><time>2026-04-09T12:49:20Z</time></trkpt><trkpt lat="44.68880753247233" lon="8.35498529236303"><ele>424.0</ele><time>2026-04-09T12:49:21Z</time></trkpt><trkpt lat="44.68891534657436" lon="8.354932938999962"><ele>424.0</ele><time>2026-04-09T12:49:22Z</time></trkpt><trkpt lat="44.68902551318719" lon="8.354873256973054"><ele>424.0</ele><time>2026-04-09T12:49:23Z</time></trkpt><trkpt lat="44.68913971685917" lon="8.354794105040618"><ele>424.0</ele><time>2026-04-09T12:49:24Z</time></trkpt><trkpt lat="44.689258166846386" lon="8.35470704595461"><ele>424.0</ele><time>2026-04-09T12:49:25Z</time></trkpt><trkpt lat="44.689372453540926" lon="8.354577477388613"><ele>422.0</ele><time>2026-04-09T12:49:26Z</time></trkpt><trkpt lat="44.68948187237519" lon="8.354419592086924"><ele>420.0</ele><time>2026-04-09T12:49:27Z</time></trkpt><trkpt lat="44.689586754088644" lon="8.354246647700588"><ele>418.0</ele><time>2026-04-09T12:49:28Z</time></trkpt><trkpt lat="44.68972815287165" lon="8.354115364662503"><ele>418.0</ele><time>2026-04-09T12:49:29Z</time></trkpt><trkpt lat="44.68987248791177" lon="8.353982220012865"><ele>418.0</ele><time>2026-04-09T12:49:30Z</time></trkpt><trkpt lat="44.690021205283436" lon="8.353857633886976"><ele>418.0</ele><time>2026-04-09T12:49:31Z</time></trkpt><trkpt lat="44.69015934546393" lon="8.353738391249463"><ele>418.25</ele><time>2026-04-09T12:49:32Z</time></trkpt><trkpt lat="44.69028892389525" lon="8.35362156461166"><ele>418.5</ele><time>2026-04-09T12:49:33Z</time></trkpt><trkpt lat="44.69041336738493" lon="8.353517084775861"><ele>418.75</ele><time>2026-04-09T12:49:34Z</time></trkpt><trkpt lat="44.69053634806577" lon="8.353427779727602"><ele>419.0</ele><time>2026-04-09T12:49:35Z</time></trkpt><trkpt lat="44.69066313013247" lon="8.353340169887975"><ele>419.0</ele><time>2026-04-09T12:49:36Z</time></trkpt><trkpt lat="44.69081031390597" lon="8.353306371962205"><ele>419.0</ele><time>2026-04-09T12:49:37Z</time></trkpt><trkpt lat="44.69096050958165" lon="8.35329047543648"><ele>419.0</ele><time>2026-04-09T12:49:38Z</time></trkpt><trkpt lat="44.69110501651905" lon="8.35327598352198"><ele>419.0</ele><time>2026-04-09T12:49:39Z</time></trkpt><trkpt lat="44.69124339079767" lon="8.353253477423289"><ele>417.75</ele><time>2026-04-09T12:49:40Z</time></trkpt><trkpt lat="44.69137872684954" lon="8.353227119636646"><ele>416.5</ele><time>2026-04-09T12:49:41Z</time></trkpt><trkpt lat="44.69151243394689" lon="8.353191842531798"><ele>415.25</ele><time>2026-04-09T12:49:42Z</time></trkpt><trkpt lat="44.69165067966197" lon="8.353168463446117"><ele>414.0</ele><time>2026-04-09T12:49:43Z</time></trkpt><trkpt lat="44.69178011959398" lon="8.353110665003877"><ele>416.0</ele><time>2026-04-09T12:49:44Z</time></trkpt><trkpt lat="44.69190072769775" lon="8.353029227476844"><ele>418.0</ele><time>2026-04-09T12:49:45Z</time></trkpt><trkpt lat="44.69203331185828" lon="8.352986175962272"><ele>420.0</ele><time>2026-04-09T12:49:46Z</time></trkpt><trkpt lat="44.69216549404293" lon="8.352917947648129"><ele>422.0</ele><time>2026-04-09T12:49:47Z</time></trkpt><trkpt lat="44.69230115915592" lon="8.352845881665194"><ele>422.0</ele><time>2026-04-09T12:49:48Z</time></trkpt><trkpt lat="44.69243905855657" lon="8.352772134564544"><ele>422.0</ele><time>2026-04-09T12:49:49Z</time></trkpt><trkpt lat="44.692575463146746" lon="8.35269918685431"><ele>422.0</ele><time>2026-04-09T12:49:50Z</time></trkpt><trkpt lat="44.6927082594827" lon="8.352624486872143"><ele>422.0</ele><time>2026-04-09T12:49:51Z</time></trkpt><trkpt lat="44.69283167149663" lon="8.352553960848217"><ele>421.75</ele><time>2026-04-09T12:49:52Z</time></trkpt><trkpt lat="44.69294761092327" lon="8.35247231113613"><ele>421.5</ele><time>2026-04-09T12:49:53Z</time></trkpt><trkpt lat="44.69305982293119" lon="8.352354632344689"><ele>421.25</ele><time>2026-04-09T12:49:54Z</time></trkpt><trkpt lat="44.69316778392033" lon="8.352223492817243"><ele>421.0</ele><time>2026-04-09T12:49:55Z</time></trkpt><trkpt lat="44.693285159257506" lon="8.35209331946066"><ele>421.0</ele><time>2026-04-09T12:49:56Z</time></trkpt><trkpt lat="44.693411622118916" lon="8.351962855273559"><ele>421.0</ele><time>2026-04-09T12:49:57Z</time></trkpt><trkpt lat="44.69354613745313" lon="8.351832426126895"><ele>421.0</ele><time>2026-04-09T12:49:58Z</time></trkpt><trkpt lat="44.69367688736277" lon="8.351705648025565"><ele>420.0</ele><time>2026-04-09T12:49:59Z</time></trkpt><trkpt lat="44.693801868352466" lon="8.351584463395369"><ele>419.0</ele><time>2026-04-09T12:50:00Z</time></trkpt><trkpt lat="44.69391851337655" lon="8.351476638494306"><ele>418.0</ele><time>2026-04-09T12:50:01Z</time></trkpt><trkpt lat="44.69402370896276" lon="8.35139067843105"><ele>417.0</ele><time>2026-04-09T12:50:02Z</time></trkpt><trkpt lat="44.69412121347705" lon="8.351307509584554"><ele>417.0</ele><time>2026-04-09T12:50:03Z</time></trkpt><trkpt lat="44.694205560469825" lon="8.35122532813208"><ele>417.0</ele><time>2026-04-09T12:50:04Z</time></trkpt><trkpt lat="44.69428257461548" lon="8.351106872603435"><ele>417.0</ele><time>2026-04-09T12:50:05Z</time></trkpt><trkpt lat="44.69434318893728" lon="8.350957429581952"><ele>417.0</ele><time>2026-04-09T12:50:06Z</time></trkpt><trkpt lat="44.69439912247035" lon="8.350822612649473"><ele>415.6</ele><time>2026-04-09T12:50:07Z</time></trkpt><trkpt lat="44.694460670644574" lon="8.350697211747226"><ele>414.20000000000005</ele><time>2026-04-09T12:50:08Z</time></trkpt><trkpt lat="44.69453594486771" lon="8.350594214797344"><ele>412.8</ele><time>2026-04-09T12:50:09Z</time></trkpt><trkpt lat="44.69461965188741" lon="8.350495627129721"><ele>411.4</ele><time>2026-04-09T12:50:10Z</time></trkpt><trkpt lat="44.694728244232856" lon="8.350452876218197"><ele>410.0</ele><time>2026-04-09T12:50:11Z</time></trkpt><trkpt lat="44.694846106996394" lon="8.350424271788814"><ele>410.0</ele><time>2026-04-09T12:50:12Z</time></trkpt><trkpt lat="44.69496718053664" lon="8.350378860874018"><ele>410.0</ele><time>2026-04-09T12:50:13Z</time></trkpt><trkpt lat="44.695094253928566" lon="8.350336977884009"><ele>410.0</ele><time>2026-04-09T12:50:14Z</time></trkpt><trkpt lat="44.69520252856313" lon="8.350268423247238"><ele>410.0</ele><time>2026-04-09T12:50:15Z</time></trkpt><trkpt lat="44.6952986888781" lon="8.350203578574504"><ele>406.6</ele><time>2026-04-09T12:50:16Z</time></trkpt><trkpt lat="44.69538830066661" lon="8.350146116841158"><ele>403.2</ele><time>2026-04-09T12:50:17Z</time></trkpt><trkpt lat="44.695472456864884" lon="8.350089877079375"><ele>399.79999999999995</ele><time>2026-04-09T12:50:18Z</time></trkpt><trkpt lat="44.69554469261814" lon="8.35002671444377"><ele>396.4</ele><time>2026-04-09T12:50:19Z</time></trkpt><trkpt lat="44.695599458068834" lon="8.34993036780409"><ele>393.0</ele><time>2026-04-09T12:50:20Z</time></trkpt><trkpt lat="44.69562022545662" lon="8.349808125094059"><ele>391.5</ele><time>2026-04-09T12:50:21Z</time></trkpt><trkpt lat="44.695572869511" lon="8.349663248981084"><ele>390.0</ele><time>2026-04-09T12:50:22Z</time></trkpt><trkpt lat="44.695511650157826" lon="8.349539657052505"><ele>388.5</ele><time>2026-04-09T12:50:23Z</time></trkpt><trkpt lat="44.6954511988368" lon="8.349405742098506"><ele>387.0</ele><time>2026-04-09T12:50:24Z</time></trkpt><trkpt lat="44.695393571003805" lon="8.349252474177362"><ele>387.0</ele><time>2026-04-09T12:50:25Z</time></trkpt><trkpt lat="44.695342094978265" lon="8.349083657604934"><ele>387.0</ele><time>2026-04-09T12:50:26Z</time></trkpt><trkpt lat="44.695308367599424" lon="8.348906020861431"><ele>387.0</ele><time>2026-04-09T12:50:27Z</time></trkpt><trkpt lat="44.69529660198797" lon="8.34873062491518"><ele>387.0</ele><time>2026-04-09T12:50:28Z</time></trkpt><trkpt lat="44.695295046752854" lon="8.348556802731942"><ele>387.20000000000005</ele><time>2026-04-09T12:50:29Z</time></trkpt><trkpt lat="44.69530685834334" lon="8.348396818689254"><ele>387.4</ele><time>2026-04-09T12:50:30Z</time></trkpt><trkpt lat="44.69534243659656" lon="8.348251694754582"><ele>387.6</ele><time>2026-04-09T12:50:31Z</time></trkpt><trkpt lat="44.69541314196213" lon="8.348135765504512"><ele>387.79999999999995</ele><time>2026-04-09T12:50:32Z</time></trkpt><trkpt lat="44.695499460164655" lon="8.348027100666224"><ele>388.0</ele><time>2026-04-09T12:50:33Z</time></trkpt><trkpt lat="44.695601888948346" lon="8.347929237932846"><ele>388.79999999999995</ele><time>2026-04-09T12:50:34Z</time></trkpt><trkpt lat="44.69569829296237" lon="8.347816913468483"><ele>389.6</ele><time>2026-04-09T12:50:35Z</time></trkpt><trkpt lat="44.69578430854953" lon="8.34770580959109"><ele>390.4</ele><time>2026-04-09T12:50:36Z</time></trkpt><trkpt lat="44.695862167428906" lon="8.347602195433502"><ele>391.20000000000005</ele><time>2026-04-09T12:50:37Z</time></trkpt><trkpt lat="44.69592100981642" lon="8.347522726331496"><ele>392.0</ele><time>2026-04-09T12:50:38Z</time></trkpt><trkpt lat="44.69595937303921" lon="8.347447186979592"><ele>392.0</ele><time>2026-04-09T12:50:39Z</time></trkpt><trkpt lat="44.69604183888408" lon="8.347386365661963"><ele>392.0</ele><time>2026-04-09T12:50:41Z</time></trkpt><trkpt lat="44.6961651729106" lon="8.347357951878386"><ele>392.0</ele><time>2026-04-09T12:50:43Z</time></trkpt><trkpt lat="44.69625177635588" lon="8.347358343987034"><ele>392.0</ele><time>2026-04-09T12:50:44Z</time></trkpt><trkpt lat="44.696352094790356" lon="8.347378576061786"><ele>392.0</ele><time>2026-04-09T12:50:45Z</time></trkpt><trkpt lat="44.69646040476192" lon="8.347413264734557"><ele>390.25</ele><time>2026-04-09T12:50:46Z</time></trkpt><trkpt lat="44.69657369736605" lon="8.347446526423354"><ele>388.5</ele><time>2026-04-09T12:50:47Z</time></trkpt><trkpt lat="44.69670030503372" lon="8.347487289381588"><ele>386.75</ele><time>2026-04-09T12:50:48Z</time></trkpt><trkpt lat="44.6968372167046" lon="8.347521842339553"><ele>385.0</ele><time>2026-04-09T12:50:49Z</time></trkpt><trkpt lat="44.69698294293446" lon="8.347542317515009"><ele>385.0</ele><time>2026-04-09T12:50:50Z</time></trkpt><trkpt lat="44.69713513995432" lon="8.347540540340948"><ele>385.0</ele><time>2026-04-09T12:50:51Z</time></trkpt><trkpt lat="44.6972871048601" lon="8.347528630508057"><ele>385.0</ele><time>2026-04-09T12:50:52Z</time></trkpt><trkpt lat="44.697441572435714" lon="8.347518191778912"><ele>385.0</ele><time>2026-04-09T12:50:53Z</time></trkpt><trkpt lat="44.697595805858484" lon="8.34751380198366"><ele>385.0</ele><time>2026-04-09T12:50:54Z</time></trkpt><trkpt lat="44.69775382463397" lon="8.347510019639468"><ele>385.0</ele><time>2026-04-09T12:50:55Z</time></trkpt><trkpt lat="44.69791058290129" lon="8.347530495593105"><ele>385.0</ele><time>2026-04-09T12:50:56.001Z</time></trkpt><trkpt lat="44.6980636644362" lon="8.347501974227344"><ele>385.0</ele><time>2026-04-09T12:50:57.001Z</time></trkpt><trkpt lat="44.69821158531143" lon="8.347495873379446"><ele>385.0</ele><time>2026-04-09T12:50:58.001Z</time></trkpt><trkpt lat="44.69835625471504" lon="8.347484112747681"><ele>385.0</ele><time>2026-04-09T12:50:59.001Z</time></trkpt><trkpt lat="44.69849703931564" lon="8.347469026728072"><ele>383.33333333333337</ele><time>2026-04-09T12:51:00.001Z</time></trkpt><trkpt lat="44.69864383513993" lon="8.347444684984305"><ele>381.6666666666667</ele><time>2026-04-09T12:51:01.001Z</time></trkpt><trkpt lat="44.69879679558619" lon="8.34742189408473"><ele>380.0</ele><time>2026-04-09T12:51:02.001Z</time></trkpt><trkpt lat="44.698951282590905" lon="8.347388976540156"><ele>380.0</ele><time>2026-04-09T12:51:03.001Z</time></trkpt><trkpt lat="44.699103585548386" lon="8.347352119754227"><ele>380.0</ele><time>2026-04-09T12:51:04.001Z</time></trkpt><trkpt lat="44.69925496637706" lon="8.347316489215721"><ele>380.0</ele><time>2026-04-09T12:51:05.001Z</time></trkpt><trkpt lat="44.69940468836087" lon="8.347284818612339"><ele>381.0</ele><time>2026-04-09T12:51:06.001Z</time></trkpt><trkpt lat="44.69955455163372" lon="8.34725634808639"><ele>382.0</ele><time>2026-04-09T12:51:07.001Z</time></trkpt><trkpt lat="44.69970249941622" lon="8.34721938966092"><ele>383.0</ele><time>2026-04-09T12:51:08.001Z</time></trkpt><trkpt lat="44.699851922285475" lon="8.347187239976558"><ele>383.0</ele><time>2026-04-09T12:51:09Z</time></trkpt><trkpt lat="44.69999291942544" lon="8.347126066740087"><ele>383.0</ele><time>2026-04-09T12:51:10Z</time></trkpt><trkpt lat="44.70011689973831" lon="8.347051911803314"><ele>383.0</ele><time>2026-04-09T12:51:11Z</time></trkpt><trkpt lat="44.700221988644614" lon="8.346956392945577"><ele>383.0</ele><time>2026-04-09T12:51:12Z</time></trkpt><trkpt lat="44.700314176109075" lon="8.346881154398073"><ele>382.2</ele><time>2026-04-09T12:51:13Z</time></trkpt><trkpt lat="44.700384600324064" lon="8.34677893466358"><ele>381.4</ele><time>2026-04-09T12:51:14Z</time></trkpt><trkpt lat="44.700472267128866" lon="8.346674458215674"><ele>380.59999999999997</ele><time>2026-04-09T12:51:15Z</time></trkpt><trkpt lat="44.700550308934744" lon="8.346553976154087"><ele>379.79999999999995</ele><time>2026-04-09T12:51:16Z</time></trkpt><trkpt lat="44.70063763012406" lon="8.346457557064326"><ele>379.0</ele><time>2026-04-09T12:51:17Z</time></trkpt><trkpt lat="44.7007444240979" lon="8.346373990241762"><ele>379.0</ele><time>2026-04-09T12:51:18Z</time></trkpt><trkpt lat="44.70085707755399" lon="8.346287792808889"><ele>379.0</ele><time>2026-04-09T12:51:19Z</time></trkpt><trkpt lat="44.70097238574271" lon="8.34618172702674"><ele>379.0</ele><time>2026-04-09T12:51:20Z</time></trkpt><trkpt lat="44.7010822833958" lon="8.346060443183754"><ele>379.0</ele><time>2026-04-09T12:51:21Z</time></trkpt><trkpt lat="44.70118984985853" lon="8.34593229775128"><ele>376.5</ele><time>2026-04-09T12:51:22Z</time></trkpt><trkpt lat="44.70129485681117" lon="8.345807201052763"><ele>374.0</ele><time>2026-04-09T12:51:23Z</time></trkpt><trkpt lat="44.70139885620094" lon="8.345698927510433"><ele>371.5</ele><time>2026-04-09T12:51:24Z</time></trkpt><trkpt lat="44.70149494518916" lon="8.345598065045618"><ele>369.0</ele><time>2026-04-09T12:51:25Z</time></trkpt><trkpt lat="44.70158536694545" lon="8.345498835676846"><ele>369.0</ele><time>2026-04-09T12:51:26Z</time></trkpt><trkpt lat="44.70167262651896" lon="8.34540467948541"><ele>369.0</ele><time>2026-04-09T12:51:27Z</time></trkpt><trkpt lat="44.70174990613733" lon="8.345303519065638"><ele>369.0</ele><time>2026-04-09T12:51:28Z</time></trkpt><trkpt lat="44.701839646483094" lon="8.345257802852103"><ele>369.0</ele><time>2026-04-09T12:51:29Z</time></trkpt><trkpt lat="44.70193218923712" lon="8.345259785544199"><ele>369.0</ele><time>2026-04-09T12:51:30Z</time></trkpt><trkpt lat="44.70202778572105" lon="8.345285932158607"><ele>368.5</ele><time>2026-04-09T12:51:31Z</time></trkpt><trkpt lat="44.70213212275379" lon="8.345323465644052"><ele>368.0</ele><time>2026-04-09T12:51:32Z</time></trkpt><trkpt lat="44.7022500287217" lon="8.345353644083536"><ele>367.5</ele><time>2026-04-09T12:51:33Z</time></trkpt><trkpt lat="44.702374815002976" lon="8.345368276214545"><ele>367.0</ele><time>2026-04-09T12:51:34Z</time></trkpt><trkpt lat="44.70250346716788" lon="8.345383644773348"><ele>367.0</ele><time>2026-04-09T12:51:35Z</time></trkpt><trkpt lat="44.702630733364074" lon="8.345400254757697"><ele>367.0</ele><time>2026-04-09T12:51:36Z</time></trkpt><trkpt lat="44.70275147445266" lon="8.345418606491608"><ele>367.0</ele><time>2026-04-09T12:51:37Z</time></trkpt><trkpt lat="44.702866087554526" lon="8.345438952021526"><ele>367.0</ele><time>2026-04-09T12:51:38Z</time></trkpt><trkpt lat="44.702971962066236" lon="8.34546354268817"><ele>368.20000000000005</ele><time>2026-04-09T12:51:39Z</time></trkpt><trkpt lat="44.703069764340675" lon="8.3454951020426"><ele>369.4</ele><time>2026-04-09T12:51:40Z</time></trkpt><trkpt lat="44.70315561894687" lon="8.345552585563112"><ele>370.6</ele><time>2026-04-09T12:51:41Z</time></trkpt><trkpt lat="44.70322943080355" lon="8.345631336953854"><ele>371.79999999999995</ele><time>2026-04-09T12:51:42Z</time></trkpt><trkpt lat="44.703303690006834" lon="8.345726178932813"><ele>373.0</ele><time>2026-04-09T12:51:43Z</time></trkpt><trkpt lat="44.70336665527411" lon="8.345825096745276"><ele>373.0</ele><time>2026-04-09T12:51:44Z</time></trkpt><trkpt lat="44.703430303111716" lon="8.345932103752936"><ele>373.0</ele><time>2026-04-09T12:51:45Z</time></trkpt><trkpt lat="44.70349627827109" lon="8.346041506077274"><ele>373.0</ele><time>2026-04-09T12:51:46Z</time></trkpt><trkpt lat="44.70355293044733" lon="8.346153071214715"><ele>373.0</ele><time>2026-04-09T12:51:47Z</time></trkpt><trkpt lat="44.70359920437408" lon="8.34625954579848"><ele>373.0</ele><time>2026-04-09T12:51:48Z</time></trkpt><trkpt lat="44.70364349407417" lon="8.346354097905513"><ele>373.2</ele><time>2026-04-09T12:51:49Z</time></trkpt><trkpt lat="44.703693884492125" lon="8.34643716937062"><ele>373.4</ele><time>2026-04-09T12:51:50Z</time></trkpt><trkpt lat="44.703741528445526" lon="8.346495614760983"><ele>373.59999999999997</ele><time>2026-04-09T12:51:51Z</time></trkpt><trkpt lat="44.703837089898116" lon="8.346608100433805"><ele>373.79999999999995</ele><time>2026-04-09T12:51:53Z</time></trkpt><trkpt lat="44.703946827417965" lon="8.346576221737932"><ele>374.0</ele><time>2026-04-09T12:51:54Z</time></trkpt><trkpt lat="44.70403489821608" lon="8.34663428342453"><ele>374.0</ele><time>2026-04-09T12:51:55Z</time></trkpt><trkpt lat="44.704125938670586" lon="8.346715238535523"><ele>374.0</ele><time>2026-04-09T12:51:56Z</time></trkpt><trkpt lat="44.704224495409285" lon="8.346788814514676"><ele>374.0</ele><time>2026-04-09T12:51:57Z</time></trkpt><trkpt lat="44.704329622910976" lon="8.346842811699116"><ele>374.0</ele><time>2026-04-09T12:51:58Z</time></trkpt><trkpt lat="44.70443570379967" lon="8.3468702270623"><ele>374.0</ele><time>2026-04-09T12:51:59Z</time></trkpt><trkpt lat="44.704536289189775" lon="8.346866625115377"><ele>374.6</ele><time>2026-04-09T12:52:00Z</time></trkpt><trkpt lat="44.70463817231319" lon="8.346843252091732"><ele>375.2</ele><time>2026-04-09T12:52:01Z</time></trkpt><trkpt lat="44.704738843367466" lon="8.346790406319018"><ele>375.8</ele><time>2026-04-09T12:52:02Z</time></trkpt><trkpt lat="44.70484502286272" lon="8.346729881090292"><ele>376.40000000000003</ele><time>2026-04-09T12:52:03Z</time></trkpt><trkpt lat="44.704939299700285" lon="8.346623121901793"><ele>377.0</ele><time>2026-04-09T12:52:04Z</time></trkpt><trkpt lat="44.70501501165889" lon="8.3464853259638"><ele>376.75</ele><time>2026-04-09T12:52:05Z</time></trkpt><trkpt lat="44.705101738813646" lon="8.346365482048965"><ele>376.5</ele><time>2026-04-09T12:52:06Z</time></trkpt><trkpt lat="44.705190430019954" lon="8.346248515324175"><ele>376.25</ele><time>2026-04-09T12:52:07Z</time></trkpt><trkpt lat="44.70528442585791" lon="8.346138867858555"><ele>376.0</ele><time>2026-04-09T12:52:08Z</time></trkpt><trkpt lat="44.70537761205772" lon="8.34603645904738"><ele>376.0</ele><time>2026-04-09T12:52:09Z</time></trkpt><trkpt lat="44.70546644187553" lon="8.345935240806469"><ele>376.0</ele><time>2026-04-09T12:52:10Z</time></trkpt><trkpt lat="44.705550487126835" lon="8.345836432357821"><ele>376.0</ele><time>2026-04-09T12:52:11Z</time></trkpt><trkpt lat="44.70562964574822" lon="8.345735155621503"><ele>376.0</ele><time>2026-04-09T12:52:12Z</time></trkpt><trkpt lat="44.70570122353099" lon="8.345625174004168"><ele>376.0</ele><time>2026-04-09T12:52:13Z</time></trkpt><trkpt lat="44.70579504574475" lon="8.34553961928739"><ele>371.4</ele><time>2026-04-09T12:52:14Z</time></trkpt><trkpt lat="44.70585652991573" lon="8.345408049097058"><ele>366.8</ele><time>2026-04-09T12:52:15Z</time></trkpt><trkpt lat="44.705905774980806" lon="8.345274786054741"><ele>362.2</ele><time>2026-04-09T12:52:16Z</time></trkpt><trkpt lat="44.705944078053875" lon="8.345143136559777"><ele>357.59999999999997</ele><time>2026-04-09T12:52:17Z</time></trkpt><trkpt lat="44.70596917130307" lon="8.345022723530914"><ele>353.0</ele><time>2026-04-09T12:52:18Z</time></trkpt><trkpt lat="44.705966969276076" lon="8.34492246024745"><ele>353.0</ele><time>2026-04-09T12:52:19Z</time></trkpt><trkpt lat="44.70595266134515" lon="8.34482514218058"><ele>353.0</ele><time>2026-04-09T12:52:20Z</time></trkpt><trkpt lat="44.705907764704705" lon="8.344747597935967"><ele>353.0</ele><time>2026-04-09T12:52:21Z</time></trkpt><trkpt lat="44.705835235195934" lon="8.344715714477276"><ele>353.0</ele><time>2026-04-09T12:52:22Z</time></trkpt><trkpt lat="44.705747964989264" lon="8.344751570747944"><ele>353.0</ele><time>2026-04-09T12:52:23Z</time></trkpt><trkpt lat="44.70565858472014" lon="8.344819502265139"><ele>353.0</ele><time>2026-04-09T12:52:24Z</time></trkpt><trkpt lat="44.70556746115679" lon="8.344907080974137"><ele>353.0</ele><time>2026-04-09T12:52:25Z</time></trkpt><trkpt lat="44.705474866004565" lon="8.345004862083542"><ele>353.0</ele><time>2026-04-09T12:52:26Z</time></trkpt><trkpt lat="44.705381418656856" lon="8.345089055145214"><ele>353.0</ele><time>2026-04-09T12:52:27Z</time></trkpt><trkpt lat="44.70528611120477" lon="8.345156096622656"><ele>353.0</ele><time>2026-04-09T12:52:28Z</time></trkpt><trkpt lat="44.70519310849721" lon="8.34521323278092"><ele>353.0</ele><time>2026-04-09T12:52:29Z</time></trkpt><trkpt lat="44.705104307301426" lon="8.345271555578417"><ele>350.0</ele><time>2026-04-09T12:52:30Z</time></trkpt><trkpt lat="44.70503471554562" lon="8.345337145212756"><ele>347.0</ele><time>2026-04-09T12:52:31Z</time></trkpt><trkpt lat="44.70496766881746" lon="8.3453642969649"><ele>344.0</ele><time>2026-04-09T12:52:32Z</time></trkpt><trkpt lat="44.70486607512089" lon="8.345371641141638"><ele>341.0</ele><time>2026-04-09T12:52:34Z</time></trkpt><trkpt lat="44.70482422899877" lon="8.34529761408855"><ele>338.0</ele><time>2026-04-09T12:52:35Z</time></trkpt><trkpt lat="44.70481562588778" lon="8.345188500712426"><ele>335.0</ele><time>2026-04-09T12:52:36Z</time></trkpt><trkpt lat="44.704872210613374" lon="8.345083741116"><ele>335.0</ele><time>2026-04-09T12:52:37Z</time></trkpt><trkpt lat="44.7049338640304" lon="8.344968702883051"><ele>335.0</ele><time>2026-04-09T12:52:38.001Z</time></trkpt><trkpt lat="44.70500580246079" lon="8.34483763019983"><ele>335.0</ele><time>2026-04-09T12:52:39.001Z</time></trkpt><trkpt lat="44.70508106219553" lon="8.344701356151269"><ele>335.0</ele><time>2026-04-09T12:52:40.001Z</time></trkpt><trkpt lat="44.70513660776802" lon="8.344556207191241"><ele>336.25</ele><time>2026-04-09T12:52:41.001Z</time></trkpt><trkpt lat="44.70520938114183" lon="8.344426642806969"><ele>337.5</ele><time>2026-04-09T12:52:42.001Z</time></trkpt><trkpt lat="44.705288645954354" lon="8.344292697976293"><ele>338.75</ele><time>2026-04-09T12:52:43.001Z</time></trkpt><trkpt lat="44.70537372138601" lon="8.344156457207392"><ele>340.0</ele><time>2026-04-09T12:52:44.001Z</time></trkpt><trkpt lat="44.70546558135929" lon="8.344025514351882"><ele>340.0</ele><time>2026-04-09T12:52:45.001Z</time></trkpt><trkpt lat="44.70555266369992" lon="8.343889777766016"><ele>340.0</ele><time>2026-04-09T12:52:46.001Z</time></trkpt><trkpt lat="44.70563726845037" lon="8.343754056175765"><ele>340.0</ele><time>2026-04-09T12:52:47.001Z</time></trkpt><trkpt lat="44.70569044928764" lon="8.343583354199296"><ele>340.0</ele><time>2026-04-09T12:52:48.001Z</time></trkpt><trkpt lat="44.70569885617475" lon="8.343379936909429"><ele>337.5</ele><time>2026-04-09T12:52:49.001Z</time></trkpt><trkpt lat="44.70570883449944" lon="8.343174271839741"><ele>335.0</ele><time>2026-04-09T12:52:50.001Z</time></trkpt><trkpt lat="44.705714467423185" lon="8.342961423866964"><ele>332.5</ele><time>2026-04-09T12:52:51.001Z</time></trkpt><trkpt lat="44.705720262710194" lon="8.34275538826901"><ele>330.0</ele><time>2026-04-09T12:52:52.001Z</time></trkpt><trkpt lat="44.705726114872455" lon="8.342563375552208"><ele>328.2</ele><time>2026-04-09T12:52:53.001Z</time></trkpt><trkpt lat="44.70573070523281" lon="8.342381354709353"><ele>326.4</ele><time>2026-04-09T12:52:54.001Z</time></trkpt><trkpt lat="44.70574059189257" lon="8.342215919969618"><ele>324.6</ele><time>2026-04-09T12:52:55.001Z</time></trkpt><trkpt lat="44.705775620372414" lon="8.342081249649475"><ele>322.8</ele><time>2026-04-09T12:52:56.001Z</time></trkpt><trkpt lat="44.70581196941139" lon="8.3419609668812"><ele>321.0</ele><time>2026-04-09T12:52:57.001Z</time></trkpt><trkpt lat="44.70586396144316" lon="8.34184311735939"><ele>319.40000000000003</ele><time>2026-04-09T12:52:58.001Z</time></trkpt><trkpt lat="44.70592919473046" lon="8.341724218833109"><ele>317.8</ele><time>2026-04-09T12:52:59.001Z</time></trkpt><trkpt lat="44.70600232332457" lon="8.34161524380948"><ele>316.20000000000005</ele><time>2026-04-09T12:53:00.001Z</time></trkpt><trkpt lat="44.70607506118974" lon="8.341502262356558"><ele>314.6</ele><time>2026-04-09T12:53:01.001Z</time></trkpt><trkpt lat="44.70617574108675" lon="8.341428039597842"><ele>313.0</ele><time>2026-04-09T12:53:02.001Z</time></trkpt><trkpt lat="44.70628381422115" lon="8.341367996788646"><ele>307.5</ele><time>2026-04-09T12:53:03.001Z</time></trkpt><trkpt lat="44.70639999107139" lon="8.341322486934052"><ele>302.0</ele><time>2026-04-09T12:53:04.001Z</time></trkpt><trkpt lat="44.706523713273086" lon="8.341281445311546"><ele>296.5</ele><time>2026-04-09T12:53:05.001Z</time></trkpt><trkpt lat="44.70665450565281" lon="8.341239635744483"><ele>291.0</ele><time>2026-04-09T12:53:06.001Z</time></trkpt><trkpt lat="44.706786573942864" lon="8.341192743548756"><ele>293.75</ele><time>2026-04-09T12:53:07.001Z</time></trkpt><trkpt lat="44.70692080794048" lon="8.341162990694446"><ele>296.5</ele><time>2026-04-09T12:53:08.001Z</time></trkpt><trkpt lat="44.70705035222997" lon="8.341096530353363"><ele>299.25</ele><time>2026-04-09T12:53:09.001Z</time></trkpt><trkpt lat="44.707167701751445" lon="8.340986431360141"><ele>302.0</ele><time>2026-04-09T12:53:10.001Z</time></trkpt><trkpt lat="44.70727042751949" lon="8.340867330339563"><ele>302.0</ele><time>2026-04-09T12:53:11.001Z</time></trkpt><trkpt lat="44.70736545290212" lon="8.340750223888364"><ele>302.0</ele><time>2026-04-09T12:53:12.001Z</time></trkpt><trkpt lat="44.70745663647934" lon="8.34063376376283"><ele>302.0</ele><time>2026-04-09T12:53:13.001Z</time></trkpt><trkpt lat="44.7075482433381" lon="8.34051676269242"><ele>302.0</ele><time>2026-04-09T12:53:14.001Z</time></trkpt><trkpt lat="44.7076454444941" lon="8.340392616667183"><ele>301.0</ele><time>2026-04-09T12:53:15Z</time></trkpt><trkpt lat="44.70774567411888" lon="8.340260599731337"><ele>300.0</ele><time>2026-04-09T12:53:16Z</time></trkpt><trkpt lat="44.70784655211884" lon="8.34011585364863"><ele>299.0</ele><time>2026-04-09T12:53:17Z</time></trkpt><trkpt lat="44.70793748345196" lon="8.339966671993286"><ele>298.0</ele><time>2026-04-09T12:53:18Z</time></trkpt><trkpt lat="44.70800824757299" lon="8.339805497685607"><ele>291.5</ele><time>2026-04-09T12:53:19Z</time></trkpt><trkpt lat="44.70808782894831" lon="8.33966789777518"><ele>285.0</ele><time>2026-04-09T12:53:20Z</time></trkpt><trkpt lat="44.7081747513718" lon="8.339546552421112"><ele>278.5</ele><time>2026-04-09T12:53:21Z</time></trkpt><trkpt lat="44.70827335648603" lon="8.339432621775899"><ele>272.0</ele><time>2026-04-09T12:53:22Z</time></trkpt><trkpt lat="44.70838120671587" lon="8.339311562458661"><ele>272.0</ele><time>2026-04-09T12:53:23Z</time></trkpt><trkpt lat="44.70849340418234" lon="8.339182472724037"><ele>272.0</ele><time>2026-04-09T12:53:24Z</time></trkpt><trkpt lat="44.708601009538825" lon="8.339043120187227"><ele>272.0</ele><time>2026-04-09T12:53:25Z</time></trkpt><trkpt lat="44.70872698242588" lon="8.338890587931738"><ele>270.5</ele><time>2026-04-09T12:53:26Z</time></trkpt><trkpt lat="44.70883110018093" lon="8.338737657366247"><ele>269.0</ele><time>2026-04-09T12:53:27Z</time></trkpt><trkpt lat="44.70892976989677" lon="8.338599623392833"><ele>267.5</ele><time>2026-04-09T12:53:28Z</time></trkpt><trkpt lat="44.70903778875779" lon="8.338488893497429"><ele>266.0</ele><time>2026-04-09T12:53:29Z</time></trkpt><trkpt lat="44.709125735562196" lon="8.33835386538278"><ele>266.0</ele><time>2026-04-09T12:53:30Z</time></trkpt><trkpt lat="44.70922232185357" lon="8.33824081052552"><ele>266.0</ele><time>2026-04-09T12:53:31Z</time></trkpt><trkpt lat="44.709326660572295" lon="8.338155686630396"><ele>266.0</ele><time>2026-04-09T12:53:32Z</time></trkpt><trkpt lat="44.709431178643825" lon="8.338069009546166"><ele>266.0</ele><time>2026-04-09T12:53:33Z</time></trkpt><trkpt lat="44.70954192380903" lon="8.337966411763725"><ele>262.75</ele><time>2026-04-09T12:53:34Z</time></trkpt><trkpt lat="44.709664942992696" lon="8.337897981700062"><ele>259.5</ele><time>2026-04-09T12:53:35Z</time></trkpt><trkpt lat="44.7097851004643" lon="8.337826099251075"><ele>256.25</ele><time>2026-04-09T12:53:36Z</time></trkpt><trkpt lat="44.70989419653757" lon="8.337745409840878"><ele>253.0</ele><time>2026-04-09T12:53:37Z</time></trkpt><trkpt lat="44.70999253645205" lon="8.337661423435359"><ele>253.0</ele><time>2026-04-09T12:53:38Z</time></trkpt><trkpt lat="44.710074055559744" lon="8.337570567948367"><ele>253.0</ele><time>2026-04-09T12:53:39Z</time></trkpt><trkpt lat="44.71014834246142" lon="8.337476917877153"><ele>253.0</ele><time>2026-04-09T12:53:40Z</time></trkpt><trkpt lat="44.71016025120669" lon="8.337329533135724"><ele>253.0</ele><time>2026-04-09T12:53:41Z</time></trkpt><trkpt lat="44.71019294666923" lon="8.337214240150834"><ele>253.0</ele><time>2026-04-09T12:53:42Z</time></trkpt><trkpt lat="44.71019938667697" lon="8.337095846538913"><ele>252.0</ele><time>2026-04-09T12:53:43Z</time></trkpt><trkpt lat="44.71025167716499" lon="8.336993115080057"><ele>251.0</ele><time>2026-04-09T12:53:44Z</time></trkpt><trkpt lat="44.71032132141101" lon="8.336892188918535"><ele>250.0</ele><time>2026-04-09T12:53:45Z</time></trkpt><trkpt lat="44.71040069131032" lon="8.336800978325831"><ele>249.0</ele><time>2026-04-09T12:53:46Z</time></trkpt><trkpt lat="44.71050096551861" lon="8.3367306610392"><ele>248.0</ele><time>2026-04-09T12:53:47Z</time></trkpt><trkpt lat="44.71061802975919" lon="8.33667791622234"><ele>248.0</ele><time>2026-04-09T12:53:48Z</time></trkpt><trkpt lat="44.71073884900176" lon="8.33663243393279"><ele>248.0</ele><time>2026-04-09T12:53:49Z</time></trkpt><trkpt lat="44.71085837032425" lon="8.336575604175035"><ele>248.0</ele><time>2026-04-09T12:53:50Z</time></trkpt><trkpt lat="44.710966009711434" lon="8.33649135073839"><ele>248.0</ele><time>2026-04-09T12:53:51Z</time></trkpt><trkpt lat="44.71106899214845" lon="8.336371292290982"><ele>246.5</ele><time>2026-04-09T12:53:52Z</time></trkpt><trkpt lat="44.711169991014316" lon="8.336232978181885"><ele>245.0</ele><time>2026-04-09T12:53:53Z</time></trkpt><trkpt lat="44.71127916883677" lon="8.336090589544776"><ele>243.5</ele><time>2026-04-09T12:53:54Z</time></trkpt><trkpt lat="44.711399205789235" lon="8.335943294214678"><ele>242.0</ele><time>2026-04-09T12:53:55Z</time></trkpt><trkpt lat="44.711523930604" lon="8.33579221571924"><ele>242.0</ele><time>2026-04-09T12:53:56Z</time></trkpt><trkpt lat="44.711644423680504" lon="8.335636941488126"><ele>242.0</ele><time>2026-04-09T12:53:57Z</time></trkpt><trkpt lat="44.71175733537741" lon="8.33548833949816"><ele>242.0</ele><time>2026-04-09T12:53:58Z</time></trkpt><trkpt lat="44.711862385292896" lon="8.335342737311906"><ele>238.5</ele><time>2026-04-09T12:53:59Z</time></trkpt><trkpt lat="44.711963897806406" lon="8.33520755337419"><ele>235.0</ele><time>2026-04-09T12:54:00Z</time></trkpt><trkpt lat="44.71206363619876" lon="8.335095724654169"><ele>231.5</ele><time>2026-04-09T12:54:01Z</time></trkpt><trkpt lat="44.712164343320126" lon="8.335014502347592"><ele>228.0</ele><time>2026-04-09T12:54:02Z</time></trkpt><trkpt lat="44.71227409122494" lon="8.334958315306386"><ele>228.0</ele><time>2026-04-09T12:54:03Z</time></trkpt><trkpt lat="44.712398881786534" lon="8.334929262456619"><ele>228.0</ele><time>2026-04-09T12:54:04Z</time></trkpt><trkpt lat="44.712529720278205" lon="8.334907518154864"><ele>228.0</ele><time>2026-04-09T12:54:05Z</time></trkpt><trkpt lat="44.71266529063337" lon="8.334868663722164"><ele>228.0</ele><time>2026-04-09T12:54:06Z</time></trkpt><trkpt lat="44.71280151426433" lon="8.334797484238356"><ele>223.66666666666669</ele><time>2026-04-09T12:54:07Z</time></trkpt><trkpt lat="44.71293645017438" lon="8.334699725159041"><ele>219.33333333333334</ele><time>2026-04-09T12:54:08Z</time></trkpt><trkpt lat="44.713067410428735" lon="8.334577067276374"><ele>215.0</ele><time>2026-04-09T12:54:09Z</time></trkpt><trkpt lat="44.71319391576772" lon="8.334459313796245"><ele>215.0</ele><time>2026-04-09T12:54:10Z</time></trkpt><trkpt lat="44.71330733560125" lon="8.334331724843862"><ele>215.0</ele><time>2026-04-09T12:54:11Z</time></trkpt><trkpt lat="44.713418150504666" lon="8.334214416748656"><ele>215.0</ele><time>2026-04-09T12:54:12Z</time></trkpt><trkpt lat="44.71351449076284" lon="8.334092801505314"><ele>215.0</ele><time>2026-04-09T12:54:13Z</time></trkpt><trkpt lat="44.713621167502005" lon="8.334005221356865"><ele>217.5</ele><time>2026-04-09T12:54:14Z</time></trkpt><trkpt lat="44.71373115539936" lon="8.333930309619877"><ele>220.0</ele><time>2026-04-09T12:54:15Z</time></trkpt><trkpt lat="44.713854338009234" lon="8.33386341438645"><ele>222.5</ele><time>2026-04-09T12:54:16Z</time></trkpt><trkpt lat="44.71398834580622" lon="8.333802267224483"><ele>225.0</ele><time>2026-04-09T12:54:17Z</time></trkpt><trkpt lat="44.71413067242029" lon="8.333737001478111"><ele>218.0</ele><time>2026-04-09T12:54:18Z</time></trkpt><trkpt lat="44.714283030273734" lon="8.333664203758904"><ele>211.0</ele><time>2026-04-09T12:54:19Z</time></trkpt><trkpt lat="44.714444812914145" lon="8.333590720558757"><ele>204.0</ele><time>2026-04-09T12:54:20Z</time></trkpt><trkpt lat="44.714615400110084" lon="8.333510814290324"><ele>204.0</ele><time>2026-04-09T12:54:21Z</time></trkpt><trkpt lat="44.71478795279348" lon="8.33342880335331"><ele>204.0</ele><time>2026-04-09T12:54:22Z</time></trkpt><trkpt lat="44.71495860076278" lon="8.333350446761084"><ele>204.0</ele><time>2026-04-09T12:54:23Z</time></trkpt><trkpt lat="44.71512043919408" lon="8.333276360177752"><ele>207.0</ele><time>2026-04-09T12:54:24Z</time></trkpt><trkpt lat="44.71527704461729" lon="8.333207281205398"><ele>210.0</ele><time>2026-04-09T12:54:25Z</time></trkpt><trkpt lat="44.71542632782987" lon="8.333138383915646"><ele>213.0</ele><time>2026-04-09T12:54:26Z</time></trkpt><trkpt lat="44.71557532702432" lon="8.33307373369975"><ele>204.33333333333334</ele><time>2026-04-09T12:54:27Z</time></trkpt><trkpt lat="44.715723517873485" lon="8.333009396183487"><ele>195.66666666666669</ele><time>2026-04-09T12:54:28Z</time></trkpt><trkpt lat="44.715872556875595" lon="8.332946509387055"><ele>187.0</ele><time>2026-04-09T12:54:29Z</time></trkpt><trkpt lat="44.716021275129194" lon="8.33288261176993"><ele>187.0</ele><time>2026-04-09T12:54:30Z</time></trkpt><trkpt lat="44.71617547855356" lon="8.332821229343596"><ele>187.0</ele><time>2026-04-09T12:54:31Z</time></trkpt><trkpt lat="44.716339864041686" lon="8.332767116094368"><ele>187.0</ele><time>2026-04-09T12:54:32Z</time></trkpt><trkpt lat="44.71651267571686" lon="8.332720468276786"><ele>187.0</ele><time>2026-04-09T12:54:33Z</time></trkpt><trkpt lat="44.71669137356454" lon="8.33267498709078"><ele>187.0</ele><time>2026-04-09T12:54:34Z</time></trkpt><trkpt lat="44.71687465307034" lon="8.332626896454435"><ele>187.0</ele><time>2026-04-09T12:54:35Z</time></trkpt><trkpt lat="44.71705798521534" lon="8.332572577081784"><ele>186.33333333333334</ele><time>2026-04-09T12:54:36Z</time></trkpt><trkpt lat="44.71723712362587" lon="8.33252114147822"><ele>185.66666666666666</ele><time>2026-04-09T12:54:37Z</time></trkpt><trkpt lat="44.71741153288803" lon="8.332470603666073"><ele>185.0</ele><time>2026-04-09T12:54:38Z</time></trkpt><trkpt lat="44.71757849084027" lon="8.332419229305552"><ele>181.66666666666666</ele><time>2026-04-09T12:54:39Z</time></trkpt><trkpt lat="44.71774561766958" lon="8.332371624402153"><ele>178.33333333333334</ele><time>2026-04-09T12:54:40Z</time></trkpt><trkpt lat="44.717906551407424" lon="8.33231805748136"><ele>175.0</ele><time>2026-04-09T12:54:41Z</time></trkpt><trkpt lat="44.7180560847065" lon="8.33228817878484"><ele>174.25</ele><time>2026-04-09T12:54:42.001Z</time></trkpt><trkpt lat="44.71818637611469" lon="8.332217754424589"><ele>173.5</ele><time>2026-04-09T12:54:43.001Z</time></trkpt><trkpt lat="44.7182958164628" lon="8.332118204842452"><ele>172.75</ele><time>2026-04-09T12:54:44.001Z</time></trkpt><trkpt lat="44.7184025832225" lon="8.332038336609148"><ele>172.0</ele><time>2026-04-09T12:54:45.001Z</time></trkpt><trkpt lat="44.71849008442806" lon="8.331964436292632"><ele>173.2</ele><time>2026-04-09T12:54:46.001Z</time></trkpt><trkpt lat="44.71857219448732" lon="8.33188567002422"><ele>174.39999999999998</ele><time>2026-04-09T12:54:47.001Z</time></trkpt><trkpt lat="44.71866007600771" lon="8.331806235991003"><ele>175.60000000000002</ele><time>2026-04-09T12:54:48.001Z</time></trkpt><trkpt lat="44.71874724246649" lon="8.331702874328693"><ele>176.8</ele><time>2026-04-09T12:54:49.001Z</time></trkpt><trkpt lat="44.71882658923303" lon="8.331578576714698"><ele>178.0</ele><time>2026-04-09T12:54:50.001Z</time></trkpt><trkpt lat="44.71889926854462" lon="8.33143898337111"><ele>176.0</ele><time>2026-04-09T12:54:51.001Z</time></trkpt><trkpt lat="44.71896846089918" lon="8.331284051410538"><ele>174.0</ele><time>2026-04-09T12:54:52.001Z</time></trkpt><trkpt lat="44.71904022046086" lon="8.331127526647522"><ele>172.0</ele><time>2026-04-09T12:54:53.001Z</time></trkpt><trkpt lat="44.71911086685324" lon="8.330974778592687"><ele>170.0</ele><time>2026-04-09T12:54:54.001Z</time></trkpt><trkpt lat="44.71918451328724" lon="8.330824473031296"><ele>170.0</ele><time>2026-04-09T12:54:55.001Z</time></trkpt><trkpt lat="44.71926202864964" lon="8.330685056790442"><ele>170.0</ele><time>2026-04-09T12:54:56.001Z</time></trkpt><trkpt lat="44.71934352070853" lon="8.330551855243227"><ele>170.0</ele><time>2026-04-09T12:54:57.001Z</time></trkpt><trkpt lat="44.71942356633366" lon="8.330423485266188"><ele>170.0</ele><time>2026-04-09T12:54:58.001Z</time></trkpt><trkpt lat="44.71950237616343" lon="8.33028969809215"><ele>169.5</ele><time>2026-04-09T12:54:59.001Z</time></trkpt><trkpt lat="44.719583432250204" lon="8.330160460809633"><ele>169.0</ele><time>2026-04-09T12:55:00.001Z</time></trkpt><trkpt lat="44.71966326270415" lon="8.33002685401008"><ele>168.5</ele><time>2026-04-09T12:55:01.001Z</time></trkpt><trkpt lat="44.71973922866625" lon="8.329898930990913"><ele>168.0</ele><time>2026-04-09T12:55:02.001Z</time></trkpt><trkpt lat="44.719809274849105" lon="8.329778642918734"><ele>167.5</ele><time>2026-04-09T12:55:03.001Z</time></trkpt><trkpt lat="44.7198816826336" lon="8.329649769658191"><ele>167.0</ele><time>2026-04-09T12:55:04.001Z</time></trkpt><trkpt lat="44.71995690429961" lon="8.329524795558234"><ele>166.5</ele><time>2026-04-09T12:55:05.001Z</time></trkpt><trkpt lat="44.72004890210922" lon="8.329416551183327"><ele>166.0</ele><time>2026-04-09T12:55:06.001Z</time></trkpt><trkpt lat="44.72012903072887" lon="8.329291282183673"><ele>166.0</ele><time>2026-04-09T12:55:07.001Z</time></trkpt><trkpt lat="44.72020735908182" lon="8.329165671496774"><ele>166.0</ele><time>2026-04-09T12:55:08.001Z</time></trkpt><trkpt lat="44.72028499232125" lon="8.329037269868321"><ele>166.0</ele><time>2026-04-09T12:55:09.001Z</time></trkpt><trkpt lat="44.72036343298646" lon="8.32891172398345"><ele>166.0</ele><time>2026-04-09T12:55:10.001Z</time></trkpt><trkpt lat="44.72044123969022" lon="8.32878099498304"><ele>166.0</ele><time>2026-04-09T12:55:11.001Z</time></trkpt><trkpt lat="44.720515584033016" lon="8.328640347714966"><ele>166.0</ele><time>2026-04-09T12:55:12.001Z</time></trkpt><trkpt lat="44.720586205127546" lon="8.328497516347483"><ele>166.0</ele><time>2026-04-09T12:55:13.001Z</time></trkpt><trkpt lat="44.720658265054226" lon="8.32835159272826"><ele>166.0</ele><time>2026-04-09T12:55:14.001Z</time></trkpt><trkpt lat="44.720731865017534" lon="8.328206308517967"><ele>166.0</ele><time>2026-04-09T12:55:15.001Z</time></trkpt><trkpt lat="44.72080634342908" lon="8.32806752368396"><ele>166.0</ele><time>2026-04-09T12:55:16.001Z</time></trkpt><trkpt lat="44.72088151089794" lon="8.327930122863274"><ele>166.0</ele><time>2026-04-09T12:55:17.001Z</time></trkpt><trkpt lat="44.72095134360038" lon="8.327793216330365"><ele>166.0</ele><time>2026-04-09T12:55:18.001Z</time></trkpt><trkpt lat="44.721015033218144" lon="8.327651824411172"><ele>166.75</ele><time>2026-04-09T12:55:19.001Z</time></trkpt><trkpt lat="44.72107745226064" lon="8.327517027327666"><ele>167.5</ele><time>2026-04-09T12:55:20.001Z</time></trkpt><trkpt lat="44.72114908368973" lon="8.327385031047513"><ele>168.25</ele><time>2026-04-09T12:55:21Z</time></trkpt><trkpt lat="44.721224144566236" lon="8.327254942007045"><ele>169.0</ele><time>2026-04-09T12:55:22Z</time></trkpt><trkpt lat="44.72129892328502" lon="8.32713382438729"><ele>167.0</ele><time>2026-04-09T12:55:23Z</time></trkpt><trkpt lat="44.72138134085631" lon="8.327023250847157"><ele>165.0</ele><time>2026-04-09T12:55:24Z</time></trkpt><trkpt lat="44.721469959349015" lon="8.32691735631537"><ele>163.0</ele><time>2026-04-09T12:55:25Z</time></trkpt><trkpt lat="44.72155808514856" lon="8.326815380350581"><ele>161.0</ele><time>2026-04-09T12:55:26Z</time></trkpt><trkpt lat="44.72164890984611" lon="8.326704819078719"><ele>161.0</ele><time>2026-04-09T12:55:27Z</time></trkpt><trkpt lat="44.72173614282483" lon="8.326597888353863"><ele>161.0</ele><time>2026-04-09T12:55:28Z</time></trkpt><trkpt lat="44.72182453931787" lon="8.326497365615353"><ele>161.0</ele><time>2026-04-09T12:55:29Z</time></trkpt><trkpt lat="44.721909428296804" lon="8.326403112997173"><ele>161.0</ele><time>2026-04-09T12:55:30Z</time></trkpt><trkpt lat="44.72199807268397" lon="8.326299248576124"><ele>160.60000000000002</ele><time>2026-04-09T12:55:31Z</time></trkpt><trkpt lat="44.72208563033246" lon="8.326204426838446"><ele>160.20000000000002</ele><time>2026-04-09T12:55:32Z</time></trkpt><trkpt lat="44.72217178582312" lon="8.326108747453821"><ele>159.8</ele><time>2026-04-09T12:55:33Z</time></trkpt><trkpt lat="44.72225688153305" lon="8.326014974844325"><ele>159.4</ele><time>2026-04-09T12:55:34Z</time></trkpt><trkpt lat="44.722343063814606" lon="8.325917175275519"><ele>159.0</ele><time>2026-04-09T12:55:35Z</time></trkpt><trkpt lat="44.72243066676473" lon="8.32582204668072"><ele>159.0</ele><time>2026-04-09T12:55:36Z</time></trkpt><trkpt lat="44.72251691666375" lon="8.325723806087849"><ele>159.0</ele><time>2026-04-09T12:55:37Z</time></trkpt><trkpt lat="44.722606629753024" lon="8.325631482542974"><ele>159.0</ele><time>2026-04-09T12:55:38Z</time></trkpt><trkpt lat="44.72269951478987" lon="8.325529831370721"><ele>159.0</ele><time>2026-04-09T12:55:39Z</time></trkpt><trkpt lat="44.72279430610876" lon="8.32542412392101"><ele>158.5</ele><time>2026-04-09T12:55:40Z</time></trkpt><trkpt lat="44.722892826169875" lon="8.325317760928211"><ele>158.0</ele><time>2026-04-09T12:55:41Z</time></trkpt><trkpt lat="44.722998453354414" lon="8.325219402781967"><ele>157.5</ele><time>2026-04-09T12:55:42Z</time></trkpt><trkpt lat="44.72310742662792" lon="8.325124665187063"><ele>157.0</ele><time>2026-04-09T12:55:43Z</time></trkpt><trkpt lat="44.72321485046603" lon="8.32502386592039"><ele>157.0</ele><time>2026-04-09T12:55:44Z</time></trkpt><trkpt lat="44.723326896724224" lon="8.32493797437003"><ele>157.0</ele><time>2026-04-09T12:55:45Z</time></trkpt><trkpt lat="44.72343693540179" lon="8.32485857612772"><ele>157.0</ele><time>2026-04-09T12:55:46Z</time></trkpt><trkpt lat="44.7235443002511" lon="8.324779411208045"><ele>157.0</ele><time>2026-04-09T12:55:47Z</time></trkpt><trkpt lat="44.72365039397103" lon="8.324696898507112"><ele>156.75</ele><time>2026-04-09T12:55:48Z</time></trkpt><trkpt lat="44.72375721144167" lon="8.324618447909222"><ele>156.5</ele><time>2026-04-09T12:55:49Z</time></trkpt><trkpt lat="44.723865810276976" lon="8.324543363620243"><ele>156.25</ele><time>2026-04-09T12:55:50Z</time></trkpt><trkpt lat="44.723972386477016" lon="8.324470441158155"><ele>156.0</ele><time>2026-04-09T12:55:51Z</time></trkpt><trkpt lat="44.72407679441199" lon="8.324395079574128"><ele>156.0</ele><time>2026-04-09T12:55:52Z</time></trkpt><trkpt lat="44.72418037858158" lon="8.324321854427232"><ele>156.0</ele><time>2026-04-09T12:55:53Z</time></trkpt><trkpt lat="44.72427558413678" lon="8.32424916066465"><ele>156.0</ele><time>2026-04-09T12:55:54Z</time></trkpt><trkpt lat="44.72437114219767" lon="8.324193034378755"><ele>156.0</ele><time>2026-04-09T12:55:55Z</time></trkpt><trkpt lat="44.72446776830186" lon="8.324134386607978"><ele>156.0</ele><time>2026-04-09T12:55:56Z</time></trkpt><trkpt lat="44.724568121144166" lon="8.324070713994713"><ele>156.0</ele><time>2026-04-09T12:55:57Z</time></trkpt><trkpt lat="44.7246676312463" lon="8.324007790980327"><ele>156.0</ele><time>2026-04-09T12:55:58Z</time></trkpt><trkpt lat="44.72477043334872" lon="8.323941019460742"><ele>156.0</ele><time>2026-04-09T12:55:59Z</time></trkpt><trkpt lat="44.72486636983808" lon="8.323869405825397"><ele>156.0</ele><time>2026-04-09T12:56:00Z</time></trkpt><trkpt lat="44.72496770316164" lon="8.323809325881829"><ele>156.0</ele><time>2026-04-09T12:56:01Z</time></trkpt><trkpt lat="44.72506545089676" lon="8.323745667901335"><ele>155.8</ele><time>2026-04-09T12:56:02Z</time></trkpt><trkpt lat="44.72516193968035" lon="8.323680722980972"><ele>155.6</ele><time>2026-04-09T12:56:03Z</time></trkpt><trkpt lat="44.72525918762853" lon="8.323615162324856"><ele>155.4</ele><time>2026-04-09T12:56:04Z</time></trkpt><trkpt lat="44.725354144648676" lon="8.323547192231757"><ele>155.2</ele><time>2026-04-09T12:56:05Z</time></trkpt><trkpt lat="44.725449703783696" lon="8.323477760657223"><ele>155.0</ele><time>2026-04-09T12:56:06Z</time></trkpt><trkpt lat="44.72554664166847" lon="8.323414459958489"><ele>155.5</ele><time>2026-04-09T12:56:07Z</time></trkpt><trkpt lat="44.72565070958235" lon="8.323346403488172"><ele>156.0</ele><time>2026-04-09T12:56:08Z</time></trkpt><trkpt lat="44.725754035536" lon="8.323276704217086"><ele>156.5</ele><time>2026-04-09T12:56:09Z</time></trkpt><trkpt lat="44.72586040039831" lon="8.323209494341215"><ele>157.0</ele><time>2026-04-09T12:56:10Z</time></trkpt><trkpt lat="44.72596401415489" lon="8.323142999420472"><ele>157.0</ele><time>2026-04-09T12:56:11Z</time></trkpt><trkpt lat="44.72606639462544" lon="8.32307677340844"><ele>157.0</ele><time>2026-04-09T12:56:12Z</time></trkpt><trkpt lat="44.72616711081486" lon="8.323006524654687"><ele>157.0</ele><time>2026-04-09T12:56:13Z</time></trkpt><trkpt lat="44.726270128029626" lon="8.322938700759932"><ele>157.0</ele><time>2026-04-09T12:56:14Z</time></trkpt><trkpt lat="44.726371667411215" lon="8.322871450790716"><ele>156.6</ele><time>2026-04-09T12:56:15Z</time></trkpt><trkpt lat="44.726471316221584" lon="8.322808801519125"><ele>156.2</ele><time>2026-04-09T12:56:16Z</time></trkpt><trkpt lat="44.7265695509563" lon="8.322745571346257"><ele>155.8</ele><time>2026-04-09T12:56:17Z</time></trkpt><trkpt lat="44.72667108423102" lon="8.32268085745953"><ele>155.4</ele><time>2026-04-09T12:56:18Z</time></trkpt><trkpt lat="44.72677222815434" lon="8.322611557912257"><ele>155.0</ele><time>2026-04-09T12:56:19Z</time></trkpt><trkpt lat="44.726877926764686" lon="8.322537432899791"><ele>155.25</ele><time>2026-04-09T12:56:20Z</time></trkpt><trkpt lat="44.72698756816291" lon="8.322455906340057"><ele>155.5</ele><time>2026-04-09T12:56:21Z</time></trkpt><trkpt lat="44.72709787058335" lon="8.322381540864368"><ele>155.75</ele><time>2026-04-09T12:56:22Z</time></trkpt><trkpt lat="44.727209781421614" lon="8.322306202161773"><ele>156.0</ele><time>2026-04-09T12:56:23Z</time></trkpt><trkpt lat="44.72732145547412" lon="8.322230068232871"><ele>155.5</ele><time>2026-04-09T12:56:24Z</time></trkpt><trkpt lat="44.72743334195714" lon="8.32215514157931"><ele>155.0</ele><time>2026-04-09T12:56:25Z</time></trkpt><trkpt lat="44.727543825409" lon="8.32208178879064"><ele>154.5</ele><time>2026-04-09T12:56:26Z</time></trkpt><trkpt lat="44.72765478420042" lon="8.322012047026035"><ele>154.0</ele><time>2026-04-09T12:56:27Z</time></trkpt><trkpt lat="44.727764589769244" lon="8.321943532360129"><ele>154.0</ele><time>2026-04-09T12:56:28Z</time></trkpt><trkpt lat="44.7278732320248" lon="8.321870295953161"><ele>154.0</ele><time>2026-04-09T12:56:29Z</time></trkpt><trkpt lat="44.72797887069325" lon="8.321800824050971"><ele>154.0</ele><time>2026-04-09T12:56:30Z</time></trkpt><trkpt lat="44.72808259579491" lon="8.321733856408269"><ele>154.0</ele><time>2026-04-09T12:56:31Z</time></trkpt><trkpt lat="44.72817771832137" lon="8.321670451511315"><ele>154.0</ele><time>2026-04-09T12:56:32Z</time></trkpt><trkpt lat="44.72826363609601" lon="8.321609028773864"><ele>154.0</ele><time>2026-04-09T12:56:33Z</time></trkpt><trkpt lat="44.728342463424354" lon="8.321552959117037"><ele>154.0</ele><time>2026-04-09T12:56:34Z</time></trkpt><trkpt lat="44.72841086407414" lon="8.321504004650533"><ele>154.0</ele><time>2026-04-09T12:56:35Z</time></trkpt><trkpt lat="44.72851021336414" lon="8.321467906752778"><ele>154.0</ele><time>2026-04-09T12:56:37Z</time></trkpt><trkpt lat="44.72857766236499" lon="8.321476745855765"><ele>154.0</ele><time>2026-04-09T12:56:39Z</time></trkpt><trkpt lat="44.72868129314281" lon="8.32151628159242"><ele>154.0</ele><time>2026-04-09T12:56:41.001Z</time></trkpt><trkpt lat="44.72874805055523" lon="8.321531144015696"><ele>154.0</ele><time>2026-04-09T12:56:42.001Z</time></trkpt><trkpt lat="44.72882286674493" lon="8.321510550521536"><ele>154.0</ele><time>2026-04-09T12:56:43.001Z</time></trkpt><trkpt lat="44.728886064240214" lon="8.32146013240338"><ele>154.0</ele><time>2026-04-09T12:56:44.001Z</time></trkpt><trkpt lat="44.72893734465349" lon="8.321381603183193"><ele>154.0</ele><time>2026-04-09T12:56:45.001Z</time></trkpt><trkpt lat="44.728978544763166" lon="8.321283403473993"><ele>154.0</ele><time>2026-04-09T12:56:46.001Z</time></trkpt><trkpt lat="44.729041610550915" lon="8.321198039386886"><ele>154.0</ele><time>2026-04-09T12:56:47.001Z</time></trkpt><trkpt lat="44.729132672963935" lon="8.321137132170577"><ele>154.0</ele><time>2026-04-09T12:56:48.001Z</time></trkpt><trkpt lat="44.72922834333375" lon="8.321101478143676"><ele>154.0</ele><time>2026-04-09T12:56:49.001Z</time></trkpt><trkpt lat="44.72933237458709" lon="8.321080942446466"><ele>154.0</ele><time>2026-04-09T12:56:50.001Z</time></trkpt><trkpt lat="44.72943811596312" lon="8.321062934379551"><ele>154.0</ele><time>2026-04-09T12:56:51.001Z</time></trkpt><trkpt lat="44.72955237396591" lon="8.321041674613772"><ele>153.75</ele><time>2026-04-09T12:56:52.001Z</time></trkpt><trkpt lat="44.7296732812311" lon="8.321023009787803"><ele>153.5</ele><time>2026-04-09T12:56:53.001Z</time></trkpt><trkpt lat="44.72979961982311" lon="8.32101043346586"><ele>153.25</ele><time>2026-04-09T12:56:54.001Z</time></trkpt><trkpt lat="44.72993135197801" lon="8.32100555577715"><ele>153.0</ele><time>2026-04-09T12:56:55.001Z</time></trkpt><trkpt lat="44.730067856319" lon="8.3210106996196"><ele>153.0</ele><time>2026-04-09T12:56:56.001Z</time></trkpt><trkpt lat="44.730205345973026" lon="8.321031983783717"><ele>153.0</ele><time>2026-04-09T12:56:57.001Z</time></trkpt><trkpt lat="44.730344548496035" lon="8.32105601345418"><ele>153.0</ele><time>2026-04-09T12:56:58.001Z</time></trkpt><trkpt lat="44.73048365775453" lon="8.321078577702915"><ele>153.0</ele><time>2026-04-09T12:56:59.001Z</time></trkpt><trkpt lat="44.730622654142415" lon="8.321101352698255"><ele>152.5</ele><time>2026-04-09T12:57:00.001Z</time></trkpt><trkpt lat="44.73075567430261" lon="8.321124314928989"><ele>152.0</ele><time>2026-04-09T12:57:01.001Z</time></trkpt><trkpt lat="44.73088846432905" lon="8.321145698314732"><ele>151.5</ele><time>2026-04-09T12:57:02.001Z</time></trkpt><trkpt lat="44.73102447126588" lon="8.321168786793857"><ele>151.0</ele><time>2026-04-09T12:57:03.001Z</time></trkpt><trkpt lat="44.73115960434443" lon="8.321195004300677"><ele>150.75</ele><time>2026-04-09T12:57:04.001Z</time></trkpt><trkpt lat="44.731297822907415" lon="8.321222158764387"><ele>150.5</ele><time>2026-04-09T12:57:05.001Z</time></trkpt><trkpt lat="44.7314332631751" lon="8.321250762512534"><ele>150.25</ele><time>2026-04-09T12:57:06.001Z</time></trkpt><trkpt lat="44.73156471585946" lon="8.321285311837824"><ele>150.0</ele><time>2026-04-09T12:57:07.001Z</time></trkpt><trkpt lat="44.7316925103219" lon="8.321327690130268"><ele>150.0</ele><time>2026-04-09T12:57:08.001Z</time></trkpt><trkpt lat="44.731812871328906" lon="8.32138121428378"><ele>150.0</ele><time>2026-04-09T12:57:09.001Z</time></trkpt><trkpt lat="44.731926011528984" lon="8.32144661491419"><ele>150.0</ele><time>2026-04-09T12:57:10.001Z</time></trkpt><trkpt lat="44.73204076193775" lon="8.321527150977643"><ele>150.0</ele><time>2026-04-09T12:57:11.001Z</time></trkpt><trkpt lat="44.73215625298319" lon="8.321619887869229"><ele>149.75</ele><time>2026-04-09T12:57:12.001Z</time></trkpt><trkpt lat="44.73227544991341" lon="8.321722519039913"><ele>149.5</ele><time>2026-04-09T12:57:13.001Z</time></trkpt><trkpt lat="44.73239664724957" lon="8.321830362354042"><ele>149.25</ele><time>2026-04-09T12:57:14.001Z</time></trkpt><trkpt lat="44.732522540640986" lon="8.321947220290454"><ele>149.0</ele><time>2026-04-09T12:57:15.001Z</time></trkpt><trkpt lat="44.73264736176412" lon="8.322059552548835"><ele>148.66666666666666</ele><time>2026-04-09T12:57:16.001Z</time></trkpt><trkpt lat="44.73277244056797" lon="8.322177176484889"><ele>148.33333333333334</ele><time>2026-04-09T12:57:17.001Z</time></trkpt><trkpt lat="44.73289953391098" lon="8.32229321612231"><ele>148.0</ele><time>2026-04-09T12:57:18.001Z</time></trkpt><trkpt lat="44.73302925132657" lon="8.322410030785466"><ele>148.0</ele><time>2026-04-09T12:57:19.001Z</time></trkpt><trkpt lat="44.73315673676246" lon="8.322535163946261"><ele>148.0</ele><time>2026-04-09T12:57:20.001Z</time></trkpt><trkpt lat="44.733281579430574" lon="8.322672297989358"><ele>148.0</ele><time>2026-04-09T12:57:21.001Z</time></trkpt><trkpt lat="44.73340221526114" lon="8.322821280400097"><ele>148.0</ele><time>2026-04-09T12:57:22.001Z</time></trkpt><trkpt lat="44.73351966166554" lon="8.322977212395603"><ele>148.0</ele><time>2026-04-09T12:57:23.001Z</time></trkpt><trkpt lat="44.7336377230073" lon="8.323130451063218"><ele>148.0</ele><time>2026-04-09T12:57:24.001Z</time></trkpt><trkpt lat="44.733756620597475" lon="8.323277209479105"><ele>147.75</ele><time>2026-04-09T12:57:25.001Z</time></trkpt><trkpt lat="44.73387258119986" lon="8.32342059552031"><ele>147.5</ele><time>2026-04-09T12:57:26.001Z</time></trkpt><trkpt lat="44.73398048707341" lon="8.323560509283817"><ele>147.25</ele><time>2026-04-09T12:57:27Z</time></trkpt><trkpt lat="44.73408528582772" lon="8.323695335569482"><ele>147.0</ele><time>2026-04-09T12:57:28Z</time></trkpt><trkpt lat="44.73418318306139" lon="8.323828080205042"><ele>147.25</ele><time>2026-04-09T12:57:29Z</time></trkpt><trkpt lat="44.73426522200271" lon="8.32397295750403"><ele>147.5</ele><time>2026-04-09T12:57:30Z</time></trkpt><trkpt lat="44.7343336472413" lon="8.324136551579267"><ele>147.75</ele><time>2026-04-09T12:57:31Z</time></trkpt><trkpt lat="44.734402689013685" lon="8.324305046136073"><ele>148.0</ele><time>2026-04-09T12:57:32Z</time></trkpt><trkpt lat="44.73447237786549" lon="8.324470837205753"><ele>148.0</ele><time>2026-04-09T12:57:33Z</time></trkpt><trkpt lat="44.73454334215441" lon="8.324643302622565"><ele>148.0</ele><time>2026-04-09T12:57:34Z</time></trkpt><trkpt lat="44.73461159736811" lon="8.324820557695904"><ele>148.0</ele><time>2026-04-09T12:57:35Z</time></trkpt><trkpt lat="44.73467695169624" lon="8.325004165081017"><ele>148.0</ele><time>2026-04-09T12:57:36Z</time></trkpt><trkpt lat="44.734737164433014" lon="8.325193029800662"><ele>148.66666666666669</ele><time>2026-04-09T12:57:37Z</time></trkpt><trkpt lat="44.734799676273084" lon="8.325383829375046"><ele>149.33333333333334</ele><time>2026-04-09T12:57:38Z</time></trkpt><trkpt lat="44.73486428862608" lon="8.325575435326419"><ele>150.0</ele><time>2026-04-09T12:57:39Z</time></trkpt><trkpt lat="44.73492764316149" lon="8.325770841753405"><ele>150.33333333333334</ele><time>2026-04-09T12:57:40Z</time></trkpt><trkpt lat="44.73499176307415" lon="8.325967210370052"><ele>150.66666666666669</ele><time>2026-04-09T12:57:41Z</time></trkpt><trkpt lat="44.73505590690462" lon="8.326164097013407"><ele>151.0</ele><time>2026-04-09T12:57:42Z</time></trkpt><trkpt lat="44.73511991194068" lon="8.32636130803783"><ele>150.66666666666669</ele><time>2026-04-09T12:57:43Z</time></trkpt><trkpt lat="44.735183184311424" lon="8.326558930067305"><ele>150.33333333333334</ele><time>2026-04-09T12:57:44Z</time></trkpt><trkpt lat="44.73524707427493" lon="8.326758198898697"><ele>150.0</ele><time>2026-04-09T12:57:45Z</time></trkpt><trkpt lat="44.735310590400886" lon="8.32696239962485"><ele>150.0</ele><time>2026-04-09T12:57:46Z</time></trkpt><trkpt lat="44.73537347177776" lon="8.327165200643963"><ele>150.0</ele><time>2026-04-09T12:57:47Z</time></trkpt><trkpt lat="44.73544164180127" lon="8.32736432207819"><ele>150.0</ele><time>2026-04-09T12:57:48Z</time></trkpt><trkpt lat="44.73551228209366" lon="8.327570730267942"><ele>150.0</ele><time>2026-04-09T12:57:49Z</time></trkpt><trkpt lat="44.73558297885332" lon="8.32777827617543"><ele>150.0</ele><time>2026-04-09T12:57:50Z</time></trkpt><trkpt lat="44.73565300248243" lon="8.327990704798356"><ele>150.0</ele><time>2026-04-09T12:57:51Z</time></trkpt><trkpt lat="44.735723203017045" lon="8.328201706790955"><ele>150.0</ele><time>2026-04-09T12:57:52Z</time></trkpt><trkpt lat="44.735792234002055" lon="8.328415230513672"><ele>150.0</ele><time>2026-04-09T12:57:53Z</time></trkpt><trkpt lat="44.735859476942984" lon="8.328627343164342"><ele>150.0</ele><time>2026-04-09T12:57:54Z</time></trkpt><trkpt lat="44.73592867146125" lon="8.328837560106528"><ele>150.66666666666666</ele><time>2026-04-09T12:57:55Z</time></trkpt><trkpt lat="44.73599929321102" lon="8.329046181946465"><ele>151.33333333333331</ele><time>2026-04-09T12:57:56Z</time></trkpt><trkpt lat="44.73607114506973" lon="8.32925394990881"><ele>152.0</ele><time>2026-04-09T12:57:57Z</time></trkpt><trkpt lat="44.73613909674299" lon="8.329464410803784"><ele>150.33333333333331</ele><time>2026-04-09T12:57:58Z</time></trkpt><trkpt lat="44.73620307399186" lon="8.329672039323558"><ele>148.66666666666666</ele><time>2026-04-09T12:57:59Z</time></trkpt><trkpt lat="44.736268217339415" lon="8.329870810889535"><ele>147.0</ele><time>2026-04-09T12:58:00Z</time></trkpt><trkpt lat="44.73632776593646" lon="8.330065267264972"><ele>147.0</ele><time>2026-04-09T12:58:01Z</time></trkpt><trkpt lat="44.73638299721459" lon="8.330258345244486"><ele>147.0</ele><time>2026-04-09T12:58:02Z</time></trkpt><trkpt lat="44.73642681459754" lon="8.330453122299273"><ele>147.0</ele><time>2026-04-09T12:58:03Z</time></trkpt><trkpt lat="44.736465568481385" lon="8.33064675348612"><ele>147.0</ele><time>2026-04-09T12:58:04Z</time></trkpt><trkpt lat="44.73648029923845" lon="8.330850486295834"><ele>147.5</ele><time>2026-04-09T12:58:05Z</time></trkpt><trkpt lat="44.73648874599308" lon="8.331054459999761"><ele>148.0</ele><time>2026-04-09T12:58:06Z</time></trkpt><trkpt lat="44.73649604291399" lon="8.331255273356117"><ele>148.5</ele><time>2026-04-09T12:58:07Z</time></trkpt><trkpt lat="44.736502831866055" lon="8.331450613476221"><ele>149.0</ele><time>2026-04-09T12:58:08Z</time></trkpt><trkpt lat="44.73651111553626" lon="8.331639905192104"><ele>149.25</ele><time>2026-04-09T12:58:09Z</time></trkpt><trkpt lat="44.736517798601966" lon="8.331819664548734"><ele>149.5</ele><time>2026-04-09T12:58:10Z</time></trkpt><trkpt lat="44.736524975799455" lon="8.331993131396665"><ele>149.75</ele><time>2026-04-09T12:58:11Z</time></trkpt><trkpt lat="44.736534397870265" lon="8.332157584777594"><ele>150.0</ele><time>2026-04-09T12:58:12Z</time></trkpt><trkpt lat="44.73654064665206" lon="8.332331738431543"><ele>150.25</ele><time>2026-04-09T12:58:13Z</time></trkpt><trkpt lat="44.73654661634607" lon="8.332507953665017"><ele>150.5</ele><time>2026-04-09T12:58:14Z</time></trkpt><trkpt lat="44.73655418958873" lon="8.33268450751612"><ele>150.75</ele><time>2026-04-09T12:58:15Z</time></trkpt><trkpt lat="44.7365635054815" lon="8.332863287957393"><ele>151.0</ele><time>2026-04-09T12:58:16Z</time></trkpt><trkpt lat="44.736572531921794" lon="8.333040872863336"><ele>151.5</ele><time>2026-04-09T12:58:17Z</time></trkpt><trkpt lat="44.736580501921146" lon="8.333216861147719"><ele>152.0</ele><time>2026-04-09T12:58:18Z</time></trkpt><trkpt lat="44.736586616697544" lon="8.333393530742851"><ele>152.5</ele><time>2026-04-09T12:58:19Z</time></trkpt><trkpt lat="44.73659264421402" lon="8.333566118585727"><ele>153.0</ele><time>2026-04-09T12:58:20Z</time></trkpt><trkpt lat="44.73659891115302" lon="8.33372837751933"><ele>153.0</ele><time>2026-04-09T12:58:21Z</time></trkpt><trkpt lat="44.73660607524103" lon="8.333879064236113"><ele>153.0</ele><time>2026-04-09T12:58:22Z</time></trkpt><trkpt lat="44.73661003955334" lon="8.33401757920358"><ele>153.0</ele><time>2026-04-09T12:58:23Z</time></trkpt><trkpt lat="44.73661390310859" lon="8.33414699871241"><ele>153.0</ele><time>2026-04-09T12:58:24Z</time></trkpt><trkpt lat="44.736617035385066" lon="8.334279807965212"><ele>153.0</ele><time>2026-04-09T12:58:25Z</time></trkpt><trkpt lat="44.7366148950464" lon="8.334421556142969"><ele>153.0</ele><time>2026-04-09T12:58:26Z</time></trkpt><trkpt lat="44.736613104827775" lon="8.334558926060387"><ele>153.0</ele><time>2026-04-09T12:58:27Z</time></trkpt><trkpt lat="44.736611984753466" lon="8.334688328407625"><ele>153.0</ele><time>2026-04-09T12:58:28Z</time></trkpt><trkpt lat="44.736614326037035" lon="8.334811888007614"><ele>153.0</ele><time>2026-04-09T12:58:29Z</time></trkpt><trkpt lat="44.73660706075033" lon="8.334901776557329"><ele>153.0</ele><time>2026-04-09T12:58:30Z</time></trkpt><trkpt lat="44.73661758815348" lon="8.335036315259863"><ele>153.0</ele><time>2026-04-09T12:58:32Z</time></trkpt><trkpt lat="44.7366323344256" lon="8.3351392734415"><ele>153.0</ele><time>2026-04-09T12:58:34Z</time></trkpt><trkpt lat="44.736640276346044" lon="8.335238089098418"><ele>153.0</ele><time>2026-04-09T12:58:37Z</time></trkpt><trkpt lat="44.73665071675558" lon="8.335325716873033"><ele>153.0</ele><time>2026-04-09T12:58:40Z</time></trkpt><trkpt lat="44.7366606610862" lon="8.335429861576227"><ele>153.0</ele><time>2026-04-09T12:58:43Z</time></trkpt><trkpt lat="44.73675165256549" lon="8.335507229586945"><ele>153.0</ele><time>2026-04-09T12:58:47Z</time></trkpt><trkpt lat="44.73686267942865" lon="8.335415663725952"><ele>153.0</ele><time>2026-04-09T12:58:49Z</time></trkpt><trkpt lat="44.73693332185643" lon="8.335357614461017"><ele>153.0</ele><time>2026-04-09T12:58:50Z</time></trkpt><trkpt lat="44.73701033996433" lon="8.33530769224063"><ele>153.0</ele><time>2026-04-09T12:58:51Z</time></trkpt><trkpt lat="44.737097904278045" lon="8.335242190615205"><ele>153.0</ele><time>2026-04-09T12:58:52Z</time></trkpt><trkpt lat="44.73719522857159" lon="8.335170176336803"><ele>153.0</ele><time>2026-04-09T12:58:53Z</time></trkpt><trkpt lat="44.73729938272452" lon="8.335092888589266"><ele>153.0</ele><time>2026-04-09T12:58:54Z</time></trkpt><trkpt lat="44.737401518433344" lon="8.33501302512771"><ele>153.0</ele><time>2026-04-09T12:58:55.001Z</time></trkpt><trkpt lat="44.73751243220484" lon="8.334933156089496"><ele>153.0</ele><time>2026-04-09T12:58:56.001Z</time></trkpt><trkpt lat="44.737627480290634" lon="8.334848678215836"><ele>153.0</ele><time>2026-04-09T12:58:57.001Z</time></trkpt><trkpt lat="44.73774491545766" lon="8.334760458811266"><ele>153.0</ele><time>2026-04-09T12:58:58.001Z</time></trkpt><trkpt lat="44.73786355484787" lon="8.334673077699431"><ele>152.5</ele><time>2026-04-09T12:58:59.001Z</time></trkpt><trkpt lat="44.737982737511146" lon="8.334584090809528"><ele>152.0</ele><time>2026-04-09T12:59:00.001Z</time></trkpt><trkpt lat="44.73810132350092" lon="8.334495157379106"><ele>151.5</ele><time>2026-04-09T12:59:01.001Z</time></trkpt><trkpt lat="44.73821647654653" lon="8.334403931775432"><ele>151.0</ele><time>2026-04-09T12:59:02.001Z</time></trkpt><trkpt lat="44.73832499692392" lon="8.334319400874913"><ele>151.0</ele><time>2026-04-09T12:59:03.001Z</time></trkpt><trkpt lat="44.73843207384031" lon="8.334240245373078"><ele>151.0</ele><time>2026-04-09T12:59:04.001Z</time></trkpt><trkpt lat="44.7385380505187" lon="8.334167044576493"><ele>151.0</ele><time>2026-04-09T12:59:05.001Z</time></trkpt><trkpt lat="44.73863958510433" lon="8.334095746105119"><ele>151.0</ele><time>2026-04-09T12:59:06.001Z</time></trkpt><trkpt lat="44.73874170799655" lon="8.334020216424395"><ele>150.75</ele><time>2026-04-09T12:59:07.001Z</time></trkpt><trkpt lat="44.7388507011489" lon="8.333939646690544"><ele>150.5</ele><time>2026-04-09T12:59:08.001Z</time></trkpt><trkpt lat="44.73896335622666" lon="8.333851237646698"><ele>150.25</ele><time>2026-04-09T12:59:09.001Z</time></trkpt><trkpt lat="44.739078749053135" lon="8.333767565943676"><ele>150.0</ele><time>2026-04-09T12:59:10.001Z</time></trkpt><trkpt lat="44.73919377790928" lon="8.333680520487867"><ele>150.0</ele><time>2026-04-09T12:59:11.001Z</time></trkpt><trkpt lat="44.739313154018795" lon="8.333597927467043"><ele>150.0</ele><time>2026-04-09T12:59:12.001Z</time></trkpt><trkpt lat="44.73942371267347" lon="8.33351128318756"><ele>150.0</ele><time>2026-04-09T12:59:13.001Z</time></trkpt><trkpt lat="44.73954088246389" lon="8.333429872888235"><ele>150.0</ele><time>2026-04-09T12:59:14.001Z</time></trkpt><trkpt lat="44.73965023858534" lon="8.333350399067319"><ele>149.4</ele><time>2026-04-09T12:59:15.001Z</time></trkpt><trkpt lat="44.739748979281174" lon="8.33328062517822"><ele>148.8</ele><time>2026-04-09T12:59:16.001Z</time></trkpt><trkpt lat="44.7398486840201" lon="8.333212376999404"><ele>148.2</ele><time>2026-04-09T12:59:17.001Z</time></trkpt><trkpt lat="44.739936611673926" lon="8.333145719438878"><ele>147.6</ele><time>2026-04-09T12:59:18.001Z</time></trkpt><trkpt lat="44.74002882280328" lon="8.333078540034741"><ele>147.0</ele><time>2026-04-09T12:59:19.001Z</time></trkpt><trkpt lat="44.7401252779475" lon="8.333003461612696"><ele>146.0</ele><time>2026-04-09T12:59:20.001Z</time></trkpt><trkpt lat="44.74023737878938" lon="8.3329186658606"><ele>145.0</ele><time>2026-04-09T12:59:21.001Z</time></trkpt><trkpt lat="44.740345483798436" lon="8.332799362662936"><ele>144.0</ele><time>2026-04-09T12:59:22.001Z</time></trkpt><trkpt lat="44.74044546183996" lon="8.332650146682491"><ele>143.0</ele><time>2026-04-09T12:59:23.001Z</time></trkpt><trkpt lat="44.74056300288283" lon="8.332518845229263"><ele>143.0</ele><time>2026-04-09T12:59:24.001Z</time></trkpt><trkpt lat="44.74067578442947" lon="8.3323678110094"><ele>143.0</ele><time>2026-04-09T12:59:25.001Z</time></trkpt><trkpt lat="44.74079856107464" lon="8.33221294272151"><ele>143.0</ele><time>2026-04-09T12:59:26.001Z</time></trkpt><trkpt lat="44.74092767410144" lon="8.332054395647551"><ele>142.66666666666666</ele><time>2026-04-09T12:59:27.001Z</time></trkpt><trkpt lat="44.74106383762372" lon="8.331891443038822"><ele>142.33333333333334</ele><time>2026-04-09T12:59:28.001Z</time></trkpt><trkpt lat="44.74119879628375" lon="8.331722842942318"><ele>142.0</ele><time>2026-04-09T12:59:29.001Z</time></trkpt><trkpt lat="44.741338661026866" lon="8.33154559790326"><ele>141.66666666666669</ele><time>2026-04-09T12:59:30.001Z</time></trkpt><trkpt lat="44.7414780375743" lon="8.331367795679064"><ele>141.33333333333334</ele><time>2026-04-09T12:59:31.001Z</time></trkpt><trkpt lat="44.7416228491183" lon="8.331185128642675"><ele>141.0</ele><time>2026-04-09T12:59:32.001Z</time></trkpt><trkpt lat="44.74176976296956" lon="8.331002547206225"><ele>141.0</ele><time>2026-04-09T12:59:33Z</time></trkpt><trkpt lat="44.74191610392931" lon="8.330820131686465"><ele>141.0</ele><time>2026-04-09T12:59:34Z</time></trkpt><trkpt lat="44.742061199064516" lon="8.330636551768984"><ele>141.0</ele><time>2026-04-09T12:59:35Z</time></trkpt><trkpt lat="44.74220755842243" lon="8.330454330084155"><ele>140.66666666666666</ele><time>2026-04-09T12:59:36Z</time></trkpt><trkpt lat="44.74235258470361" lon="8.330276435287095"><ele>140.33333333333331</ele><time>2026-04-09T12:59:37Z</time></trkpt><trkpt lat="44.74249363410312" lon="8.330100254008839"><ele>140.0</ele><time>2026-04-09T12:59:38Z</time></trkpt><trkpt lat="44.74263365921406" lon="8.329925349278096"><ele>140.0</ele><time>2026-04-09T12:59:39Z</time></trkpt><trkpt lat="44.74277516484235" lon="8.32975158236406"><ele>140.0</ele><time>2026-04-09T12:59:40Z</time></trkpt><trkpt lat="44.74291606821768" lon="8.329572915849589"><ele>140.0</ele><time>2026-04-09T12:59:41Z</time></trkpt><trkpt lat="44.74305180502302" lon="8.329392532659888"><ele>140.33333333333331</ele><time>2026-04-09T12:59:42Z</time></trkpt><trkpt lat="44.74319328018709" lon="8.329219559267568"><ele>140.66666666666666</ele><time>2026-04-09T12:59:43Z</time></trkpt><trkpt lat="44.743339610156724" lon="8.329055148584493"><ele>141.0</ele><time>2026-04-09T12:59:44Z</time></trkpt><trkpt lat="44.74348852323608" lon="8.328900780606471"><ele>140.33333333333334</ele><time>2026-04-09T12:59:45Z</time></trkpt><trkpt lat="44.7436315623284" lon="8.328757987097356"><ele>139.66666666666669</ele><time>2026-04-09T12:59:46Z</time></trkpt><trkpt lat="44.743768703695395" lon="8.328624806967811"><ele>139.0</ele><time>2026-04-09T12:59:47Z</time></trkpt><trkpt lat="44.743902659450825" lon="8.328526863632316"><ele>139.0</ele><time>2026-04-09T12:59:48Z</time></trkpt><trkpt lat="44.744011501282316" lon="8.328425997203793"><ele>139.0</ele><time>2026-04-09T12:59:49Z</time></trkpt><trkpt lat="44.74410714114459" lon="8.328337365372452"><ele>139.0</ele><time>2026-04-09T12:59:50Z</time></trkpt><trkpt lat="44.744179577666024" lon="8.328270236683581"><ele>139.0</ele><time>2026-04-09T12:59:51Z</time></trkpt><trkpt lat="44.7442352245543" lon="8.328218667373367"><ele>139.0</ele><time>2026-04-09T12:59:52Z</time></trkpt><trkpt lat="44.74429768364949" lon="8.328160784975104"><ele>139.0</ele><time>2026-04-09T12:59:53Z</time></trkpt><trkpt lat="44.74435061266107" lon="8.328091231594382"><ele>139.0</ele><time>2026-04-09T12:59:54Z</time></trkpt><trkpt lat="44.74440957439815" lon="8.328053949824358"><ele>139.0</ele><time>2026-04-09T12:59:55Z</time></trkpt><trkpt lat="44.74451712562049" lon="8.328046245346757"><ele>139.0</ele><time>2026-04-09T12:59:57Z</time></trkpt><trkpt lat="44.74462371254938" lon="8.328151041126349"><ele>139.0</ele><time>2026-04-09T12:59:59Z</time></trkpt><trkpt lat="44.74467706530168" lon="8.328257019357755"><ele>139.5</ele><time>2026-04-09T13:00:00Z</time></trkpt><trkpt lat="44.74473570959271" lon="8.328381856940338"><ele>140.0</ele><time>2026-04-09T13:00:01Z</time></trkpt><trkpt lat="44.744801474902296" lon="8.328508676267415"><ele>140.5</ele><time>2026-04-09T13:00:02Z</time></trkpt><trkpt lat="44.7448689391065" lon="8.328636074066237"><ele>141.0</ele><time>2026-04-09T13:00:03Z</time></trkpt><trkpt lat="44.744944560817196" lon="8.328772956677097"><ele>141.0</ele><time>2026-04-09T13:00:04Z</time></trkpt><trkpt lat="44.74502503829988" lon="8.328917516941216"><ele>141.0</ele><time>2026-04-09T13:00:05Z</time></trkpt><trkpt lat="44.74510322747734" lon="8.329064642815265"><ele>141.0</ele><time>2026-04-09T13:00:06Z</time></trkpt><trkpt lat="44.74519484549051" lon="8.329195385507806"><ele>141.0</ele><time>2026-04-09T13:00:07Z</time></trkpt><trkpt lat="44.745310201138345" lon="8.329288301521983"><ele>141.25</ele><time>2026-04-09T13:00:08Z</time></trkpt><trkpt lat="44.74543626833278" lon="8.329365110939419"><ele>141.5</ele><time>2026-04-09T13:00:09Z</time></trkpt><trkpt lat="44.74556618472278" lon="8.329440525921454"><ele>141.75</ele><time>2026-04-09T13:00:10Z</time></trkpt><trkpt lat="44.745702506795055" lon="8.32951891900601"><ele>142.0</ele><time>2026-04-09T13:00:11Z</time></trkpt><trkpt lat="44.745843101912385" lon="8.329602622021516"><ele>142.0</ele><time>2026-04-09T13:00:12Z</time></trkpt><trkpt lat="44.74598242929436" lon="8.32968571154324"><ele>142.0</ele><time>2026-04-09T13:00:13Z</time></trkpt><trkpt lat="44.746115780033065" lon="8.329763874892642"><ele>142.0</ele><time>2026-04-09T13:00:14Z</time></trkpt><trkpt lat="44.7462404943378" lon="8.329834052330925"><ele>142.0</ele><time>2026-04-09T13:00:15Z</time></trkpt><trkpt lat="44.74635388455408" lon="8.329896521654602"><ele>141.6</ele><time>2026-04-09T13:00:16Z</time></trkpt><trkpt lat="44.746458931214306" lon="8.329957226974964"><ele>141.2</ele><time>2026-04-09T13:00:17Z</time></trkpt><trkpt lat="44.74655194425047" lon="8.33001275921374"><ele>140.8</ele><time>2026-04-09T13:00:18Z</time></trkpt><trkpt lat="44.74663160865791" lon="8.330061893982421"><ele>140.4</ele><time>2026-04-09T13:00:19Z</time></trkpt><trkpt lat="44.74669917372607" lon="8.330092824781401"><ele>140.0</ele><time>2026-04-09T13:00:20Z</time></trkpt><trkpt lat="44.74680651414172" lon="8.330131315648968"><ele>141.25</ele><time>2026-04-09T13:00:22Z</time></trkpt><trkpt lat="44.74688194081162" lon="8.330146526576316"><ele>142.5</ele><time>2026-04-09T13:00:24Z</time></trkpt><trkpt lat="44.746901081580845" lon="8.329853108745166"><ele>143.75</ele><time>2026-04-09T13:00:26Z</time></trkpt><trkpt lat="44.746883336853934" lon="8.329740730251231"><ele>145.0</ele><time>2026-04-09T13:00:27Z</time></trkpt><trkpt lat="44.74688636078769" lon="8.329601205146055"><ele>144.75</ele><time>2026-04-09T13:00:28Z</time></trkpt><trkpt lat="44.74688465518659" lon="8.329438245779826"><ele>144.5</ele><time>2026-04-09T13:00:29Z</time></trkpt><trkpt lat="44.746882045245954" lon="8.329255973653796"><ele>144.25</ele><time>2026-04-09T13:00:30Z</time></trkpt><trkpt lat="44.74687312554337" lon="8.329056632595375"><ele>144.0</ele><time>2026-04-09T13:00:31Z</time></trkpt><trkpt lat="44.746857212373335" lon="8.328848988419068"><ele>145.0</ele><time>2026-04-09T13:00:32Z</time></trkpt><trkpt lat="44.74684150898843" lon="8.328639627638331"><ele>146.0</ele><time>2026-04-09T13:00:33Z</time></trkpt><trkpt lat="44.746829074956544" lon="8.328430424537089"><ele>147.0</ele><time>2026-04-09T13:00:34Z</time></trkpt><trkpt lat="44.74683768730568" lon="8.328233781996964"><ele>148.0</ele><time>2026-04-09T13:00:35Z</time></trkpt><trkpt lat="44.74688042286942" lon="8.328060108104115"><ele>148.75</ele><time>2026-04-09T13:00:36Z</time></trkpt><trkpt lat="44.74695089742199" lon="8.327906339682395"><ele>149.5</ele><time>2026-04-09T13:00:37Z</time></trkpt><trkpt lat="44.74703240519603" lon="8.32774860518191"><ele>150.25</ele><time>2026-04-09T13:00:38Z</time></trkpt><trkpt lat="44.74713946625889" lon="8.327607882960782"><ele>151.0</ele><time>2026-04-09T13:00:39Z</time></trkpt><trkpt lat="44.74725287015744" lon="8.327462130074094"><ele>151.0</ele><time>2026-04-09T13:00:40Z</time></trkpt><trkpt lat="44.74736774542183" lon="8.327306449735957"><ele>151.0</ele><time>2026-04-09T13:00:41Z</time></trkpt><trkpt lat="44.74749953965288" lon="8.327166403347304"><ele>151.0</ele><time>2026-04-09T13:00:42Z</time></trkpt><trkpt lat="44.74761254546079" lon="8.326995561628483"><ele>152.33333333333334</ele><time>2026-04-09T13:00:43Z</time></trkpt><trkpt lat="44.747731814423354" lon="8.326837827052849"><ele>153.66666666666666</ele><time>2026-04-09T13:00:44Z</time></trkpt><trkpt lat="44.74785242391387" lon="8.32668353577655"><ele>155.0</ele><time>2026-04-09T13:00:45Z</time></trkpt><trkpt lat="44.7479704919567" lon="8.326527064638803"><ele>153.66666666666666</ele><time>2026-04-09T13:00:46Z</time></trkpt><trkpt lat="44.74808927804543" lon="8.32636976289215"><ele>152.33333333333334</ele><time>2026-04-09T13:00:47Z</time></trkpt><trkpt lat="44.74820716773352" lon="8.326219169817188"><ele>151.0</ele><time>2026-04-09T13:00:48Z</time></trkpt><trkpt lat="44.74832356951003" lon="8.326074046853272"><ele>151.0</ele><time>2026-04-09T13:00:49Z</time></trkpt><trkpt lat="44.748435000462045" lon="8.325929807817833"><ele>151.0</ele><time>2026-04-09T13:00:50Z</time></trkpt><trkpt lat="44.74854148370511" lon="8.325785278720513"><ele>151.0</ele><time>2026-04-09T13:00:51Z</time></trkpt><trkpt lat="44.74864606312981" lon="8.325639370450633"><ele>151.0</ele><time>2026-04-09T13:00:52Z</time></trkpt><trkpt lat="44.748753400789276" lon="8.325502302043143"><ele>152.5</ele><time>2026-04-09T13:00:53Z</time></trkpt><trkpt lat="44.74886086103951" lon="8.325364080230989"><ele>154.0</ele><time>2026-04-09T13:00:54Z</time></trkpt><trkpt lat="44.748958530355104" lon="8.325215549883731"><ele>155.5</ele><time>2026-04-09T13:00:55Z</time></trkpt><trkpt lat="44.74904675320274" lon="8.325056824783072"><ele>157.0</ele><time>2026-04-09T13:00:56Z</time></trkpt><trkpt lat="44.7491273742132" lon="8.324889401247802"><ele>156.0</ele><time>2026-04-09T13:00:57Z</time></trkpt><trkpt lat="44.74920197640929" lon="8.324713939991248"><ele>155.0</ele><time>2026-04-09T13:00:58Z</time></trkpt><trkpt lat="44.74927261139623" lon="8.32453136086091"><ele>154.0</ele><time>2026-04-09T13:00:59Z</time></trkpt><trkpt lat="44.74934197150839" lon="8.324344529915686"><ele>153.0</ele><time>2026-04-09T13:01:00Z</time></trkpt><trkpt lat="44.74941414160881" lon="8.324153713791373"><ele>156.0</ele><time>2026-04-09T13:01:01Z</time></trkpt><trkpt lat="44.74948811507645" lon="8.323957093859963"><ele>159.0</ele><time>2026-04-09T13:01:02Z</time></trkpt><trkpt lat="44.74956289684202" lon="8.32375723751332"><ele>162.0</ele><time>2026-04-09T13:01:03Z</time></trkpt><trkpt lat="44.74963735215032" lon="8.323551120446773"><ele>162.0</ele><time>2026-04-09T13:01:04Z</time></trkpt><trkpt lat="44.7497138569062" lon="8.323344406193936"><ele>162.0</ele><time>2026-04-09T13:01:05Z</time></trkpt><trkpt lat="44.74979081739631" lon="8.323138078703328"><ele>162.0</ele><time>2026-04-09T13:01:06Z</time></trkpt><trkpt lat="44.749865065906164" lon="8.322934950548083"><ele>161.0</ele><time>2026-04-09T13:01:07Z</time></trkpt><trkpt lat="44.749936258081625" lon="8.322739990086317"><ele>160.0</ele><time>2026-04-09T13:01:08Z</time></trkpt><trkpt lat="44.75000273418873" lon="8.32255506554326"><ele>159.0</ele><time>2026-04-09T13:01:09.001Z</time></trkpt><trkpt lat="44.75006159210858" lon="8.322382743304503"><ele>158.0</ele><time>2026-04-09T13:01:10.001Z</time></trkpt><trkpt lat="44.75011579966355" lon="8.322217323684207"><ele>157.5</ele><time>2026-04-09T13:01:11.001Z</time></trkpt><trkpt lat="44.75017018786977" lon="8.322058261189962"><ele>157.0</ele><time>2026-04-09T13:01:12.001Z</time></trkpt><trkpt lat="44.75022686979616" lon="8.32190520574743"><ele>156.5</ele><time>2026-04-09T13:01:13.001Z</time></trkpt><trkpt lat="44.75028289136023" lon="8.321756454874263"><ele>156.0</ele><time>2026-04-09T13:01:14.001Z</time></trkpt><trkpt lat="44.750338030801004" lon="8.32161651760236"><ele>156.6</ele><time>2026-04-09T13:01:15.001Z</time></trkpt><trkpt lat="44.75039867831708" lon="8.321494370384615"><ele>157.2</ele><time>2026-04-09T13:01:16.001Z</time></trkpt><trkpt lat="44.750479161303524" lon="8.321387200433378"><ele>157.8</ele><time>2026-04-09T13:01:17.001Z</time></trkpt><trkpt lat="44.750565890076984" lon="8.32129461257697"><ele>158.4</ele><time>2026-04-09T13:01:18.001Z</time></trkpt><trkpt lat="44.750648777853016" lon="8.321209903080222"><ele>159.0</ele><time>2026-04-09T13:01:19.001Z</time></trkpt><trkpt lat="44.75073060270468" lon="8.321122078912046"><ele>159.0</ele><time>2026-04-09T13:01:20.001Z</time></trkpt><trkpt lat="44.75081348697491" lon="8.321033511607448"><ele>159.0</ele><time>2026-04-09T13:01:21.001Z</time></trkpt><trkpt lat="44.750895876122165" lon="8.32093636589857"><ele>159.0</ele><time>2026-04-09T13:01:22.001Z</time></trkpt><trkpt lat="44.75097061304308" lon="8.320814815525273"><ele>159.0</ele><time>2026-04-09T13:01:23.001Z</time></trkpt><trkpt lat="44.751039247742376" lon="8.320673860751555"><ele>159.0</ele><time>2026-04-09T13:01:24.001Z</time></trkpt><trkpt lat="44.75109669598325" lon="8.320514984705552"><ele>160.75</ele><time>2026-04-09T13:01:25.001Z</time></trkpt><trkpt lat="44.75114445957785" lon="8.320351956871635"><ele>162.5</ele><time>2026-04-09T13:01:26.001Z</time></trkpt><trkpt lat="44.75119213777852" lon="8.32018717483023"><ele>164.25</ele><time>2026-04-09T13:01:27.001Z</time></trkpt><trkpt lat="44.7512452570938" lon="8.320029940243517"><ele>166.0</ele><time>2026-04-09T13:01:28.001Z</time></trkpt><trkpt lat="44.7513043065143" lon="8.319878238733692"><ele>165.5</ele><time>2026-04-09T13:01:29.001Z</time></trkpt><trkpt lat="44.75135699859917" lon="8.319726809195345"><ele>165.0</ele><time>2026-04-09T13:01:30.001Z</time></trkpt><trkpt lat="44.75140000018796" lon="8.319567192674445"><ele>164.5</ele><time>2026-04-09T13:01:31.001Z</time></trkpt><trkpt lat="44.7514373429313" lon="8.31939535107491"><ele>164.0</ele><time>2026-04-09T13:01:32.001Z</time></trkpt><trkpt lat="44.751463425780756" lon="8.319206851336189"><ele>164.0</ele><time>2026-04-09T13:01:33.001Z</time></trkpt><trkpt lat="44.751500238359554" lon="8.319011123543486"><ele>164.0</ele><time>2026-04-09T13:01:34.001Z</time></trkpt><trkpt lat="44.751543361869516" lon="8.31881512565052"><ele>164.0</ele><time>2026-04-09T13:01:35.001Z</time></trkpt><trkpt lat="44.75158625418511" lon="8.318623075322435"><ele>164.0</ele><time>2026-04-09T13:01:36.001Z</time></trkpt><trkpt lat="44.75163126307039" lon="8.318424379117253"><ele>164.0</ele><time>2026-04-09T13:01:37.001Z</time></trkpt><trkpt lat="44.75167682930919" lon="8.318232734389426"><ele>164.0</ele><time>2026-04-09T13:01:38.001Z</time></trkpt><trkpt lat="44.75172276251114" lon="8.31804343028535"><ele>164.0</ele><time>2026-04-09T13:01:39Z</time></trkpt><trkpt lat="44.75177082585574" lon="8.317856752562644"><ele>164.0</ele><time>2026-04-09T13:01:40Z</time></trkpt><trkpt lat="44.75182524660715" lon="8.317673000771554"><ele>165.0</ele><time>2026-04-09T13:01:41Z</time></trkpt><trkpt lat="44.751888065429654" lon="8.317488727796125"><ele>166.0</ele><time>2026-04-09T13:01:42Z</time></trkpt><trkpt lat="44.75195718063625" lon="8.317301417227691"><ele>167.0</ele><time>2026-04-09T13:01:43Z</time></trkpt><trkpt lat="44.752028086478454" lon="8.317111652947231"><ele>168.0</ele><time>2026-04-09T13:01:44Z</time></trkpt><trkpt lat="44.75209530948854" lon="8.31692384472244"><ele>168.0</ele><time>2026-04-09T13:01:45Z</time></trkpt><trkpt lat="44.752168667118355" lon="8.316742076614293"><ele>168.0</ele><time>2026-04-09T13:01:46Z</time></trkpt><trkpt lat="44.75222325402648" lon="8.316539110629893"><ele>168.0</ele><time>2026-04-09T13:01:47Z</time></trkpt><trkpt lat="44.75226844574979" lon="8.31632229344375"><ele>167.66666666666666</ele><time>2026-04-09T13:01:48Z</time></trkpt><trkpt lat="44.752282235908524" lon="8.316092872782722"><ele>167.33333333333331</ele><time>2026-04-09T13:01:49Z</time></trkpt><trkpt lat="44.75233082035168" lon="8.315866667979495"><ele>167.0</ele><time>2026-04-09T13:01:50Z</time></trkpt><trkpt lat="44.752346380100626" lon="8.315623630829538"><ele>167.33333333333331</ele><time>2026-04-09T13:01:51Z</time></trkpt><trkpt lat="44.75238195528745" lon="8.315379680514985"><ele>167.66666666666666</ele><time>2026-04-09T13:01:52Z</time></trkpt><trkpt lat="44.752414581588745" lon="8.315127840788456"><ele>168.0</ele><time>2026-04-09T13:01:53Z</time></trkpt><trkpt lat="44.75244386571186" lon="8.31487050384083"><ele>168.33333333333334</ele><time>2026-04-09T13:01:54Z</time></trkpt><trkpt lat="44.75247377887342" lon="8.314609133828538"><ele>168.66666666666669</ele><time>2026-04-09T13:01:55Z</time></trkpt><trkpt lat="44.75250480659331" lon="8.314349023540975"><ele>169.0</ele><time>2026-04-09T13:01:56Z</time></trkpt><trkpt lat="44.75255579028265" lon="8.314101527080812"><ele>169.0</ele><time>2026-04-09T13:01:57Z</time></trkpt><trkpt lat="44.752595261793495" lon="8.313858895443346"><ele>169.0</ele><time>2026-04-09T13:01:58Z</time></trkpt><trkpt lat="44.75264485071654" lon="8.313627315087286"><ele>169.0</ele><time>2026-04-09T13:01:59Z</time></trkpt><trkpt lat="44.75269846039865" lon="8.313405164300105"><ele>170.0</ele><time>2026-04-09T13:02:00Z</time></trkpt><trkpt lat="44.7527380487999" lon="8.31320069274378"><ele>171.0</ele><time>2026-04-09T13:02:01Z</time></trkpt><trkpt lat="44.75280882450357" lon="8.313026670330425"><ele>172.0</ele><time>2026-04-09T13:02:02Z</time></trkpt><trkpt lat="44.752863501247774" lon="8.312860032287691"><ele>173.0</ele><time>2026-04-09T13:02:03Z</time></trkpt><trkpt lat="44.752923383122116" lon="8.312699050323323"><ele>173.0</ele><time>2026-04-09T13:02:04Z</time></trkpt><trkpt lat="44.75299782126901" lon="8.312546727479187"><ele>173.0</ele><time>2026-04-09T13:02:05Z</time></trkpt><trkpt lat="44.7530949839497" lon="8.312402475233464"><ele>173.0</ele><time>2026-04-09T13:02:06Z</time></trkpt><trkpt lat="44.75320751038879" lon="8.31226439390625"><ele>173.0</ele><time>2026-04-09T13:02:07Z</time></trkpt><trkpt lat="44.753316984129825" lon="8.312100950366704"><ele>172.0</ele><time>2026-04-09T13:02:08Z</time></trkpt><trkpt lat="44.75343994869625" lon="8.311943287032095"><ele>171.0</ele><time>2026-04-09T13:02:09Z</time></trkpt><trkpt lat="44.75356037189667" lon="8.311770505951264"><ele>170.0</ele><time>2026-04-09T13:02:10Z</time></trkpt><trkpt lat="44.75367298301243" lon="8.311582701173219"><ele>172.66666666666666</ele><time>2026-04-09T13:02:11Z</time></trkpt><trkpt lat="44.753797547847995" lon="8.311403504309503"><ele>175.33333333333334</ele><time>2026-04-09T13:02:12Z</time></trkpt><trkpt lat="44.75389776747725" lon="8.311194854670559"><ele>178.0</ele><time>2026-04-09T13:02:13Z</time></trkpt><trkpt lat="44.75401184983611" lon="8.310999259409495"><ele>178.0</ele><time>2026-04-09T13:02:14Z</time></trkpt><trkpt lat="44.7541257011285" lon="8.310799692958849"><ele>178.0</ele><time>2026-04-09T13:02:15Z</time></trkpt><trkpt lat="44.7542381212419" lon="8.31059951102992"><ele>178.0</ele><time>2026-04-09T13:02:16Z</time></trkpt><trkpt lat="44.75436533153894" lon="8.31041275012433"><ele>181.33333333333334</ele><time>2026-04-09T13:02:17Z</time></trkpt><trkpt lat="44.75447811697953" lon="8.31019652115469"><ele>184.66666666666666</ele><time>2026-04-09T13:02:18Z</time></trkpt><trkpt lat="44.75457744295064" lon="8.309965216309386"><ele>188.0</ele><time>2026-04-09T13:02:19Z</time></trkpt><trkpt lat="44.754660440950815" lon="8.30974362204124"><ele>188.0</ele><time>2026-04-09T13:02:20Z</time></trkpt><trkpt lat="44.75473485191163" lon="8.30953344078139"><ele>188.0</ele><time>2026-04-09T13:02:21Z</time></trkpt><trkpt lat="44.754804066701645" lon="8.309336136462361"><ele>188.0</ele><time>2026-04-09T13:02:22Z</time></trkpt><trkpt lat="44.75490180369295" lon="8.309029315272447"><ele>187.33333333333331</ele><time>2026-04-09T13:02:23Z</time></trkpt><trkpt lat="44.75497993273228" lon="8.308812763865681"><ele>186.66666666666666</ele><time>2026-04-09T13:02:24Z</time></trkpt><trkpt lat="44.755077179579615" lon="8.308601575875983"><ele>186.0</ele><time>2026-04-09T13:02:25Z</time></trkpt><trkpt lat="44.75517920648686" lon="8.30838723681825"><ele>189.66666666666669</ele><time>2026-04-09T13:02:26Z</time></trkpt><trkpt lat="44.75529587767954" lon="8.308161816780425"><ele>193.33333333333334</ele><time>2026-04-09T13:02:27Z</time></trkpt><trkpt lat="44.755415048978485" lon="8.307926769201137"><ele>197.0</ele><time>2026-04-09T13:02:28Z</time></trkpt><trkpt lat="44.75553528027492" lon="8.307685955258625"><ele>197.0</ele><time>2026-04-09T13:02:29Z</time></trkpt><trkpt lat="44.755658944288314" lon="8.307438265765278"><ele>197.0</ele><time>2026-04-09T13:02:30Z</time></trkpt><trkpt lat="44.755773201971955" lon="8.3071797120447"><ele>197.0</ele><time>2026-04-09T13:02:31Z</time></trkpt><trkpt lat="44.75589715912628" lon="8.306939629495323"><ele>195.66666666666669</ele><time>2026-04-09T13:02:32Z</time></trkpt><trkpt lat="44.756016315220464" lon="8.306712542476221"><ele>194.33333333333331</ele><time>2026-04-09T13:02:33Z</time></trkpt><trkpt lat="44.75611891361542" lon="8.306501134011015"><ele>193.0</ele><time>2026-04-09T13:02:34Z</time></trkpt><trkpt lat="44.756226396635135" lon="8.30631724157274"><ele>196.5</ele><time>2026-04-09T13:02:35Z</time></trkpt><trkpt lat="44.7563170188663" lon="8.306138448956093"><ele>200.0</ele><time>2026-04-09T13:02:36Z</time></trkpt><trkpt lat="44.756388423547136" lon="8.30596033032532"><ele>203.5</ele><time>2026-04-09T13:02:37Z</time></trkpt><trkpt lat="44.75646690990083" lon="8.305810233008184"><ele>207.0</ele><time>2026-04-09T13:02:38Z</time></trkpt><trkpt lat="44.75653558364026" lon="8.305671994840207"><ele>207.16666666666666</ele><time>2026-04-09T13:02:39Z</time></trkpt><trkpt lat="44.75659084782303" lon="8.30555843485907"><ele>207.33333333333331</ele><time>2026-04-09T13:02:40Z</time></trkpt><trkpt lat="44.75663937509951" lon="8.30546368387064"><ele>207.5</ele><time>2026-04-09T13:02:41Z</time></trkpt><trkpt lat="44.756678854795055" lon="8.305391818580558"><ele>207.66666666666666</ele><time>2026-04-09T13:02:42Z</time></trkpt><trkpt lat="44.75672527503254" lon="8.30530480509653"><ele>207.83333333333331</ele><time>2026-04-09T13:02:45Z</time></trkpt><trkpt lat="44.756769165637884" lon="8.305231241830755"><ele>208.0</ele><time>2026-04-09T13:02:48Z</time></trkpt><trkpt lat="44.75686843742023" lon="8.305160390615704"><ele>205.0</ele><time>2026-04-09T13:02:50Z</time></trkpt><trkpt lat="44.75693743651423" lon="8.305148744568188"><ele>202.0</ele><time>2026-04-09T13:02:51Z</time></trkpt><trkpt lat="44.75702751880983" lon="8.305166345804881"><ele>199.0</ele><time>2026-04-09T13:02:52Z</time></trkpt><trkpt lat="44.757123261141956" lon="8.305217361860997"><ele>196.0</ele><time>2026-04-09T13:02:53Z</time></trkpt><trkpt lat="44.75722537826602" lon="8.305275729578957"><ele>193.0</ele><time>2026-04-09T13:02:54Z</time></trkpt><trkpt lat="44.757336630922126" lon="8.305343300485402"><ele>193.0</ele><time>2026-04-09T13:02:55Z</time></trkpt><trkpt lat="44.75746607140696" lon="8.305423482634023"><ele>193.0</ele><time>2026-04-09T13:02:56Z</time></trkpt><trkpt lat="44.757603245309085" lon="8.305508147295996"><ele>193.0</ele><time>2026-04-09T13:02:57Z</time></trkpt><trkpt lat="44.75774994248882" lon="8.305599641601107"><ele>191.0</ele><time>2026-04-09T13:02:58Z</time></trkpt><trkpt lat="44.757904429838604" lon="8.305691355210017"><ele>189.0</ele><time>2026-04-09T13:02:59Z</time></trkpt><trkpt lat="44.758064659969776" lon="8.305780295866281"><ele>187.0</ele><time>2026-04-09T13:03:00Z</time></trkpt><trkpt lat="44.758223844934655" lon="8.305857943049984"><ele>187.0</ele><time>2026-04-09T13:03:01Z</time></trkpt><trkpt lat="44.758383499491366" lon="8.305925506528387"><ele>187.0</ele><time>2026-04-09T13:03:02Z</time></trkpt><trkpt lat="44.75854173493272" lon="8.305987765467096"><ele>187.0</ele><time>2026-04-09T13:03:03Z</time></trkpt><trkpt lat="44.75869670052245" lon="8.306052474231064"><ele>184.33333333333334</ele><time>2026-04-09T13:03:04Z</time></trkpt><trkpt lat="44.75884923915338" lon="8.306117159240713"><ele>181.66666666666666</ele><time>2026-04-09T13:03:05Z</time></trkpt><trkpt lat="44.75899811675965" lon="8.306188029561383"><ele>179.0</ele><time>2026-04-09T13:03:06.001Z</time></trkpt><trkpt lat="44.7591457099926" lon="8.306263645044634"><ele>179.0</ele><time>2026-04-09T13:03:07.001Z</time></trkpt><trkpt lat="44.7592877520027" lon="8.306345869135306"><ele>179.0</ele><time>2026-04-09T13:03:08.001Z</time></trkpt><trkpt lat="44.75942848715959" lon="8.306433898432614"><ele>179.0</ele><time>2026-04-09T13:03:09.001Z</time></trkpt><trkpt lat="44.7595647470025" lon="8.306533062346425"><ele>178.0</ele><time>2026-04-09T13:03:10.001Z</time></trkpt><trkpt lat="44.759692894281145" lon="8.306641105232124"><ele>177.0</ele><time>2026-04-09T13:03:11.001Z</time></trkpt><trkpt lat="44.75981838718728" lon="8.306753776091494"><ele>176.0</ele><time>2026-04-09T13:03:12.001Z</time></trkpt><trkpt lat="44.75994607475507" lon="8.306860165973832"><ele>175.0</ele><time>2026-04-09T13:03:13.001Z</time></trkpt><trkpt lat="44.760079907534156" lon="8.306954120018762"><ele>172.66666666666669</ele><time>2026-04-09T13:03:14.001Z</time></trkpt><trkpt lat="44.76021577448007" lon="8.307049631784718"><ele>170.33333333333334</ele><time>2026-04-09T13:03:15.001Z</time></trkpt><trkpt lat="44.76035721588705" lon="8.30714165844401"><ele>168.0</ele><time>2026-04-09T13:03:16.001Z</time></trkpt><trkpt lat="44.76049174281481" lon="8.307243577646252"><ele>169.33333333333334</ele><time>2026-04-09T13:03:17.001Z</time></trkpt><trkpt lat="44.76064965809129" lon="8.307278725663176"><ele>170.66666666666669</ele><time>2026-04-09T13:03:18.001Z</time></trkpt><trkpt lat="44.76080444855189" lon="8.307327637345189"><ele>172.0</ele><time>2026-04-09T13:03:19.001Z</time></trkpt><trkpt lat="44.76096689386225" lon="8.30736970276467"><ele>172.0</ele><time>2026-04-09T13:03:20.001Z</time></trkpt><trkpt lat="44.761125312685294" lon="8.307410219030938"><ele>172.0</ele><time>2026-04-09T13:03:21.001Z</time></trkpt><trkpt lat="44.76127864847712" lon="8.307452800862128"><ele>172.0</ele><time>2026-04-09T13:03:22.001Z</time></trkpt><trkpt lat="44.76142737842233" lon="8.307494673107955"><ele>172.0</ele><time>2026-04-09T13:03:23.001Z</time></trkpt><trkpt lat="44.76157333700274" lon="8.307535075014277"><ele>172.0</ele><time>2026-04-09T13:03:24.001Z</time></trkpt><trkpt lat="44.76171416796938" lon="8.307570142119875"><ele>172.0</ele><time>2026-04-09T13:03:25.001Z</time></trkpt><trkpt lat="44.7618523188585" lon="8.307609686968913"><ele>172.0</ele><time>2026-04-09T13:03:26.001Z</time></trkpt><trkpt lat="44.761987053085356" lon="8.307645700376014"><ele>170.25</ele><time>2026-04-09T13:03:27.001Z</time></trkpt><trkpt lat="44.762116147710024" lon="8.307682067426624"><ele>168.5</ele><time>2026-04-09T13:03:28.001Z</time></trkpt><trkpt lat="44.76224821601695" lon="8.30771582670821"><ele>166.75</ele><time>2026-04-09T13:03:29.001Z</time></trkpt><trkpt lat="44.76237554846751" lon="8.307751601411477"><ele>165.0</ele><time>2026-04-09T13:03:30.001Z</time></trkpt><trkpt lat="44.76249830194197" lon="8.307792004162321"><ele>165.0</ele><time>2026-04-09T13:03:31.001Z</time></trkpt><trkpt lat="44.76261732785783" lon="8.30782446675899"><ele>165.0</ele><time>2026-04-09T13:03:32.001Z</time></trkpt><trkpt lat="44.7627377179959" lon="8.307854240650085"><ele>165.0</ele><time>2026-04-09T13:03:33.001Z</time></trkpt><trkpt lat="44.76285577063677" lon="8.307853026567251"><ele>165.0</ele><time>2026-04-09T13:03:34.001Z</time></trkpt><trkpt lat="44.76297835722449" lon="8.307857054211336"><ele>163.0</ele><time>2026-04-09T13:03:35.001Z</time></trkpt><trkpt lat="44.76310335722275" lon="8.30780510632442"><ele>161.0</ele><time>2026-04-09T13:03:36.001Z</time></trkpt><trkpt lat="44.76322567448864" lon="8.307722017903737"><ele>159.0</ele><time>2026-04-09T13:03:37.001Z</time></trkpt><trkpt lat="44.76334433384035" lon="8.307624537104067"><ele>157.0</ele><time>2026-04-09T13:03:38.001Z</time></trkpt><trkpt lat="44.76346614319656" lon="8.307522471694915"><ele>156.25</ele><time>2026-04-09T13:03:39.001Z</time></trkpt><trkpt lat="44.763596301314294" lon="8.307421259538144"><ele>155.5</ele><time>2026-04-09T13:03:40.001Z</time></trkpt><trkpt lat="44.763728980636905" lon="8.3073191729069"><ele>154.75</ele><time>2026-04-09T13:03:41.001Z</time></trkpt><trkpt lat="44.7638584863008" lon="8.307219528228119"><ele>154.0</ele><time>2026-04-09T13:03:42.001Z</time></trkpt><trkpt lat="44.76398753398873" lon="8.307121611147437"><ele>154.0</ele><time>2026-04-09T13:03:43.001Z</time></trkpt><trkpt lat="44.764124756454464" lon="8.307021817202571"><ele>154.0</ele><time>2026-04-09T13:03:44.001Z</time></trkpt><trkpt lat="44.76426193077984" lon="8.306922252543847"><ele>154.0</ele><time>2026-04-09T13:03:45Z</time></trkpt><trkpt lat="44.76439911143713" lon="8.306824401513289"><ele>153.0</ele><time>2026-04-09T13:03:46Z</time></trkpt><trkpt lat="44.7645388895237" lon="8.306724697710779"><ele>152.0</ele><time>2026-04-09T13:03:47Z</time></trkpt><trkpt lat="44.76467223681078" lon="8.306629581050899"><ele>151.0</ele><time>2026-04-09T13:03:48Z</time></trkpt><trkpt lat="44.764804266354766" lon="8.306535404279408"><ele>151.0</ele><time>2026-04-09T13:03:49Z</time></trkpt><trkpt lat="44.76493508990719" lon="8.306442087775057"><ele>151.0</ele><time>2026-04-09T13:03:50Z</time></trkpt><trkpt lat="44.7650645102991" lon="8.306349772135265"><ele>151.0</ele><time>2026-04-09T13:03:51Z</time></trkpt><trkpt lat="44.76519283734355" lon="8.306258236376387"><ele>151.0</ele><time>2026-04-09T13:03:52Z</time></trkpt><trkpt lat="44.76531762346216" lon="8.306172757889744"><ele>150.0</ele><time>2026-04-09T13:03:53Z</time></trkpt><trkpt lat="44.76543908586479" lon="8.306078835335514"><ele>149.0</ele><time>2026-04-09T13:03:54Z</time></trkpt><trkpt lat="44.76557248810394" lon="8.306038623351508"><ele>148.0</ele><time>2026-04-09T13:03:55Z</time></trkpt><trkpt lat="44.76570568411392" lon="8.306033791950494"><ele>147.0</ele><time>2026-04-09T13:03:56Z</time></trkpt><trkpt lat="44.76584122044188" lon="8.30605582567671"><ele>147.0</ele><time>2026-04-09T13:03:57Z</time></trkpt><trkpt lat="44.7659771227643" lon="8.306106109891656"><ele>147.0</ele><time>2026-04-09T13:03:58Z</time></trkpt><trkpt lat="44.76611300628391" lon="8.30616596209227"><ele>147.0</ele><time>2026-04-09T13:03:59Z</time></trkpt><trkpt lat="44.766245109205556" lon="8.306241230225254"><ele>147.0</ele><time>2026-04-09T13:04:00Z</time></trkpt><trkpt lat="44.7663755174929" lon="8.306331941688377"><ele>147.0</ele><time>2026-04-09T13:04:01Z</time></trkpt><trkpt lat="44.76650179031443" lon="8.306444812602772"><ele>147.0</ele><time>2026-04-09T13:04:02Z</time></trkpt><trkpt lat="44.766624388145075" lon="8.306573183125977"><ele>147.0</ele><time>2026-04-09T13:04:03Z</time></trkpt><trkpt lat="44.76674073996619" lon="8.306715197740994"><ele>147.0</ele><time>2026-04-09T13:04:04Z</time></trkpt><trkpt lat="44.766855987862" lon="8.306855500991473"><ele>147.0</ele><time>2026-04-09T13:04:05Z</time></trkpt><trkpt lat="44.766968988538025" lon="8.306993326634432"><ele>147.0</ele><time>2026-04-09T13:04:06Z</time></trkpt><trkpt lat="44.767080847416764" lon="8.3071248286722"><ele>147.0</ele><time>2026-04-09T13:04:07Z</time></trkpt><trkpt lat="44.767190647730864" lon="8.30726257017903"><ele>147.0</ele><time>2026-04-09T13:04:08Z</time></trkpt><trkpt lat="44.767294386051944" lon="8.307408447143533"><ele>147.0</ele><time>2026-04-09T13:04:09Z</time></trkpt><trkpt lat="44.76739363165608" lon="8.30756638389194"><ele>147.0</ele><time>2026-04-09T13:04:10Z</time></trkpt><trkpt lat="44.76748659629575" lon="8.307729199325312"><ele>147.0</ele><time>2026-04-09T13:04:11Z</time></trkpt><trkpt lat="44.76758031057085" lon="8.307891997091966"><ele>147.0</ele><time>2026-04-09T13:04:12Z</time></trkpt><trkpt lat="44.76767620199461" lon="8.30805850585866"><ele>147.0</ele><time>2026-04-09T13:04:13Z</time></trkpt><trkpt lat="44.7677740225103" lon="8.308230578400767"><ele>147.0</ele><time>2026-04-09T13:04:14Z</time></trkpt><trkpt lat="44.76787256870538" lon="8.308400003146462"><ele>146.66666666666666</ele><time>2026-04-09T13:04:15Z</time></trkpt><trkpt lat="44.76797264716643" lon="8.308575351261599"><ele>146.33333333333331</ele><time>2026-04-09T13:04:16Z</time></trkpt><trkpt lat="44.7680689002291" lon="8.308751608562982"><ele>146.0</ele><time>2026-04-09T13:04:17Z</time></trkpt><trkpt lat="44.76816017560934" lon="8.30893738498394"><ele>146.0</ele><time>2026-04-09T13:04:18Z</time></trkpt><trkpt lat="44.768244696670784" lon="8.309122743672274"><ele>146.0</ele><time>2026-04-09T13:04:19Z</time></trkpt><trkpt lat="44.76832837463311" lon="8.30930557543474"><ele>146.0</ele><time>2026-04-09T13:04:20Z</time></trkpt><trkpt lat="44.76841015270458" lon="8.309475984636265"><ele>146.0</ele><time>2026-04-09T13:04:21Z</time></trkpt><trkpt lat="44.76848713009912" lon="8.309639138500467"><ele>146.0</ele><time>2026-04-09T13:04:22Z</time></trkpt><trkpt lat="44.768556193937066" lon="8.309795844425384"><ele>146.0</ele><time>2026-04-09T13:04:23Z</time></trkpt><trkpt lat="44.76862023347103" lon="8.30995128882476"><ele>146.0</ele><time>2026-04-09T13:04:24Z</time></trkpt><trkpt lat="44.76867543015274" lon="8.310109616266384"><ele>145.8</ele><time>2026-04-09T13:04:25Z</time></trkpt><trkpt lat="44.76871597133104" lon="8.310275389750519"><ele>145.6</ele><time>2026-04-09T13:04:26Z</time></trkpt><trkpt lat="44.768739308130655" lon="8.310436628094463"><ele>145.4</ele><time>2026-04-09T13:04:27Z</time></trkpt><trkpt lat="44.768745968675155" lon="8.3105793786664"><ele>145.2</ele><time>2026-04-09T13:04:28Z</time></trkpt><trkpt lat="44.76874935757835" lon="8.310695660887951"><ele>145.0</ele><time>2026-04-09T13:04:29Z</time></trkpt><trkpt lat="44.768761897672256" lon="8.31081052397825"><ele>145.0</ele><time>2026-04-09T13:04:30Z</time></trkpt><trkpt lat="44.768802594390394" lon="8.310917729378865"><ele>145.0</ele><time>2026-04-09T13:04:31Z</time></trkpt><trkpt lat="44.768880838684126" lon="8.311002293529928"><ele>145.0</ele><time>2026-04-09T13:04:32Z</time></trkpt><trkpt lat="44.768991960274036" lon="8.311064225993805"><ele>145.0</ele><time>2026-04-09T13:04:33Z</time></trkpt><trkpt lat="44.76911831500344" lon="8.311093677118505"><ele>145.0</ele><time>2026-04-09T13:04:34Z</time></trkpt><trkpt lat="44.76924616674821" lon="8.311119552855978"><ele>144.4</ele><time>2026-04-09T13:04:35Z</time></trkpt><trkpt lat="44.76936514261579" lon="8.311148983137254"><ele>143.8</ele><time>2026-04-09T13:04:36Z</time></trkpt><trkpt lat="44.76947786011456" lon="8.311185694981276"><ele>143.2</ele><time>2026-04-09T13:04:37Z</time></trkpt><trkpt lat="44.769583191172124" lon="8.311219135988313"><ele>142.6</ele><time>2026-04-09T13:04:38Z</time></trkpt><trkpt lat="44.76968385378122" lon="8.31124734373285"><ele>142.0</ele><time>2026-04-09T13:04:39Z</time></trkpt><trkpt lat="44.76977726933976" lon="8.311272496275985"><ele>142.0</ele><time>2026-04-09T13:04:40Z</time></trkpt><trkpt lat="44.76986299001505" lon="8.311300131407474"><ele>142.0</ele><time>2026-04-09T13:04:41Z</time></trkpt><trkpt lat="44.76995316976448" lon="8.311328465949599"><ele>142.0</ele><time>2026-04-09T13:04:42Z</time></trkpt><trkpt lat="44.77003415979566" lon="8.311359560080396"><ele>142.0</ele><time>2026-04-09T13:04:43Z</time></trkpt><trkpt lat="44.770098713925556" lon="8.311387029850415"><ele>142.0</ele><time>2026-04-09T13:04:44Z</time></trkpt><trkpt lat="44.770194762132775" lon="8.311422761355793"><ele>142.0</ele><time>2026-04-09T13:04:46Z</time></trkpt><trkpt lat="44.770281453579365" lon="8.311413668418178"><ele>143.2</ele><time>2026-04-09T13:05:07.001Z</time></trkpt><trkpt lat="44.77031434756731" lon="8.311249039740904"><ele>144.39999999999998</ele><time>2026-04-09T13:05:08.001Z</time></trkpt><trkpt lat="44.7703224146232" lon="8.311120158548231"><ele>145.60000000000002</ele><time>2026-04-09T13:05:09.001Z</time></trkpt><trkpt lat="44.77033365432998" lon="8.310980850049628"><ele>146.8</ele><time>2026-04-09T13:05:10.001Z</time></trkpt><trkpt lat="44.77035071381091" lon="8.310828930135626"><ele>148.0</ele><time>2026-04-09T13:05:11.001Z</time></trkpt><trkpt lat="44.770368089856156" lon="8.31064825175766"><ele>148.0</ele><time>2026-04-09T13:05:12.001Z</time></trkpt><trkpt lat="44.770381608557294" lon="8.310476369793657"><ele>148.0</ele><time>2026-04-09T13:05:13.001Z</time></trkpt><trkpt lat="44.770392217063915" lon="8.310290109892964"><ele>148.0</ele><time>2026-04-09T13:05:14.001Z</time></trkpt><trkpt lat="44.77040618759645" lon="8.310096428658195"><ele>148.0</ele><time>2026-04-09T13:05:15.001Z</time></trkpt><trkpt lat="44.7704218406597" lon="8.309901164641214"><ele>148.25</ele><time>2026-04-09T13:05:16.001Z</time></trkpt><trkpt lat="44.7704356778771" lon="8.309710980355996"><ele>148.5</ele><time>2026-04-09T13:05:17.001Z</time></trkpt><trkpt lat="44.770451065534715" lon="8.309509930225897"><ele>148.75</ele><time>2026-04-09T13:05:18.001Z</time></trkpt><trkpt lat="44.77046696086283" lon="8.309307875068674"><ele>149.0</ele><time>2026-04-09T13:05:19.001Z</time></trkpt><trkpt lat="44.770483529411806" lon="8.309109083988533"><ele>148.5</ele><time>2026-04-09T13:05:20.001Z</time></trkpt><trkpt lat="44.77050105667011" lon="8.308908802584668"><ele>148.0</ele><time>2026-04-09T13:05:21.001Z</time></trkpt><trkpt lat="44.77051530147878" lon="8.30870938157709"><ele>147.5</ele><time>2026-04-09T13:05:22.001Z</time></trkpt><trkpt lat="44.770533991534016" lon="8.308510457241423"><ele>147.0</ele><time>2026-04-09T13:05:23.001Z</time></trkpt><trkpt lat="44.770565509784284" lon="8.308314492766458"><ele>147.0</ele><time>2026-04-09T13:05:24.001Z</time></trkpt><trkpt lat="44.77061091860399" lon="8.308124946020182"><ele>147.0</ele><time>2026-04-09T13:05:25.001Z</time></trkpt><trkpt lat="44.77067139395669" lon="8.307940606270785"><ele>147.0</ele><time>2026-04-09T13:05:26.001Z</time></trkpt><trkpt lat="44.77074847055174" lon="8.30776869122268"><ele>147.0</ele><time>2026-04-09T13:05:27.001Z</time></trkpt><trkpt lat="44.770840012179555" lon="8.307609179131425"><ele>146.75</ele><time>2026-04-09T13:05:28.001Z</time></trkpt><trkpt lat="44.77094511696244" lon="8.307461778570834"><ele>146.5</ele><time>2026-04-09T13:05:29.001Z</time></trkpt><trkpt lat="44.771053929663445" lon="8.307315653118174"><ele>146.25</ele><time>2026-04-09T13:05:30.001Z</time></trkpt><trkpt lat="44.7711591828099" lon="8.307169183916589"><ele>146.0</ele><time>2026-04-09T13:05:31.001Z</time></trkpt><trkpt lat="44.771261223391825" lon="8.30702065220162"><ele>145.75</ele><time>2026-04-09T13:05:32.001Z</time></trkpt><trkpt lat="44.77136366657718" lon="8.306871736252482"><ele>145.5</ele><time>2026-04-09T13:05:33.001Z</time></trkpt><trkpt lat="44.77146822673167" lon="8.306727116027197"><ele>145.25</ele><time>2026-04-09T13:05:34.001Z</time></trkpt><trkpt lat="44.771572022374784" lon="8.306582913620083"><ele>145.0</ele><time>2026-04-09T13:05:35.001Z</time></trkpt><trkpt lat="44.771672924314664" lon="8.306434788729037"><ele>145.0</ele><time>2026-04-09T13:05:36.001Z</time></trkpt><trkpt lat="44.771775220216874" lon="8.306285147222287"><ele>145.0</ele><time>2026-04-09T13:05:37.001Z</time></trkpt><trkpt lat="44.77188062006376" lon="8.306137791088906"><ele>145.0</ele><time>2026-04-09T13:05:38.001Z</time></trkpt><trkpt lat="44.77198729207671" lon="8.305991253229687"><ele>145.0</ele><time>2026-04-09T13:05:39.001Z</time></trkpt><trkpt lat="44.77209345497338" lon="8.305840854686458"><ele>145.0</ele><time>2026-04-09T13:05:40.001Z</time></trkpt><trkpt lat="44.772198963405245" lon="8.305688522603722"><ele>145.0</ele><time>2026-04-09T13:05:41.001Z</time></trkpt><trkpt lat="44.77230418366101" lon="8.305534079515848"><ele>145.0</ele><time>2026-04-09T13:05:42.001Z</time></trkpt><trkpt lat="44.772411513427734" lon="8.305379752461075"><ele>145.0</ele><time>2026-04-09T13:05:43.001Z</time></trkpt><trkpt lat="44.77251966839731" lon="8.30522435720789"><ele>145.0</ele><time>2026-04-09T13:05:44.001Z</time></trkpt><trkpt lat="44.772628437365405" lon="8.305068298583478"><ele>145.0</ele><time>2026-04-09T13:05:45.001Z</time></trkpt><trkpt lat="44.77273843893606" lon="8.304911084338753"><ele>144.66666666666669</ele><time>2026-04-09T13:05:46.001Z</time></trkpt><trkpt lat="44.77284917118289" lon="8.304754596082141"><ele>144.33333333333334</ele><time>2026-04-09T13:05:47.001Z</time></trkpt><trkpt lat="44.77296173065904" lon="8.304596276808239"><ele>144.0</ele><time>2026-04-09T13:05:48.001Z</time></trkpt><trkpt lat="44.77307283260739" lon="8.304434625852586"><ele>144.0</ele><time>2026-04-09T13:05:49.001Z</time></trkpt><trkpt lat="44.773183390116" lon="8.304272070250258"><ele>144.0</ele><time>2026-04-09T13:05:50.001Z</time></trkpt><trkpt lat="44.77329601069756" lon="8.304108411296228"><ele>144.0</ele><time>2026-04-09T13:05:51Z</time></trkpt><trkpt lat="44.77340738367467" lon="8.303946018532086"><ele>144.0</ele><time>2026-04-09T13:05:52Z</time></trkpt><trkpt lat="44.773521357502034" lon="8.303782286935153"><ele>144.0</ele><time>2026-04-09T13:05:53Z</time></trkpt><trkpt lat="44.77363968007202" lon="8.303618114656157"><ele>144.0</ele><time>2026-04-09T13:05:54Z</time></trkpt><trkpt lat="44.77375515661688" lon="8.303454470166415"><ele>144.0</ele><time>2026-04-09T13:05:55Z</time></trkpt><trkpt lat="44.773871335308876" lon="8.303292111435102"><ele>144.0</ele><time>2026-04-09T13:05:56Z</time></trkpt><trkpt lat="44.773984558071525" lon="8.303127211069103"><ele>144.0</ele><time>2026-04-09T13:05:57Z</time></trkpt><trkpt lat="44.774096557977295" lon="8.302962852347353"><ele>144.33333333333334</ele><time>2026-04-09T13:05:58Z</time></trkpt><trkpt lat="44.77420650430772" lon="8.302804134792849"><ele>144.66666666666669</ele><time>2026-04-09T13:05:59Z</time></trkpt><trkpt lat="44.774316869425334" lon="8.302636911218576"><ele>145.0</ele><time>2026-04-09T13:06:00Z</time></trkpt><trkpt lat="44.774422783769" lon="8.302461266845766"><ele>144.33333333333334</ele><time>2026-04-09T13:06:01Z</time></trkpt><trkpt lat="44.774525812112245" lon="8.30227499151691"><ele>143.66666666666666</ele><time>2026-04-09T13:06:02Z</time></trkpt><trkpt lat="44.77462452105381" lon="8.302081132955935"><ele>143.0</ele><time>2026-04-09T13:06:03Z</time></trkpt><trkpt lat="44.77472182498077" lon="8.301880934694703"><ele>142.66666666666666</ele><time>2026-04-09T13:06:04Z</time></trkpt><trkpt lat="44.774816731089516" lon="8.301675163288282"><ele>142.33333333333334</ele><time>2026-04-09T13:06:05Z</time></trkpt><trkpt lat="44.77491137277798" lon="8.301462812134336"><ele>142.0</ele><time>2026-04-09T13:06:06Z</time></trkpt><trkpt lat="44.77500341445562" lon="8.301247173493485"><ele>142.0</ele><time>2026-04-09T13:06:07Z</time></trkpt><trkpt lat="44.77509305293455" lon="8.301026430031"><ele>142.0</ele><time>2026-04-09T13:06:08Z</time></trkpt><trkpt lat="44.77517879500577" lon="8.300799356546607"><ele>142.0</ele><time>2026-04-09T13:06:09Z</time></trkpt><trkpt lat="44.77525628143877" lon="8.300576850601267"><ele>142.66666666666669</ele><time>2026-04-09T13:06:10Z</time></trkpt><trkpt lat="44.77532231310128" lon="8.300368558310716"><ele>143.33333333333334</ele><time>2026-04-09T13:06:11Z</time></trkpt><trkpt lat="44.77537610119169" lon="8.300177997226347"><ele>144.0</ele><time>2026-04-09T13:06:12Z</time></trkpt><trkpt lat="44.77542318077526" lon="8.299988493911876"><ele>144.0</ele><time>2026-04-09T13:06:13Z</time></trkpt><trkpt lat="44.77546561156242" lon="8.299801773106234"><ele>144.0</ele><time>2026-04-09T13:06:14Z</time></trkpt><trkpt lat="44.77550632485414" lon="8.299622045616186"><ele>144.0</ele><time>2026-04-09T13:06:15Z</time></trkpt><trkpt lat="44.7755444268145" lon="8.29944535650381"><ele>144.0</ele><time>2026-04-09T13:06:16Z</time></trkpt><trkpt lat="44.77557808985681" lon="8.299263964265258"><ele>144.25</ele><time>2026-04-09T13:06:17Z</time></trkpt><trkpt lat="44.77560971644922" lon="8.299078319091985"><ele>144.5</ele><time>2026-04-09T13:06:18Z</time></trkpt><trkpt lat="44.77563807304947" lon="8.298886380250108"><ele>144.75</ele><time>2026-04-09T13:06:19Z</time></trkpt><trkpt lat="44.77566345616321" lon="8.298687007816707"><ele>145.0</ele><time>2026-04-09T13:06:20Z</time></trkpt><trkpt lat="44.77568773552751" lon="8.298485386633244"><ele>145.0</ele><time>2026-04-09T13:06:21Z</time></trkpt><trkpt lat="44.77570966444505" lon="8.298279359596231"><ele>145.0</ele><time>2026-04-09T13:06:22Z</time></trkpt><trkpt lat="44.77572250007057" lon="8.298068176716109"><ele>145.0</ele><time>2026-04-09T13:06:23Z</time></trkpt><trkpt lat="44.775736912438205" lon="8.297856105115248"><ele>145.0</ele><time>2026-04-09T13:06:24Z</time></trkpt><trkpt lat="44.775755318813836" lon="8.297640142812021"><ele>145.0</ele><time>2026-04-09T13:06:25Z</time></trkpt><trkpt lat="44.77577117454391" lon="8.297424311936094"><ele>145.0</ele><time>2026-04-09T13:06:26Z</time></trkpt><trkpt lat="44.775786239322834" lon="8.29720535895358"><ele>144.66666666666669</ele><time>2026-04-09T13:06:27Z</time></trkpt><trkpt lat="44.775801464853195" lon="8.29698539694042"><ele>144.33333333333334</ele><time>2026-04-09T13:06:28Z</time></trkpt><trkpt lat="44.77581881313645" lon="8.296762630278668"><ele>144.0</ele><time>2026-04-09T13:06:29Z</time></trkpt><trkpt lat="44.7758364180867" lon="8.296536679399969"><ele>144.33333333333334</ele><time>2026-04-09T13:06:30Z</time></trkpt><trkpt lat="44.77585124526607" lon="8.296309830741448"><ele>144.66666666666669</ele><time>2026-04-09T13:06:31Z</time></trkpt><trkpt lat="44.775866668705234" lon="8.296080456217663"><ele>145.0</ele><time>2026-04-09T13:06:32Z</time></trkpt><trkpt lat="44.7758834121167" lon="8.29585033249477"><ele>145.0</ele><time>2026-04-09T13:06:33Z</time></trkpt><trkpt lat="44.77590202418546" lon="8.295619281323075"><ele>145.0</ele><time>2026-04-09T13:06:34Z</time></trkpt><trkpt lat="44.77592090926114" lon="8.29538733289058"><ele>145.0</ele><time>2026-04-09T13:06:35Z</time></trkpt><trkpt lat="44.77593653953491" lon="8.29515426142884"><ele>145.0</ele><time>2026-04-09T13:06:36Z</time></trkpt><trkpt lat="44.77595281165397" lon="8.294916947624841"><ele>145.0</ele><time>2026-04-09T13:06:37Z</time></trkpt><trkpt lat="44.7759707883621" lon="8.29467974416615"><ele>145.0</ele><time>2026-04-09T13:06:38Z</time></trkpt><trkpt lat="44.77598958823313" lon="8.294440278976705"><ele>145.0</ele><time>2026-04-09T13:06:39Z</time></trkpt><trkpt lat="44.77600555165385" lon="8.294199835799903"><ele>145.0</ele><time>2026-04-09T13:06:40Z</time></trkpt><trkpt lat="44.77602021580152" lon="8.293959407502054"><ele>145.0</ele><time>2026-04-09T13:06:41Z</time></trkpt><trkpt lat="44.77603472089968" lon="8.293723481951423"><ele>145.33333333333334</ele><time>2026-04-09T13:06:42Z</time></trkpt><trkpt lat="44.77605045260408" lon="8.293495624811113"><ele>145.66666666666666</ele><time>2026-04-09T13:06:43Z</time></trkpt><trkpt lat="44.77606493794786" lon="8.293274395770828"><ele>146.0</ele><time>2026-04-09T13:06:44Z</time></trkpt><trkpt lat="44.77608045190572" lon="8.293056654700688"><ele>145.33333333333331</ele><time>2026-04-09T13:06:45Z</time></trkpt><trkpt lat="44.77609727385382" lon="8.292842191856378"><ele>144.66666666666666</ele><time>2026-04-09T13:06:46Z</time></trkpt><trkpt lat="44.77611288780811" lon="8.292632207647015"><ele>144.0</ele><time>2026-04-09T13:06:47Z</time></trkpt><trkpt lat="44.77612724630492" lon="8.292423613270348"><ele>144.25</ele><time>2026-04-09T13:06:48Z</time></trkpt><trkpt lat="44.776141059140855" lon="8.292214279138632"><ele>144.5</ele><time>2026-04-09T13:06:49Z</time></trkpt><trkpt lat="44.77615373366125" lon="8.292006899315183"><ele>144.75</ele><time>2026-04-09T13:06:50Z</time></trkpt><trkpt lat="44.77616841914961" lon="8.291801556131132"><ele>145.0</ele><time>2026-04-09T13:06:51Z</time></trkpt><trkpt lat="44.77618383110189" lon="8.291596807421548"><ele>145.66666666666669</ele><time>2026-04-09T13:06:52Z</time></trkpt><trkpt lat="44.77619740522561" lon="8.291389534501597"><ele>146.33333333333334</ele><time>2026-04-09T13:06:53Z</time></trkpt><trkpt lat="44.776210940368586" lon="8.291177350605393"><ele>147.0</ele><time>2026-04-09T13:06:54Z</time></trkpt><trkpt lat="44.77622584814442" lon="8.290960251075646"><ele>147.0</ele><time>2026-04-09T13:06:55Z</time></trkpt><trkpt lat="44.7762410069853" lon="8.290738592028124"><ele>147.0</ele><time>2026-04-09T13:06:56Z</time></trkpt><trkpt lat="44.77625579462371" lon="8.290513701749228"><ele>147.0</ele><time>2026-04-09T13:06:57Z</time></trkpt><trkpt lat="44.77627125842073" lon="8.290284192127782"><ele>147.0</ele><time>2026-04-09T13:06:58Z</time></trkpt><trkpt lat="44.77628740957903" lon="8.290050117782872"><ele>147.0</ele><time>2026-04-09T13:06:59Z</time></trkpt><trkpt lat="44.77630479373061" lon="8.289812657669408"><ele>147.0</ele><time>2026-04-09T13:07:00Z</time></trkpt><trkpt lat="44.776321818293475" lon="8.289574266108493"><ele>146.66666666666666</ele><time>2026-04-09T13:07:01Z</time></trkpt><trkpt lat="44.776336841176594" lon="8.28933427106927"><ele>146.33333333333331</ele><time>2026-04-09T13:07:02Z</time></trkpt><trkpt lat="44.77635407116178" lon="8.28909269192955"><ele>146.0</ele><time>2026-04-09T13:07:03Z</time></trkpt><trkpt lat="44.77637128515625" lon="8.28885032382834"><ele>146.0</ele><time>2026-04-09T13:07:04Z</time></trkpt><trkpt lat="44.77638885061482" lon="8.288608334681365"><ele>146.0</ele><time>2026-04-09T13:07:05Z</time></trkpt><trkpt lat="44.776405107404166" lon="8.288364051305292"><ele>146.0</ele><time>2026-04-09T13:07:06Z</time></trkpt><trkpt lat="44.77642153435382" lon="8.288120082257006"><ele>146.0</ele><time>2026-04-09T13:07:07Z</time></trkpt><trkpt lat="44.77644023503287" lon="8.287877540807663"><ele>146.0</ele><time>2026-04-09T13:07:08Z</time></trkpt><trkpt lat="44.77645718037987" lon="8.287643201924435"><ele>146.0</ele><time>2026-04-09T13:07:09Z</time></trkpt><trkpt lat="44.77647182212492" lon="8.287419779480198"><ele>146.0</ele><time>2026-04-09T13:07:10Z</time></trkpt><trkpt lat="44.7764869610213" lon="8.287203845876377"><ele>146.0</ele><time>2026-04-09T13:07:11Z</time></trkpt><trkpt lat="44.776501383793" lon="8.286986552641055"><ele>146.0</ele><time>2026-04-09T13:07:12Z</time></trkpt><trkpt lat="44.77651539884339" lon="8.286769464662537"><ele>146.0</ele><time>2026-04-09T13:07:13Z</time></trkpt><trkpt lat="44.77652759966125" lon="8.286553269802177"><ele>146.0</ele><time>2026-04-09T13:07:14.001Z</time></trkpt><trkpt lat="44.77654267391666" lon="8.286335552298283"><ele>146.0</ele><time>2026-04-09T13:07:15.001Z</time></trkpt><trkpt lat="44.776555818577066" lon="8.286120276803725"><ele>145.66666666666666</ele><time>2026-04-09T13:07:16.001Z</time></trkpt><trkpt lat="44.77657003267483" lon="8.285904354856356"><ele>145.33333333333334</ele><time>2026-04-09T13:07:17.001Z</time></trkpt><trkpt lat="44.77658411816841" lon="8.285689083842755"><ele>145.0</ele><time>2026-04-09T13:07:18.001Z</time></trkpt><trkpt lat="44.77659862063281" lon="8.285473018253366"><ele>145.0</ele><time>2026-04-09T13:07:19.001Z</time></trkpt><trkpt lat="44.776613238480785" lon="8.28525709192662"><ele>145.0</ele><time>2026-04-09T13:07:20.001Z</time></trkpt><trkpt lat="44.776629927619716" lon="8.285046000953741"><ele>145.0</ele><time>2026-04-09T13:07:21.001Z</time></trkpt><trkpt lat="44.776647023218395" lon="8.28484636552904"><ele>145.0</ele><time>2026-04-09T13:07:22.001Z</time></trkpt><trkpt lat="44.77666110792447" lon="8.284653296875838"><ele>145.5</ele><time>2026-04-09T13:07:23.001Z</time></trkpt><trkpt lat="44.77667294906645" lon="8.284457344084958"><ele>146.0</ele><time>2026-04-09T13:07:24.001Z</time></trkpt><trkpt lat="44.77668614071186" lon="8.28425849364301"><ele>146.5</ele><time>2026-04-09T13:07:25.001Z</time></trkpt><trkpt lat="44.77670158793663" lon="8.284058065840918"><ele>147.0</ele><time>2026-04-09T13:07:26.001Z</time></trkpt><trkpt lat="44.77671638397659" lon="8.283855173809597"><ele>147.0</ele><time>2026-04-09T13:07:27.001Z</time></trkpt><trkpt lat="44.7767309914266" lon="8.283650815883327"><ele>147.0</ele><time>2026-04-09T13:07:28.001Z</time></trkpt><trkpt lat="44.776744599177825" lon="8.283444147492713"><ele>147.0</ele><time>2026-04-09T13:07:29.001Z</time></trkpt><trkpt lat="44.77676028573796" lon="8.283234890597095"><ele>147.0</ele><time>2026-04-09T13:07:30.001Z</time></trkpt><trkpt lat="44.776775956659115" lon="8.283023737982816"><ele>147.0</ele><time>2026-04-09T13:07:31.001Z</time></trkpt><trkpt lat="44.7767907745775" lon="8.282812990239334"><ele>147.0</ele><time>2026-04-09T13:07:32.001Z</time></trkpt><trkpt lat="44.77680548714467" lon="8.282603767776115"><ele>147.0</ele><time>2026-04-09T13:07:33.001Z</time></trkpt><trkpt lat="44.776819915699576" lon="8.282394894159477"><ele>147.0</ele><time>2026-04-09T13:07:34.001Z</time></trkpt><trkpt lat="44.7768344203646" lon="8.28218532559169"><ele>147.25</ele><time>2026-04-09T13:07:35.001Z</time></trkpt><trkpt lat="44.77685035013425" lon="8.281975869932444"><ele>147.5</ele><time>2026-04-09T13:07:36.001Z</time></trkpt><trkpt lat="44.77686643660836" lon="8.281768576961484"><ele>147.75</ele><time>2026-04-09T13:07:37.001Z</time></trkpt><trkpt lat="44.77688079256582" lon="8.281561172513221"><ele>148.0</ele><time>2026-04-09T13:07:38.001Z</time></trkpt><trkpt lat="44.77689464617819" lon="8.281354581799649"><ele>148.0</ele><time>2026-04-09T13:07:39.001Z</time></trkpt><trkpt lat="44.77690854071591" lon="8.281149456640092"><ele>148.0</ele><time>2026-04-09T13:07:40.001Z</time></trkpt><trkpt lat="44.77692449603235" lon="8.280944838796827"><ele>148.0</ele><time>2026-04-09T13:07:41.001Z</time></trkpt><trkpt lat="44.776941688031805" lon="8.280742275937504"><ele>148.0</ele><time>2026-04-09T13:07:42.001Z</time></trkpt><trkpt lat="44.776957661756605" lon="8.28054235794933"><ele>148.75</ele><time>2026-04-09T13:07:43.001Z</time></trkpt><trkpt lat="44.77697186699322" lon="8.280347210459077"><ele>149.5</ele><time>2026-04-09T13:07:44.001Z</time></trkpt><trkpt lat="44.77698491273329" lon="8.280155060906216"><ele>150.25</ele><time>2026-04-09T13:07:45.001Z</time></trkpt><trkpt lat="44.77699937318852" lon="8.27996949873583"><ele>151.0</ele><time>2026-04-09T13:07:46.001Z</time></trkpt><trkpt lat="44.77701328062562" lon="8.279787844963694"><ele>151.0</ele><time>2026-04-09T13:07:47.001Z</time></trkpt><trkpt lat="44.77702743896026" lon="8.279610706287833"><ele>151.0</ele><time>2026-04-09T13:07:48.001Z</time></trkpt><trkpt lat="44.77704040466381" lon="8.27944370822116"><ele>151.0</ele><time>2026-04-09T13:07:49.001Z</time></trkpt><trkpt lat="44.77704808105309" lon="8.279284517505097"><ele>151.0</ele><time>2026-04-09T13:07:50.001Z</time></trkpt><trkpt lat="44.777055536629945" lon="8.279130991253028"><ele>151.0</ele><time>2026-04-09T13:07:51.001Z</time></trkpt><trkpt lat="44.777065914112974" lon="8.278983738052148"><ele>151.0</ele><time>2026-04-09T13:07:52.001Z</time></trkpt><trkpt lat="44.777084399282884" lon="8.278850239061425"><ele>151.0</ele><time>2026-04-09T13:07:53.001Z</time></trkpt><trkpt lat="44.77711456274591" lon="8.278741385328344"><ele>151.0</ele><time>2026-04-09T13:07:54.001Z</time></trkpt><trkpt lat="44.77716163222726" lon="8.278654565878432"><ele>151.0</ele><time>2026-04-09T13:07:55.001Z</time></trkpt><trkpt lat="44.777231075660566" lon="8.2785739627875"><ele>150.8</ele><time>2026-04-09T13:07:56.001Z</time></trkpt><trkpt lat="44.77731234831532" lon="8.2785018987646"><ele>150.6</ele><time>2026-04-09T13:07:57Z</time></trkpt><trkpt lat="44.77741038294708" lon="8.278445288563725"><ele>150.4</ele><time>2026-04-09T13:07:58Z</time></trkpt><trkpt lat="44.77752168597616" lon="8.278416204127053"><ele>150.2</ele><time>2026-04-09T13:07:59Z</time></trkpt><trkpt lat="44.77764259184686" lon="8.278399602464761"><ele>150.0</ele><time>2026-04-09T13:08:00Z</time></trkpt><trkpt lat="44.777772497270306" lon="8.278383925600174"><ele>149.75</ele><time>2026-04-09T13:08:01Z</time></trkpt><trkpt lat="44.77790873988301" lon="8.278362587635737"><ele>149.5</ele><time>2026-04-09T13:08:02Z</time></trkpt><trkpt lat="44.7780521875485" lon="8.278335594783597"><ele>149.25</ele><time>2026-04-09T13:08:03Z</time></trkpt><trkpt lat="44.77819201351131" lon="8.2783030180681"><ele>149.0</ele><time>2026-04-09T13:08:04Z</time></trkpt><trkpt lat="44.77833146747087" lon="8.278266873116772"><ele>149.0</ele><time>2026-04-09T13:08:05Z</time></trkpt><trkpt lat="44.77847300563425" lon="8.278222824065136"><ele>149.0</ele><time>2026-04-09T13:08:06Z</time></trkpt><trkpt lat="44.77861353147667" lon="8.278171141551205"><ele>149.0</ele><time>2026-04-09T13:08:07Z</time></trkpt><trkpt lat="44.77875448222059" lon="8.278114125870408"><ele>149.0</ele><time>2026-04-09T13:08:08Z</time></trkpt><trkpt lat="44.77889158402638" lon="8.278046460503376"><ele>149.0</ele><time>2026-04-09T13:08:09Z</time></trkpt><trkpt lat="44.779024129598284" lon="8.277961143859597"><ele>149.0</ele><time>2026-04-09T13:08:10Z</time></trkpt><trkpt lat="44.7791516786429" lon="8.277863853833571"><ele>149.0</ele><time>2026-04-09T13:08:11Z</time></trkpt><trkpt lat="44.77927800262659" lon="8.277755230032062"><ele>149.0</ele><time>2026-04-09T13:08:12Z</time></trkpt><trkpt lat="44.77940183666591" lon="8.277634492974254"><ele>149.0</ele><time>2026-04-09T13:08:13Z</time></trkpt><trkpt lat="44.77952406822605" lon="8.277506546932937"><ele>149.0</ele><time>2026-04-09T13:08:14Z</time></trkpt><trkpt lat="44.77964658142304" lon="8.27737449515585"><ele>149.0</ele><time>2026-04-09T13:08:15Z</time></trkpt><trkpt lat="44.77976909612724" lon="8.277233396440614"><ele>150.0</ele><time>2026-04-09T13:08:16Z</time></trkpt><trkpt lat="44.77989167657467" lon="8.277080744115537"><ele>151.0</ele><time>2026-04-09T13:08:17Z</time></trkpt><trkpt lat="44.78001464283812" lon="8.276915981165601"><ele>152.0</ele><time>2026-04-09T13:08:18Z</time></trkpt><trkpt lat="44.7801305938881" lon="8.276743792553308"><ele>152.0</ele><time>2026-04-09T13:08:19Z</time></trkpt><trkpt lat="44.78023948100397" lon="8.276577813997282"><ele>152.0</ele><time>2026-04-09T13:08:20Z</time></trkpt><trkpt lat="44.78034869716584" lon="8.2764093017601"><ele>152.0</ele><time>2026-04-09T13:08:21Z</time></trkpt><trkpt lat="44.780455719570654" lon="8.27623782952531"><ele>153.0</ele><time>2026-04-09T13:08:22Z</time></trkpt><trkpt lat="44.78056136070914" lon="8.276067011501189"><ele>154.0</ele><time>2026-04-09T13:08:23Z</time></trkpt><trkpt lat="44.78066667805649" lon="8.275896697033055"><ele>155.0</ele><time>2026-04-09T13:08:24Z</time></trkpt><trkpt lat="44.780769476384116" lon="8.275723597498816"><ele>155.33333333333331</ele><time>2026-04-09T13:08:25Z</time></trkpt><trkpt lat="44.78087216030248" lon="8.275550889471745"><ele>155.66666666666666</ele><time>2026-04-09T13:08:26Z</time></trkpt><trkpt lat="44.780974946585026" lon="8.275379255731261"><ele>156.0</ele><time>2026-04-09T13:08:27Z</time></trkpt><trkpt lat="44.781080316592885" lon="8.275208804781794"><ele>155.33333333333334</ele><time>2026-04-09T13:08:28Z</time></trkpt><trkpt lat="44.7811874991597" lon="8.275038137837525"><ele>154.66666666666669</ele><time>2026-04-09T13:08:29Z</time></trkpt><trkpt lat="44.781293140882" lon="8.274866256842934"><ele>154.0</ele><time>2026-04-09T13:08:30Z</time></trkpt><trkpt lat="44.78139911051429" lon="8.274692759262036"><ele>154.0</ele><time>2026-04-09T13:08:31Z</time></trkpt><trkpt lat="44.78150698823933" lon="8.274517529585367"><ele>154.0</ele><time>2026-04-09T13:08:32Z</time></trkpt><trkpt lat="44.78161531072176" lon="8.274344615645333"><ele>154.0</ele><time>2026-04-09T13:08:33Z</time></trkpt><trkpt lat="44.78172220573358" lon="8.274170535188336"><ele>154.0</ele><time>2026-04-09T13:08:34Z</time></trkpt><trkpt lat="44.78182856535658" lon="8.273996331337337"><ele>154.0</ele><time>2026-04-09T13:08:35Z</time></trkpt><trkpt lat="44.78193682817237" lon="8.273819876471398"><ele>154.0</ele><time>2026-04-09T13:08:36Z</time></trkpt><trkpt lat="44.78204654592288" lon="8.27364421358266"><ele>154.33333333333334</ele><time>2026-04-09T13:08:37Z</time></trkpt><trkpt lat="44.78215596293415" lon="8.273468187730295"><ele>154.66666666666666</ele><time>2026-04-09T13:08:38Z</time></trkpt><trkpt lat="44.78226569128164" lon="8.273290799120764"><ele>155.0</ele><time>2026-04-09T13:08:39Z</time></trkpt><trkpt lat="44.78237576505364" lon="8.273112399793133"><ele>155.33333333333331</ele><time>2026-04-09T13:08:40Z</time></trkpt><trkpt lat="44.78248553675914" lon="8.272934220874152"><ele>155.66666666666666</ele><time>2026-04-09T13:08:41Z</time></trkpt><trkpt lat="44.78259566327173" lon="8.272756517207878"><ele>156.0</ele><time>2026-04-09T13:08:42Z</time></trkpt><trkpt lat="44.782704963412215" lon="8.27257628066681"><ele>156.0</ele><time>2026-04-09T13:08:43Z</time></trkpt><trkpt lat="44.78281303775512" lon="8.272397783446054"><ele>156.0</ele><time>2026-04-09T13:08:44Z</time></trkpt><trkpt lat="44.782921054832265" lon="8.272217046506766"><ele>156.0</ele><time>2026-04-09T13:08:45Z</time></trkpt><trkpt lat="44.78303104155619" lon="8.272038397225899"><ele>155.66666666666666</ele><time>2026-04-09T13:08:46Z</time></trkpt><trkpt lat="44.783141597355076" lon="8.27186246652255"><ele>155.33333333333331</ele><time>2026-04-09T13:08:47Z</time></trkpt><trkpt lat="44.78325206521104" lon="8.271684960039673"><ele>155.0</ele><time>2026-04-09T13:08:48Z</time></trkpt><trkpt lat="44.783362015781115" lon="8.271507541117058"><ele>155.0</ele><time>2026-04-09T13:08:49Z</time></trkpt><trkpt lat="44.78347261656322" lon="8.271328069314142"><ele>155.0</ele><time>2026-04-09T13:08:50Z</time></trkpt><trkpt lat="44.78358195038254" lon="8.271148866416034"><ele>155.0</ele><time>2026-04-09T13:08:51Z</time></trkpt><trkpt lat="44.78369171794233" lon="8.270967776476475"><ele>156.0</ele><time>2026-04-09T13:08:52Z</time></trkpt><trkpt lat="44.78380207734681" lon="8.270786938180356"><ele>157.0</ele><time>2026-04-09T13:08:53Z</time></trkpt><trkpt lat="44.7839131348401" lon="8.270606091655369"><ele>158.0</ele><time>2026-04-09T13:08:54Z</time></trkpt><trkpt lat="44.78402573749129" lon="8.270425876282198"><ele>158.0</ele><time>2026-04-09T13:08:55Z</time></trkpt><trkpt lat="44.78413943912528" lon="8.270243412210558"><ele>158.0</ele><time>2026-04-09T13:08:56Z</time></trkpt><trkpt lat="44.784251701354194" lon="8.270058896227106"><ele>158.0</ele><time>2026-04-09T13:08:57Z</time></trkpt><trkpt lat="44.78436480767628" lon="8.269874614335754"><ele>157.33333333333331</ele><time>2026-04-09T13:08:58Z</time></trkpt><trkpt lat="44.78447804936749" lon="8.26968885766699"><ele>156.66666666666666</ele><time>2026-04-09T13:08:59Z</time></trkpt><trkpt lat="44.78459109657272" lon="8.269501758731334"><ele>156.0</ele><time>2026-04-09T13:09:00Z</time></trkpt><trkpt lat="44.78470394456124" lon="8.26931505571234"><ele>156.0</ele><time>2026-04-09T13:09:01Z</time></trkpt><trkpt lat="44.78481674180705" lon="8.269128779798656"><ele>156.0</ele><time>2026-04-09T13:09:02Z</time></trkpt><trkpt lat="44.784931287927954" lon="8.268944577187566"><ele>156.0</ele><time>2026-04-09T13:09:03Z</time></trkpt><trkpt lat="44.785045308393165" lon="8.26876076211124"><ele>156.66666666666666</ele><time>2026-04-09T13:09:04Z</time></trkpt><trkpt lat="44.785157609776014" lon="8.26857399227546"><ele>157.33333333333331</ele><time>2026-04-09T13:09:05Z</time></trkpt><trkpt lat="44.785267728500955" lon="8.268387782525782"><ele>158.0</ele><time>2026-04-09T13:09:06Z</time></trkpt><trkpt lat="44.78537695771747" lon="8.268202866853915"><ele>158.0</ele><time>2026-04-09T13:09:07Z</time></trkpt><trkpt lat="44.7854880546859" lon="8.26802202742373"><ele>158.0</ele><time>2026-04-09T13:09:08Z</time></trkpt><trkpt lat="44.785600250199984" lon="8.267841836006795"><ele>158.0</ele><time>2026-04-09T13:09:09Z</time></trkpt><trkpt lat="44.78571193302208" lon="8.267660071533648"><ele>158.0</ele><time>2026-04-09T13:09:10Z</time></trkpt><trkpt lat="44.78582182714784" lon="8.267478687002281"><ele>158.0</ele><time>2026-04-09T13:09:11Z</time></trkpt><trkpt lat="44.785930786783695" lon="8.26729634777878"><ele>158.0</ele><time>2026-04-09T13:09:12Z</time></trkpt><trkpt lat="44.78604063979379" lon="8.267115429759448"><ele>158.33333333333331</ele><time>2026-04-09T13:09:13Z</time></trkpt><trkpt lat="44.78615379056186" lon="8.266937185144657"><ele>158.66666666666666</ele><time>2026-04-09T13:09:14Z</time></trkpt><trkpt lat="44.78626831093077" lon="8.266757714851067"><ele>159.0</ele><time>2026-04-09T13:09:15Z</time></trkpt><trkpt lat="44.786379376668805" lon="8.266574669224312"><ele>159.0</ele><time>2026-04-09T13:09:16Z</time></trkpt><trkpt lat="44.78648974603206" lon="8.266392197944112"><ele>159.0</ele><time>2026-04-09T13:09:17Z</time></trkpt><trkpt lat="44.786601276413904" lon="8.266210366211457"><ele>159.0</ele><time>2026-04-09T13:09:18Z</time></trkpt><trkpt lat="44.78671393033307" lon="8.266031562043535"><ele>159.0</ele><time>2026-04-09T13:09:19.001Z</time></trkpt><trkpt lat="44.78682708326485" lon="8.26585110674987"><ele>159.0</ele><time>2026-04-09T13:09:20.001Z</time></trkpt><trkpt lat="44.786938058597215" lon="8.265668178408847"><ele>159.0</ele><time>2026-04-09T13:09:21.001Z</time></trkpt><trkpt lat="44.787048580016105" lon="8.265486806962985"><ele>158.66666666666666</ele><time>2026-04-09T13:09:22.001Z</time></trkpt><trkpt lat="44.7871590105314" lon="8.265305529685175"><ele>158.33333333333331</ele><time>2026-04-09T13:09:23.001Z</time></trkpt><trkpt lat="44.787267689226404" lon="8.265124406193696"><ele>158.0</ele><time>2026-04-09T13:09:24.001Z</time></trkpt><trkpt lat="44.787375938457224" lon="8.26494448370965"><ele>158.33333333333331</ele><time>2026-04-09T13:09:25.001Z</time></trkpt><trkpt lat="44.78748361598502" lon="8.264765209482109"><ele>158.66666666666666</ele><time>2026-04-09T13:09:26.001Z</time></trkpt><trkpt lat="44.787591930541986" lon="8.264588771602117"><ele>159.0</ele><time>2026-04-09T13:09:27.001Z</time></trkpt><trkpt lat="44.787704046016856" lon="8.264410456017346"><ele>159.0</ele><time>2026-04-09T13:09:28.001Z</time></trkpt><trkpt lat="44.78781507826615" lon="8.264230503620468"><ele>159.0</ele><time>2026-04-09T13:09:29.001Z</time></trkpt><trkpt lat="44.78792751491852" lon="8.264045108297502"><ele>159.0</ele><time>2026-04-09T13:09:30.001Z</time></trkpt><trkpt lat="44.78804290974752" lon="8.263851089790206"><ele>159.0</ele><time>2026-04-09T13:09:31.001Z</time></trkpt><trkpt lat="44.78816303411176" lon="8.263651275626046"><ele>159.0</ele><time>2026-04-09T13:09:32.001Z</time></trkpt><trkpt lat="44.788285893949265" lon="8.263454988621548"><ele>159.0</ele><time>2026-04-09T13:09:33.001Z</time></trkpt><trkpt lat="44.78841044312819" lon="8.263258081795055"><ele>159.33333333333334</ele><time>2026-04-09T13:09:34.001Z</time></trkpt><trkpt lat="44.788535152705" lon="8.26306014281619"><ele>159.66666666666669</ele><time>2026-04-09T13:09:35.001Z</time></trkpt><trkpt lat="44.78865739120447" lon="8.262863010119728"><ele>160.0</ele><time>2026-04-09T13:09:36.001Z</time></trkpt><trkpt lat="44.7887756845552" lon="8.262668702043488"><ele>160.0</ele><time>2026-04-09T13:09:37.001Z</time></trkpt><trkpt lat="44.78889055956376" lon="8.262476507112659"><ele>160.0</ele><time>2026-04-09T13:09:38.001Z</time></trkpt><trkpt lat="44.78900591764833" lon="8.262283666340211"><ele>160.0</ele><time>2026-04-09T13:09:39.001Z</time></trkpt><trkpt lat="44.789121607152644" lon="8.262090947958203"><ele>160.33333333333334</ele><time>2026-04-09T13:09:40.001Z</time></trkpt><trkpt lat="44.7892403503781" lon="8.261897958223754"><ele>160.66666666666666</ele><time>2026-04-09T13:09:41.001Z</time></trkpt><trkpt lat="44.789359800609304" lon="8.261706431358077"><ele>161.0</ele><time>2026-04-09T13:09:42.001Z</time></trkpt><trkpt lat="44.78947928380992" lon="8.261515291100954"><ele>161.66666666666666</ele><time>2026-04-09T13:09:43.001Z</time></trkpt><trkpt lat="44.78959817794209" lon="8.261321023910158"><ele>162.33333333333334</ele><time>2026-04-09T13:09:44.001Z</time></trkpt><trkpt lat="44.789717035576686" lon="8.261130114709692"><ele>163.0</ele><time>2026-04-09T13:09:45.001Z</time></trkpt><trkpt lat="44.789835982575376" lon="8.26093790260585"><ele>163.0</ele><time>2026-04-09T13:09:46.001Z</time></trkpt><trkpt lat="44.789953122858506" lon="8.260744323909854"><ele>163.0</ele><time>2026-04-09T13:09:47.001Z</time></trkpt><trkpt lat="44.7900696223906" lon="8.260553388789646"><ele>163.0</ele><time>2026-04-09T13:09:48.001Z</time></trkpt><trkpt lat="44.79018546703235" lon="8.260362672344613"><ele>163.33333333333334</ele><time>2026-04-09T13:09:49.001Z</time></trkpt><trkpt lat="44.79030128149462" lon="8.260170680935493"><ele>163.66666666666666</ele><time>2026-04-09T13:09:50.001Z</time></trkpt><trkpt lat="44.79041653387432" lon="8.259980174542397"><ele>164.0</ele><time>2026-04-09T13:09:51.001Z</time></trkpt><trkpt lat="44.79053112611924" lon="8.259793493641041"><ele>164.66666666666666</ele><time>2026-04-09T13:09:52.001Z</time></trkpt><trkpt lat="44.790646939760535" lon="8.259606359444543"><ele>165.33333333333334</ele><time>2026-04-09T13:09:53.001Z</time></trkpt><trkpt lat="44.79076100813831" lon="8.259421300727633"><ele>166.0</ele><time>2026-04-09T13:09:54.001Z</time></trkpt><trkpt lat="44.79087458642383" lon="8.259237708614297"><ele>166.0</ele><time>2026-04-09T13:09:55.001Z</time></trkpt><trkpt lat="44.79098793062038" lon="8.25905691562786"><ele>166.0</ele><time>2026-04-09T13:09:56.001Z</time></trkpt><trkpt lat="44.79110097411774" lon="8.258878344536216"><ele>166.0</ele><time>2026-04-09T13:09:57.001Z</time></trkpt><trkpt lat="44.791214340236195" lon="8.258701975399347"><ele>166.66666666666669</ele><time>2026-04-09T13:09:58.001Z</time></trkpt><trkpt lat="44.7913292566018" lon="8.258528250385465"><ele>167.33333333333334</ele><time>2026-04-09T13:09:59.001Z</time></trkpt><trkpt lat="44.79144937371239" lon="8.258360071590777"><ele>168.0</ele><time>2026-04-09T13:10:00.001Z</time></trkpt><trkpt lat="44.79157314477836" lon="8.258198756473423"><ele>169.0</ele><time>2026-04-09T13:10:01.001Z</time></trkpt><trkpt lat="44.791698758842934" lon="8.25804110413401"><ele>170.0</ele><time>2026-04-09T13:10:02.001Z</time></trkpt><trkpt lat="44.79182741980519" lon="8.25788538897041"><ele>171.0</ele><time>2026-04-09T13:10:03Z</time></trkpt><trkpt lat="44.79195989775908" lon="8.257732725027356"><ele>171.66666666666666</ele><time>2026-04-09T13:10:04Z</time></trkpt><trkpt lat="44.79209670135779" lon="8.257582296568708"><ele>172.33333333333331</ele><time>2026-04-09T13:10:05Z</time></trkpt><trkpt lat="44.79223746753922" lon="8.257434759749367"><ele>173.0</ele><time>2026-04-09T13:10:06Z</time></trkpt><trkpt lat="44.792381163751216" lon="8.257289085228445"><ele>173.66666666666666</ele><time>2026-04-09T13:10:07Z</time></trkpt><trkpt lat="44.792527077489765" lon="8.257147246333085"><ele>174.33333333333334</ele><time>2026-04-09T13:10:08Z</time></trkpt><trkpt lat="44.792675857404035" lon="8.25700875123374"><ele>175.0</ele><time>2026-04-09T13:10:09Z</time></trkpt><trkpt lat="44.79282761546085" lon="8.256876793983869"><ele>177.66666666666669</ele><time>2026-04-09T13:10:10Z</time></trkpt><trkpt lat="44.79298282969691" lon="8.256748148513768"><ele>180.33333333333334</ele><time>2026-04-09T13:10:11Z</time></trkpt><trkpt lat="44.793138979973776" lon="8.256626553112353"><ele>183.0</ele><time>2026-04-09T13:10:12Z</time></trkpt><trkpt lat="44.79329871643487" lon="8.256511727337337"><ele>185.0</ele><time>2026-04-09T13:10:13Z</time></trkpt><trkpt lat="44.79346078372384" lon="8.256402642285796"><ele>187.0</ele><time>2026-04-09T13:10:14Z</time></trkpt><trkpt lat="44.79362340929472" lon="8.256301132212068"><ele>189.0</ele><time>2026-04-09T13:10:15Z</time></trkpt><trkpt lat="44.79378318341748" lon="8.256208759028041"><ele>193.33333333333331</ele><time>2026-04-09T13:10:16Z</time></trkpt><trkpt lat="44.79394560517371" lon="8.256120659999558"><ele>197.66666666666666</ele><time>2026-04-09T13:10:17Z</time></trkpt><trkpt lat="44.79410763351849" lon="8.256033570258701"><ele>202.0</ele><time>2026-04-09T13:10:18Z</time></trkpt><trkpt lat="44.794269186751485" lon="8.255948252039502"><ele>202.0</ele><time>2026-04-09T13:10:19Z</time></trkpt><trkpt lat="44.794431759901904" lon="8.255867880922594"><ele>202.0</ele><time>2026-04-09T13:10:20Z</time></trkpt><trkpt lat="44.79459484924576" lon="8.255792785111561"><ele>202.0</ele><time>2026-04-09T13:10:21Z</time></trkpt><trkpt lat="44.79475623084945" lon="8.255721258201678"><ele>202.0</ele><time>2026-04-09T13:10:22Z</time></trkpt><trkpt lat="44.79491814293228" lon="8.255654464130386"><ele>202.0</ele><time>2026-04-09T13:10:23Z</time></trkpt><trkpt lat="44.795079611772834" lon="8.25559337795227"><ele>202.0</ele><time>2026-04-09T13:10:24Z</time></trkpt><trkpt lat="44.79524138379224" lon="8.255533382752226"><ele>196.0</ele><time>2026-04-09T13:10:25Z</time></trkpt><trkpt lat="44.795402234538564" lon="8.255474889254792"><ele>190.0</ele><time>2026-04-09T13:10:26Z</time></trkpt><trkpt lat="44.795624038321805" lon="8.255237262108341"><ele>184.0</ele><time>2026-04-09T13:10:27Z</time></trkpt><trkpt lat="44.79562973723508" lon="8.255348111219496"><ele>184.0</ele><time>2026-04-09T13:10:28Z</time></trkpt><trkpt lat="44.795835086146994" lon="8.255112981714444"><ele>184.0</ele><time>2026-04-09T13:10:29Z</time></trkpt><trkpt lat="44.79598558397897" lon="8.255048628257434"><ele>184.0</ele><time>2026-04-09T13:10:30Z</time></trkpt><trkpt lat="44.7961366685277" lon="8.25496644240121"><ele>182.66666666666669</ele><time>2026-04-09T13:10:31Z</time></trkpt><trkpt lat="44.79629284072672" lon="8.254886582126678"><ele>181.33333333333334</ele><time>2026-04-09T13:10:32Z</time></trkpt><trkpt lat="44.7964370589355" lon="8.254789913073067"><ele>180.0</ele><time>2026-04-09T13:10:33Z</time></trkpt><trkpt lat="44.796588789139435" lon="8.254708986933373"><ele>180.0</ele><time>2026-04-09T13:10:34Z</time></trkpt><trkpt lat="44.79674661879457" lon="8.254632610698156"><ele>180.0</ele><time>2026-04-09T13:10:35Z</time></trkpt><trkpt lat="44.79690844570453" lon="8.254554148625484"><ele>180.0</ele><time>2026-04-09T13:10:36Z</time></trkpt><trkpt lat="44.79707489919408" lon="8.254480238632366"><ele>178.33333333333334</ele><time>2026-04-09T13:10:37Z</time></trkpt><trkpt lat="44.79724487606992" lon="8.254415956283946"><ele>176.66666666666669</ele><time>2026-04-09T13:10:38Z</time></trkpt><trkpt lat="44.79741691274991" lon="8.254353122950052"><ele>175.0</ele><time>2026-04-09T13:10:39Z</time></trkpt><trkpt lat="44.797590773310525" lon="8.254292221926438"><ele>173.33333333333334</ele><time>2026-04-09T13:10:40Z</time></trkpt><trkpt lat="44.79776762942741" lon="8.254236857211458"><ele>171.66666666666666</ele><time>2026-04-09T13:10:41Z</time></trkpt><trkpt lat="44.797945585444396" lon="8.254185037851794"><ele>170.0</ele><time>2026-04-09T13:10:42Z</time></trkpt><trkpt lat="44.79812027716772" lon="8.25413647437903"><ele>170.0</ele><time>2026-04-09T13:10:43Z</time></trkpt><trkpt lat="44.79829770306559" lon="8.25409418326196"><ele>170.0</ele><time>2026-04-09T13:10:44Z</time></trkpt><trkpt lat="44.79848019437617" lon="8.254056144255783"><ele>170.0</ele><time>2026-04-09T13:10:45Z</time></trkpt><trkpt lat="44.79866341475687" lon="8.254024427614452"><ele>170.33333333333331</ele><time>2026-04-09T13:10:46Z</time></trkpt><trkpt lat="44.79885144263313" lon="8.253997675720608"><ele>170.66666666666666</ele><time>2026-04-09T13:10:47Z</time></trkpt><trkpt lat="44.79904058184505" lon="8.253975498426538"><ele>171.0</ele><time>2026-04-09T13:10:48Z</time></trkpt><trkpt lat="44.79923274421872" lon="8.253960208134796"><ele>169.66666666666666</ele><time>2026-04-09T13:10:49Z</time></trkpt><trkpt lat="44.79942780444043" lon="8.253949950683912"><ele>168.33333333333331</ele><time>2026-04-09T13:10:50Z</time></trkpt><trkpt lat="44.79962347340146" lon="8.25394557580077"><ele>167.0</ele><time>2026-04-09T13:10:51Z</time></trkpt><trkpt lat="44.79982285177849" lon="8.253938363882364"><ele>167.0</ele><time>2026-04-09T13:10:52Z</time></trkpt><trkpt lat="44.80002345261146" lon="8.253925334477128"><ele>167.0</ele><time>2026-04-09T13:10:53Z</time></trkpt><trkpt lat="44.80022515134432" lon="8.25391161176699"><ele>167.0</ele><time>2026-04-09T13:10:54Z</time></trkpt><trkpt lat="44.80042970428255" lon="8.253899886757148"><ele>166.33333333333331</ele><time>2026-04-09T13:10:55Z</time></trkpt><trkpt lat="44.80063524410926" lon="8.253888433452774"><ele>165.66666666666666</ele><time>2026-04-09T13:10:56Z</time></trkpt><trkpt lat="44.80084005138737" lon="8.25387759882116"><ele>165.0</ele><time>2026-04-09T13:10:57Z</time></trkpt><trkpt lat="44.80104786398819" lon="8.253869206129677"><ele>165.0</ele><time>2026-04-09T13:10:58Z</time></trkpt><trkpt lat="44.80125440731537" lon="8.253860314689128"><ele>165.0</ele><time>2026-04-09T13:10:59Z</time></trkpt><trkpt lat="44.80145770002995" lon="8.253850942873687"><ele>165.0</ele><time>2026-04-09T13:11:00Z</time></trkpt><trkpt lat="44.80165561731074" lon="8.253839856125566"><ele>163.66666666666666</ele><time>2026-04-09T13:11:01Z</time></trkpt><trkpt lat="44.80184966976884" lon="8.253827813043575"><ele>162.33333333333331</ele><time>2026-04-09T13:11:02Z</time></trkpt><trkpt lat="44.802039268885586" lon="8.253818247145817"><ele>161.0</ele><time>2026-04-09T13:11:03Z</time></trkpt><trkpt lat="44.80222485742492" lon="8.2538105244563"><ele>161.0</ele><time>2026-04-09T13:11:04Z</time></trkpt><trkpt lat="44.802406495096875" lon="8.25380234189163"><ele>161.0</ele><time>2026-04-09T13:11:05Z</time></trkpt><trkpt lat="44.80257805228174" lon="8.25379289249663"><ele>161.0</ele><time>2026-04-09T13:11:06Z</time></trkpt><trkpt lat="44.802736424706204" lon="8.253782411748464"><ele>161.0</ele><time>2026-04-09T13:11:07Z</time></trkpt><trkpt lat="44.80288375268245" lon="8.253772800813975"><ele>161.0</ele><time>2026-04-09T13:11:08Z</time></trkpt><trkpt lat="44.80301723441833" lon="8.253765448039614"><ele>161.0</ele><time>2026-04-09T13:11:09Z</time></trkpt><trkpt lat="44.80312991288041" lon="8.253760184046744"><ele>161.0</ele><time>2026-04-09T13:11:10Z</time></trkpt><trkpt lat="44.80321781895177" lon="8.253771096797228"><ele>161.0</ele><time>2026-04-09T13:11:11Z</time></trkpt><trkpt lat="44.80329285681082" lon="8.253786767603378"><ele>161.0</ele><time>2026-04-09T13:11:12Z</time></trkpt><trkpt lat="44.80335689211237" lon="8.253814370587422"><ele>161.0</ele><time>2026-04-09T13:11:13Z</time></trkpt><trkpt lat="44.80344856736831" lon="8.253932449258722"><ele>161.0</ele><time>2026-04-09T13:11:15Z</time></trkpt><trkpt lat="44.80352765410053" lon="8.254032124987093"><ele>161.0</ele><time>2026-04-09T13:11:17Z</time></trkpt><trkpt lat="44.803612773886265" lon="8.254068105611314"><ele>161.0</ele><time>2026-04-09T13:11:19Z</time></trkpt><trkpt lat="44.80369157558339" lon="8.25407654240331"><ele>161.0</ele><time>2026-04-09T13:13:54.001Z</time></trkpt><trkpt lat="44.80376289099641" lon="8.25398975436903"><ele>161.0</ele><time>2026-04-09T13:13:56.001Z</time></trkpt><trkpt lat="44.80385162726363" lon="8.253955268907909"><ele>161.0</ele><time>2026-04-09T13:13:58.001Z</time></trkpt><trkpt lat="44.803914113142696" lon="8.253869503985761"><ele>161.0</ele><time>2026-04-09T13:14:00.001Z</time></trkpt><trkpt lat="44.80396263256836" lon="8.253763366438639"><ele>161.0</ele><time>2026-04-09T13:14:02.001Z</time></trkpt><trkpt lat="44.8040587508683" lon="8.25376596392323"><ele>160.8</ele><time>2026-04-09T13:14:03.001Z</time></trkpt><trkpt lat="44.80414265071841" lon="8.253736483367735"><ele>160.60000000000002</ele><time>2026-04-09T13:14:04.001Z</time></trkpt><trkpt lat="44.804239747667715" lon="8.253718109195658"><ele>160.4</ele><time>2026-04-09T13:14:05.001Z</time></trkpt><trkpt lat="44.804345160297125" lon="8.253708682070851"><ele>160.2</ele><time>2026-04-09T13:14:06.001Z</time></trkpt><trkpt lat="44.80445524481787" lon="8.253700288862856"><ele>160.0</ele><time>2026-04-09T13:14:07.001Z</time></trkpt><trkpt lat="44.804576170586735" lon="8.253693578606969"><ele>159.0</ele><time>2026-04-09T13:14:08.001Z</time></trkpt><trkpt lat="44.804705242607355" lon="8.253684354382562"><ele>158.0</ele><time>2026-04-09T13:14:09.001Z</time></trkpt><trkpt lat="44.8048395143757" lon="8.253676552032566"><ele>157.0</ele><time>2026-04-09T13:14:10.001Z</time></trkpt><trkpt lat="44.80497944430354" lon="8.25367080255135"><ele>156.0</ele><time>2026-04-09T13:14:11.001Z</time></trkpt><trkpt lat="44.8051238279825" lon="8.253666972482526"><ele>155.66666666666666</ele><time>2026-04-09T13:14:12.001Z</time></trkpt><trkpt lat="44.80526978324722" lon="8.253662391437132"><ele>155.33333333333331</ele><time>2026-04-09T13:14:13.001Z</time></trkpt><trkpt lat="44.8054196546349" lon="8.253655113405125"><ele>155.0</ele><time>2026-04-09T13:14:14.001Z</time></trkpt><trkpt lat="44.805573678272324" lon="8.253646264998382"><ele>155.0</ele><time>2026-04-09T13:14:15Z</time></trkpt><trkpt lat="44.80573514424009" lon="8.253637432862675"><ele>155.0</ele><time>2026-04-09T13:14:16Z</time></trkpt><trkpt lat="44.805900033633655" lon="8.253630571048514"><ele>155.0</ele><time>2026-04-09T13:14:17Z</time></trkpt><trkpt lat="44.806068069150705" lon="8.253620230385826"><ele>154.66666666666666</ele><time>2026-04-09T13:14:18Z</time></trkpt><trkpt lat="44.80623933414794" lon="8.253613309351028"><ele>154.33333333333334</ele><time>2026-04-09T13:14:19Z</time></trkpt><trkpt lat="44.806414332288554" lon="8.2536076673768"><ele>154.0</ele><time>2026-04-09T13:14:20Z</time></trkpt><trkpt lat="44.806592084584466" lon="8.253596513029523"><ele>154.0</ele><time>2026-04-09T13:14:21Z</time></trkpt><trkpt lat="44.80676727964115" lon="8.253584606747635"><ele>154.0</ele><time>2026-04-09T13:14:22Z</time></trkpt><trkpt lat="44.80694090659601" lon="8.253572364267717"><ele>154.0</ele><time>2026-04-09T13:14:23Z</time></trkpt><trkpt lat="44.8071135566929" lon="8.253562851116467"><ele>153.33333333333334</ele><time>2026-04-09T13:14:24Z</time></trkpt><trkpt lat="44.80728274617633" lon="8.25355078507188"><ele>152.66666666666666</ele><time>2026-04-09T13:14:25Z</time></trkpt><trkpt lat="44.807453147083976" lon="8.25354159871274"><ele>152.0</ele><time>2026-04-09T13:14:26Z</time></trkpt><trkpt lat="44.80762458341539" lon="8.253534224204637"><ele>152.33333333333331</ele><time>2026-04-09T13:14:27Z</time></trkpt><trkpt lat="44.80779999607965" lon="8.253528877077589"><ele>152.66666666666666</ele><time>2026-04-09T13:14:28Z</time></trkpt><trkpt lat="44.80797743014821" lon="8.253518506877159"><ele>153.0</ele><time>2026-04-09T13:14:29Z</time></trkpt><trkpt lat="44.808157695583745" lon="8.253508814343935"><ele>153.0</ele><time>2026-04-09T13:14:30Z</time></trkpt><trkpt lat="44.80834168040871" lon="8.253497440418904"><ele>153.0</ele><time>2026-04-09T13:14:31Z</time></trkpt><trkpt lat="44.80852798764693" lon="8.253487259572344"><ele>153.0</ele><time>2026-04-09T13:14:32Z</time></trkpt><trkpt lat="44.808715509149565" lon="8.253475636567684"><ele>152.66666666666666</ele><time>2026-04-09T13:14:33Z</time></trkpt><trkpt lat="44.80890478583176" lon="8.253464016940537"><ele>152.33333333333331</ele><time>2026-04-09T13:14:34Z</time></trkpt><trkpt lat="44.80909450807197" lon="8.253457128207094"><ele>152.0</ele><time>2026-04-09T13:14:35Z</time></trkpt><trkpt lat="44.809285138969834" lon="8.253449674776592"><ele>152.66666666666666</ele><time>2026-04-09T13:14:36Z</time></trkpt><trkpt lat="44.80947588710879" lon="8.25343921626141"><ele>153.33333333333334</ele><time>2026-04-09T13:14:37Z</time></trkpt><trkpt lat="44.80966724673165" lon="8.253423368603725"><ele>154.0</ele><time>2026-04-09T13:14:38Z</time></trkpt><trkpt lat="44.80985950033416" lon="8.253403032116303"><ele>154.0</ele><time>2026-04-09T13:14:39Z</time></trkpt><trkpt lat="44.810051383534514" lon="8.253373267696215"><ele>154.0</ele><time>2026-04-09T13:14:40Z</time></trkpt><trkpt lat="44.81024496125746" lon="8.253331666816978"><ele>154.0</ele><time>2026-04-09T13:14:41Z</time></trkpt><trkpt lat="44.81043160053933" lon="8.25327759988815"><ele>155.0</ele><time>2026-04-09T13:14:42Z</time></trkpt><trkpt lat="44.810618770284904" lon="8.253218373887043"><ele>156.0</ele><time>2026-04-09T13:14:43Z</time></trkpt><trkpt lat="44.81080589351372" lon="8.2531528295079"><ele>157.0</ele><time>2026-04-09T13:14:44Z</time></trkpt><trkpt lat="44.81099388377405" lon="8.25308434218575"><ele>157.0</ele><time>2026-04-09T13:14:45Z</time></trkpt><trkpt lat="44.81118108560438" lon="8.253005595209192"><ele>157.0</ele><time>2026-04-09T13:14:46Z</time></trkpt><trkpt lat="44.81136216734872" lon="8.252918140089875"><ele>157.0</ele><time>2026-04-09T13:14:47Z</time></trkpt><trkpt lat="44.81153828315074" lon="8.252815592820989"><ele>157.0</ele><time>2026-04-09T13:14:48Z</time></trkpt><trkpt lat="44.811710735452245" lon="8.252707767202411"><ele>157.0</ele><time>2026-04-09T13:14:49Z</time></trkpt><trkpt lat="44.81187996537772" lon="8.252581994715996"><ele>157.0</ele><time>2026-04-09T13:14:50Z</time></trkpt><trkpt lat="44.81204857949548" lon="8.252453991604405"><ele>155.66666666666669</ele><time>2026-04-09T13:14:51Z</time></trkpt><trkpt lat="44.81221292647208" lon="8.2523120661539"><ele>154.33333333333334</ele><time>2026-04-09T13:14:52Z</time></trkpt><trkpt lat="44.81237851945767" lon="8.252162710593328"><ele>153.0</ele><time>2026-04-09T13:14:53Z</time></trkpt><trkpt lat="44.81254025397182" lon="8.252007787237446"><ele>153.0</ele><time>2026-04-09T13:14:54Z</time></trkpt><trkpt lat="44.81269941696204" lon="8.251846205143178"><ele>153.0</ele><time>2026-04-09T13:14:55Z</time></trkpt><trkpt lat="44.812854011847804" lon="8.251681129344723"><ele>153.0</ele><time>2026-04-09T13:14:56Z</time></trkpt><trkpt lat="44.81300212630322" lon="8.251505517372458"><ele>154.33333333333334</ele><time>2026-04-09T13:14:57Z</time></trkpt><trkpt lat="44.813144172347975" lon="8.251322149891092"><ele>155.66666666666669</ele><time>2026-04-09T13:14:58Z</time></trkpt><trkpt lat="44.81327976176903" lon="8.251131996724803"><ele>157.0</ele><time>2026-04-09T13:14:59Z</time></trkpt><trkpt lat="44.81340570741367" lon="8.250940996172027"><ele>155.33333333333334</ele><time>2026-04-09T13:15:00Z</time></trkpt><trkpt lat="44.813526535259086" lon="8.250748022726142"><ele>153.66666666666666</ele><time>2026-04-09T13:15:01Z</time></trkpt><trkpt lat="44.81364299401914" lon="8.250548430750316"><ele>152.0</ele><time>2026-04-09T13:15:02Z</time></trkpt><trkpt lat="44.8137533350572" lon="8.250347407436577"><ele>152.0</ele><time>2026-04-09T13:15:03Z</time></trkpt><trkpt lat="44.81385776291307" lon="8.250142345606243"><ele>152.0</ele><time>2026-04-09T13:15:04Z</time></trkpt><trkpt lat="44.813954177822524" lon="8.249932790658454"><ele>152.0</ele><time>2026-04-09T13:15:05Z</time></trkpt><trkpt lat="44.814046270881896" lon="8.249718666374092"><ele>151.66666666666666</ele><time>2026-04-09T13:15:06Z</time></trkpt><trkpt lat="44.81413493700021" lon="8.24950376860538"><ele>151.33333333333334</ele><time>2026-04-09T13:15:07Z</time></trkpt><trkpt lat="44.81421996489293" lon="8.249288306024308"><ele>151.0</ele><time>2026-04-09T13:15:08Z</time></trkpt><trkpt lat="44.81429426097498" lon="8.24906743215781"><ele>150.0</ele><time>2026-04-09T13:15:09Z</time></trkpt><trkpt lat="44.81436285710218" lon="8.248844469256122"><ele>149.0</ele><time>2026-04-09T13:15:10Z</time></trkpt><trkpt lat="44.81442713489935" lon="8.248618066309396"><ele>148.0</ele><time>2026-04-09T13:15:11Z</time></trkpt><trkpt lat="44.814486480739696" lon="8.248395330476955"><ele>148.0</ele><time>2026-04-09T13:15:12Z</time></trkpt><trkpt lat="44.81454331122466" lon="8.248173795870253"><ele>148.0</ele><time>2026-04-09T13:15:13Z</time></trkpt><trkpt lat="44.814596356634524" lon="8.247955477098042"><ele>148.0</ele><time>2026-04-09T13:15:14Z</time></trkpt><trkpt lat="44.81464667872714" lon="8.247741209108863"><ele>148.33333333333334</ele><time>2026-04-09T13:15:15Z</time></trkpt><trkpt lat="44.8146958559493" lon="8.247529287210169"><ele>148.66666666666666</ele><time>2026-04-09T13:15:16Z</time></trkpt><trkpt lat="44.81475620203035" lon="8.24733030674081"><ele>149.0</ele><time>2026-04-09T13:15:17Z</time></trkpt><trkpt lat="44.81480446451444" lon="8.247130659423085"><ele>149.0</ele><time>2026-04-09T13:15:18Z</time></trkpt><trkpt lat="44.8148516855365" lon="8.24693532063056"><ele>149.0</ele><time>2026-04-09T13:15:19Z</time></trkpt><trkpt lat="44.81489705573383" lon="8.24674763802422"><ele>149.0</ele><time>2026-04-09T13:15:20.001Z</time></trkpt><trkpt lat="44.8149403489668" lon="8.24656854725004"><ele>149.0</ele><time>2026-04-09T13:15:21.001Z</time></trkpt><trkpt lat="44.81496799691211" lon="8.246385347617585"><ele>149.5</ele><time>2026-04-09T13:15:22.001Z</time></trkpt><trkpt lat="44.81502608471073" lon="8.246220728603543"><ele>150.0</ele><time>2026-04-09T13:15:23.001Z</time></trkpt><trkpt lat="44.815063255607285" lon="8.24605632436184"><ele>150.5</ele><time>2026-04-09T13:15:24.001Z</time></trkpt><trkpt lat="44.815098625859086" lon="8.245894107393461"><ele>151.0</ele><time>2026-04-09T13:15:25.001Z</time></trkpt><trkpt lat="44.81513740338346" lon="8.245737320994428"><ele>150.8</ele><time>2026-04-09T13:15:26.001Z</time></trkpt><trkpt lat="44.81517783440042" lon="8.245586598123298"><ele>150.6</ele><time>2026-04-09T13:15:27.001Z</time></trkpt><trkpt lat="44.815213474349484" lon="8.245445568649933"><ele>150.4</ele><time>2026-04-09T13:15:28.001Z</time></trkpt><trkpt lat="44.81523278950794" lon="8.245312593447089"><ele>150.2</ele><time>2026-04-09T13:15:29.001Z</time></trkpt><trkpt lat="44.81528735987234" lon="8.245145451032014"><ele>150.0</ele><time>2026-04-09T13:15:31.001Z</time></trkpt><trkpt lat="44.8153326473708" lon="8.244961863648802"><ele>150.0</ele><time>2026-04-09T13:15:33.001Z</time></trkpt><trkpt lat="44.81536634866256" lon="8.244825118183956"><ele>150.0</ele><time>2026-04-09T13:15:34.001Z</time></trkpt><trkpt lat="44.8154047595452" lon="8.244669093811751"><ele>150.0</ele><time>2026-04-09T13:15:35.001Z</time></trkpt><trkpt lat="44.81544555501617" lon="8.244503383304528"><ele>150.0</ele><time>2026-04-09T13:15:36.001Z</time></trkpt><trkpt lat="44.81548934002602" lon="8.244325529110373"><ele>150.0</ele><time>2026-04-09T13:15:37.001Z</time></trkpt><trkpt lat="44.815531474406505" lon="8.244154200234084"><ele>150.0</ele><time>2026-04-09T13:15:38.001Z</time></trkpt><trkpt lat="44.815569973194094" lon="8.243997202532944"><ele>150.0</ele><time>2026-04-09T13:15:39.001Z</time></trkpt><trkpt lat="44.81560802156914" lon="8.243842041630808"><ele>150.0</ele><time>2026-04-09T13:15:40.001Z</time></trkpt><trkpt lat="44.815644709108724" lon="8.243692430621085"><ele>150.0</ele><time>2026-04-09T13:15:41.001Z</time></trkpt><trkpt lat="44.81568388545297" lon="8.243532670049255"><ele>150.0</ele><time>2026-04-09T13:15:42.001Z</time></trkpt><trkpt lat="44.8157272027996" lon="8.243356022266493"><ele>150.0</ele><time>2026-04-09T13:15:43.001Z</time></trkpt><trkpt lat="44.81576310570988" lon="8.243152321355083"><ele>150.0</ele><time>2026-04-09T13:15:44.001Z</time></trkpt><trkpt lat="44.81581509535625" lon="8.242939451797557"><ele>150.66666666666666</ele><time>2026-04-09T13:15:45.001Z</time></trkpt><trkpt lat="44.81586851881895" lon="8.242712666750252"><ele>151.33333333333331</ele><time>2026-04-09T13:15:46.001Z</time></trkpt><trkpt lat="44.81592638873597" lon="8.242479855116587"><ele>152.0</ele><time>2026-04-09T13:15:47.001Z</time></trkpt><trkpt lat="44.81598317158004" lon="8.24224592259417"><ele>151.33333333333331</ele><time>2026-04-09T13:15:48.001Z</time></trkpt><trkpt lat="44.81604003049203" lon="8.242011962951041"><ele>150.66666666666666</ele><time>2026-04-09T13:15:49.001Z</time></trkpt><trkpt lat="44.81609725947258" lon="8.241782781794731"><ele>150.0</ele><time>2026-04-09T13:15:50.001Z</time></trkpt><trkpt lat="44.816152782635854" lon="8.24155889429335"><ele>150.0</ele><time>2026-04-09T13:15:51.001Z</time></trkpt><trkpt lat="44.81620779453979" lon="8.241345843623876"><ele>150.0</ele><time>2026-04-09T13:15:52.001Z</time></trkpt><trkpt lat="44.81625749089156" lon="8.241140083450054"><ele>150.0</ele><time>2026-04-09T13:15:53.001Z</time></trkpt><trkpt lat="44.81630928214417" lon="8.240945309432025"><ele>150.0</ele><time>2026-04-09T13:15:54.001Z</time></trkpt><trkpt lat="44.816360839091324" lon="8.240754099702439"><ele>150.0</ele><time>2026-04-09T13:15:55.001Z</time></trkpt><trkpt lat="44.81640860922012" lon="8.240571445123617"><ele>150.0</ele><time>2026-04-09T13:15:56.001Z</time></trkpt><trkpt lat="44.81645162559388" lon="8.240406754682086"><ele>150.0</ele><time>2026-04-09T13:15:57.001Z</time></trkpt><trkpt lat="44.816496928374455" lon="8.240259642947192"><ele>150.33333333333334</ele><time>2026-04-09T13:15:58.001Z</time></trkpt><trkpt lat="44.81654302623316" lon="8.240120809434405"><ele>150.66666666666666</ele><time>2026-04-09T13:15:59.001Z</time></trkpt><trkpt lat="44.81658937127739" lon="8.239998470923151"><ele>151.0</ele><time>2026-04-09T13:16:00.001Z</time></trkpt><trkpt lat="44.816631128755006" lon="8.239901278313024"><ele>151.33333333333331</ele><time>2026-04-09T13:16:01.001Z</time></trkpt><trkpt lat="44.81668401745211" lon="8.23982601835319"><ele>151.66666666666666</ele><time>2026-04-09T13:16:02.001Z</time></trkpt><trkpt lat="44.8167543672745" lon="8.239763680167098"><ele>152.0</ele><time>2026-04-09T13:16:03.001Z</time></trkpt><trkpt lat="44.81678764636602" lon="8.239672199501287"><ele>152.0</ele><time>2026-04-09T13:16:04.001Z</time></trkpt><trkpt lat="44.81682243624575" lon="8.239567406864984"><ele>152.0</ele><time>2026-04-09T13:16:05.001Z</time></trkpt><trkpt lat="44.816862591939724" lon="8.23944976089501"><ele>152.0</ele><time>2026-04-09T13:16:06.001Z</time></trkpt><trkpt lat="44.81690005823866" lon="8.239341169850595"><ele>152.0</ele><time>2026-04-09T13:16:07.001Z</time></trkpt><trkpt lat="44.81692104842265" lon="8.239221661044983"><ele>152.0</ele><time>2026-04-09T13:16:08.001Z</time></trkpt><trkpt lat="44.81693406363735" lon="8.239066939479592"><ele>152.0</ele><time>2026-04-09T13:16:09.001Z</time></trkpt><trkpt lat="44.81697517013691" lon="8.238909724460976"><ele>152.0</ele><time>2026-04-09T13:16:10.001Z</time></trkpt><trkpt lat="44.817033665832696" lon="8.238753918121251"><ele>152.0</ele><time>2026-04-09T13:16:11.001Z</time></trkpt><trkpt lat="44.817092455497395" lon="8.238602502922419"><ele>152.0</ele><time>2026-04-09T13:16:12.001Z</time></trkpt><trkpt lat="44.81715409823412" lon="8.238446866698624"><ele>152.0</ele><time>2026-04-09T13:16:13.001Z</time></trkpt><trkpt lat="44.81721465598319" lon="8.238288434743637"><ele>152.0</ele><time>2026-04-09T13:16:14.001Z</time></trkpt><trkpt lat="44.81727291504732" lon="8.238133179383668"><ele>152.0</ele><time>2026-04-09T13:16:15.001Z</time></trkpt><trkpt lat="44.8173327704301" lon="8.237980685327557"><ele>152.0</ele><time>2026-04-09T13:16:16.001Z</time></trkpt><trkpt lat="44.81739365019866" lon="8.237831138408128"><ele>152.5</ele><time>2026-04-09T13:16:17.001Z</time></trkpt><trkpt lat="44.81745460266274" lon="8.237684427751324"><ele>153.0</ele><time>2026-04-09T13:16:18.001Z</time></trkpt><trkpt lat="44.81751663838311" lon="8.237540432437967"><ele>153.5</ele><time>2026-04-09T13:16:19.001Z</time></trkpt><trkpt lat="44.81757850024797" lon="8.237397764619352"><ele>154.0</ele><time>2026-04-09T13:16:20.001Z</time></trkpt><trkpt lat="44.81764215545334" lon="8.237257868986866"><ele>154.0</ele><time>2026-04-09T13:16:21Z</time></trkpt><trkpt lat="44.81770819522711" lon="8.23712099656898"><ele>154.0</ele><time>2026-04-09T13:16:22Z</time></trkpt><trkpt lat="44.81777788358502" lon="8.236976857581407"><ele>154.0</ele><time>2026-04-09T13:16:23Z</time></trkpt><trkpt lat="44.81784696703584" lon="8.236833750358251"><ele>154.0</ele><time>2026-04-09T13:16:24Z</time></trkpt><trkpt lat="44.817912073726326" lon="8.236704638157061"><ele>154.0</ele><time>2026-04-09T13:16:25Z</time></trkpt><trkpt lat="44.81797426993359" lon="8.236586278847048"><ele>154.0</ele><time>2026-04-09T13:16:26Z</time></trkpt><trkpt lat="44.81802740589119" lon="8.23648502932791"><ele>154.0</ele><time>2026-04-09T13:16:27Z</time></trkpt><trkpt lat="44.81807608758512" lon="8.236396387203685"><ele>154.0</ele><time>2026-04-09T13:16:28Z</time></trkpt><trkpt lat="44.81812009275546" lon="8.236314561108095"><ele>154.0</ele><time>2026-04-09T13:16:29Z</time></trkpt><trkpt lat="44.818159199522256" lon="8.236239468206213"><ele>154.0</ele><time>2026-04-09T13:16:30Z</time></trkpt><trkpt lat="44.81820974582646" lon="8.236139171409258"><ele>154.33333333333334</ele><time>2026-04-09T13:16:32Z</time></trkpt><trkpt lat="44.818251601592024" lon="8.236058536236436"><ele>154.66666666666669</ele><time>2026-04-09T13:16:34Z</time></trkpt><trkpt lat="44.818308186673946" lon="8.235968114635693"><ele>155.0</ele><time>2026-04-09T13:16:37Z</time></trkpt><trkpt lat="44.81835401722217" lon="8.235894558886788"><ele>155.33333333333334</ele><time>2026-04-09T13:16:39Z</time></trkpt><trkpt lat="44.81841032621303" lon="8.235788641787417"><ele>155.66666666666666</ele><time>2026-04-09T13:16:41Z</time></trkpt><trkpt lat="44.81846884800954" lon="8.235687010259072"><ele>156.0</ele><time>2026-04-09T13:16:43Z</time></trkpt><trkpt lat="44.81853015945543" lon="8.235586625362718"><ele>156.0</ele><time>2026-04-09T13:16:45Z</time></trkpt><trkpt lat="44.81856993347924" lon="8.235485506943492"><ele>156.0</ele><time>2026-04-09T13:16:48Z</time></trkpt><trkpt lat="44.81862406182853" lon="8.235368799522451"><ele>156.0</ele><time>2026-04-09T13:16:51Z</time></trkpt><trkpt lat="44.81867395647683" lon="8.235286964879027"><ele>156.0</ele><time>2026-04-09T13:16:53Z</time></trkpt><trkpt lat="44.8187293746461" lon="8.235181899081375"><ele>156.0</ele><time>2026-04-09T13:16:55Z</time></trkpt><trkpt lat="44.818832401910946" lon="8.235118214936193"><ele>156.0</ele><time>2026-04-09T13:16:57Z</time></trkpt><trkpt lat="44.81895455392437" lon="8.235210961703471"><ele>156.0</ele><time>2026-04-09T13:16:59Z</time></trkpt><trkpt lat="44.81902894684184" lon="8.235248420377815"><ele>156.0</ele><time>2026-04-09T13:17:00Z</time></trkpt><trkpt lat="44.819097819074116" lon="8.235309503748393"><ele>156.0</ele><time>2026-04-09T13:17:01Z</time></trkpt><trkpt lat="44.81917161037414" lon="8.235372442175672"><ele>156.0</ele><time>2026-04-09T13:17:02Z</time></trkpt><trkpt lat="44.819249878998484" lon="8.235433399746059"><ele>155.83333333333334</ele><time>2026-04-09T13:17:03Z</time></trkpt><trkpt lat="44.81932960529417" lon="8.235494758845983"><ele>155.66666666666666</ele><time>2026-04-09T13:17:04Z</time></trkpt><trkpt lat="44.81940835337986" lon="8.23555415872683"><ele>155.5</ele><time>2026-04-09T13:17:05Z</time></trkpt><trkpt lat="44.81948419651211" lon="8.235612226643944"><ele>155.33333333333331</ele><time>2026-04-09T13:17:06Z</time></trkpt><trkpt lat="44.819557460683725" lon="8.235670943076073"><ele>155.16666666666666</ele><time>2026-04-09T13:17:07Z</time></trkpt><trkpt lat="44.819628779655226" lon="8.235727345914714"><ele>155.0</ele><time>2026-04-09T13:17:08Z</time></trkpt><trkpt lat="44.8196934723202" lon="8.235778894572324"><ele>155.4</ele><time>2026-04-09T13:17:09Z</time></trkpt><trkpt lat="44.81978372463076" lon="8.235868639580602"><ele>155.8</ele><time>2026-04-09T13:17:11Z</time></trkpt><trkpt lat="44.819850624636885" lon="8.235926977787326"><ele>156.2</ele><time>2026-04-09T13:17:13Z</time></trkpt><trkpt lat="44.819911498620336" lon="8.235963887972213"><ele>156.6</ele><time>2026-04-09T13:17:16Z</time></trkpt><trkpt lat="44.82002988256995" lon="8.235873084053782"><ele>157.0</ele><time>2026-04-09T13:17:19Z</time></trkpt><trkpt lat="44.820076201671434" lon="8.235777271386914"><ele>157.0</ele><time>2026-04-09T13:17:20Z</time></trkpt><trkpt lat="44.820123834179874" lon="8.235690976293345"><ele>157.0</ele><time>2026-04-09T13:17:21Z</time></trkpt><trkpt lat="44.82018317048104" lon="8.235599016650982"><ele>157.0</ele><time>2026-04-09T13:17:22Z</time></trkpt><trkpt lat="44.82025209587775" lon="8.235495853028226"><ele>157.0</ele><time>2026-04-09T13:17:23Z</time></trkpt><trkpt lat="44.820329495739315" lon="8.2353794719351"><ele>157.0</ele><time>2026-04-09T13:17:24Z</time></trkpt><trkpt lat="44.820406451979494" lon="8.235256551122927"><ele>157.5</ele><time>2026-04-09T13:17:25Z</time></trkpt><trkpt lat="44.82048793041667" lon="8.235129188027674"><ele>158.0</ele><time>2026-04-09T13:17:26Z</time></trkpt><trkpt lat="44.820570964840904" lon="8.235001826097143"><ele>158.5</ele><time>2026-04-09T13:17:27Z</time></trkpt><trkpt lat="44.820652919326356" lon="8.23487942286401"><ele>159.0</ele><time>2026-04-09T13:17:28Z</time></trkpt><trkpt lat="44.82072712678749" lon="8.234753693453788"><ele>159.0</ele><time>2026-04-09T13:17:29Z</time></trkpt><trkpt lat="44.8208023558495" lon="8.234634898998278"><ele>159.0</ele><time>2026-04-09T13:17:30Z</time></trkpt><trkpt lat="44.82087699544174" lon="8.234517684364814"><ele>159.0</ele><time>2026-04-09T13:17:31Z</time></trkpt><trkpt lat="44.82094758448539" lon="8.234404012712623"><ele>159.0</ele><time>2026-04-09T13:17:32Z</time></trkpt><trkpt lat="44.82101723027435" lon="8.234293433258518"><ele>159.0</ele><time>2026-04-09T13:17:33.001Z</time></trkpt><trkpt lat="44.82108815130997" lon="8.234172240101682"><ele>159.0</ele><time>2026-04-09T13:17:34.001Z</time></trkpt><trkpt lat="44.821166567300416" lon="8.234051891821151"><ele>159.0</ele><time>2026-04-09T13:17:35.001Z</time></trkpt><trkpt lat="44.821235082437624" lon="8.233940229868736"><ele>159.0</ele><time>2026-04-09T13:17:36.001Z</time></trkpt><trkpt lat="44.82129339292156" lon="8.233844291568962"><ele>159.0</ele><time>2026-04-09T13:17:37.001Z</time></trkpt><trkpt lat="44.821344249530505" lon="8.233775818295188"><ele>159.0</ele><time>2026-04-09T13:17:38.001Z</time></trkpt><trkpt lat="44.82141595399103" lon="8.233723056219677"><ele>159.0</ele><time>2026-04-09T13:17:40.001Z</time></trkpt><trkpt lat="44.82146628784717" lon="8.233858804835561"><ele>159.0</ele><time>2026-04-09T13:17:43.001Z</time></trkpt><trkpt lat="44.82143155194664" lon="8.23393965925086"><ele>159.0</ele><time>2026-04-09T13:17:44.001Z</time></trkpt><trkpt lat="44.82136106226596" lon="8.234011762590333"><ele>159.0</ele><time>2026-04-09T13:17:45.001Z</time></trkpt><trkpt lat="44.821329836051035" lon="8.234132411817283"><ele>159.0</ele><time>2026-04-09T13:17:46.001Z</time></trkpt><trkpt lat="44.82127372436712" lon="8.234264420199928"><ele>159.0</ele><time>2026-04-09T13:17:47.001Z</time></trkpt><trkpt lat="44.82121139421128" lon="8.234420369210977"><ele>159.0</ele><time>2026-04-09T13:17:48.001Z</time></trkpt><trkpt lat="44.82114404496745" lon="8.234592094531829"><ele>159.0</ele><time>2026-04-09T13:17:49.001Z</time></trkpt><trkpt lat="44.821072300499814" lon="8.234770989027707"><ele>159.0</ele><time>2026-04-09T13:17:50.001Z</time></trkpt><trkpt lat="44.82099978881273" lon="8.234941062248646"><ele>159.0</ele><time>2026-04-09T13:17:51.001Z</time></trkpt><trkpt lat="44.82093210701741" lon="8.23510299714843"><ele>159.0</ele><time>2026-04-09T13:17:52.001Z</time></trkpt><trkpt lat="44.82086272510498" lon="8.235257596595298"><ele>159.0</ele><time>2026-04-09T13:17:53.001Z</time></trkpt><trkpt lat="44.82080346401539" lon="8.235405410966106"><ele>159.0</ele><time>2026-04-09T13:17:54.001Z</time></trkpt><trkpt lat="44.820747965534856" lon="8.235541756905503"><ele>160.4</ele><time>2026-04-09T13:17:55.001Z</time></trkpt><trkpt lat="44.82069821107602" lon="8.23566731964617"><ele>161.8</ele><time>2026-04-09T13:17:56.001Z</time></trkpt><trkpt lat="44.82064391952997" lon="8.235771083273914"><ele>163.20000000000002</ele><time>2026-04-09T13:17:57.001Z</time></trkpt><trkpt lat="44.82060032678502" lon="8.235874844072391"><ele>164.60000000000002</ele><time>2026-04-09T13:17:58.001Z</time></trkpt><trkpt lat="44.82056069999586" lon="8.235969160221172"><ele>166.0</ele><time>2026-04-09T13:17:59.001Z</time></trkpt><trkpt lat="44.820666686769705" lon="8.23615583753709"><ele>166.0</ele><time>2026-04-09T13:18:00.001Z</time></trkpt><trkpt lat="44.820723435575786" lon="8.236260957773302"><ele>166.0</ele><time>2026-04-09T13:18:01.001Z</time></trkpt><trkpt lat="44.82081269230431" lon="8.236343880769832"><ele>166.0</ele><time>2026-04-09T13:18:02.001Z</time></trkpt><trkpt lat="44.820919202472126" lon="8.236408677345846"><ele>166.0</ele><time>2026-04-09T13:18:03.001Z</time></trkpt><trkpt lat="44.821034541226936" lon="8.236470192543361"><ele>166.0</ele><time>2026-04-09T13:18:04.001Z</time></trkpt><trkpt lat="44.8211509714165" lon="8.236536304901277"><ele>169.5</ele><time>2026-04-09T13:18:05.001Z</time></trkpt><trkpt lat="44.82126513593379" lon="8.236613153665886"><ele>173.0</ele><time>2026-04-09T13:18:06.001Z</time></trkpt><trkpt lat="44.82136996859226" lon="8.236705250123084"><ele>176.5</ele><time>2026-04-09T13:18:07.001Z</time></trkpt><trkpt lat="44.82145492557766" lon="8.236820465916972"><ele>180.0</ele><time>2026-04-09T13:18:08.001Z</time></trkpt><trkpt lat="44.82150638333065" lon="8.236951418051575"><ele>180.0</ele><time>2026-04-09T13:18:09.001Z</time></trkpt><trkpt lat="44.821556499227796" lon="8.237100164254173"><ele>180.0</ele><time>2026-04-09T13:18:10.001Z</time></trkpt><trkpt lat="44.821607896418215" lon="8.237263747128175"><ele>180.0</ele><time>2026-04-09T13:18:11.001Z</time></trkpt><trkpt lat="44.82165422099506" lon="8.237439518790646"><ele>180.0</ele><time>2026-04-09T13:18:12.001Z</time></trkpt><trkpt lat="44.82169907740237" lon="8.237603137645818"><ele>179.75</ele><time>2026-04-09T13:18:13.001Z</time></trkpt><trkpt lat="44.82174390907489" lon="8.237780843542552"><ele>179.5</ele><time>2026-04-09T13:18:14.001Z</time></trkpt><trkpt lat="44.8217951566606" lon="8.237959728053438"><ele>179.25</ele><time>2026-04-09T13:18:15.001Z</time></trkpt><trkpt lat="44.821831439688545" lon="8.238147381038482"><ele>179.0</ele><time>2026-04-09T13:18:16.001Z</time></trkpt><trkpt lat="44.82187936211067" lon="8.238323766664145"><ele>182.25</ele><time>2026-04-09T13:18:17.001Z</time></trkpt><trkpt lat="44.8219265335127" lon="8.238497388156482"><ele>185.5</ele><time>2026-04-09T13:18:18.001Z</time></trkpt><trkpt lat="44.821971313665045" lon="8.238665159288786"><ele>188.75</ele><time>2026-04-09T13:18:19.001Z</time></trkpt><trkpt lat="44.82202294405797" lon="8.238815564609794"><ele>192.0</ele><time>2026-04-09T13:18:20.001Z</time></trkpt><trkpt lat="44.82206295996663" lon="8.23895188148863"><ele>191.2</ele><time>2026-04-09T13:18:21.001Z</time></trkpt><trkpt lat="44.822112316211786" lon="8.239057891850793"><ele>190.39999999999998</ele><time>2026-04-09T13:18:22.001Z</time></trkpt><trkpt lat="44.822180794473276" lon="8.23914047610124"><ele>189.60000000000002</ele><time>2026-04-09T13:18:23.001Z</time></trkpt><trkpt lat="44.82226849787607" lon="8.239190248904556"><ele>188.8</ele><time>2026-04-09T13:18:24.001Z</time></trkpt><trkpt lat="44.822369964157225" lon="8.239198669849829"><ele>188.0</ele><time>2026-04-09T13:18:25.001Z</time></trkpt><trkpt lat="44.82246604898063" lon="8.239153375663792"><ele>188.0</ele><time>2026-04-09T13:18:26.001Z</time></trkpt><trkpt lat="44.82254364769015" lon="8.23907183614884"><ele>188.0</ele><time>2026-04-09T13:18:27Z</time></trkpt><trkpt lat="44.82259152220017" lon="8.238963507604126"><ele>188.0</ele><time>2026-04-09T13:18:28Z</time></trkpt><trkpt lat="44.8226182315286" lon="8.238830440128249"><ele>188.0</ele><time>2026-04-09T13:18:29Z</time></trkpt><trkpt lat="44.82261002715929" lon="8.238678739657148"><ele>188.0</ele><time>2026-04-09T13:18:30Z</time></trkpt><trkpt lat="44.82257441492401" lon="8.238524544875432"><ele>189.0</ele><time>2026-04-09T13:18:31Z</time></trkpt><trkpt lat="44.82253330781624" lon="8.238365618578385"><ele>190.0</ele><time>2026-04-09T13:18:32Z</time></trkpt><trkpt lat="44.82249824042245" lon="8.238197497104935"><ele>191.0</ele><time>2026-04-09T13:18:33Z</time></trkpt><trkpt lat="44.8224769792947" lon="8.238019836011318"><ele>192.0</ele><time>2026-04-09T13:18:34Z</time></trkpt><trkpt lat="44.82246927724976" lon="8.237840401994848"><ele>193.0</ele><time>2026-04-09T13:18:35Z</time></trkpt><trkpt lat="44.82246608938406" lon="8.237650971106508"><ele>194.0</ele><time>2026-04-09T13:18:36Z</time></trkpt><trkpt lat="44.82247014140419" lon="8.237449571846279"><ele>195.0</ele><time>2026-04-09T13:18:37Z</time></trkpt><trkpt lat="44.8224837992103" lon="8.237240011865442"><ele>196.0</ele><time>2026-04-09T13:18:38Z</time></trkpt><trkpt lat="44.82249667607316" lon="8.237039846532124"><ele>195.5</ele><time>2026-04-09T13:18:39Z</time></trkpt><trkpt lat="44.822506655844435" lon="8.23685042588939"><ele>195.0</ele><time>2026-04-09T13:18:40Z</time></trkpt><trkpt lat="44.822511609964025" lon="8.23667233801515"><ele>194.5</ele><time>2026-04-09T13:18:41Z</time></trkpt><trkpt lat="44.822515649977" lon="8.236502932167767"><ele>194.0</ele><time>2026-04-09T13:18:42Z</time></trkpt><trkpt lat="44.822523120981515" lon="8.236343135159746"><ele>194.00000000000003</ele><time>2026-04-09T13:18:43Z</time></trkpt><trkpt lat="44.82254528595826" lon="8.236212365955371"><ele>194.0</ele><time>2026-04-09T13:18:44Z</time></trkpt><trkpt lat="44.82254287079715" lon="8.23610141379126"><ele>194.0</ele><time>2026-04-09T13:18:45Z</time></trkpt><trkpt lat="44.82257815399236" lon="8.236015557059634"><ele>194.0</ele><time>2026-04-09T13:18:46Z</time></trkpt><trkpt lat="44.822631500423675" lon="8.235968096701301"><ele>194.00000000000003</ele><time>2026-04-09T13:18:47Z</time></trkpt><trkpt lat="44.82270344254715" lon="8.235957109254255"><ele>194.0</ele><time>2026-04-09T13:18:48Z</time></trkpt><trkpt lat="44.82277341935889" lon="8.235991452749904"><ele>193.2</ele><time>2026-04-09T13:18:49Z</time></trkpt><trkpt lat="44.82282891021955" lon="8.236072887412362"><ele>192.39999999999998</ele><time>2026-04-09T13:18:50Z</time></trkpt><trkpt lat="44.82283540569937" lon="8.236201295092336"><ele>191.6</ele><time>2026-04-09T13:18:51Z</time></trkpt><trkpt lat="44.822828849951875" lon="8.23631467720081"><ele>190.8</ele><time>2026-04-09T13:18:52Z</time></trkpt><trkpt lat="44.82282684443539" lon="8.236448991771024"><ele>190.0</ele><time>2026-04-09T13:18:53Z</time></trkpt><trkpt lat="44.82280328627633" lon="8.236596883625515"><ele>194.0</ele><time>2026-04-09T13:18:54Z</time></trkpt><trkpt lat="44.82279254123897" lon="8.236758261272758"><ele>198.0</ele><time>2026-04-09T13:18:55Z</time></trkpt><trkpt lat="44.82280062827583" lon="8.236929972064123"><ele>202.0</ele><time>2026-04-09T13:18:56Z</time></trkpt><trkpt lat="44.82283041526594" lon="8.23710242516843"><ele>206.0</ele><time>2026-04-09T13:18:57Z</time></trkpt><trkpt lat="44.82286012819981" lon="8.23728120478804"><ele>208.5</ele><time>2026-04-09T13:18:58Z</time></trkpt><trkpt lat="44.82290571651115" lon="8.237451853601298"><ele>211.0</ele><time>2026-04-09T13:18:59Z</time></trkpt><trkpt lat="44.82295051496063" lon="8.237620395581477"><ele>213.5</ele><time>2026-04-09T13:19:00Z</time></trkpt><trkpt lat="44.82299374655371" lon="8.237785715418607"><ele>216.0</ele><time>2026-04-09T13:19:01Z</time></trkpt><trkpt lat="44.82304079884627" lon="8.237942137108284"><ele>216.0</ele><time>2026-04-09T13:19:02Z</time></trkpt><trkpt lat="44.823099123903695" lon="8.238079270624443"><ele>216.0</ele><time>2026-04-09T13:19:03Z</time></trkpt><trkpt lat="44.823148818002835" lon="8.238221655409584"><ele>216.0</ele><time>2026-04-09T13:19:04Z</time></trkpt><trkpt lat="44.8232249911868" lon="8.238347109852851"><ele>216.0</ele><time>2026-04-09T13:19:05Z</time></trkpt><trkpt lat="44.823313292457904" lon="8.238468579135253"><ele>215.5</ele><time>2026-04-09T13:19:06Z</time></trkpt><trkpt lat="44.82340376504236" lon="8.238592356057863"><ele>215.0</ele><time>2026-04-09T13:19:07Z</time></trkpt><trkpt lat="44.82349602886912" lon="8.23871858324693"><ele>214.5</ele><time>2026-04-09T13:19:08Z</time></trkpt><trkpt lat="44.823585103568334" lon="8.238835461245595"><ele>214.0</ele><time>2026-04-09T13:19:09Z</time></trkpt><trkpt lat="44.82366245596664" lon="8.238936052498621"><ele>214.83333333333331</ele><time>2026-04-09T13:19:10Z</time></trkpt><trkpt lat="44.823728323947044" lon="8.23902170891365"><ele>215.66666666666666</ele><time>2026-04-09T13:19:11Z</time></trkpt><trkpt lat="44.82379815633687" lon="8.239087531476272"><ele>216.5</ele><time>2026-04-09T13:19:12Z</time></trkpt><trkpt lat="44.823844871498416" lon="8.239160283089337"><ele>217.33333333333331</ele><time>2026-04-09T13:19:13Z</time></trkpt><trkpt lat="44.82388688200964" lon="8.239228423274387"><ele>218.16666666666666</ele><time>2026-04-09T13:19:14Z</time></trkpt><trkpt lat="44.82393227746648" lon="8.239309550062792"><ele>219.0</ele><time>2026-04-09T13:19:15Z</time></trkpt><trkpt lat="44.82394376801863" lon="8.239414306025798"><ele>219.0</ele><time>2026-04-09T13:19:16Z</time></trkpt><trkpt lat="44.82396422830797" lon="8.23952888903296"><ele>218.99999999999997</ele><time>2026-04-09T13:19:17Z</time></trkpt><trkpt lat="44.82399724349253" lon="8.239649559722784"><ele>218.99999999999997</ele><time>2026-04-09T13:19:18Z</time></trkpt><trkpt lat="44.82403796684908" lon="8.239773242612173"><ele>219.0</ele><time>2026-04-09T13:19:19Z</time></trkpt><trkpt lat="44.82412203195043" lon="8.239864962438364"><ele>219.0</ele><time>2026-04-09T13:19:20Z</time></trkpt><trkpt lat="44.82419590992014" lon="8.239956729935628"><ele>219.16666666666666</ele><time>2026-04-09T13:19:21Z</time></trkpt><trkpt lat="44.824277728948836" lon="8.240018418430928"><ele>219.33333333333331</ele><time>2026-04-09T13:19:22Z</time></trkpt><trkpt lat="44.824359267447996" lon="8.240057381196605"><ele>219.5</ele><time>2026-04-09T13:19:23Z</time></trkpt><trkpt lat="44.82442057146513" lon="8.240118516739667"><ele>219.66666666666666</ele><time>2026-04-09T13:19:24Z</time></trkpt><trkpt lat="44.82448856984769" lon="8.24015022993657"><ele>219.83333333333331</ele><time>2026-04-09T13:19:25Z</time></trkpt><trkpt lat="44.82454876737213" lon="8.24021664302318"><ele>220.0</ele><time>2026-04-09T13:19:26Z</time></trkpt><trkpt lat="44.82460110776027" lon="8.240299600794462"><ele>219.8</ele><time>2026-04-09T13:19:27Z</time></trkpt><trkpt lat="44.824621728924754" lon="8.240419475627125"><ele>219.6</ele><time>2026-04-09T13:19:28Z</time></trkpt><trkpt lat="44.82467265205429" lon="8.240535882386828"><ele>219.39999999999998</ele><time>2026-04-09T13:19:29Z</time></trkpt><trkpt lat="44.82471509663627" lon="8.240669085324365"><ele>219.2</ele><time>2026-04-09T13:19:30Z</time></trkpt><trkpt lat="44.82476232216191" lon="8.240805696608085"><ele>219.0</ele><time>2026-04-09T13:19:31Z</time></trkpt><trkpt lat="44.82481785957783" lon="8.240946353651672"><ele>219.0</ele><time>2026-04-09T13:19:32Z</time></trkpt><trkpt lat="44.82487075046099" lon="8.241073900425635"><ele>218.99999999999997</ele><time>2026-04-09T13:19:33Z</time></trkpt><trkpt lat="44.82493289099162" lon="8.241205662227102"><ele>218.99999999999997</ele><time>2026-04-09T13:19:34Z</time></trkpt><trkpt lat="44.82500474040581" lon="8.241331420858362"><ele>219.0</ele><time>2026-04-09T13:19:35Z</time></trkpt><trkpt lat="44.825053758492096" lon="8.241454810807136"><ele>219.0</ele><time>2026-04-09T13:19:36Z</time></trkpt><trkpt lat="44.82509326169721" lon="8.24157889072578"><ele>221.39999999999998</ele><time>2026-04-09T13:19:37Z</time></trkpt><trkpt lat="44.82511532464438" lon="8.241708821887542"><ele>223.79999999999998</ele><time>2026-04-09T13:19:38Z</time></trkpt><trkpt lat="44.825112400196396" lon="8.241847701644936"><ele>226.20000000000002</ele><time>2026-04-09T13:19:39Z</time></trkpt><trkpt lat="44.82509034806485" lon="8.241990649723508"><ele>228.60000000000002</ele><time>2026-04-09T13:19:40Z</time></trkpt><trkpt lat="44.825049111041196" lon="8.242131763396348"><ele>231.0</ele><time>2026-04-09T13:19:41Z</time></trkpt><trkpt lat="44.82498177467805" lon="8.242276716399159"><ele>230.5</ele><time>2026-04-09T13:19:42Z</time></trkpt><trkpt lat="44.8248877222074" lon="8.242414179167886"><ele>230.0</ele><time>2026-04-09T13:19:43Z</time></trkpt><trkpt lat="44.8247756034517" lon="8.242534215891762"><ele>229.5</ele><time>2026-04-09T13:19:44Z</time></trkpt><trkpt lat="44.82465431162643" lon="8.2426358228324"><ele>229.0</ele><time>2026-04-09T13:19:45Z</time></trkpt><trkpt lat="44.824550791536886" lon="8.242744944801244"><ele>229.0</ele><time>2026-04-09T13:19:46Z</time></trkpt><trkpt lat="44.82452433465455" lon="8.242934637836546"><ele>229.0</ele><time>2026-04-09T13:19:47Z</time></trkpt><trkpt lat="44.82445346144328" lon="8.24303674568766"><ele>229.0</ele><time>2026-04-09T13:19:48Z</time></trkpt><trkpt lat="44.824376450840276" lon="8.243203606845267"><ele>229.0</ele><time>2026-04-09T13:19:50Z</time></trkpt><trkpt lat="44.82433280633315" lon="8.243345879026062"><ele>228.5</ele><time>2026-04-09T13:19:51Z</time></trkpt><trkpt lat="44.82430256219779" lon="8.243516601426567"><ele>228.0</ele><time>2026-04-09T13:19:52Z</time></trkpt><trkpt lat="44.82426892523643" lon="8.24370356495001"><ele>227.5</ele><time>2026-04-09T13:19:53Z</time></trkpt><trkpt lat="44.8242645699242" lon="8.243895684360345"><ele>227.0</ele><time>2026-04-09T13:19:54Z</time></trkpt><trkpt lat="44.82425886489778" lon="8.244074354351127"><ele>227.0</ele><time>2026-04-09T13:19:55Z</time></trkpt><trkpt lat="44.824250790840246" lon="8.244244225609568"><ele>227.0</ele><time>2026-04-09T13:19:56Z</time></trkpt><trkpt lat="44.824236879459626" lon="8.244399417172732"><ele>227.0</ele><time>2026-04-09T13:19:57Z</time></trkpt><trkpt lat="44.82422090317004" lon="8.244551328069187"><ele>227.0</ele><time>2026-04-09T13:19:58Z</time></trkpt><trkpt lat="44.82419830454805" lon="8.244707253930773"><ele>227.5</ele><time>2026-04-09T13:19:59Z</time></trkpt><trkpt lat="44.824177235311474" lon="8.244871168889706"><ele>228.0</ele><time>2026-04-09T13:20:00Z</time></trkpt><trkpt lat="44.824162747174995" lon="8.245042886031916"><ele>228.5</ele><time>2026-04-09T13:20:01Z</time></trkpt><trkpt lat="44.824162787327765" lon="8.245226215978585"><ele>229.0</ele><time>2026-04-09T13:20:02Z</time></trkpt><trkpt lat="44.82415906883025" lon="8.245412390091996"><ele>229.0</ele><time>2026-04-09T13:20:03Z</time></trkpt><trkpt lat="44.8241505614325" lon="8.245585276861346"><ele>228.99999999999997</ele><time>2026-04-09T13:20:04.001Z</time></trkpt><trkpt lat="44.82414230594345" lon="8.245718835471793"><ele>228.99999999999997</ele><time>2026-04-09T13:20:05.001Z</time></trkpt><trkpt lat="44.82414263483747" lon="8.245832333632016"><ele>229.0</ele><time>2026-04-09T13:20:06.001Z</time></trkpt><trkpt lat="44.824156830894445" lon="8.24592202260529"><ele>229.0</ele><time>2026-04-09T13:20:07.001Z</time></trkpt><trkpt lat="44.82422759158232" lon="8.24606926179748"><ele>232.79999999999998</ele><time>2026-04-09T13:20:09.001Z</time></trkpt><trkpt lat="44.82432596328029" lon="8.24608125159297"><ele>236.59999999999997</ele><time>2026-04-09T13:20:10.001Z</time></trkpt><trkpt lat="44.824419103470824" lon="8.246096261612015"><ele>240.4</ele><time>2026-04-09T13:20:11.001Z</time></trkpt><trkpt lat="44.82452223368732" lon="8.246122135801189"><ele>244.2</ele><time>2026-04-09T13:20:12.001Z</time></trkpt><trkpt lat="44.824627696138265" lon="8.246164391625305"><ele>248.0</ele><time>2026-04-09T13:20:13.001Z</time></trkpt><trkpt lat="44.82473794936003" lon="8.246229205637738"><ele>248.0</ele><time>2026-04-09T13:20:14.001Z</time></trkpt><trkpt lat="44.82485093367089" lon="8.246320413333942"><ele>248.0</ele><time>2026-04-09T13:20:15.001Z</time></trkpt><trkpt lat="44.8249631943971" lon="8.246430607475439"><ele>248.0</ele><time>2026-04-09T13:20:16.001Z</time></trkpt><trkpt lat="44.82507642495409" lon="8.246545238857024"><ele>248.0</ele><time>2026-04-09T13:20:17.001Z</time></trkpt><trkpt lat="44.82518909022882" lon="8.246657527789742"><ele>248.5</ele><time>2026-04-09T13:20:18.001Z</time></trkpt><trkpt lat="44.82530248568464" lon="8.24676063722631"><ele>249.0</ele><time>2026-04-09T13:20:19.001Z</time></trkpt><trkpt lat="44.82540917565227" lon="8.246857573187548"><ele>249.5</ele><time>2026-04-09T13:20:20.001Z</time></trkpt><trkpt lat="44.82551154432594" lon="8.24695426246388"><ele>250.0</ele><time>2026-04-09T13:20:21.001Z</time></trkpt><trkpt lat="44.82560084630083" lon="8.247046819622602"><ele>250.0</ele><time>2026-04-09T13:20:22.001Z</time></trkpt><trkpt lat="44.8256856875837" lon="8.247148324021381"><ele>250.0</ele><time>2026-04-09T13:20:23.001Z</time></trkpt><trkpt lat="44.825768007383274" lon="8.247265684159236"><ele>250.0</ele><time>2026-04-09T13:20:24.001Z</time></trkpt><trkpt lat="44.82584410732901" lon="8.247403545238129"><ele>250.0</ele><time>2026-04-09T13:20:25.001Z</time></trkpt><trkpt lat="44.825913724987004" lon="8.247557610012791"><ele>249.5</ele><time>2026-04-09T13:20:26.001Z</time></trkpt><trkpt lat="44.825979638162956" lon="8.247720108876992"><ele>249.0</ele><time>2026-04-09T13:20:27.001Z</time></trkpt><trkpt lat="44.82603948210103" lon="8.24787330973824"><ele>248.5</ele><time>2026-04-09T13:20:28.001Z</time></trkpt><trkpt lat="44.826090505187565" lon="8.248011206116347"><ele>248.0</ele><time>2026-04-09T13:20:29.001Z</time></trkpt><trkpt lat="44.82613544572589" lon="8.248133920891684"><ele>248.00000000000003</ele><time>2026-04-09T13:20:30.001Z</time></trkpt><trkpt lat="44.826178437796315" lon="8.248234991470444"><ele>248.0</ele><time>2026-04-09T13:20:31.001Z</time></trkpt><trkpt lat="44.826233713376745" lon="8.248299266369088"><ele>248.0</ele><time>2026-04-09T13:20:32.001Z</time></trkpt><trkpt lat="44.82630130178054" lon="8.248323305798765"><ele>248.0</ele><time>2026-04-09T13:20:33Z</time></trkpt><trkpt lat="44.82638020488581" lon="8.248339066671003"><ele>248.00000000000003</ele><time>2026-04-09T13:20:34Z</time></trkpt><trkpt lat="44.82646247758657" lon="8.248349011191372"><ele>248.0</ele><time>2026-04-09T13:20:35Z</time></trkpt><trkpt lat="44.82653516660847" lon="8.248402504193688"><ele>248.0</ele><time>2026-04-09T13:20:36Z</time></trkpt><trkpt lat="44.826610192868564" lon="8.248479603992477"><ele>248.0</ele><time>2026-04-09T13:20:37Z</time></trkpt><trkpt lat="44.82666536709168" lon="8.248584984569868"><ele>248.0</ele><time>2026-04-09T13:20:38Z</time></trkpt><trkpt lat="44.8267425568225" lon="8.248769540093603"><ele>248.0</ele><time>2026-04-09T13:20:39Z</time></trkpt><trkpt lat="44.826811818114564" lon="8.24891342443891"><ele>245.60000000000002</ele><time>2026-04-09T13:20:40Z</time></trkpt><trkpt lat="44.826874674228705" lon="8.249037875038312"><ele>243.20000000000002</ele><time>2026-04-09T13:20:41Z</time></trkpt><trkpt lat="44.82692748457439" lon="8.24915111631206"><ele>240.8</ele><time>2026-04-09T13:20:42Z</time></trkpt><trkpt lat="44.82696579972449" lon="8.249275009624231"><ele>238.4</ele><time>2026-04-09T13:20:43Z</time></trkpt><trkpt lat="44.82698600431041" lon="8.249406463113022"><ele>236.0</ele><time>2026-04-09T13:20:44Z</time></trkpt><trkpt lat="44.82698525325592" lon="8.249537209123652"><ele>236.0</ele><time>2026-04-09T13:20:45Z</time></trkpt><trkpt lat="44.82696607100462" lon="8.249647217321739"><ele>236.00000000000003</ele><time>2026-04-09T13:20:46Z</time></trkpt><trkpt lat="44.82692073262019" lon="8.249753996371103"><ele>236.00000000000003</ele><time>2026-04-09T13:20:47Z</time></trkpt><trkpt lat="44.826870240887125" lon="8.249879433445326"><ele>236.0</ele><time>2026-04-09T13:20:48Z</time></trkpt><trkpt lat="44.82682968102488" lon="8.250027488935263"><ele>236.0</ele><time>2026-04-09T13:20:49Z</time></trkpt><trkpt lat="44.82677717298213" lon="8.250166037929118"><ele>241.5</ele><time>2026-04-09T13:20:50Z</time></trkpt><trkpt lat="44.82673978462815" lon="8.250321174216177"><ele>247.0</ele><time>2026-04-09T13:20:51Z</time></trkpt><trkpt lat="44.82673523960042" lon="8.250483812792883"><ele>252.5</ele><time>2026-04-09T13:20:52Z</time></trkpt><trkpt lat="44.82675297913553" lon="8.250646212812109"><ele>258.0</ele><time>2026-04-09T13:20:53Z</time></trkpt><trkpt lat="44.82678512373191" lon="8.250797229871292"><ele>255.4</ele><time>2026-04-09T13:20:54Z</time></trkpt><trkpt lat="44.8268373284436" lon="8.25093338747139"><ele>252.8</ele><time>2026-04-09T13:20:55Z</time></trkpt><trkpt lat="44.826904971496106" lon="8.251063102523355"><ele>250.2</ele><time>2026-04-09T13:20:56Z</time></trkpt><trkpt lat="44.826969440323545" lon="8.251184751478927"><ele>247.6</ele><time>2026-04-09T13:20:57Z</time></trkpt><trkpt lat="44.82704054286903" lon="8.251308913607748"><ele>245.0</ele><time>2026-04-09T13:20:58Z</time></trkpt><trkpt lat="44.82712722474833" lon="8.251423289698105"><ele>249.25</ele><time>2026-04-09T13:20:59Z</time></trkpt><trkpt lat="44.827235664129475" lon="8.251514487136209"><ele>253.5</ele><time>2026-04-09T13:21:00Z</time></trkpt><trkpt lat="44.827359019638045" lon="8.251592195488765"><ele>257.75</ele><time>2026-04-09T13:21:01Z</time></trkpt><trkpt lat="44.82749963067676" lon="8.251642755274624"><ele>262.0</ele><time>2026-04-09T13:21:02Z</time></trkpt><trkpt lat="44.82762023279922" lon="8.251720410304696"><ele>260.5</ele><time>2026-04-09T13:21:03Z</time></trkpt><trkpt lat="44.82774941814104" lon="8.251795897609977"><ele>259.0</ele><time>2026-04-09T13:21:04Z</time></trkpt><trkpt lat="44.82787771015446" lon="8.251874969647574"><ele>257.5</ele><time>2026-04-09T13:21:05Z</time></trkpt><trkpt lat="44.82800188752912" lon="8.25195168609001"><ele>256.0</ele><time>2026-04-09T13:21:06Z</time></trkpt><trkpt lat="44.828111359609224" lon="8.252031942536515"><ele>256.0</ele><time>2026-04-09T13:21:07Z</time></trkpt><trkpt lat="44.82821274283945" lon="8.252100594743352"><ele>256.0</ele><time>2026-04-09T13:21:08Z</time></trkpt><trkpt lat="44.8283256275202" lon="8.252162707506706"><ele>256.0</ele><time>2026-04-09T13:21:09Z</time></trkpt><trkpt lat="44.82845586325181" lon="8.252213058860386"><ele>256.0</ele><time>2026-04-09T13:21:10Z</time></trkpt><trkpt lat="44.828591690899785" lon="8.25224070582908"><ele>254.75</ele><time>2026-04-09T13:21:11Z</time></trkpt><trkpt lat="44.82873541894228" lon="8.252252183028821"><ele>253.5</ele><time>2026-04-09T13:21:12Z</time></trkpt><trkpt lat="44.82888447123042" lon="8.252259328818115"><ele>252.25</ele><time>2026-04-09T13:21:13Z</time></trkpt><trkpt lat="44.82903535230066" lon="8.252276576980302"><ele>251.0</ele><time>2026-04-09T13:21:14Z</time></trkpt><trkpt lat="44.82918475718689" lon="8.252297708626209"><ele>253.5</ele><time>2026-04-09T13:21:15Z</time></trkpt><trkpt lat="44.82933750107462" lon="8.252325486924436"><ele>256.0</ele><time>2026-04-09T13:21:16Z</time></trkpt><trkpt lat="44.829485114154906" lon="8.252349682018721"><ele>258.5</ele><time>2026-04-09T13:21:17Z</time></trkpt><trkpt lat="44.829621422615695" lon="8.252356864165561"><ele>261.0</ele><time>2026-04-09T13:21:18Z</time></trkpt><trkpt lat="44.82976036016721" lon="8.25235310541907"><ele>261.0</ele><time>2026-04-09T13:21:19Z</time></trkpt><trkpt lat="44.829906385807746" lon="8.252326424534845"><ele>261.0</ele><time>2026-04-09T13:21:20Z</time></trkpt><trkpt lat="44.83005132933281" lon="8.252293011922475"><ele>261.0</ele><time>2026-04-09T13:21:21Z</time></trkpt><trkpt lat="44.830192526391166" lon="8.252251802220211"><ele>261.0</ele><time>2026-04-09T13:21:22Z</time></trkpt><trkpt lat="44.83032775374073" lon="8.252208704407266"><ele>260.75</ele><time>2026-04-09T13:21:23Z</time></trkpt><trkpt lat="44.83045630347069" lon="8.252173853165267"><ele>260.5</ele><time>2026-04-09T13:21:24Z</time></trkpt><trkpt lat="44.83057341814391" lon="8.252117616300987"><ele>260.25</ele><time>2026-04-09T13:21:25Z</time></trkpt><trkpt lat="44.830690361476414" lon="8.252017578320055"><ele>260.0</ele><time>2026-04-09T13:21:26Z</time></trkpt><trkpt lat="44.83081012543553" lon="8.251903400542407"><ele>260.0</ele><time>2026-04-09T13:21:27Z</time></trkpt><trkpt lat="44.83094289470195" lon="8.251803380757234"><ele>260.0</ele><time>2026-04-09T13:21:28Z</time></trkpt><trkpt lat="44.83105957630082" lon="8.251664244108275"><ele>260.0</ele><time>2026-04-09T13:21:29Z</time></trkpt><trkpt lat="44.831182600751184" lon="8.251553884759494"><ele>260.0</ele><time>2026-04-09T13:21:30Z</time></trkpt><trkpt lat="44.83129403497655" lon="8.251455621094633"><ele>261.4</ele><time>2026-04-09T13:21:31Z</time></trkpt><trkpt lat="44.831390917421054" lon="8.25138138523188"><ele>262.8</ele><time>2026-04-09T13:21:32Z</time></trkpt><trkpt lat="44.831482356682734" lon="8.251339300753084"><ele>264.2</ele><time>2026-04-09T13:21:33Z</time></trkpt><trkpt lat="44.83157620140186" lon="8.251350654924359"><ele>265.6</ele><time>2026-04-09T13:21:34Z</time></trkpt><trkpt lat="44.83166247898207" lon="8.251389242188393"><ele>267.0</ele><time>2026-04-09T13:21:35Z</time></trkpt><trkpt lat="44.83174294797188" lon="8.251472041639198"><ele>263.75</ele><time>2026-04-09T13:21:36Z</time></trkpt><trkpt lat="44.83184287542235" lon="8.251556647799488"><ele>260.5</ele><time>2026-04-09T13:21:37Z</time></trkpt><trkpt lat="44.831942813453566" lon="8.251674970201435"><ele>257.25</ele><time>2026-04-09T13:21:38Z</time></trkpt><trkpt lat="44.83205649388039" lon="8.251790873996447"><ele>254.0</ele><time>2026-04-09T13:21:39Z</time></trkpt><trkpt lat="44.832170430927064" lon="8.251913043230665"><ele>254.0</ele><time>2026-04-09T13:21:40Z</time></trkpt><trkpt lat="44.8322863618649" lon="8.252035971395202"><ele>254.0</ele><time>2026-04-09T13:21:41Z</time></trkpt><trkpt lat="44.832398589146244" lon="8.252153349914172"><ele>254.0</ele><time>2026-04-09T13:21:42Z</time></trkpt><trkpt lat="44.832513607987785" lon="8.25225449278979"><ele>254.0</ele><time>2026-04-09T13:21:43Z</time></trkpt><trkpt lat="44.832627226361105" lon="8.252335392903"><ele>255.75</ele><time>2026-04-09T13:21:44Z</time></trkpt><trkpt lat="44.83274955458366" lon="8.252385840199466"><ele>257.5</ele><time>2026-04-09T13:21:45Z</time></trkpt><trkpt lat="44.832865870267305" lon="8.252429845090981"><ele>259.25</ele><time>2026-04-09T13:21:46Z</time></trkpt><trkpt lat="44.83298983712777" lon="8.252450415727406"><ele>261.0</ele><time>2026-04-09T13:21:47Z</time></trkpt><trkpt lat="44.833105376524124" lon="8.252490675758422"><ele>261.0</ele><time>2026-04-09T13:21:48Z</time></trkpt><trkpt lat="44.83321354546749" lon="8.252572993241916"><ele>261.0</ele><time>2026-04-09T13:21:49Z</time></trkpt><trkpt lat="44.83331532869896" lon="8.252688273400999"><ele>261.0</ele><time>2026-04-09T13:21:50Z</time></trkpt><trkpt lat="44.833415156676594" lon="8.252829272458989"><ele>261.0</ele><time>2026-04-09T13:21:51Z</time></trkpt><trkpt lat="44.83351228905165" lon="8.252982654255543"><ele>257.6666666666667</ele><time>2026-04-09T13:21:52Z</time></trkpt><trkpt lat="44.8336097400342" lon="8.253147391803518"><ele>254.33333333333334</ele><time>2026-04-09T13:21:53Z</time></trkpt><trkpt lat="44.833707563577605" lon="8.253315148315489"><ele>251.0</ele><time>2026-04-09T13:21:54Z</time></trkpt><trkpt lat="44.833806916537206" lon="8.253478264836112"><ele>251.0</ele><time>2026-04-09T13:21:55Z</time></trkpt><trkpt lat="44.83390623379577" lon="8.253639284233719"><ele>251.0</ele><time>2026-04-09T13:21:56Z</time></trkpt><trkpt lat="44.83399192769577" lon="8.25379891896863"><ele>251.0</ele><time>2026-04-09T13:21:57Z</time></trkpt><trkpt lat="44.83408504465331" lon="8.253947076007268"><ele>251.0</ele><time>2026-04-09T13:21:58Z</time></trkpt><trkpt lat="44.83417328730313" lon="8.254096865800742"><ele>252.5</ele><time>2026-04-09T13:21:59Z</time></trkpt><trkpt lat="44.83426168832736" lon="8.254244827778917"><ele>254.0</ele><time>2026-04-09T13:22:00Z</time></trkpt><trkpt lat="44.834346139629965" lon="8.254395320842535"><ele>255.5</ele><time>2026-04-09T13:22:01Z</time></trkpt><trkpt lat="44.834431259794165" lon="8.254540096157449"><ele>257.0</ele><time>2026-04-09T13:22:02Z</time></trkpt><trkpt lat="44.83451931219561" lon="8.25468041999987"><ele>256.0</ele><time>2026-04-09T13:22:03Z</time></trkpt><trkpt lat="44.83461958763682" lon="8.254800270440237"><ele>255.0</ele><time>2026-04-09T13:22:04Z</time></trkpt><trkpt lat="44.834745145436656" lon="8.25488551529732"><ele>254.0</ele><time>2026-04-09T13:22:05Z</time></trkpt><trkpt lat="44.83488775721377" lon="8.254927647071536"><ele>253.0</ele><time>2026-04-09T13:22:06Z</time></trkpt><trkpt lat="44.83503047216145" lon="8.254969031922085"><ele>251.25</ele><time>2026-04-09T13:22:07Z</time></trkpt><trkpt lat="44.83516529539308" lon="8.254992862284375"><ele>249.5</ele><time>2026-04-09T13:22:08Z</time></trkpt><trkpt lat="44.83528618952678" lon="8.255014230619693"><ele>247.75</ele><time>2026-04-09T13:22:09Z</time></trkpt><trkpt lat="44.8353925686027" lon="8.255010836339626"><ele>246.0</ele><time>2026-04-09T13:22:10Z</time></trkpt><trkpt lat="44.83548449730266" lon="8.255048053079662"><ele>246.0</ele><time>2026-04-09T13:22:11Z</time></trkpt><trkpt lat="44.83556196043202" lon="8.255106029565509"><ele>246.00000000000003</ele><time>2026-04-09T13:22:12Z</time></trkpt><trkpt lat="44.835630014825554" lon="8.255190761813017"><ele>246.00000000000003</ele><time>2026-04-09T13:22:13Z</time></trkpt><trkpt lat="44.835685346859925" lon="8.255305400936285"><ele>246.0</ele><time>2026-04-09T13:22:14Z</time></trkpt><trkpt lat="44.835722808243695" lon="8.255446466118789"><ele>246.0</ele><time>2026-04-09T13:22:15Z</time></trkpt><trkpt lat="44.83573979634091" lon="8.255602965152333"><ele>247.25</ele><time>2026-04-09T13:22:16Z</time></trkpt><trkpt lat="44.835756527530464" lon="8.255768389106137"><ele>248.5</ele><time>2026-04-09T13:22:17Z</time></trkpt><trkpt lat="44.83579071250919" lon="8.255933531954026"><ele>249.75</ele><time>2026-04-09T13:22:18Z</time></trkpt><trkpt lat="44.835823910133485" lon="8.256121390510566"><ele>251.0</ele><time>2026-04-09T13:22:19Z</time></trkpt><trkpt lat="44.835912665474126" lon="8.256294437140685"><ele>245.33333333333334</ele><time>2026-04-09T13:22:20Z</time></trkpt><trkpt lat="44.83600375809881" lon="8.256475710417337"><ele>239.66666666666669</ele><time>2026-04-09T13:22:21Z</time></trkpt><trkpt lat="44.836106425275815" lon="8.256651223852417"><ele>234.0</ele><time>2026-04-09T13:22:22Z</time></trkpt><trkpt lat="44.83621353995379" lon="8.256818739375516"><ele>234.0</ele><time>2026-04-09T13:22:23Z</time></trkpt><trkpt lat="44.83630796084846" lon="8.256974370446148"><ele>234.0</ele><time>2026-04-09T13:22:24Z</time></trkpt><trkpt lat="44.83639028535283" lon="8.257121515289738"><ele>234.0</ele><time>2026-04-09T13:22:25Z</time></trkpt><trkpt lat="44.836468623140455" lon="8.257266713078257"><ele>234.0</ele><time>2026-04-09T13:22:26Z</time></trkpt><trkpt lat="44.836544224327085" lon="8.257392257539228"><ele>235.39999999999998</ele><time>2026-04-09T13:22:27Z</time></trkpt><trkpt lat="44.83661416807134" lon="8.25749574811776"><ele>236.79999999999998</ele><time>2026-04-09T13:22:28Z</time></trkpt><trkpt lat="44.83669330118834" lon="8.257566278532583"><ele>238.20000000000002</ele><time>2026-04-09T13:22:29Z</time></trkpt><trkpt lat="44.83679038372526" lon="8.257593038524684"><ele>239.60000000000002</ele><time>2026-04-09T13:22:30Z</time></trkpt><trkpt lat="44.8369030326595" lon="8.25760316332268"><ele>241.0</ele><time>2026-04-09T13:22:31Z</time></trkpt><trkpt lat="44.837014302031555" lon="8.257639984764385"><ele>241.0</ele><time>2026-04-09T13:22:32Z</time></trkpt><trkpt lat="44.83712441146611" lon="8.25769441894869"><ele>241.0</ele><time>2026-04-09T13:22:33Z</time></trkpt><trkpt lat="44.837237012765804" lon="8.257768524709956"><ele>241.0</ele><time>2026-04-09T13:22:34Z</time></trkpt><trkpt lat="44.83736267095413" lon="8.25784186672768"><ele>241.0</ele><time>2026-04-09T13:22:35Z</time></trkpt><trkpt lat="44.837482002151226" lon="8.257936277206932"><ele>241.0</ele><time>2026-04-09T13:22:36Z</time></trkpt><trkpt lat="44.83760684471419" lon="8.258011101082513"><ele>241.0</ele><time>2026-04-09T13:22:37Z</time></trkpt><trkpt lat="44.837739871959215" lon="8.25805995143416"><ele>241.0</ele><time>2026-04-09T13:22:38Z</time></trkpt><trkpt lat="44.837879457221504" lon="8.258098224546238"><ele>241.0</ele><time>2026-04-09T13:22:39Z</time></trkpt><trkpt lat="44.838014915180935" lon="8.258131694298061"><ele>244.75</ele><time>2026-04-09T13:22:40Z</time></trkpt><trkpt lat="44.83814702917739" lon="8.258169009797422"><ele>248.5</ele><time>2026-04-09T13:22:41Z</time></trkpt><trkpt lat="44.83827366359031" lon="8.258196857078266"><ele>252.25</ele><time>2026-04-09T13:22:42Z</time></trkpt><trkpt lat="44.83838493936051" lon="8.258211608809333"><ele>256.0</ele><time>2026-04-09T13:22:43Z</time></trkpt><trkpt lat="44.838483753880084" lon="8.258211432761657"><ele>256.0</ele><time>2026-04-09T13:22:44Z</time></trkpt><trkpt lat="44.83858270885547" lon="8.258186560599539"><ele>256.0</ele><time>2026-04-09T13:22:45Z</time></trkpt><trkpt lat="44.8386715903254" lon="8.258107605696503"><ele>256.0</ele><time>2026-04-09T13:22:46Z</time></trkpt><trkpt lat="44.838758380047835" lon="8.258006131087269"><ele>256.0</ele><time>2026-04-09T13:22:47Z</time></trkpt><trkpt lat="44.83883119062765" lon="8.257918154547692"><ele>256.0</ele><time>2026-04-09T13:22:48Z</time></trkpt><trkpt lat="44.838904369317" lon="8.25787702761057"><ele>253.60000000000002</ele><time>2026-04-09T13:22:49Z</time></trkpt><trkpt lat="44.83898441751203" lon="8.257906422023174"><ele>251.20000000000002</ele><time>2026-04-09T13:22:50Z</time></trkpt><trkpt lat="44.83906261336646" lon="8.257954806437498"><ele>248.79999999999998</ele><time>2026-04-09T13:22:51Z</time></trkpt><trkpt lat="44.83914926203355" lon="8.25799824765753"><ele>246.39999999999998</ele><time>2026-04-09T13:22:52Z</time></trkpt><trkpt lat="44.83924511973965" lon="8.25808303741875"><ele>244.0</ele><time>2026-04-09T13:22:53Z</time></trkpt><trkpt lat="44.839358773570375" lon="8.258167632816862"><ele>243.75</ele><time>2026-04-09T13:22:54Z</time></trkpt><trkpt lat="44.83947572210062" lon="8.258248413405113"><ele>243.5</ele><time>2026-04-09T13:22:55Z</time></trkpt><trkpt lat="44.83959849803205" lon="8.258334430068471"><ele>243.25</ele><time>2026-04-09T13:22:56Z</time></trkpt><trkpt lat="44.83972031042401" lon="8.258423227270516"><ele>243.0</ele><time>2026-04-09T13:22:57Z</time></trkpt><trkpt lat="44.8398524350271" lon="8.258526113957682"><ele>243.0</ele><time>2026-04-09T13:22:58Z</time></trkpt><trkpt lat="44.83999229675476" lon="8.258638445982335"><ele>243.0</ele><time>2026-04-09T13:22:59Z</time></trkpt><trkpt lat="44.84013192469981" lon="8.258752166023712"><ele>243.0</ele><time>2026-04-09T13:23:00Z</time></trkpt><trkpt lat="44.84026589089807" lon="8.258856415972911"><ele>243.0</ele><time>2026-04-09T13:23:01Z</time></trkpt><trkpt lat="44.840391183797166" lon="8.258941024515845"><ele>243.0</ele><time>2026-04-09T13:23:02Z</time></trkpt><trkpt lat="44.840498379868926" lon="8.259023497446142"><ele>243.0</ele><time>2026-04-09T13:23:03Z</time></trkpt><trkpt lat="44.840600347004475" lon="8.259094868877872"><ele>243.0</ele><time>2026-04-09T13:23:04Z</time></trkpt><trkpt lat="44.840695052063985" lon="8.259164181311185"><ele>243.0</ele><time>2026-04-09T13:23:05Z</time></trkpt><trkpt lat="44.840791814276244" lon="8.25919971543788"><ele>243.0</ele><time>2026-04-09T13:23:06Z</time></trkpt><trkpt lat="44.84088640947104" lon="8.259230656366142"><ele>243.0</ele><time>2026-04-09T13:23:07Z</time></trkpt><trkpt lat="44.84098142371689" lon="8.259273726083146"><ele>243.0</ele><time>2026-04-09T13:23:08Z</time></trkpt><trkpt lat="44.84107957236775" lon="8.259343659690465"><ele>243.0</ele><time>2026-04-09T13:23:09Z</time></trkpt><trkpt lat="44.841165080291745" lon="8.259439155419534"><ele>240.5</ele><time>2026-04-09T13:23:10Z</time></trkpt><trkpt lat="44.84122689374314" lon="8.259561033127055"><ele>238.0</ele><time>2026-04-09T13:23:11Z</time></trkpt><trkpt lat="44.841252638754625" lon="8.259708681874757"><ele>235.5</ele><time>2026-04-09T13:23:12Z</time></trkpt><trkpt lat="44.84125668752383" lon="8.259870299961289"><ele>233.0</ele><time>2026-04-09T13:23:13Z</time></trkpt><trkpt lat="44.84124064264806" lon="8.260044663043347"><ele>231.25</ele><time>2026-04-09T13:23:14Z</time></trkpt><trkpt lat="44.841227365763004" lon="8.260223835081476"><ele>229.5</ele><time>2026-04-09T13:23:15Z</time></trkpt><trkpt lat="44.841236854884926" lon="8.260411268791119"><ele>227.75</ele><time>2026-04-09T13:23:16Z</time></trkpt><trkpt lat="44.84126573977411" lon="8.260600324321132"><ele>226.0</ele><time>2026-04-09T13:23:17Z</time></trkpt><trkpt lat="44.84131898596832" lon="8.260805443357556"><ele>223.66666666666666</ele><time>2026-04-09T13:23:18Z</time></trkpt><trkpt lat="44.84139349636028" lon="8.261014647919227"><ele>221.33333333333331</ele><time>2026-04-09T13:23:19Z</time></trkpt><trkpt lat="44.84148715530284" lon="8.261223397434554"><ele>219.0</ele><time>2026-04-09T13:23:20Z</time></trkpt><trkpt lat="44.84158200632393" lon="8.261438417567115"><ele>219.0</ele><time>2026-04-09T13:23:21Z</time></trkpt><trkpt lat="44.84167055102673" lon="8.261653947131373"><ele>219.0</ele><time>2026-04-09T13:23:22Z</time></trkpt><trkpt lat="44.84175221284813" lon="8.261863879072646"><ele>219.0</ele><time>2026-04-09T13:23:23Z</time></trkpt><trkpt lat="44.841828053300006" lon="8.262071158306657"><ele>216.33333333333331</ele><time>2026-04-09T13:23:24Z</time></trkpt><trkpt lat="44.841902449614516" lon="8.262267312520915"><ele>213.66666666666666</ele><time>2026-04-09T13:23:25Z</time></trkpt><trkpt lat="44.84197332079553" lon="8.262456172734975"><ele>211.0</ele><time>2026-04-09T13:23:26Z</time></trkpt><trkpt lat="44.8420423855783" lon="8.262635291601962"><ele>211.0</ele><time>2026-04-09T13:23:27Z</time></trkpt><trkpt lat="44.84211256755022" lon="8.262804914360295"><ele>211.0</ele><time>2026-04-09T13:23:28Z</time></trkpt><trkpt lat="44.84218007829516" lon="8.262969728451594"><ele>211.0</ele><time>2026-04-09T13:23:29Z</time></trkpt><trkpt lat="44.84224672090404" lon="8.263132051822867"><ele>211.0</ele><time>2026-04-09T13:23:30Z</time></trkpt><trkpt lat="44.84231196670421" lon="8.263295538611237"><ele>212.5</ele><time>2026-04-09T13:23:31Z</time></trkpt><trkpt lat="44.84237480583179" lon="8.263462752719533"><ele>214.0</ele><time>2026-04-09T13:23:32Z</time></trkpt><trkpt lat="44.84244124079813" lon="8.26363499413551"><ele>215.5</ele><time>2026-04-09T13:23:33Z</time></trkpt><trkpt lat="44.842509086462364" lon="8.263809038259485"><ele>217.0</ele><time>2026-04-09T13:23:34Z</time></trkpt><trkpt lat="44.842575654455885" lon="8.263984879004427"><ele>214.25</ele><time>2026-04-09T13:23:35Z</time></trkpt><trkpt lat="44.84264245417661" lon="8.26416608919374"><ele>211.5</ele><time>2026-04-09T13:23:36Z</time></trkpt><trkpt lat="44.84270511899917" lon="8.264355203469648"><ele>208.75</ele><time>2026-04-09T13:23:37Z</time></trkpt><trkpt lat="44.84276020578164" lon="8.264544651399317"><ele>206.0</ele><time>2026-04-09T13:23:38Z</time></trkpt><trkpt lat="44.84281799202935" lon="8.26472769532737"><ele>210.0</ele><time>2026-04-09T13:23:39Z</time></trkpt><trkpt lat="44.84288213401054" lon="8.264904745450645"><ele>214.0</ele><time>2026-04-09T13:23:40Z</time></trkpt><trkpt lat="44.842956525281494" lon="8.265068151776696"><ele>218.0</ele><time>2026-04-09T13:23:41Z</time></trkpt><trkpt lat="44.84304998747234" lon="8.265214588122522"><ele>222.0</ele><time>2026-04-09T13:23:42Z</time></trkpt><trkpt lat="44.8431539112244" lon="8.265354684552012"><ele>222.0</ele><time>2026-04-09T13:23:43Z</time></trkpt><trkpt lat="44.84326133042004" lon="8.265496950196205"><ele>222.0</ele><time>2026-04-09T13:23:44Z</time></trkpt><trkpt lat="44.843367229244144" lon="8.265642521935607"><ele>222.0</ele><time>2026-04-09T13:23:45Z</time></trkpt><trkpt lat="44.8434773024099" lon="8.265786375440621"><ele>222.0</ele><time>2026-04-09T13:23:46Z</time></trkpt><trkpt lat="44.84359198678625" lon="8.265927850400152"><ele>220.66666666666669</ele><time>2026-04-09T13:23:47Z</time></trkpt><trkpt lat="44.84370712950106" lon="8.26607632325174"><ele>219.33333333333334</ele><time>2026-04-09T13:23:48Z</time></trkpt><trkpt lat="44.843823943615305" lon="8.266228848600525"><ele>218.0</ele><time>2026-04-09T13:23:49Z</time></trkpt><trkpt lat="44.84394211549264" lon="8.266368244977539"><ele>223.0</ele><time>2026-04-09T13:23:50Z</time></trkpt><trkpt lat="44.84406471316855" lon="8.266491273217646"><ele>228.0</ele><time>2026-04-09T13:23:51Z</time></trkpt><trkpt lat="44.84419468367599" lon="8.266605389445136"><ele>233.0</ele><time>2026-04-09T13:23:52Z</time></trkpt><trkpt lat="44.8443343578025" lon="8.266694082754096"><ele>233.0</ele><time>2026-04-09T13:23:53Z</time></trkpt><trkpt lat="44.84446069429406" lon="8.266774233983327"><ele>233.0</ele><time>2026-04-09T13:23:54Z</time></trkpt><trkpt lat="44.84458336655841" lon="8.26684345141621"><ele>233.0</ele><time>2026-04-09T13:23:55Z</time></trkpt><trkpt lat="44.844717880394136" lon="8.266887409414444"><ele>233.0</ele><time>2026-04-09T13:23:56Z</time></trkpt><trkpt lat="44.84485360939716" lon="8.266923317483831"><ele>233.0</ele><time>2026-04-09T13:23:57Z</time></trkpt><trkpt lat="44.84499685973171" lon="8.266955853734949"><ele>233.0</ele><time>2026-04-09T13:23:58Z</time></trkpt><trkpt lat="44.84514654347505" lon="8.266987697575207"><ele>233.0</ele><time>2026-04-09T13:23:59Z</time></trkpt><trkpt lat="44.84529903981857" lon="8.267019776541968"><ele>233.75</ele><time>2026-04-09T13:24:00Z</time></trkpt><trkpt lat="44.84544718199631" lon="8.267059549366547"><ele>234.5</ele><time>2026-04-09T13:24:01Z</time></trkpt><trkpt lat="44.84557598283933" lon="8.267130699603735"><ele>235.25</ele><time>2026-04-09T13:24:02Z</time></trkpt><trkpt lat="44.845690296894006" lon="8.267165906657539"><ele>236.0</ele><time>2026-04-09T13:24:03Z</time></trkpt><trkpt lat="44.84578396854457" lon="8.267215892527476"><ele>236.0</ele><time>2026-04-09T13:24:04Z</time></trkpt><trkpt lat="44.845884640021005" lon="8.26725089736991"><ele>236.0</ele><time>2026-04-09T13:24:05Z</time></trkpt><trkpt lat="44.845997453258676" lon="8.267248503686222"><ele>236.0</ele><time>2026-04-09T13:24:06Z</time></trkpt><trkpt lat="44.84612154624784" lon="8.267247258456955"><ele>236.0</ele><time>2026-04-09T13:24:07Z</time></trkpt><trkpt lat="44.846250439950595" lon="8.267197869759308"><ele>237.0</ele><time>2026-04-09T13:24:08Z</time></trkpt><trkpt lat="44.846389435679754" lon="8.26718492044167"><ele>238.0</ele><time>2026-04-09T13:24:09Z</time></trkpt><trkpt lat="44.84653299899748" lon="8.267210407922084"><ele>239.0</ele><time>2026-04-09T13:24:10Z</time></trkpt><trkpt lat="44.846675349132866" lon="8.267214875265886"><ele>240.0</ele><time>2026-04-09T13:24:11Z</time></trkpt><trkpt lat="44.846802661587716" lon="8.267219962576888"><ele>239.0</ele><time>2026-04-09T13:24:12Z</time></trkpt><trkpt lat="44.84692947394836" lon="8.267205504380236"><ele>238.0</ele><time>2026-04-09T13:24:13Z</time></trkpt><trkpt lat="44.8470409162032" lon="8.26725514392504"><ele>237.0</ele><time>2026-04-09T13:24:14Z</time></trkpt><trkpt lat="44.84715100092483" lon="8.267289152067496"><ele>236.0</ele><time>2026-04-09T13:24:15Z</time></trkpt><trkpt lat="44.84725365018672" lon="8.26735746885054"><ele>236.0</ele><time>2026-04-09T13:24:16Z</time></trkpt><trkpt lat="44.847349963303486" lon="8.267443390858045"><ele>236.0</ele><time>2026-04-09T13:24:17Z</time></trkpt><trkpt lat="44.84745494349826" lon="8.267508128220218"><ele>236.0</ele><time>2026-04-09T13:24:18Z</time></trkpt><trkpt lat="44.8475600870028" lon="8.267565394586313"><ele>236.0</ele><time>2026-04-09T13:24:19Z</time></trkpt><trkpt lat="44.847667927933436" lon="8.267614066283397"><ele>235.60000000000002</ele><time>2026-04-09T13:24:20Z</time></trkpt><trkpt lat="44.847784533206564" lon="8.267625792344917"><ele>235.20000000000002</ele><time>2026-04-09T13:24:21Z</time></trkpt><trkpt lat="44.847892367274824" lon="8.267626600308743"><ele>234.79999999999998</ele><time>2026-04-09T13:24:22Z</time></trkpt><trkpt lat="44.84800237632005" lon="8.267615415580115"><ele>234.39999999999998</ele><time>2026-04-09T13:24:23Z</time></trkpt><trkpt lat="44.84811011023694" lon="8.267587625358706"><ele>234.0</ele><time>2026-04-09T13:24:24Z</time></trkpt><trkpt lat="44.848213559513134" lon="8.267544626109466"><ele>234.0</ele><time>2026-04-09T13:24:25Z</time></trkpt><trkpt lat="44.848315664255026" lon="8.267496812296985"><ele>233.99999999999997</ele><time>2026-04-09T13:24:26Z</time></trkpt><trkpt lat="44.848412256153445" lon="8.267453368814722"><ele>233.99999999999997</ele><time>2026-04-09T13:24:27Z</time></trkpt><trkpt lat="44.84849632948723" lon="8.267395625950646"><ele>234.0</ele><time>2026-04-09T13:24:28Z</time></trkpt><trkpt lat="44.84858524889741" lon="8.267397758929945"><ele>234.0</ele><time>2026-04-09T13:24:29Z</time></trkpt><trkpt lat="44.848670201156054" lon="8.267392703200388"><ele>233.5</ele><time>2026-04-09T13:24:30Z</time></trkpt><trkpt lat="44.848766140756666" lon="8.267415937534235"><ele>233.0</ele><time>2026-04-09T13:24:31Z</time></trkpt><trkpt lat="44.8488552101775" lon="8.267465221256098"><ele>232.5</ele><time>2026-04-09T13:24:32Z</time></trkpt><trkpt lat="44.84893098662827" lon="8.267525636228173"><ele>232.0</ele><time>2026-04-09T13:24:33Z</time></trkpt><trkpt lat="44.84899697895703" lon="8.267598874934425"><ele>231.5</ele><time>2026-04-09T13:24:34Z</time></trkpt><trkpt lat="44.84905739064725" lon="8.267681997370158"><ele>231.0</ele><time>2026-04-09T13:24:35Z</time></trkpt><trkpt lat="44.849114998684506" lon="8.267769355366216"><ele>231.0</ele><time>2026-04-09T13:24:36Z</time></trkpt><trkpt lat="44.84917108559966" lon="8.267858561578045"><ele>231.0</ele><time>2026-04-09T13:24:37Z</time></trkpt><trkpt lat="44.84922990665811" lon="8.267942407369091"><ele>231.0</ele><time>2026-04-09T13:24:38Z</time></trkpt><trkpt lat="44.8492587157661" lon="8.268038553501263"><ele>231.0</ele><time>2026-04-09T13:24:39Z</time></trkpt><trkpt lat="44.849292379624636" lon="8.268119407454586"><ele>231.0</ele><time>2026-04-09T13:24:40Z</time></trkpt><trkpt lat="44.84931334164144" lon="8.268209793608642"><ele>231.0</ele><time>2026-04-09T13:24:41Z</time></trkpt><trkpt lat="44.849348352278554" lon="8.268287364439033"><ele>231.0</ele><time>2026-04-09T13:24:42Z</time></trkpt><trkpt lat="44.84939419924268" lon="8.268354945601926"><ele>228.0</ele><time>2026-04-09T13:24:43Z</time></trkpt><trkpt lat="44.84945075697166" lon="8.268423544172007"><ele>225.00000000000003</ele><time>2026-04-09T13:24:44Z</time></trkpt><trkpt lat="44.849502003670295" lon="8.268514345418025"><ele>222.00000000000003</ele><time>2026-04-09T13:24:45Z</time></trkpt><trkpt lat="44.849590223913275" lon="8.268563204811876"><ele>219.0</ele><time>2026-04-09T13:24:46Z</time></trkpt><trkpt lat="44.84967104470947" lon="8.268644453435291"><ele>216.0</ele><time>2026-04-09T13:24:47Z</time></trkpt><trkpt lat="44.849756545180355" lon="8.268728892244889"><ele>216.0</ele><time>2026-04-09T13:24:48Z</time></trkpt><trkpt lat="44.84984501530422" lon="8.268813054437997"><ele>216.00000000000003</ele><time>2026-04-09T13:24:49Z</time></trkpt><trkpt lat="44.84992745527973" lon="8.268894381586255"><ele>216.00000000000003</ele><time>2026-04-09T13:24:50Z</time></trkpt><trkpt lat="44.850004825657" lon="8.2689660298386"><ele>216.0</ele><time>2026-04-09T13:24:51Z</time></trkpt><trkpt lat="44.85007455597513" lon="8.269035768818233"><ele>216.0</ele><time>2026-04-09T13:24:52Z</time></trkpt><trkpt lat="44.85014116392501" lon="8.269099202309807"><ele>215.83333333333334</ele><time>2026-04-09T13:24:53Z</time></trkpt><trkpt lat="44.850204049976156" lon="8.269168287269549"><ele>215.66666666666669</ele><time>2026-04-09T13:24:54Z</time></trkpt><trkpt lat="44.850262486862384" lon="8.26925782204879"><ele>215.5</ele><time>2026-04-09T13:24:55Z</time></trkpt><trkpt lat="44.85029797709729" lon="8.269375659351331"><ele>215.33333333333334</ele><time>2026-04-09T13:24:56Z</time></trkpt><trkpt lat="44.850337876370354" lon="8.269493853125624"><ele>215.16666666666669</ele><time>2026-04-09T13:24:57Z</time></trkpt><trkpt lat="44.85038146529532" lon="8.269588352387267"><ele>215.0</ele><time>2026-04-09T13:24:58Z</time></trkpt><trkpt lat="44.85042902364949" lon="8.269665287455688"><ele>215.0</ele><time>2026-04-09T13:24:59Z</time></trkpt><trkpt lat="44.850488640513504" lon="8.269738379757937"><ele>215.0</ele><time>2026-04-09T13:25:00Z</time></trkpt><trkpt lat="44.85057253807719" lon="8.269806654946759"><ele>215.0</ele><time>2026-04-09T13:25:01Z</time></trkpt><trkpt lat="44.850647093167666" lon="8.269910452218332"><ele>215.0</ele><time>2026-04-09T13:25:02Z</time></trkpt><trkpt lat="44.85073724628663" lon="8.26999397583598"><ele>215.0</ele><time>2026-04-09T13:25:03Z</time></trkpt><trkpt lat="44.850845588976846" lon="8.270059394154575"><ele>214.75</ele><time>2026-04-09T13:25:04Z</time></trkpt><trkpt lat="44.85093942691582" lon="8.270156752550113"><ele>214.5</ele><time>2026-04-09T13:25:05Z</time></trkpt><trkpt lat="44.85104502347824" lon="8.270232086199497"><ele>214.25</ele><time>2026-04-09T13:25:06Z</time></trkpt><trkpt lat="44.85115190288845" lon="8.270310142843336"><ele>214.0</ele><time>2026-04-09T13:25:07Z</time></trkpt><trkpt lat="44.85125319000876" lon="8.270379953302992"><ele>214.0</ele><time>2026-04-09T13:25:08Z</time></trkpt><trkpt lat="44.85135381129699" lon="8.270448784793416"><ele>213.99999999999997</ele><time>2026-04-09T13:25:09Z</time></trkpt><trkpt lat="44.851462930548955" lon="8.270496402597372"><ele>213.99999999999997</ele><time>2026-04-09T13:25:10Z</time></trkpt><trkpt lat="44.851557520024166" lon="8.270575739429507"><ele>214.0</ele><time>2026-04-09T13:25:11Z</time></trkpt><trkpt lat="44.85166496413798" lon="8.270611401941748"><ele>214.0</ele><time>2026-04-09T13:25:12Z</time></trkpt><trkpt lat="44.851775924976614" lon="8.270620961625198"><ele>209.75</ele><time>2026-04-09T13:25:13Z</time></trkpt><trkpt lat="44.8518886377765" lon="8.270606535913688"><ele>205.5</ele><time>2026-04-09T13:25:14Z</time></trkpt><trkpt lat="44.851998672808996" lon="8.270576555011075"><ele>201.25</ele><time>2026-04-09T13:25:15Z</time></trkpt><trkpt lat="44.85212486526692" lon="8.270534581882483"><ele>197.0</ele><time>2026-04-09T13:25:16Z</time></trkpt><trkpt lat="44.85225314400053" lon="8.270575481354179"><ele>197.25</ele><time>2026-04-09T13:25:17Z</time></trkpt><trkpt lat="44.8523872015348" lon="8.270610334065656"><ele>197.5</ele><time>2026-04-09T13:25:18Z</time></trkpt><trkpt lat="44.85251684936958" lon="8.27065078510359"><ele>197.75</ele><time>2026-04-09T13:25:19Z</time></trkpt><trkpt lat="44.85265024254309" lon="8.270696997365857"><ele>198.0</ele><time>2026-04-09T13:25:20Z</time></trkpt><trkpt lat="44.85277873901218" lon="8.270742027562212"><ele>198.5</ele><time>2026-04-09T13:25:21Z</time></trkpt><trkpt lat="44.852912384620744" lon="8.270788862220614"><ele>199.0</ele><time>2026-04-09T13:25:22Z</time></trkpt><trkpt lat="44.85303933653084" lon="8.270831998912477"><ele>199.5</ele><time>2026-04-09T13:25:23Z</time></trkpt><trkpt lat="44.853159515523515" lon="8.270869429242012"><ele>200.0</ele><time>2026-04-09T13:25:24Z</time></trkpt><trkpt lat="44.853280991144" lon="8.270908428405058"><ele>200.0</ele><time>2026-04-09T13:25:25Z</time></trkpt><trkpt lat="44.853404155836145" lon="8.270953923271133"><ele>200.0</ele><time>2026-04-09T13:25:26Z</time></trkpt><trkpt lat="44.85352885805062" lon="8.271011580182801"><ele>200.0</ele><time>2026-04-09T13:25:27Z</time></trkpt><trkpt lat="44.853657222845115" lon="8.271079793658746"><ele>200.0</ele><time>2026-04-09T13:25:28Z</time></trkpt><trkpt lat="44.85379200716273" lon="8.271156169381479"><ele>201.33333333333334</ele><time>2026-04-09T13:25:29Z</time></trkpt><trkpt lat="44.85393416162517" lon="8.27121443227654"><ele>202.66666666666669</ele><time>2026-04-09T13:25:30Z</time></trkpt><trkpt lat="44.85407684459384" lon="8.271306519215216"><ele>204.0</ele><time>2026-04-09T13:25:31Z</time></trkpt><trkpt lat="44.85421009203961" lon="8.271421150980098"><ele>205.75</ele><time>2026-04-09T13:25:32Z</time></trkpt><trkpt lat="44.85434816416232" lon="8.271517178536053"><ele>207.5</ele><time>2026-04-09T13:25:33Z</time></trkpt><trkpt lat="44.85448305850008" lon="8.271607353716293"><ele>209.25</ele><time>2026-04-09T13:25:34Z</time></trkpt><trkpt lat="44.85461840587138" lon="8.271681255345097"><ele>211.0</ele><time>2026-04-09T13:25:35Z</time></trkpt><trkpt lat="44.85473648462931" lon="8.271787089384622"><ele>211.0</ele><time>2026-04-09T13:25:36Z</time></trkpt><trkpt lat="44.854856492668205" lon="8.271861559468126"><ele>211.0</ele><time>2026-04-09T13:25:37Z</time></trkpt><trkpt lat="44.85497617772919" lon="8.271877234557707"><ele>211.0</ele><time>2026-04-09T13:25:38Z</time></trkpt><trkpt lat="44.85508684014503" lon="8.27187673355644"><ele>211.0</ele><time>2026-04-09T13:25:39Z</time></trkpt><trkpt lat="44.85519379471786" lon="8.271899706845776"><ele>210.8</ele><time>2026-04-09T13:25:40Z</time></trkpt><trkpt lat="44.85529815197427" lon="8.271922327851032"><ele>210.60000000000002</ele><time>2026-04-09T13:25:41Z</time></trkpt><trkpt lat="44.85540471849203" lon="8.271976596455396"><ele>210.4</ele><time>2026-04-09T13:25:42Z</time></trkpt><trkpt lat="44.85549961407981" lon="8.272029384008468"><ele>210.2</ele><time>2026-04-09T13:25:43Z</time></trkpt><trkpt lat="44.8555741916328" lon="8.272127842542425"><ele>210.0</ele><time>2026-04-09T13:25:44Z</time></trkpt><trkpt lat="44.85563653652818" lon="8.272251017145312"><ele>212.75</ele><time>2026-04-09T13:25:45Z</time></trkpt><trkpt lat="44.85568371420445" lon="8.272390096799072"><ele>215.5</ele><time>2026-04-09T13:25:46Z</time></trkpt><trkpt lat="44.85572345900964" lon="8.272542670722707"><ele>218.25</ele><time>2026-04-09T13:25:47Z</time></trkpt><trkpt lat="44.855768143965854" lon="8.272702781890958"><ele>221.0</ele><time>2026-04-09T13:25:48Z</time></trkpt><trkpt lat="44.85583027278902" lon="8.272866542166163"><ele>221.0</ele><time>2026-04-09T13:25:49Z</time></trkpt><trkpt lat="44.85591291587143" lon="8.273041371281648"><ele>221.0</ele><time>2026-04-09T13:25:50Z</time></trkpt><trkpt lat="44.856005224019235" lon="8.273225847462914"><ele>221.0</ele><time>2026-04-09T13:25:51Z</time></trkpt><trkpt lat="44.85609239691308" lon="8.273417507417294"><ele>217.66666666666669</ele><time>2026-04-09T13:25:52Z</time></trkpt><trkpt lat="44.85618244532243" lon="8.273620958383646"><ele>214.33333333333331</ele><time>2026-04-09T13:25:53Z</time></trkpt><trkpt lat="44.85627547016458" lon="8.273819572450353"><ele>211.0</ele><time>2026-04-09T13:25:54Z</time></trkpt><trkpt lat="44.8563618893539" lon="8.27401025317321"><ele>211.0</ele><time>2026-04-09T13:25:55Z</time></trkpt><trkpt lat="44.85644168578098" lon="8.274185689190585"><ele>211.0</ele><time>2026-04-09T13:25:56Z</time></trkpt><trkpt lat="44.85651726870916" lon="8.27435929266323"><ele>211.0</ele><time>2026-04-09T13:25:57Z</time></trkpt><trkpt lat="44.85658337501763" lon="8.27450062530704"><ele>211.0</ele><time>2026-04-09T13:25:58Z</time></trkpt><trkpt lat="44.85665832238275" lon="8.274629687385438"><ele>211.0</ele><time>2026-04-09T13:25:59Z</time></trkpt><trkpt lat="44.856755772132395" lon="8.274744941656898"><ele>211.0</ele><time>2026-04-09T13:26:00Z</time></trkpt><trkpt lat="44.856868488847454" lon="8.274831977663087"><ele>211.0</ele><time>2026-04-09T13:26:01Z</time></trkpt><trkpt lat="44.85699631249536" lon="8.27489544396568"><ele>211.0</ele><time>2026-04-09T13:26:02Z</time></trkpt><trkpt lat="44.85712888929356" lon="8.27497194450359"><ele>212.0</ele><time>2026-04-09T13:26:03Z</time></trkpt><trkpt lat="44.85727698435523" lon="8.275001425070252"><ele>213.0</ele><time>2026-04-09T13:26:04Z</time></trkpt><trkpt lat="44.85742965783937" lon="8.27500788082646"><ele>214.0</ele><time>2026-04-09T13:26:05Z</time></trkpt><trkpt lat="44.8575866680861" lon="8.275002418998895"><ele>215.0</ele><time>2026-04-09T13:26:06Z</time></trkpt><trkpt lat="44.8577462887699" lon="8.274994805486532"><ele>216.0</ele><time>2026-04-09T13:26:07Z</time></trkpt><trkpt lat="44.857901825817784" lon="8.274992926516841"><ele>217.0</ele><time>2026-04-09T13:26:08Z</time></trkpt><trkpt lat="44.85804377399631" lon="8.274992503145988"><ele>217.0</ele><time>2026-04-09T13:26:09Z</time></trkpt><trkpt lat="44.85817820151958" lon="8.274972410861324"><ele>217.0</ele><time>2026-04-09T13:26:10Z</time></trkpt><trkpt lat="44.85830668391557" lon="8.274972496909976"><ele>217.0</ele><time>2026-04-09T13:26:11Z</time></trkpt><trkpt lat="44.85842824912995" lon="8.274974135595464"><ele>217.0</ele><time>2026-04-09T13:26:12Z</time></trkpt><trkpt lat="44.85854980322842" lon="8.274930695648532"><ele>214.75</ele><time>2026-04-09T13:26:13Z</time></trkpt><trkpt lat="44.858674117802785" lon="8.274864490692117"><ele>212.5</ele><time>2026-04-09T13:26:14Z</time></trkpt><trkpt lat="44.85879572795794" lon="8.274790388181462"><ele>210.25</ele><time>2026-04-09T13:26:15Z</time></trkpt><trkpt lat="44.85891777469071" lon="8.27472390599396"><ele>208.0</ele><time>2026-04-09T13:26:16Z</time></trkpt><trkpt lat="44.859047725862375" lon="8.27467012190136"><ele>208.0</ele><time>2026-04-09T13:26:17Z</time></trkpt><trkpt lat="44.859182695480186" lon="8.2746407241771"><ele>208.0</ele><time>2026-04-09T13:26:18Z</time></trkpt><trkpt lat="44.85931827380629" lon="8.274645028858966"><ele>208.0</ele><time>2026-04-09T13:26:19Z</time></trkpt><trkpt lat="44.85944899175781" lon="8.274659284492113"><ele>208.0</ele><time>2026-04-09T13:26:20Z</time></trkpt><trkpt lat="44.85956837721045" lon="8.27468407942891"><ele>208.0</ele><time>2026-04-09T13:26:21Z</time></trkpt><trkpt lat="44.8596863168756" lon="8.274720961576467"><ele>208.0</ele><time>2026-04-09T13:26:22Z</time></trkpt><trkpt lat="44.85981305922124" lon="8.274758809472365"><ele>208.0</ele><time>2026-04-09T13:26:23Z</time></trkpt><trkpt lat="44.85993954851055" lon="8.274841293337092"><ele>208.0</ele><time>2026-04-09T13:26:24Z</time></trkpt><trkpt lat="44.86006424908751" lon="8.274935111749262"><ele>207.25</ele><time>2026-04-09T13:26:25Z</time></trkpt><trkpt lat="44.86017560472941" lon="8.275031071175691"><ele>206.5</ele><time>2026-04-09T13:26:26Z</time></trkpt><trkpt lat="44.8602853535651" lon="8.275119282567298"><ele>205.75</ele><time>2026-04-09T13:26:27Z</time></trkpt><trkpt lat="44.860398788954434" lon="8.275187753081124"><ele>205.0</ele><time>2026-04-09T13:26:28Z</time></trkpt><trkpt lat="44.86052641961317" lon="8.275228498309394"><ele>205.0</ele><time>2026-04-09T13:26:29Z</time></trkpt><trkpt lat="44.86066203029578" lon="8.275283105690397"><ele>205.0</ele><time>2026-04-09T13:26:30Z</time></trkpt><trkpt lat="44.86080987440149" lon="8.275316340456424"><ele>205.0</ele><time>2026-04-09T13:26:31Z</time></trkpt><trkpt lat="44.86095508845865" lon="8.275348827296579"><ele>205.0</ele><time>2026-04-09T13:26:32.001Z</time></trkpt><trkpt lat="44.861095395641414" lon="8.275364907210466"><ele>204.0</ele><time>2026-04-09T13:26:33.001Z</time></trkpt><trkpt lat="44.86121999988719" lon="8.275407651339773"><ele>203.0</ele><time>2026-04-09T13:26:34.001Z</time></trkpt><trkpt lat="44.86133199988581" lon="8.275475762666304"><ele>202.0</ele><time>2026-04-09T13:26:35.001Z</time></trkpt><trkpt lat="44.86144136714585" lon="8.275568544466141"><ele>201.0</ele><time>2026-04-09T13:26:36.001Z</time></trkpt><trkpt lat="44.86154392085997" lon="8.275685012539617"><ele>201.0</ele><time>2026-04-09T13:26:37.001Z</time></trkpt><trkpt lat="44.86163934044195" lon="8.275811409078102"><ele>201.0</ele><time>2026-04-09T13:26:38.001Z</time></trkpt><trkpt lat="44.861744517609104" lon="8.27593771817617"><ele>201.0</ele><time>2026-04-09T13:26:39.001Z</time></trkpt><trkpt lat="44.86185232816854" lon="8.276071435768436"><ele>201.0</ele><time>2026-04-09T13:26:40.001Z</time></trkpt><trkpt lat="44.86194368499833" lon="8.276235920187533"><ele>203.0</ele><time>2026-04-09T13:26:41.001Z</time></trkpt><trkpt lat="44.862047325781546" lon="8.276396415007001"><ele>205.0</ele><time>2026-04-09T13:26:42.001Z</time></trkpt><trkpt lat="44.86214799493475" lon="8.276557910335791"><ele>207.0</ele><time>2026-04-09T13:26:43.001Z</time></trkpt><trkpt lat="44.86224781943261" lon="8.2767203452749"><ele>207.0</ele><time>2026-04-09T13:26:44.001Z</time></trkpt><trkpt lat="44.86234581165354" lon="8.276880723318348"><ele>207.0</ele><time>2026-04-09T13:26:45.001Z</time></trkpt><trkpt lat="44.86245382289868" lon="8.277022818013492"><ele>207.0</ele><time>2026-04-09T13:26:46.001Z</time></trkpt><trkpt lat="44.862545234776405" lon="8.277172908294675"><ele>207.0</ele><time>2026-04-09T13:26:47.001Z</time></trkpt><trkpt lat="44.86262706356159" lon="8.277313373245553"><ele>209.5</ele><time>2026-04-09T13:26:48.001Z</time></trkpt><trkpt lat="44.86270458470865" lon="8.277442193480484"><ele>212.0</ele><time>2026-04-09T13:26:49.001Z</time></trkpt><trkpt lat="44.86278197014447" lon="8.27755544446599"><ele>214.5</ele><time>2026-04-09T13:26:50.001Z</time></trkpt><trkpt lat="44.86286858529187" lon="8.277656383483452"><ele>217.0</ele><time>2026-04-09T13:26:51Z</time></trkpt><trkpt lat="44.86295624636042" lon="8.2777536983194"><ele>217.0</ele><time>2026-04-09T13:26:52Z</time></trkpt><trkpt lat="44.86306144316409" lon="8.27782253217368"><ele>217.0</ele><time>2026-04-09T13:26:53Z</time></trkpt><trkpt lat="44.86316685446975" lon="8.277873100064996"><ele>217.0</ele><time>2026-04-09T13:26:54Z</time></trkpt><trkpt lat="44.8632712885089" lon="8.277905190223564"><ele>217.0</ele><time>2026-04-09T13:26:55Z</time></trkpt><trkpt lat="44.86336833942646" lon="8.27793639987494"><ele>217.0</ele><time>2026-04-09T13:26:56Z</time></trkpt><trkpt lat="44.86345686785274" lon="8.27797066540006"><ele>215.99999999999997</ele><time>2026-04-09T13:26:57Z</time></trkpt><trkpt lat="44.863535580152536" lon="8.278008819976442"><ele>215.0</ele><time>2026-04-09T13:26:58Z</time></trkpt><trkpt lat="44.863611068717866" lon="8.278060100880747"><ele>214.0</ele><time>2026-04-09T13:26:59Z</time></trkpt><trkpt lat="44.86368105960262" lon="8.278125624855276"><ele>213.0</ele><time>2026-04-09T13:27:00Z</time></trkpt><trkpt lat="44.86375042772999" lon="8.278202413347397"><ele>211.99999999999997</ele><time>2026-04-09T13:27:01Z</time></trkpt><trkpt lat="44.86382487888312" lon="8.27828435088882"><ele>211.0</ele><time>2026-04-09T13:27:02Z</time></trkpt><trkpt lat="44.86387312417012" lon="8.278404632951597"><ele>211.0</ele><time>2026-04-09T13:27:03Z</time></trkpt><trkpt lat="44.86390720460127" lon="8.278538382749597"><ele>211.0</ele><time>2026-04-09T13:27:04Z</time></trkpt><trkpt lat="44.86390515794844" lon="8.278687131699922"><ele>211.0</ele><time>2026-04-09T13:27:05Z</time></trkpt><trkpt lat="44.863933675558584" lon="8.278834482621573"><ele>211.0</ele><time>2026-04-09T13:27:06Z</time></trkpt><trkpt lat="44.86394387807973" lon="8.278991223090301"><ele>211.0</ele><time>2026-04-09T13:27:07Z</time></trkpt><trkpt lat="44.863964584982455" lon="8.279151711736104"><ele>210.25</ele><time>2026-04-09T13:27:08Z</time></trkpt><trkpt lat="44.864003413268655" lon="8.279314481595856"><ele>209.5</ele><time>2026-04-09T13:27:09Z</time></trkpt><trkpt lat="44.86405597081029" lon="8.27948548979556"><ele>208.75</ele><time>2026-04-09T13:27:10Z</time></trkpt><trkpt lat="44.86411763488256" lon="8.279660870477722"><ele>208.0</ele><time>2026-04-09T13:27:11Z</time></trkpt><trkpt lat="44.864171752954555" lon="8.279837233597847"><ele>208.0</ele><time>2026-04-09T13:27:12Z</time></trkpt><trkpt lat="44.86423064359766" lon="8.279998275295055"><ele>208.0</ele><time>2026-04-09T13:27:13Z</time></trkpt><trkpt lat="44.86428252603198" lon="8.280150178555527"><ele>208.0</ele><time>2026-04-09T13:27:14Z</time></trkpt><trkpt lat="44.86432955711806" lon="8.280296943189489"><ele>208.0</ele><time>2026-04-09T13:27:15Z</time></trkpt><trkpt lat="44.86436380618452" lon="8.280442096176595"><ele>207.2</ele><time>2026-04-09T13:27:16Z</time></trkpt><trkpt lat="44.86438607533077" lon="8.280597954772029"><ele>206.4</ele><time>2026-04-09T13:27:17Z</time></trkpt><trkpt lat="44.864407096401735" lon="8.28075790828282"><ele>205.6</ele><time>2026-04-09T13:27:18Z</time></trkpt><trkpt lat="44.864434515578154" lon="8.280909570205274"><ele>204.79999999999998</ele><time>2026-04-09T13:27:19Z</time></trkpt><trkpt lat="44.86447093516198" lon="8.28104994184511"><ele>204.0</ele><time>2026-04-09T13:27:20Z</time></trkpt><trkpt lat="44.864518168484416" lon="8.281197247304108"><ele>201.5</ele><time>2026-04-09T13:27:21Z</time></trkpt><trkpt lat="44.864607639736505" lon="8.281299734447291"><ele>199.0</ele><time>2026-04-09T13:27:22Z</time></trkpt><trkpt lat="44.86470861280938" lon="8.281409776236536"><ele>196.5</ele><time>2026-04-09T13:27:23Z</time></trkpt><trkpt lat="44.864818916313034" lon="8.281503022908717"><ele>194.0</ele><time>2026-04-09T13:27:24Z</time></trkpt><trkpt lat="44.86492579637522" lon="8.281593375548102"><ele>194.0</ele><time>2026-04-09T13:27:25Z</time></trkpt><trkpt lat="44.86502469788874" lon="8.281681003830892"><ele>194.0</ele><time>2026-04-09T13:27:26Z</time></trkpt><trkpt lat="44.865118874846175" lon="8.281761834546707"><ele>194.0</ele><time>2026-04-09T13:27:27Z</time></trkpt><trkpt lat="44.86520708209485" lon="8.281848026898443"><ele>194.0</ele><time>2026-04-09T13:27:28Z</time></trkpt><trkpt lat="44.8652907083499" lon="8.281926870988672"><ele>194.0</ele><time>2026-04-09T13:27:29Z</time></trkpt><trkpt lat="44.86539109701781" lon="8.281979627212907"><ele>192.25</ele><time>2026-04-09T13:27:30Z</time></trkpt><trkpt lat="44.86550037531252" lon="8.282004366911632"><ele>190.5</ele><time>2026-04-09T13:27:31Z</time></trkpt><trkpt lat="44.865620220543924" lon="8.282041579880206"><ele>188.75</ele><time>2026-04-09T13:27:32Z</time></trkpt><trkpt lat="44.865747099577355" lon="8.28204942089181"><ele>187.0</ele><time>2026-04-09T13:27:33Z</time></trkpt><trkpt lat="44.865874902038996" lon="8.282052604368767"><ele>186.0</ele><time>2026-04-09T13:27:34Z</time></trkpt><trkpt lat="44.86601367468314" lon="8.282054884354793"><ele>185.0</ele><time>2026-04-09T13:27:35Z</time></trkpt><trkpt lat="44.8661556780395" lon="8.282033993896466"><ele>184.0</ele><time>2026-04-09T13:27:36Z</time></trkpt><trkpt lat="44.86629352909455" lon="8.282068488509871"><ele>183.0</ele><time>2026-04-09T13:27:37Z</time></trkpt><trkpt lat="44.86642777772292" lon="8.282058240438408"><ele>183.0</ele><time>2026-04-09T13:27:38Z</time></trkpt><trkpt lat="44.866554871715195" lon="8.282093591689085"><ele>183.0</ele><time>2026-04-09T13:27:39Z</time></trkpt><trkpt lat="44.866677721941386" lon="8.282130507443563"><ele>183.0</ele><time>2026-04-09T13:27:40Z</time></trkpt><trkpt lat="44.86678552504138" lon="8.282199543749034"><ele>183.0</ele><time>2026-04-09T13:27:41Z</time></trkpt><trkpt lat="44.86689013062053" lon="8.282255174914193"><ele>184.0</ele><time>2026-04-09T13:27:42Z</time></trkpt><trkpt lat="44.86699204657117" lon="8.282312426285447"><ele>185.0</ele><time>2026-04-09T13:27:43Z</time></trkpt><trkpt lat="44.86709974392736" lon="8.282374689398752"><ele>186.0</ele><time>2026-04-09T13:27:44Z</time></trkpt><trkpt lat="44.86721124114244" lon="8.282439082918582"><ele>187.0</ele><time>2026-04-09T13:27:45Z</time></trkpt><trkpt lat="44.86732940083081" lon="8.2824958780614"><ele>187.0</ele><time>2026-04-09T13:27:46Z</time></trkpt><trkpt lat="44.86744123929384" lon="8.28257780198108"><ele>187.0</ele><time>2026-04-09T13:27:47Z</time></trkpt><trkpt lat="44.86754925333085" lon="8.282670550170442"><ele>187.0</ele><time>2026-04-09T13:27:48Z</time></trkpt><trkpt lat="44.86765039863625" lon="8.282768916494184"><ele>187.0</ele><time>2026-04-09T13:27:49Z</time></trkpt><trkpt lat="44.86774623920618" lon="8.282863960094732"><ele>185.25</ele><time>2026-04-09T13:27:50Z</time></trkpt><trkpt lat="44.867838223557555" lon="8.282966624589795"><ele>183.5</ele><time>2026-04-09T13:27:51Z</time></trkpt><trkpt lat="44.86792947437907" lon="8.283074482415625"><ele>181.75</ele><time>2026-04-09T13:27:52Z</time></trkpt><trkpt lat="44.86801723024931" lon="8.283181955706636"><ele>180.0</ele><time>2026-04-09T13:27:53Z</time></trkpt><trkpt lat="44.8681105535603" lon="8.283279568792281"><ele>180.0</ele><time>2026-04-09T13:27:54Z</time></trkpt><trkpt lat="44.86820937127032" lon="8.283366309140956"><ele>180.0</ele><time>2026-04-09T13:27:55Z</time></trkpt><trkpt lat="44.868314153746546" lon="8.283441736526642"><ele>180.0</ele><time>2026-04-09T13:27:56Z</time></trkpt><trkpt lat="44.868421703087094" lon="8.283502683081785"><ele>180.0</ele><time>2026-04-09T13:27:57Z</time></trkpt><trkpt lat="44.86853158790543" lon="8.283547130777974"><ele>181.0</ele><time>2026-04-09T13:27:58Z</time></trkpt><trkpt lat="44.868636198168616" lon="8.283598830888996"><ele>182.0</ele><time>2026-04-09T13:27:59Z</time></trkpt><trkpt lat="44.868744214604305" lon="8.283607695635961"><ele>183.0</ele><time>2026-04-09T13:28:00Z</time></trkpt><trkpt lat="44.868859731285845" lon="8.283599295884223"><ele>184.0</ele><time>2026-04-09T13:28:01Z</time></trkpt><trkpt lat="44.8689764782986" lon="8.283587707790083"><ele>184.0</ele><time>2026-04-09T13:28:02Z</time></trkpt><trkpt lat="44.869095048925644" lon="8.283555002548365"><ele>184.0</ele><time>2026-04-09T13:28:03Z</time></trkpt><trkpt lat="44.869219499500424" lon="8.28354406522205"><ele>184.0</ele><time>2026-04-09T13:28:04Z</time></trkpt><trkpt lat="44.869344093130124" lon="8.283530282750704"><ele>184.0</ele><time>2026-04-09T13:28:05Z</time></trkpt><trkpt lat="44.86946578593481" lon="8.28352213627192"><ele>186.2</ele><time>2026-04-09T13:28:06Z</time></trkpt><trkpt lat="44.869584189729444" lon="8.283519401879989"><ele>188.39999999999998</ele><time>2026-04-09T13:28:07Z</time></trkpt><trkpt lat="44.86969240202113" lon="8.283521563585351"><ele>190.6</ele><time>2026-04-09T13:28:08Z</time></trkpt><trkpt lat="44.86978849914179" lon="8.283557680482765"><ele>192.8</ele><time>2026-04-09T13:28:09Z</time></trkpt><trkpt lat="44.869878068789276" lon="8.283584772209625"><ele>195.0</ele><time>2026-04-09T13:28:10Z</time></trkpt><trkpt lat="44.869970559693094" lon="8.28362404740702"><ele>195.0</ele><time>2026-04-09T13:28:11Z</time></trkpt><trkpt lat="44.870069465942194" lon="8.283674095481908"><ele>195.0</ele><time>2026-04-09T13:28:12Z</time></trkpt><trkpt lat="44.87017050611268" lon="8.283726208430545"><ele>195.0</ele><time>2026-04-09T13:28:13Z</time></trkpt><trkpt lat="44.87025311504644" lon="8.283769756978149"><ele>195.0</ele><time>2026-04-09T13:28:14Z</time></trkpt><trkpt lat="44.87033076635847" lon="8.28381212103266"><ele>195.0</ele><time>2026-04-09T13:28:15Z</time></trkpt><trkpt lat="44.8704017606535" lon="8.283850578919672"><ele>194.66666666666666</ele><time>2026-04-09T13:28:16Z</time></trkpt><trkpt lat="44.87048594549147" lon="8.283871216534655"><ele>194.33333333333331</ele><time>2026-04-09T13:28:17Z</time></trkpt><trkpt lat="44.870566012593" lon="8.283918680141959"><ele>194.0</ele><time>2026-04-09T13:28:18Z</time></trkpt><trkpt lat="44.87064399430083" lon="8.28397611972427"><ele>193.66666666666666</ele><time>2026-04-09T13:28:19Z</time></trkpt><trkpt lat="44.87072000847207" lon="8.284019556410756"><ele>193.33333333333331</ele><time>2026-04-09T13:28:20Z</time></trkpt><trkpt lat="44.87079349124852" lon="8.284052168468628"><ele>193.0</ele><time>2026-04-09T13:28:21Z</time></trkpt><trkpt lat="44.87086556524615" lon="8.284085297076391"><ele>192.60000000000002</ele><time>2026-04-09T13:28:22Z</time></trkpt><trkpt lat="44.8709410497842" lon="8.284128089888847"><ele>192.20000000000002</ele><time>2026-04-09T13:28:23Z</time></trkpt><trkpt lat="44.87102327331922" lon="8.284184366190173"><ele>191.8</ele><time>2026-04-09T13:28:24Z</time></trkpt><trkpt lat="44.871106379094584" lon="8.284245627447117"><ele>191.4</ele><time>2026-04-09T13:28:25Z</time></trkpt><trkpt lat="44.87119387691337" lon="8.284303696724324"><ele>191.0</ele><time>2026-04-09T13:28:26Z</time></trkpt><trkpt lat="44.87128153017787" lon="8.284358873176496"><ele>191.0</ele><time>2026-04-09T13:28:27Z</time></trkpt><trkpt lat="44.871367167203836" lon="8.284418801821964"><ele>191.0</ele><time>2026-04-09T13:28:28Z</time></trkpt><trkpt lat="44.87144920320306" lon="8.284478814436737"><ele>191.0</ele><time>2026-04-09T13:28:29Z</time></trkpt><trkpt lat="44.87153915337274" lon="8.284524866813488"><ele>191.0</ele><time>2026-04-09T13:28:30Z</time></trkpt><trkpt lat="44.87162622231696" lon="8.284572127014785"><ele>191.0</ele><time>2026-04-09T13:28:31Z</time></trkpt><trkpt lat="44.87170607718844" lon="8.284632771648363"><ele>189.33333333333331</ele><time>2026-04-09T13:28:32Z</time></trkpt><trkpt lat="44.87178533338614" lon="8.284676934614374"><ele>187.66666666666666</ele><time>2026-04-09T13:28:33.001Z</time></trkpt><trkpt lat="44.871861712813704" lon="8.28471069733945"><ele>186.0</ele><time>2026-04-09T13:28:34.001Z</time></trkpt><trkpt lat="44.871937064063" lon="8.284738909435204"><ele>184.33333333333334</ele><time>2026-04-09T13:28:35.001Z</time></trkpt><trkpt lat="44.872004021179656" lon="8.284762721500371"><ele>182.66666666666669</ele><time>2026-04-09T13:28:36.001Z</time></trkpt><trkpt lat="44.872112812973256" lon="8.28478017270046"><ele>181.0</ele><time>2026-04-09T13:28:38.001Z</time></trkpt><trkpt lat="44.872204084380584" lon="8.284847633856163"><ele>181.0</ele><time>2026-04-09T13:28:40.001Z</time></trkpt><trkpt lat="44.87226006767819" lon="8.284888723551763"><ele>181.0</ele><time>2026-04-09T13:28:41.001Z</time></trkpt><trkpt lat="44.872327020999236" lon="8.284915078526845"><ele>181.0</ele><time>2026-04-09T13:28:42.001Z</time></trkpt><trkpt lat="44.87238246225551" lon="8.284984618795683"><ele>181.0</ele><time>2026-04-09T13:28:43.001Z</time></trkpt><trkpt lat="44.872461315036276" lon="8.28505157888354"><ele>181.0</ele><time>2026-04-09T13:28:44.001Z</time></trkpt><trkpt lat="44.87253909040393" lon="8.285127556678388"><ele>181.0</ele><time>2026-04-09T13:28:45.001Z</time></trkpt><trkpt lat="44.87261405407685" lon="8.285211329179917"><ele>180.83333333333334</ele><time>2026-04-09T13:28:46.001Z</time></trkpt><trkpt lat="44.872681859279496" lon="8.28529102162517"><ele>180.66666666666669</ele><time>2026-04-09T13:28:47.001Z</time></trkpt><trkpt lat="44.872744555189314" lon="8.28536231090289"><ele>180.5</ele><time>2026-04-09T13:28:48.001Z</time></trkpt><trkpt lat="44.87279558163333" lon="8.285432373932373"><ele>180.33333333333334</ele><time>2026-04-09T13:28:49.001Z</time></trkpt><trkpt lat="44.872864112251186" lon="8.285545879567547"><ele>180.16666666666666</ele><time>2026-04-09T13:28:51.001Z</time></trkpt><trkpt lat="44.87289986155336" lon="8.28564476491551"><ele>180.0</ele><time>2026-04-09T13:28:53.001Z</time></trkpt><trkpt lat="44.87291286737507" lon="8.285741518051351"><ele>182.0</ele><time>2026-04-09T13:28:55.001Z</time></trkpt><trkpt lat="44.87292400951333" lon="8.285857214762945"><ele>184.0</ele><time>2026-04-09T13:28:58Z</time></trkpt><trkpt lat="44.87296701873283" lon="8.2859705811982"><ele>186.0</ele><time>2026-04-09T13:29:00Z</time></trkpt><trkpt lat="44.87302013948402" lon="8.286135610808437"><ele>188.0</ele><time>2026-04-09T13:29:02Z</time></trkpt><trkpt lat="44.87304274611248" lon="8.286240991811823"><ele>190.0</ele><time>2026-04-09T13:29:03Z</time></trkpt><trkpt lat="44.87305677449856" lon="8.286350276776265"><ele>189.42857142857144</ele><time>2026-04-09T13:29:04Z</time></trkpt><trkpt lat="44.87306887850566" lon="8.286446800607061"><ele>188.85714285714286</ele><time>2026-04-09T13:29:05Z</time></trkpt><trkpt lat="44.873083269727566" lon="8.286534019438436"><ele>188.28571428571428</ele><time>2026-04-09T13:29:06Z</time></trkpt><trkpt lat="44.87309873697612" lon="8.286636520594083"><ele>187.71428571428572</ele><time>2026-04-09T13:29:08Z</time></trkpt><trkpt lat="44.87311372961317" lon="8.286763838793997"><ele>187.14285714285714</ele><time>2026-04-09T13:29:25Z</time></trkpt><trkpt lat="44.873131369079694" lon="8.286850822122185"><ele>186.57142857142858</ele><time>2026-04-09T13:29:26Z</time></trkpt><trkpt lat="44.87316216426194" lon="8.286935813610553"><ele>186.0</ele><time>2026-04-09T13:29:27Z</time></trkpt><trkpt lat="44.8732092917459" lon="8.287016279807387"><ele>186.00000000000003</ele><time>2026-04-09T13:29:28Z</time></trkpt><trkpt lat="44.87326117444507" lon="8.287096606347221"><ele>186.0</ele><time>2026-04-09T13:29:29Z</time></trkpt><trkpt lat="44.873315957039985" lon="8.2871739050617"><ele>186.0</ele><time>2026-04-09T13:29:30Z</time></trkpt><trkpt lat="44.87335678012667" lon="8.287247145301643"><ele>186.0</ele><time>2026-04-09T13:29:31Z</time></trkpt><trkpt lat="44.873389674096586" lon="8.287335961945951"><ele>186.0</ele><time>2026-04-09T13:29:32Z</time></trkpt><trkpt lat="44.87339275402551" lon="8.28742640363751"><ele>186.00000000000003</ele><time>2026-04-09T13:29:33Z</time></trkpt><trkpt lat="44.873405034226785" lon="8.28752846727991"><ele>186.0</ele><time>2026-04-09T13:29:34Z</time></trkpt><trkpt lat="44.873415189115626" lon="8.28763520535833"><ele>184.33333333333334</ele><time>2026-04-09T13:29:35Z</time></trkpt><trkpt lat="44.87341991212468" lon="8.287735709202362"><ele>182.66666666666666</ele><time>2026-04-09T13:29:36Z</time></trkpt><trkpt lat="44.87341529766224" lon="8.28783913267475"><ele>181.0</ele><time>2026-04-09T13:29:37Z</time></trkpt><trkpt lat="44.87341529117874" lon="8.287959029747572"><ele>179.33333333333331</ele><time>2026-04-09T13:29:38Z</time></trkpt><trkpt lat="44.87337140583176" lon="8.288071807453681"><ele>177.66666666666666</ele><time>2026-04-09T13:29:39Z</time></trkpt><trkpt lat="44.8733300557793" lon="8.288183284968557"><ele>176.0</ele><time>2026-04-09T13:29:40Z</time></trkpt><trkpt lat="44.87326814206505" lon="8.288280005840006"><ele>175.8</ele><time>2026-04-09T13:29:41Z</time></trkpt><trkpt lat="44.873200804305576" lon="8.288376570444866"><ele>175.60000000000002</ele><time>2026-04-09T13:29:42Z</time></trkpt><trkpt lat="44.87313274702091" lon="8.28846836170657"><ele>175.4</ele><time>2026-04-09T13:29:43Z</time></trkpt><trkpt lat="44.873061217874984" lon="8.28855259041654"><ele>175.2</ele><time>2026-04-09T13:29:44Z</time></trkpt><trkpt lat="44.873000644760744" lon="8.28864438292458"><ele>175.0</ele><time>2026-04-09T13:29:45Z</time></trkpt><trkpt lat="44.87297160251429" lon="8.288772031014702"><ele>175.0</ele><time>2026-04-09T13:29:46Z</time></trkpt><trkpt lat="44.872932087006774" lon="8.28887884993493"><ele>175.0</ele><time>2026-04-09T13:29:47Z</time></trkpt><trkpt lat="44.872898242328056" lon="8.288992213793867"><ele>175.0</ele><time>2026-04-09T13:29:48Z</time></trkpt><trkpt lat="44.872869103877505" lon="8.289118003133362"><ele>175.0</ele><time>2026-04-09T13:29:49Z</time></trkpt><trkpt lat="44.87284217365709" lon="8.289253627897597"><ele>175.0</ele><time>2026-04-09T13:29:50Z</time></trkpt><trkpt lat="44.872822166480084" lon="8.289401517579142"><ele>176.5</ele><time>2026-04-09T13:29:51Z</time></trkpt><trkpt lat="44.8728089067964" lon="8.289549745868396"><ele>178.0</ele><time>2026-04-09T13:29:52Z</time></trkpt><trkpt lat="44.87278804429696" lon="8.289720950440888"><ele>179.5</ele><time>2026-04-09T13:29:53Z</time></trkpt><trkpt lat="44.87279771065059" lon="8.28990512777089"><ele>181.0</ele><time>2026-04-09T13:29:54Z</time></trkpt><trkpt lat="44.872818620586315" lon="8.29009461838442"><ele>181.0</ele><time>2026-04-09T13:29:55Z</time></trkpt><trkpt lat="44.87284914884091" lon="8.290310213668281"><ele>181.0</ele><time>2026-04-09T13:29:56Z</time></trkpt><trkpt lat="44.872885616249974" lon="8.290536756068901"><ele>181.0</ele><time>2026-04-09T13:29:57Z</time></trkpt><trkpt lat="44.872922542238484" lon="8.290764859226682"><ele>176.66666666666669</ele><time>2026-04-09T13:29:58Z</time></trkpt><trkpt lat="44.87295803315476" lon="8.290984098242163"><ele>172.33333333333334</ele><time>2026-04-09T13:29:59Z</time></trkpt><trkpt lat="44.872992363798" lon="8.291196181564521"><ele>168.0</ele><time>2026-04-09T13:30:00Z</time></trkpt><trkpt lat="44.87302538623243" lon="8.29140022471332"><ele>166.0</ele><time>2026-04-09T13:30:01Z</time></trkpt><trkpt lat="44.873049906930284" lon="8.291594376970508"><ele>164.0</ele><time>2026-04-09T13:30:02Z</time></trkpt><trkpt lat="44.87307424258343" lon="8.291787942976896"><ele>162.0</ele><time>2026-04-09T13:30:03Z</time></trkpt><trkpt lat="44.87306515462577" lon="8.291983376600745"><ele>160.0</ele><time>2026-04-09T13:30:04Z</time></trkpt><trkpt lat="44.873043991585625" lon="8.292183374954968"><ele>158.5</ele><time>2026-04-09T13:30:05Z</time></trkpt><trkpt lat="44.87301453507839" lon="8.292383345992647"><ele>157.0</ele><time>2026-04-09T13:30:06Z</time></trkpt><trkpt lat="44.87298708653891" lon="8.292587440303052"><ele>155.5</ele><time>2026-04-09T13:30:07Z</time></trkpt><trkpt lat="44.87297012471226" lon="8.292791233812004"><ele>154.0</ele><time>2026-04-09T13:30:08Z</time></trkpt><trkpt lat="44.87294576457528" lon="8.292989786495156"><ele>153.0</ele><time>2026-04-09T13:30:09Z</time></trkpt><trkpt lat="44.87295758911629" lon="8.293175656855924"><ele>152.0</ele><time>2026-04-09T13:30:10Z</time></trkpt><trkpt lat="44.87295175181352" lon="8.293324903748287"><ele>151.0</ele><time>2026-04-09T13:30:11Z</time></trkpt><trkpt lat="44.872949997363506" lon="8.293481168918"><ele>150.0</ele><time>2026-04-09T13:30:12Z</time></trkpt><trkpt lat="44.87294816260536" lon="8.293646086882156"><ele>150.0</ele><time>2026-04-09T13:30:13Z</time></trkpt><trkpt lat="44.87293038992512" lon="8.293820369095998"><ele>150.0</ele><time>2026-04-09T13:30:14Z</time></trkpt><trkpt lat="44.87288884196653" lon="8.293994081103756"><ele>150.0</ele><time>2026-04-09T13:30:15Z</time></trkpt><trkpt lat="44.87284672206881" lon="8.294161264484854"><ele>150.0</ele><time>2026-04-09T13:30:16Z</time></trkpt><trkpt lat="44.872798591934774" lon="8.29431619697576"><ele>149.5</ele><time>2026-04-09T13:30:17Z</time></trkpt><trkpt lat="44.87275088552255" lon="8.294465505409145"><ele>149.0</ele><time>2026-04-09T13:30:18Z</time></trkpt><trkpt lat="44.87271473778046" lon="8.294630830505206"><ele>148.5</ele><time>2026-04-09T13:30:19Z</time></trkpt><trkpt lat="44.872691065485874" lon="8.294797135891102"><ele>148.0</ele><time>2026-04-09T13:30:20Z</time></trkpt><trkpt lat="44.87267474497547" lon="8.294970281432818"><ele>149.5</ele><time>2026-04-09T13:30:21Z</time></trkpt><trkpt lat="44.87267507110542" lon="8.29514692427261"><ele>151.0</ele><time>2026-04-09T13:30:22Z</time></trkpt><trkpt lat="44.872696842641986" lon="8.29532328663398"><ele>152.5</ele><time>2026-04-09T13:30:23Z</time></trkpt><trkpt lat="44.87273362096399" lon="8.295496471600945"><ele>154.0</ele><time>2026-04-09T13:30:24Z</time></trkpt><trkpt lat="44.87278297105142" lon="8.29566315585826"><ele>149.75</ele><time>2026-04-09T13:30:25Z</time></trkpt><trkpt lat="44.87284202215865" lon="8.295823889991938"><ele>145.5</ele><time>2026-04-09T13:30:26Z</time></trkpt><trkpt lat="44.872915125380096" lon="8.29598027972421"><ele>141.25</ele><time>2026-04-09T13:30:27.001Z</time></trkpt><trkpt lat="44.873006287692064" lon="8.296115558177174"><ele>137.0</ele><time>2026-04-09T13:30:28.001Z</time></trkpt><trkpt lat="44.873111432265006" lon="8.296227981555532"><ele>137.0</ele><time>2026-04-09T13:30:29.001Z</time></trkpt><trkpt lat="44.87322714538856" lon="8.29631494057915"><ele>137.0</ele><time>2026-04-09T13:30:30.001Z</time></trkpt><trkpt lat="44.873352513884804" lon="8.296382043498046"><ele>137.0</ele><time>2026-04-09T13:30:31.001Z</time></trkpt><trkpt lat="44.87348449954421" lon="8.29643869621861"><ele>137.0</ele><time>2026-04-09T13:30:32.001Z</time></trkpt><trkpt lat="44.87361925686937" lon="8.296489988234852"><ele>132.75</ele><time>2026-04-09T13:30:33.001Z</time></trkpt><trkpt lat="44.873756695438054" lon="8.296535437029663"><ele>128.5</ele><time>2026-04-09T13:30:34.001Z</time></trkpt><trkpt lat="44.873892195185896" lon="8.296567511558097"><ele>124.25</ele><time>2026-04-09T13:30:35.001Z</time></trkpt><trkpt lat="44.874021773176615" lon="8.296591762243985"><ele>120.0</ele><time>2026-04-09T13:30:36.001Z</time></trkpt><trkpt lat="44.87414502052672" lon="8.296595736068602"><ele>120.0</ele><time>2026-04-09T13:30:37.001Z</time></trkpt><trkpt lat="44.874253547454934" lon="8.296592093488755"><ele>120.0</ele><time>2026-04-09T13:30:38.001Z</time></trkpt><trkpt lat="44.87435252643352" lon="8.296595995814782"><ele>120.0</ele><time>2026-04-09T13:30:39.001Z</time></trkpt><trkpt lat="44.874439072277426" lon="8.296602416816018"><ele>120.0</ele><time>2026-04-09T13:30:40.001Z</time></trkpt><trkpt lat="44.87451872193406" lon="8.296647418656441"><ele>120.0</ele><time>2026-04-09T13:30:41.001Z</time></trkpt><trkpt lat="44.874579226916296" lon="8.29674226834198"><ele>119.0</ele><time>2026-04-09T13:30:42.001Z</time></trkpt><trkpt lat="44.8746060939895" lon="8.296881528160396"><ele>118.0</ele><time>2026-04-09T13:30:43.001Z</time></trkpt><trkpt lat="44.874616405256205" lon="8.297027054802482"><ele>117.0</ele><time>2026-04-09T13:30:44.001Z</time></trkpt><trkpt lat="44.87462393475942" lon="8.2971800676509"><ele>116.0</ele><time>2026-04-09T13:30:45.001Z</time></trkpt><trkpt lat="44.87463157206123" lon="8.29733265443726"><ele>115.0</ele><time>2026-04-09T13:30:46.001Z</time></trkpt><trkpt lat="44.87464554450928" lon="8.297507333664678"><ele>113.0</ele><time>2026-04-09T13:30:47.001Z</time></trkpt><trkpt lat="44.87466948172389" lon="8.297699968073726"><ele>111.0</ele><time>2026-04-09T13:30:48.001Z</time></trkpt><trkpt lat="44.87470794740869" lon="8.297909561521953"><ele>109.0</ele><time>2026-04-09T13:30:49.001Z</time></trkpt><trkpt lat="44.87476220151692" lon="8.298125317892282"><ele>108.33333333333334</ele><time>2026-04-09T13:30:50.001Z</time></trkpt><trkpt lat="44.87482940019427" lon="8.29833756772907"><ele>107.66666666666666</ele><time>2026-04-09T13:30:51.001Z</time></trkpt><trkpt lat="44.874901707951715" lon="8.298541784120461"><ele>107.0</ele><time>2026-04-09T13:30:52.001Z</time></trkpt><trkpt lat="44.874969960009345" lon="8.298736688416867"><ele>107.0</ele><time>2026-04-09T13:30:53.001Z</time></trkpt><trkpt lat="44.875035005287586" lon="8.298922463833026"><ele>107.0</ele><time>2026-04-09T13:30:54.001Z</time></trkpt><trkpt lat="44.87510426381584" lon="8.299111894346225"><ele>107.0</ele><time>2026-04-09T13:30:55.001Z</time></trkpt><trkpt lat="44.87517290194997" lon="8.299305598615161"><ele>107.0</ele><time>2026-04-09T13:30:56.001Z</time></trkpt><trkpt lat="44.87524049102689" lon="8.299500030166401"><ele>107.0</ele><time>2026-04-09T13:30:57.001Z</time></trkpt><trkpt lat="44.87530807429744" lon="8.29969138384572"><ele>107.0</ele><time>2026-04-09T13:30:58.001Z</time></trkpt><trkpt lat="44.87537224141635" lon="8.299880860556183"><ele>107.0</ele><time>2026-04-09T13:30:59.001Z</time></trkpt><trkpt lat="44.8754366009913" lon="8.300070530763556"><ele>107.0</ele><time>2026-04-09T13:31:00.001Z</time></trkpt><trkpt lat="44.875508191089594" lon="8.300260317428119"><ele>107.0</ele><time>2026-04-09T13:31:01.001Z</time></trkpt><trkpt lat="44.87558137084415" lon="8.30045314715194"><ele>107.33333333333333</ele><time>2026-04-09T13:31:02.001Z</time></trkpt><trkpt lat="44.87565186406835" lon="8.300644015674921"><ele>107.66666666666666</ele><time>2026-04-09T13:31:03Z</time></trkpt><trkpt lat="44.87572056492668" lon="8.300841649011119"><ele>108.0</ele><time>2026-04-09T13:31:04Z</time></trkpt><trkpt lat="44.87578700319931" lon="8.301043423090118"><ele>108.0</ele><time>2026-04-09T13:31:05Z</time></trkpt><trkpt lat="44.8758529141504" lon="8.301241673640122"><ele>108.0</ele><time>2026-04-09T13:31:06Z</time></trkpt><trkpt lat="44.87592032823167" lon="8.301436600772986"><ele>108.0</ele><time>2026-04-09T13:31:07Z</time></trkpt><trkpt lat="44.875985751564414" lon="8.30162536425856"><ele>108.0</ele><time>2026-04-09T13:31:08Z</time></trkpt><trkpt lat="44.8760508731766" lon="8.301812689317861"><ele>108.0</ele><time>2026-04-09T13:31:09Z</time></trkpt><trkpt lat="44.87611691529773" lon="8.302001780995413"><ele>108.0</ele><time>2026-04-09T13:31:10Z</time></trkpt><trkpt lat="44.87618328767541" lon="8.302189267726167"><ele>108.0</ele><time>2026-04-09T13:31:11Z</time></trkpt><trkpt lat="44.87625485338744" lon="8.302370232784286"><ele>108.0</ele><time>2026-04-09T13:31:12Z</time></trkpt><trkpt lat="44.8763314070056" lon="8.3025485515114"><ele>108.0</ele><time>2026-04-09T13:31:13Z</time></trkpt><trkpt lat="44.876415134794506" lon="8.302725759541643"><ele>108.0</ele><time>2026-04-09T13:31:14Z</time></trkpt><trkpt lat="44.87649859520402" lon="8.30290010961083"><ele>108.0</ele><time>2026-04-09T13:31:15Z</time></trkpt><trkpt lat="44.87657975607266" lon="8.30307354597339"><ele>108.0</ele><time>2026-04-09T13:31:16Z</time></trkpt><trkpt lat="44.876661611487826" lon="8.303249396459128"><ele>108.0</ele><time>2026-04-09T13:31:17Z</time></trkpt><trkpt lat="44.876743236996624" lon="8.303421503995898"><ele>108.0</ele><time>2026-04-09T13:31:18Z</time></trkpt><trkpt lat="44.87682604098293" lon="8.303590081111357"><ele>108.0</ele><time>2026-04-09T13:31:19Z</time></trkpt><trkpt lat="44.876911496326535" lon="8.30376356904667"><ele>107.0</ele><time>2026-04-09T13:31:20Z</time></trkpt><trkpt lat="44.87699672400116" lon="8.303941901399881"><ele>106.0</ele><time>2026-04-09T13:31:21Z</time></trkpt><trkpt lat="44.87708093958287" lon="8.304122109254262"><ele>105.0</ele><time>2026-04-09T13:31:22Z</time></trkpt><trkpt lat="44.877165380182014" lon="8.304298779556154"><ele>105.0</ele><time>2026-04-09T13:31:23Z</time></trkpt><trkpt lat="44.87725035419403" lon="8.30447553278906"><ele>105.0</ele><time>2026-04-09T13:31:24Z</time></trkpt><trkpt lat="44.877334507476974" lon="8.304651982820518"><ele>105.0</ele><time>2026-04-09T13:31:25Z</time></trkpt><trkpt lat="44.87742109146807" lon="8.304825676941105"><ele>105.25</ele><time>2026-04-09T13:31:26Z</time></trkpt><trkpt lat="44.877515264691446" lon="8.304987300680214"><ele>105.5</ele><time>2026-04-09T13:31:27Z</time></trkpt><trkpt lat="44.877618575492804" lon="8.305131538176967"><ele>105.75</ele><time>2026-04-09T13:31:28Z</time></trkpt><trkpt lat="44.87773292157214" lon="8.305260503101575"><ele>106.0</ele><time>2026-04-09T13:31:29Z</time></trkpt><trkpt lat="44.87785041062071" lon="8.305376831928745"><ele>106.5</ele><time>2026-04-09T13:31:30Z</time></trkpt><trkpt lat="44.87797192242368" lon="8.305473171100909"><ele>107.0</ele><time>2026-04-09T13:31:31Z</time></trkpt><trkpt lat="44.87809994360556" lon="8.30554428056208"><ele>107.5</ele><time>2026-04-09T13:31:32Z</time></trkpt><trkpt lat="44.87823481466924" lon="8.305597316024427"><ele>108.0</ele><time>2026-04-09T13:31:33Z</time></trkpt><trkpt lat="44.87837634738406" lon="8.3056382416819"><ele>105.5</ele><time>2026-04-09T13:31:34Z</time></trkpt><trkpt lat="44.87851853107476" lon="8.305669539736348"><ele>103.0</ele><time>2026-04-09T13:31:35Z</time></trkpt><trkpt lat="44.878658674565266" lon="8.305732711798877"><ele>100.5</ele><time>2026-04-09T13:31:36Z</time></trkpt><trkpt lat="44.87880709838381" lon="8.305758107496326"><ele>98.0</ele><time>2026-04-09T13:31:37Z</time></trkpt><trkpt lat="44.87895598980207" lon="8.305805754570134"><ele>98.0</ele><time>2026-04-09T13:31:38Z</time></trkpt><trkpt lat="44.879109641391786" lon="8.305849356930551"><ele>98.0</ele><time>2026-04-09T13:31:39Z</time></trkpt><trkpt lat="44.87926056054707" lon="8.305889629595994"><ele>98.0</ele><time>2026-04-09T13:31:40Z</time></trkpt><trkpt lat="44.87941390485116" lon="8.305930064772276"><ele>99.33333333333333</ele><time>2026-04-09T13:31:41Z</time></trkpt><trkpt lat="44.87956779873133" lon="8.305973146735795"><ele>100.66666666666666</ele><time>2026-04-09T13:31:42Z</time></trkpt><trkpt lat="44.87972247894066" lon="8.306020810163032"><ele>102.0</ele><time>2026-04-09T13:31:43Z</time></trkpt><trkpt lat="44.87987684224303" lon="8.306064820554381"><ele>102.0</ele><time>2026-04-09T13:31:44Z</time></trkpt><trkpt lat="44.88003224436976" lon="8.306105815889161"><ele>102.0</ele><time>2026-04-09T13:31:45Z</time></trkpt><trkpt lat="44.880187005207446" lon="8.306142670160181"><ele>102.0</ele><time>2026-04-09T13:31:46Z</time></trkpt><trkpt lat="44.880343417417116" lon="8.306182500769863"><ele>103.33333333333334</ele><time>2026-04-09T13:31:47Z</time></trkpt><trkpt lat="44.880497859308534" lon="8.306227631598606"><ele>104.66666666666667</ele><time>2026-04-09T13:31:48Z</time></trkpt><trkpt lat="44.88064752662964" lon="8.30627685796239"><ele>106.0</ele><time>2026-04-09T13:31:49Z</time></trkpt><trkpt lat="44.88079769803153" lon="8.30632140376527"><ele>105.75</ele><time>2026-04-09T13:31:50Z</time></trkpt><trkpt lat="44.88093704244644" lon="8.306359785575095"><ele>105.5</ele><time>2026-04-09T13:31:51Z</time></trkpt><trkpt lat="44.88106884525653" lon="8.306398009438812"><ele>105.25</ele><time>2026-04-09T13:31:52Z</time></trkpt><trkpt lat="44.881195040759216" lon="8.30644577408232"><ele>105.0</ele><time>2026-04-09T13:31:53Z</time></trkpt><trkpt lat="44.88131855040805" lon="8.30651197168643"><ele>105.5</ele><time>2026-04-09T13:31:54Z</time></trkpt><trkpt lat="44.88143842809594" lon="8.30659255124028"><ele>106.0</ele><time>2026-04-09T13:31:55Z</time></trkpt><trkpt lat="44.88155774153703" lon="8.306683840711392"><ele>106.5</ele><time>2026-04-09T13:31:56Z</time></trkpt><trkpt lat="44.881664385580876" lon="8.306782225713768"><ele>107.0</ele><time>2026-04-09T13:31:57Z</time></trkpt><trkpt lat="44.88176457581637" lon="8.306883661862694"><ele>106.6</ele><time>2026-04-09T13:31:58Z</time></trkpt><trkpt lat="44.88185384884437" lon="8.30697992226649"><ele>106.19999999999999</ele><time>2026-04-09T13:31:59Z</time></trkpt><trkpt lat="44.8819316977384" lon="8.307069244858436"><ele>105.8</ele><time>2026-04-09T13:32:00Z</time></trkpt><trkpt lat="44.88199388501442" lon="8.307157073112826"><ele>105.4</ele><time>2026-04-09T13:32:01Z</time></trkpt><trkpt lat="44.882038825843814" lon="8.307256291868104"><ele>105.0</ele><time>2026-04-09T13:32:02Z</time></trkpt><trkpt lat="44.882052579769415" lon="8.307388803002599"><ele>104.5</ele><time>2026-04-09T13:32:03Z</time></trkpt><trkpt lat="44.88203323155441" lon="8.307531884193477"><ele>104.0</ele><time>2026-04-09T13:32:04Z</time></trkpt><trkpt lat="44.88198460478808" lon="8.307673341032284"><ele>103.5</ele><time>2026-04-09T13:32:05Z</time></trkpt><trkpt lat="44.881915020982966" lon="8.307808675461501"><ele>103.0</ele><time>2026-04-09T13:32:06Z</time></trkpt><trkpt lat="44.881832107403994" lon="8.307944837410728"><ele>104.25</ele><time>2026-04-09T13:32:07Z</time></trkpt><trkpt lat="44.88174522523473" lon="8.308091173957159"><ele>105.5</ele><time>2026-04-09T13:32:08Z</time></trkpt><trkpt lat="44.88166270899263" lon="8.3082397443562"><ele>106.75</ele><time>2026-04-09T13:32:09Z</time></trkpt><trkpt lat="44.881573141399564" lon="8.30840210710145"><ele>108.0</ele><time>2026-04-09T13:32:10Z</time></trkpt><trkpt lat="44.88148286515265" lon="8.308563492726206"><ele>108.0</ele><time>2026-04-09T13:32:11Z</time></trkpt><trkpt lat="44.88140110503571" lon="8.308713617228745"><ele>108.0</ele><time>2026-04-09T13:32:12Z</time></trkpt><trkpt lat="44.881322956320055" lon="8.308850823146532"><ele>108.0</ele><time>2026-04-09T13:32:13Z</time></trkpt><trkpt lat="44.8812463915399" lon="8.308975792386708"><ele>108.0</ele><time>2026-04-09T13:32:14Z</time></trkpt><trkpt lat="44.881176444945744" lon="8.309090405737544"><ele>108.0</ele><time>2026-04-09T13:32:15Z</time></trkpt><trkpt lat="44.88111393762977" lon="8.309203433292222"><ele>108.00000000000001</ele><time>2026-04-09T13:32:16Z</time></trkpt><trkpt lat="44.88105186425575" lon="8.309311359490176"><ele>108.00000000000001</ele><time>2026-04-09T13:32:17Z</time></trkpt><trkpt lat="44.88099392988739" lon="8.309411491263075"><ele>108.0</ele><time>2026-04-09T13:32:18Z</time></trkpt><trkpt lat="44.88094144961763" lon="8.309507953900965"><ele>108.0</ele><time>2026-04-09T13:32:19Z</time></trkpt><trkpt lat="44.88089037356162" lon="8.309595709709903"><ele>107.80000000000001</ele><time>2026-04-09T13:32:20Z</time></trkpt><trkpt lat="44.88083932994975" lon="8.30968028390766"><ele>107.60000000000001</ele><time>2026-04-09T13:32:21Z</time></trkpt><trkpt lat="44.88078924844781" lon="8.309824966603063"><ele>107.39999999999999</ele><time>2026-04-09T13:32:23Z</time></trkpt><trkpt lat="44.88084143605823" lon="8.30999199447969"><ele>107.19999999999999</ele><time>2026-04-09T13:32:25Z</time></trkpt><trkpt lat="44.880911125557446" lon="8.310031167509791"><ele>107.0</ele><time>2026-04-09T13:32:26Z</time></trkpt><trkpt lat="44.88099649154111" lon="8.31004027502533"><ele>108.25</ele><time>2026-04-09T13:32:27Z</time></trkpt><trkpt lat="44.88109468999809" lon="8.310041446360588"><ele>109.5</ele><time>2026-04-09T13:32:28Z</time></trkpt><trkpt lat="44.88120685935838" lon="8.31005037627411"><ele>110.75</ele><time>2026-04-09T13:32:29Z</time></trkpt><trkpt lat="44.8813275503769" lon="8.310055037236285"><ele>112.0</ele><time>2026-04-09T13:32:30Z</time></trkpt><trkpt lat="44.881447011517444" lon="8.3100449334734"><ele>112.0</ele><time>2026-04-09T13:32:31Z</time></trkpt><trkpt lat="44.88157873016362" lon="8.31001959795006"><ele>112.0</ele><time>2026-04-09T13:32:32Z</time></trkpt><trkpt lat="44.88171642770806" lon="8.309986841846785"><ele>112.0</ele><time>2026-04-09T13:32:33Z</time></trkpt><trkpt lat="44.88185907634144" lon="8.309942007498137"><ele>112.0</ele><time>2026-04-09T13:32:34Z</time></trkpt><trkpt lat="44.882005732494534" lon="8.309884810895085"><ele>112.66666666666667</ele><time>2026-04-09T13:32:35Z</time></trkpt><trkpt lat="44.88215820354571" lon="8.309820693879164"><ele>113.33333333333334</ele><time>2026-04-09T13:32:36Z</time></trkpt><trkpt lat="44.88231607507479" lon="8.309789277161455"><ele>114.0</ele><time>2026-04-09T13:32:37Z</time></trkpt><trkpt lat="44.88245834339831" lon="8.30972393121736"><ele>114.0</ele><time>2026-04-09T13:32:38Z</time></trkpt><trkpt lat="44.882598745699426" lon="8.309712863853262"><ele>114.0</ele><time>2026-04-09T13:32:39Z</time></trkpt><trkpt lat="44.88273307433049" lon="8.309733847222718"><ele>114.0</ele><time>2026-04-09T13:32:40Z</time></trkpt><trkpt lat="44.882850516286595" lon="8.309808227969219"><ele>114.0</ele><time>2026-04-09T13:32:41Z</time></trkpt><trkpt lat="44.882948795352306" lon="8.309926819963602"><ele>114.0</ele><time>2026-04-09T13:32:42Z</time></trkpt><trkpt lat="44.883026640179175" lon="8.310079918622828"><ele>114.0</ele><time>2026-04-09T13:32:43.001Z</time></trkpt><trkpt lat="44.88309645057549" lon="8.310252933360218"><ele>114.0</ele><time>2026-04-09T13:32:44.001Z</time></trkpt><trkpt lat="44.8831677225997" lon="8.310438118395776"><ele>114.0</ele><time>2026-04-09T13:32:45.001Z</time></trkpt><trkpt lat="44.883243590870165" lon="8.3106219523299"><ele>114.0</ele><time>2026-04-09T13:32:46.001Z</time></trkpt><trkpt lat="44.88331014299103" lon="8.310795245444206"><ele>114.0</ele><time>2026-04-09T13:32:47.001Z</time></trkpt><trkpt lat="44.88336749790236" lon="8.310948466911588"><ele>114.0</ele><time>2026-04-09T13:32:48.001Z</time></trkpt><trkpt lat="44.88342133670335" lon="8.311085364006528"><ele>114.0</ele><time>2026-04-09T13:32:49.001Z</time></trkpt><trkpt lat="44.88346793583287" lon="8.311208497553285"><ele>115.80000000000001</ele><time>2026-04-09T13:32:50.001Z</time></trkpt><trkpt lat="44.8835083028595" lon="8.311308976301877"><ele>117.60000000000001</ele><time>2026-04-09T13:32:51.001Z</time></trkpt><trkpt lat="44.883543694722846" lon="8.31142823927757"><ele>119.4</ele><time>2026-04-09T13:32:53.001Z</time></trkpt><trkpt lat="44.8835853118267" lon="8.311518970486308"><ele>121.2</ele><time>2026-04-09T13:33:09Z</time></trkpt><trkpt lat="44.88373870952039" lon="8.311448313874576"><ele>123.0</ele><time>2026-04-09T13:33:11Z</time></trkpt><trkpt lat="44.8838159393273" lon="8.311359070187544"><ele>123.0</ele><time>2026-04-09T13:33:12Z</time></trkpt><trkpt lat="44.883894840370274" lon="8.311276768538738"><ele>123.00000000000001</ele><time>2026-04-09T13:33:13Z</time></trkpt><trkpt lat="44.88398322028615" lon="8.311196179765975"><ele>123.00000000000001</ele><time>2026-04-09T13:33:14Z</time></trkpt><trkpt lat="44.88409038240184" lon="8.311108184141604"><ele>123.0</ele><time>2026-04-09T13:33:15Z</time></trkpt><trkpt lat="44.88419424505814" lon="8.31102379425221"><ele>123.0</ele><time>2026-04-09T13:33:16Z</time></trkpt><trkpt lat="44.88430663580315" lon="8.310937305552173"><ele>123.0</ele><time>2026-04-09T13:33:17Z</time></trkpt><trkpt lat="44.88442780394942" lon="8.31085084384161"><ele>123.0</ele><time>2026-04-09T13:33:18Z</time></trkpt><trkpt lat="44.88455908277807" lon="8.310770296387966"><ele>123.0</ele><time>2026-04-09T13:33:19Z</time></trkpt><trkpt lat="44.8847019026055" lon="8.310693760565846"><ele>123.0</ele><time>2026-04-09T13:33:20Z</time></trkpt><trkpt lat="44.8848522687401" lon="8.310620137667414"><ele>122.0</ele><time>2026-04-09T13:33:21Z</time></trkpt><trkpt lat="44.884999416199406" lon="8.310551649798805"><ele>121.0</ele><time>2026-04-09T13:33:22Z</time></trkpt><trkpt lat="44.885147629911124" lon="8.310480224455047"><ele>120.0</ele><time>2026-04-09T13:33:23Z</time></trkpt><trkpt lat="44.88529733537131" lon="8.310407094044283"><ele>120.0</ele><time>2026-04-09T13:33:24Z</time></trkpt><trkpt lat="44.88545006648865" lon="8.310335029281132"><ele>120.0</ele><time>2026-04-09T13:33:25Z</time></trkpt><trkpt lat="44.885601010979634" lon="8.31025920515678"><ele>120.0</ele><time>2026-04-09T13:33:26Z</time></trkpt><trkpt lat="44.88575678190858" lon="8.310185711056656"><ele>120.0</ele><time>2026-04-09T13:33:27Z</time></trkpt><trkpt lat="44.88591438097583" lon="8.310108792190846"><ele>120.0</ele><time>2026-04-09T13:33:28Z</time></trkpt><trkpt lat="44.88607313092668" lon="8.310028887214552"><ele>120.0</ele><time>2026-04-09T13:33:29Z</time></trkpt><trkpt lat="44.88623387594924" lon="8.309950153298146"><ele>120.33333333333334</ele><time>2026-04-09T13:33:30Z</time></trkpt><trkpt lat="44.88639550588289" lon="8.309875776053678"><ele>120.66666666666667</ele><time>2026-04-09T13:33:31Z</time></trkpt><trkpt lat="44.88655981192502" lon="8.309802796644432"><ele>121.0</ele><time>2026-04-09T13:33:32Z</time></trkpt><trkpt lat="44.8867243805904" lon="8.309728853979255"><ele>121.66666666666667</ele><time>2026-04-09T13:33:33Z</time></trkpt><trkpt lat="44.886884195214684" lon="8.309651359556966"><ele>122.33333333333334</ele><time>2026-04-09T13:33:34Z</time></trkpt><trkpt lat="44.88704360742376" lon="8.309576518609362"><ele>123.0</ele><time>2026-04-09T13:33:35Z</time></trkpt><trkpt lat="44.887201728947076" lon="8.309503980922445"><ele>123.0</ele><time>2026-04-09T13:33:36Z</time></trkpt><trkpt lat="44.88735921112707" lon="8.30943284995281"><ele>123.0</ele><time>2026-04-09T13:33:37Z</time></trkpt><trkpt lat="44.88751540494262" lon="8.30936072678001"><ele>123.0</ele><time>2026-04-09T13:33:38Z</time></trkpt><trkpt lat="44.887672661897724" lon="8.309287448775304"><ele>125.33333333333334</ele><time>2026-04-09T13:33:39Z</time></trkpt><trkpt lat="44.887828056743416" lon="8.309209837796683"><ele>127.66666666666667</ele><time>2026-04-09T13:33:40Z</time></trkpt><trkpt lat="44.88798131404131" lon="8.30912349028637"><ele>130.0</ele><time>2026-04-09T13:33:41Z</time></trkpt><trkpt lat="44.88812303178859" lon="8.309025554932175"><ele>130.0</ele><time>2026-04-09T13:33:42Z</time></trkpt><trkpt lat="44.88825860384812" lon="8.308920167200146"><ele>130.0</ele><time>2026-04-09T13:33:43Z</time></trkpt><trkpt lat="44.88839507855533" lon="8.308807438422578"><ele>130.0</ele><time>2026-04-09T13:33:44Z</time></trkpt><trkpt lat="44.88853347031179" lon="8.308696438362151"><ele>131.66666666666669</ele><time>2026-04-09T13:33:45Z</time></trkpt><trkpt lat="44.88867117201683" lon="8.308585895674836"><ele>133.33333333333334</ele><time>2026-04-09T13:33:46Z</time></trkpt><trkpt lat="44.888802350411694" lon="8.308474503269084"><ele>135.0</ele><time>2026-04-09T13:33:47Z</time></trkpt><trkpt lat="44.88892803964397" lon="8.308366646824059"><ele>135.0</ele><time>2026-04-09T13:33:48Z</time></trkpt><trkpt lat="44.889046985104365" lon="8.308262539856923"><ele>135.0</ele><time>2026-04-09T13:33:49Z</time></trkpt><trkpt lat="44.88916235706483" lon="8.308165462595117"><ele>135.0</ele><time>2026-04-09T13:33:50Z</time></trkpt><trkpt lat="44.889274903987975" lon="8.308072534755988"><ele>135.0</ele><time>2026-04-09T13:33:51Z</time></trkpt><trkpt lat="44.88938358161134" lon="8.307980574627743"><ele>133.0</ele><time>2026-04-09T13:33:52Z</time></trkpt><trkpt lat="44.889489339301626" lon="8.30788931017522"><ele>131.0</ele><time>2026-04-09T13:33:53Z</time></trkpt><trkpt lat="44.8895936955597" lon="8.30780578983423"><ele>129.0</ele><time>2026-04-09T13:33:54Z</time></trkpt><trkpt lat="44.88969278488627" lon="8.3077157836376"><ele>127.0</ele><time>2026-04-09T13:33:55Z</time></trkpt><trkpt lat="44.88979190987589" lon="8.307626671006986"><ele>127.0</ele><time>2026-04-09T13:33:56Z</time></trkpt><trkpt lat="44.88988963476902" lon="8.307532069841702"><ele>127.0</ele><time>2026-04-09T13:33:57Z</time></trkpt><trkpt lat="44.88998397368026" lon="8.30743040451081"><ele>127.0</ele><time>2026-04-09T13:33:58Z</time></trkpt><trkpt lat="44.89007535197997" lon="8.30732155161622"><ele>127.0</ele><time>2026-04-09T13:33:59Z</time></trkpt><trkpt lat="44.89015610855697" lon="8.307194428162658"><ele>127.0</ele><time>2026-04-09T13:34:00Z</time></trkpt><trkpt lat="44.890227296866776" lon="8.307052196745618"><ele>127.0</ele><time>2026-04-09T13:34:01Z</time></trkpt><trkpt lat="44.890284823447196" lon="8.306895482687759"><ele>127.0</ele><time>2026-04-09T13:34:02Z</time></trkpt><trkpt lat="44.890319107123084" lon="8.306726210445607"><ele>127.0</ele><time>2026-04-09T13:34:03Z</time></trkpt><trkpt lat="44.890332618071774" lon="8.306555154416065"><ele>130.0</ele><time>2026-04-09T13:34:04Z</time></trkpt><trkpt lat="44.890348888806784" lon="8.306380497613853"><ele>133.0</ele><time>2026-04-09T13:34:05Z</time></trkpt><trkpt lat="44.8903190941895" lon="8.306211468291133"><ele>136.0</ele><time>2026-04-09T13:34:06Z</time></trkpt><trkpt lat="44.890293653792725" lon="8.306043642528925"><ele>139.0</ele><time>2026-04-09T13:34:07Z</time></trkpt><trkpt lat="44.89025237834017" lon="8.3058798807864"><ele>139.0</ele><time>2026-04-09T13:34:08Z</time></trkpt><trkpt lat="44.89021816945355" lon="8.305715139067406"><ele>139.0</ele><time>2026-04-09T13:34:09Z</time></trkpt><trkpt lat="44.890149062322735" lon="8.305568514661498"><ele>139.0</ele><time>2026-04-09T13:34:10Z</time></trkpt><trkpt lat="44.89009199152985" lon="8.305414689334455"><ele>139.0</ele><time>2026-04-09T13:34:11Z</time></trkpt><trkpt lat="44.89002998580829" lon="8.305263629081965"><ele>139.75</ele><time>2026-04-09T13:34:12Z</time></trkpt><trkpt lat="44.889981378932134" lon="8.305095326722942"><ele>140.5</ele><time>2026-04-09T13:34:13Z</time></trkpt><trkpt lat="44.88994570779727" lon="8.30492597083538"><ele>141.25</ele><time>2026-04-09T13:34:14Z</time></trkpt><trkpt lat="44.88993738731981" lon="8.304748294964991"><ele>142.0</ele><time>2026-04-09T13:34:15Z</time></trkpt><trkpt lat="44.88994935028488" lon="8.304571182170307"><ele>142.25</ele><time>2026-04-09T13:34:16Z</time></trkpt><trkpt lat="44.8899792176325" lon="8.304400740873772"><ele>142.5</ele><time>2026-04-09T13:34:17Z</time></trkpt><trkpt lat="44.89004924977941" lon="8.304253339148554"><ele>142.75</ele><time>2026-04-09T13:34:18Z</time></trkpt><trkpt lat="44.890125790011005" lon="8.304117824257878"><ele>143.0</ele><time>2026-04-09T13:34:19Z</time></trkpt><trkpt lat="44.89020787893834" lon="8.303976801980756"><ele>142.5</ele><time>2026-04-09T13:34:20Z</time></trkpt><trkpt lat="44.89031400116029" lon="8.303859194466165"><ele>142.0</ele><time>2026-04-09T13:34:21Z</time></trkpt><trkpt lat="44.890425736637" lon="8.303737525696347"><ele>141.5</ele><time>2026-04-09T13:34:22Z</time></trkpt><trkpt lat="44.890534260840276" lon="8.303603303629107"><ele>141.0</ele><time>2026-04-09T13:34:23Z</time></trkpt><trkpt lat="44.89064015414529" lon="8.30346912887058"><ele>141.0</ele><time>2026-04-09T13:34:24Z</time></trkpt><trkpt lat="44.890745683365" lon="8.303342597253316"><ele>141.0</ele><time>2026-04-09T13:34:25Z</time></trkpt><trkpt lat="44.890849736869605" lon="8.303222445380138"><ele>141.0</ele><time>2026-04-09T13:34:26Z</time></trkpt><trkpt lat="44.89094898695021" lon="8.303106978133533"><ele>141.0</ele><time>2026-04-09T13:34:27Z</time></trkpt><trkpt lat="44.891042628288695" lon="8.30299374743865"><ele>140.25</ele><time>2026-04-09T13:34:28Z</time></trkpt><trkpt lat="44.8911364579967" lon="8.302889262169478"><ele>139.5</ele><time>2026-04-09T13:34:29Z</time></trkpt><trkpt lat="44.891226977071895" lon="8.302791415959828"><ele>138.75</ele><time>2026-04-09T13:34:30Z</time></trkpt><trkpt lat="44.89131104697753" lon="8.302687313250292"><ele>138.0</ele><time>2026-04-09T13:34:31Z</time></trkpt><trkpt lat="44.89140443970657" lon="8.302576207305073"><ele>138.0</ele><time>2026-04-09T13:34:32Z</time></trkpt><trkpt lat="44.89150698884663" lon="8.30245391919466"><ele>138.0</ele><time>2026-04-09T13:34:33Z</time></trkpt><trkpt lat="44.891617270763916" lon="8.302325908904953"><ele>138.0</ele><time>2026-04-09T13:34:34Z</time></trkpt><trkpt lat="44.89173556294353" lon="8.302186953610251"><ele>138.0</ele><time>2026-04-09T13:34:35Z</time></trkpt><trkpt lat="44.89186179845695" lon="8.302042053245362"><ele>136.0</ele><time>2026-04-09T13:34:36Z</time></trkpt><trkpt lat="44.891994914572365" lon="8.301888997117155"><ele>134.0</ele><time>2026-04-09T13:34:37Z</time></trkpt><trkpt lat="44.892132658899584" lon="8.301726457685776"><ele>132.0</ele><time>2026-04-09T13:34:38Z</time></trkpt><trkpt lat="44.89227712984761" lon="8.301553282761926"><ele>129.66666666666666</ele><time>2026-04-09T13:34:39Z</time></trkpt><trkpt lat="44.892427881381806" lon="8.301379751339999"><ele>127.33333333333333</ele><time>2026-04-09T13:34:40Z</time></trkpt><trkpt lat="44.892575250241386" lon="8.301211399055832"><ele>125.0</ele><time>2026-04-09T13:34:41Z</time></trkpt><trkpt lat="44.8927267277764" lon="8.301036675157597"><ele>125.0</ele><time>2026-04-09T13:34:42Z</time></trkpt><trkpt lat="44.89288029370301" lon="8.300855898077838"><ele>125.0</ele><time>2026-04-09T13:34:43Z</time></trkpt><trkpt lat="44.89303501856626" lon="8.300670198907003"><ele>125.0</ele><time>2026-04-09T13:34:44Z</time></trkpt><trkpt lat="44.8931924924435" lon="8.300481145436617"><ele>123.0</ele><time>2026-04-09T13:34:45Z</time></trkpt><trkpt lat="44.893352704847025" lon="8.300292387321807"><ele>121.0</ele><time>2026-04-09T13:34:46Z</time></trkpt><trkpt lat="44.89351343034063" lon="8.30010239134921"><ele>119.0</ele><time>2026-04-09T13:34:47Z</time></trkpt><trkpt lat="44.893674655461105" lon="8.29991320356164"><ele>117.33333333333333</ele><time>2026-04-09T13:34:48Z</time></trkpt><trkpt lat="44.89383595288356" lon="8.299721276430148"><ele>115.66666666666666</ele><time>2026-04-09T13:34:49Z</time></trkpt><trkpt lat="44.89399662241032" lon="8.299529596473619"><ele>114.0</ele><time>2026-04-09T13:34:50Z</time></trkpt><trkpt lat="44.89415511000435" lon="8.299340534770751"><ele>115.0</ele><time>2026-04-09T13:34:51Z</time></trkpt><trkpt lat="44.89431135407392" lon="8.299156187990006"><ele>116.0</ele><time>2026-04-09T13:34:52Z</time></trkpt><trkpt lat="44.89446565779894" lon="8.29897328601473"><ele>117.0</ele><time>2026-04-09T13:34:53Z</time></trkpt><trkpt lat="44.894617947277766" lon="8.298793049127038"><ele>117.0</ele><time>2026-04-09T13:34:54Z</time></trkpt><trkpt lat="44.89476783109963" lon="8.298615962914742"><ele>117.0</ele><time>2026-04-09T13:34:55Z</time></trkpt><trkpt lat="44.89491397212479" lon="8.298442947471557"><ele>117.0</ele><time>2026-04-09T13:34:56Z</time></trkpt><trkpt lat="44.895048101280004" lon="8.298282169519235"><ele>117.0</ele><time>2026-04-09T13:34:57.001Z</time></trkpt><trkpt lat="44.89517185746884" lon="8.298134390312798"><ele>117.0</ele><time>2026-04-09T13:34:58.001Z</time></trkpt><trkpt lat="44.89530245523138" lon="8.298006589214149"><ele>117.0</ele><time>2026-04-09T13:34:59.001Z</time></trkpt><trkpt lat="44.89542188211904" lon="8.297864487343215"><ele>117.0</ele><time>2026-04-09T13:35:00.001Z</time></trkpt><trkpt lat="44.895536162517885" lon="8.297728509137263"><ele>117.0</ele><time>2026-04-09T13:35:01.001Z</time></trkpt><trkpt lat="44.895636015414105" lon="8.297583405355644"><ele>117.0</ele><time>2026-04-09T13:35:02.001Z</time></trkpt><trkpt lat="44.89574980088553" lon="8.297461304416215"><ele>117.0</ele><time>2026-04-09T13:35:03.001Z</time></trkpt><trkpt lat="44.895865675502925" lon="8.297332512569868"><ele>117.0</ele><time>2026-04-09T13:35:04.001Z</time></trkpt><trkpt lat="44.89598058578895" lon="8.297195311785423"><ele>117.0</ele><time>2026-04-09T13:35:05.001Z</time></trkpt><trkpt lat="44.8960945053657" lon="8.29705360270018"><ele>117.0</ele><time>2026-04-09T13:35:06.001Z</time></trkpt><trkpt lat="44.896210065913266" lon="8.29691577928996"><ele>117.0</ele><time>2026-04-09T13:35:07.001Z</time></trkpt><trkpt lat="44.89632285498489" lon="8.296777698488564"><ele>117.0</ele><time>2026-04-09T13:35:08.001Z</time></trkpt><trkpt lat="44.896435679036195" lon="8.296640920721286"><ele>117.0</ele><time>2026-04-09T13:35:09.001Z</time></trkpt><trkpt lat="44.89654856135193" lon="8.296504529252312"><ele>117.0</ele><time>2026-04-09T13:35:10.001Z</time></trkpt><trkpt lat="44.89666165413462" lon="8.296368160965072"><ele>117.0</ele><time>2026-04-09T13:35:11.001Z</time></trkpt><trkpt lat="44.89677000193213" lon="8.296239541068774"><ele>117.0</ele><time>2026-04-09T13:35:12.001Z</time></trkpt><trkpt lat="44.89687530055906" lon="8.296118367410921"><ele>117.0</ele><time>2026-04-09T13:35:13.001Z</time></trkpt><trkpt lat="44.89697989949034" lon="8.295997475058428"><ele>117.0</ele><time>2026-04-09T13:35:14.001Z</time></trkpt><trkpt lat="44.89708367501777" lon="8.295871470651715"><ele>117.0</ele><time>2026-04-09T13:35:15Z</time></trkpt><trkpt lat="44.897190933639955" lon="8.295746346833692"><ele>117.0</ele><time>2026-04-09T13:35:16Z</time></trkpt><trkpt lat="44.89730031792615" lon="8.295619934555253"><ele>117.0</ele><time>2026-04-09T13:35:17Z</time></trkpt><trkpt lat="44.89741056918734" lon="8.295491300949365"><ele>117.0</ele><time>2026-04-09T13:35:18Z</time></trkpt><trkpt lat="44.89752300856248" lon="8.295355816564122"><ele>117.0</ele><time>2026-04-09T13:35:19Z</time></trkpt><trkpt lat="44.89763653573919" lon="8.295216118152448"><ele>117.0</ele><time>2026-04-09T13:35:20Z</time></trkpt><trkpt lat="44.89775503141794" lon="8.295076369853358"><ele>117.0</ele><time>2026-04-09T13:35:21Z</time></trkpt><trkpt lat="44.897877552200896" lon="8.294935953406968"><ele>117.0</ele><time>2026-04-09T13:35:22Z</time></trkpt><trkpt lat="44.89799994318746" lon="8.294792978742842"><ele>117.0</ele><time>2026-04-09T13:35:23Z</time></trkpt><trkpt lat="44.898121128203975" lon="8.29465442560027"><ele>117.0</ele><time>2026-04-09T13:35:24Z</time></trkpt><trkpt lat="44.898244828732395" lon="8.294509510386751"><ele>117.0</ele><time>2026-04-09T13:35:25Z</time></trkpt><trkpt lat="44.89837110630866" lon="8.294361034591319"><ele>117.0</ele><time>2026-04-09T13:35:26Z</time></trkpt><trkpt lat="44.898499915856476" lon="8.294210105518939"><ele>117.0</ele><time>2026-04-09T13:35:27Z</time></trkpt><trkpt lat="44.89862852489749" lon="8.294057118554106"><ele>116.66666666666666</ele><time>2026-04-09T13:35:28Z</time></trkpt><trkpt lat="44.898757234409985" lon="8.293903071708344"><ele>116.33333333333333</ele><time>2026-04-09T13:35:29Z</time></trkpt><trkpt lat="44.898886503718614" lon="8.293750755340596"><ele>116.0</ele><time>2026-04-09T13:35:30Z</time></trkpt><trkpt lat="44.89901583777352" lon="8.293598125276752"><ele>116.0</ele><time>2026-04-09T13:35:31Z</time></trkpt><trkpt lat="44.899142739986104" lon="8.293448046133358"><ele>116.0</ele><time>2026-04-09T13:35:32Z</time></trkpt><trkpt lat="44.89926740230614" lon="8.293297975672903"><ele>116.0</ele><time>2026-04-09T13:35:33Z</time></trkpt><trkpt lat="44.8993911283957" lon="8.293150659248708"><ele>115.66666666666666</ele><time>2026-04-09T13:35:34Z</time></trkpt><trkpt lat="44.8995129566102" lon="8.293004586892081"><ele>115.33333333333334</ele><time>2026-04-09T13:35:35Z</time></trkpt><trkpt lat="44.89963349708383" lon="8.292859582736469"><ele>115.0</ele><time>2026-04-09T13:35:36Z</time></trkpt><trkpt lat="44.89975411170272" lon="8.292714674088032"><ele>115.0</ele><time>2026-04-09T13:35:37Z</time></trkpt><trkpt lat="44.899872016413454" lon="8.292571707591877"><ele>115.0</ele><time>2026-04-09T13:35:38Z</time></trkpt><trkpt lat="44.899988412035064" lon="8.292431899540121"><ele>115.0</ele><time>2026-04-09T13:35:39Z</time></trkpt><trkpt lat="44.90010467167391" lon="8.292291439144144"><ele>115.66666666666667</ele><time>2026-04-09T13:35:40Z</time></trkpt><trkpt lat="44.90022236393934" lon="8.29214880603437"><ele>116.33333333333334</ele><time>2026-04-09T13:35:41Z</time></trkpt><trkpt lat="44.90034004194805" lon="8.292005648670731"><ele>117.0</ele><time>2026-04-09T13:35:42Z</time></trkpt><trkpt lat="44.90045903947029" lon="8.291865955876755"><ele>117.0</ele><time>2026-04-09T13:35:43Z</time></trkpt><trkpt lat="44.900572941444835" lon="8.29173161503398"><ele>117.0</ele><time>2026-04-09T13:35:44Z</time></trkpt><trkpt lat="44.900683483645444" lon="8.291600311895143"><ele>117.0</ele><time>2026-04-09T13:35:45Z</time></trkpt><trkpt lat="44.90079026353157" lon="8.291474514258287"><ele>117.0</ele><time>2026-04-09T13:35:46Z</time></trkpt><trkpt lat="44.90089725994205" lon="8.291350208458097"><ele>117.25</ele><time>2026-04-09T13:35:47Z</time></trkpt><trkpt lat="44.901007464696654" lon="8.291221624095453"><ele>117.5</ele><time>2026-04-09T13:35:48Z</time></trkpt><trkpt lat="44.90111828560285" lon="8.291088599625269"><ele>117.75</ele><time>2026-04-09T13:35:49Z</time></trkpt><trkpt lat="44.901231603052096" lon="8.290955581414035"><ele>118.0</ele><time>2026-04-09T13:35:50Z</time></trkpt><trkpt lat="44.90134553547452" lon="8.290817936517303"><ele>118.0</ele><time>2026-04-09T13:35:51Z</time></trkpt><trkpt lat="44.901472213984576" lon="8.290697969362101"><ele>118.0</ele><time>2026-04-09T13:35:52Z</time></trkpt><trkpt lat="44.90157740295527" lon="8.290543593157592"><ele>118.0</ele><time>2026-04-09T13:35:53Z</time></trkpt><trkpt lat="44.90169537647683" lon="8.290407852718083"><ele>117.0</ele><time>2026-04-09T13:35:54Z</time></trkpt><trkpt lat="44.901812452419634" lon="8.290271188707639"><ele>116.0</ele><time>2026-04-09T13:35:55Z</time></trkpt><trkpt lat="44.90192981774652" lon="8.290133394570011"><ele>115.0</ele><time>2026-04-09T13:35:56Z</time></trkpt><trkpt lat="44.90204358712867" lon="8.289997975564717"><ele>115.0</ele><time>2026-04-09T13:35:57Z</time></trkpt><trkpt lat="44.902152612364674" lon="8.289865615537789"><ele>115.0</ele><time>2026-04-09T13:35:58Z</time></trkpt><trkpt lat="44.90227506947741" lon="8.289744579895252"><ele>115.0</ele><time>2026-04-09T13:35:59Z</time></trkpt><trkpt lat="44.902389691425995" lon="8.289608466353394"><ele>115.0</ele><time>2026-04-09T13:36:00Z</time></trkpt><trkpt lat="44.902502878025395" lon="8.289474057298538"><ele>115.5</ele><time>2026-04-09T13:36:01Z</time></trkpt><trkpt lat="44.90261400841819" lon="8.28934219271404"><ele>116.0</ele><time>2026-04-09T13:36:02Z</time></trkpt><trkpt lat="44.90271441950353" lon="8.2891967928931"><ele>116.5</ele><time>2026-04-09T13:36:03Z</time></trkpt><trkpt lat="44.90282468577289" lon="8.289070467351225"><ele>117.0</ele><time>2026-04-09T13:36:04Z</time></trkpt><trkpt lat="44.90293245874368" lon="8.2889460121659"><ele>116.75</ele><time>2026-04-09T13:36:05Z</time></trkpt><trkpt lat="44.90303835983131" lon="8.288822214140561"><ele>116.5</ele><time>2026-04-09T13:36:06Z</time></trkpt><trkpt lat="44.90314446831352" lon="8.288699137543968"><ele>116.25</ele><time>2026-04-09T13:36:07Z</time></trkpt><trkpt lat="44.90324988743073" lon="8.2885725060747"><ele>116.0</ele><time>2026-04-09T13:36:08Z</time></trkpt><trkpt lat="44.90335686605808" lon="8.288445204929124"><ele>115.75</ele><time>2026-04-09T13:36:09Z</time></trkpt><trkpt lat="44.903465742249125" lon="8.288321115840365"><ele>115.5</ele><time>2026-04-09T13:36:10Z</time></trkpt><trkpt lat="44.90357169145645" lon="8.288195344204526"><ele>115.25</ele><time>2026-04-09T13:36:11Z</time></trkpt><trkpt lat="44.90367721852323" lon="8.288068239465638"><ele>115.0</ele><time>2026-04-09T13:36:12Z</time></trkpt><trkpt lat="44.903782004792966" lon="8.287941574040405"><ele>115.0</ele><time>2026-04-09T13:36:13Z</time></trkpt><trkpt lat="44.9038853954578" lon="8.287818001809962"><ele>115.0</ele><time>2026-04-09T13:36:14Z</time></trkpt><trkpt lat="44.90398718099223" lon="8.287699614283298"><ele>115.0</ele><time>2026-04-09T13:36:15Z</time></trkpt><trkpt lat="44.90408342007546" lon="8.287585575169041"><ele>115.0</ele><time>2026-04-09T13:36:16Z</time></trkpt><trkpt lat="44.904178059363744" lon="8.287475660127805"><ele>115.5</ele><time>2026-04-09T13:36:17Z</time></trkpt><trkpt lat="44.904268985550296" lon="8.287362191300454"><ele>116.0</ele><time>2026-04-09T13:36:18Z</time></trkpt><trkpt lat="44.90436297415961" lon="8.287251407866703"><ele>116.5</ele><time>2026-04-09T13:36:19Z</time></trkpt><trkpt lat="44.904456646573415" lon="8.287141873758124"><ele>117.0</ele><time>2026-04-09T13:36:20Z</time></trkpt><trkpt lat="44.90455107465473" lon="8.287025607900729"><ele>117.0</ele><time>2026-04-09T13:36:21Z</time></trkpt><trkpt lat="44.90464979066302" lon="8.286905642071359"><ele>117.0</ele><time>2026-04-09T13:36:22Z</time></trkpt><trkpt lat="44.904747060794975" lon="8.286794419573791"><ele>117.0</ele><time>2026-04-09T13:36:23Z</time></trkpt><trkpt lat="44.90484589147004" lon="8.2866794928134"><ele>117.0</ele><time>2026-04-09T13:36:24Z</time></trkpt><trkpt lat="44.90494837591438" lon="8.286560386079184"><ele>117.0</ele><time>2026-04-09T13:36:25Z</time></trkpt><trkpt lat="44.90505327178476" lon="8.286437110423298"><ele>117.0</ele><time>2026-04-09T13:36:26Z</time></trkpt><trkpt lat="44.905159666455624" lon="8.2863081949752"><ele>117.0</ele><time>2026-04-09T13:36:27Z</time></trkpt><trkpt lat="44.90526833146147" lon="8.286179175848565"><ele>117.0</ele><time>2026-04-09T13:36:28Z</time></trkpt><trkpt lat="44.90538054102917" lon="8.286048472222706"><ele>117.25</ele><time>2026-04-09T13:36:29Z</time></trkpt><trkpt lat="44.905492896899304" lon="8.285919121553876"><ele>117.5</ele><time>2026-04-09T13:36:30Z</time></trkpt><trkpt lat="44.905603403762015" lon="8.28579260165128"><ele>117.75</ele><time>2026-04-09T13:36:31Z</time></trkpt><trkpt lat="44.905710249979485" lon="8.285662607080544"><ele>118.0</ele><time>2026-04-09T13:36:32Z</time></trkpt><trkpt lat="44.905815215474234" lon="8.285532324474248"><ele>118.75</ele><time>2026-04-09T13:36:33Z</time></trkpt><trkpt lat="44.9059294347162" lon="8.28541777948925"><ele>119.5</ele><time>2026-04-09T13:36:34Z</time></trkpt><trkpt lat="44.90603519556528" lon="8.28529213625335"><ele>120.25</ele><time>2026-04-09T13:36:35Z</time></trkpt><trkpt lat="44.90614188861066" lon="8.28516940242784"><ele>121.0</ele><time>2026-04-09T13:36:36Z</time></trkpt><trkpt lat="44.906249927185854" lon="8.28504477689226"><ele>121.0</ele><time>2026-04-09T13:36:37Z</time></trkpt><trkpt lat="44.906357719373936" lon="8.284919648354403"><ele>121.0</ele><time>2026-04-09T13:36:38Z</time></trkpt><trkpt lat="44.90646320648169" lon="8.28479125561084"><ele>121.0</ele><time>2026-04-09T13:36:39Z</time></trkpt><trkpt lat="44.906566246608996" lon="8.284669170093117"><ele>121.0</ele><time>2026-04-09T13:36:40Z</time></trkpt><trkpt lat="44.906666137566944" lon="8.284549942453785"><ele>121.5</ele><time>2026-04-09T13:36:41Z</time></trkpt><trkpt lat="44.90676029803841" lon="8.28443642219305"><ele>122.0</ele><time>2026-04-09T13:36:42Z</time></trkpt><trkpt lat="44.90684946100121" lon="8.284334390062563"><ele>122.5</ele><time>2026-04-09T13:36:43Z</time></trkpt><trkpt lat="44.906935473810876" lon="8.284235235551273"><ele>123.0</ele><time>2026-04-09T13:36:44Z</time></trkpt><trkpt lat="44.90701478999727" lon="8.284133620747143"><ele>123.0</ele><time>2026-04-09T13:36:45Z</time></trkpt><trkpt lat="44.90708731351101" lon="8.284029433110728"><ele>123.00000000000001</ele><time>2026-04-09T13:36:46Z</time></trkpt><trkpt lat="44.90715854252652" lon="8.283912151884977"><ele>123.00000000000001</ele><time>2026-04-09T13:36:47Z</time></trkpt><trkpt lat="44.907222803563634" lon="8.283783242096987"><ele>123.0</ele><time>2026-04-09T13:36:48Z</time></trkpt><trkpt lat="44.90727700796406" lon="8.283636962368037"><ele>123.0</ele><time>2026-04-09T13:36:49Z</time></trkpt><trkpt lat="44.90731506394058" lon="8.28347622403554"><ele>122.75</ele><time>2026-04-09T13:36:50Z</time></trkpt><trkpt lat="44.90733553022278" lon="8.283303575181863"><ele>122.5</ele><time>2026-04-09T13:36:51Z</time></trkpt><trkpt lat="44.90734514754619" lon="8.283133042703962"><ele>122.25</ele><time>2026-04-09T13:36:52Z</time></trkpt><trkpt lat="44.90734868617442" lon="8.282958481587679"><ele>122.0</ele><time>2026-04-09T13:36:53Z</time></trkpt><trkpt lat="44.90735461430095" lon="8.282785757454274"><ele>122.0</ele><time>2026-04-09T13:36:54Z</time></trkpt><trkpt lat="44.90735460072519" lon="8.282607038711102"><ele>122.0</ele><time>2026-04-09T13:36:55Z</time></trkpt><trkpt lat="44.907351685410944" lon="8.282426473553988"><ele>122.0</ele><time>2026-04-09T13:36:56Z</time></trkpt><trkpt lat="44.90734432477315" lon="8.28224115501046"><ele>122.0</ele><time>2026-04-09T13:36:57Z</time></trkpt><trkpt lat="44.90733809466743" lon="8.282056751938114"><ele>121.5</ele><time>2026-04-09T13:36:58Z</time></trkpt><trkpt lat="44.907331536574475" lon="8.281871003353242"><ele>121.0</ele><time>2026-04-09T13:36:59Z</time></trkpt><trkpt lat="44.907327163843604" lon="8.281686855019712"><ele>120.5</ele><time>2026-04-09T13:37:00Z</time></trkpt><trkpt lat="44.90732478750846" lon="8.28150662493184"><ele>120.0</ele><time>2026-04-09T13:37:01Z</time></trkpt><trkpt lat="44.907322372781486" lon="8.281333204659706"><ele>119.75</ele><time>2026-04-09T13:37:02Z</time></trkpt><trkpt lat="44.90731591537981" lon="8.281160830997088"><ele>119.5</ele><time>2026-04-09T13:37:03Z</time></trkpt><trkpt lat="44.907309879694935" lon="8.280988850358888"><ele>119.25</ele><time>2026-04-09T13:37:04Z</time></trkpt><trkpt lat="44.90730712473654" lon="8.280816494081233"><ele>119.0</ele><time>2026-04-09T13:37:05Z</time></trkpt><trkpt lat="44.90730018524795" lon="8.280641626702039"><ele>118.5</ele><time>2026-04-09T13:37:06Z</time></trkpt><trkpt lat="44.90729380997886" lon="8.280468606053415"><ele>118.0</ele><time>2026-04-09T13:37:07Z</time></trkpt><trkpt lat="44.90728690098562" lon="8.280295457062797"><ele>117.5</ele><time>2026-04-09T13:37:08Z</time></trkpt><trkpt lat="44.907281381409845" lon="8.280117787057005"><ele>117.0</ele><time>2026-04-09T13:37:09Z</time></trkpt><trkpt lat="44.907274878325985" lon="8.279930762449288"><ele>116.75</ele><time>2026-04-09T13:37:10Z</time></trkpt><trkpt lat="44.90727189717365" lon="8.279736174276175"><ele>116.5</ele><time>2026-04-09T13:37:11Z</time></trkpt><trkpt lat="44.90726756429169" lon="8.279532048746809"><ele>116.25</ele><time>2026-04-09T13:37:12Z</time></trkpt><trkpt lat="44.90726231777296" lon="8.279321431669329"><ele>116.0</ele><time>2026-04-09T13:37:13Z</time></trkpt><trkpt lat="44.90725556937314" lon="8.279140544674911"><ele>116.0</ele><time>2026-04-09T13:37:14Z</time></trkpt><trkpt lat="44.907248423070506" lon="8.279003053599396"><ele>116.0</ele><time>2026-04-09T13:37:15Z</time></trkpt><trkpt lat="44.90724208480873" lon="8.27887797113224"><ele>116.0</ele><time>2026-04-09T13:37:16Z</time></trkpt><trkpt lat="44.90723905771668" lon="8.278736241375405"><ele>116.0</ele><time>2026-04-09T13:37:17Z</time></trkpt><trkpt lat="44.90723325086208" lon="8.278574233308289"><ele>116.0</ele><time>2026-04-09T13:37:18Z</time></trkpt><trkpt lat="44.90722687843579" lon="8.27839480981605"><ele>116.0</ele><time>2026-04-09T13:37:19Z</time></trkpt><trkpt lat="44.90721988747649" lon="8.27819905877733"><ele>116.0</ele><time>2026-04-09T13:37:20Z</time></trkpt><trkpt lat="44.907209806461694" lon="8.277990368578116"><ele>116.0</ele><time>2026-04-09T13:37:21Z</time></trkpt><trkpt lat="44.90720168086942" lon="8.27776984981246"><ele>116.0</ele><time>2026-04-09T13:37:22Z</time></trkpt><trkpt lat="44.90719569451929" lon="8.277541101651344"><ele>116.0</ele><time>2026-04-09T13:37:23Z</time></trkpt><trkpt lat="44.90718822620456" lon="8.277307990870108"><ele>116.0</ele><time>2026-04-09T13:37:24Z</time></trkpt><trkpt lat="44.90718203648179" lon="8.277079793395314"><ele>116.0</ele><time>2026-04-09T13:37:25Z</time></trkpt><trkpt lat="44.90717729505865" lon="8.2768624540722"><ele>116.5</ele><time>2026-04-09T13:37:26Z</time></trkpt><trkpt lat="44.90717292297458" lon="8.276655296441946"><ele>117.0</ele><time>2026-04-09T13:37:27Z</time></trkpt><trkpt lat="44.907167754675" lon="8.27645544762214"><ele>117.5</ele><time>2026-04-09T13:37:28Z</time></trkpt><trkpt lat="44.907163314096714" lon="8.276255027170125"><ele>118.0</ele><time>2026-04-09T13:37:29Z</time></trkpt><trkpt lat="44.907159179447135" lon="8.276054692620747"><ele>118.5</ele><time>2026-04-09T13:37:30Z</time></trkpt><trkpt lat="44.90715553960926" lon="8.275859573069575"><ele>119.0</ele><time>2026-04-09T13:37:31Z</time></trkpt><trkpt lat="44.90715021307863" lon="8.275672646378096"><ele>119.5</ele><time>2026-04-09T13:37:32Z</time></trkpt><trkpt lat="44.907142917140746" lon="8.275490726477182"><ele>120.0</ele><time>2026-04-09T13:37:33Z</time></trkpt><trkpt lat="44.907134234356874" lon="8.27530882057343"><ele>120.25</ele><time>2026-04-09T13:37:34Z</time></trkpt><trkpt lat="44.90712787833684" lon="8.275124054405646"><ele>120.5</ele><time>2026-04-09T13:37:35Z</time></trkpt><trkpt lat="44.907122680161265" lon="8.274944144736326"><ele>120.75</ele><time>2026-04-09T13:37:36Z</time></trkpt><trkpt lat="44.90711708850841" lon="8.27476171035729"><ele>121.0</ele><time>2026-04-09T13:37:37Z</time></trkpt><trkpt lat="44.90711270204304" lon="8.274581434909946"><ele>121.0</ele><time>2026-04-09T13:37:38Z</time></trkpt><trkpt lat="44.90710855098453" lon="8.274406454293613"><ele>121.0</ele><time>2026-04-09T13:37:39Z</time></trkpt><trkpt lat="44.9071023760588" lon="8.274234139344053"><ele>121.0</ele><time>2026-04-09T13:37:40Z</time></trkpt><trkpt lat="44.90709406187291" lon="8.274070585181807"><ele>121.0</ele><time>2026-04-09T13:37:41Z</time></trkpt><trkpt lat="44.90708977122841" lon="8.273921489089608"><ele>120.66666666666667</ele><time>2026-04-09T13:37:42Z</time></trkpt><trkpt lat="44.90708463225216" lon="8.273786733433434"><ele>120.33333333333334</ele><time>2026-04-09T13:37:43Z</time></trkpt><trkpt lat="44.90708223298002" lon="8.273668504925201"><ele>120.0</ele><time>2026-04-09T13:37:44Z</time></trkpt><trkpt lat="44.90707797608133" lon="8.27356447517531"><ele>119.66666666666666</ele><time>2026-04-09T13:37:45Z</time></trkpt><trkpt lat="44.907083291043946" lon="8.27343758038871"><ele>119.33333333333333</ele><time>2026-04-09T13:37:47Z</time></trkpt><trkpt lat="44.90707786936389" lon="8.273308254457993"><ele>119.0</ele><time>2026-04-09T13:37:51Z</time></trkpt><trkpt lat="44.907094359045374" lon="8.27317969980365"><ele>118.2</ele><time>2026-04-09T13:37:53Z</time></trkpt><trkpt lat="44.907132252441436" lon="8.273053675730639"><ele>117.4</ele><time>2026-04-09T13:37:56Z</time></trkpt><trkpt lat="44.90717632697991" lon="8.272951431928178"><ele>116.6</ele><time>2026-04-09T13:37:59Z</time></trkpt><trkpt lat="44.9072368496801" lon="8.27288149823131"><ele>115.8</ele><time>2026-04-09T13:38:01Z</time></trkpt><trkpt lat="44.90729798538356" lon="8.272787863568142"><ele>115.0</ele><time>2026-04-09T13:38:03Z</time></trkpt><trkpt lat="44.9074336468347" lon="8.272865718032822"><ele>115.0</ele><time>2026-04-09T13:38:04Z</time></trkpt><trkpt lat="44.90750952270175" lon="8.272945657680015"><ele>115.0</ele><time>2026-04-09T13:38:05Z</time></trkpt><trkpt lat="44.907570005006875" lon="8.273062089325599"><ele>115.0</ele><time>2026-04-09T13:38:06Z</time></trkpt><trkpt lat="44.90762364677611" lon="8.27319312844693"><ele>115.0</ele><time>2026-04-09T13:38:07Z</time></trkpt><trkpt lat="44.907698452557064" lon="8.273293256354837"><ele>115.0</ele><time>2026-04-09T13:38:08Z</time></trkpt><trkpt lat="44.90780689360175" lon="8.273357319204772"><ele>115.75</ele><time>2026-04-09T13:38:09Z</time></trkpt><trkpt lat="44.90793089930409" lon="8.273394222009118"><ele>116.5</ele><time>2026-04-09T13:38:10Z</time></trkpt><trkpt lat="44.908062443872275" lon="8.273430865948153"><ele>117.25</ele><time>2026-04-09T13:38:11Z</time></trkpt><trkpt lat="44.908203788166816" lon="8.273473466615778"><ele>118.0</ele><time>2026-04-09T13:38:12Z</time></trkpt><trkpt lat="44.908341722485055" lon="8.273514493990943"><ele>118.0</ele><time>2026-04-09T13:38:13Z</time></trkpt><trkpt lat="44.90848926840221" lon="8.273563942569755"><ele>118.0</ele><time>2026-04-09T13:38:14Z</time></trkpt><trkpt lat="44.90864402316392" lon="8.273615311323953"><ele>118.0</ele><time>2026-04-09T13:38:15Z</time></trkpt><trkpt lat="44.90880167437587" lon="8.273664331500346"><ele>118.0</ele><time>2026-04-09T13:38:16Z</time></trkpt><trkpt lat="44.90896420581694" lon="8.273711369544657"><ele>118.0</ele><time>2026-04-09T13:38:17Z</time></trkpt><trkpt lat="44.90912161584796" lon="8.273760589310246"><ele>118.0</ele><time>2026-04-09T13:38:18Z</time></trkpt><trkpt lat="44.9092843611099" lon="8.273810672191354"><ele>118.33333333333334</ele><time>2026-04-09T13:38:19Z</time></trkpt><trkpt lat="44.90944527189805" lon="8.273856555225132"><ele>118.66666666666666</ele><time>2026-04-09T13:38:20Z</time></trkpt><trkpt lat="44.9096064055719" lon="8.27390434764759"><ele>119.0</ele><time>2026-04-09T13:38:21Z</time></trkpt><trkpt lat="44.909766927267235" lon="8.273943900343248"><ele>119.0</ele><time>2026-04-09T13:38:22Z</time></trkpt><trkpt lat="44.90992779687865" lon="8.273980234041558"><ele>119.0</ele><time>2026-04-09T13:38:23Z</time></trkpt><trkpt lat="44.91008778767007" lon="8.27401573510444"><ele>119.0</ele><time>2026-04-09T13:38:24Z</time></trkpt><trkpt lat="44.910245055907346" lon="8.274049277162156"><ele>121.33333333333333</ele><time>2026-04-09T13:38:25Z</time></trkpt><trkpt lat="44.91040326896817" lon="8.274085604238932"><ele>123.66666666666666</ele><time>2026-04-09T13:38:26Z</time></trkpt><trkpt lat="44.91055860503777" lon="8.274118780366033"><ele>126.0</ele><time>2026-04-09T13:38:27Z</time></trkpt><trkpt lat="44.91071258621877" lon="8.274149081972013"><ele>126.0</ele><time>2026-04-09T13:38:28Z</time></trkpt><trkpt lat="44.910858354046894" lon="8.274175960845984"><ele>126.0</ele><time>2026-04-09T13:38:29Z</time></trkpt><trkpt lat="44.91098828505537" lon="8.274203760111279"><ele>126.0</ele><time>2026-04-09T13:38:30Z</time></trkpt><trkpt lat="44.91111001977169" lon="8.274247410340116"><ele>126.0</ele><time>2026-04-09T13:38:31Z</time></trkpt><trkpt lat="44.911219653553566" lon="8.274324193070715"><ele>125.5</ele><time>2026-04-09T13:38:32Z</time></trkpt><trkpt lat="44.911318033787055" lon="8.27442801735623"><ele>125.0</ele><time>2026-04-09T13:38:33Z</time></trkpt><trkpt lat="44.91141449717074" lon="8.274546054549626"><ele>124.5</ele><time>2026-04-09T13:38:34Z</time></trkpt><trkpt lat="44.911508155683414" lon="8.274670505987043"><ele>124.0</ele><time>2026-04-09T13:38:35Z</time></trkpt><trkpt lat="44.911599853382185" lon="8.274792425526053"><ele>123.5</ele><time>2026-04-09T13:38:36Z</time></trkpt><trkpt lat="44.91169249233506" lon="8.274899194480666"><ele>123.0</ele><time>2026-04-09T13:38:37Z</time></trkpt><trkpt lat="44.911792542447714" lon="8.274970110951344"><ele>122.5</ele><time>2026-04-09T13:38:38Z</time></trkpt><trkpt lat="44.91191527841793" lon="8.27500598351851"><ele>122.0</ele><time>2026-04-09T13:38:39Z</time></trkpt><trkpt lat="44.912045465543656" lon="8.27503700139662"><ele>122.0</ele><time>2026-04-09T13:38:40Z</time></trkpt><trkpt lat="44.912179387015655" lon="8.27507890260675"><ele>122.0</ele><time>2026-04-09T13:38:41Z</time></trkpt><trkpt lat="44.912318990102904" lon="8.275118185721839"><ele>122.0</ele><time>2026-04-09T13:38:42Z</time></trkpt><trkpt lat="44.91246401040558" lon="8.275147664718853"><ele>122.0</ele><time>2026-04-09T13:38:43Z</time></trkpt><trkpt lat="44.9126160186602" lon="8.275155671840011"><ele>122.0</ele><time>2026-04-09T13:38:44Z</time></trkpt><trkpt lat="44.91277049884162" lon="8.275136525374919"><ele>122.0</ele><time>2026-04-09T13:38:45Z</time></trkpt><trkpt lat="44.912922677574244" lon="8.275103691520338"><ele>122.0</ele><time>2026-04-09T13:38:46Z</time></trkpt><trkpt lat="44.91306815557713" lon="8.275059829171816"><ele>122.0</ele><time>2026-04-09T13:38:47Z</time></trkpt><trkpt lat="44.9132115720021" lon="8.275014183321728"><ele>122.0</ele><time>2026-04-09T13:38:48Z</time></trkpt><trkpt lat="44.91335059920055" lon="8.274954904366972"><ele>122.0</ele><time>2026-04-09T13:38:49Z</time></trkpt><trkpt lat="44.913482234611585" lon="8.27487439301134"><ele>122.0</ele><time>2026-04-09T13:38:50Z</time></trkpt><trkpt lat="44.913608773641315" lon="8.274783809133046"><ele>122.0</ele><time>2026-04-09T13:38:51Z</time></trkpt><trkpt lat="44.91373628083296" lon="8.274696355441696"><ele>122.0</ele><time>2026-04-09T13:38:52Z</time></trkpt><trkpt lat="44.91386458559878" lon="8.274609827319868"><ele>122.0</ele><time>2026-04-09T13:38:53Z</time></trkpt><trkpt lat="44.913995570177406" lon="8.274527208524537"><ele>122.0</ele><time>2026-04-09T13:38:54Z</time></trkpt><trkpt lat="44.9141317086771" lon="8.274464129737723"><ele>122.25</ele><time>2026-04-09T13:38:55Z</time></trkpt><trkpt lat="44.914271959512" lon="8.274415584058602"><ele>122.5</ele><time>2026-04-09T13:38:56Z</time></trkpt><trkpt lat="44.91441786656972" lon="8.274371440239246"><ele>122.75</ele><time>2026-04-09T13:38:57Z</time></trkpt><trkpt lat="44.91457001664741" lon="8.274325813261557"><ele>123.0</ele><time>2026-04-09T13:38:58Z</time></trkpt><trkpt lat="44.914718975680685" lon="8.274278629529562"><ele>123.0</ele><time>2026-04-09T13:38:59Z</time></trkpt><trkpt lat="44.91486830675029" lon="8.27424037273195"><ele>123.0</ele><time>2026-04-09T13:39:00Z</time></trkpt><trkpt lat="44.91502139697614" lon="8.274209309962192"><ele>123.0</ele><time>2026-04-09T13:39:01Z</time></trkpt><trkpt lat="44.91516989052611" lon="8.274185025399978"><ele>123.25</ele><time>2026-04-09T13:39:02Z</time></trkpt><trkpt lat="44.91531664942406" lon="8.274177747431255"><ele>123.5</ele><time>2026-04-09T13:39:03Z</time></trkpt><trkpt lat="44.91546171984424" lon="8.274189549826113"><ele>123.75</ele><time>2026-04-09T13:39:04Z</time></trkpt><trkpt lat="44.91560487558088" lon="8.27421793713369"><ele>124.0</ele><time>2026-04-09T13:39:05Z</time></trkpt><trkpt lat="44.91575203818387" lon="8.274251275519754"><ele>123.66666666666667</ele><time>2026-04-09T13:39:06Z</time></trkpt><trkpt lat="44.91590611962388" lon="8.274282848923328"><ele>123.33333333333334</ele><time>2026-04-09T13:39:07Z</time></trkpt><trkpt lat="44.916066039086864" lon="8.274312756101445"><ele>123.0</ele><time>2026-04-09T13:39:08Z</time></trkpt><trkpt lat="44.91623292267391" lon="8.274345623894055"><ele>123.0</ele><time>2026-04-09T13:39:09Z</time></trkpt><trkpt lat="44.91640667922453" lon="8.274370575340471"><ele>123.0</ele><time>2026-04-09T13:39:10Z</time></trkpt><trkpt lat="44.916582991129104" lon="8.274390308091089"><ele>123.0</ele><time>2026-04-09T13:39:11Z</time></trkpt><trkpt lat="44.91676266185088" lon="8.274407941197488"><ele>124.66666666666666</ele><time>2026-04-09T13:39:12Z</time></trkpt><trkpt lat="44.91694310465291" lon="8.274424923216637"><ele>126.33333333333333</ele><time>2026-04-09T13:39:13Z</time></trkpt><trkpt lat="44.917126174608846" lon="8.274447186403048"><ele>128.0</ele><time>2026-04-09T13:39:14Z</time></trkpt><trkpt lat="44.917304794757754" lon="8.274485808399024"><ele>128.0</ele><time>2026-04-09T13:39:15Z</time></trkpt><trkpt lat="44.91747308743766" lon="8.274550143732753"><ele>128.0</ele><time>2026-04-09T13:39:16Z</time></trkpt><trkpt lat="44.91763592082472" lon="8.274627367536867"><ele>128.0</ele><time>2026-04-09T13:39:17Z</time></trkpt><trkpt lat="44.91777862202614" lon="8.274695155135774"><ele>127.5</ele><time>2026-04-09T13:39:18Z</time></trkpt><trkpt lat="44.91792015374317" lon="8.27476214617861"><ele>127.0</ele><time>2026-04-09T13:39:19Z</time></trkpt><trkpt lat="44.918058164592615" lon="8.27481965398615"><ele>126.5</ele><time>2026-04-09T13:39:20Z</time></trkpt><trkpt lat="44.918194317267414" lon="8.274857241815992"><ele>126.0</ele><time>2026-04-09T13:39:21Z</time></trkpt><trkpt lat="44.918327385077035" lon="8.274862355261408"><ele>125.5</ele><time>2026-04-09T13:39:22Z</time></trkpt><trkpt lat="44.91846688937149" lon="8.274860847166808"><ele>125.0</ele><time>2026-04-09T13:39:23Z</time></trkpt><trkpt lat="44.918607907840034" lon="8.274863616181394"><ele>124.5</ele><time>2026-04-09T13:39:24Z</time></trkpt><trkpt lat="44.91875128787699" lon="8.274868732398408"><ele>124.0</ele><time>2026-04-09T13:39:25Z</time></trkpt><trkpt lat="44.91889755274784" lon="8.274875410117245"><ele>124.0</ele><time>2026-04-09T13:39:26Z</time></trkpt><trkpt lat="44.91904737233185" lon="8.274885168856345"><ele>124.0</ele><time>2026-04-09T13:39:27Z</time></trkpt><trkpt lat="44.91920055753733" lon="8.274895478662563"><ele>124.0</ele><time>2026-04-09T13:39:28Z</time></trkpt><trkpt lat="44.91935123583957" lon="8.274903183671654"><ele>124.5</ele><time>2026-04-09T13:39:29Z</time></trkpt><trkpt lat="44.91949997638758" lon="8.274896879770688"><ele>125.0</ele><time>2026-04-09T13:39:30Z</time></trkpt><trkpt lat="44.91965026870961" lon="8.274901969253996"><ele>125.5</ele><time>2026-04-09T13:39:31Z</time></trkpt><trkpt lat="44.91979478127004" lon="8.27484802693771"><ele>126.0</ele><time>2026-04-09T13:39:32Z</time></trkpt><trkpt lat="44.91994316828658" lon="8.274809687981781"><ele>125.66666666666666</ele><time>2026-04-09T13:39:33Z</time></trkpt><trkpt lat="44.920091848791344" lon="8.274768153972456"><ele>125.33333333333333</ele><time>2026-04-09T13:39:34Z</time></trkpt><trkpt lat="44.920242021534705" lon="8.274726134866993"><ele>125.0</ele><time>2026-04-09T13:39:35Z</time></trkpt><trkpt lat="44.92039023582005" lon="8.274683736684704"><ele>125.0</ele><time>2026-04-09T13:39:36Z</time></trkpt><trkpt lat="44.920535840432834" lon="8.274641890963156"><ele>125.0</ele><time>2026-04-09T13:39:37Z</time></trkpt><trkpt lat="44.920681866243875" lon="8.274601368476773"><ele>125.0</ele><time>2026-04-09T13:39:38Z</time></trkpt><trkpt lat="44.92083030230033" lon="8.274584383476814"><ele>125.0</ele><time>2026-04-09T13:39:39Z</time></trkpt><trkpt lat="44.920977743611964" lon="8.274547486257191"><ele>125.75</ele><time>2026-04-09T13:39:40Z</time></trkpt><trkpt lat="44.92111956703363" lon="8.274494082171294"><ele>126.5</ele><time>2026-04-09T13:39:41Z</time></trkpt><trkpt lat="44.921250165274124" lon="8.274468641220587"><ele>127.25</ele><time>2026-04-09T13:39:42Z</time></trkpt><trkpt lat="44.9213819878851" lon="8.274439694087192"><ele>128.0</ele><time>2026-04-09T13:39:43Z</time></trkpt><trkpt lat="44.92151333858216" lon="8.274402957807569"><ele>128.0</ele><time>2026-04-09T13:39:44Z</time></trkpt><trkpt lat="44.92164509176625" lon="8.274360624046633"><ele>128.0</ele><time>2026-04-09T13:39:45Z</time></trkpt><trkpt lat="44.921774831421175" lon="8.274312614958733"><ele>128.0</ele><time>2026-04-09T13:39:46Z</time></trkpt><trkpt lat="44.92190385214468" lon="8.274262075437322"><ele>128.0</ele><time>2026-04-09T13:39:47Z</time></trkpt><trkpt lat="44.9220330894094" lon="8.274195957480147"><ele>127.75</ele><time>2026-04-09T13:39:48Z</time></trkpt><trkpt lat="44.9221588011093" lon="8.274127937867162"><ele>127.5</ele><time>2026-04-09T13:39:49Z</time></trkpt><trkpt lat="44.92229076046337" lon="8.274062972184547"><ele>127.25</ele><time>2026-04-09T13:39:50Z</time></trkpt><trkpt lat="44.92242378443571" lon="8.273998569090898"><ele>127.0</ele><time>2026-04-09T13:39:51Z</time></trkpt><trkpt lat="44.92255304215422" lon="8.273935769434583"><ele>127.5</ele><time>2026-04-09T13:39:52Z</time></trkpt><trkpt lat="44.922684217190685" lon="8.273866685703924"><ele>128.0</ele><time>2026-04-09T13:39:53Z</time></trkpt><trkpt lat="44.92281355318112" lon="8.273795751683942"><ele>128.5</ele><time>2026-04-09T13:39:54Z</time></trkpt><trkpt lat="44.92294468908424" lon="8.273726266451911"><ele>129.0</ele><time>2026-04-09T13:39:55Z</time></trkpt><trkpt lat="44.923079295007625" lon="8.273658229706752"><ele>129.0</ele><time>2026-04-09T13:39:56Z</time></trkpt><trkpt lat="44.923216037067924" lon="8.273593613429204"><ele>129.0</ele><time>2026-04-09T13:39:57Z</time></trkpt><trkpt lat="44.92335426927745" lon="8.273535308726093"><ele>129.0</ele><time>2026-04-09T13:39:58Z</time></trkpt><trkpt lat="44.92349760424656" lon="8.273488782126714"><ele>129.0</ele><time>2026-04-09T13:39:59Z</time></trkpt><trkpt lat="44.923643846027325" lon="8.273452871701274"><ele>129.25</ele><time>2026-04-09T13:40:00Z</time></trkpt><trkpt lat="44.92378906654586" lon="8.273419709861239"><ele>129.5</ele><time>2026-04-09T13:40:01Z</time></trkpt><trkpt lat="44.92393803905349" lon="8.27338905123323"><ele>129.75</ele><time>2026-04-09T13:40:02Z</time></trkpt><trkpt lat="44.92408446987075" lon="8.273356484053597"><ele>130.0</ele><time>2026-04-09T13:40:03Z</time></trkpt><trkpt lat="44.92423339067547" lon="8.273328744911092"><ele>130.0</ele><time>2026-04-09T13:40:04Z</time></trkpt><trkpt lat="44.924381091751776" lon="8.273316221594074"><ele>130.0</ele><time>2026-04-09T13:40:05Z</time></trkpt><trkpt lat="44.92452957288888" lon="8.273316924330063"><ele>130.0</ele><time>2026-04-09T13:40:06Z</time></trkpt><trkpt lat="44.924678407386565" lon="8.273325295169894"><ele>130.0</ele><time>2026-04-09T13:40:07Z</time></trkpt><trkpt lat="44.92482903101629" lon="8.27334256439207"><ele>130.0</ele><time>2026-04-09T13:40:08Z</time></trkpt><trkpt lat="44.92497951522829" lon="8.273360918639487"><ele>130.0</ele><time>2026-04-09T13:40:09Z</time></trkpt><trkpt lat="44.92513311623423" lon="8.273380223285058"><ele>130.0</ele><time>2026-04-09T13:40:10Z</time></trkpt><trkpt lat="44.92528641343732" lon="8.273406084532452"><ele>130.0</ele><time>2026-04-09T13:40:11Z</time></trkpt><trkpt lat="44.92543569827712" lon="8.273440043516793"><ele>130.0</ele><time>2026-04-09T13:40:12Z</time></trkpt><trkpt lat="44.9255838873573" lon="8.273486598783109"><ele>130.0</ele><time>2026-04-09T13:40:13Z</time></trkpt><trkpt lat="44.92573033507898" lon="8.2735386226607"><ele>130.0</ele><time>2026-04-09T13:40:14Z</time></trkpt><trkpt lat="44.92587743342636" lon="8.273595188744643"><ele>130.0</ele><time>2026-04-09T13:40:15Z</time></trkpt><trkpt lat="44.926019402885885" lon="8.27364659165053"><ele>130.0</ele><time>2026-04-09T13:40:16Z</time></trkpt><trkpt lat="44.92616253074629" lon="8.273698337524328"><ele>130.0</ele><time>2026-04-09T13:40:17Z</time></trkpt><trkpt lat="44.92630974384013" lon="8.273749699613848"><ele>130.0</ele><time>2026-04-09T13:40:18Z</time></trkpt><trkpt lat="44.92646001923286" lon="8.273796159171427"><ele>130.0</ele><time>2026-04-09T13:40:19Z</time></trkpt><trkpt lat="44.926612173288625" lon="8.273837579812005"><ele>130.0</ele><time>2026-04-09T13:40:20Z</time></trkpt><trkpt lat="44.92676640618666" lon="8.273871565387978"><ele>131.0</ele><time>2026-04-09T13:40:21Z</time></trkpt><trkpt lat="44.92691849831467" lon="8.27389391701252"><ele>132.0</ele><time>2026-04-09T13:40:22Z</time></trkpt><trkpt lat="44.92706828609509" lon="8.273937415489565"><ele>133.0</ele><time>2026-04-09T13:40:23Z</time></trkpt><trkpt lat="44.92722126317474" lon="8.27395483988255"><ele>135.0</ele><time>2026-04-09T13:40:24Z</time></trkpt><trkpt lat="44.92737541626003" lon="8.273955670171581"><ele>137.0</ele><time>2026-04-09T13:40:25Z</time></trkpt><trkpt lat="44.92752803791275" lon="8.27397587151857"><ele>139.0</ele><time>2026-04-09T13:40:26Z</time></trkpt><trkpt lat="44.92768242054804" lon="8.273989489801647"><ele>139.0</ele><time>2026-04-09T13:40:27Z</time></trkpt><trkpt lat="44.927833872290954" lon="8.273993738709024"><ele>139.0</ele><time>2026-04-09T13:40:28Z</time></trkpt><trkpt lat="44.92798237132012" lon="8.274007230410628"><ele>139.0</ele><time>2026-04-09T13:40:29Z</time></trkpt><trkpt lat="44.928120750911454" lon="8.274052080917363"><ele>139.0</ele><time>2026-04-09T13:40:30Z</time></trkpt><trkpt lat="44.928252086327376" lon="8.27413388227356"><ele>139.0</ele><time>2026-04-09T13:40:31Z</time></trkpt><trkpt lat="44.92838775257364" lon="8.274216060262052"><ele>139.0</ele><time>2026-04-09T13:40:32Z</time></trkpt><trkpt lat="44.928529043385055" lon="8.27430130123468"><ele>139.0</ele><time>2026-04-09T13:40:33Z</time></trkpt><trkpt lat="44.92867380441557" lon="8.27438514361893"><ele>137.25</ele><time>2026-04-09T13:40:34Z</time></trkpt><trkpt lat="44.928816023102186" lon="8.27447019659949"><ele>135.5</ele><time>2026-04-09T13:40:35Z</time></trkpt><trkpt lat="44.92895302887165" lon="8.274554854004421"><ele>133.75</ele><time>2026-04-09T13:40:36Z</time></trkpt><trkpt lat="44.92908399077592" lon="8.274636871607852"><ele>132.0</ele><time>2026-04-09T13:40:37Z</time></trkpt><trkpt lat="44.929220054771385" lon="8.274702296032926"><ele>132.33333333333334</ele><time>2026-04-09T13:40:38Z</time></trkpt><trkpt lat="44.929365445458714" lon="8.274740062160141"><ele>132.66666666666669</ele><time>2026-04-09T13:40:39Z</time></trkpt><trkpt lat="44.92951572240255" lon="8.274739510274715"><ele>133.0</ele><time>2026-04-09T13:40:40Z</time></trkpt><trkpt lat="44.92966621384707" lon="8.274697804871776"><ele>133.0</ele><time>2026-04-09T13:40:41Z</time></trkpt><trkpt lat="44.92981712112439" lon="8.274644229452768"><ele>133.0</ele><time>2026-04-09T13:40:42Z</time></trkpt><trkpt lat="44.92996852224684" lon="8.27459736680131"><ele>133.0</ele><time>2026-04-09T13:40:43Z</time></trkpt><trkpt lat="44.930113059238124" lon="8.274559415156833"><ele>133.0</ele><time>2026-04-09T13:40:44Z</time></trkpt><trkpt lat="44.93025836029118" lon="8.274533414096624"><ele>133.0</ele><time>2026-04-09T13:40:45Z</time></trkpt><trkpt lat="44.930403017632436" lon="8.274534609029983"><ele>133.0</ele><time>2026-04-09T13:40:46Z</time></trkpt><trkpt lat="44.93054827156062" lon="8.274557394007845"><ele>133.0</ele><time>2026-04-09T13:40:47Z</time></trkpt><trkpt lat="44.93069578487294" lon="8.274586867605953"><ele>133.0</ele><time>2026-04-09T13:40:48Z</time></trkpt><trkpt lat="44.930845282288146" lon="8.274611829914587"><ele>133.0</ele><time>2026-04-09T13:40:49Z</time></trkpt><trkpt lat="44.930999712242446" lon="8.274631347010352"><ele>133.0</ele><time>2026-04-09T13:40:50Z</time></trkpt><trkpt lat="44.9311469167802" lon="8.274649031261653"><ele>132.75</ele><time>2026-04-09T13:40:51Z</time></trkpt><trkpt lat="44.93129690747611" lon="8.274662584471148"><ele>132.5</ele><time>2026-04-09T13:40:52Z</time></trkpt><trkpt lat="44.931444456036196" lon="8.27468660073674"><ele>132.25</ele><time>2026-04-09T13:40:53Z</time></trkpt><trkpt lat="44.93159131990832" lon="8.274663304354887"><ele>132.0</ele><time>2026-04-09T13:40:54Z</time></trkpt><trkpt lat="44.93173024866789" lon="8.274628855199659"><ele>132.75</ele><time>2026-04-09T13:40:55Z</time></trkpt><trkpt lat="44.93186476524833" lon="8.274595349900201"><ele>133.5</ele><time>2026-04-09T13:40:56Z</time></trkpt><trkpt lat="44.93199447834378" lon="8.274585934516422"><ele>134.25</ele><time>2026-04-09T13:40:57Z</time></trkpt><trkpt lat="44.9321218396226" lon="8.274617260962293"><ele>135.0</ele><time>2026-04-09T13:40:58Z</time></trkpt><trkpt lat="44.93225420391562" lon="8.274655472079381"><ele>135.0</ele><time>2026-04-09T13:40:59Z</time></trkpt><trkpt lat="44.93238649869576" lon="8.2747298244319"><ele>135.0</ele><time>2026-04-09T13:41:00Z</time></trkpt><trkpt lat="44.932526243202176" lon="8.274801931426921"><ele>135.0</ele><time>2026-04-09T13:41:01Z</time></trkpt><trkpt lat="44.932674060130836" lon="8.274870935309465"><ele>135.0</ele><time>2026-04-09T13:41:02Z</time></trkpt><trkpt lat="44.93282722941816" lon="8.274939148780426"><ele>136.0</ele><time>2026-04-09T13:41:03Z</time></trkpt><trkpt lat="44.9329822387594" lon="8.275010898574813"><ele>137.0</ele><time>2026-04-09T13:41:04Z</time></trkpt><trkpt lat="44.9331287051236" lon="8.275082225608013"><ele>138.0</ele><time>2026-04-09T13:41:05Z</time></trkpt><trkpt lat="44.93327738911762" lon="8.275158618269936"><ele>137.0</ele><time>2026-04-09T13:41:06Z</time></trkpt><trkpt lat="44.93342053390545" lon="8.275246604693336"><ele>136.0</ele><time>2026-04-09T13:41:07Z</time></trkpt><trkpt lat="44.933552090270936" lon="8.275354784987707"><ele>135.0</ele><time>2026-04-09T13:41:08Z</time></trkpt><trkpt lat="44.933670898447396" lon="8.275478847153746"><ele>136.66666666666666</ele><time>2026-04-09T13:41:09Z</time></trkpt><trkpt lat="44.93377761409726" lon="8.27562871111622"><ele>138.33333333333331</ele><time>2026-04-09T13:41:10Z</time></trkpt><trkpt lat="44.933866156705506" lon="8.275807251764329"><ele>140.0</ele><time>2026-04-09T13:41:11Z</time></trkpt><trkpt lat="44.933941934853806" lon="8.276000031067838"><ele>140.0</ele><time>2026-04-09T13:41:12Z</time></trkpt><trkpt lat="44.934015721702174" lon="8.276195732100497"><ele>140.0</ele><time>2026-04-09T13:41:13Z</time></trkpt><trkpt lat="44.93410105223393" lon="8.276388365707204"><ele>140.0</ele><time>2026-04-09T13:41:14Z</time></trkpt><trkpt lat="44.93420436296973" lon="8.276566063441933"><ele>138.33333333333331</ele><time>2026-04-09T13:41:15Z</time></trkpt><trkpt lat="44.93432069501954" lon="8.276735521052796"><ele>136.66666666666666</ele><time>2026-04-09T13:41:16Z</time></trkpt><trkpt lat="44.93444260724169" lon="8.276906356404071"><ele>135.0</ele><time>2026-04-09T13:41:17Z</time></trkpt><trkpt lat="44.934564884234526" lon="8.277079216653748"><ele>135.0</ele><time>2026-04-09T13:41:18Z</time></trkpt><trkpt lat="44.934692576375" lon="8.277251483433966"><ele>135.0</ele><time>2026-04-09T13:41:19Z</time></trkpt><trkpt lat="44.93482693041566" lon="8.277416964488772"><ele>135.0</ele><time>2026-04-09T13:41:20Z</time></trkpt><trkpt lat="44.93496383775591" lon="8.277574186192558"><ele>135.66666666666666</ele><time>2026-04-09T13:41:21Z</time></trkpt><trkpt lat="44.93510321146792" lon="8.277727450381464"><ele>136.33333333333331</ele><time>2026-04-09T13:41:22Z</time></trkpt><trkpt lat="44.935244646174866" lon="8.277879948204552"><ele>137.0</ele><time>2026-04-09T13:41:23Z</time></trkpt><trkpt lat="44.93539453425594" lon="8.27802226659402"><ele>138.33333333333331</ele><time>2026-04-09T13:41:24Z</time></trkpt><trkpt lat="44.935551053236196" lon="8.278150007489804"><ele>139.66666666666666</ele><time>2026-04-09T13:41:25Z</time></trkpt><trkpt lat="44.93571309313511" lon="8.278267826519835"><ele>141.0</ele><time>2026-04-09T13:41:26Z</time></trkpt><trkpt lat="44.93587050291999" lon="8.27837273410263"><ele>141.0</ele><time>2026-04-09T13:41:27Z</time></trkpt><trkpt lat="44.93602335649559" lon="8.278477099600797"><ele>141.0</ele><time>2026-04-09T13:41:28Z</time></trkpt><trkpt lat="44.93616785517857" lon="8.278598842685353"><ele>141.0</ele><time>2026-04-09T13:41:29Z</time></trkpt><trkpt lat="44.93630229513751" lon="8.278743414732103"><ele>141.0</ele><time>2026-04-09T13:41:30Z</time></trkpt><trkpt lat="44.9364187805793" lon="8.278900891281076"><ele>141.0</ele><time>2026-04-09T13:41:31Z</time></trkpt><trkpt lat="44.93651691769793" lon="8.279049352208347"><ele>141.0</ele><time>2026-04-09T13:41:32Z</time></trkpt><trkpt lat="44.93661511280704" lon="8.279190255030183"><ele>141.0</ele><time>2026-04-09T13:41:33Z</time></trkpt><trkpt lat="44.93672595060328" lon="8.279325766698463"><ele>140.0</ele><time>2026-04-09T13:41:34Z</time></trkpt><trkpt lat="44.936849297122926" lon="8.279451269401337"><ele>139.0</ele><time>2026-04-09T13:41:35Z</time></trkpt><trkpt lat="44.936984376140046" lon="8.279572776404743"><ele>138.0</ele><time>2026-04-09T13:41:36Z</time></trkpt><trkpt lat="44.937130125127595" lon="8.279686863180995"><ele>139.0</ele><time>2026-04-09T13:41:37Z</time></trkpt><trkpt lat="44.937283379884924" lon="8.279798900472098"><ele>140.0</ele><time>2026-04-09T13:41:38Z</time></trkpt><trkpt lat="44.937439426910935" lon="8.279920417078118"><ele>141.0</ele><time>2026-04-09T13:41:39Z</time></trkpt><trkpt lat="44.93759900901168" lon="8.28004222568131"><ele>141.0</ele><time>2026-04-09T13:41:40Z</time></trkpt><trkpt lat="44.937765957098286" lon="8.280152490303479"><ele>141.0</ele><time>2026-04-09T13:41:41Z</time></trkpt><trkpt lat="44.93793913613007" lon="8.280248546763051"><ele>141.0</ele><time>2026-04-09T13:41:42Z</time></trkpt><trkpt lat="44.9381160271521" lon="8.280335785535966"><ele>141.0</ele><time>2026-04-09T13:41:43Z</time></trkpt><trkpt lat="44.93829405573011" lon="8.280417969417588"><ele>141.0</ele><time>2026-04-09T13:41:44Z</time></trkpt><trkpt lat="44.93847547015022" lon="8.28048314281169"><ele>141.0</ele><time>2026-04-09T13:41:45Z</time></trkpt><trkpt lat="44.93865957782104" lon="8.280547880163628"><ele>141.0</ele><time>2026-04-09T13:41:46Z</time></trkpt><trkpt lat="44.93885346251233" lon="8.280577293521096"><ele>141.0</ele><time>2026-04-09T13:41:47Z</time></trkpt><trkpt lat="44.939048844212564" lon="8.280563180267823"><ele>141.0</ele><time>2026-04-09T13:41:48Z</time></trkpt><trkpt lat="44.9392382076614" lon="8.280589306892862"><ele>141.66666666666666</ele><time>2026-04-09T13:41:49Z</time></trkpt><trkpt lat="44.9394205148543" lon="8.280633780217485"><ele>142.33333333333331</ele><time>2026-04-09T13:41:50Z</time></trkpt><trkpt lat="44.93959405873778" lon="8.28069600468076"><ele>143.0</ele><time>2026-04-09T13:41:51Z</time></trkpt><trkpt lat="44.93976046484123" lon="8.280770141327459"><ele>143.0</ele><time>2026-04-09T13:41:52Z</time></trkpt><trkpt lat="44.93992254610995" lon="8.280845751516605"><ele>143.0</ele><time>2026-04-09T13:41:53Z</time></trkpt><trkpt lat="44.94008045968161" lon="8.280917074412727"><ele>143.0</ele><time>2026-04-09T13:41:54Z</time></trkpt><trkpt lat="44.94023443191973" lon="8.280982383238623"><ele>143.0</ele><time>2026-04-09T13:41:55Z</time></trkpt><trkpt lat="44.9403839454599" lon="8.281039644974735"><ele>143.0</ele><time>2026-04-09T13:41:56Z</time></trkpt><trkpt lat="44.940530647857436" lon="8.281091040641975"><ele>143.0</ele><time>2026-04-09T13:41:57Z</time></trkpt><trkpt lat="44.94067547830478" lon="8.281164054254873"><ele>143.0</ele><time>2026-04-09T13:41:58Z</time></trkpt><trkpt lat="44.940828964561895" lon="8.281186436780764"><ele>143.0</ele><time>2026-04-09T13:41:59Z</time></trkpt><trkpt lat="44.94098654688803" lon="8.281225899141768"><ele>143.0</ele><time>2026-04-09T13:42:00Z</time></trkpt><trkpt lat="44.941150541793824" lon="8.281262769659124"><ele>142.66666666666666</ele><time>2026-04-09T13:42:01Z</time></trkpt><trkpt lat="44.94131937804896" lon="8.281294167524326"><ele>142.33333333333334</ele><time>2026-04-09T13:42:02Z</time></trkpt><trkpt lat="44.941494978151354" lon="8.281322263157875"><ele>142.0</ele><time>2026-04-09T13:42:03Z</time></trkpt><trkpt lat="44.941674279950035" lon="8.281351254174652"><ele>142.0</ele><time>2026-04-09T13:42:04Z</time></trkpt><trkpt lat="44.94185628908785" lon="8.281383771323888"><ele>142.0</ele><time>2026-04-09T13:42:05Z</time></trkpt><trkpt lat="44.94204090269895" lon="8.281413758126709"><ele>142.0</ele><time>2026-04-09T13:42:06Z</time></trkpt><trkpt lat="44.94222397047099" lon="8.281439817383053"><ele>143.0</ele><time>2026-04-09T13:42:07Z</time></trkpt><trkpt lat="44.942408127973465" lon="8.281466117255434"><ele>144.0</ele><time>2026-04-09T13:42:08Z</time></trkpt><trkpt lat="44.942593313403435" lon="8.281499469086206"><ele>145.0</ele><time>2026-04-09T13:42:09Z</time></trkpt><trkpt lat="44.942772183765996" lon="8.281549046190666"><ele>145.0</ele><time>2026-04-09T13:42:10Z</time></trkpt><trkpt lat="44.94294777147771" lon="8.281629913684235"><ele>145.0</ele><time>2026-04-09T13:42:11Z</time></trkpt><trkpt lat="44.94311844963895" lon="8.281726575195206"><ele>145.0</ele><time>2026-04-09T13:42:12Z</time></trkpt><trkpt lat="44.94329083734974" lon="8.281822654755857"><ele>145.0</ele><time>2026-04-09T13:42:13Z</time></trkpt><trkpt lat="44.94346232373062" lon="8.28191308961939"><ele>145.0</ele><time>2026-04-09T13:42:14Z</time></trkpt><trkpt lat="44.94363368207558" lon="8.282007525764515"><ele>145.0</ele><time>2026-04-09T13:42:15Z</time></trkpt><trkpt lat="44.943800306619714" lon="8.282101480752685"><ele>145.0</ele><time>2026-04-09T13:42:16Z</time></trkpt><trkpt lat="44.94396565093574" lon="8.282193123107932"><ele>145.0</ele><time>2026-04-09T13:42:17Z</time></trkpt><trkpt lat="44.94412683510799" lon="8.282277356553678"><ele>145.0</ele><time>2026-04-09T13:42:18Z</time></trkpt><trkpt lat="44.94428608250871" lon="8.282343014458261"><ele>145.66666666666669</ele><time>2026-04-09T13:42:19Z</time></trkpt><trkpt lat="44.944446427032716" lon="8.28237366400957"><ele>146.33333333333334</ele><time>2026-04-09T13:42:20Z</time></trkpt><trkpt lat="44.944605314136325" lon="8.282397853086149"><ele>147.0</ele><time>2026-04-09T13:42:21Z</time></trkpt><trkpt lat="44.944767685017666" lon="8.282400295117368"><ele>147.0</ele><time>2026-04-09T13:42:22Z</time></trkpt><trkpt lat="44.94491518706241" lon="8.282382804138592"><ele>147.0</ele><time>2026-04-09T13:42:23Z</time></trkpt><trkpt lat="44.94505995346206" lon="8.282411082791242"><ele>147.0</ele><time>2026-04-09T13:42:24Z</time></trkpt><trkpt lat="44.94518498821197" lon="8.282473761175885"><ele>147.0</ele><time>2026-04-09T13:42:25Z</time></trkpt><trkpt lat="44.94530148266728" lon="8.28258128379829"><ele>147.0</ele><time>2026-04-09T13:42:26Z</time></trkpt><trkpt lat="44.94540226200036" lon="8.282728454375656"><ele>147.0</ele><time>2026-04-09T13:42:27Z</time></trkpt><trkpt lat="44.9455017826438" lon="8.282879475416443"><ele>147.0</ele><time>2026-04-09T13:42:28Z</time></trkpt><trkpt lat="44.94561497181931" lon="8.283015985718444"><ele>147.0</ele><time>2026-04-09T13:42:29Z</time></trkpt><trkpt lat="44.94573969476333" lon="8.283131880927234"><ele>148.0</ele><time>2026-04-09T13:42:30Z</time></trkpt><trkpt lat="44.94587626919192" lon="8.283214446260267"><ele>149.0</ele><time>2026-04-09T13:42:31Z</time></trkpt><trkpt lat="44.94602540378366" lon="8.283247387687753"><ele>150.0</ele><time>2026-04-09T13:42:32Z</time></trkpt><trkpt lat="44.94617975888089" lon="8.283221411107549"><ele>150.0</ele><time>2026-04-09T13:42:33Z</time></trkpt><trkpt lat="44.946332038485544" lon="8.283173392255732"><ele>150.0</ele><time>2026-04-09T13:42:34Z</time></trkpt><trkpt lat="44.94648158802618" lon="8.283072091353933"><ele>150.0</ele><time>2026-04-09T13:42:35Z</time></trkpt><trkpt lat="44.946632846707274" lon="8.282964476096677"><ele>151.66666666666666</ele><time>2026-04-09T13:42:36Z</time></trkpt><trkpt lat="44.9467916846691" lon="8.28284824808991"><ele>153.33333333333331</ele><time>2026-04-09T13:42:37Z</time></trkpt><trkpt lat="44.946959632954425" lon="8.282709165172221"><ele>155.0</ele><time>2026-04-09T13:42:38Z</time></trkpt><trkpt lat="44.94714038284456" lon="8.282588754793222"><ele>155.0</ele><time>2026-04-09T13:42:39Z</time></trkpt><trkpt lat="44.94731123565262" lon="8.28246484416382"><ele>155.0</ele><time>2026-04-09T13:42:40Z</time></trkpt><trkpt lat="44.947483552352985" lon="8.282342449639518"><ele>155.0</ele><time>2026-04-09T13:42:41Z</time></trkpt><trkpt lat="44.94764570404511" lon="8.28222620316353"><ele>152.66666666666666</ele><time>2026-04-09T13:42:42Z</time></trkpt><trkpt lat="44.9477980592853" lon="8.282106851692717"><ele>150.33333333333334</ele><time>2026-04-09T13:42:43Z</time></trkpt><trkpt lat="44.94793708038005" lon="8.282004349255615"><ele>148.0</ele><time>2026-04-09T13:42:44Z</time></trkpt><trkpt lat="44.94806531107032" lon="8.281901286144436"><ele>148.0</ele><time>2026-04-09T13:42:45Z</time></trkpt><trkpt lat="44.9482105549636" lon="8.281799803506043"><ele>148.0</ele><time>2026-04-09T13:42:46Z</time></trkpt><trkpt lat="44.94835336651987" lon="8.281695107404397"><ele>148.0</ele><time>2026-04-09T13:42:47Z</time></trkpt><trkpt lat="44.948496766549745" lon="8.281593786044846"><ele>148.0</ele><time>2026-04-09T13:42:48Z</time></trkpt><trkpt lat="44.94863369708183" lon="8.281488087708672"><ele>148.0</ele><time>2026-04-09T13:42:49Z</time></trkpt><trkpt lat="44.94877158039196" lon="8.281380016926331"><ele>148.0</ele><time>2026-04-09T13:42:50Z</time></trkpt><trkpt lat="44.94891592891875" lon="8.281274142109217"><ele>148.0</ele><time>2026-04-09T13:42:51Z</time></trkpt><trkpt lat="44.949057889447545" lon="8.28116981980089"><ele>148.0</ele><time>2026-04-09T13:42:52Z</time></trkpt><trkpt lat="44.94920005064359" lon="8.281064497945891"><ele>148.0</ele><time>2026-04-09T13:42:53Z</time></trkpt><trkpt lat="44.94934762274337" lon="8.280950613484565"><ele>149.0</ele><time>2026-04-09T13:42:54Z</time></trkpt><trkpt lat="44.94949318173436" lon="8.280845026667285"><ele>150.0</ele><time>2026-04-09T13:42:55Z</time></trkpt><trkpt lat="44.9496421331397" lon="8.280751691976869"><ele>151.0</ele><time>2026-04-09T13:42:56Z</time></trkpt><trkpt lat="44.94978686828631" lon="8.280679499727514"><ele>151.0</ele><time>2026-04-09T13:42:57Z</time></trkpt><trkpt lat="44.94993025909766" lon="8.280635059710598"><ele>151.0</ele><time>2026-04-09T13:42:58Z</time></trkpt><trkpt lat="44.95007693986688" lon="8.280618291191384"><ele>151.0</ele><time>2026-04-09T13:42:59Z</time></trkpt><trkpt lat="44.950224083734305" lon="8.280626588455217"><ele>151.0</ele><time>2026-04-09T13:43:00Z</time></trkpt><trkpt lat="44.95036632032064" lon="8.280647290889158"><ele>151.0</ele><time>2026-04-09T13:43:01Z</time></trkpt><trkpt lat="44.95048415352185" lon="8.280657722724975"><ele>151.0</ele><time>2026-04-09T13:43:02Z</time></trkpt><trkpt lat="44.9505815215102" lon="8.280662231038528"><ele>151.0</ele><time>2026-04-09T13:43:03Z</time></trkpt><trkpt lat="44.95065005641992" lon="8.280659067597954"><ele>151.0</ele><time>2026-04-09T13:43:04Z</time></trkpt><trkpt lat="44.95073188885631" lon="8.280688435459295"><ele>151.0</ele><time>2026-04-09T13:43:06Z</time></trkpt><trkpt lat="44.9507653113332" lon="8.280436259779474"><ele>151.0</ele><time>2026-04-09T13:43:08Z</time></trkpt><trkpt lat="44.950741439374724" lon="8.280329548755475"><ele>151.0</ele><time>2026-04-09T13:43:09Z</time></trkpt><trkpt lat="44.95071649760888" lon="8.28020073472382"><ele>151.0</ele><time>2026-04-09T13:43:10Z</time></trkpt><trkpt lat="44.95073013110737" lon="8.280043954676229"><ele>151.0</ele><time>2026-04-09T13:43:11Z</time></trkpt><trkpt lat="44.95074846122999" lon="8.279889100714575"><ele>151.0</ele><time>2026-04-09T13:43:12Z</time></trkpt><trkpt lat="44.95077552848162" lon="8.279718515246795"><ele>151.0</ele><time>2026-04-09T13:43:13Z</time></trkpt><trkpt lat="44.95081296896962" lon="8.279526446996273"><ele>151.0</ele><time>2026-04-09T13:43:14Z</time></trkpt><trkpt lat="44.950840079610856" lon="8.279317662836311"><ele>151.0</ele><time>2026-04-09T13:43:15Z</time></trkpt><trkpt lat="44.950887965217966" lon="8.279116567724776"><ele>151.0</ele><time>2026-04-09T13:43:16Z</time></trkpt><trkpt lat="44.950929316840366" lon="8.27891456240544"><ele>152.5</ele><time>2026-04-09T13:43:17Z</time></trkpt><trkpt lat="44.950967923064944" lon="8.278714155660868"><ele>154.0</ele><time>2026-04-09T13:43:18Z</time></trkpt><trkpt lat="44.95100549143164" lon="8.278513057910118"><ele>155.5</ele><time>2026-04-09T13:43:19Z</time></trkpt><trkpt lat="44.95104702474341" lon="8.278302048176505"><ele>157.0</ele><time>2026-04-09T13:43:20Z</time></trkpt><trkpt lat="44.95108737280647" lon="8.278093641954428"><ele>157.33333333333334</ele><time>2026-04-09T13:43:21Z</time></trkpt><trkpt lat="44.951129677366914" lon="8.277888766200128"><ele>157.66666666666666</ele><time>2026-04-09T13:43:22Z</time></trkpt><trkpt lat="44.95117311578107" lon="8.277680041050631"><ele>158.0</ele><time>2026-04-09T13:43:23Z</time></trkpt><trkpt lat="44.95121667002874" lon="8.277473637304931"><ele>157.66666666666666</ele><time>2026-04-09T13:43:24Z</time></trkpt><trkpt lat="44.95126361945109" lon="8.277266342991368"><ele>157.33333333333334</ele><time>2026-04-09T13:43:25Z</time></trkpt><trkpt lat="44.951313179165666" lon="8.277057664654176"><ele>157.0</ele><time>2026-04-09T13:43:26Z</time></trkpt><trkpt lat="44.95136416257684" lon="8.27684902266389"><ele>157.0</ele><time>2026-04-09T13:43:27Z</time></trkpt><trkpt lat="44.95141750775815" lon="8.276640171684729"><ele>157.0</ele><time>2026-04-09T13:43:28Z</time></trkpt><trkpt lat="44.951472832221775" lon="8.276430190838362"><ele>157.0</ele><time>2026-04-09T13:43:29Z</time></trkpt><trkpt lat="44.95152807562941" lon="8.276220035117854"><ele>158.0</ele><time>2026-04-09T13:43:30Z</time></trkpt><trkpt lat="44.951584387320885" lon="8.276006634013674"><ele>159.0</ele><time>2026-04-09T13:43:31Z</time></trkpt><trkpt lat="44.95164618444618" lon="8.275793377298015"><ele>160.0</ele><time>2026-04-09T13:43:32Z</time></trkpt><trkpt lat="44.951715111953" lon="8.27558084352547"><ele>160.0</ele><time>2026-04-09T13:43:33Z</time></trkpt><trkpt lat="44.951788521148345" lon="8.275372323328854"><ele>160.0</ele><time>2026-04-09T13:43:34Z</time></trkpt><trkpt lat="44.95186797110661" lon="8.275163636444605"><ele>160.0</ele><time>2026-04-09T13:43:35Z</time></trkpt><trkpt lat="44.95194791369098" lon="8.274954567660266"><ele>159.66666666666669</ele><time>2026-04-09T13:43:36Z</time></trkpt><trkpt lat="44.95202713136141" lon="8.274747924886187"><ele>159.33333333333334</ele><time>2026-04-09T13:43:37Z</time></trkpt><trkpt lat="44.9521066804276" lon="8.274542678372216"><ele>159.0</ele><time>2026-04-09T13:43:38Z</time></trkpt><trkpt lat="44.95218704803975" lon="8.27434253275898"><ele>159.0</ele><time>2026-04-09T13:43:39Z</time></trkpt><trkpt lat="44.95227024007891" lon="8.27414372370987"><ele>159.0</ele><time>2026-04-09T13:43:40Z</time></trkpt><trkpt lat="44.95235513626705" lon="8.273943994674784"><ele>159.0</ele><time>2026-04-09T13:43:41Z</time></trkpt><trkpt lat="44.95244129071058" lon="8.273744665010048"><ele>157.33333333333334</ele><time>2026-04-09T13:43:42Z</time></trkpt><trkpt lat="44.95252979384558" lon="8.273545486657518"><ele>155.66666666666669</ele><time>2026-04-09T13:43:43Z</time></trkpt><trkpt lat="44.95261733719941" lon="8.2733472865043"><ele>154.0</ele><time>2026-04-09T13:43:44Z</time></trkpt><trkpt lat="44.952706234241425" lon="8.27314745497873"><ele>156.33333333333334</ele><time>2026-04-09T13:43:45Z</time></trkpt><trkpt lat="44.952792148971284" lon="8.2729483912549"><ele>158.66666666666666</ele><time>2026-04-09T13:43:46Z</time></trkpt><trkpt lat="44.95287679718621" lon="8.272749054629298"><ele>161.0</ele><time>2026-04-09T13:43:47Z</time></trkpt><trkpt lat="44.95296344904797" lon="8.272550204001"><ele>161.0</ele><time>2026-04-09T13:43:48Z</time></trkpt><trkpt lat="44.9530534345747" lon="8.272355944738964"><ele>161.0</ele><time>2026-04-09T13:43:49Z</time></trkpt><trkpt lat="44.953144404770036" lon="8.272161385819059"><ele>161.0</ele><time>2026-04-09T13:43:50Z</time></trkpt><trkpt lat="44.953234990208244" lon="8.2719646492431"><ele>159.66666666666666</ele><time>2026-04-09T13:43:51Z</time></trkpt><trkpt lat="44.95332603852506" lon="8.271765942131491"><ele>158.33333333333334</ele><time>2026-04-09T13:43:52Z</time></trkpt><trkpt lat="44.95341945633488" lon="8.271566891567883"><ele>157.0</ele><time>2026-04-09T13:43:53Z</time></trkpt><trkpt lat="44.953517183108886" lon="8.27136919540168"><ele>159.66666666666669</ele><time>2026-04-09T13:43:54Z</time></trkpt><trkpt lat="44.95361609170206" lon="8.271168389773921"><ele>162.33333333333334</ele><time>2026-04-09T13:43:55Z</time></trkpt><trkpt lat="44.953718076753745" lon="8.270968980094299"><ele>165.0</ele><time>2026-04-09T13:43:56Z</time></trkpt><trkpt lat="44.953819149954654" lon="8.27076842779482"><ele>162.33333333333334</ele><time>2026-04-09T13:43:57Z</time></trkpt><trkpt lat="44.953920231478214" lon="8.270566850655413"><ele>159.66666666666669</ele><time>2026-04-09T13:43:58Z</time></trkpt><trkpt lat="44.954016339209964" lon="8.270370353105026"><ele>157.0</ele><time>2026-04-09T13:43:59Z</time></trkpt><trkpt lat="44.954109815024374" lon="8.270181918919207"><ele>157.0</ele><time>2026-04-09T13:44:00Z</time></trkpt><trkpt lat="44.95419859232719" lon="8.270002792677355"><ele>157.0</ele><time>2026-04-09T13:44:01Z</time></trkpt><trkpt lat="44.95428400382558" lon="8.269830294106628"><ele>157.0</ele><time>2026-04-09T13:44:02Z</time></trkpt><trkpt lat="44.95437843707356" lon="8.269682420000828"><ele>157.0</ele><time>2026-04-09T13:44:03Z</time></trkpt><trkpt lat="44.95444572269992" lon="8.269528280327055"><ele>156.75</ele><time>2026-04-09T13:44:04Z</time></trkpt><trkpt lat="44.95450482976343" lon="8.269362088286545"><ele>156.5</ele><time>2026-04-09T13:44:05Z</time></trkpt><trkpt lat="44.95454752763284" lon="8.269182285785206"><ele>156.25</ele><time>2026-04-09T13:44:06Z</time></trkpt><trkpt lat="44.954563863937025" lon="8.268987882733992"><ele>156.0</ele><time>2026-04-09T13:44:07Z</time></trkpt><trkpt lat="44.954571047080094" lon="8.268785632923898"><ele>156.66666666666666</ele><time>2026-04-09T13:44:08Z</time></trkpt><trkpt lat="44.95458508752444" lon="8.268567862440229"><ele>157.33333333333331</ele><time>2026-04-09T13:44:09Z</time></trkpt><trkpt lat="44.954541844820795" lon="8.26834964355901"><ele>158.0</ele><time>2026-04-09T13:44:10Z</time></trkpt><trkpt lat="44.95449819455959" lon="8.26813144452767"><ele>159.66666666666666</ele><time>2026-04-09T13:44:11Z</time></trkpt><trkpt lat="44.954427444536954" lon="8.267912324932114"><ele>161.33333333333334</ele><time>2026-04-09T13:44:12Z</time></trkpt><trkpt lat="44.9543404665806" lon="8.267699543492517"><ele>163.0</ele><time>2026-04-09T13:44:13Z</time></trkpt><trkpt lat="44.95424655212163" lon="8.267482818875246"><ele>163.0</ele><time>2026-04-09T13:44:14Z</time></trkpt><trkpt lat="44.95415189603513" lon="8.267252723367516"><ele>163.0</ele><time>2026-04-09T13:44:15Z</time></trkpt><trkpt lat="44.95405432601163" lon="8.267015247353163"><ele>163.0</ele><time>2026-04-09T13:44:16Z</time></trkpt><trkpt lat="44.95395153166416" lon="8.26676835363981"><ele>163.0</ele><time>2026-04-09T13:44:17Z</time></trkpt><trkpt lat="44.953849554078815" lon="8.266518949185246"><ele>163.0</ele><time>2026-04-09T13:44:18Z</time></trkpt><trkpt lat="44.953746899389266" lon="8.266263003596404"><ele>163.0</ele><time>2026-04-09T13:44:19Z</time></trkpt><trkpt lat="44.953647303665505" lon="8.266013678641519"><ele>166.0</ele><time>2026-04-09T13:44:20Z</time></trkpt><trkpt lat="44.9535509560075" lon="8.26577913515497"><ele>169.0</ele><time>2026-04-09T13:44:21Z</time></trkpt><trkpt lat="44.95345957204313" lon="8.26556051114521"><ele>172.0</ele><time>2026-04-09T13:44:22Z</time></trkpt><trkpt lat="44.95337273310808" lon="8.265359319403915"><ele>170.25</ele><time>2026-04-09T13:44:23Z</time></trkpt><trkpt lat="44.953294531218575" lon="8.265168956216902"><ele>168.5</ele><time>2026-04-09T13:44:24Z</time></trkpt><trkpt lat="44.953222233982" lon="8.264987172358355"><ele>166.75</ele><time>2026-04-09T13:44:25Z</time></trkpt><trkpt lat="44.953161776469415" lon="8.264802489846751"><ele>165.0</ele><time>2026-04-09T13:44:26Z</time></trkpt><trkpt lat="44.95311331672527" lon="8.264608082358453"><ele>165.0</ele><time>2026-04-09T13:44:27Z</time></trkpt><trkpt lat="44.95309110883325" lon="8.264402228916301"><ele>165.0</ele><time>2026-04-09T13:44:28Z</time></trkpt><trkpt lat="44.95309069330532" lon="8.264186519272956"><ele>165.0</ele><time>2026-04-09T13:44:29Z</time></trkpt><trkpt lat="44.953097198252784" lon="8.263964569077515"><ele>165.33333333333334</ele><time>2026-04-09T13:44:30Z</time></trkpt><trkpt lat="44.95309739093169" lon="8.263730202887581"><ele>165.66666666666669</ele><time>2026-04-09T13:44:31Z</time></trkpt><trkpt lat="44.953098572885004" lon="8.263488911349475"><ele>166.0</ele><time>2026-04-09T13:44:32Z</time></trkpt><trkpt lat="44.95310601658504" lon="8.263245047831639"><ele>166.0</ele><time>2026-04-09T13:44:33Z</time></trkpt><trkpt lat="44.9531072467093" lon="8.263006121475776"><ele>166.0</ele><time>2026-04-09T13:44:34Z</time></trkpt><trkpt lat="44.95311082711191" lon="8.262768952024807"><ele>166.0</ele><time>2026-04-09T13:44:35Z</time></trkpt><trkpt lat="44.95311737005596" lon="8.262526785678865"><ele>166.0</ele><time>2026-04-09T13:44:36Z</time></trkpt><trkpt lat="44.953121868820396" lon="8.262282519097877"><ele>166.0</ele><time>2026-04-09T13:44:37Z</time></trkpt><trkpt lat="44.9531244230636" lon="8.26203393437721"><ele>166.0</ele><time>2026-04-09T13:44:38Z</time></trkpt><trkpt lat="44.95312853829796" lon="8.26178217172782"><ele>167.0</ele><time>2026-04-09T13:44:39Z</time></trkpt><trkpt lat="44.95313388085846" lon="8.26153296824218"><ele>168.0</ele><time>2026-04-09T13:44:40Z</time></trkpt><trkpt lat="44.953138239157006" lon="8.261285906172045"><ele>169.0</ele><time>2026-04-09T13:44:41Z</time></trkpt><trkpt lat="44.95314034265322" lon="8.261042307445633"><ele>171.33333333333334</ele><time>2026-04-09T13:44:42Z</time></trkpt><trkpt lat="44.95314314888871" lon="8.260801087273448"><ele>173.66666666666666</ele><time>2026-04-09T13:44:43Z</time></trkpt><trkpt lat="44.953162732761704" lon="8.260572791997845"><ele>176.0</ele><time>2026-04-09T13:44:44Z</time></trkpt><trkpt lat="44.95316655529005" lon="8.260355724203304"><ele>177.5</ele><time>2026-04-09T13:44:45Z</time></trkpt><trkpt lat="44.95317025236476" lon="8.260145781124201"><ele>179.0</ele><time>2026-04-09T13:44:46Z</time></trkpt><trkpt lat="44.95317383649459" lon="8.259942251188836"><ele>180.5</ele><time>2026-04-09T13:44:47Z</time></trkpt><trkpt lat="44.95316214870127" lon="8.259749827234812"><ele>182.0</ele><time>2026-04-09T13:44:48Z</time></trkpt><trkpt lat="44.95317985433364" lon="8.259571932416495"><ele>182.39999999999998</ele><time>2026-04-09T13:44:49Z</time></trkpt><trkpt lat="44.95318219584221" lon="8.259408704628203"><ele>182.79999999999998</ele><time>2026-04-09T13:44:50Z</time></trkpt><trkpt lat="44.95316420406852" lon="8.259260362123493"><ele>183.2</ele><time>2026-04-09T13:44:51Z</time></trkpt><trkpt lat="44.95316631202424" lon="8.259105968444397"><ele>183.6</ele><time>2026-04-09T13:44:52Z</time></trkpt><trkpt lat="44.95317335669299" lon="8.258943657297396"><ele>184.0</ele><time>2026-04-09T13:44:53Z</time></trkpt><trkpt lat="44.9531788641229" lon="8.258780822629237"><ele>184.2</ele><time>2026-04-09T13:44:54Z</time></trkpt><trkpt lat="44.95318702251207" lon="8.258629244345755"><ele>184.39999999999998</ele><time>2026-04-09T13:44:55Z</time></trkpt><trkpt lat="44.953194927814124" lon="8.258472468885511"><ele>184.6</ele><time>2026-04-09T13:44:56Z</time></trkpt><trkpt lat="44.953204020411945" lon="8.258317646662599"><ele>184.8</ele><time>2026-04-09T13:44:57Z</time></trkpt><trkpt lat="44.95322902655444" lon="8.25816836168668"><ele>185.0</ele><time>2026-04-09T13:44:58Z</time></trkpt><trkpt lat="44.95326764752183" lon="8.258020400478369"><ele>186.5</ele><time>2026-04-09T13:44:59Z</time></trkpt><trkpt lat="44.95332152943462" lon="8.257877741458021"><ele>188.0</ele><time>2026-04-09T13:45:00Z</time></trkpt><trkpt lat="44.953391033932725" lon="8.257747537248072"><ele>189.5</ele><time>2026-04-09T13:45:01Z</time></trkpt><trkpt lat="44.95347937433759" lon="8.257627790014746"><ele>191.0</ele><time>2026-04-09T13:45:02Z</time></trkpt><trkpt lat="44.95358162453242" lon="8.257529068666752"><ele>191.0</ele><time>2026-04-09T13:45:03Z</time></trkpt><trkpt lat="44.95369345866676" lon="8.257443174436196"><ele>191.0</ele><time>2026-04-09T13:45:04Z</time></trkpt><trkpt lat="44.95379493539553" lon="8.257375785044403"><ele>191.0</ele><time>2026-04-09T13:45:05Z</time></trkpt><trkpt lat="44.953878409707684" lon="8.25732323393095"><ele>191.0</ele><time>2026-04-09T13:45:06Z</time></trkpt><trkpt lat="44.95395317848499" lon="8.257276491696496"><ele>191.0</ele><time>2026-04-09T13:45:07Z</time></trkpt><trkpt lat="44.95402745462656" lon="8.257234350717571"><ele>192.5</ele><time>2026-04-09T13:45:08Z</time></trkpt><trkpt lat="44.954102403314145" lon="8.257193313506441"><ele>194.0</ele><time>2026-04-09T13:45:09Z</time></trkpt><trkpt lat="44.95418328501976" lon="8.257146668485106"><ele>195.5</ele><time>2026-04-09T13:45:10Z</time></trkpt><trkpt lat="44.95426148125539" lon="8.25709016261412"><ele>197.0</ele><time>2026-04-09T13:45:11Z</time></trkpt><trkpt lat="44.95434152379253" lon="8.257024604295388"><ele>198.50000000000003</ele><time>2026-04-09T13:45:12Z</time></trkpt><trkpt lat="44.9544129273313" lon="8.256954119345952"><ele>200.0</ele><time>2026-04-09T13:45:13Z</time></trkpt><trkpt lat="44.954481026001254" lon="8.256878245285854"><ele>200.2</ele><time>2026-04-09T13:45:14Z</time></trkpt><trkpt lat="44.954537821351614" lon="8.25680214498546"><ele>200.4</ele><time>2026-04-09T13:45:15Z</time></trkpt><trkpt lat="44.95459652084806" lon="8.256739073976945"><ele>200.60000000000002</ele><time>2026-04-09T13:45:16Z</time></trkpt><trkpt lat="44.95463711406176" lon="8.256592165149966"><ele>200.8</ele><time>2026-04-09T13:45:18Z</time></trkpt><trkpt lat="44.95467461882561" lon="8.256498210202523"><ele>201.0</ele><time>2026-04-09T13:45:20Z</time></trkpt><trkpt lat="44.95454976058293" lon="8.25635630709074"><ele>199.83333333333334</ele><time>2026-04-09T13:45:23Z</time></trkpt><trkpt lat="44.954512269408895" lon="8.256229792088769"><ele>198.66666666666669</ele><time>2026-04-09T13:45:25Z</time></trkpt><trkpt lat="44.95454919614031" lon="8.256141161085209"><ele>197.5</ele><time>2026-04-09T13:45:26Z</time></trkpt><trkpt lat="44.95457968677981" lon="8.256031890616917"><ele>196.33333333333334</ele><time>2026-04-09T13:45:27Z</time></trkpt><trkpt lat="44.95460827551247" lon="8.255919529783077"><ele>195.16666666666669</ele><time>2026-04-09T13:45:28Z</time></trkpt><trkpt lat="44.95463588775576" lon="8.255798838591998"><ele>194.0</ele><time>2026-04-09T13:45:29Z</time></trkpt><trkpt lat="44.954665897600506" lon="8.255654274529146"><ele>191.75</ele><time>2026-04-09T13:45:30Z</time></trkpt><trkpt lat="44.954696555555806" lon="8.255501574029207"><ele>189.5</ele><time>2026-04-09T13:45:31Z</time></trkpt><trkpt lat="44.9547284131829" lon="8.25533728004908"><ele>187.25</ele><time>2026-04-09T13:45:32Z</time></trkpt><trkpt lat="44.954760408744846" lon="8.25517227463586"><ele>185.0</ele><time>2026-04-09T13:45:33Z</time></trkpt><trkpt lat="44.954793733526614" lon="8.255000414496239"><ele>185.0</ele><time>2026-04-09T13:45:34Z</time></trkpt><trkpt lat="44.95482665498075" lon="8.25483063426586"><ele>185.0</ele><time>2026-04-09T13:45:35Z</time></trkpt><trkpt lat="44.954860322475874" lon="8.254657006446843"><ele>185.0</ele><time>2026-04-09T13:45:36Z</time></trkpt><trkpt lat="44.954894380022324" lon="8.2544813673379"><ele>185.0</ele><time>2026-04-09T13:45:37Z</time></trkpt><trkpt lat="44.954928507706775" lon="8.254305366193728"><ele>185.25</ele><time>2026-04-09T13:45:38Z</time></trkpt><trkpt lat="44.954962430773094" lon="8.254129713601285"><ele>185.5</ele><time>2026-04-09T13:45:39Z</time></trkpt><trkpt lat="44.954994546779844" lon="8.25395170146426"><ele>185.75</ele><time>2026-04-09T13:45:40Z</time></trkpt><trkpt lat="44.95502551736961" lon="8.253759935493552"><ele>186.0</ele><time>2026-04-09T13:45:41Z</time></trkpt><trkpt lat="44.955049132710464" lon="8.25356062302745"><ele>182.66666666666666</ele><time>2026-04-09T13:45:42Z</time></trkpt><trkpt lat="44.95506137783421" lon="8.253353772486857"><ele>179.33333333333331</ele><time>2026-04-09T13:45:43Z</time></trkpt><trkpt lat="44.9550646465676" lon="8.253142320576353"><ele>176.0</ele><time>2026-04-09T13:45:44Z</time></trkpt><trkpt lat="44.95505210309473" lon="8.2529231701292"><ele>177.66666666666666</ele><time>2026-04-09T13:45:45Z</time></trkpt><trkpt lat="44.954998682092736" lon="8.252698292683968"><ele>179.33333333333334</ele><time>2026-04-09T13:45:46Z</time></trkpt><trkpt lat="44.954976926003425" lon="8.252460687043857"><ele>181.0</ele><time>2026-04-09T13:45:47Z</time></trkpt><trkpt lat="44.95496305582239" lon="8.252214137213514"><ele>176.66666666666669</ele><time>2026-04-09T13:45:48Z</time></trkpt><trkpt lat="44.954965420354505" lon="8.251961306445278"><ele>172.33333333333334</ele><time>2026-04-09T13:45:49Z</time></trkpt><trkpt lat="44.95498366251645" lon="8.25169886122471"><ele>168.0</ele><time>2026-04-09T13:45:50Z</time></trkpt><trkpt lat="44.954999136393866" lon="8.25143092769907"><ele>166.33333333333334</ele><time>2026-04-09T13:45:51Z</time></trkpt><trkpt lat="44.9550197324393" lon="8.251158970706765"><ele>164.66666666666669</ele><time>2026-04-09T13:45:52Z</time></trkpt><trkpt lat="44.955039767351614" lon="8.25089360854681"><ele>163.0</ele><time>2026-04-09T13:45:53Z</time></trkpt><trkpt lat="44.95505710762924" lon="8.250636502913764"><ele>166.0</ele><time>2026-04-09T13:45:54Z</time></trkpt><trkpt lat="44.95507612097687" lon="8.250384821187751"><ele>169.0</ele><time>2026-04-09T13:45:55Z</time></trkpt><trkpt lat="44.955094308324824" lon="8.250137147684498"><ele>172.0</ele><time>2026-04-09T13:45:56Z</time></trkpt><trkpt lat="44.955116161413756" lon="8.2499012959536"><ele>168.66666666666669</ele><time>2026-04-09T13:45:57Z</time></trkpt><trkpt lat="44.95513888489229" lon="8.249661549914848"><ele>165.33333333333334</ele><time>2026-04-09T13:45:58Z</time></trkpt><trkpt lat="44.95516093189831" lon="8.2494240453362"><ele>162.0</ele><time>2026-04-09T13:45:59Z</time></trkpt><trkpt lat="44.955180901284415" lon="8.249184284619673"><ele>160.33333333333334</ele><time>2026-04-09T13:46:00Z</time></trkpt><trkpt lat="44.95520164762763" lon="8.248947483825326"><ele>158.66666666666669</ele><time>2026-04-09T13:46:01Z</time></trkpt><trkpt lat="44.95522414788787" lon="8.248716182267334"><ele>157.0</ele><time>2026-04-09T13:46:02Z</time></trkpt><trkpt lat="44.95524261868129" lon="8.248488135001184"><ele>157.0</ele><time>2026-04-09T13:46:03Z</time></trkpt><trkpt lat="44.9552597100916" lon="8.248266284819945"><ele>157.0</ele><time>2026-04-09T13:46:04Z</time></trkpt><trkpt lat="44.95529398686582" lon="8.248047215252722"><ele>157.0</ele><time>2026-04-09T13:46:05Z</time></trkpt><trkpt lat="44.95531326591595" lon="8.247828872951953"><ele>156.33333333333334</ele><time>2026-04-09T13:46:06Z</time></trkpt><trkpt lat="44.95533270849804" lon="8.247608678536999"><ele>155.66666666666666</ele><time>2026-04-09T13:46:07Z</time></trkpt><trkpt lat="44.955338275161154" lon="8.247383091729196"><ele>155.0</ele><time>2026-04-09T13:46:08Z</time></trkpt><trkpt lat="44.955361782610666" lon="8.247158133898385"><ele>155.0</ele><time>2026-04-09T13:46:09Z</time></trkpt><trkpt lat="44.95538203279219" lon="8.246925880408423"><ele>155.0</ele><time>2026-04-09T13:46:10Z</time></trkpt><trkpt lat="44.955402842949425" lon="8.246691240645609"><ele>155.0</ele><time>2026-04-09T13:46:11Z</time></trkpt><trkpt lat="44.955422605118024" lon="8.246458913507492"><ele>155.66666666666666</ele><time>2026-04-09T13:46:12Z</time></trkpt><trkpt lat="44.95545443298793" lon="8.246229025735746"><ele>156.33333333333334</ele><time>2026-04-09T13:46:13Z</time></trkpt><trkpt lat="44.955474766591976" lon="8.245997699671705"><ele>157.0</ele><time>2026-04-09T13:46:14Z</time></trkpt><trkpt lat="44.95549456275788" lon="8.245772456271625"><ele>156.0</ele><time>2026-04-09T13:46:15Z</time></trkpt><trkpt lat="44.95551501353506" lon="8.24553964389508"><ele>155.0</ele><time>2026-04-09T13:46:16Z</time></trkpt><trkpt lat="44.9555353735372" lon="8.245307865083275"><ele>154.0</ele><time>2026-04-09T13:46:17Z</time></trkpt><trkpt lat="44.955555772046935" lon="8.245075647931355"><ele>154.0</ele><time>2026-04-09T13:46:18Z</time></trkpt><trkpt lat="44.95557619117206" lon="8.244843196085283"><ele>154.0</ele><time>2026-04-09T13:46:19Z</time></trkpt><trkpt lat="44.95559677925903" lon="8.244608820797998"><ele>154.0</ele><time>2026-04-09T13:46:20Z</time></trkpt><trkpt lat="44.95561856177847" lon="8.244374665813458"><ele>153.33333333333334</ele><time>2026-04-09T13:46:21Z</time></trkpt><trkpt lat="44.95562913854462" lon="8.244137410402407"><ele>152.66666666666666</ele><time>2026-04-09T13:46:22Z</time></trkpt><trkpt lat="44.955671825524526" lon="8.243907674967083"><ele>152.0</ele><time>2026-04-09T13:46:23Z</time></trkpt><trkpt lat="44.95573885503698" lon="8.243686686939533"><ele>152.0</ele><time>2026-04-09T13:46:24Z</time></trkpt><trkpt lat="44.9558245920397" lon="8.24347955198619"><ele>152.0</ele><time>2026-04-09T13:46:25Z</time></trkpt><trkpt lat="44.955910531501466" lon="8.243276769972152"><ele>152.0</ele><time>2026-04-09T13:46:26Z</time></trkpt><trkpt lat="44.95599556166713" lon="8.243069725551916"><ele>153.0</ele><time>2026-04-09T13:46:27Z</time></trkpt><trkpt lat="44.95607915729383" lon="8.242855108363335"><ele>154.0</ele><time>2026-04-09T13:46:28Z</time></trkpt><trkpt lat="44.9561598049732" lon="8.242639970016402"><ele>155.0</ele><time>2026-04-09T13:46:29Z</time></trkpt><trkpt lat="44.95625836183955" lon="8.24243668613792"><ele>153.33333333333331</ele><time>2026-04-09T13:46:30Z</time></trkpt><trkpt lat="44.95634514260421" lon="8.242219452288108"><ele>151.66666666666666</ele><time>2026-04-09T13:46:31Z</time></trkpt><trkpt lat="44.956429955346664" lon="8.242007144676379"><ele>150.0</ele><time>2026-04-09T13:46:32Z</time></trkpt><trkpt lat="44.956517191672546" lon="8.241790141214901"><ele>150.0</ele><time>2026-04-09T13:46:33Z</time></trkpt><trkpt lat="44.95660579607977" lon="8.241570434079115"><ele>150.0</ele><time>2026-04-09T13:46:34Z</time></trkpt><trkpt lat="44.95669457082206" lon="8.241350285597353"><ele>150.0</ele><time>2026-04-09T13:46:35Z</time></trkpt><trkpt lat="44.95678384966599" lon="8.24112690922945"><ele>150.0</ele><time>2026-04-09T13:46:36Z</time></trkpt><trkpt lat="44.956872235492504" lon="8.24090528891284"><ele>150.0</ele><time>2026-04-09T13:46:37Z</time></trkpt><trkpt lat="44.956960793779814" lon="8.24068323624431"><ele>150.0</ele><time>2026-04-09T13:46:38Z</time></trkpt><trkpt lat="44.9570495251103" lon="8.240462523847855"><ele>148.66666666666666</ele><time>2026-04-09T13:46:39Z</time></trkpt><trkpt lat="44.957138171510984" lon="8.240240267226683"><ele>147.33333333333331</ele><time>2026-04-09T13:46:40Z</time></trkpt><trkpt lat="44.95722589505975" lon="8.24001953653243"><ele>146.0</ele><time>2026-04-09T13:46:41Z</time></trkpt><trkpt lat="44.957312925834074" lon="8.239800573143802"><ele>146.0</ele><time>2026-04-09T13:46:42Z</time></trkpt><trkpt lat="44.95739980927507" lon="8.23958447329289"><ele>146.0</ele><time>2026-04-09T13:46:43Z</time></trkpt><trkpt lat="44.95747227743277" lon="8.239358795220008"><ele>146.0</ele><time>2026-04-09T13:46:44Z</time></trkpt><trkpt lat="44.95757102063087" lon="8.239159834336181"><ele>148.66666666666666</ele><time>2026-04-09T13:46:45Z</time></trkpt><trkpt lat="44.957653540601314" lon="8.23895485313896"><ele>151.33333333333334</ele><time>2026-04-09T13:46:46Z</time></trkpt><trkpt lat="44.9577333702163" lon="8.238756653366961"><ele>154.0</ele><time>2026-04-09T13:46:47Z</time></trkpt><trkpt lat="44.95780978515691" lon="8.238564522150655"><ele>154.0</ele><time>2026-04-09T13:46:48Z</time></trkpt><trkpt lat="44.95788243773877" lon="8.238381850347908"><ele>154.0</ele><time>2026-04-09T13:46:49Z</time></trkpt><trkpt lat="44.95795371229749" lon="8.238203235267415"><ele>154.0</ele><time>2026-04-09T13:46:50Z</time></trkpt><trkpt lat="44.95802404477561" lon="8.238027610604798"><ele>154.0</ele><time>2026-04-09T13:46:51Z</time></trkpt><trkpt lat="44.958092884157026" lon="8.23785571366372"><ele>152.5</ele><time>2026-04-09T13:46:52Z</time></trkpt><trkpt lat="44.958161056933704" lon="8.237685481291921"><ele>151.0</ele><time>2026-04-09T13:46:53Z</time></trkpt><trkpt lat="44.95822827410654" lon="8.237510793747523"><ele>149.5</ele><time>2026-04-09T13:46:54Z</time></trkpt><trkpt lat="44.95828589519781" lon="8.237335747446501"><ele>148.0</ele><time>2026-04-09T13:46:55Z</time></trkpt><trkpt lat="44.95833720792373" lon="8.237147411660994"><ele>149.0</ele><time>2026-04-09T13:46:56Z</time></trkpt><trkpt lat="44.95838514862872" lon="8.23695574231596"><ele>150.0</ele><time>2026-04-09T13:46:57Z</time></trkpt><trkpt lat="44.95843180257203" lon="8.236759950653997"><ele>151.0</ele><time>2026-04-09T13:46:58Z</time></trkpt><trkpt lat="44.958480040076395" lon="8.236557513288153"><ele>152.0</ele><time>2026-04-09T13:46:59Z</time></trkpt><trkpt lat="44.95852986568482" lon="8.236348411170088"><ele>152.0</ele><time>2026-04-09T13:47:00Z</time></trkpt><trkpt lat="44.95857914602606" lon="8.236133918115017"><ele>152.0</ele><time>2026-04-09T13:47:01Z</time></trkpt><trkpt lat="44.95862760192168" lon="8.23591324554107"><ele>152.0</ele><time>2026-04-09T13:47:02Z</time></trkpt><trkpt lat="44.95866766949418" lon="8.235684790265974"><ele>151.33333333333331</ele><time>2026-04-09T13:47:03Z</time></trkpt><trkpt lat="44.958690125750984" lon="8.235445093444484"><ele>150.66666666666666</ele><time>2026-04-09T13:47:04Z</time></trkpt><trkpt lat="44.9587017355899" lon="8.23520973059044"><ele>150.0</ele><time>2026-04-09T13:47:05Z</time></trkpt><trkpt lat="44.95871205838403" lon="8.234976544054769"><ele>149.33333333333334</ele><time>2026-04-09T13:47:06Z</time></trkpt><trkpt lat="44.95872239416108" lon="8.234744207613458"><ele>148.66666666666669</ele><time>2026-04-09T13:47:07Z</time></trkpt><trkpt lat="44.958731904848506" lon="8.234530663769345"><ele>148.0</ele><time>2026-04-09T13:47:08Z</time></trkpt><trkpt lat="44.95874342162625" lon="8.234323784727561"><ele>148.0</ele><time>2026-04-09T13:47:09Z</time></trkpt><trkpt lat="44.95874189350167" lon="8.234121205050553"><ele>148.0</ele><time>2026-04-09T13:47:10Z</time></trkpt><trkpt lat="44.95875937059063" lon="8.233915442939596"><ele>148.0</ele><time>2026-04-09T13:47:11Z</time></trkpt><trkpt lat="44.958772914604225" lon="8.233700070875296"><ele>148.0</ele><time>2026-04-09T13:47:12Z</time></trkpt><trkpt lat="44.958800905257924" lon="8.233481821182789"><ele>146.66666666666669</ele><time>2026-04-09T13:47:13Z</time></trkpt><trkpt lat="44.95880919712677" lon="8.233252484674757"><ele>145.33333333333334</ele><time>2026-04-09T13:47:14Z</time></trkpt><trkpt lat="44.9588134672385" lon="8.233020434194891"><ele>144.0</ele><time>2026-04-09T13:47:15Z</time></trkpt><trkpt lat="44.95881099412987" lon="8.232783738048761"><ele>142.33333333333334</ele><time>2026-04-09T13:47:16Z</time></trkpt><trkpt lat="44.958807755346044" lon="8.23254510667335"><ele>140.66666666666669</ele><time>2026-04-09T13:47:17Z</time></trkpt><trkpt lat="44.958800634144275" lon="8.23230533557017"><ele>139.0</ele><time>2026-04-09T13:47:18Z</time></trkpt><trkpt lat="44.95877848505889" lon="8.232069284972226"><ele>136.66666666666669</ele><time>2026-04-09T13:47:19Z</time></trkpt><trkpt lat="44.958776657793734" lon="8.231829610022599"><ele>134.33333333333334</ele><time>2026-04-09T13:47:20Z</time></trkpt><trkpt lat="44.958774962997985" lon="8.231591276593864"><ele>132.0</ele><time>2026-04-09T13:47:21Z</time></trkpt><trkpt lat="44.958775182035765" lon="8.231353528146752"><ele>131.33333333333334</ele><time>2026-04-09T13:47:22Z</time></trkpt><trkpt lat="44.958780665211" lon="8.23111523160914"><ele>130.66666666666669</ele><time>2026-04-09T13:47:23Z</time></trkpt><trkpt lat="44.958798329704464" lon="8.230877108018532"><ele>130.0</ele><time>2026-04-09T13:47:24Z</time></trkpt><trkpt lat="44.95883435643768" lon="8.230639367286182"><ele>130.0</ele><time>2026-04-09T13:47:25Z</time></trkpt><trkpt lat="44.95887737907319" lon="8.23040238151945"><ele>130.0</ele><time>2026-04-09T13:47:26Z</time></trkpt><trkpt lat="44.95893063936175" lon="8.230167809316825"><ele>130.0</ele><time>2026-04-09T13:47:27Z</time></trkpt><trkpt lat="44.958980561712245" lon="8.229930214371807"><ele>130.0</ele><time>2026-04-09T13:47:28Z</time></trkpt><trkpt lat="44.95902825968256" lon="8.229697814594234"><ele>130.0</ele><time>2026-04-09T13:47:29Z</time></trkpt><trkpt lat="44.959074981014005" lon="8.229470248966196"><ele>130.0</ele><time>2026-04-09T13:47:30Z</time></trkpt><trkpt lat="44.95911783540314" lon="8.229239650403013"><ele>130.0</ele><time>2026-04-09T13:47:31Z</time></trkpt><trkpt lat="44.95916083469404" lon="8.229010094462547"><ele>130.0</ele><time>2026-04-09T13:47:32Z</time></trkpt><trkpt lat="44.959205917314996" lon="8.228780445140961"><ele>130.0</ele><time>2026-04-09T13:47:33Z</time></trkpt><trkpt lat="44.95925256290171" lon="8.228555762550085"><ele>129.33333333333334</ele><time>2026-04-09T13:47:34Z</time></trkpt><trkpt lat="44.95929421979919" lon="8.22833416623219"><ele>128.66666666666666</ele><time>2026-04-09T13:47:35Z</time></trkpt><trkpt lat="44.959339140853146" lon="8.228104792095502"><ele>128.0</ele><time>2026-04-09T13:47:36Z</time></trkpt><trkpt lat="44.95938803186279" lon="8.227869842902175"><ele>128.0</ele><time>2026-04-09T13:47:37Z</time></trkpt><trkpt lat="44.95944163629462" lon="8.227641313066725"><ele>128.0</ele><time>2026-04-09T13:47:38Z</time></trkpt><trkpt lat="44.95949469251552" lon="8.227402667019332"><ele>128.0</ele><time>2026-04-09T13:47:39Z</time></trkpt><trkpt lat="44.95954660324692" lon="8.227165456215179"><ele>129.0</ele><time>2026-04-09T13:47:40Z</time></trkpt><trkpt lat="44.95959725662889" lon="8.226925459831635"><ele>130.0</ele><time>2026-04-09T13:47:41Z</time></trkpt><trkpt lat="44.95964608376233" lon="8.226684076212488"><ele>131.0</ele><time>2026-04-09T13:47:42Z</time></trkpt><trkpt lat="44.959694900618096" lon="8.226438639685327"><ele>131.0</ele><time>2026-04-09T13:47:43Z</time></trkpt><trkpt lat="44.95974605100447" lon="8.226191379435607"><ele>131.0</ele><time>2026-04-09T13:47:44Z</time></trkpt><trkpt lat="44.95979925884638" lon="8.225942584585024"><ele>131.0</ele><time>2026-04-09T13:47:45Z</time></trkpt><trkpt lat="44.95984812303256" lon="8.225691881831834"><ele>131.33333333333331</ele><time>2026-04-09T13:47:46Z</time></trkpt><trkpt lat="44.959897568869664" lon="8.225441911674665"><ele>131.66666666666666</ele><time>2026-04-09T13:47:47Z</time></trkpt><trkpt lat="44.95994984496697" lon="8.225195567365656"><ele>132.0</ele><time>2026-04-09T13:47:48Z</time></trkpt><trkpt lat="44.959999671472424" lon="8.22495654358668"><ele>133.0</ele><time>2026-04-09T13:47:49Z</time></trkpt><trkpt lat="44.96004640064573" lon="8.224724724106027"><ele>134.0</ele><time>2026-04-09T13:47:50Z</time></trkpt><trkpt lat="44.9600923412407" lon="8.224506843972408"><ele>135.0</ele><time>2026-04-09T13:47:51Z</time></trkpt><trkpt lat="44.960135504044345" lon="8.224299207719298"><ele>135.0</ele><time>2026-04-09T13:47:52Z</time></trkpt><trkpt lat="44.96017618704437" lon="8.224116128484733"><ele>135.0</ele><time>2026-04-09T13:47:53Z</time></trkpt><trkpt lat="44.96020947598381" lon="8.223951219636877"><ele>135.0</ele><time>2026-04-09T13:47:54Z</time></trkpt><trkpt lat="44.96024599023853" lon="8.223794034725119"><ele>135.0</ele><time>2026-04-09T13:47:55Z</time></trkpt><trkpt lat="44.960250851231" lon="8.223627615185242"><ele>135.25</ele><time>2026-04-09T13:47:56Z</time></trkpt><trkpt lat="44.960202682742825" lon="8.223473922012872"><ele>135.5</ele><time>2026-04-09T13:47:57Z</time></trkpt><trkpt lat="44.96013891046585" lon="8.223332532216645"><ele>135.75</ele><time>2026-04-09T13:47:58Z</time></trkpt><trkpt lat="44.96004261488555" lon="8.22322204229099"><ele>136.0</ele><time>2026-04-09T13:47:59Z</time></trkpt><trkpt lat="44.95992307776491" lon="8.223155023887253"><ele>136.25</ele><time>2026-04-09T13:48:00Z</time></trkpt><trkpt lat="44.95979764351214" lon="8.223136875706233"><ele>136.5</ele><time>2026-04-09T13:48:01Z</time></trkpt><trkpt lat="44.95967742365198" lon="8.223170588497116"><ele>136.75</ele><time>2026-04-09T13:48:02Z</time></trkpt><trkpt lat="44.95957197824074" lon="8.223252513120997"><ele>137.0</ele><time>2026-04-09T13:48:03Z</time></trkpt><trkpt lat="44.959489637302326" lon="8.223385483257463"><ele>137.0</ele><time>2026-04-09T13:48:04Z</time></trkpt><trkpt lat="44.95943442265568" lon="8.223554007953636"><ele>137.0</ele><time>2026-04-09T13:48:05Z</time></trkpt><trkpt lat="44.959403604639235" lon="8.223733542011582"><ele>137.0</ele><time>2026-04-09T13:48:06Z</time></trkpt><trkpt lat="44.95939178538952" lon="8.223885488412979"><ele>137.0</ele><time>2026-04-09T13:48:07Z</time></trkpt><trkpt lat="44.959387608579604" lon="8.223989804371808"><ele>137.0</ele><time>2026-04-09T13:48:08Z</time></trkpt><trkpt lat="44.95938526513617" lon="8.224082600103074"><ele>136.2</ele><time>2026-04-09T13:48:10Z</time></trkpt><trkpt lat="44.95940124846344" lon="8.224199252267281"><ele>135.39999999999998</ele><time>2026-04-09T13:48:39Z</time></trkpt><trkpt lat="44.959432771540605" lon="8.224320710072929"><ele>134.60000000000002</ele><time>2026-04-09T13:48:41Z</time></trkpt><trkpt lat="44.9595820522293" lon="8.224364852820878"><ele>133.8</ele><time>2026-04-09T13:48:42Z</time></trkpt><trkpt lat="44.959671440621925" lon="8.224400247088546"><ele>133.0</ele><time>2026-04-09T13:48:43Z</time></trkpt><trkpt lat="44.95977741345802" lon="8.224434064693824"><ele>133.0</ele><time>2026-04-09T13:48:44Z</time></trkpt><trkpt lat="44.959894281686736" lon="8.224469414799428"><ele>133.0</ele><time>2026-04-09T13:48:45Z</time></trkpt><trkpt lat="44.96002214435073" lon="8.224508287600242"><ele>133.0</ele><time>2026-04-09T13:48:46Z</time></trkpt><trkpt lat="44.96015478245743" lon="8.224549001468066"><ele>133.0</ele><time>2026-04-09T13:48:47Z</time></trkpt><trkpt lat="44.96028710158639" lon="8.224591803508813"><ele>133.66666666666669</ele><time>2026-04-09T13:48:48Z</time></trkpt><trkpt lat="44.96042169775459" lon="8.22463693848734"><ele>134.33333333333334</ele><time>2026-04-09T13:48:49Z</time></trkpt><trkpt lat="44.960573927983496" lon="8.224688210717261"><ele>135.0</ele><time>2026-04-09T13:48:50Z</time></trkpt><trkpt lat="44.9607258006891" lon="8.224739281133768"><ele>135.0</ele><time>2026-04-09T13:48:51Z</time></trkpt><trkpt lat="44.96087968439568" lon="8.224791537785938"><ele>135.0</ele><time>2026-04-09T13:48:52Z</time></trkpt><trkpt lat="44.96103752864186" lon="8.22484390565176"><ele>135.0</ele><time>2026-04-09T13:48:53Z</time></trkpt><trkpt lat="44.961189210801585" lon="8.224893945041734"><ele>135.0</ele><time>2026-04-09T13:48:54Z</time></trkpt><trkpt lat="44.961343972639064" lon="8.224943356110126"><ele>135.0</ele><time>2026-04-09T13:48:55Z</time></trkpt><trkpt lat="44.96149749277843" lon="8.22499241898539"><ele>135.0</ele><time>2026-04-09T13:48:56Z</time></trkpt><trkpt lat="44.96165005891536" lon="8.225040734511282"><ele>134.66666666666666</ele><time>2026-04-09T13:48:57Z</time></trkpt><trkpt lat="44.96180377702365" lon="8.225089003591645"><ele>134.33333333333331</ele><time>2026-04-09T13:48:58Z</time></trkpt><trkpt lat="44.961959135172485" lon="8.225136405184475"><ele>134.0</ele><time>2026-04-09T13:48:59Z</time></trkpt><trkpt lat="44.9621162131208" lon="8.225185679429606"><ele>134.0</ele><time>2026-04-09T13:49:00Z</time></trkpt><trkpt lat="44.96227415230837" lon="8.22523662329116"><ele>134.0</ele><time>2026-04-09T13:49:01Z</time></trkpt><trkpt lat="44.962434632072856" lon="8.225289461357537"><ele>134.0</ele><time>2026-04-09T13:49:02Z</time></trkpt><trkpt lat="44.96259662388797" lon="8.225343300183225"><ele>134.33333333333331</ele><time>2026-04-09T13:49:03Z</time></trkpt><trkpt lat="44.96275658917378" lon="8.225395621167486"><ele>134.66666666666666</ele><time>2026-04-09T13:49:04Z</time></trkpt><trkpt lat="44.96291164766142" lon="8.22544436538885"><ele>135.0</ele><time>2026-04-09T13:49:05Z</time></trkpt><trkpt lat="44.963066570708186" lon="8.225496334181308"><ele>135.0</ele><time>2026-04-09T13:49:06Z</time></trkpt><trkpt lat="44.963220316802285" lon="8.225545356463577"><ele>135.0</ele><time>2026-04-09T13:49:07Z</time></trkpt><trkpt lat="44.96337577881549" lon="8.225596973152289"><ele>135.0</ele><time>2026-04-09T13:49:08Z</time></trkpt><trkpt lat="44.96352406803854" lon="8.225644243073045"><ele>135.0</ele><time>2026-04-09T13:49:09Z</time></trkpt><trkpt lat="44.9636718712204" lon="8.225690525280218"><ele>135.0</ele><time>2026-04-09T13:49:10Z</time></trkpt><trkpt lat="44.96382007133162" lon="8.225736662667872"><ele>135.0</ele><time>2026-04-09T13:49:11Z</time></trkpt><trkpt lat="44.96396901931433" lon="8.22578329379284"><ele>135.0</ele><time>2026-04-09T13:49:12Z</time></trkpt><trkpt lat="44.96411867156492" lon="8.225830800633691"><ele>135.0</ele><time>2026-04-09T13:49:13Z</time></trkpt><trkpt lat="44.96426926993216" lon="8.22587833946614"><ele>135.0</ele><time>2026-04-09T13:49:14Z</time></trkpt><trkpt lat="44.96442219773534" lon="8.225928300929498"><ele>134.0</ele><time>2026-04-09T13:49:15Z</time></trkpt><trkpt lat="44.964578695544404" lon="8.225981391139587"><ele>133.0</ele><time>2026-04-09T13:49:16Z</time></trkpt><trkpt lat="44.96473643493638" lon="8.22603234396883"><ele>132.0</ele><time>2026-04-09T13:49:17Z</time></trkpt><trkpt lat="44.96489875832572" lon="8.226086109564063"><ele>131.0</ele><time>2026-04-09T13:49:18Z</time></trkpt><trkpt lat="44.96506123656116" lon="8.226140057297822"><ele>130.0</ele><time>2026-04-09T13:49:19Z</time></trkpt><trkpt lat="44.96522439731959" lon="8.226192092806649"><ele>129.0</ele><time>2026-04-09T13:49:20Z</time></trkpt><trkpt lat="44.96538799352798" lon="8.226242375847"><ele>129.0</ele><time>2026-04-09T13:49:21Z</time></trkpt><trkpt lat="44.96554880923719" lon="8.226292251473568"><ele>129.0</ele><time>2026-04-09T13:49:22Z</time></trkpt><trkpt lat="44.96570627294131" lon="8.226342027099832"><ele>129.0</ele><time>2026-04-09T13:49:23Z</time></trkpt><trkpt lat="44.96586432896023" lon="8.226392408915883"><ele>130.0</ele><time>2026-04-09T13:49:24Z</time></trkpt><trkpt lat="44.96602332124893" lon="8.226443602784402"><ele>131.0</ele><time>2026-04-09T13:49:25Z</time></trkpt><trkpt lat="44.96618224413058" lon="8.226493705433121"><ele>132.0</ele><time>2026-04-09T13:49:26Z</time></trkpt><trkpt lat="44.96634322418457" lon="8.226542944224462"><ele>132.0</ele><time>2026-04-09T13:49:27Z</time></trkpt><trkpt lat="44.96650495324307" lon="8.226593086397298"><ele>132.0</ele><time>2026-04-09T13:49:28Z</time></trkpt><trkpt lat="44.96666818912401" lon="8.226645657636121"><ele>132.0</ele><time>2026-04-09T13:49:29Z</time></trkpt><trkpt lat="44.96682935569312" lon="8.226698415852065"><ele>132.33333333333334</ele><time>2026-04-09T13:49:30Z</time></trkpt><trkpt lat="44.966989785287915" lon="8.22674897498407"><ele>132.66666666666669</ele><time>2026-04-09T13:49:31Z</time></trkpt><trkpt lat="44.9671524477577" lon="8.22680170369386"><ele>133.0</ele><time>2026-04-09T13:49:32Z</time></trkpt><trkpt lat="44.96731699882712" lon="8.226855484432125"><ele>133.0</ele><time>2026-04-09T13:49:33Z</time></trkpt><trkpt lat="44.967483064839485" lon="8.226909146498702"><ele>133.0</ele><time>2026-04-09T13:49:34Z</time></trkpt><trkpt lat="44.96765070511874" lon="8.226964474949835"><ele>133.0</ele><time>2026-04-09T13:49:35Z</time></trkpt><trkpt lat="44.96781919261311" lon="8.227020516548457"><ele>134.0</ele><time>2026-04-09T13:49:36Z</time></trkpt><trkpt lat="44.96799085120981" lon="8.227076810182027"><ele>135.0</ele><time>2026-04-09T13:49:37Z</time></trkpt><trkpt lat="44.96816382214211" lon="8.22713218794533"><ele>136.0</ele><time>2026-04-09T13:49:38Z</time></trkpt><trkpt lat="44.968337349563576" lon="8.227184733179216"><ele>135.33333333333334</ele><time>2026-04-09T13:49:39Z</time></trkpt><trkpt lat="44.968513878307114" lon="8.227238605803715"><ele>134.66666666666666</ele><time>2026-04-09T13:49:40Z</time></trkpt><trkpt lat="44.96868935976648" lon="8.22729536059531"><ele>134.0</ele><time>2026-04-09T13:49:41Z</time></trkpt><trkpt lat="44.96886479479854" lon="8.227354922030187"><ele>134.0</ele><time>2026-04-09T13:49:42Z</time></trkpt><trkpt lat="44.96904158001503" lon="8.227416735981672"><ele>134.0</ele><time>2026-04-09T13:49:43Z</time></trkpt><trkpt lat="44.9692196661618" lon="8.227477517817185"><ele>134.0</ele><time>2026-04-09T13:49:44Z</time></trkpt><trkpt lat="44.969399658716405" lon="8.227536170368818"><ele>134.33333333333331</ele><time>2026-04-09T13:49:45Z</time></trkpt><trkpt lat="44.96958009867869" lon="8.227592986956491"><ele>134.66666666666666</ele><time>2026-04-09T13:49:46Z</time></trkpt><trkpt lat="44.9697640262595" lon="8.227652308818058"><ele>135.0</ele><time>2026-04-09T13:49:47Z</time></trkpt><trkpt lat="44.96994710778045" lon="8.227709925040978"><ele>135.0</ele><time>2026-04-09T13:49:48Z</time></trkpt><trkpt lat="44.97013045379096" lon="8.227767396526968"><ele>135.0</ele><time>2026-04-09T13:49:49Z</time></trkpt><trkpt lat="44.97031553599681" lon="8.227825164204303"><ele>135.0</ele><time>2026-04-09T13:49:50Z</time></trkpt><trkpt lat="44.97049956802532" lon="8.227884892786188"><ele>135.0</ele><time>2026-04-09T13:49:51Z</time></trkpt><trkpt lat="44.97068717847988" lon="8.227947178148913"><ele>135.0</ele><time>2026-04-09T13:49:52Z</time></trkpt><trkpt lat="44.97087165822546" lon="8.228006745514467"><ele>135.0</ele><time>2026-04-09T13:49:53Z</time></trkpt><trkpt lat="44.97105658020511" lon="8.228066029745412"><ele>135.33333333333334</ele><time>2026-04-09T13:49:54Z</time></trkpt><trkpt lat="44.97123723676381" lon="8.228124705520768"><ele>135.66666666666669</ele><time>2026-04-09T13:49:55Z</time></trkpt><trkpt lat="44.97141392970624" lon="8.22818141269343"><ele>136.0</ele><time>2026-04-09T13:49:56Z</time></trkpt><trkpt lat="44.971587050129784" lon="8.228237981305739"><ele>136.66666666666669</ele><time>2026-04-09T13:49:57Z</time></trkpt><trkpt lat="44.97175732316703" lon="8.228291720658133"><ele>137.33333333333334</ele><time>2026-04-09T13:49:58Z</time></trkpt><trkpt lat="44.97192438001864" lon="8.228345490715514"><ele>138.0</ele><time>2026-04-09T13:49:59Z</time></trkpt><trkpt lat="44.972088040787135" lon="8.228396908076727"><ele>138.0</ele><time>2026-04-09T13:50:00Z</time></trkpt><trkpt lat="44.972248786167995" lon="8.228451130995747"><ele>138.0</ele><time>2026-04-09T13:50:01Z</time></trkpt><trkpt lat="44.97240896399697" lon="8.22850353037394"><ele>138.0</ele><time>2026-04-09T13:50:02Z</time></trkpt><trkpt lat="44.97257258028861" lon="8.228552422500396"><ele>138.0</ele><time>2026-04-09T13:50:03Z</time></trkpt><trkpt lat="44.9727362399844" lon="8.228599442177941"><ele>138.0</ele><time>2026-04-09T13:50:04Z</time></trkpt><trkpt lat="44.97289872322435" lon="8.228664137516224"><ele>138.0</ele><time>2026-04-09T13:50:05Z</time></trkpt><trkpt lat="44.97306679234782" lon="8.228691884219554"><ele>138.0</ele><time>2026-04-09T13:50:06Z</time></trkpt><trkpt lat="44.973236090730296" lon="8.228680868669406"><ele>138.0</ele><time>2026-04-09T13:50:07Z</time></trkpt><trkpt lat="44.97340250849353" lon="8.228701111563955"><ele>138.0</ele><time>2026-04-09T13:50:08Z</time></trkpt><trkpt lat="44.97356840504868" lon="8.228679877121703"><ele>137.0</ele><time>2026-04-09T13:50:09Z</time></trkpt><trkpt lat="44.9737291779723" lon="8.228638331924628"><ele>136.0</ele><time>2026-04-09T13:50:10Z</time></trkpt><trkpt lat="44.97388517865419" lon="8.228595453517375"><ele>135.0</ele><time>2026-04-09T13:50:11Z</time></trkpt><trkpt lat="44.97403834200764" lon="8.22854406736944"><ele>135.0</ele><time>2026-04-09T13:50:12Z</time></trkpt><trkpt lat="44.97418552827403" lon="8.22847528970256"><ele>135.0</ele><time>2026-04-09T13:50:13Z</time></trkpt><trkpt lat="44.97448119207899" lon="8.228378672258232"><ele>135.33333333333334</ele><time>2026-04-09T13:50:15Z</time></trkpt><trkpt lat="44.974628141016545" lon="8.228325158388431"><ele>135.66666666666669</ele><time>2026-04-09T13:50:16Z</time></trkpt><trkpt lat="44.97477857977239" lon="8.228272168274994"><ele>136.0</ele><time>2026-04-09T13:50:17Z</time></trkpt><trkpt lat="44.974932286434786" lon="8.228221319054311"><ele>136.0</ele><time>2026-04-09T13:50:18Z</time></trkpt><trkpt lat="44.975090089192456" lon="8.228169510204228"><ele>136.0</ele><time>2026-04-09T13:50:19Z</time></trkpt><trkpt lat="44.97524993193997" lon="8.22811672014832"><ele>136.0</ele><time>2026-04-09T13:50:20Z</time></trkpt><trkpt lat="44.975413852743436" lon="8.228061930908558"><ele>136.0</ele><time>2026-04-09T13:50:21Z</time></trkpt><trkpt lat="44.97557918174116" lon="8.228006017845068"><ele>136.0</ele><time>2026-04-09T13:50:22Z</time></trkpt><trkpt lat="44.97574317943437" lon="8.227951886583973"><ele>136.0</ele><time>2026-04-09T13:50:23Z</time></trkpt><trkpt lat="44.97590321703881" lon="8.22790086020379"><ele>136.33333333333334</ele><time>2026-04-09T13:50:24Z</time></trkpt><trkpt lat="44.97605591120489" lon="8.227844133885478"><ele>136.66666666666666</ele><time>2026-04-09T13:50:25Z</time></trkpt><trkpt lat="44.97620753466281" lon="8.22779060654292"><ele>137.0</ele><time>2026-04-09T13:50:26Z</time></trkpt><trkpt lat="44.976355881259856" lon="8.227737852564218"><ele>137.0</ele><time>2026-04-09T13:50:27Z</time></trkpt><trkpt lat="44.976506564348036" lon="8.227689478885441"><ele>137.0</ele><time>2026-04-09T13:50:28Z</time></trkpt><trkpt lat="44.97666073039632" lon="8.227641984080973"><ele>137.0</ele><time>2026-04-09T13:50:29Z</time></trkpt><trkpt lat="44.97681319551206" lon="8.227590096945796"><ele>136.33333333333331</ele><time>2026-04-09T13:50:30Z</time></trkpt><trkpt lat="44.97697018466119" lon="8.227537465474622"><ele>135.66666666666666</ele><time>2026-04-09T13:50:31Z</time></trkpt><trkpt lat="44.977128600355144" lon="8.227479264132755"><ele>135.0</ele><time>2026-04-09T13:50:32Z</time></trkpt><trkpt lat="44.9772902058483" lon="8.227425821407305"><ele>135.0</ele><time>2026-04-09T13:50:33Z</time></trkpt><trkpt lat="44.977449539008994" lon="8.227372338467225"><ele>135.0</ele><time>2026-04-09T13:50:34Z</time></trkpt><trkpt lat="44.97760606954349" lon="8.227318385024963"><ele>135.0</ele><time>2026-04-09T13:50:35Z</time></trkpt><trkpt lat="44.97776267934505" lon="8.227264567920978"><ele>135.33333333333334</ele><time>2026-04-09T13:50:36Z</time></trkpt><trkpt lat="44.97791455226547" lon="8.227214947370976"><ele>135.66666666666669</ele><time>2026-04-09T13:50:37Z</time></trkpt><trkpt lat="44.97806361664684" lon="8.227164951974043"><ele>136.0</ele><time>2026-04-09T13:50:38Z</time></trkpt><trkpt lat="44.978211313785714" lon="8.22711439078722"><ele>136.5</ele><time>2026-04-09T13:50:39Z</time></trkpt><trkpt lat="44.97835719773825" lon="8.227068302878607"><ele>137.0</ele><time>2026-04-09T13:50:40Z</time></trkpt><trkpt lat="44.978500223279134" lon="8.227023426516704"><ele>137.5</ele><time>2026-04-09T13:50:41Z</time></trkpt><trkpt lat="44.978642984684996" lon="8.22697034789061"><ele>138.0</ele><time>2026-04-09T13:50:42Z</time></trkpt><trkpt lat="44.97878929249823" lon="8.226915174835293"><ele>138.0</ele><time>2026-04-09T13:50:43Z</time></trkpt><trkpt lat="44.97893553539627" lon="8.226866319564932"><ele>138.0</ele><time>2026-04-09T13:50:44Z</time></trkpt><trkpt lat="44.97908207486928" lon="8.226820148449427"><ele>138.0</ele><time>2026-04-09T13:50:45Z</time></trkpt><trkpt lat="44.97922580145993" lon="8.226772978272018"><ele>138.0</ele><time>2026-04-09T13:50:46Z</time></trkpt><trkpt lat="44.979365493854445" lon="8.226721865009075"><ele>138.0</ele><time>2026-04-09T13:50:47Z</time></trkpt><trkpt lat="44.97950593468103" lon="8.226672616135222"><ele>138.0</ele><time>2026-04-09T13:50:48Z</time></trkpt><trkpt lat="44.97965265008864" lon="8.22662455468812"><ele>138.0</ele><time>2026-04-09T13:50:49Z</time></trkpt><trkpt lat="44.97979061283078" lon="8.22657847967708"><ele>138.0</ele><time>2026-04-09T13:50:50Z</time></trkpt><trkpt lat="44.97993826333658" lon="8.226530809155207"><ele>137.66666666666666</ele><time>2026-04-09T13:50:51Z</time></trkpt><trkpt lat="44.98008675516625" lon="8.22647904167062"><ele>137.33333333333331</ele><time>2026-04-09T13:50:52Z</time></trkpt><trkpt lat="44.980239658640365" lon="8.22642572019221"><ele>137.0</ele><time>2026-04-09T13:50:53Z</time></trkpt><trkpt lat="44.98039365549237" lon="8.226375107497692"><ele>136.66666666666666</ele><time>2026-04-09T13:50:54Z</time></trkpt><trkpt lat="44.9805449034658" lon="8.226327772555603"><ele>136.33333333333334</ele><time>2026-04-09T13:50:55Z</time></trkpt><trkpt lat="44.98069319647143" lon="8.226279244618588"><ele>136.0</ele><time>2026-04-09T13:50:56Z</time></trkpt><trkpt lat="44.98083916854918" lon="8.226229243633455"><ele>136.66666666666669</ele><time>2026-04-09T13:50:57Z</time></trkpt><trkpt lat="44.980984445718946" lon="8.226178234545927"><ele>137.33333333333334</ele><time>2026-04-09T13:50:58Z</time></trkpt><trkpt lat="44.98113055507784" lon="8.226132368181755"><ele>138.0</ele><time>2026-04-09T13:50:59Z</time></trkpt><trkpt lat="44.981277459669826" lon="8.22608576309544"><ele>138.0</ele><time>2026-04-09T13:51:00Z</time></trkpt><trkpt lat="44.98142229495559" lon="8.226034332304389"><ele>138.0</ele><time>2026-04-09T13:51:01Z</time></trkpt><trkpt lat="44.98156889561989" lon="8.225982087420043"><ele>138.0</ele><time>2026-04-09T13:51:02Z</time></trkpt><trkpt lat="44.98171660874726" lon="8.225929788927617"><ele>138.0</ele><time>2026-04-09T13:51:03Z</time></trkpt><trkpt lat="44.981865285289466" lon="8.225881674472138"><ele>138.0</ele><time>2026-04-09T13:51:04Z</time></trkpt><trkpt lat="44.982013125921085" lon="8.22583119489345"><ele>138.0</ele><time>2026-04-09T13:51:05Z</time></trkpt><trkpt lat="44.98215886382835" lon="8.22578282285569"><ele>138.0</ele><time>2026-04-09T13:51:06Z</time></trkpt><trkpt lat="44.98230606479021" lon="8.22573613334056"><ele>138.0</ele><time>2026-04-09T13:51:07Z</time></trkpt><trkpt lat="44.982453824962164" lon="8.225687010226581"><ele>138.0</ele><time>2026-04-09T13:51:08Z</time></trkpt><trkpt lat="44.98260279143953" lon="8.225636682854589"><ele>138.0</ele><time>2026-04-09T13:51:09Z</time></trkpt><trkpt lat="44.98275301781955" lon="8.225585833380194"><ele>138.0</ele><time>2026-04-09T13:51:10Z</time></trkpt><trkpt lat="44.98290524253745" lon="8.225536660135065"><ele>138.0</ele><time>2026-04-09T13:51:11Z</time></trkpt><trkpt lat="44.983054936185525" lon="8.225482368159799"><ele>138.0</ele><time>2026-04-09T13:51:12Z</time></trkpt><trkpt lat="44.983206230253316" lon="8.225430346536093"><ele>138.0</ele><time>2026-04-09T13:51:13Z</time></trkpt><trkpt lat="44.98335945263659" lon="8.225377852935987"><ele>138.0</ele><time>2026-04-09T13:51:14Z</time></trkpt><trkpt lat="44.983513824377454" lon="8.225324438784849"><ele>137.66666666666666</ele><time>2026-04-09T13:51:15Z</time></trkpt><trkpt lat="44.98366638533366" lon="8.225271561778037"><ele>137.33333333333331</ele><time>2026-04-09T13:51:16Z</time></trkpt><trkpt lat="44.983818178265544" lon="8.225221353812845"><ele>137.0</ele><time>2026-04-09T13:51:17Z</time></trkpt><trkpt lat="44.98396551610633" lon="8.225174036773964"><ele>137.0</ele><time>2026-04-09T13:51:18Z</time></trkpt><trkpt lat="44.98411351287837" lon="8.225128930511227"><ele>137.0</ele><time>2026-04-09T13:51:19Z</time></trkpt><trkpt lat="44.98426214966998" lon="8.225083957540868"><ele>137.0</ele><time>2026-04-09T13:51:20Z</time></trkpt><trkpt lat="44.98440614039951" lon="8.22503677544323"><ele>137.0</ele><time>2026-04-09T13:51:21Z</time></trkpt><trkpt lat="44.984545033998124" lon="8.224987061431065"><ele>137.0</ele><time>2026-04-09T13:51:22Z</time></trkpt><trkpt lat="44.98467939096863" lon="8.224941896081408"><ele>137.0</ele><time>2026-04-09T13:51:23Z</time></trkpt><trkpt lat="44.984813321468295" lon="8.224898025612955"><ele>137.0</ele><time>2026-04-09T13:51:24Z</time></trkpt><trkpt lat="44.98494832565601" lon="8.224851759439586"><ele>137.5</ele><time>2026-04-09T13:51:25Z</time></trkpt><trkpt lat="44.98507874852695" lon="8.224807710505354"><ele>138.0</ele><time>2026-04-09T13:51:26Z</time></trkpt><trkpt lat="44.985213431746956" lon="8.224760546612002"><ele>138.5</ele><time>2026-04-09T13:51:27Z</time></trkpt><trkpt lat="44.98535237699717" lon="8.224710861306628"><ele>139.0</ele><time>2026-04-09T13:51:28Z</time></trkpt><trkpt lat="44.98548938953129" lon="8.224667233786425"><ele>139.0</ele><time>2026-04-09T13:51:29Z</time></trkpt><trkpt lat="44.98561999430334" lon="8.224625478586661"><ele>139.0</ele><time>2026-04-09T13:51:30Z</time></trkpt><trkpt lat="44.98574951968647" lon="8.224576952446448"><ele>139.0</ele><time>2026-04-09T13:51:31Z</time></trkpt><trkpt lat="44.985873220291104" lon="8.224532998082305"><ele>139.0</ele><time>2026-04-09T13:51:32Z</time></trkpt><trkpt lat="44.98599756617882" lon="8.224490396751388"><ele>139.4</ele><time>2026-04-09T13:51:33Z</time></trkpt><trkpt lat="44.98611711138523" lon="8.224449139043658"><ele>139.8</ele><time>2026-04-09T13:51:34Z</time></trkpt><trkpt lat="44.986229756435655" lon="8.224412552300874"><ele>140.2</ele><time>2026-04-09T13:51:35Z</time></trkpt><trkpt lat="44.986325581523836" lon="8.22438339804071"><ele>140.6</ele><time>2026-04-09T13:51:36Z</time></trkpt><trkpt lat="44.98641431434088" lon="8.224354056121133"><ele>141.0</ele><time>2026-04-09T13:51:37Z</time></trkpt><trkpt lat="44.98649912385933" lon="8.224327313585102"><ele>141.0</ele><time>2026-04-09T13:51:38Z</time></trkpt><trkpt lat="44.986578779241576" lon="8.224296048878461"><ele>141.0</ele><time>2026-04-09T13:51:39Z</time></trkpt><trkpt lat="44.98665601692824" lon="8.224268022263097"><ele>141.0</ele><time>2026-04-09T13:51:40Z</time></trkpt><trkpt lat="44.98673272692585" lon="8.22424424327922"><ele>141.0</ele><time>2026-04-09T13:51:41Z</time></trkpt><trkpt lat="44.98681158899935" lon="8.224220443660524"><ele>141.0</ele><time>2026-04-09T13:51:42Z</time></trkpt><trkpt lat="44.9868859132645" lon="8.224196040747147"><ele>141.0</ele><time>2026-04-09T13:51:43Z</time></trkpt><trkpt lat="44.986960911669556" lon="8.224169440926072"><ele>141.0</ele><time>2026-04-09T13:51:44Z</time></trkpt><trkpt lat="44.987039208772956" lon="8.224141475245075"><ele>141.0</ele><time>2026-04-09T13:51:45Z</time></trkpt><trkpt lat="44.987113380409475" lon="8.224111010777383"><ele>141.0</ele><time>2026-04-09T13:51:46Z</time></trkpt><trkpt lat="44.98718999245975" lon="8.224082947664943"><ele>141.0</ele><time>2026-04-09T13:51:47Z</time></trkpt><trkpt lat="44.987271119716944" lon="8.224062936503602"><ele>141.0</ele><time>2026-04-09T13:51:48Z</time></trkpt><trkpt lat="44.9873484130037" lon="8.224048193253623"><ele>141.0</ele><time>2026-04-09T13:51:49Z</time></trkpt><trkpt lat="44.98741977458467" lon="8.224040713331588"><ele>141.2</ele><time>2026-04-09T13:51:50Z</time></trkpt><trkpt lat="44.98753374304029" lon="8.224028265028021"><ele>141.39999999999998</ele><time>2026-04-09T13:51:52Z</time></trkpt><trkpt lat="44.98763327260623" lon="8.224032503679569"><ele>141.6</ele><time>2026-04-09T13:51:54Z</time></trkpt><trkpt lat="44.98774619590243" lon="8.224037215323738"><ele>141.79999999999998</ele><time>2026-04-09T13:51:56Z</time></trkpt><trkpt lat="44.987810324686" lon="8.224044710284826"><ele>142.0</ele><time>2026-04-09T13:51:57Z</time></trkpt><trkpt lat="44.98787899842403" lon="8.224060041157102"><ele>142.0</ele><time>2026-04-09T13:51:58Z</time></trkpt><trkpt lat="44.98795125009314" lon="8.224074915427058"><ele>142.0</ele><time>2026-04-09T13:51:59Z</time></trkpt><trkpt lat="44.98803048557143" lon="8.22409841853437"><ele>142.0</ele><time>2026-04-09T13:52:00Z</time></trkpt><trkpt lat="44.98811831535725" lon="8.224127882418586"><ele>142.0</ele><time>2026-04-09T13:52:01Z</time></trkpt><trkpt lat="44.988206362957925" lon="8.224167973542963"><ele>142.0</ele><time>2026-04-09T13:52:02Z</time></trkpt><trkpt lat="44.98828657058545" lon="8.224203472580902"><ele>142.0</ele><time>2026-04-09T13:52:03Z</time></trkpt><trkpt lat="44.98837718781058" lon="8.224250716373575"><ele>141.4</ele><time>2026-04-09T13:52:04Z</time></trkpt><trkpt lat="44.98846810521017" lon="8.224308594840956"><ele>140.79999999999998</ele><time>2026-04-09T13:52:05Z</time></trkpt><trkpt lat="44.98855979637004" lon="8.224373043606944"><ele>140.2</ele><time>2026-04-09T13:52:06Z</time></trkpt><trkpt lat="44.98865456746189" lon="8.22445069389892"><ele>139.6</ele><time>2026-04-09T13:52:07Z</time></trkpt><trkpt lat="44.98874627973091" lon="8.224543076239234"><ele>139.0</ele><time>2026-04-09T13:52:08Z</time></trkpt><trkpt lat="44.98883914390365" lon="8.22464582594621"><ele>139.0</ele><time>2026-04-09T13:52:09Z</time></trkpt><trkpt lat="44.988933280233056" lon="8.22476045238402"><ele>139.0</ele><time>2026-04-09T13:52:10Z</time></trkpt><trkpt lat="44.9890309937658" lon="8.22488430949092"><ele>139.0</ele><time>2026-04-09T13:52:11Z</time></trkpt><trkpt lat="44.98913691032408" lon="8.225022218983407"><ele>139.0</ele><time>2026-04-09T13:52:12Z</time></trkpt><trkpt lat="44.98924910211203" lon="8.225162918454133"><ele>139.25</ele><time>2026-04-09T13:52:13Z</time></trkpt><trkpt lat="44.989357869157864" lon="8.22529695395286"><ele>139.5</ele><time>2026-04-09T13:52:14Z</time></trkpt><trkpt lat="44.98946547353581" lon="8.225431054213704"><ele>139.75</ele><time>2026-04-09T13:52:15Z</time></trkpt><trkpt lat="44.98957171977291" lon="8.22556273397088"><ele>140.0</ele><time>2026-04-09T13:52:16Z</time></trkpt><trkpt lat="44.98967306148725" lon="8.22570208584138"><ele>140.0</ele><time>2026-04-09T13:52:17Z</time></trkpt><trkpt lat="44.98977389392568" lon="8.225844000201596"><ele>140.0</ele><time>2026-04-09T13:52:18Z</time></trkpt><trkpt lat="44.98987901714316" lon="8.22598052190442"><ele>140.0</ele><time>2026-04-09T13:52:19Z</time></trkpt><trkpt lat="44.98997997113476" lon="8.226108447443233"><ele>140.0</ele><time>2026-04-09T13:52:20Z</time></trkpt><trkpt lat="44.99006965726828" lon="8.22622562636887"><ele>140.0</ele><time>2026-04-09T13:52:21Z</time></trkpt><trkpt lat="44.990156671725394" lon="8.2263374809554"><ele>140.0</ele><time>2026-04-09T13:52:22Z</time></trkpt><trkpt lat="44.99023073270067" lon="8.226440586255304"><ele>140.0</ele><time>2026-04-09T13:52:23Z</time></trkpt><trkpt lat="44.99030657005893" lon="8.226538835086268"><ele>140.0</ele><time>2026-04-09T13:52:24Z</time></trkpt><trkpt lat="44.990379605721486" lon="8.226631707707682"><ele>140.0</ele><time>2026-04-09T13:52:25Z</time></trkpt><trkpt lat="44.99044334808791" lon="8.226716334914352"><ele>140.0</ele><time>2026-04-09T13:52:26Z</time></trkpt><trkpt lat="44.99050041787194" lon="8.226790744815451"><ele>140.0</ele><time>2026-04-09T13:52:27Z</time></trkpt><trkpt lat="44.99054852911711" lon="8.22685644035033"><ele>140.0</ele><time>2026-04-09T13:52:28Z</time></trkpt><trkpt lat="44.990629577525496" lon="8.226970861571239"><ele>140.0</ele><time>2026-04-09T13:52:30Z</time></trkpt><trkpt lat="44.99068776270299" lon="8.227027083127423"><ele>140.0</ele><time>2026-04-09T13:52:31Z</time></trkpt><trkpt lat="44.99075978412502" lon="8.227101498363377"><ele>140.0</ele><time>2026-04-09T13:52:32Z</time></trkpt><trkpt lat="44.99084223534063" lon="8.227197397771613"><ele>140.75</ele><time>2026-04-09T13:52:33Z</time></trkpt><trkpt lat="44.99093287013925" lon="8.227318490730621"><ele>141.5</ele><time>2026-04-09T13:52:34Z</time></trkpt><trkpt lat="44.991019411899494" lon="8.227430409528331"><ele>142.25</ele><time>2026-04-09T13:52:35Z</time></trkpt><trkpt lat="44.991119449675296" lon="8.227558289492281"><ele>143.0</ele><time>2026-04-09T13:52:36Z</time></trkpt><trkpt lat="44.99123014904688" lon="8.227696399589897"><ele>143.0</ele><time>2026-04-09T13:52:37Z</time></trkpt><trkpt lat="44.99134771558995" lon="8.227844369845966"><ele>143.0</ele><time>2026-04-09T13:52:38Z</time></trkpt><trkpt lat="44.99147282536165" lon="8.228006529394063"><ele>143.0</ele><time>2026-04-09T13:52:39Z</time></trkpt><trkpt lat="44.99159556596486" lon="8.228164060136875"><ele>143.66666666666666</ele><time>2026-04-09T13:52:40Z</time></trkpt><trkpt lat="44.991714227974924" lon="8.22831793611203"><ele>144.33333333333334</ele><time>2026-04-09T13:52:41Z</time></trkpt><trkpt lat="44.991839128144846" lon="8.228472638922181"><ele>145.0</ele><time>2026-04-09T13:52:42Z</time></trkpt><trkpt lat="44.99196298652262" lon="8.228630866950983"><ele>145.0</ele><time>2026-04-09T13:52:43Z</time></trkpt><trkpt lat="44.99208768181042" lon="8.228793821653772"><ele>145.0</ele><time>2026-04-09T13:52:44Z</time></trkpt><trkpt lat="44.99221356471827" lon="8.228952778701276"><ele>145.0</ele><time>2026-04-09T13:52:45Z</time></trkpt><trkpt lat="44.992337049591846" lon="8.22910942736663"><ele>145.33333333333334</ele><time>2026-04-09T13:52:46Z</time></trkpt><trkpt lat="44.99245587169394" lon="8.229268226087555"><ele>145.66666666666666</ele><time>2026-04-09T13:52:47Z</time></trkpt><trkpt lat="44.99257538349863" lon="8.229433887340678"><ele>146.0</ele><time>2026-04-09T13:52:48Z</time></trkpt><trkpt lat="44.99269826019025" lon="8.229595218513378"><ele>146.0</ele><time>2026-04-09T13:52:49Z</time></trkpt><trkpt lat="44.992821473373624" lon="8.229758925661365"><ele>146.0</ele><time>2026-04-09T13:52:50Z</time></trkpt><trkpt lat="44.992946057317454" lon="8.229922519142447"><ele>146.0</ele><time>2026-04-09T13:52:51Z</time></trkpt><trkpt lat="44.99307484228111" lon="8.230086815722629"><ele>146.33333333333331</ele><time>2026-04-09T13:52:52Z</time></trkpt><trkpt lat="44.99319791683856" lon="8.230242942577878"><ele>146.66666666666666</ele><time>2026-04-09T13:52:53Z</time></trkpt><trkpt lat="44.99332074484743" lon="8.230403096015754"><ele>147.0</ele><time>2026-04-09T13:52:54Z</time></trkpt><trkpt lat="44.99344458575996" lon="8.230564106417251"><ele>147.33333333333334</ele><time>2026-04-09T13:52:55Z</time></trkpt><trkpt lat="44.99356802816746" lon="8.230723065105867"><ele>147.66666666666669</ele><time>2026-04-09T13:52:56Z</time></trkpt><trkpt lat="44.99369306897563" lon="8.230881831372393"><ele>148.0</ele><time>2026-04-09T13:52:57Z</time></trkpt><trkpt lat="44.99381580071574" lon="8.231040733349138"><ele>148.0</ele><time>2026-04-09T13:52:58Z</time></trkpt><trkpt lat="44.99393812935254" lon="8.231197121685524"><ele>148.0</ele><time>2026-04-09T13:52:59Z</time></trkpt><trkpt lat="44.99406068182585" lon="8.231356614440655"><ele>148.0</ele><time>2026-04-09T13:53:00Z</time></trkpt><trkpt lat="44.99418166938148" lon="8.23151477864545"><ele>148.33333333333334</ele><time>2026-04-09T13:53:01Z</time></trkpt><trkpt lat="44.99430082933684" lon="8.23167601384075"><ele>148.66666666666666</ele><time>2026-04-09T13:53:02Z</time></trkpt><trkpt lat="44.99441888949141" lon="8.231838946097056"><ele>149.0</ele><time>2026-04-09T13:53:03Z</time></trkpt><trkpt lat="44.994533597185075" lon="8.2320020120016"><ele>149.0</ele><time>2026-04-09T13:53:04Z</time></trkpt><trkpt lat="44.994646934350776" lon="8.232164580022541"><ele>149.0</ele><time>2026-04-09T13:53:05Z</time></trkpt><trkpt lat="44.99475915231051" lon="8.232328858751444"><ele>149.0</ele><time>2026-04-09T13:53:06Z</time></trkpt><trkpt lat="44.9948708072482" lon="8.232493961556896"><ele>149.0</ele><time>2026-04-09T13:53:07Z</time></trkpt><trkpt lat="44.99497824035078" lon="8.23266507263147"><ele>149.0</ele><time>2026-04-09T13:53:08Z</time></trkpt><trkpt lat="44.99508178363618" lon="8.23284556576773"><ele>149.0</ele><time>2026-04-09T13:53:09Z</time></trkpt><trkpt lat="44.99518210354004" lon="8.233028558950135"><ele>149.66666666666666</ele><time>2026-04-09T13:53:10Z</time></trkpt><trkpt lat="44.99528189645276" lon="8.233213898109707"><ele>150.33333333333334</ele><time>2026-04-09T13:53:11Z</time></trkpt><trkpt lat="44.99538113987611" lon="8.233398318250604"><ele>151.0</ele><time>2026-04-09T13:53:12Z</time></trkpt><trkpt lat="44.99547850013857" lon="8.233588433081438"><ele>151.0</ele><time>2026-04-09T13:53:13Z</time></trkpt><trkpt lat="44.995573304797055" lon="8.233785471570302"><ele>151.0</ele><time>2026-04-09T13:53:14Z</time></trkpt><trkpt lat="44.995662470428485" lon="8.23398125702226"><ele>151.0</ele><time>2026-04-09T13:53:15Z</time></trkpt><trkpt lat="44.99575118772555" lon="8.234183849702978"><ele>151.0</ele><time>2026-04-09T13:53:16Z</time></trkpt><trkpt lat="44.995840119218364" lon="8.234384563064417"><ele>151.0</ele><time>2026-04-09T13:53:17Z</time></trkpt><trkpt lat="44.99593028939504" lon="8.234586968732241"><ele>151.0</ele><time>2026-04-09T13:53:18Z</time></trkpt><trkpt lat="44.996020964929755" lon="8.234790615118694"><ele>151.0</ele><time>2026-04-09T13:53:19Z</time></trkpt><trkpt lat="44.9961078869531" lon="8.235003496672634"><ele>151.0</ele><time>2026-04-09T13:53:20Z</time></trkpt><trkpt lat="44.99619227378782" lon="8.235219544224753"><ele>151.0</ele><time>2026-04-09T13:53:21Z</time></trkpt><trkpt lat="44.99628037241323" lon="8.235435967032302"><ele>151.33333333333334</ele><time>2026-04-09T13:53:22Z</time></trkpt><trkpt lat="44.99637319285097" lon="8.235650972746228"><ele>151.66666666666666</ele><time>2026-04-09T13:53:23Z</time></trkpt><trkpt lat="44.99646695463986" lon="8.235868581650521"><ele>152.0</ele><time>2026-04-09T13:53:24Z</time></trkpt><trkpt lat="44.99655825286184" lon="8.236093767760542"><ele>152.0</ele><time>2026-04-09T13:53:25Z</time></trkpt><trkpt lat="44.99665137431938" lon="8.236317533024044"><ele>152.0</ele><time>2026-04-09T13:53:26Z</time></trkpt><trkpt lat="44.99674355896292" lon="8.23653889448933"><ele>152.0</ele><time>2026-04-09T13:53:27Z</time></trkpt><trkpt lat="44.99684020909703" lon="8.23675968474087"><ele>152.0</ele><time>2026-04-09T13:53:28Z</time></trkpt><trkpt lat="44.99694070031535" lon="8.236980655891022"><ele>152.0</ele><time>2026-04-09T13:53:29Z</time></trkpt><trkpt lat="44.997033736171055" lon="8.237203037605807"><ele>152.0</ele><time>2026-04-09T13:53:30Z</time></trkpt><trkpt lat="44.99712461346387" lon="8.237425991235183"><ele>152.0</ele><time>2026-04-09T13:53:31Z</time></trkpt><trkpt lat="44.997215856164715" lon="8.237643345800116"><ele>152.0</ele><time>2026-04-09T13:53:32Z</time></trkpt><trkpt lat="44.99730885477928" lon="8.23785833802464"><ele>152.0</ele><time>2026-04-09T13:53:33Z</time></trkpt><trkpt lat="44.99739895596206" lon="8.238067892537437"><ele>152.33333333333331</ele><time>2026-04-09T13:53:34Z</time></trkpt><trkpt lat="44.997485413862385" lon="8.238278900881117"><ele>152.66666666666666</ele><time>2026-04-09T13:53:35Z</time></trkpt><trkpt lat="44.99757094814742" lon="8.23848750735656"><ele>153.0</ele><time>2026-04-09T13:53:36Z</time></trkpt><trkpt lat="44.99765656332572" lon="8.238690337009603"><ele>153.66666666666666</ele><time>2026-04-09T13:53:37Z</time></trkpt><trkpt lat="44.99774622834724" lon="8.238887398782431"><ele>154.33333333333331</ele><time>2026-04-09T13:53:38Z</time></trkpt><trkpt lat="44.99782596040897" lon="8.239091763006641"><ele>155.0</ele><time>2026-04-09T13:53:39Z</time></trkpt><trkpt lat="44.99790602210067" lon="8.239295037592186"><ele>155.0</ele><time>2026-04-09T13:53:40Z</time></trkpt><trkpt lat="44.997989063333975" lon="8.239494085731772"><ele>155.0</ele><time>2026-04-09T13:53:41Z</time></trkpt><trkpt lat="44.998074825930544" lon="8.239688503903812"><ele>155.0</ele><time>2026-04-09T13:53:42Z</time></trkpt><trkpt lat="44.99815831174863" lon="8.239884139204658"><ele>154.66666666666666</ele><time>2026-04-09T13:53:43Z</time></trkpt><trkpt lat="44.99823902759044" lon="8.24008185713956"><ele>154.33333333333334</ele><time>2026-04-09T13:53:44Z</time></trkpt><trkpt lat="44.998324516617934" lon="8.240279330904173"><ele>154.0</ele><time>2026-04-09T13:53:45Z</time></trkpt><trkpt lat="44.99840999482449" lon="8.240470896264048"><ele>154.66666666666669</ele><time>2026-04-09T13:53:46Z</time></trkpt><trkpt lat="44.99849540674781" lon="8.240662653661959"><ele>155.33333333333334</ele><time>2026-04-09T13:53:47Z</time></trkpt><trkpt lat="44.998584439248724" lon="8.240854996768007"><ele>156.0</ele><time>2026-04-09T13:53:48Z</time></trkpt><trkpt lat="44.99866952611738" lon="8.24104623148084"><ele>156.0</ele><time>2026-04-09T13:53:49Z</time></trkpt><trkpt lat="44.99875257742245" lon="8.241248798775235"><ele>156.0</ele><time>2026-04-09T13:53:50Z</time></trkpt><trkpt lat="44.99883333839627" lon="8.241450272664244"><ele>156.0</ele><time>2026-04-09T13:53:51Z</time></trkpt><trkpt lat="44.998923838331436" lon="8.241655790937385"><ele>157.33333333333334</ele><time>2026-04-09T13:53:52Z</time></trkpt><trkpt lat="44.99901210691195" lon="8.241864399234414"><ele>158.66666666666669</ele><time>2026-04-09T13:53:53Z</time></trkpt><trkpt lat="44.99909723500139" lon="8.242077706965736"><ele>160.0</ele><time>2026-04-09T13:53:54Z</time></trkpt><trkpt lat="44.99918717734583" lon="8.242293305037252"><ele>162.0</ele><time>2026-04-09T13:53:55Z</time></trkpt><trkpt lat="44.99927984226577" lon="8.242516530340145"><ele>164.0</ele><time>2026-04-09T13:53:56Z</time></trkpt><trkpt lat="44.99937121262158" lon="8.242736767474328"><ele>166.0</ele><time>2026-04-09T13:53:57Z</time></trkpt><trkpt lat="44.99946559760134" lon="8.242958433306129"><ele>165.33333333333334</ele><time>2026-04-09T13:53:58Z</time></trkpt><trkpt lat="44.999562847617966" lon="8.243172156707423"><ele>164.66666666666666</ele><time>2026-04-09T13:53:59Z</time></trkpt><trkpt lat="44.99966286882536" lon="8.243381196650896"><ele>164.0</ele><time>2026-04-09T13:54:00Z</time></trkpt><trkpt lat="44.99976742504747" lon="8.243582759380919"><ele>164.0</ele><time>2026-04-09T13:54:01Z</time></trkpt><trkpt lat="44.999876562200576" lon="8.243779093098624"><ele>164.0</ele><time>2026-04-09T13:54:02Z</time></trkpt><trkpt lat="44.99999434009438" lon="8.243969245559978"><ele>164.0</ele><time>2026-04-09T13:54:03Z</time></trkpt><trkpt lat="45.00011762357734" lon="8.24414795152342"><ele>163.66666666666666</ele><time>2026-04-09T13:54:04Z</time></trkpt><trkpt lat="45.000244825321396" lon="8.244321885803071"><ele>163.33333333333334</ele><time>2026-04-09T13:54:05Z</time></trkpt><trkpt lat="45.000374104198464" lon="8.244486232214868"><ele>163.0</ele><time>2026-04-09T13:54:06Z</time></trkpt><trkpt lat="45.000504840443675" lon="8.244649164369797"><ele>162.66666666666669</ele><time>2026-04-09T13:54:07Z</time></trkpt><trkpt lat="45.00063452369111" lon="8.244811080961895"><ele>162.33333333333334</ele><time>2026-04-09T13:54:08Z</time></trkpt><trkpt lat="45.0007668552287" lon="8.24497088915664"><ele>162.0</ele><time>2026-04-09T13:54:08.999Z</time></trkpt><trkpt lat="45.00089721187084" lon="8.245126200390441"><ele>163.0</ele><time>2026-04-09T13:54:09.999Z</time></trkpt><trkpt lat="45.0010345040333" lon="8.24527053934799"><ele>164.0</ele><time>2026-04-09T13:54:10.999Z</time></trkpt><trkpt lat="45.001177357589945" lon="8.245405733537389"><ele>165.0</ele><time>2026-04-09T13:54:11.999Z</time></trkpt><trkpt lat="45.00132190498053" lon="8.24553296247214"><ele>165.33333333333334</ele><time>2026-04-09T13:54:12.999Z</time></trkpt><trkpt lat="45.00147106775697" lon="8.24565849446115"><ele>165.66666666666669</ele><time>2026-04-09T13:54:13.999Z</time></trkpt><trkpt lat="45.001624229785975" lon="8.245775114465712"><ele>166.0</ele><time>2026-04-09T13:54:14.999Z</time></trkpt><trkpt lat="45.00177667958289" lon="8.245887021615212"><ele>166.66666666666669</ele><time>2026-04-09T13:54:15.999Z</time></trkpt><trkpt lat="45.001935239106245" lon="8.24598546043437"><ele>167.33333333333334</ele><time>2026-04-09T13:54:16.999Z</time></trkpt><trkpt lat="45.00209630722547" lon="8.246068923979465"><ele>168.0</ele><time>2026-04-09T13:54:17.999Z</time></trkpt><trkpt lat="45.002264087843635" lon="8.246137783038016"><ele>168.0</ele><time>2026-04-09T13:54:18.999Z</time></trkpt><trkpt lat="45.00243815350722" lon="8.246192339974632"><ele>168.0</ele><time>2026-04-09T13:54:20Z</time></trkpt><trkpt lat="45.00261876762043" lon="8.24623505417725"><ele>168.0</ele><time>2026-04-09T13:54:21Z</time></trkpt><trkpt lat="45.00279855614367" lon="8.246265117665"><ele>169.0</ele><time>2026-04-09T13:54:22Z</time></trkpt><trkpt lat="45.00298336685696" lon="8.246284854106563"><ele>170.0</ele><time>2026-04-09T13:54:23Z</time></trkpt><trkpt lat="45.00316906285003" lon="8.2462897765242"><ele>171.0</ele><time>2026-04-09T13:54:24Z</time></trkpt><trkpt lat="45.003360576044116" lon="8.2462861200714"><ele>175.33333333333334</ele><time>2026-04-09T13:54:25Z</time></trkpt><trkpt lat="45.003550041138425" lon="8.246273022721429"><ele>179.66666666666669</ele><time>2026-04-09T13:54:26Z</time></trkpt><trkpt lat="45.003741026712994" lon="8.246279595150789"><ele>184.0</ele><time>2026-04-09T13:54:27Z</time></trkpt><trkpt lat="45.00392935787698" lon="8.246267935573984"><ele>184.0</ele><time>2026-04-09T13:54:28Z</time></trkpt><trkpt lat="45.00411969436183" lon="8.246250778196764"><ele>184.0</ele><time>2026-04-09T13:54:29Z</time></trkpt><trkpt lat="45.00431305348293" lon="8.24623267942208"><ele>184.0</ele><time>2026-04-09T13:54:30Z</time></trkpt><trkpt lat="45.00450721302454" lon="8.246222726107234"><ele>185.66666666666669</ele><time>2026-04-09T13:54:31Z</time></trkpt><trkpt lat="45.00470127614637" lon="8.24621154130514"><ele>187.33333333333334</ele><time>2026-04-09T13:54:32Z</time></trkpt><trkpt lat="45.00489746038647" lon="8.246200590834018"><ele>189.0</ele><time>2026-04-09T13:54:33Z</time></trkpt><trkpt lat="45.005092178859535" lon="8.246188969756783"><ele>190.0</ele><time>2026-04-09T13:54:34Z</time></trkpt><trkpt lat="45.005284915509144" lon="8.246173180446341"><ele>191.0</ele><time>2026-04-09T13:54:35Z</time></trkpt><trkpt lat="45.00547660247022" lon="8.246159690161111"><ele>192.0</ele><time>2026-04-09T13:54:36Z</time></trkpt><trkpt lat="45.00566389668834" lon="8.246149513441251"><ele>194.33333333333331</ele><time>2026-04-09T13:54:37Z</time></trkpt><trkpt lat="45.00584524588745" lon="8.246140325435926"><ele>196.66666666666666</ele><time>2026-04-09T13:54:38Z</time></trkpt><trkpt lat="45.00602425278095" lon="8.246130236590856"><ele>199.0</ele><time>2026-04-09T13:54:39Z</time></trkpt><trkpt lat="45.00619381143613" lon="8.246115180651584"><ele>199.0</ele><time>2026-04-09T13:54:40Z</time></trkpt><trkpt lat="45.00634712872847" lon="8.246115402943241"><ele>199.0</ele><time>2026-04-09T13:54:41Z</time></trkpt><trkpt lat="45.00652501084093" lon="8.246140791896696"><ele>199.0</ele><time>2026-04-09T13:54:42Z</time></trkpt><trkpt lat="45.006682659203875" lon="8.246202880339839"><ele>198.33333333333331</ele><time>2026-04-09T13:54:43Z</time></trkpt><trkpt lat="45.00684163550857" lon="8.246292764126535"><ele>197.66666666666669</ele><time>2026-04-09T13:54:44Z</time></trkpt><trkpt lat="45.00700006474745" lon="8.246407015889169"><ele>197.0</ele><time>2026-04-09T13:54:45Z</time></trkpt><trkpt lat="45.00715706802921" lon="8.24653778535669"><ele>197.0</ele><time>2026-04-09T13:54:46Z</time></trkpt><trkpt lat="45.00731504710938" lon="8.246680860610718"><ele>197.0</ele><time>2026-04-09T13:54:47Z</time></trkpt><trkpt lat="45.007474431795636" lon="8.246834047966754"><ele>197.0</ele><time>2026-04-09T13:54:48Z</time></trkpt><trkpt lat="45.0076313917978" lon="8.246999150099708"><ele>198.33333333333334</ele><time>2026-04-09T13:54:49Z</time></trkpt><trkpt lat="45.00778700703343" lon="8.247174558439"><ele>199.66666666666669</ele><time>2026-04-09T13:54:50Z</time></trkpt><trkpt lat="45.007940729233766" lon="8.247363467056907"><ele>201.0</ele><time>2026-04-09T13:54:51Z</time></trkpt><trkpt lat="45.008083645490906" lon="8.24756894023978"><ele>201.0</ele><time>2026-04-09T13:54:52Z</time></trkpt><trkpt lat="45.0082194893573" lon="8.24779080839939"><ele>201.0</ele><time>2026-04-09T13:54:53Z</time></trkpt><trkpt lat="45.00834357785408" lon="8.2480268928921"><ele>201.0</ele><time>2026-04-09T13:54:54Z</time></trkpt><trkpt lat="45.00845330483928" lon="8.248275239574102"><ele>203.33333333333331</ele><time>2026-04-09T13:54:55Z</time></trkpt><trkpt lat="45.00854985783188" lon="8.248532336611337"><ele>205.66666666666666</ele><time>2026-04-09T13:54:56Z</time></trkpt><trkpt lat="45.008638032348166" lon="8.248790701639537"><ele>208.0</ele><time>2026-04-09T13:54:57Z</time></trkpt><trkpt lat="45.0087240922611" lon="8.24904482646643"><ele>208.0</ele><time>2026-04-09T13:54:58Z</time></trkpt><trkpt lat="45.008807958639466" lon="8.249294241653178"><ele>208.0</ele><time>2026-04-09T13:54:59Z</time></trkpt><trkpt lat="45.00888923092639" lon="8.249540427990484"><ele>208.0</ele><time>2026-04-09T13:55:00Z</time></trkpt><trkpt lat="45.008963915554595" lon="8.249782253409203"><ele>207.66666666666666</ele><time>2026-04-09T13:55:01Z</time></trkpt><trkpt lat="45.00903024381172" lon="8.250012151540886"><ele>207.33333333333331</ele><time>2026-04-09T13:55:02Z</time></trkpt><trkpt lat="45.00908781955757" lon="8.250238199240918"><ele>207.0</ele><time>2026-04-09T13:55:03Z</time></trkpt><trkpt lat="45.00914321536863" lon="8.250459540478344"><ele>211.25</ele><time>2026-04-09T13:55:04Z</time></trkpt><trkpt lat="45.00918524373035" lon="8.250652200052064"><ele>215.5</ele><time>2026-04-09T13:55:05Z</time></trkpt><trkpt lat="45.00922110965247" lon="8.25082031168692"><ele>219.75</ele><time>2026-04-09T13:55:06Z</time></trkpt><trkpt lat="45.00925066261282" lon="8.250968082193742"><ele>224.0</ele><time>2026-04-09T13:55:07Z</time></trkpt><trkpt lat="45.00927809455986" lon="8.251101362918954"><ele>224.0</ele><time>2026-04-09T13:55:08Z</time></trkpt><trkpt lat="45.009309703312645" lon="8.2512152859135"><ele>223.99999999999997</ele><time>2026-04-09T13:55:09Z</time></trkpt><trkpt lat="45.00933452740174" lon="8.251344978370833"><ele>223.99999999999997</ele><time>2026-04-09T13:55:10Z</time></trkpt><trkpt lat="45.009358614862045" lon="8.25147733738232"><ele>224.0</ele><time>2026-04-09T13:55:11Z</time></trkpt><trkpt lat="45.00938841654857" lon="8.251611686692987"><ele>224.0</ele><time>2026-04-09T13:55:12Z</time></trkpt><trkpt lat="45.00941570562567" lon="8.251745540855596"><ele>224.16666666666669</ele><time>2026-04-09T13:55:13Z</time></trkpt><trkpt lat="45.00944024043264" lon="8.251873413685376"><ele>224.33333333333334</ele><time>2026-04-09T13:55:14Z</time></trkpt><trkpt lat="45.00944529791294" lon="8.251991926623042"><ele>224.5</ele><time>2026-04-09T13:55:15Z</time></trkpt><trkpt lat="45.0094727687011" lon="8.252114154137395"><ele>224.66666666666669</ele><time>2026-04-09T13:55:16Z</time></trkpt><trkpt lat="45.009478037009494" lon="8.252238005797098"><ele>224.83333333333334</ele><time>2026-04-09T13:55:17Z</time></trkpt><trkpt lat="45.00948728487511" lon="8.252360105877262"><ele>225.0</ele><time>2026-04-09T13:55:18Z</time></trkpt><trkpt lat="45.00949632144635" lon="8.25247987521103"><ele>225.6</ele><time>2026-04-09T13:55:19Z</time></trkpt><trkpt lat="45.009507963826444" lon="8.25259942468189"><ele>226.2</ele><time>2026-04-09T13:55:20Z</time></trkpt><trkpt lat="45.00952181314839" lon="8.252721018892462"><ele>226.8</ele><time>2026-04-09T13:55:21Z</time></trkpt><trkpt lat="45.00953425654103" lon="8.252851243252714"><ele>227.4</ele><time>2026-04-09T13:55:22Z</time></trkpt><trkpt lat="45.00954755199262" lon="8.252983438169542"><ele>228.0</ele><time>2026-04-09T13:55:23Z</time></trkpt><trkpt lat="45.00956579812534" lon="8.253116228697483"><ele>228.60000000000002</ele><time>2026-04-09T13:55:24Z</time></trkpt><trkpt lat="45.00958748568438" lon="8.253250688900067"><ele>229.20000000000002</ele><time>2026-04-09T13:55:25Z</time></trkpt><trkpt lat="45.00960734258302" lon="8.253389307076548"><ele>229.8</ele><time>2026-04-09T13:55:26Z</time></trkpt><trkpt lat="45.009624676064455" lon="8.25352923226097"><ele>230.4</ele><time>2026-04-09T13:55:27Z</time></trkpt><trkpt lat="45.00964643263463" lon="8.253668979104791"><ele>231.0</ele><time>2026-04-09T13:55:28Z</time></trkpt><trkpt lat="45.009684283037274" lon="8.253790388818166"><ele>231.0</ele><time>2026-04-09T13:55:29Z</time></trkpt><trkpt lat="45.009731349876965" lon="8.253902114406268"><ele>231.00000000000003</ele><time>2026-04-09T13:55:30Z</time></trkpt><trkpt lat="45.00975310603307" lon="8.254027000496823"><ele>231.00000000000003</ele><time>2026-04-09T13:55:31Z</time></trkpt><trkpt lat="45.00975251512719" lon="8.25415262494859"><ele>231.0</ele><time>2026-04-09T13:55:32Z</time></trkpt><trkpt lat="45.00972872796353" lon="8.254277966277773"><ele>231.0</ele><time>2026-04-09T13:55:33Z</time></trkpt><trkpt lat="45.009707602482564" lon="8.254402089205229"><ele>231.5</ele><time>2026-04-09T13:55:34Z</time></trkpt><trkpt lat="45.00968862281735" lon="8.254523085953489"><ele>232.0</ele><time>2026-04-09T13:55:35Z</time></trkpt><trkpt lat="45.00966755950777" lon="8.254635448724265"><ele>232.5</ele><time>2026-04-09T13:55:36Z</time></trkpt><trkpt lat="45.00964841512122" lon="8.254746203499797"><ele>233.0</ele><time>2026-04-09T13:55:37Z</time></trkpt><trkpt lat="45.00963639101934" lon="8.254855817690453"><ele>233.5</ele><time>2026-04-09T13:55:38Z</time></trkpt><trkpt lat="45.00962247172405" lon="8.25495629020035"><ele>234.0</ele><time>2026-04-09T13:55:39Z</time></trkpt><trkpt lat="45.00960106860827" lon="8.255082781612764"><ele>235.66666666666666</ele><time>2026-04-09T13:55:41Z</time></trkpt><trkpt lat="45.00957580109211" lon="8.255225215971938"><ele>237.33333333333331</ele><time>2026-04-09T13:55:43Z</time></trkpt><trkpt lat="45.009568334161976" lon="8.255317299766322"><ele>239.0</ele><time>2026-04-09T13:55:44Z</time></trkpt><trkpt lat="45.00955340369682" lon="8.255416380380943"><ele>240.66666666666666</ele><time>2026-04-09T13:55:45Z</time></trkpt><trkpt lat="45.00954036073331" lon="8.255522127832085"><ele>242.33333333333331</ele><time>2026-04-09T13:55:46Z</time></trkpt><trkpt lat="45.00952003678675" lon="8.25568421161251"><ele>244.0</ele><time>2026-04-09T13:55:48Z</time></trkpt><trkpt lat="45.00960538447526" lon="8.255816768415183"><ele>245.16666666666666</ele><time>2026-04-09T13:55:50Z</time></trkpt><trkpt lat="45.00966973834448" lon="8.255843937772772"><ele>246.33333333333331</ele><time>2026-04-09T13:55:51Z</time></trkpt><trkpt lat="45.00974439127041" lon="8.255832055260788"><ele>247.5</ele><time>2026-04-09T13:55:52Z</time></trkpt><trkpt lat="45.00982115604802" lon="8.255806811685858"><ele>248.66666666666669</ele><time>2026-04-09T13:55:53Z</time></trkpt><trkpt lat="45.009921574659344" lon="8.25582505066622"><ele>249.83333333333334</ele><time>2026-04-09T13:55:54Z</time></trkpt><trkpt lat="45.010030859722846" lon="8.25580514662515"><ele>251.0</ele><time>2026-04-09T13:55:55Z</time></trkpt><trkpt lat="45.010148759729255" lon="8.255783855907838"><ele>251.0</ele><time>2026-04-09T13:55:56Z</time></trkpt><trkpt lat="45.010260703401286" lon="8.255747949614667"><ele>251.00000000000003</ele><time>2026-04-09T13:55:57Z</time></trkpt><trkpt lat="45.0103709860928" lon="8.255744486775635"><ele>251.00000000000003</ele><time>2026-04-09T13:55:58Z</time></trkpt><trkpt lat="45.01047856983308" lon="8.255732506878909"><ele>251.0</ele><time>2026-04-09T13:55:59Z</time></trkpt><trkpt lat="45.01059305420361" lon="8.255718331324218"><ele>251.0</ele><time>2026-04-09T13:56:00Z</time></trkpt><trkpt lat="45.01071139416201" lon="8.255701280757256"><ele>250.5</ele><time>2026-04-09T13:56:01Z</time></trkpt><trkpt lat="45.01084317659171" lon="8.255685910041734"><ele>250.0</ele><time>2026-04-09T13:56:02Z</time></trkpt><trkpt lat="45.0109850286402" lon="8.255659935631396"><ele>249.5</ele><time>2026-04-09T13:56:03Z</time></trkpt><trkpt lat="45.01112867237103" lon="8.255608652434804"><ele>249.0</ele><time>2026-04-09T13:56:04Z</time></trkpt><trkpt lat="45.011259903233764" lon="8.255543463089676"><ele>251.25</ele><time>2026-04-09T13:56:05Z</time></trkpt><trkpt lat="45.01138342165723" lon="8.255463658737629"><ele>253.5</ele><time>2026-04-09T13:56:06Z</time></trkpt><trkpt lat="45.01150580895408" lon="8.255374772575143"><ele>255.75</ele><time>2026-04-09T13:56:07Z</time></trkpt><trkpt lat="45.011630587499056" lon="8.25529311320908"><ele>258.0</ele><time>2026-04-09T13:56:08Z</time></trkpt><trkpt lat="45.01175801874717" lon="8.255209117432239"><ele>258.0</ele><time>2026-04-09T13:56:09Z</time></trkpt><trkpt lat="45.01188787622134" lon="8.255126819448918"><ele>258.0</ele><time>2026-04-09T13:56:10Z</time></trkpt><trkpt lat="45.01201222196853" lon="8.255032481691691"><ele>258.0</ele><time>2026-04-09T13:56:11Z</time></trkpt><trkpt lat="45.012146972218154" lon="8.254942997360978"><ele>258.0</ele><time>2026-04-09T13:56:12Z</time></trkpt><trkpt lat="45.012283380681446" lon="8.25485095542693"><ele>259.0</ele><time>2026-04-09T13:56:13Z</time></trkpt><trkpt lat="45.012425751950815" lon="8.25476665232631"><ele>260.0</ele><time>2026-04-09T13:56:14Z</time></trkpt><trkpt lat="45.012573508666776" lon="8.254701214124326"><ele>261.0</ele><time>2026-04-09T13:56:15Z</time></trkpt><trkpt lat="45.01273108379847" lon="8.254639874101393"><ele>256.6666666666667</ele><time>2026-04-09T13:56:16Z</time></trkpt><trkpt lat="45.012892116553" lon="8.254582574375311"><ele>252.33333333333334</ele><time>2026-04-09T13:56:17Z</time></trkpt><trkpt lat="45.013064328061546" lon="8.25454557662697"><ele>248.0</ele><time>2026-04-09T13:56:18Z</time></trkpt><trkpt lat="45.013242621282735" lon="8.254519986127702"><ele>246.0</ele><time>2026-04-09T13:56:19Z</time></trkpt><trkpt lat="45.01342264486748" lon="8.254500712409348"><ele>244.0</ele><time>2026-04-09T13:56:20Z</time></trkpt><trkpt lat="45.01360832239792" lon="8.254483554277149"><ele>242.0</ele><time>2026-04-09T13:56:21Z</time></trkpt><trkpt lat="45.01379432793168" lon="8.254458745314704"><ele>242.0</ele><time>2026-04-09T13:56:22Z</time></trkpt><trkpt lat="45.01397364228438" lon="8.254434790536425"><ele>242.0</ele><time>2026-04-09T13:56:23Z</time></trkpt><trkpt lat="45.01414020441244" lon="8.254417955969938"><ele>242.0</ele><time>2026-04-09T13:56:24Z</time></trkpt><trkpt lat="45.01429862994014" lon="8.254400618667999"><ele>241.25</ele><time>2026-04-09T13:56:25Z</time></trkpt><trkpt lat="45.01445361217057" lon="8.254383535728879"><ele>240.5</ele><time>2026-04-09T13:56:26Z</time></trkpt><trkpt lat="45.0145994886112" lon="8.254362970560964"><ele>239.75</ele><time>2026-04-09T13:56:27Z</time></trkpt><trkpt lat="45.014745947768326" lon="8.254346835841428"><ele>239.0</ele><time>2026-04-09T13:56:28Z</time></trkpt><trkpt lat="45.01489332784063" lon="8.254332128588617"><ele>236.66666666666669</ele><time>2026-04-09T13:56:29Z</time></trkpt><trkpt lat="45.01504230378564" lon="8.254313219745717"><ele>234.33333333333331</ele><time>2026-04-09T13:56:30Z</time></trkpt><trkpt lat="45.01519119086961" lon="8.254298817434798"><ele>232.0</ele><time>2026-04-09T13:56:31Z</time></trkpt><trkpt lat="45.015343614018995" lon="8.254282195500803"><ele>232.0</ele><time>2026-04-09T13:56:32Z</time></trkpt><trkpt lat="45.01549843107834" lon="8.254271963629831"><ele>232.0</ele><time>2026-04-09T13:56:33Z</time></trkpt><trkpt lat="45.0156553577553" lon="8.254274486624784"><ele>232.0</ele><time>2026-04-09T13:56:34Z</time></trkpt><trkpt lat="45.01581436563048" lon="8.254294369817787"><ele>232.66666666666666</ele><time>2026-04-09T13:56:35Z</time></trkpt><trkpt lat="45.01597535912776" lon="8.25433508009579"><ele>233.33333333333331</ele><time>2026-04-09T13:56:36Z</time></trkpt><trkpt lat="45.016133063898415" lon="8.254408231863145"><ele>234.0</ele><time>2026-04-09T13:56:37Z</time></trkpt><trkpt lat="45.01628605566177" lon="8.254509890558221"><ele>234.0</ele><time>2026-04-09T13:56:38Z</time></trkpt><trkpt lat="45.01642336384268" lon="8.254642487690463"><ele>234.0</ele><time>2026-04-09T13:56:39Z</time></trkpt><trkpt lat="45.016548740573505" lon="8.254794869993676"><ele>234.0</ele><time>2026-04-09T13:56:40Z</time></trkpt><trkpt lat="45.01666137016511" lon="8.254966252809542"><ele>233.33333333333331</ele><time>2026-04-09T13:56:41Z</time></trkpt><trkpt lat="45.01676595891444" lon="8.255152905724614"><ele>232.66666666666666</ele><time>2026-04-09T13:56:42Z</time></trkpt><trkpt lat="45.01686452612758" lon="8.25534686797617"><ele>232.0</ele><time>2026-04-09T13:56:43Z</time></trkpt><trkpt lat="45.01695771596684" lon="8.255547281279132"><ele>230.0</ele><time>2026-04-09T13:56:44Z</time></trkpt><trkpt lat="45.01704813451636" lon="8.255748175395382"><ele>228.0</ele><time>2026-04-09T13:56:45Z</time></trkpt><trkpt lat="45.017136472303726" lon="8.255935780964682"><ele>226.0</ele><time>2026-04-09T13:56:46Z</time></trkpt><trkpt lat="45.01722324938857" lon="8.256114230589231"><ele>226.0</ele><time>2026-04-09T13:56:47Z</time></trkpt><trkpt lat="45.017302847700115" lon="8.256288505702653"><ele>226.0</ele><time>2026-04-09T13:56:48Z</time></trkpt><trkpt lat="45.017381468516035" lon="8.256455126568886"><ele>226.0</ele><time>2026-04-09T13:56:49Z</time></trkpt><trkpt lat="45.01745686234174" lon="8.256614699529697"><ele>226.0</ele><time>2026-04-09T13:56:50Z</time></trkpt><trkpt lat="45.01753292846418" lon="8.256767195046045"><ele>225.25</ele><time>2026-04-09T13:56:51Z</time></trkpt><trkpt lat="45.017605550057766" lon="8.256913505969528"><ele>224.5</ele><time>2026-04-09T13:56:52Z</time></trkpt><trkpt lat="45.0176777273502" lon="8.257065939778762"><ele>223.75</ele><time>2026-04-09T13:56:53Z</time></trkpt><trkpt lat="45.017749814647544" lon="8.25722313346741"><ele>223.0</ele><time>2026-04-09T13:56:54Z</time></trkpt><trkpt lat="45.01782189147245" lon="8.257382272902772"><ele>223.0</ele><time>2026-04-09T13:56:55Z</time></trkpt><trkpt lat="45.0178984596832" lon="8.25753352375748"><ele>223.0</ele><time>2026-04-09T13:56:56Z</time></trkpt><trkpt lat="45.01798680985861" lon="8.257674664973564"><ele>223.0</ele><time>2026-04-09T13:56:57Z</time></trkpt><trkpt lat="45.0180826223771" lon="8.257803020044213"><ele>223.0</ele><time>2026-04-09T13:56:58Z</time></trkpt><trkpt lat="45.01818509614729" lon="8.257922283319322"><ele>223.0</ele><time>2026-04-09T13:56:59Z</time></trkpt><trkpt lat="45.018295199365184" lon="8.258031501420339"><ele>223.0</ele><time>2026-04-09T13:57:00Z</time></trkpt><trkpt lat="45.018414224638654" lon="8.258130035622502"><ele>223.0</ele><time>2026-04-09T13:57:01Z</time></trkpt><trkpt lat="45.01854055053173" lon="8.258211318618967"><ele>223.0</ele><time>2026-04-09T13:57:02Z</time></trkpt><trkpt lat="45.01867643547646" lon="8.258275374100366"><ele>224.5</ele><time>2026-04-09T13:57:03Z</time></trkpt><trkpt lat="45.018816980451504" lon="8.258315179731062"><ele>226.0</ele><time>2026-04-09T13:57:04Z</time></trkpt><trkpt lat="45.0189582111092" lon="8.258325986457914"><ele>227.5</ele><time>2026-04-09T13:57:05Z</time></trkpt><trkpt lat="45.01910340258972" lon="8.25830619364611"><ele>229.0</ele><time>2026-04-09T13:57:06Z</time></trkpt><trkpt lat="45.01924613401066" lon="8.258264594891505"><ele>229.0</ele><time>2026-04-09T13:57:07Z</time></trkpt><trkpt lat="45.019387010617756" lon="8.258206781141029"><ele>229.0</ele><time>2026-04-09T13:57:08Z</time></trkpt><trkpt lat="45.01952500504519" lon="8.258135015079985"><ele>229.0</ele><time>2026-04-09T13:57:09Z</time></trkpt><trkpt lat="45.019661929473074" lon="8.258057064317965"><ele>229.0</ele><time>2026-04-09T13:57:10Z</time></trkpt><trkpt lat="45.01979893070674" lon="8.257974812775348"><ele>228.0</ele><time>2026-04-09T13:57:11Z</time></trkpt><trkpt lat="45.01993863010607" lon="8.257897471927778"><ele>227.0</ele><time>2026-04-09T13:57:12Z</time></trkpt><trkpt lat="45.02008139909229" lon="8.257812229558951"><ele>226.0</ele><time>2026-04-09T13:57:13Z</time></trkpt><trkpt lat="45.02022218012303" lon="8.25772295401084"><ele>226.0</ele><time>2026-04-09T13:57:14Z</time></trkpt><trkpt lat="45.02036723478157" lon="8.257636234194255"><ele>226.0</ele><time>2026-04-09T13:57:15Z</time></trkpt><trkpt lat="45.02051486544215" lon="8.257547135176301"><ele>226.0</ele><time>2026-04-09T13:57:16Z</time></trkpt><trkpt lat="45.02066500931505" lon="8.257455219145085"><ele>224.33333333333331</ele><time>2026-04-09T13:57:17Z</time></trkpt><trkpt lat="45.020819869850996" lon="8.25736280298757"><ele>222.66666666666669</ele><time>2026-04-09T13:57:18Z</time></trkpt><trkpt lat="45.020974027381854" lon="8.257267353593674"><ele>221.0</ele><time>2026-04-09T13:57:19Z</time></trkpt><trkpt lat="45.02113395125352" lon="8.257171283916371"><ele>221.0</ele><time>2026-04-09T13:57:20Z</time></trkpt><trkpt lat="45.021294144516055" lon="8.25707650593192"><ele>221.0</ele><time>2026-04-09T13:57:21Z</time></trkpt><trkpt lat="45.021456825684076" lon="8.256989336844955"><ele>221.0</ele><time>2026-04-09T13:57:22Z</time></trkpt><trkpt lat="45.02162375240081" lon="8.256916844385307"><ele>220.0</ele><time>2026-04-09T13:57:23Z</time></trkpt><trkpt lat="45.02179451857548" lon="8.25685637179124"><ele>219.0</ele><time>2026-04-09T13:57:24Z</time></trkpt><trkpt lat="45.02196886572252" lon="8.256810766811498"><ele>218.0</ele><time>2026-04-09T13:57:25Z</time></trkpt><trkpt lat="45.02214433613956" lon="8.256776399520945"><ele>218.0</ele><time>2026-04-09T13:57:26Z</time></trkpt><trkpt lat="45.02232366055943" lon="8.25675973317273"><ele>218.0</ele><time>2026-04-09T13:57:27Z</time></trkpt><trkpt lat="45.02250500216343" lon="8.256756401658217"><ele>218.0</ele><time>2026-04-09T13:57:28Z</time></trkpt><trkpt lat="45.02268705558618" lon="8.256758225014934"><ele>218.33333333333334</ele><time>2026-04-09T13:57:29Z</time></trkpt><trkpt lat="45.02287151559582" lon="8.256758673871392"><ele>218.66666666666669</ele><time>2026-04-09T13:57:30Z</time></trkpt><trkpt lat="45.02305948113684" lon="8.256759801925673"><ele>219.0</ele><time>2026-04-09T13:57:31Z</time></trkpt><trkpt lat="45.02324732658656" lon="8.256760684886784"><ele>219.33333333333331</ele><time>2026-04-09T13:57:32Z</time></trkpt><trkpt lat="45.0234428719687" lon="8.256765845504004"><ele>219.66666666666666</ele><time>2026-04-09T13:57:33Z</time></trkpt><trkpt lat="45.02362506559575" lon="8.256767458139501"><ele>220.0</ele><time>2026-04-09T13:57:34Z</time></trkpt><trkpt lat="45.02379971011672" lon="8.256766719933113"><ele>220.0</ele><time>2026-04-09T13:57:35Z</time></trkpt><trkpt lat="45.02396814284158" lon="8.256769242156432"><ele>220.0</ele><time>2026-04-09T13:57:36Z</time></trkpt><trkpt lat="45.02413299996514" lon="8.256776619488143"><ele>220.0</ele><time>2026-04-09T13:57:37Z</time></trkpt><trkpt lat="45.024299086562856" lon="8.256785057521576"><ele>219.33333333333331</ele><time>2026-04-09T13:57:38Z</time></trkpt><trkpt lat="45.024466986817565" lon="8.256790271403695"><ele>218.66666666666669</ele><time>2026-04-09T13:57:39Z</time></trkpt><trkpt lat="45.02463085945484" lon="8.256794078038727"><ele>218.0</ele><time>2026-04-09T13:57:40Z</time></trkpt><trkpt lat="45.0247941092575" lon="8.256794204522782"><ele>218.0</ele><time>2026-04-09T13:57:41Z</time></trkpt><trkpt lat="45.02495888326668" lon="8.256793600051084"><ele>218.0</ele><time>2026-04-09T13:57:42Z</time></trkpt><trkpt lat="45.0251213997943" lon="8.256796066943373"><ele>218.0</ele><time>2026-04-09T13:57:43Z</time></trkpt><trkpt lat="45.02528677668172" lon="8.25679896887097"><ele>217.66666666666669</ele><time>2026-04-09T13:57:44Z</time></trkpt><trkpt lat="45.0254527480529" lon="8.256803013600656"><ele>217.33333333333331</ele><time>2026-04-09T13:57:45Z</time></trkpt><trkpt lat="45.025617806189395" lon="8.256805318027585"><ele>217.0</ele><time>2026-04-09T13:57:46Z</time></trkpt><trkpt lat="45.025781352526714" lon="8.256807994790615"><ele>216.0</ele><time>2026-04-09T13:57:47Z</time></trkpt><trkpt lat="45.02594280492627" lon="8.25681739948677"><ele>215.0</ele><time>2026-04-09T13:57:48Z</time></trkpt><trkpt lat="45.02610486683338" lon="8.256828033272912"><ele>214.0</ele><time>2026-04-09T13:57:49Z</time></trkpt><trkpt lat="45.02626166087123" lon="8.256849943221066"><ele>214.0</ele><time>2026-04-09T13:57:50Z</time></trkpt><trkpt lat="45.02641243852342" lon="8.256889093511036"><ele>214.0</ele><time>2026-04-09T13:57:51Z</time></trkpt><trkpt lat="45.02655432423518" lon="8.256947483469833"><ele>214.0</ele><time>2026-04-09T13:57:52Z</time></trkpt><trkpt lat="45.02668415173632" lon="8.257018161380088"><ele>214.0</ele><time>2026-04-09T13:57:53Z</time></trkpt><trkpt lat="45.02681430138097" lon="8.257100314502752"><ele>214.0</ele><time>2026-04-09T13:57:54Z</time></trkpt><trkpt lat="45.02694575406614" lon="8.257196467337463"><ele>214.0</ele><time>2026-04-09T13:57:55Z</time></trkpt><trkpt lat="45.02707543536905" lon="8.257309171470961"><ele>214.0</ele><time>2026-04-09T13:57:56Z</time></trkpt><trkpt lat="45.02720058102233" lon="8.257441954512641"><ele>211.66666666666666</ele><time>2026-04-09T13:57:57Z</time></trkpt><trkpt lat="45.0273197145391" lon="8.257595325283026"><ele>209.33333333333331</ele><time>2026-04-09T13:57:58Z</time></trkpt><trkpt lat="45.027435138197404" lon="8.257751439732822"><ele>207.0</ele><time>2026-04-09T13:57:59Z</time></trkpt><trkpt lat="45.02754390067111" lon="8.257916811812676"><ele>207.0</ele><time>2026-04-09T13:58:00Z</time></trkpt><trkpt lat="45.0276484417416" lon="8.258099183191836"><ele>207.0</ele><time>2026-04-09T13:58:01Z</time></trkpt><trkpt lat="45.02775141999872" lon="8.258287433045801"><ele>207.0</ele><time>2026-04-09T13:58:02Z</time></trkpt><trkpt lat="45.02785519013192" lon="8.25848295395002"><ele>207.0</ele><time>2026-04-09T13:58:03Z</time></trkpt><trkpt lat="45.02795900147566" lon="8.258676678850497"><ele>207.0</ele><time>2026-04-09T13:58:04Z</time></trkpt><trkpt lat="45.02806259410556" lon="8.258867227994065"><ele>207.0</ele><time>2026-04-09T13:58:05Z</time></trkpt><trkpt lat="45.02816669724253" lon="8.259058925550892"><ele>207.33333333333331</ele><time>2026-04-09T13:58:06Z</time></trkpt><trkpt lat="45.02827055018874" lon="8.259252471314708"><ele>207.66666666666666</ele><time>2026-04-09T13:58:07Z</time></trkpt><trkpt lat="45.02837561380474" lon="8.259444002232152"><ele>208.0</ele><time>2026-04-09T13:58:08Z</time></trkpt><trkpt lat="45.02847942102216" lon="8.259632339870427"><ele>208.0</ele><time>2026-04-09T13:58:09Z</time></trkpt><trkpt lat="45.02858371797297" lon="8.25982460822338"><ele>208.0</ele><time>2026-04-09T13:58:10Z</time></trkpt><trkpt lat="45.028686947568055" lon="8.260014304670817"><ele>208.0</ele><time>2026-04-09T13:58:11Z</time></trkpt><trkpt lat="45.02879048609291" lon="8.260203287215178"><ele>208.0</ele><time>2026-04-09T13:58:12Z</time></trkpt><trkpt lat="45.02889303897201" lon="8.260392021653223"><ele>208.0</ele><time>2026-04-09T13:58:13Z</time></trkpt><trkpt lat="45.02899353200833" lon="8.260583534833888"><ele>208.0</ele><time>2026-04-09T13:58:14Z</time></trkpt><trkpt lat="45.029096983496814" lon="8.260773911386654"><ele>209.33333333333331</ele><time>2026-04-09T13:58:15Z</time></trkpt><trkpt lat="45.029202245576364" lon="8.260964369556755"><ele>210.66666666666669</ele><time>2026-04-09T13:58:16Z</time></trkpt><trkpt lat="45.02930663441979" lon="8.261154440252543"><ele>212.0</ele><time>2026-04-09T13:58:17Z</time></trkpt><trkpt lat="45.02941153971956" lon="8.26134638400279"><ele>211.33333333333334</ele><time>2026-04-09T13:58:18Z</time></trkpt><trkpt lat="45.029515924895215" lon="8.261535412295782"><ele>210.66666666666669</ele><time>2026-04-09T13:58:19Z</time></trkpt><trkpt lat="45.029620189023" lon="8.26172882198441"><ele>210.0</ele><time>2026-04-09T13:58:20Z</time></trkpt><trkpt lat="45.02972317219901" lon="8.26192559486429"><ele>210.0</ele><time>2026-04-09T13:58:21Z</time></trkpt><trkpt lat="45.029826007513314" lon="8.262119879240785"><ele>210.0</ele><time>2026-04-09T13:58:22Z</time></trkpt><trkpt lat="45.02993160295032" lon="8.26231327864773"><ele>210.0</ele><time>2026-04-09T13:58:23Z</time></trkpt><trkpt lat="45.030039440251535" lon="8.262505707152341"><ele>210.0</ele><time>2026-04-09T13:58:24Z</time></trkpt><trkpt lat="45.03014669745961" lon="8.262695445279261"><ele>210.0</ele><time>2026-04-09T13:58:25Z</time></trkpt><trkpt lat="45.03025144856217" lon="8.262888779459542"><ele>210.0</ele><time>2026-04-09T13:58:26Z</time></trkpt><trkpt lat="45.0303567370713" lon="8.263084688594509"><ele>209.33333333333331</ele><time>2026-04-09T13:58:27Z</time></trkpt><trkpt lat="45.0304599070632" lon="8.263278910314595"><ele>208.66666666666666</ele><time>2026-04-09T13:58:28Z</time></trkpt><trkpt lat="45.03056664860154" lon="8.263471622238916"><ele>208.0</ele><time>2026-04-09T13:58:29Z</time></trkpt><trkpt lat="45.03067116494431" lon="8.263665481001755"><ele>208.0</ele><time>2026-04-09T13:58:30Z</time></trkpt><trkpt lat="45.03077435494702" lon="8.263860923241955"><ele>208.0</ele><time>2026-04-09T13:58:31Z</time></trkpt><trkpt lat="45.03087854805825" lon="8.264052844400444"><ele>208.0</ele><time>2026-04-09T13:58:32Z</time></trkpt><trkpt lat="45.03098500588514" lon="8.264234648137675"><ele>209.66666666666666</ele><time>2026-04-09T13:58:33Z</time></trkpt><trkpt lat="45.03109211502403" lon="8.264405300726875"><ele>211.33333333333331</ele><time>2026-04-09T13:58:34Z</time></trkpt><trkpt lat="45.031203333116366" lon="8.264568381142812"><ele>213.0</ele><time>2026-04-09T13:58:35Z</time></trkpt><trkpt lat="45.03131969762392" lon="8.264724580193176"><ele>213.0</ele><time>2026-04-09T13:58:36Z</time></trkpt><trkpt lat="45.03144721008558" lon="8.264870263364864"><ele>213.0</ele><time>2026-04-09T13:58:37Z</time></trkpt><trkpt lat="45.03158834836227" lon="8.26500136276492"><ele>213.0</ele><time>2026-04-09T13:58:38Z</time></trkpt><trkpt lat="45.031747147452016" lon="8.265114463216058"><ele>214.66666666666669</ele><time>2026-04-09T13:58:39Z</time></trkpt><trkpt lat="45.031913233970286" lon="8.265221529795845"><ele>216.33333333333334</ele><time>2026-04-09T13:58:40Z</time></trkpt><trkpt lat="45.032087388939644" lon="8.265323536802994"><ele>218.0</ele><time>2026-04-09T13:58:41Z</time></trkpt><trkpt lat="45.03226634565049" lon="8.26541638390442"><ele>218.0</ele><time>2026-04-09T13:58:42Z</time></trkpt><trkpt lat="45.03244183702459" lon="8.265498708923372"><ele>218.0</ele><time>2026-04-09T13:58:43Z</time></trkpt><trkpt lat="45.03261611653114" lon="8.265579443250578"><ele>218.0</ele><time>2026-04-09T13:58:44Z</time></trkpt><trkpt lat="45.03278183589811" lon="8.265659030206034"><ele>217.0</ele><time>2026-04-09T13:58:45Z</time></trkpt><trkpt lat="45.032946498503335" lon="8.265739527692222"><ele>216.0</ele><time>2026-04-09T13:58:46Z</time></trkpt><trkpt lat="45.033111629080736" lon="8.265818492887892"><ele>215.0</ele><time>2026-04-09T13:58:47Z</time></trkpt><trkpt lat="45.03327417290624" lon="8.265890105244898"><ele>215.66666666666669</ele><time>2026-04-09T13:58:48Z</time></trkpt><trkpt lat="45.03343721994966" lon="8.265960109652225"><ele>216.33333333333331</ele><time>2026-04-09T13:58:49Z</time></trkpt><trkpt lat="45.03360001524347" lon="8.266033664754781"><ele>217.0</ele><time>2026-04-09T13:58:50Z</time></trkpt><trkpt lat="45.03375716530356" lon="8.266108001026412"><ele>217.0</ele><time>2026-04-09T13:58:51Z</time></trkpt><trkpt lat="45.033920218690355" lon="8.266186249348765"><ele>217.0</ele><time>2026-04-09T13:58:52Z</time></trkpt><trkpt lat="45.03408838010478" lon="8.266264967277765"><ele>217.0</ele><time>2026-04-09T13:58:53Z</time></trkpt><trkpt lat="45.03425684546956" lon="8.266346430504543"><ele>217.66666666666666</ele><time>2026-04-09T13:58:54Z</time></trkpt><trkpt lat="45.034422096847514" lon="8.266426772041159"><ele>218.33333333333331</ele><time>2026-04-09T13:58:55Z</time></trkpt><trkpt lat="45.03459025006451" lon="8.26650138901586"><ele>219.0</ele><time>2026-04-09T13:58:56Z</time></trkpt><trkpt lat="45.0347653952187" lon="8.266572677522495"><ele>219.0</ele><time>2026-04-09T13:58:57Z</time></trkpt><trkpt lat="45.03493765004747" lon="8.26665631142189"><ele>219.0</ele><time>2026-04-09T13:58:58Z</time></trkpt><trkpt lat="45.0351168398335" lon="8.266756705206285"><ele>219.0</ele><time>2026-04-09T13:58:59Z</time></trkpt><trkpt lat="45.03531237570369" lon="8.26684715676164"><ele>219.0</ele><time>2026-04-09T13:59:00Z</time></trkpt><trkpt lat="45.0355173338323" lon="8.266941965163415"><ele>219.0</ele><time>2026-04-09T13:59:01Z</time></trkpt><trkpt lat="45.035731187258214" lon="8.267040888118991"><ele>219.0</ele><time>2026-04-09T13:59:02Z</time></trkpt><trkpt lat="45.03594208635549" lon="8.26712638345318"><ele>219.0</ele><time>2026-04-09T13:59:03Z</time></trkpt><trkpt lat="45.036153220936384" lon="8.26723238742621"><ele>219.0</ele><time>2026-04-09T13:59:04Z</time></trkpt><trkpt lat="45.03636173299911" lon="8.267331817137414"><ele>219.0</ele><time>2026-04-09T13:59:05Z</time></trkpt><trkpt lat="45.03656954862882" lon="8.2674289296119"><ele>219.66666666666669</ele><time>2026-04-09T13:59:06Z</time></trkpt><trkpt lat="45.03677646013596" lon="8.267526498799803"><ele>220.33333333333334</ele><time>2026-04-09T13:59:07Z</time></trkpt><trkpt lat="45.03698039163038" lon="8.267622230130783"><ele>221.0</ele><time>2026-04-09T13:59:08Z</time></trkpt><trkpt lat="45.03718181713118" lon="8.267720305682904"><ele>221.0</ele><time>2026-04-09T13:59:09Z</time></trkpt><trkpt lat="45.03738303377607" lon="8.26781466011681"><ele>221.0</ele><time>2026-04-09T13:59:10Z</time></trkpt><trkpt lat="45.037577631524954" lon="8.267905173269126"><ele>221.0</ele><time>2026-04-09T13:59:11Z</time></trkpt><trkpt lat="45.037768566643834" lon="8.267990098877664"><ele>221.0</ele><time>2026-04-09T13:59:12Z</time></trkpt><trkpt lat="45.03795572780447" lon="8.26807343541841"><ele>221.0</ele><time>2026-04-09T13:59:13Z</time></trkpt><trkpt lat="45.038141125260125" lon="8.268157879759404"><ele>221.0</ele><time>2026-04-09T13:59:14Z</time></trkpt><trkpt lat="45.038327586923266" lon="8.268244645480374"><ele>223.33333333333334</ele><time>2026-04-09T13:59:15Z</time></trkpt><trkpt lat="45.0385152496057" lon="8.2683306504735"><ele>225.66666666666669</ele><time>2026-04-09T13:59:16Z</time></trkpt><trkpt lat="45.03870554565932" lon="8.268417368712607"><ele>228.0</ele><time>2026-04-09T13:59:17Z</time></trkpt><trkpt lat="45.038902072385426" lon="8.268509321559254"><ele>228.0</ele><time>2026-04-09T13:59:18Z</time></trkpt><trkpt lat="45.0391056844793" lon="8.26860513179251"><ele>228.0</ele><time>2026-04-09T13:59:19Z</time></trkpt><trkpt lat="45.03931238246516" lon="8.268703427481896"><ele>228.0</ele><time>2026-04-09T13:59:20Z</time></trkpt><trkpt lat="45.039508560710985" lon="8.268793701290083"><ele>227.0</ele><time>2026-04-09T13:59:21Z</time></trkpt><trkpt lat="45.0397104870875" lon="8.268888948184722"><ele>226.0</ele><time>2026-04-09T13:59:22Z</time></trkpt><trkpt lat="45.03991339102747" lon="8.268983873669631"><ele>225.0</ele><time>2026-04-09T13:59:23Z</time></trkpt><trkpt lat="45.040115955227854" lon="8.269078927491622"><ele>227.0</ele><time>2026-04-09T13:59:24Z</time></trkpt><trkpt lat="45.040315325577595" lon="8.269171678362621"><ele>229.0</ele><time>2026-04-09T13:59:25Z</time></trkpt><trkpt lat="45.04051054976873" lon="8.269262435541165"><ele>231.0</ele><time>2026-04-09T13:59:26Z</time></trkpt><trkpt lat="45.040704255243284" lon="8.269349722464987"><ele>230.33333333333331</ele><time>2026-04-09T13:59:27Z</time></trkpt><trkpt lat="45.04089450178476" lon="8.269438188634485"><ele>229.66666666666666</ele><time>2026-04-09T13:59:28Z</time></trkpt><trkpt lat="45.04108022231241" lon="8.2695228453012"><ele>229.0</ele><time>2026-04-09T13:59:29Z</time></trkpt><trkpt lat="45.04126601092167" lon="8.2696111058553"><ele>229.0</ele><time>2026-04-09T13:59:30Z</time></trkpt><trkpt lat="45.04144914440847" lon="8.26969546947228"><ele>229.0</ele><time>2026-04-09T13:59:31Z</time></trkpt><trkpt lat="45.04163131230551" lon="8.2697787552651"><ele>229.0</ele><time>2026-04-09T13:59:32Z</time></trkpt><trkpt lat="45.04181157330367" lon="8.269863351227317"><ele>229.66666666666666</ele><time>2026-04-09T13:59:33Z</time></trkpt><trkpt lat="45.04198735157151" lon="8.269945573275491"><ele>230.33333333333331</ele><time>2026-04-09T13:59:34Z</time></trkpt><trkpt lat="45.04215524029101" lon="8.270020519269691"><ele>231.0</ele><time>2026-04-09T13:59:35Z</time></trkpt><trkpt lat="45.04231989006903" lon="8.270092536755831"><ele>231.66666666666669</ele><time>2026-04-09T13:59:36Z</time></trkpt><trkpt lat="45.042476138004304" lon="8.270154480630804"><ele>232.33333333333334</ele><time>2026-04-09T13:59:37Z</time></trkpt><trkpt lat="45.04263490647227" lon="8.270207210953503"><ele>233.0</ele><time>2026-04-09T13:59:38Z</time></trkpt><trkpt lat="45.042785270203616" lon="8.270289922499252"><ele>233.0</ele><time>2026-04-09T13:59:39Z</time></trkpt><trkpt lat="45.04295022933294" lon="8.270277808602849"><ele>233.0</ele><time>2026-04-09T13:59:40Z</time></trkpt><trkpt lat="45.04310824992497" lon="8.27029263361689"><ele>233.0</ele><time>2026-04-09T13:59:41Z</time></trkpt><trkpt lat="45.04326190003422" lon="8.270294843103956"><ele>235.0</ele><time>2026-04-09T13:59:42Z</time></trkpt><trkpt lat="45.04341031243548" lon="8.270287767524758"><ele>237.0</ele><time>2026-04-09T13:59:43Z</time></trkpt><trkpt lat="45.04355674621102" lon="8.270269951713408"><ele>239.0</ele><time>2026-04-09T13:59:44Z</time></trkpt><trkpt lat="45.04370109080676" lon="8.270235035273432"><ele>241.0</ele><time>2026-04-09T13:59:45Z</time></trkpt><trkpt lat="45.04384486790254" lon="8.270189823895125"><ele>241.0</ele><time>2026-04-09T13:59:46Z</time></trkpt><trkpt lat="45.04398371834076" lon="8.270130610556548"><ele>241.0</ele><time>2026-04-09T13:59:47Z</time></trkpt><trkpt lat="45.04412267293599" lon="8.270056435198322"><ele>241.0</ele><time>2026-04-09T13:59:48Z</time></trkpt><trkpt lat="45.044257792022584" lon="8.269971965489818"><ele>241.0</ele><time>2026-04-09T13:59:49Z</time></trkpt><trkpt lat="45.04438781752484" lon="8.26988099013202"><ele>243.0</ele><time>2026-04-09T13:59:50Z</time></trkpt><trkpt lat="45.044515070684454" lon="8.269784145004717"><ele>245.0</ele><time>2026-04-09T13:59:51Z</time></trkpt><trkpt lat="45.044636901213174" lon="8.26968060345491"><ele>247.0</ele><time>2026-04-09T13:59:52Z</time></trkpt><trkpt lat="45.044754954282574" lon="8.26956674941933"><ele>249.0</ele><time>2026-04-09T13:59:53Z</time></trkpt><trkpt lat="45.04486803419728" lon="8.269450532454721"><ele>251.25</ele><time>2026-04-09T13:59:54Z</time></trkpt><trkpt lat="45.04498168375337" lon="8.269332682070173"><ele>253.5</ele><time>2026-04-09T13:59:55Z</time></trkpt><trkpt lat="45.04509353321955" lon="8.269221605157059"><ele>255.75</ele><time>2026-04-09T13:59:56Z</time></trkpt><trkpt lat="45.045204815236204" lon="8.269114593425869"><ele>258.0</ele><time>2026-04-09T13:59:57Z</time></trkpt><trkpt lat="45.045314477173946" lon="8.26900229100073"><ele>257.0</ele><time>2026-04-09T13:59:58Z</time></trkpt><trkpt lat="45.04542240077538" lon="8.26888778011953"><ele>256.0</ele><time>2026-04-09T13:59:59Z</time></trkpt><trkpt lat="45.045527404947" lon="8.26877568423699"><ele>255.0</ele><time>2026-04-09T14:00:00Z</time></trkpt><trkpt lat="45.04562987943452" lon="8.268676512331934"><ele>254.0</ele><time>2026-04-09T14:00:01Z</time></trkpt><trkpt lat="45.04573111914783" lon="8.268575446948548"><ele>256.5</ele><time>2026-04-09T14:00:02Z</time></trkpt><trkpt lat="45.04583330230102" lon="8.268472547510674"><ele>259.0</ele><time>2026-04-09T14:00:03Z</time></trkpt><trkpt lat="45.045941044202266" lon="8.268374446948057"><ele>261.5</ele><time>2026-04-09T14:00:04Z</time></trkpt><trkpt lat="45.046049744120786" lon="8.268264708788934"><ele>264.0</ele><time>2026-04-09T14:00:05Z</time></trkpt><trkpt lat="45.04616115107094" lon="8.268149426386127"><ele>262.75</ele><time>2026-04-09T14:00:06Z</time></trkpt><trkpt lat="45.0462764992708" lon="8.2680376016497"><ele>261.5</ele><time>2026-04-09T14:00:07Z</time></trkpt><trkpt lat="45.04638027989795" lon="8.26793578899124"><ele>260.25</ele><time>2026-04-09T14:00:08Z</time></trkpt><trkpt lat="45.04647390959011" lon="8.267839498057365"><ele>259.0</ele><time>2026-04-09T14:00:09Z</time></trkpt><trkpt lat="45.04656200622357" lon="8.2677508619702"><ele>260.66666666666663</ele><time>2026-04-09T14:00:10.001Z</time></trkpt><trkpt lat="45.04664021337197" lon="8.267674012755567"><ele>262.3333333333333</ele><time>2026-04-09T14:00:11.001Z</time></trkpt><trkpt lat="45.04671373443175" lon="8.26759632463792"><ele>264.0</ele><time>2026-04-09T14:00:12.001Z</time></trkpt><trkpt lat="45.04679220881512" lon="8.267525589189828"><ele>265.6666666666667</ele><time>2026-04-09T14:00:13.001Z</time></trkpt><trkpt lat="45.04685776049492" lon="8.267455785434564"><ele>267.33333333333337</ele><time>2026-04-09T14:00:14.001Z</time></trkpt><trkpt lat="45.04691506411399" lon="8.267393397612164"><ele>269.0</ele><time>2026-04-09T14:00:15.001Z</time></trkpt><trkpt lat="45.046969887511125" lon="8.267333048686897"><ele>268.0</ele><time>2026-04-09T14:00:16.001Z</time></trkpt><trkpt lat="45.04706393295321" lon="8.267234497687562"><ele>267.0</ele><time>2026-04-09T14:00:18.001Z</time></trkpt><trkpt lat="45.04714283320095" lon="8.267155683767967"><ele>266.0</ele><time>2026-04-09T14:00:20.001Z</time></trkpt><trkpt lat="45.0472338072982" lon="8.267082694980509"><ele>265.0</ele><time>2026-04-09T14:00:22.001Z</time></trkpt><trkpt lat="45.0472884376691" lon="8.267032904339727"><ele>264.0</ele><time>2026-04-09T14:00:23.001Z</time></trkpt><trkpt lat="45.04734483048202" lon="8.266961341162535"><ele>264.0</ele><time>2026-04-09T14:00:24.001Z</time></trkpt><trkpt lat="45.0474144935855" lon="8.266878090069152"><ele>264.0</ele><time>2026-04-09T14:00:25.001Z</time></trkpt><trkpt lat="45.04749580170761" lon="8.266791182678169"><ele>264.0</ele><time>2026-04-09T14:00:26.001Z</time></trkpt><trkpt lat="45.0475806482825" lon="8.266699472655606"><ele>264.0</ele><time>2026-04-09T14:00:27Z</time></trkpt><trkpt lat="45.0476664425379" lon="8.266616269562997"><ele>264.0</ele><time>2026-04-09T14:00:28Z</time></trkpt><trkpt lat="45.04774667210492" lon="8.266539322205686"><ele>265.8333333333333</ele><time>2026-04-09T14:00:29Z</time></trkpt><trkpt lat="45.04782136613455" lon="8.266468856553052"><ele>267.6666666666667</ele><time>2026-04-09T14:00:30Z</time></trkpt><trkpt lat="45.04789008236847" lon="8.266397254857155"><ele>269.5</ele><time>2026-04-09T14:00:31Z</time></trkpt><trkpt lat="45.04795318863573" lon="8.266336608856665"><ele>271.33333333333337</ele><time>2026-04-09T14:00:32Z</time></trkpt><trkpt lat="45.048015788175306" lon="8.266270637676264"><ele>273.1666666666667</ele><time>2026-04-09T14:00:33Z</time></trkpt><trkpt lat="45.04807918144753" lon="8.266207912167543"><ele>275.0</ele><time>2026-04-09T14:00:34Z</time></trkpt><trkpt lat="45.0481409667278" lon="8.266141989610707"><ele>275.0</ele><time>2026-04-09T14:00:35Z</time></trkpt><trkpt lat="45.04820383862024" lon="8.26607917939049"><ele>275.0</ele><time>2026-04-09T14:00:36Z</time></trkpt><trkpt lat="45.04826588071417" lon="8.266010565598187"><ele>275.0</ele><time>2026-04-09T14:00:37Z</time></trkpt><trkpt lat="45.04833396500531" lon="8.265944662042063"><ele>275.0</ele><time>2026-04-09T14:00:38Z</time></trkpt><trkpt lat="45.04840038276632" lon="8.265874146035488"><ele>275.0</ele><time>2026-04-09T14:00:39Z</time></trkpt><trkpt lat="45.04847104605331" lon="8.265804694964428"><ele>275.0</ele><time>2026-04-09T14:00:40Z</time></trkpt><trkpt lat="45.04854366053731" lon="8.265730111095653"><ele>275.0</ele><time>2026-04-09T14:00:41Z</time></trkpt><trkpt lat="45.048630475382744" lon="8.265689953225385"><ele>275.0</ele><time>2026-04-09T14:00:42Z</time></trkpt><trkpt lat="45.0487027204954" lon="8.265628746948279"><ele>275.0</ele><time>2026-04-09T14:00:43Z</time></trkpt><trkpt lat="45.04879640594267" lon="8.265537605000052"><ele>275.0</ele><time>2026-04-09T14:00:45Z</time></trkpt><trkpt lat="45.04891675064927" lon="8.265455015500734"><ele>275.0</ele><time>2026-04-09T14:00:47Z</time></trkpt><trkpt lat="45.04899817141358" lon="8.265446000095524"><ele>275.0</ele><time>2026-04-09T14:00:48Z</time></trkpt><trkpt lat="45.04907926949924" lon="8.265436416520016"><ele>275.0</ele><time>2026-04-09T14:00:49Z</time></trkpt><trkpt lat="45.049162323283866" lon="8.265444977635065"><ele>275.0</ele><time>2026-04-09T14:00:50Z</time></trkpt><trkpt lat="45.04925306296868" lon="8.265495570105598"><ele>275.0</ele><time>2026-04-09T14:00:51Z</time></trkpt><trkpt lat="45.04933899550955" lon="8.265572468365027"><ele>275.0</ele><time>2026-04-09T14:00:52Z</time></trkpt><trkpt lat="45.04942136133032" lon="8.265653680524863"><ele>278.6666666666667</ele><time>2026-04-09T14:00:53Z</time></trkpt><trkpt lat="45.04949780706928" lon="8.265748915894795"><ele>282.33333333333337</ele><time>2026-04-09T14:00:54Z</time></trkpt><trkpt lat="45.049563258003616" lon="8.265839944642105"><ele>286.0</ele><time>2026-04-09T14:00:55Z</time></trkpt><trkpt lat="45.04960702252249" lon="8.265942008691162"><ele>289.6666666666667</ele><time>2026-04-09T14:00:56Z</time></trkpt><trkpt lat="45.0496357370319" lon="8.266045134814757"><ele>293.3333333333333</ele><time>2026-04-09T14:00:57Z</time></trkpt><trkpt lat="45.04965622427239" lon="8.26613860959094"><ele>297.0</ele><time>2026-04-09T14:00:58Z</time></trkpt><trkpt lat="45.04968278465822" lon="8.266226790399214"><ele>297.0</ele><time>2026-04-09T14:00:59Z</time></trkpt><trkpt lat="45.049719432574626" lon="8.266305039292678"><ele>297.0</ele><time>2026-04-09T14:01:00Z</time></trkpt><trkpt lat="45.04977487859248" lon="8.266373017767878"><ele>297.0</ele><time>2026-04-09T14:01:01Z</time></trkpt><trkpt lat="45.04984779073992" lon="8.266418275753962"><ele>297.0</ele><time>2026-04-09T14:01:02Z</time></trkpt><trkpt lat="45.04993273878728" lon="8.266464239346798"><ele>297.0</ele><time>2026-04-09T14:01:03Z</time></trkpt><trkpt lat="45.05001243655555" lon="8.266513255369487"><ele>297.0</ele><time>2026-04-09T14:01:04Z</time></trkpt><trkpt lat="45.050109453343666" lon="8.266574066236135"><ele>296.6</ele><time>2026-04-09T14:01:05Z</time></trkpt><trkpt lat="45.05019875669774" lon="8.266633895509203"><ele>296.2</ele><time>2026-04-09T14:01:06Z</time></trkpt><trkpt lat="45.05027947162245" lon="8.26671790344564"><ele>295.8</ele><time>2026-04-09T14:01:07Z</time></trkpt><trkpt lat="45.05036658357659" lon="8.266784404397937"><ele>295.4</ele><time>2026-04-09T14:01:08Z</time></trkpt><trkpt lat="45.05045349838761" lon="8.266859671956142"><ele>295.0</ele><time>2026-04-09T14:01:09Z</time></trkpt><trkpt lat="45.05056303374294" lon="8.266864234164471"><ele>295.0</ele><time>2026-04-09T14:01:10Z</time></trkpt><trkpt lat="45.05064949709345" lon="8.266947422617909"><ele>295.0</ele><time>2026-04-09T14:01:11Z</time></trkpt><trkpt lat="45.0507517066028" lon="8.267023768962394"><ele>295.0</ele><time>2026-04-09T14:01:12Z</time></trkpt><trkpt lat="45.05085268539259" lon="8.26708661395994"><ele>295.0</ele><time>2026-04-09T14:01:13Z</time></trkpt><trkpt lat="45.05095906912465" lon="8.267124132233684"><ele>295.0</ele><time>2026-04-09T14:01:14Z</time></trkpt><trkpt lat="45.05107363984436" lon="8.267131559653162"><ele>297.0</ele><time>2026-04-09T14:01:15Z</time></trkpt><trkpt lat="45.05118731271836" lon="8.26711621194556"><ele>299.0</ele><time>2026-04-09T14:01:16Z</time></trkpt><trkpt lat="45.051296677405986" lon="8.267097563710456"><ele>301.0</ele><time>2026-04-09T14:01:17Z</time></trkpt><trkpt lat="45.051385000392365" lon="8.267119397154064"><ele>303.0</ele><time>2026-04-09T14:01:18Z</time></trkpt><trkpt lat="45.0514592891586" lon="8.267109560792669"><ele>305.0</ele><time>2026-04-09T14:01:19Z</time></trkpt><trkpt lat="45.051525475523626" lon="8.267098879132181"><ele>305.0</ele><time>2026-04-09T14:01:20Z</time></trkpt><trkpt lat="45.051583046688194" lon="8.267047192896689"><ele>305.0</ele><time>2026-04-09T14:01:21Z</time></trkpt><trkpt lat="45.051635579051215" lon="8.266988318035201"><ele>305.0</ele><time>2026-04-09T14:01:22Z</time></trkpt><trkpt lat="45.05164330319387" lon="8.266847315367354"><ele>305.0</ele><time>2026-04-09T14:01:24Z</time></trkpt><trkpt lat="45.05157729049383" lon="8.266804702236216"><ele>305.0</ele><time>2026-04-09T14:01:25Z</time></trkpt><trkpt lat="45.05150931417781" lon="8.266769384949091"><ele>305.0</ele><time>2026-04-09T14:01:26Z</time></trkpt><trkpt lat="45.05142337147737" lon="8.266717515048043"><ele>305.0</ele><time>2026-04-09T14:01:27Z</time></trkpt><trkpt lat="45.05133138503425" lon="8.266692950953464"><ele>305.0</ele><time>2026-04-09T14:01:28Z</time></trkpt><trkpt lat="45.05125270817772" lon="8.266626879175895"><ele>305.0</ele><time>2026-04-09T14:01:29Z</time></trkpt><trkpt lat="45.05117683084499" lon="8.266558270158011"><ele>305.0</ele><time>2026-04-09T14:01:30Z</time></trkpt><trkpt lat="45.05111628511807" lon="8.266492648390741"><ele>305.0</ele><time>2026-04-09T14:01:31Z</time></trkpt><trkpt lat="45.051062875265764" lon="8.26643172051684"><ele>305.0</ele><time>2026-04-09T14:01:32Z</time></trkpt><trkpt lat="45.05106259120788" lon="8.266304453134312"><ele>307.25</ele><time>2026-04-09T14:01:34Z</time></trkpt><trkpt lat="45.051097969512284" lon="8.266203289373392"><ele>309.5</ele><time>2026-04-09T14:01:36Z</time></trkpt><trkpt lat="45.05124312861783" lon="8.26622050464146"><ele>311.75</ele><time>2026-04-09T14:01:37Z</time></trkpt><trkpt lat="45.05134874047006" lon="8.266177982371834"><ele>314.0</ele><time>2026-04-09T14:01:39Z</time></trkpt><trkpt lat="45.05145160959381" lon="8.266270502544696"><ele>314.0</ele><time>2026-04-09T14:01:41Z</time></trkpt><trkpt lat="45.051486278889165" lon="8.266351743456294"><ele>314.0</ele><time>2026-04-09T14:01:42Z</time></trkpt><trkpt lat="45.051537482414126" lon="8.266480656047381"><ele>314.0</ele><time>2026-04-09T14:01:44Z</time></trkpt><trkpt lat="45.051625323303554" lon="8.266495471850087"><ele>314.0</ele><time>2026-04-09T14:01:46Z</time></trkpt><trkpt lat="45.051700194967275" lon="8.266380374171861"><ele>314.0</ele><time>2026-04-09T14:01:48Z</time></trkpt><trkpt lat="45.0520392520724" lon="8.26645528149005"><ele>314.0</ele><time>2026-04-09T14:01:49Z</time></trkpt><trkpt lat="45.05167307075134" lon="8.266237014842199"><ele>314.0</ele><time>2026-04-09T14:01:50Z</time></trkpt><trkpt lat="45.05156642151903" lon="8.266195978089305"><ele>314.0</ele><time>2026-04-09T14:01:52Z</time></trkpt><trkpt lat="45.05146747924555" lon="8.266139602778583"><ele>314.0</ele><time>2026-04-09T14:01:54Z</time></trkpt><trkpt lat="45.05141950529088" lon="8.266053478281131"><ele>314.0</ele><time>2026-04-09T14:01:56Z</time></trkpt><trkpt lat="45.05135917482781" lon="8.266002600011435"><ele>314.0</ele><time>2026-04-09T14:01:59Z</time></trkpt><trkpt lat="45.05139413617066" lon="8.26591436435654"><ele>314.0</ele><time>2026-04-09T14:02:00Z</time></trkpt><trkpt lat="45.05137644685288" lon="8.265789541316328"><ele>314.0</ele><time>2026-04-09T14:02:03.001Z</time></trkpt><trkpt lat="45.05137745744355" lon="8.265680438586102"><ele>314.0</ele><time>2026-04-09T14:02:05.001Z</time></trkpt><trkpt lat="45.05138330534935" lon="8.265565122524722"><ele>315.0</ele><time>2026-04-09T14:02:08.001Z</time></trkpt></trkseg><trkseg><trkpt lat="45.0506553613069" lon="8.268297789626073"><ele>265.0</ele><time>2026-04-09T14:29:40.006Z</time></trkpt><trkpt lat="45.050735157025095" lon="8.268385631971311"><ele>265.0</ele><time>2026-04-09T14:29:41.006Z</time></trkpt><trkpt lat="45.05081382118636" lon="8.268477581449103"><ele>265.0</ele><time>2026-04-09T14:29:42.006Z</time></trkpt><trkpt lat="45.05089839458936" lon="8.268581936143589"><ele>265.0</ele><time>2026-04-09T14:29:43.005Z</time></trkpt><trkpt lat="45.05099013451957" lon="8.268692074351263"><ele>265.0</ele><time>2026-04-09T14:29:44.005Z</time></trkpt><trkpt lat="45.05108811896765" lon="8.268809923909854"><ele>262.75</ele><time>2026-04-09T14:29:45.005Z</time></trkpt><trkpt lat="45.05118434321606" lon="8.268942777075123"><ele>260.5</ele><time>2026-04-09T14:29:46.004Z</time></trkpt><trkpt lat="45.05127549641305" lon="8.269092058770608"><ele>258.25</ele><time>2026-04-09T14:29:47.004Z</time></trkpt><trkpt lat="45.051361911813316" lon="8.269244380028267"><ele>256.0</ele><time>2026-04-09T14:29:48.004Z</time></trkpt><trkpt lat="45.05142609397149" lon="8.269438500513154"><ele>256.0</ele><time>2026-04-09T14:29:49.003Z</time></trkpt><trkpt lat="45.051478808777965" lon="8.269642917761571"><ele>256.0</ele><time>2026-04-09T14:29:50.003Z</time></trkpt><trkpt lat="45.051543600649666" lon="8.269850820863066"><ele>256.0</ele><time>2026-04-09T14:29:51.003Z</time></trkpt><trkpt lat="45.05161858235811" lon="8.270052959515802"><ele>255.33333333333331</ele><time>2026-04-09T14:29:52.003Z</time></trkpt><trkpt lat="45.051687655293804" lon="8.270257788464491"><ele>254.66666666666669</ele><time>2026-04-09T14:29:53.003Z</time></trkpt><trkpt lat="45.05175785264029" lon="8.270470873426236"><ele>254.0</ele><time>2026-04-09T14:29:54.002Z</time></trkpt><trkpt lat="45.051828652654685" lon="8.270683352244562"><ele>252.0</ele><time>2026-04-09T14:29:55.002Z</time></trkpt><trkpt lat="45.05190707797642" lon="8.270912607207755"><ele>250.0</ele><time>2026-04-09T14:29:56.002Z</time></trkpt><trkpt lat="45.05198161357244" lon="8.271140284825206"><ele>248.0</ele><time>2026-04-09T14:29:57.002Z</time></trkpt><trkpt lat="45.05205734397625" lon="8.27136626095587"><ele>246.66666666666669</ele><time>2026-04-09T14:29:58.002Z</time></trkpt><trkpt lat="45.052142832309436" lon="8.271600178308107"><ele>245.33333333333331</ele><time>2026-04-09T14:29:59.002Z</time></trkpt><trkpt lat="45.05222292744501" lon="8.27184133283418"><ele>244.0</ele><time>2026-04-09T14:30:00.002Z</time></trkpt><trkpt lat="45.0523067346107" lon="8.272088537504597"><ele>243.66666666666666</ele><time>2026-04-09T14:30:01.001Z</time></trkpt><trkpt lat="45.05238777389304" lon="8.272335699462456"><ele>243.33333333333331</ele><time>2026-04-09T14:30:02.001Z</time></trkpt><trkpt lat="45.052472530245886" lon="8.272582586422649"><ele>243.0</ele><time>2026-04-09T14:30:03.001Z</time></trkpt><trkpt lat="45.052559638096795" lon="8.272838498180143"><ele>240.66666666666669</ele><time>2026-04-09T14:30:04.001Z</time></trkpt><trkpt lat="45.05264599520424" lon="8.273094697634933"><ele>238.33333333333334</ele><time>2026-04-09T14:30:05.001Z</time></trkpt><trkpt lat="45.05273460887844" lon="8.273356282063903"><ele>236.0</ele><time>2026-04-09T14:30:06.001Z</time></trkpt><trkpt lat="45.052821475728514" lon="8.273620403754856"><ele>235.0</ele><time>2026-04-09T14:30:07.001Z</time></trkpt><trkpt lat="45.052902982478706" lon="8.273868822614524"><ele>234.0</ele><time>2026-04-09T14:30:08.001Z</time></trkpt><trkpt lat="45.05299278352259" lon="8.274136972036985"><ele>233.0</ele><time>2026-04-09T14:30:09.001Z</time></trkpt><trkpt lat="45.053081920569376" lon="8.274409730775433"><ele>232.66666666666669</ele><time>2026-04-09T14:30:10.001Z</time></trkpt><trkpt lat="45.05317048547616" lon="8.274676953529342"><ele>232.33333333333331</ele><time>2026-04-09T14:30:11.001Z</time></trkpt><trkpt lat="45.053252515227726" lon="8.27492975330601"><ele>232.0</ele><time>2026-04-09T14:30:12.001Z</time></trkpt><trkpt lat="45.053331530612525" lon="8.27517957066777"><ele>230.33333333333331</ele><time>2026-04-09T14:30:13.001Z</time></trkpt><trkpt lat="45.05341166197863" lon="8.275427826921934"><ele>228.66666666666669</ele><time>2026-04-09T14:30:14.001Z</time></trkpt><trkpt lat="45.05349997926751" lon="8.275683406239535"><ele>227.0</ele><time>2026-04-09T14:30:15.001Z</time></trkpt><trkpt lat="45.05358210031265" lon="8.275936054162084"><ele>227.0</ele><time>2026-04-09T14:30:16Z</time></trkpt><trkpt lat="45.053664583959005" lon="8.276187087570769"><ele>227.0</ele><time>2026-04-09T14:30:17Z</time></trkpt><trkpt lat="45.05374992318717" lon="8.276435460270568"><ele>227.0</ele><time>2026-04-09T14:30:18Z</time></trkpt><trkpt lat="45.053825671187944" lon="8.276671560665408"><ele>227.75</ele><time>2026-04-09T14:30:19Z</time></trkpt><trkpt lat="45.05390176758645" lon="8.27687778206874"><ele>228.5</ele><time>2026-04-09T14:30:20Z</time></trkpt><trkpt lat="45.053941020640615" lon="8.277049169626414"><ele>229.25</ele><time>2026-04-09T14:30:21Z</time></trkpt><trkpt lat="45.05399633350612" lon="8.277220253766057"><ele>230.0</ele><time>2026-04-09T14:30:22Z</time></trkpt><trkpt lat="45.054060941134985" lon="8.277387063554304"><ele>227.5</ele><time>2026-04-09T14:30:23Z</time></trkpt><trkpt lat="45.054119125824755" lon="8.277540885579993"><ele>225.0</ele><time>2026-04-09T14:30:24Z</time></trkpt><trkpt lat="45.05417351750795" lon="8.277680669445099"><ele>222.5</ele><time>2026-04-09T14:30:25Z</time></trkpt><trkpt lat="45.05423594382634" lon="8.277812675168565"><ele>220.0</ele><time>2026-04-09T14:30:26Z</time></trkpt><trkpt lat="45.05431195467077" lon="8.277931262886378"><ele>218.25</ele><time>2026-04-09T14:30:27Z</time></trkpt><trkpt lat="45.054414132988846" lon="8.277996520426917"><ele>216.5</ele><time>2026-04-09T14:30:28Z</time></trkpt><trkpt lat="45.05453552136439" lon="8.277993915666254"><ele>214.75</ele><time>2026-04-09T14:30:29Z</time></trkpt><trkpt lat="45.05466568600297" lon="8.27792784554564"><ele>213.0</ele><time>2026-04-09T14:30:30Z</time></trkpt><trkpt lat="45.05479246145915" lon="8.277828569491842"><ele>213.0</ele><time>2026-04-09T14:30:31Z</time></trkpt><trkpt lat="45.05491937548254" lon="8.277717116557056"><ele>213.0</ele><time>2026-04-09T14:30:32Z</time></trkpt><trkpt lat="45.05504802961564" lon="8.277604863810653"><ele>213.0</ele><time>2026-04-09T14:30:33Z</time></trkpt><trkpt lat="45.05517272295416" lon="8.277501476266778"><ele>213.0</ele><time>2026-04-09T14:30:34Z</time></trkpt><trkpt lat="45.055284876823244" lon="8.277416484598094"><ele>210.25</ele><time>2026-04-09T14:30:35Z</time></trkpt><trkpt lat="45.055374003844015" lon="8.277331865646257"><ele>207.5</ele><time>2026-04-09T14:30:36Z</time></trkpt><trkpt lat="45.05547642003777" lon="8.277265913368764"><ele>204.75</ele><time>2026-04-09T14:30:37Z</time></trkpt><trkpt lat="45.055579761166314" lon="8.277151682508466"><ele>202.0</ele><time>2026-04-09T14:30:38Z</time></trkpt><trkpt lat="45.055704462706146" lon="8.277057524072433"><ele>199.5</ele><time>2026-04-09T14:30:39Z</time></trkpt><trkpt lat="45.055834749598226" lon="8.276957109514045"><ele>197.0</ele><time>2026-04-09T14:30:40Z</time></trkpt><trkpt lat="45.055959997389465" lon="8.276852119726344"><ele>194.5</ele><time>2026-04-09T14:30:41Z</time></trkpt><trkpt lat="45.05608514244988" lon="8.276741194536564"><ele>192.0</ele><time>2026-04-09T14:30:42Z</time></trkpt><trkpt lat="45.056215408278725" lon="8.276630789883372"><ele>192.0</ele><time>2026-04-09T14:30:43Z</time></trkpt><trkpt lat="45.05635261126525" lon="8.276529293061364"><ele>192.0</ele><time>2026-04-09T14:30:44Z</time></trkpt><trkpt lat="45.056500597307306" lon="8.276448602438027"><ele>192.0</ele><time>2026-04-09T14:30:45Z</time></trkpt><trkpt lat="45.05665504928369" lon="8.276387121386225"><ele>189.66666666666666</ele><time>2026-04-09T14:30:46Z</time></trkpt><trkpt lat="45.05681512886814" lon="8.276349244287468"><ele>187.33333333333331</ele><time>2026-04-09T14:30:47Z</time></trkpt><trkpt lat="45.05697712289162" lon="8.276339858363508"><ele>185.0</ele><time>2026-04-09T14:30:48Z</time></trkpt><trkpt lat="45.05713471904527" lon="8.276364916357217"><ele>185.0</ele><time>2026-04-09T14:30:49Z</time></trkpt><trkpt lat="45.05728973428898" lon="8.276426324912649"><ele>185.0</ele><time>2026-04-09T14:30:50Z</time></trkpt><trkpt lat="45.05744298582813" lon="8.276512448018785"><ele>185.0</ele><time>2026-04-09T14:30:51Z</time></trkpt><trkpt lat="45.057594146957996" lon="8.276614859570246"><ele>183.33333333333331</ele><time>2026-04-09T14:30:52Z</time></trkpt><trkpt lat="45.0577497777666" lon="8.27671467646197"><ele>181.66666666666666</ele><time>2026-04-09T14:30:53Z</time></trkpt><trkpt lat="45.057906472210526" lon="8.276810980868685"><ele>180.0</ele><time>2026-04-09T14:30:54Z</time></trkpt><trkpt lat="45.05806186388032" lon="8.276904779797277"><ele>180.0</ele><time>2026-04-09T14:30:55Z</time></trkpt><trkpt lat="45.058220217610035" lon="8.277001570442556"><ele>180.0</ele><time>2026-04-09T14:30:56Z</time></trkpt><trkpt lat="45.05837959003622" lon="8.277103644808324"><ele>180.0</ele><time>2026-04-09T14:30:57Z</time></trkpt><trkpt lat="45.05854050453037" lon="8.27720543953216"><ele>179.33333333333334</ele><time>2026-04-09T14:30:58Z</time></trkpt><trkpt lat="45.058700879612196" lon="8.277305286982498"><ele>178.66666666666669</ele><time>2026-04-09T14:30:59Z</time></trkpt><trkpt lat="45.05886319180992" lon="8.27740194798584"><ele>178.0</ele><time>2026-04-09T14:31:00Z</time></trkpt><trkpt lat="45.059025390724045" lon="8.277500110360807"><ele>178.0</ele><time>2026-04-09T14:31:01Z</time></trkpt><trkpt lat="45.05918747275256" lon="8.277598102787032"><ele>178.0</ele><time>2026-04-09T14:31:02Z</time></trkpt><trkpt lat="45.0593501218824" lon="8.277696139229265"><ele>178.0</ele><time>2026-04-09T14:31:03Z</time></trkpt><trkpt lat="45.05951292117917" lon="8.27779388294167"><ele>178.0</ele><time>2026-04-09T14:31:04Z</time></trkpt><trkpt lat="45.0596753928791" lon="8.27789322751409"><ele>178.0</ele><time>2026-04-09T14:31:05Z</time></trkpt><trkpt lat="45.059834817695965" lon="8.27799351551081"><ele>178.0</ele><time>2026-04-09T14:31:06Z</time></trkpt><trkpt lat="45.059990713601046" lon="8.278088886994688"><ele>177.75</ele><time>2026-04-09T14:31:07Z</time></trkpt><trkpt lat="45.06011728386926" lon="8.278162198877896"><ele>177.5</ele><time>2026-04-09T14:31:08Z</time></trkpt><trkpt lat="45.06022615422376" lon="8.278218282274773"><ele>177.25</ele><time>2026-04-09T14:31:09Z</time></trkpt><trkpt lat="45.06032690501025" lon="8.278277057845763"><ele>177.0</ele><time>2026-04-09T14:31:10Z</time></trkpt><trkpt lat="45.060419329173804" lon="8.278340544583719"><ele>177.0</ele><time>2026-04-09T14:31:11Z</time></trkpt><trkpt lat="45.060503976685155" lon="8.278398837406096"><ele>177.0</ele><time>2026-04-09T14:31:12Z</time></trkpt><trkpt lat="45.060592661582454" lon="8.278461977818445"><ele>177.0</ele><time>2026-04-09T14:31:13Z</time></trkpt><trkpt lat="45.06068876349412" lon="8.27852064589816"><ele>177.0</ele><time>2026-04-09T14:31:14Z</time></trkpt><trkpt lat="45.06077869111212" lon="8.278571413390228"><ele>177.0</ele><time>2026-04-09T14:31:15Z</time></trkpt><trkpt lat="45.060853231942104" lon="8.278616523898815"><ele>177.0</ele><time>2026-04-09T14:31:16Z</time></trkpt><trkpt lat="45.06090751069792" lon="8.278667554919975"><ele>177.0</ele><time>2026-04-09T14:31:17Z</time></trkpt><trkpt lat="45.06098072009756" lon="8.278772389369093"><ele>177.0</ele><time>2026-04-09T14:31:19Z</time></trkpt><trkpt lat="45.06107906997098" lon="8.278822416015148"><ele>177.0</ele><time>2026-04-09T14:31:21Z</time></trkpt><trkpt lat="45.06116780717207" lon="8.27888852342753"><ele>177.0</ele><time>2026-04-09T14:31:23Z</time></trkpt><trkpt lat="45.0612230502995" lon="8.278961830739775"><ele>177.0</ele><time>2026-04-09T14:31:25Z</time></trkpt><trkpt lat="45.06130289427696" lon="8.278930296565392"><ele>177.0</ele><time>2026-04-09T14:31:28Z</time></trkpt><trkpt lat="45.06130914245713" lon="8.278835667935606"><ele>177.0</ele><time>2026-04-09T14:31:36Z</time></trkpt><trkpt lat="45.061175955554056" lon="8.27883992177506"><ele>177.0</ele><time>2026-04-09T14:31:38Z</time></trkpt><trkpt lat="45.061093422295095" lon="8.278803713889406"><ele>177.0</ele><time>2026-04-09T14:31:39Z</time></trkpt><trkpt lat="45.06103550388304" lon="8.278675626762908"><ele>177.0</ele><time>2026-04-09T14:31:40Z</time></trkpt><trkpt lat="45.060965484396945" lon="8.278632701341472"><ele>177.0</ele><time>2026-04-09T14:31:41Z</time></trkpt><trkpt lat="45.06089846478868" lon="8.278595657732417"><ele>177.0</ele><time>2026-04-09T14:31:42Z</time></trkpt><trkpt lat="45.06083495702666" lon="8.278556999793409"><ele>177.0</ele><time>2026-04-09T14:31:43Z</time></trkpt><trkpt lat="45.06076543897382" lon="8.278516168962323"><ele>177.0</ele><time>2026-04-09T14:31:44Z</time></trkpt><trkpt lat="45.060702178981224" lon="8.278454880462158"><ele>177.0</ele><time>2026-04-09T14:31:45Z</time></trkpt><trkpt lat="45.06063909325727" lon="8.278417092077095"><ele>177.0</ele><time>2026-04-09T14:31:46Z</time></trkpt><trkpt lat="45.06056830478033" lon="8.278474978140553"><ele>177.0</ele><time>2026-04-09T14:31:46.999Z</time></trkpt><trkpt lat="45.060511190907846" lon="8.278540709134969"><ele>177.0</ele><time>2026-04-09T14:31:48.999Z</time></trkpt><trkpt lat="45.06045672482048" lon="8.278603671886314"><ele>177.0</ele><time>2026-04-09T14:36:33Z</time></trkpt><trkpt lat="45.060381636068044" lon="8.278503560299589"><ele>177.0</ele><time>2026-04-09T14:36:34Z</time></trkpt><trkpt lat="45.06032527836047" lon="8.278426027138138"><ele>177.0</ele><time>2026-04-09T14:36:36Z</time></trkpt><trkpt lat="45.060246214014256" lon="8.27841526237067"><ele>177.0</ele><time>2026-04-09T14:36:39Z</time></trkpt><trkpt lat="45.06025460384744" lon="8.278529602916539"><ele>177.0</ele><time>2026-04-09T14:36:42Z</time></trkpt><trkpt lat="45.06033900428495" lon="8.278557836304849"><ele>177.0</ele><time>2026-04-09T14:36:44Z</time></trkpt><trkpt lat="45.06043161713439" lon="8.27858222398302"><ele>177.0</ele><time>2026-04-09T14:36:46Z</time></trkpt><trkpt lat="45.060498270174286" lon="8.278587243080608"><ele>177.0</ele><time>2026-04-09T14:36:48Z</time></trkpt><trkpt lat="45.06058407724211" lon="8.278514830197684"><ele>177.0</ele><time>2026-04-09T14:37:08Z</time></trkpt><trkpt lat="45.06071021576053" lon="8.278520967770115"><ele>177.0</ele><time>2026-04-09T14:37:10Z</time></trkpt><trkpt lat="45.06079389615132" lon="8.278576615868555"><ele>177.0</ele><time>2026-04-09T14:37:11Z</time></trkpt><trkpt lat="45.06086795193255" lon="8.278627264553013"><ele>177.0</ele><time>2026-04-09T14:37:12Z</time></trkpt><trkpt lat="45.06095885528977" lon="8.278682418233853"><ele>177.0</ele><time>2026-04-09T14:37:13Z</time></trkpt><trkpt lat="45.0610594194346" lon="8.278738889740254"><ele>177.0</ele><time>2026-04-09T14:37:14Z</time></trkpt><trkpt lat="45.06116781528409" lon="8.278802462941648"><ele>177.0</ele><time>2026-04-09T14:37:15Z</time></trkpt><trkpt lat="45.0612827875223" lon="8.278870112239783"><ele>177.0</ele><time>2026-04-09T14:37:16Z</time></trkpt><trkpt lat="45.06140569253946" lon="8.278944249313556"><ele>177.0</ele><time>2026-04-09T14:37:17Z</time></trkpt><trkpt lat="45.06152496804542" lon="8.279016644040672"><ele>177.0</ele><time>2026-04-09T14:37:18Z</time></trkpt><trkpt lat="45.06165515130378" lon="8.279093534212745"><ele>176.66666666666666</ele><time>2026-04-09T14:37:19Z</time></trkpt><trkpt lat="45.061792652285" lon="8.279175187732505"><ele>176.33333333333331</ele><time>2026-04-09T14:37:20Z</time></trkpt><trkpt lat="45.0619345397546" lon="8.279259377961514"><ele>176.0</ele><time>2026-04-09T14:37:21Z</time></trkpt><trkpt lat="45.06207525588026" lon="8.279343145859322"><ele>176.0</ele><time>2026-04-09T14:37:22Z</time></trkpt><trkpt lat="45.062222601273746" lon="8.279430283579945"><ele>176.0</ele><time>2026-04-09T14:37:23Z</time></trkpt><trkpt lat="45.06237085865954" lon="8.279517547729244"><ele>176.0</ele><time>2026-04-09T14:37:24Z</time></trkpt><trkpt lat="45.06251998904799" lon="8.279608756522885"><ele>175.33333333333331</ele><time>2026-04-09T14:37:25Z</time></trkpt><trkpt lat="45.06267513350874" lon="8.279697057631349"><ele>174.66666666666666</ele><time>2026-04-09T14:37:26.001Z</time></trkpt><trkpt lat="45.06283040845072" lon="8.279789492481155"><ele>174.0</ele><time>2026-04-09T14:37:27Z</time></trkpt><trkpt lat="45.06298433032241" lon="8.279881869288111"><ele>174.0</ele><time>2026-04-09T14:37:28Z</time></trkpt><trkpt lat="45.063129295977205" lon="8.279973098623731"><ele>174.0</ele><time>2026-04-09T14:37:29Z</time></trkpt><trkpt lat="45.063274061194235" lon="8.280060340664571"><ele>174.0</ele><time>2026-04-09T14:37:30Z</time></trkpt><trkpt lat="45.063420424530015" lon="8.280150956622816"><ele>174.0</ele><time>2026-04-09T14:37:31Z</time></trkpt><trkpt lat="45.0635684717918" lon="8.280244789048934"><ele>174.0</ele><time>2026-04-09T14:37:32Z</time></trkpt><trkpt lat="45.06371939086614" lon="8.280338839048019"><ele>174.0</ele><time>2026-04-09T14:37:33Z</time></trkpt><trkpt lat="45.06387173026062" lon="8.280440308302639"><ele>174.0</ele><time>2026-04-09T14:37:34Z</time></trkpt><trkpt lat="45.06402417670381" lon="8.280550212278255"><ele>174.0</ele><time>2026-04-09T14:37:35Z</time></trkpt><trkpt lat="45.06417429479667" lon="8.280667781056211"><ele>174.0</ele><time>2026-04-09T14:37:36Z</time></trkpt><trkpt lat="45.06432350439951" lon="8.280796078536172"><ele>173.66666666666666</ele><time>2026-04-09T14:37:37Z</time></trkpt><trkpt lat="45.06446960145897" lon="8.280935143184218"><ele>173.33333333333331</ele><time>2026-04-09T14:37:38Z</time></trkpt><trkpt lat="45.06461400598908" lon="8.281083099426672"><ele>173.0</ele><time>2026-04-09T14:37:39Z</time></trkpt><trkpt lat="45.06475404736007" lon="8.28123922550099"><ele>173.0</ele><time>2026-04-09T14:37:40Z</time></trkpt><trkpt lat="45.06488645239071" lon="8.281402967010516"><ele>173.0</ele><time>2026-04-09T14:37:41Z</time></trkpt><trkpt lat="45.06501319361261" lon="8.281576384867"><ele>173.0</ele><time>2026-04-09T14:37:42Z</time></trkpt><trkpt lat="45.065132401905636" lon="8.281755573617868"><ele>173.0</ele><time>2026-04-09T14:37:43Z</time></trkpt><trkpt lat="45.065250057004064" lon="8.281935408061347"><ele>173.0</ele><time>2026-04-09T14:37:44Z</time></trkpt><trkpt lat="45.06536213270532" lon="8.282120586618932"><ele>173.0</ele><time>2026-04-09T14:37:45Z</time></trkpt><trkpt lat="45.0654693848119" lon="8.282314175351532"><ele>173.33333333333331</ele><time>2026-04-09T14:37:46Z</time></trkpt><trkpt lat="45.06557037266163" lon="8.282520976772803"><ele>173.66666666666666</ele><time>2026-04-09T14:37:47Z</time></trkpt><trkpt lat="45.06566664228471" lon="8.28273482240813"><ele>174.0</ele><time>2026-04-09T14:37:48Z</time></trkpt><trkpt lat="45.06575955750056" lon="8.282957763693696"><ele>173.0</ele><time>2026-04-09T14:37:49Z</time></trkpt><trkpt lat="45.06584665754816" lon="8.28317340212683"><ele>172.0</ele><time>2026-04-09T14:37:50Z</time></trkpt><trkpt lat="45.065939627169776" lon="8.283393272588826"><ele>171.0</ele><time>2026-04-09T14:37:51Z</time></trkpt><trkpt lat="45.066031746103306" lon="8.283614956195162"><ele>171.0</ele><time>2026-04-09T14:37:52Z</time></trkpt><trkpt lat="45.06612329607252" lon="8.283838374561565"><ele>171.0</ele><time>2026-04-09T14:37:53Z</time></trkpt><trkpt lat="45.066213615578306" lon="8.284060050425563"><ele>171.0</ele><time>2026-04-09T14:37:54Z</time></trkpt><trkpt lat="45.06630632720306" lon="8.284284720028127"><ele>171.66666666666666</ele><time>2026-04-09T14:37:55Z</time></trkpt><trkpt lat="45.06640059518957" lon="8.284512045613333"><ele>172.33333333333331</ele><time>2026-04-09T14:37:56Z</time></trkpt><trkpt lat="45.06650440315584" lon="8.284742343925608"><ele>173.0</ele><time>2026-04-09T14:37:57Z</time></trkpt><trkpt lat="45.066612079074844" lon="8.284988349046966"><ele>173.0</ele><time>2026-04-09T14:37:58Z</time></trkpt><trkpt lat="45.066721299084" lon="8.285248771624207"><ele>173.0</ele><time>2026-04-09T14:37:59Z</time></trkpt><trkpt lat="45.06682684588016" lon="8.285528910333621"><ele>173.0</ele><time>2026-04-09T14:38:00Z</time></trkpt><trkpt lat="45.06693333124923" lon="8.285816736102497"><ele>179.5</ele><time>2026-04-09T14:38:01Z</time></trkpt><trkpt lat="45.06704604785358" lon="8.28611038280799"><ele>186.0</ele><time>2026-04-09T14:38:02Z</time></trkpt><trkpt lat="45.0671577470365" lon="8.286391006131845"><ele>193.0</ele><time>2026-04-09T14:38:03Z</time></trkpt><trkpt lat="45.067272216518326" lon="8.286677478155175"><ele>200.0</ele><time>2026-04-09T14:38:04Z</time></trkpt><trkpt lat="45.06738781971123" lon="8.286961744354487"><ele>192.0</ele><time>2026-04-09T14:38:05Z</time></trkpt><trkpt lat="45.06750524874697" lon="8.287250485849937"><ele>184.0</ele><time>2026-04-09T14:38:06Z</time></trkpt><trkpt lat="45.067623321807176" lon="8.287541118237815"><ele>184.0</ele><time>2026-04-09T14:38:07Z</time></trkpt><trkpt lat="45.067741964377205" lon="8.287833323763824"><ele>184.0</ele><time>2026-04-09T14:38:08Z</time></trkpt><trkpt lat="45.067861668514645" lon="8.28812945162612"><ele>186.0</ele><time>2026-04-09T14:38:09Z</time></trkpt><trkpt lat="45.06798094725443" lon="8.288423786680656"><ele>188.0</ele><time>2026-04-09T14:38:10Z</time></trkpt><trkpt lat="45.068105165007935" lon="8.288723443133424"><ele>192.0</ele><time>2026-04-09T14:38:11Z</time></trkpt><trkpt lat="45.06822860345718" lon="8.289024551815983"><ele>196.0</ele><time>2026-04-09T14:38:12Z</time></trkpt><trkpt lat="45.06835232681287" lon="8.289326404900867"><ele>187.5</ele><time>2026-04-09T14:38:13Z</time></trkpt><trkpt lat="45.068478397720796" lon="8.289632114385695"><ele>179.0</ele><time>2026-04-09T14:38:14Z</time></trkpt><trkpt lat="45.06860366867234" lon="8.289937599902878"><ele>179.0</ele><time>2026-04-09T14:38:15Z</time></trkpt><trkpt lat="45.06873191925954" lon="8.290248522198201"><ele>179.0</ele><time>2026-04-09T14:38:16Z</time></trkpt><trkpt lat="45.068858635452074" lon="8.29056138661768"><ele>179.0</ele><time>2026-04-09T14:38:17Z</time></trkpt><trkpt lat="45.068985789994066" lon="8.290874978529919"><ele>179.0</ele><time>2026-04-09T14:38:18Z</time></trkpt><trkpt lat="45.06911377761738" lon="8.291189139705452"><ele>175.0</ele><time>2026-04-09T14:38:19Z</time></trkpt><trkpt lat="45.06924357475791" lon="8.291503406195417"><ele>171.0</ele><time>2026-04-09T14:38:20Z</time></trkpt><trkpt lat="45.06937293368436" lon="8.291820814972054"><ele>171.0</ele><time>2026-04-09T14:38:21Z</time></trkpt><trkpt lat="45.069502302187864" lon="8.292137411313083"><ele>171.0</ele><time>2026-04-09T14:38:22Z</time></trkpt><trkpt lat="45.069630320680446" lon="8.292451731520357"><ele>172.5</ele><time>2026-04-09T14:38:23Z</time></trkpt><trkpt lat="45.06975917223691" lon="8.292762943622046"><ele>174.0</ele><time>2026-04-09T14:38:24Z</time></trkpt><trkpt lat="45.06988601966183" lon="8.293074713003223"><ele>171.0</ele><time>2026-04-09T14:38:25Z</time></trkpt><trkpt lat="45.07001119753712" lon="8.293382729555088"><ele>168.0</ele><time>2026-04-09T14:38:26Z</time></trkpt><trkpt lat="45.07013880081245" lon="8.293688559622362"><ele>166.5</ele><time>2026-04-09T14:38:27Z</time></trkpt><trkpt lat="45.07026626663103" lon="8.293985348329274"><ele>165.0</ele><time>2026-04-09T14:38:28Z</time></trkpt><trkpt lat="45.07039668307287" lon="8.294281507270775"><ele>165.0</ele><time>2026-04-09T14:38:29Z</time></trkpt><trkpt lat="45.07052893118414" lon="8.294570253347693"><ele>165.0</ele><time>2026-04-09T14:38:30Z</time></trkpt><trkpt lat="45.070666357551396" lon="8.29485630904137"><ele>164.5</ele><time>2026-04-09T14:38:31Z</time></trkpt><trkpt lat="45.070809340667566" lon="8.295136315934275"><ele>164.0</ele><time>2026-04-09T14:38:32Z</time></trkpt><trkpt lat="45.070954912836896" lon="8.295407737848645"><ele>163.5</ele><time>2026-04-09T14:38:33Z</time></trkpt><trkpt lat="45.07110565449615" lon="8.295675793390199"><ele>163.0</ele><time>2026-04-09T14:38:34Z</time></trkpt><trkpt lat="45.07125797865408" lon="8.295941625138953"><ele>163.0</ele><time>2026-04-09T14:38:35Z</time></trkpt><trkpt lat="45.07141563969825" lon="8.296203815591136"><ele>163.0</ele><time>2026-04-09T14:38:36Z</time></trkpt><trkpt lat="45.07157767600213" lon="8.296466649007446"><ele>163.0</ele><time>2026-04-09T14:38:37Z</time></trkpt><trkpt lat="45.07173726587935" lon="8.29673346602042"><ele>163.0</ele><time>2026-04-09T14:38:38Z</time></trkpt><trkpt lat="45.071900086121104" lon="8.29699851582904"><ele>163.5</ele><time>2026-04-09T14:38:39Z</time></trkpt><trkpt lat="45.07206291312157" lon="8.297264323883066"><ele>164.0</ele><time>2026-04-09T14:38:40Z</time></trkpt><trkpt lat="45.07222475494243" lon="8.297533094902994"><ele>164.0</ele><time>2026-04-09T14:38:41Z</time></trkpt><trkpt lat="45.072386024477474" lon="8.297799896516269"><ele>164.0</ele><time>2026-04-09T14:38:42Z</time></trkpt><trkpt lat="45.07255074137673" lon="8.298066977141351"><ele>162.0</ele><time>2026-04-09T14:38:43Z</time></trkpt><trkpt lat="45.07271503285867" lon="8.298334165558835"><ele>160.0</ele><time>2026-04-09T14:38:44Z</time></trkpt><trkpt lat="45.072878824841624" lon="8.298599545908814"><ele>160.0</ele><time>2026-04-09T14:38:45Z</time></trkpt><trkpt lat="45.07304154515768" lon="8.298860951965102"><ele>160.0</ele><time>2026-04-09T14:38:46Z</time></trkpt><trkpt lat="45.073196551807584" lon="8.299112653185102"><ele>160.33333333333334</ele><time>2026-04-09T14:38:47Z</time></trkpt><trkpt lat="45.07334450046591" lon="8.299353763911574"><ele>160.66666666666666</ele><time>2026-04-09T14:38:48Z</time></trkpt><trkpt lat="45.07348687784796" lon="8.29958584010449"><ele>161.0</ele><time>2026-04-09T14:38:49Z</time></trkpt><trkpt lat="45.07362793048766" lon="8.299821538325315"><ele>162.0</ele><time>2026-04-09T14:38:50Z</time></trkpt><trkpt lat="45.0737634335824" lon="8.300049316416846"><ele>163.0</ele><time>2026-04-09T14:38:51Z</time></trkpt><trkpt lat="45.07389847797097" lon="8.30027939387506"><ele>164.0</ele><time>2026-04-09T14:38:52Z</time></trkpt><trkpt lat="45.0740287498146" lon="8.300500325353736"><ele>162.33333333333331</ele><time>2026-04-09T14:38:53Z</time></trkpt><trkpt lat="45.07415828453095" lon="8.300710711606914"><ele>160.66666666666666</ele><time>2026-04-09T14:38:54Z</time></trkpt><trkpt lat="45.074287537794376" lon="8.300916413311752"><ele>159.0</ele><time>2026-04-09T14:38:55Z</time></trkpt><trkpt lat="45.07441550374122" lon="8.301114040360156"><ele>159.0</ele><time>2026-04-09T14:38:56Z</time></trkpt><trkpt lat="45.074542995584984" lon="8.30131154941065"><ele>159.0</ele><time>2026-04-09T14:38:57Z</time></trkpt><trkpt lat="45.074666919007115" lon="8.30150720566815"><ele>159.0</ele><time>2026-04-09T14:38:58Z</time></trkpt><trkpt lat="45.07478694950746" lon="8.301701313594643"><ele>159.0</ele><time>2026-04-09T14:38:59Z</time></trkpt><trkpt lat="45.074914176807866" lon="8.301885594608931"><ele>159.0</ele><time>2026-04-09T14:39:00Z</time></trkpt><trkpt lat="45.07504610773806" lon="8.302080750463501"><ele>159.0</ele><time>2026-04-09T14:39:01Z</time></trkpt><trkpt lat="45.075175330632725" lon="8.302291228371299"><ele>159.33333333333334</ele><time>2026-04-09T14:39:02Z</time></trkpt><trkpt lat="45.07530395640315" lon="8.302512204372793"><ele>159.66666666666669</ele><time>2026-04-09T14:39:03Z</time></trkpt><trkpt lat="45.07543556822331" lon="8.302741895417455"><ele>160.0</ele><time>2026-04-09T14:39:04Z</time></trkpt><trkpt lat="45.07557115339869" lon="8.30297804634582"><ele>159.66666666666669</ele><time>2026-04-09T14:39:05Z</time></trkpt><trkpt lat="45.07571094118464" lon="8.303217396279424"><ele>159.33333333333334</ele><time>2026-04-09T14:39:06Z</time></trkpt><trkpt lat="45.07585326112561" lon="8.303456049721579"><ele>159.0</ele><time>2026-04-09T14:39:07Z</time></trkpt><trkpt lat="45.07599783694009" lon="8.303688581039438"><ele>159.66666666666666</ele><time>2026-04-09T14:39:08Z</time></trkpt><trkpt lat="45.07614053038088" lon="8.30391897596225"><ele>160.33333333333331</ele><time>2026-04-09T14:39:09Z</time></trkpt><trkpt lat="45.07628192215878" lon="8.304139478673319"><ele>161.0</ele><time>2026-04-09T14:39:10Z</time></trkpt><trkpt lat="45.07641373293987" lon="8.304352832690604"><ele>161.0</ele><time>2026-04-09T14:39:11Z</time></trkpt><trkpt lat="45.07654371010689" lon="8.30456441911434"><ele>161.0</ele><time>2026-04-09T14:39:12Z</time></trkpt><trkpt lat="45.07666488074895" lon="8.304768679007656"><ele>161.0</ele><time>2026-04-09T14:39:13Z</time></trkpt><trkpt lat="45.07678632946901" lon="8.304965448868423"><ele>160.33333333333331</ele><time>2026-04-09T14:39:14Z</time></trkpt><trkpt lat="45.0769161926357" lon="8.305155580779248"><ele>159.66666666666666</ele><time>2026-04-09T14:39:15Z</time></trkpt><trkpt lat="45.077048846852" lon="8.305350349998552"><ele>159.0</ele><time>2026-04-09T14:39:16Z</time></trkpt><trkpt lat="45.07718154748415" lon="8.305555427747771"><ele>158.66666666666666</ele><time>2026-04-09T14:39:17Z</time></trkpt><trkpt lat="45.07730610285316" lon="8.30576221771217"><ele>158.33333333333331</ele><time>2026-04-09T14:39:18Z</time></trkpt><trkpt lat="45.07746236590354" lon="8.305966536137452"><ele>158.0</ele><time>2026-04-09T14:39:19Z</time></trkpt><trkpt lat="45.07762151225004" lon="8.306152639904619"><ele>158.0</ele><time>2026-04-09T14:39:20Z</time></trkpt><trkpt lat="45.0777954673626" lon="8.306322466394604"><ele>158.0</ele><time>2026-04-09T14:39:21Z</time></trkpt><trkpt lat="45.07798086561056" lon="8.306478039369681"><ele>158.0</ele><time>2026-04-09T14:39:22Z</time></trkpt><trkpt lat="45.07817446505565" lon="8.306618915757635"><ele>157.33333333333331</ele><time>2026-04-09T14:39:23Z</time></trkpt><trkpt lat="45.07837702430273" lon="8.306743896717231"><ele>156.66666666666666</ele><time>2026-04-09T14:39:24Z</time></trkpt><trkpt lat="45.078587783399634" lon="8.30685275139299"><ele>156.0</ele><time>2026-04-09T14:39:25Z</time></trkpt><trkpt lat="45.078803779001575" lon="8.306953871711324"><ele>156.0</ele><time>2026-04-09T14:39:26Z</time></trkpt><trkpt lat="45.07902226951909" lon="8.307053479349255"><ele>156.0</ele><time>2026-04-09T14:39:27Z</time></trkpt><trkpt lat="45.07923421226262" lon="8.307148644295507"><ele>156.5</ele><time>2026-04-09T14:39:28Z</time></trkpt><trkpt lat="45.07944841017366" lon="8.307246060888442"><ele>157.0</ele><time>2026-04-09T14:39:29Z</time></trkpt><trkpt lat="45.079663986336236" lon="8.307344668823625"><ele>157.0</ele><time>2026-04-09T14:39:30Z</time></trkpt><trkpt lat="45.07987912576524" lon="8.307444690991977"><ele>157.0</ele><time>2026-04-09T14:39:31Z</time></trkpt><trkpt lat="45.08009460071174" lon="8.307541352514432"><ele>159.0</ele><time>2026-04-09T14:39:32Z</time></trkpt><trkpt lat="45.08031008500248" lon="8.307636200977814"><ele>161.0</ele><time>2026-04-09T14:39:33Z</time></trkpt><trkpt lat="45.08052555653345" lon="8.307730431679285"><ele>161.0</ele><time>2026-04-09T14:39:34Z</time></trkpt><trkpt lat="45.08074173382431" lon="8.307824883539087"><ele>161.0</ele><time>2026-04-09T14:39:35Z</time></trkpt><trkpt lat="45.080957763891256" lon="8.307921736249693"><ele>161.0</ele><time>2026-04-09T14:39:36Z</time></trkpt><trkpt lat="45.081175269044216" lon="8.308020470106161"><ele>161.0</ele><time>2026-04-09T14:39:37Z</time></trkpt><trkpt lat="45.081394147669634" lon="8.308117821092237"><ele>159.5</ele><time>2026-04-09T14:39:38Z</time></trkpt><trkpt lat="45.08161431145832" lon="8.308213938646121"><ele>158.0</ele><time>2026-04-09T14:39:39Z</time></trkpt><trkpt lat="45.08183395009755" lon="8.308311641708386"><ele>158.0</ele><time>2026-04-09T14:39:40Z</time></trkpt><trkpt lat="45.08205588674868" lon="8.30841033299352"><ele>158.0</ele><time>2026-04-09T14:39:41Z</time></trkpt><trkpt lat="45.08227777839223" lon="8.308508274993736"><ele>156.5</ele><time>2026-04-09T14:39:42Z</time></trkpt><trkpt lat="45.08250243477368" lon="8.308606908624826"><ele>155.0</ele><time>2026-04-09T14:39:43Z</time></trkpt><trkpt lat="45.082727430687214" lon="8.308706956108765"><ele>155.0</ele><time>2026-04-09T14:39:44Z</time></trkpt><trkpt lat="45.082953006483905" lon="8.308809003115094"><ele>155.0</ele><time>2026-04-09T14:39:45Z</time></trkpt><trkpt lat="45.083179815484506" lon="8.30891226836595"><ele>155.5</ele><time>2026-04-09T14:39:46Z</time></trkpt><trkpt lat="45.08340854692988" lon="8.309015812871982"><ele>156.0</ele><time>2026-04-09T14:39:47Z</time></trkpt><trkpt lat="45.08363765214464" lon="8.309117586731297"><ele>156.0</ele><time>2026-04-09T14:39:48Z</time></trkpt><trkpt lat="45.0838692134124" lon="8.309218805283713"><ele>156.0</ele><time>2026-04-09T14:39:49Z</time></trkpt><trkpt lat="45.084100945544044" lon="8.309321914977234"><ele>154.5</ele><time>2026-04-09T14:39:50Z</time></trkpt><trkpt lat="45.08433224614063" lon="8.309423974027057"><ele>153.0</ele><time>2026-04-09T14:39:51Z</time></trkpt><trkpt lat="45.084564564747744" lon="8.309526349022391"><ele>153.0</ele><time>2026-04-09T14:39:52Z</time></trkpt><trkpt lat="45.084796632497465" lon="8.309627169362194"><ele>153.0</ele><time>2026-04-09T14:39:53Z</time></trkpt><trkpt lat="45.08502844739286" lon="8.309727327091355"><ele>155.0</ele><time>2026-04-09T14:39:54Z</time></trkpt><trkpt lat="45.08526017525802" lon="8.30983063468949"><ele>157.0</ele><time>2026-04-09T14:39:55Z</time></trkpt><trkpt lat="45.08549069706493" lon="8.309936687563097"><ele>157.0</ele><time>2026-04-09T14:39:56Z</time></trkpt><trkpt lat="45.08572094583038" lon="8.310041944994616"><ele>157.0</ele><time>2026-04-09T14:39:57Z</time></trkpt><trkpt lat="45.08594989059293" lon="8.3101413300792"><ele>157.0</ele><time>2026-04-09T14:39:58Z</time></trkpt><trkpt lat="45.086182005532436" lon="8.31023217609147"><ele>157.0</ele><time>2026-04-09T14:39:59Z</time></trkpt><trkpt lat="45.08641518921858" lon="8.310304706071324"><ele>156.0</ele><time>2026-04-09T14:40:00Z</time></trkpt><trkpt lat="45.08665104929306" lon="8.310361866075388"><ele>155.0</ele><time>2026-04-09T14:40:01Z</time></trkpt><trkpt lat="45.086887864884105" lon="8.310399568741342"><ele>155.0</ele><time>2026-04-09T14:40:02Z</time></trkpt><trkpt lat="45.087126567207825" lon="8.31042127551615"><ele>155.0</ele><time>2026-04-09T14:40:03Z</time></trkpt><trkpt lat="45.087363546917665" lon="8.310426244568168"><ele>154.0</ele><time>2026-04-09T14:40:04Z</time></trkpt><trkpt lat="45.08760144304285" lon="8.310419368909619"><ele>153.0</ele><time>2026-04-09T14:40:05Z</time></trkpt><trkpt lat="45.08784056480263" lon="8.310403779494438"><ele>153.0</ele><time>2026-04-09T14:40:06Z</time></trkpt><trkpt lat="45.08807689307044" lon="8.310382728757896"><ele>153.0</ele><time>2026-04-09T14:40:07Z</time></trkpt><trkpt lat="45.08831439337592" lon="8.31035759991228"><ele>153.5</ele><time>2026-04-09T14:40:08Z</time></trkpt><trkpt lat="45.088552044641624" lon="8.310332678605729"><ele>154.0</ele><time>2026-04-09T14:40:09Z</time></trkpt><trkpt lat="45.08879062239643" lon="8.31030914303353"><ele>154.0</ele><time>2026-04-09T14:40:10Z</time></trkpt><trkpt lat="45.089030935860926" lon="8.310285266696088"><ele>154.0</ele><time>2026-04-09T14:40:11Z</time></trkpt><trkpt lat="45.08927240215796" lon="8.310260141574904"><ele>154.0</ele><time>2026-04-09T14:40:12Z</time></trkpt><trkpt lat="45.0895137136235" lon="8.31023452975999"><ele>154.0</ele><time>2026-04-09T14:40:13Z</time></trkpt><trkpt lat="45.08975669357147" lon="8.310209946184214"><ele>152.0</ele><time>2026-04-09T14:40:14Z</time></trkpt><trkpt lat="45.09000137360699" lon="8.310186358265582"><ele>150.0</ele><time>2026-04-09T14:40:15Z</time></trkpt><trkpt lat="45.09024799723073" lon="8.31016153003793"><ele>150.0</ele><time>2026-04-09T14:40:16Z</time></trkpt><trkpt lat="45.090495953445654" lon="8.310135332503913"><ele>150.0</ele><time>2026-04-09T14:40:17Z</time></trkpt><trkpt lat="45.090743420522735" lon="8.310107725533745"><ele>150.0</ele><time>2026-04-09T14:40:18Z</time></trkpt><trkpt lat="45.09099181046876" lon="8.310080531266106"><ele>150.0</ele><time>2026-04-09T14:40:19Z</time></trkpt><trkpt lat="45.09124079023591" lon="8.310055663416058"><ele>150.0</ele><time>2026-04-09T14:40:20Z</time></trkpt><trkpt lat="45.09148902816867" lon="8.310030007848303"><ele>150.0</ele><time>2026-04-09T14:40:21Z</time></trkpt><trkpt lat="45.09173751660611" lon="8.310003062838586"><ele>151.0</ele><time>2026-04-09T14:40:22Z</time></trkpt><trkpt lat="45.09198694699717" lon="8.30997712125982"><ele>152.0</ele><time>2026-04-09T14:40:23Z</time></trkpt><trkpt lat="45.09223649441169" lon="8.309953402064956"><ele>151.5</ele><time>2026-04-09T14:40:24Z</time></trkpt><trkpt lat="45.09248554828389" lon="8.309930133915714"><ele>151.0</ele><time>2026-04-09T14:40:25Z</time></trkpt><trkpt lat="45.09273480977748" lon="8.309906140050874"><ele>151.0</ele><time>2026-04-09T14:40:26Z</time></trkpt><trkpt lat="45.092984095185074" lon="8.30988153327483"><ele>151.0</ele><time>2026-04-09T14:40:27Z</time></trkpt><trkpt lat="45.09323236681427" lon="8.309860259101129"><ele>150.0</ele><time>2026-04-09T14:40:28Z</time></trkpt><trkpt lat="45.09348018649476" lon="8.309844985754783"><ele>149.0</ele><time>2026-04-09T14:40:29Z</time></trkpt><trkpt lat="45.09372936535957" lon="8.309837334417923"><ele>149.0</ele><time>2026-04-09T14:40:30Z</time></trkpt><trkpt lat="45.093978638303255" lon="8.309839525236423"><ele>149.0</ele><time>2026-04-09T14:40:31Z</time></trkpt><trkpt lat="45.094223452120175" lon="8.309857077602636"><ele>149.5</ele><time>2026-04-09T14:40:32Z</time></trkpt><trkpt lat="45.09446356293591" lon="8.309888624072446"><ele>150.0</ele><time>2026-04-09T14:40:33Z</time></trkpt><trkpt lat="45.09470347173248" lon="8.30992947056436"><ele>151.0</ele><time>2026-04-09T14:40:34Z</time></trkpt><trkpt lat="45.09493900736106" lon="8.309979486933756"><ele>152.0</ele><time>2026-04-09T14:40:35Z</time></trkpt><trkpt lat="45.09517383434477" lon="8.310026155663802"><ele>152.0</ele><time>2026-04-09T14:40:36Z</time></trkpt><trkpt lat="45.095408080196066" lon="8.310071174263294"><ele>152.0</ele><time>2026-04-09T14:40:37Z</time></trkpt><trkpt lat="45.09563806952248" lon="8.31011650597483"><ele>152.5</ele><time>2026-04-09T14:40:38Z</time></trkpt><trkpt lat="45.09586908581061" lon="8.310162044243985"><ele>153.0</ele><time>2026-04-09T14:40:39Z</time></trkpt><trkpt lat="45.09609990796821" lon="8.310207902025473"><ele>153.0</ele><time>2026-04-09T14:40:40Z</time></trkpt><trkpt lat="45.09632974847759" lon="8.310255006352811"><ele>153.0</ele><time>2026-04-09T14:40:41Z</time></trkpt><trkpt lat="45.096558552192796" lon="8.310300558964501"><ele>153.0</ele><time>2026-04-09T14:40:42Z</time></trkpt><trkpt lat="45.09678625541759" lon="8.310346837088069"><ele>153.0</ele><time>2026-04-09T14:40:43Z</time></trkpt><trkpt lat="45.097011490751115" lon="8.310393747702081"><ele>153.0</ele><time>2026-04-09T14:40:44Z</time></trkpt><trkpt lat="45.09723304971218" lon="8.31043651507106"><ele>153.0</ele><time>2026-04-09T14:40:45Z</time></trkpt><trkpt lat="45.097454032243846" lon="8.31047593981396"><ele>153.0</ele><time>2026-04-09T14:40:46Z</time></trkpt><trkpt lat="45.09767378592848" lon="8.310509507128382"><ele>153.0</ele><time>2026-04-09T14:40:47Z</time></trkpt><trkpt lat="45.09789470750587" lon="8.31053499091482"><ele>153.0</ele><time>2026-04-09T14:40:48Z</time></trkpt><trkpt lat="45.09811537030978" lon="8.310549077341182"><ele>153.0</ele><time>2026-04-09T14:40:49Z</time></trkpt><trkpt lat="45.09833503898793" lon="8.310548145524958"><ele>155.33333333333334</ele><time>2026-04-09T14:40:50Z</time></trkpt><trkpt lat="45.098553470807516" lon="8.310531858610945"><ele>157.66666666666669</ele><time>2026-04-09T14:40:51Z</time></trkpt><trkpt lat="45.09877128635989" lon="8.31050093211248"><ele>160.0</ele><time>2026-04-09T14:40:52Z</time></trkpt><trkpt lat="45.09899004191097" lon="8.310453409377141"><ele>160.66666666666669</ele><time>2026-04-09T14:40:53Z</time></trkpt><trkpt lat="45.09920763388715" lon="8.31039365593631"><ele>161.33333333333334</ele><time>2026-04-09T14:40:54Z</time></trkpt><trkpt lat="45.099425989173895" lon="8.310328866990265"><ele>162.0</ele><time>2026-04-09T14:40:55Z</time></trkpt><trkpt lat="45.09964608831246" lon="8.310264832045455"><ele>162.0</ele><time>2026-04-09T14:40:56Z</time></trkpt><trkpt lat="45.0998665153476" lon="8.310206543186577"><ele>162.0</ele><time>2026-04-09T14:40:57Z</time></trkpt><trkpt lat="45.10009072421011" lon="8.310149567983165"><ele>162.5</ele><time>2026-04-09T14:40:58Z</time></trkpt><trkpt lat="45.10031691433758" lon="8.31009629482795"><ele>163.0</ele><time>2026-04-09T14:40:59Z</time></trkpt><trkpt lat="45.100546508348025" lon="8.31004999887551"><ele>163.0</ele><time>2026-04-09T14:41:00Z</time></trkpt><trkpt lat="45.10078236578365" lon="8.310018656792112"><ele>163.0</ele><time>2026-04-09T14:41:01Z</time></trkpt><trkpt lat="45.101019830117075" lon="8.310009574630554"><ele>163.0</ele><time>2026-04-09T14:41:02Z</time></trkpt><trkpt lat="45.10125828776978" lon="8.310020768945174"><ele>163.0</ele><time>2026-04-09T14:41:03Z</time></trkpt><trkpt lat="45.101498104681916" lon="8.310054646482975"><ele>159.0</ele><time>2026-04-09T14:41:04Z</time></trkpt><trkpt lat="45.10173705861854" lon="8.31011359452427"><ele>155.0</ele><time>2026-04-09T14:41:05Z</time></trkpt><trkpt lat="45.10197405312523" lon="8.310200912514416"><ele>155.0</ele><time>2026-04-09T14:41:06Z</time></trkpt><trkpt lat="45.10220726291968" lon="8.310313248165956"><ele>155.0</ele><time>2026-04-09T14:41:07Z</time></trkpt><trkpt lat="45.10243662758331" lon="8.310446194013517"><ele>152.0</ele><time>2026-04-09T14:41:08Z</time></trkpt><trkpt lat="45.10266135036269" lon="8.310596990746285"><ele>149.0</ele><time>2026-04-09T14:41:09Z</time></trkpt><trkpt lat="45.102879426318644" lon="8.310767459994583"><ele>149.0</ele><time>2026-04-09T14:41:10Z</time></trkpt><trkpt lat="45.103090588612766" lon="8.31095808925956"><ele>149.0</ele><time>2026-04-09T14:41:11Z</time></trkpt><trkpt lat="45.10330141631138" lon="8.311154574153436"><ele>146.5</ele><time>2026-04-09T14:41:12Z</time></trkpt><trkpt lat="45.10350724245295" lon="8.311364383694565"><ele>144.0</ele><time>2026-04-09T14:41:13Z</time></trkpt><trkpt lat="45.103713353418996" lon="8.311573132098463"><ele>144.0</ele><time>2026-04-09T14:41:14Z</time></trkpt><trkpt lat="45.103920951115725" lon="8.311783468469985"><ele>144.0</ele><time>2026-04-09T14:41:15Z</time></trkpt><trkpt lat="45.104130017074546" lon="8.31199257301801"><ele>144.0</ele><time>2026-04-09T14:41:16Z</time></trkpt><trkpt lat="45.104340614893715" lon="8.312202299175864"><ele>144.0</ele><time>2026-04-09T14:41:17Z</time></trkpt><trkpt lat="45.10455211901609" lon="8.312414014785478"><ele>144.0</ele><time>2026-04-09T14:41:18Z</time></trkpt><trkpt lat="45.104764619299914" lon="8.312625458403566"><ele>144.0</ele><time>2026-04-09T14:41:19Z</time></trkpt><trkpt lat="45.1049775838079" lon="8.312839061963869"><ele>142.5</ele><time>2026-04-09T14:41:20Z</time></trkpt><trkpt lat="45.10518999728301" lon="8.31305173058206"><ele>141.0</ele><time>2026-04-09T14:41:21Z</time></trkpt><trkpt lat="45.10540300229308" lon="8.31326562241264"><ele>141.0</ele><time>2026-04-09T14:41:22Z</time></trkpt><trkpt lat="45.10561420088296" lon="8.313481369430056"><ele>141.0</ele><time>2026-04-09T14:41:23Z</time></trkpt><trkpt lat="45.10582599659587" lon="8.313697544446532"><ele>141.0</ele><time>2026-04-09T14:41:24Z</time></trkpt><trkpt lat="45.106036807179045" lon="8.313913677399244"><ele>141.0</ele><time>2026-04-09T14:41:25Z</time></trkpt><trkpt lat="45.10624618538007" lon="8.314126301473191"><ele>141.0</ele><time>2026-04-09T14:41:26Z</time></trkpt><trkpt lat="45.106455885532064" lon="8.314337038783352"><ele>141.0</ele><time>2026-04-09T14:41:27Z</time></trkpt><trkpt lat="45.10666652748994" lon="8.314546157990973"><ele>140.0</ele><time>2026-04-09T14:41:28Z</time></trkpt><trkpt lat="45.10687692553353" lon="8.31475476731009"><ele>139.0</ele><time>2026-04-09T14:41:29Z</time></trkpt><trkpt lat="45.107086678314374" lon="8.314962474787418"><ele>139.0</ele><time>2026-04-09T14:41:30Z</time></trkpt><trkpt lat="45.107295417373706" lon="8.315171232507724"><ele>139.0</ele><time>2026-04-09T14:41:31Z</time></trkpt><trkpt lat="45.107503758981565" lon="8.31537986073944"><ele>139.5</ele><time>2026-04-09T14:41:32Z</time></trkpt><trkpt lat="45.10771180647412" lon="8.315587485711253"><ele>140.0</ele><time>2026-04-09T14:41:33Z</time></trkpt><trkpt lat="45.10791891217174" lon="8.315795168755905"><ele>140.0</ele><time>2026-04-09T14:41:34Z</time></trkpt><trkpt lat="45.10812569100348" lon="8.316002803594198"><ele>140.0</ele><time>2026-04-09T14:41:35Z</time></trkpt><trkpt lat="45.10833156148197" lon="8.316209421644798"><ele>138.5</ele><time>2026-04-09T14:41:36Z</time></trkpt><trkpt lat="45.108538631325054" lon="8.3164167029664"><ele>137.0</ele><time>2026-04-09T14:41:37Z</time></trkpt><trkpt lat="45.10874261808117" lon="8.316621275401873"><ele>137.0</ele><time>2026-04-09T14:41:38Z</time></trkpt><trkpt lat="45.10894724835029" lon="8.316824869907071"><ele>137.0</ele><time>2026-04-09T14:41:39Z</time></trkpt><trkpt lat="45.10915212193345" lon="8.317027360097075"><ele>137.0</ele><time>2026-04-09T14:41:40Z</time></trkpt><trkpt lat="45.109356665673985" lon="8.317228644056716"><ele>137.0</ele><time>2026-04-09T14:41:41Z</time></trkpt><trkpt lat="45.109560362004856" lon="8.31742973074763"><ele>137.5</ele><time>2026-04-09T14:41:42Z</time></trkpt><trkpt lat="45.109761510237405" lon="8.317628832038547"><ele>138.0</ele><time>2026-04-09T14:41:43Z</time></trkpt><trkpt lat="45.10996245850153" lon="8.317827098399492"><ele>138.5</ele><time>2026-04-09T14:41:44Z</time></trkpt><trkpt lat="45.11016159480353" lon="8.318025404844043"><ele>139.0</ele><time>2026-04-09T14:41:45Z</time></trkpt><trkpt lat="45.11036095100024" lon="8.3182260991863"><ele>139.5</ele><time>2026-04-09T14:41:46Z</time></trkpt><trkpt lat="45.11055953842025" lon="8.318425884128267"><ele>140.0</ele><time>2026-04-09T14:41:47Z</time></trkpt><trkpt lat="45.11075854970937" lon="8.318625386757786"><ele>140.0</ele><time>2026-04-09T14:41:48Z</time></trkpt><trkpt lat="45.110955644862784" lon="8.318822468461805"><ele>140.0</ele><time>2026-04-09T14:41:49Z</time></trkpt><trkpt lat="45.111152879438094" lon="8.31901861430345"><ele>140.5</ele><time>2026-04-09T14:41:50Z</time></trkpt><trkpt lat="45.1113517460012" lon="8.319211742165916"><ele>141.0</ele><time>2026-04-09T14:41:51Z</time></trkpt><trkpt lat="45.11154960377642" lon="8.319403641289924"><ele>139.5</ele><time>2026-04-09T14:41:52Z</time></trkpt><trkpt lat="45.11174758591403" lon="8.319594179585197"><ele>138.0</ele><time>2026-04-09T14:41:53Z</time></trkpt><trkpt lat="45.111946739303534" lon="8.319782916621282"><ele>138.0</ele><time>2026-04-09T14:41:54.001Z</time></trkpt><trkpt lat="45.11214564640302" lon="8.319971119227255"><ele>138.0</ele><time>2026-04-09T14:41:55.001Z</time></trkpt><trkpt lat="45.112344808175244" lon="8.320158993131455"><ele>139.0</ele><time>2026-04-09T14:41:56.001Z</time></trkpt><trkpt lat="45.11254366872601" lon="8.320346642215165"><ele>140.0</ele><time>2026-04-09T14:41:57.001Z</time></trkpt><trkpt lat="45.112741423224584" lon="8.320532338771823"><ele>139.5</ele><time>2026-04-09T14:41:58.001Z</time></trkpt><trkpt lat="45.11293993801302" lon="8.320717689339627"><ele>139.0</ele><time>2026-04-09T14:41:59.001Z</time></trkpt><trkpt lat="45.11313785563708" lon="8.320900632384118"><ele>139.5</ele><time>2026-04-09T14:42:00.001Z</time></trkpt><trkpt lat="45.113336602309936" lon="8.321084196431864"><ele>140.0</ele><time>2026-04-09T14:42:01.001Z</time></trkpt><trkpt lat="45.113530562573125" lon="8.321272727493428"><ele>139.5</ele><time>2026-04-09T14:42:02.001Z</time></trkpt><trkpt lat="45.113729220235754" lon="8.321455159220381"><ele>139.0</ele><time>2026-04-09T14:42:03.001Z</time></trkpt><trkpt lat="45.113925800134425" lon="8.321637364951588"><ele>137.0</ele><time>2026-04-09T14:42:04.001Z</time></trkpt><trkpt lat="45.114121990662866" lon="8.321818542339532"><ele>135.0</ele><time>2026-04-09T14:42:05.001Z</time></trkpt><trkpt lat="45.11431708398996" lon="8.322000138561277"><ele>135.0</ele><time>2026-04-09T14:42:06.001Z</time></trkpt><trkpt lat="45.11451208354603" lon="8.322182002968928"><ele>135.0</ele><time>2026-04-09T14:42:07.001Z</time></trkpt><trkpt lat="45.11470664564277" lon="8.32236398878377"><ele>135.0</ele><time>2026-04-09T14:42:08.001Z</time></trkpt><trkpt lat="45.114900448058336" lon="8.32254411394083"><ele>135.0</ele><time>2026-04-09T14:42:09.001Z</time></trkpt><trkpt lat="45.11509418257137" lon="8.322723432579194"><ele>135.0</ele><time>2026-04-09T14:42:10.001Z</time></trkpt><trkpt lat="45.11528739400699" lon="8.322901810373365"><ele>135.0</ele><time>2026-04-09T14:42:11.001Z</time></trkpt><trkpt lat="45.11548077116936" lon="8.32307959687804"><ele>135.0</ele><time>2026-04-09T14:42:12.001Z</time></trkpt><trkpt lat="45.11567332065703" lon="8.323257594879376"><ele>135.0</ele><time>2026-04-09T14:42:13.001Z</time></trkpt><trkpt lat="45.11586515403734" lon="8.323435226870899"><ele>135.0</ele><time>2026-04-09T14:42:14.001Z</time></trkpt><trkpt lat="45.11605616430618" lon="8.323613731499456"><ele>135.0</ele><time>2026-04-09T14:42:15.001Z</time></trkpt><trkpt lat="45.11624567685859" lon="8.323792627548341"><ele>134.5</ele><time>2026-04-09T14:42:16.001Z</time></trkpt><trkpt lat="45.11643356389603" lon="8.32396909716968"><ele>134.0</ele><time>2026-04-09T14:42:17Z</time></trkpt><trkpt lat="45.116620871225564" lon="8.324144565767174"><ele>134.66666666666666</ele><time>2026-04-09T14:42:18Z</time></trkpt><trkpt lat="45.11680737304388" lon="8.324316178913202"><ele>135.33333333333334</ele><time>2026-04-09T14:42:19Z</time></trkpt><trkpt lat="45.11699314848975" lon="8.324486913409958"><ele>136.0</ele><time>2026-04-09T14:42:20Z</time></trkpt><trkpt lat="45.117178226469434" lon="8.324658128563884"><ele>136.0</ele><time>2026-04-09T14:42:21Z</time></trkpt><trkpt lat="45.11736235990171" lon="8.324829627813507"><ele>136.0</ele><time>2026-04-09T14:42:22Z</time></trkpt><trkpt lat="45.11754412955778" lon="8.325000423966559"><ele>136.0</ele><time>2026-04-09T14:42:23Z</time></trkpt><trkpt lat="45.11772295839437" lon="8.325164086600578"><ele>136.0</ele><time>2026-04-09T14:42:24Z</time></trkpt><trkpt lat="45.11790351754065" lon="8.325328125415838"><ele>136.0</ele><time>2026-04-09T14:42:25Z</time></trkpt><trkpt lat="45.11807984887077" lon="8.325478899685711"><ele>136.0</ele><time>2026-04-09T14:42:26Z</time></trkpt><trkpt lat="45.118267486269765" lon="8.325676038883158"><ele>136.33333333333334</ele><time>2026-04-09T14:42:27Z</time></trkpt><trkpt lat="45.118443283079024" lon="8.325840023603508"><ele>136.66666666666666</ele><time>2026-04-09T14:42:28Z</time></trkpt><trkpt lat="45.11861981885817" lon="8.32600505776095"><ele>137.0</ele><time>2026-04-09T14:42:29Z</time></trkpt><trkpt lat="45.118795456852915" lon="8.326167834825464"><ele>137.0</ele><time>2026-04-09T14:42:30Z</time></trkpt><trkpt lat="45.11896799074714" lon="8.326326105391509"><ele>137.0</ele><time>2026-04-09T14:42:31Z</time></trkpt><trkpt lat="45.119139229963544" lon="8.326483415278963"><ele>137.0</ele><time>2026-04-09T14:42:32Z</time></trkpt><trkpt lat="45.11931066906229" lon="8.326640154233402"><ele>137.66666666666666</ele><time>2026-04-09T14:42:33Z</time></trkpt><trkpt lat="45.11947962613552" lon="8.326798097410313"><ele>138.33333333333334</ele><time>2026-04-09T14:42:34Z</time></trkpt><trkpt lat="45.119644583802774" lon="8.326956456107656"><ele>139.0</ele><time>2026-04-09T14:42:35Z</time></trkpt><trkpt lat="45.11981206022664" lon="8.327112758225736"><ele>140.0</ele><time>2026-04-09T14:42:36Z</time></trkpt><trkpt lat="45.1199793335979" lon="8.327267537904254"><ele>141.0</ele><time>2026-04-09T14:42:37Z</time></trkpt><trkpt lat="45.12014611848731" lon="8.327427075927817"><ele>142.0</ele><time>2026-04-09T14:42:38Z</time></trkpt><trkpt lat="45.12031006546471" lon="8.32758083797882"><ele>142.0</ele><time>2026-04-09T14:42:39Z</time></trkpt><trkpt lat="45.120463176416365" lon="8.327730747899613"><ele>142.0</ele><time>2026-04-09T14:42:40Z</time></trkpt><trkpt lat="45.12062216493749" lon="8.327876234307118"><ele>142.0</ele><time>2026-04-09T14:42:41Z</time></trkpt><trkpt lat="45.12077941921382" lon="8.328025382584281"><ele>142.0</ele><time>2026-04-09T14:42:42Z</time></trkpt><trkpt lat="45.1209311355849" lon="8.328168855633846"><ele>142.0</ele><time>2026-04-09T14:42:43Z</time></trkpt><trkpt lat="45.12108529653512" lon="8.328309445457533"><ele>142.0</ele><time>2026-04-09T14:42:44Z</time></trkpt><trkpt lat="45.12123353178065" lon="8.328449683341736"><ele>142.0</ele><time>2026-04-09T14:42:45Z</time></trkpt><trkpt lat="45.12138209522852" lon="8.328576730129019"><ele>142.0</ele><time>2026-04-09T14:42:46Z</time></trkpt><trkpt lat="45.12152413828485" lon="8.328702193880801"><ele>142.0</ele><time>2026-04-09T14:42:47Z</time></trkpt><trkpt lat="45.12166224262242" lon="8.328823332145054"><ele>141.5</ele><time>2026-04-09T14:42:48Z</time></trkpt><trkpt lat="45.121782362516186" lon="8.328935982409957"><ele>141.0</ele><time>2026-04-09T14:42:49Z</time></trkpt><trkpt lat="45.12189865990392" lon="8.329043287455827"><ele>140.5</ele><time>2026-04-09T14:42:50Z</time></trkpt><trkpt lat="45.1220003749725" lon="8.329134564653204"><ele>140.0</ele><time>2026-04-09T14:42:51Z</time></trkpt><trkpt lat="45.12209114679964" lon="8.329216718471477"><ele>140.0</ele><time>2026-04-09T14:42:52Z</time></trkpt><trkpt lat="45.12216996770974" lon="8.329283236999775"><ele>140.0</ele><time>2026-04-09T14:42:53Z</time></trkpt><trkpt lat="45.12223914670823" lon="8.329323449865841"><ele>140.0</ele><time>2026-04-09T14:42:54Z</time></trkpt><trkpt lat="45.122316271770536" lon="8.329356831525715"><ele>140.0</ele><time>2026-04-09T14:42:55Z</time></trkpt><trkpt lat="45.1223818316146" lon="8.329294390395338"><ele>140.0</ele><time>2026-04-09T14:42:56Z</time></trkpt><trkpt lat="45.122422401504195" lon="8.329209333382318"><ele>140.0</ele><time>2026-04-09T14:42:57Z</time></trkpt><trkpt lat="45.122446553225636" lon="8.329078319967504"><ele>140.0</ele><time>2026-04-09T14:42:58Z</time></trkpt><trkpt lat="45.12247251511631" lon="8.328962543088974"><ele>140.0</ele><time>2026-04-09T14:42:59Z</time></trkpt><trkpt lat="45.122531646404845" lon="8.328850420054243"><ele>140.0</ele><time>2026-04-09T14:43:00Z</time></trkpt><trkpt lat="45.122619742757934" lon="8.328770037265159"><ele>140.0</ele><time>2026-04-09T14:43:01Z</time></trkpt><trkpt lat="45.12272854774241" lon="8.32873811461714"><ele>140.0</ele><time>2026-04-09T14:43:02Z</time></trkpt><trkpt lat="45.12284164586698" lon="8.328768922370479"><ele>140.0</ele><time>2026-04-09T14:43:03Z</time></trkpt><trkpt lat="45.12294681739181" lon="8.328852796813706"><ele>140.0</ele><time>2026-04-09T14:43:04Z</time></trkpt><trkpt lat="45.12303026265105" lon="8.328983059855176"><ele>140.0</ele><time>2026-04-09T14:43:05Z</time></trkpt><trkpt lat="45.12309211860489" lon="8.32914548078611"><ele>140.0</ele><time>2026-04-09T14:43:06Z</time></trkpt><trkpt lat="45.123143084508996" lon="8.329326915827274"><ele>140.0</ele><time>2026-04-09T14:43:07Z</time></trkpt><trkpt lat="45.12320259754025" lon="8.32950424174711"><ele>140.0</ele><time>2026-04-09T14:43:08Z</time></trkpt><trkpt lat="45.123273387866355" lon="8.329678438266214"><ele>140.0</ele><time>2026-04-09T14:43:09Z</time></trkpt><trkpt lat="45.12335775640777" lon="8.329855188158191"><ele>140.0</ele><time>2026-04-09T14:43:10Z</time></trkpt><trkpt lat="45.123455466486824" lon="8.330031562552254"><ele>140.0</ele><time>2026-04-09T14:43:11Z</time></trkpt><trkpt lat="45.12356876909987" lon="8.330202164489396"><ele>140.0</ele><time>2026-04-09T14:43:12Z</time></trkpt><trkpt lat="45.123699649185845" lon="8.330367163900673"><ele>140.0</ele><time>2026-04-09T14:43:13Z</time></trkpt><trkpt lat="45.123840202816986" lon="8.33052474548626"><ele>139.66666666666666</ele><time>2026-04-09T14:43:14Z</time></trkpt><trkpt lat="45.123988039688236" lon="8.330664217040137"><ele>139.33333333333334</ele><time>2026-04-09T14:43:15Z</time></trkpt><trkpt lat="45.12414111443923" lon="8.330789694074603"><ele>139.0</ele><time>2026-04-09T14:43:16Z</time></trkpt><trkpt lat="45.124303235424975" lon="8.33090214790541"><ele>139.0</ele><time>2026-04-09T14:43:17Z</time></trkpt><trkpt lat="45.124477561859486" lon="8.330994952595274"><ele>139.0</ele><time>2026-04-09T14:43:18Z</time></trkpt><trkpt lat="45.124658790622675" lon="8.331064771632597"><ele>139.0</ele><time>2026-04-09T14:43:19Z</time></trkpt><trkpt lat="45.1248517033944" lon="8.331120168854698"><ele>138.66666666666669</ele><time>2026-04-09T14:43:20Z</time></trkpt><trkpt lat="45.125037506826196" lon="8.331179691608696"><ele>138.33333333333334</ele><time>2026-04-09T14:43:21Z</time></trkpt><trkpt lat="45.125230459309755" lon="8.33123807162227"><ele>138.0</ele><time>2026-04-09T14:43:22Z</time></trkpt><trkpt lat="45.1254179252602" lon="8.33129959427205"><ele>138.0</ele><time>2026-04-09T14:43:23Z</time></trkpt><trkpt lat="45.12560555276397" lon="8.331361792689867"><ele>138.0</ele><time>2026-04-09T14:43:24Z</time></trkpt><trkpt lat="45.12579791179382" lon="8.331427367481892"><ele>138.0</ele><time>2026-04-09T14:43:25Z</time></trkpt><trkpt lat="45.12599365019477" lon="8.331494005974347"><ele>137.33333333333334</ele><time>2026-04-09T14:43:26Z</time></trkpt><trkpt lat="45.12619266612213" lon="8.33156319288667"><ele>136.66666666666669</ele><time>2026-04-09T14:43:27Z</time></trkpt><trkpt lat="45.12639430523372" lon="8.33163328491309"><ele>136.0</ele><time>2026-04-09T14:43:28Z</time></trkpt><trkpt lat="45.12659782219092" lon="8.331700385692955"><ele>135.33333333333334</ele><time>2026-04-09T14:43:29Z</time></trkpt><trkpt lat="45.126805428808424" lon="8.331767074349258"><ele>134.66666666666666</ele><time>2026-04-09T14:43:30Z</time></trkpt><trkpt lat="45.12701439016926" lon="8.331833512638331"><ele>134.0</ele><time>2026-04-09T14:43:31Z</time></trkpt><trkpt lat="45.12722613751305" lon="8.331903531668491"><ele>135.0</ele><time>2026-04-09T14:43:32Z</time></trkpt><trkpt lat="45.12743934229399" lon="8.331974495799846"><ele>136.0</ele><time>2026-04-09T14:43:33Z</time></trkpt><trkpt lat="45.12765361166708" lon="8.332045568247233"><ele>137.0</ele><time>2026-04-09T14:43:34Z</time></trkpt><trkpt lat="45.127868554580076" lon="8.332117630893425"><ele>137.0</ele><time>2026-04-09T14:43:35Z</time></trkpt><trkpt lat="45.128077362211044" lon="8.332186959076068"><ele>137.0</ele><time>2026-04-09T14:43:36Z</time></trkpt><trkpt lat="45.12828509830039" lon="8.332253043358213"><ele>137.0</ele><time>2026-04-09T14:43:37Z</time></trkpt><trkpt lat="45.12850210435495" lon="8.332325940124726"><ele>137.0</ele><time>2026-04-09T14:43:38Z</time></trkpt><trkpt lat="45.12871419758012" lon="8.33238790591763"><ele>137.0</ele><time>2026-04-09T14:43:39Z</time></trkpt><trkpt lat="45.128932621624905" lon="8.332464368054413"><ele>137.0</ele><time>2026-04-09T14:43:40Z</time></trkpt><trkpt lat="45.12915381960268" lon="8.332542280114888"><ele>137.0</ele><time>2026-04-09T14:43:41Z</time></trkpt><trkpt lat="45.129377332815004" lon="8.332620251533788"><ele>137.0</ele><time>2026-04-09T14:43:42Z</time></trkpt><trkpt lat="45.12959912009395" lon="8.332694749945725"><ele>137.0</ele><time>2026-04-09T14:43:43Z</time></trkpt><trkpt lat="45.12982480709466" lon="8.332769397298813"><ele>137.0</ele><time>2026-04-09T14:43:44Z</time></trkpt><trkpt lat="45.13005349829031" lon="8.33284627627131"><ele>136.5</ele><time>2026-04-09T14:43:45Z</time></trkpt><trkpt lat="45.13028364919319" lon="8.33292148096661"><ele>136.0</ele><time>2026-04-09T14:43:46Z</time></trkpt><trkpt lat="45.13051321752341" lon="8.332993680537152"><ele>136.0</ele><time>2026-04-09T14:43:47Z</time></trkpt><trkpt lat="45.13074551971285" lon="8.333069408049978"><ele>136.0</ele><time>2026-04-09T14:43:48Z</time></trkpt><trkpt lat="45.130980090990356" lon="8.333146185699503"><ele>136.0</ele><time>2026-04-09T14:43:49Z</time></trkpt><trkpt lat="45.13121337650753" lon="8.333224416682313"><ele>136.0</ele><time>2026-04-09T14:43:50Z</time></trkpt><trkpt lat="45.13144893992267" lon="8.333303603019367"><ele>134.0</ele><time>2026-04-09T14:43:51Z</time></trkpt><trkpt lat="45.13168617021992" lon="8.333381413267462"><ele>132.0</ele><time>2026-04-09T14:43:52Z</time></trkpt><trkpt lat="45.131922487182244" lon="8.333461137126012"><ele>132.0</ele><time>2026-04-09T14:43:53Z</time></trkpt><trkpt lat="45.13215849603289" lon="8.333540619880537"><ele>132.0</ele><time>2026-04-09T14:43:54Z</time></trkpt><trkpt lat="45.13239319246547" lon="8.333615199787769"><ele>132.0</ele><time>2026-04-09T14:43:55Z</time></trkpt><trkpt lat="45.13262836634607" lon="8.33368916028668"><ele>132.0</ele><time>2026-04-09T14:43:56Z</time></trkpt><trkpt lat="45.132859075900974" lon="8.33376039594701"><ele>132.0</ele><time>2026-04-09T14:43:57Z</time></trkpt><trkpt lat="45.13309013905702" lon="8.333832324046721"><ele>132.0</ele><time>2026-04-09T14:43:58Z</time></trkpt><trkpt lat="45.13331788373711" lon="8.333909702030645"><ele>133.0</ele><time>2026-04-09T14:43:59Z</time></trkpt><trkpt lat="45.13354687041018" lon="8.333985200247737"><ele>134.0</ele><time>2026-04-09T14:44:00Z</time></trkpt><trkpt lat="45.13377684285545" lon="8.334064310683345"><ele>134.0</ele><time>2026-04-09T14:44:01Z</time></trkpt><trkpt lat="45.13400595171889" lon="8.334139503463224"><ele>134.0</ele><time>2026-04-09T14:44:02Z</time></trkpt><trkpt lat="45.13423410372101" lon="8.334212563185975"><ele>135.0</ele><time>2026-04-09T14:44:03Z</time></trkpt><trkpt lat="45.134463607136496" lon="8.334289395378029"><ele>136.0</ele><time>2026-04-09T14:44:04Z</time></trkpt><trkpt lat="45.13468978402847" lon="8.334365891600845"><ele>134.5</ele><time>2026-04-09T14:44:05Z</time></trkpt><trkpt lat="45.13491777943841" lon="8.334439662929386"><ele>133.0</ele><time>2026-04-09T14:44:06Z</time></trkpt><trkpt lat="45.135141745155025" lon="8.334514087335798"><ele>133.0</ele><time>2026-04-09T14:44:07Z</time></trkpt><trkpt lat="45.13536831510371" lon="8.33459150980705"><ele>133.0</ele><time>2026-04-09T14:44:08Z</time></trkpt><trkpt lat="45.135588199523426" lon="8.334665048885764"><ele>132.66666666666669</ele><time>2026-04-09T14:44:09Z</time></trkpt><trkpt lat="45.135805594501385" lon="8.334735291739738"><ele>132.33333333333334</ele><time>2026-04-09T14:44:10Z</time></trkpt><trkpt lat="45.13601467903411" lon="8.334805897452037"><ele>132.0</ele><time>2026-04-09T14:44:11Z</time></trkpt><trkpt lat="45.136217352997406" lon="8.33487692163544"><ele>132.0</ele><time>2026-04-09T14:44:12Z</time></trkpt><trkpt lat="45.136411421251346" lon="8.334942514089844"><ele>132.0</ele><time>2026-04-09T14:44:13Z</time></trkpt><trkpt lat="45.13660077366648" lon="8.335005296927815"><ele>132.0</ele><time>2026-04-09T14:44:14.001Z</time></trkpt><trkpt lat="45.136784954368096" lon="8.335065588127268"><ele>133.0</ele><time>2026-04-09T14:44:15.001Z</time></trkpt><trkpt lat="45.136970645600776" lon="8.335124265206275"><ele>134.0</ele><time>2026-04-09T14:44:16.001Z</time></trkpt><trkpt lat="45.13715531143991" lon="8.33517611437864"><ele>135.0</ele><time>2026-04-09T14:44:17.001Z</time></trkpt><trkpt lat="45.137341008414154" lon="8.335222331778072"><ele>133.33333333333334</ele><time>2026-04-09T14:44:18.001Z</time></trkpt><trkpt lat="45.137517754707424" lon="8.335261007938177"><ele>131.66666666666669</ele><time>2026-04-09T14:44:19.001Z</time></trkpt><trkpt lat="45.13769286378957" lon="8.33528797279215"><ele>130.0</ele><time>2026-04-09T14:44:20.001Z</time></trkpt><trkpt lat="45.137860735376606" lon="8.33531370433868"><ele>130.0</ele><time>2026-04-09T14:44:21.001Z</time></trkpt><trkpt lat="45.13802323046362" lon="8.335334839130272"><ele>130.0</ele><time>2026-04-09T14:44:22.001Z</time></trkpt><trkpt lat="45.13817924000688" lon="8.335353165629105"><ele>130.0</ele><time>2026-04-09T14:44:23Z</time></trkpt><trkpt lat="45.138320622289086" lon="8.335369945787583"><ele>130.25</ele><time>2026-04-09T14:44:24Z</time></trkpt><trkpt lat="45.138453777357256" lon="8.335379103905375"><ele>130.5</ele><time>2026-04-09T14:44:25Z</time></trkpt><trkpt lat="45.138583035649425" lon="8.335384868208383"><ele>130.75</ele><time>2026-04-09T14:44:26Z</time></trkpt><trkpt lat="45.13871673939451" lon="8.33539121855248"><ele>131.0</ele><time>2026-04-09T14:44:27Z</time></trkpt><trkpt lat="45.138850734728756" lon="8.335398293266664"><ele>131.0</ele><time>2026-04-09T14:44:28Z</time></trkpt><trkpt lat="45.13898761500851" lon="8.335406908752748"><ele>131.0</ele><time>2026-04-09T14:44:29Z</time></trkpt><trkpt lat="45.13912616307053" lon="8.3354174625112"><ele>131.0</ele><time>2026-04-09T14:44:30Z</time></trkpt><trkpt lat="45.13926630559119" lon="8.33542792008663"><ele>131.0</ele><time>2026-04-09T14:44:31Z</time></trkpt><trkpt lat="45.13940767946214" lon="8.335437917755462"><ele>131.75</ele><time>2026-04-09T14:44:32Z</time></trkpt><trkpt lat="45.13955327009374" lon="8.33544638268761"><ele>132.5</ele><time>2026-04-09T14:44:33Z</time></trkpt><trkpt lat="45.139700745655134" lon="8.335453433342943"><ele>133.25</ele><time>2026-04-09T14:44:34Z</time></trkpt><trkpt lat="45.139851635476965" lon="8.33546122623555"><ele>134.0</ele><time>2026-04-09T14:44:35Z</time></trkpt><trkpt lat="45.139999001364316" lon="8.335470447614625"><ele>134.25</ele><time>2026-04-09T14:44:36Z</time></trkpt><trkpt lat="45.14014511296403" lon="8.335481157920666"><ele>134.5</ele><time>2026-04-09T14:44:37Z</time></trkpt><trkpt lat="45.140286669241945" lon="8.335489221499675"><ele>134.75</ele><time>2026-04-09T14:44:38Z</time></trkpt><trkpt lat="45.14042065157179" lon="8.335502833415939"><ele>135.0</ele><time>2026-04-09T14:44:39Z</time></trkpt><trkpt lat="45.140557952146736" lon="8.335513922944815"><ele>135.0</ele><time>2026-04-09T14:44:40Z</time></trkpt><trkpt lat="45.1406859993861" lon="8.33552102582074"><ele>135.0</ele><time>2026-04-09T14:44:41Z</time></trkpt><trkpt lat="45.14081460521129" lon="8.335529106330235"><ele>135.0</ele><time>2026-04-09T14:44:42Z</time></trkpt><trkpt lat="45.14093881458059" lon="8.335536535120514"><ele>135.0</ele><time>2026-04-09T14:44:43Z</time></trkpt><trkpt lat="45.14106730494664" lon="8.335542267304458"><ele>135.25</ele><time>2026-04-09T14:44:44Z</time></trkpt><trkpt lat="45.14119551315452" lon="8.335530291611745"><ele>135.5</ele><time>2026-04-09T14:44:45Z</time></trkpt><trkpt lat="45.14132303955357" lon="8.335502740343879"><ele>135.75</ele><time>2026-04-09T14:44:46Z</time></trkpt><trkpt lat="45.141452330715325" lon="8.335452710418004"><ele>136.0</ele><time>2026-04-09T14:44:47Z</time></trkpt><trkpt lat="45.14157041062689" lon="8.335396702873119"><ele>136.4</ele><time>2026-04-09T14:44:48Z</time></trkpt><trkpt lat="45.14168227958456" lon="8.335326442684853"><ele>136.8</ele><time>2026-04-09T14:44:49Z</time></trkpt><trkpt lat="45.14179188873238" lon="8.335268659448575"><ele>137.20000000000002</ele><time>2026-04-09T14:44:50Z</time></trkpt><trkpt lat="45.14189436425636" lon="8.335210412397933"><ele>137.6</ele><time>2026-04-09T14:44:51Z</time></trkpt><trkpt lat="45.141983137328054" lon="8.335146658229604"><ele>138.0</ele><time>2026-04-09T14:44:52Z</time></trkpt><trkpt lat="45.1420614605009" lon="8.335094816120616"><ele>138.0</ele><time>2026-04-09T14:44:53Z</time></trkpt><trkpt lat="45.14212979961535" lon="8.335074823286881"><ele>138.0</ele><time>2026-04-09T14:44:54Z</time></trkpt><trkpt lat="45.142226289613376" lon="8.334983294956285"><ele>138.0</ele><time>2026-04-09T14:44:56Z</time></trkpt><trkpt lat="45.14221038300203" lon="8.334757091363665"><ele>138.0</ele><time>2026-04-09T14:44:58Z</time></trkpt><trkpt lat="45.14218999442855" lon="8.334606101560615"><ele>138.25</ele><time>2026-04-09T14:44:59Z</time></trkpt><trkpt lat="45.14214265270115" lon="8.334468599327543"><ele>138.5</ele><time>2026-04-09T14:45:00Z</time></trkpt><trkpt lat="45.142114357473574" lon="8.334306146495406"><ele>138.75</ele><time>2026-04-09T14:45:01Z</time></trkpt><trkpt lat="45.14209230221331" lon="8.33414698092135"><ele>139.0</ele><time>2026-04-09T14:45:02Z</time></trkpt><trkpt lat="45.1420594390506" lon="8.333989918537581"><ele>139.5</ele><time>2026-04-09T14:45:03Z</time></trkpt><trkpt lat="45.14202628610855" lon="8.333826132932622"><ele>140.0</ele><time>2026-04-09T14:45:04Z</time></trkpt><trkpt lat="45.141991855942656" lon="8.33365698628529"><ele>140.5</ele><time>2026-04-09T14:45:05Z</time></trkpt><trkpt lat="45.14194417081395" lon="8.333488815115622"><ele>141.0</ele><time>2026-04-09T14:45:06Z</time></trkpt><trkpt lat="45.14191818950319" lon="8.333304987033792"><ele>141.0</ele><time>2026-04-09T14:45:07Z</time></trkpt><trkpt lat="45.1418901395252" lon="8.333115841664624"><ele>141.0</ele><time>2026-04-09T14:45:08Z</time></trkpt><trkpt lat="45.14186167730938" lon="8.332929182105667"><ele>141.0</ele><time>2026-04-09T14:45:09Z</time></trkpt><trkpt lat="45.14182921870894" lon="8.332745801024405"><ele>141.0</ele><time>2026-04-09T14:45:10Z</time></trkpt><trkpt lat="45.14178816615173" lon="8.332558966991064"><ele>141.25</ele><time>2026-04-09T14:45:11Z</time></trkpt><trkpt lat="45.14175072047047" lon="8.332367064022533"><ele>141.5</ele><time>2026-04-09T14:45:12Z</time></trkpt><trkpt lat="45.14171270338931" lon="8.332167975839013"><ele>141.75</ele><time>2026-04-09T14:45:13Z</time></trkpt><trkpt lat="45.14167915798699" lon="8.331976052923373"><ele>142.0</ele><time>2026-04-09T14:45:14Z</time></trkpt><trkpt lat="45.14164756447582" lon="8.331795791412658"><ele>142.25</ele><time>2026-04-09T14:45:15Z</time></trkpt><trkpt lat="45.14162426183282" lon="8.331619897620524"><ele>142.5</ele><time>2026-04-09T14:45:16Z</time></trkpt><trkpt lat="45.141603808395935" lon="8.33145350814166"><ele>142.75</ele><time>2026-04-09T14:45:17Z</time></trkpt><trkpt lat="45.14157817176861" lon="8.331298070161239"><ele>143.0</ele><time>2026-04-09T14:45:18Z</time></trkpt><trkpt lat="45.14156251851376" lon="8.331140770950881"><ele>143.25</ele><time>2026-04-09T14:45:19Z</time></trkpt><trkpt lat="45.1415482098347" lon="8.330986535706096"><ele>143.5</ele><time>2026-04-09T14:45:20Z</time></trkpt><trkpt lat="45.14155106437015" lon="8.330821237010321"><ele>143.75</ele><time>2026-04-09T14:45:21Z</time></trkpt><trkpt lat="45.141532338503445" lon="8.330666685577308"><ele>144.0</ele><time>2026-04-09T14:45:22Z</time></trkpt><trkpt lat="45.14155211530053" lon="8.330508430034373"><ele>144.2</ele><time>2026-04-09T14:45:23Z</time></trkpt><trkpt lat="45.14159119164008" lon="8.330360923373041"><ele>144.4</ele><time>2026-04-09T14:45:24Z</time></trkpt><trkpt lat="45.141643501698354" lon="8.330221072476066"><ele>144.6</ele><time>2026-04-09T14:45:25Z</time></trkpt><trkpt lat="45.1417151389467" lon="8.330107309495718"><ele>144.8</ele><time>2026-04-09T14:45:26Z</time></trkpt><trkpt lat="45.1418039529572" lon="8.330019895009944"><ele>145.0</ele><time>2026-04-09T14:45:27Z</time></trkpt><trkpt lat="45.141896043678216" lon="8.329935925043209"><ele>145.0</ele><time>2026-04-09T14:45:28Z</time></trkpt><trkpt lat="45.141986804545866" lon="8.3298474029953"><ele>145.0</ele><time>2026-04-09T14:45:29Z</time></trkpt><trkpt lat="45.14207021194021" lon="8.32975625782113"><ele>145.0</ele><time>2026-04-09T14:45:30Z</time></trkpt><trkpt lat="45.142140384285284" lon="8.329672474256038"><ele>145.0</ele><time>2026-04-09T14:45:31Z</time></trkpt><trkpt lat="45.142194967998286" lon="8.329610315371456"><ele>145.0</ele><time>2026-04-09T14:45:32Z</time></trkpt><trkpt lat="45.14224553733346" lon="8.329502718292364"><ele>145.2</ele><time>2026-04-09T14:45:34Z</time></trkpt><trkpt lat="45.14220028108222" lon="8.329336441362383"><ele>145.4</ele><time>2026-04-09T14:45:38Z</time></trkpt><trkpt lat="45.1421523004408" lon="8.32925992684645"><ele>145.6</ele><time>2026-04-09T14:45:39Z</time></trkpt><trkpt lat="45.14209531641983" lon="8.329173629997667"><ele>145.8</ele><time>2026-04-09T14:45:40Z</time></trkpt><trkpt lat="45.14203145289768" lon="8.329076915018806"><ele>146.0</ele><time>2026-04-09T14:45:41Z</time></trkpt><trkpt lat="45.141962095368996" lon="8.328971879689686"><ele>146.0</ele><time>2026-04-09T14:45:42Z</time></trkpt><trkpt lat="45.141896692602145" lon="8.328872833501306"><ele>146.0</ele><time>2026-04-09T14:45:43Z</time></trkpt><trkpt lat="45.141825810370435" lon="8.328762207882875"><ele>146.0</ele><time>2026-04-09T14:45:44Z</time></trkpt><trkpt lat="45.14175481746814" lon="8.328645896239061"><ele>146.0</ele><time>2026-04-09T14:45:45Z</time></trkpt><trkpt lat="45.14168349390595" lon="8.328520790851545"><ele>146.0</ele><time>2026-04-09T14:45:46Z</time></trkpt><trkpt lat="45.141610337957374" lon="8.32838788421489"><ele>145.75</ele><time>2026-04-09T14:45:47Z</time></trkpt><trkpt lat="45.14153710558399" lon="8.328252399459974"><ele>145.5</ele><time>2026-04-09T14:45:48Z</time></trkpt><trkpt lat="45.14145012571012" lon="8.328126769369586"><ele>145.25</ele><time>2026-04-09T14:45:49Z</time></trkpt><trkpt lat="45.14137079162127" lon="8.327982264404936"><ele>145.0</ele><time>2026-04-09T14:45:50Z</time></trkpt><trkpt lat="45.14129421038518" lon="8.327825666364552"><ele>145.0</ele><time>2026-04-09T14:45:51Z</time></trkpt><trkpt lat="45.14121377901283" lon="8.327665335971103"><ele>145.0</ele><time>2026-04-09T14:45:52Z</time></trkpt><trkpt lat="45.14112683984505" lon="8.327502468100981"><ele>145.0</ele><time>2026-04-09T14:45:53Z</time></trkpt><trkpt lat="45.14103643534837" lon="8.327334895762721"><ele>145.0</ele><time>2026-04-09T14:45:54Z</time></trkpt><trkpt lat="45.14094665693303" lon="8.32716980779059"><ele>145.0</ele><time>2026-04-09T14:45:55Z</time></trkpt><trkpt lat="45.14085831368859" lon="8.327002482428242"><ele>145.0</ele><time>2026-04-09T14:45:56Z</time></trkpt><trkpt lat="45.140772314705835" lon="8.326830230062166"><ele>145.0</ele><time>2026-04-09T14:45:57Z</time></trkpt><trkpt lat="45.14069351644342" lon="8.326649662157365"><ele>145.0</ele><time>2026-04-09T14:45:58Z</time></trkpt><trkpt lat="45.14062225818658" lon="8.326459281544825"><ele>143.33333333333334</ele><time>2026-04-09T14:45:59Z</time></trkpt><trkpt lat="45.140583492663865" lon="8.326250187041577"><ele>141.66666666666666</ele><time>2026-04-09T14:46:00Z</time></trkpt><trkpt lat="45.140523085447" lon="8.32604764707947"><ele>140.0</ele><time>2026-04-09T14:46:01Z</time></trkpt><trkpt lat="45.14048662708285" lon="8.325829950247865"><ele>140.0</ele><time>2026-04-09T14:46:02Z</time></trkpt><trkpt lat="45.140448042969865" lon="8.325609509494441"><ele>140.0</ele><time>2026-04-09T14:46:03Z</time></trkpt><trkpt lat="45.14040840828044" lon="8.325382418517316"><ele>140.0</ele><time>2026-04-09T14:46:04Z</time></trkpt><trkpt lat="45.14036616904042" lon="8.32514978000363"><ele>140.33333333333331</ele><time>2026-04-09T14:46:05Z</time></trkpt><trkpt lat="45.14032231777432" lon="8.324919197813676"><ele>140.66666666666666</ele><time>2026-04-09T14:46:06Z</time></trkpt><trkpt lat="45.140279441114906" lon="8.324693154433747"><ele>141.0</ele><time>2026-04-09T14:46:07Z</time></trkpt><trkpt lat="45.14023561866821" lon="8.324466787724516"><ele>141.0</ele><time>2026-04-09T14:46:08Z</time></trkpt><trkpt lat="45.140201949542934" lon="8.324238513011064"><ele>141.0</ele><time>2026-04-09T14:46:09Z</time></trkpt><trkpt lat="45.140174285803475" lon="8.323997391842308"><ele>141.0</ele><time>2026-04-09T14:46:10Z</time></trkpt><trkpt lat="45.14015215516206" lon="8.323731041952193"><ele>140.33333333333334</ele><time>2026-04-09T14:46:11Z</time></trkpt><trkpt lat="45.14016070024623" lon="8.323470830043602"><ele>139.66666666666669</ele><time>2026-04-09T14:46:12Z</time></trkpt><trkpt lat="45.14015399315581" lon="8.323202368928051"><ele>139.0</ele><time>2026-04-09T14:46:13Z</time></trkpt><trkpt lat="45.1401304368484" lon="8.322924429642864"><ele>139.0</ele><time>2026-04-09T14:46:14Z</time></trkpt><trkpt lat="45.140124376596944" lon="8.322643754833724"><ele>139.0</ele><time>2026-04-09T14:46:15.001Z</time></trkpt><trkpt lat="45.140119215574835" lon="8.322355045869482"><ele>139.0</ele><time>2026-04-09T14:46:16.001Z</time></trkpt><trkpt lat="45.140111350260945" lon="8.322062441048427"><ele>139.33333333333334</ele><time>2026-04-09T14:46:17.001Z</time></trkpt><trkpt lat="45.14010185521269" lon="8.321758913694019"><ele>139.66666666666666</ele><time>2026-04-09T14:46:18.001Z</time></trkpt><trkpt lat="45.14009478916576" lon="8.32145582514173"><ele>140.0</ele><time>2026-04-09T14:46:19.001Z</time></trkpt><trkpt lat="45.14010375401676" lon="8.32115993959149"><ele>140.0</ele><time>2026-04-09T14:46:20.001Z</time></trkpt><trkpt lat="45.1400963671059" lon="8.32085879706553"><ele>140.0</ele><time>2026-04-09T14:46:21.001Z</time></trkpt><trkpt lat="45.14008983301064" lon="8.320559282589173"><ele>140.0</ele><time>2026-04-09T14:46:22.001Z</time></trkpt><trkpt lat="45.14008639068254" lon="8.320257927890589"><ele>140.0</ele><time>2026-04-09T14:46:23.001Z</time></trkpt><trkpt lat="45.14008533159913" lon="8.319949772653196"><ele>140.0</ele><time>2026-04-09T14:46:24.001Z</time></trkpt><trkpt lat="45.140088329123266" lon="8.31964111082136"><ele>140.0</ele><time>2026-04-09T14:46:25.001Z</time></trkpt><trkpt lat="45.14009755711092" lon="8.319331327244084"><ele>140.33333333333331</ele><time>2026-04-09T14:46:26.001Z</time></trkpt><trkpt lat="45.140114942404445" lon="8.31901931365626"><ele>140.66666666666666</ele><time>2026-04-09T14:46:27.001Z</time></trkpt><trkpt lat="45.14012273365483" lon="8.31870325876508"><ele>141.0</ele><time>2026-04-09T14:46:28.001Z</time></trkpt><trkpt lat="45.14015716371878" lon="8.318389680162909"><ele>142.0</ele><time>2026-04-09T14:46:29Z</time></trkpt><trkpt lat="45.14022231587681" lon="8.31808261934959"><ele>143.0</ele><time>2026-04-09T14:46:30Z</time></trkpt><trkpt lat="45.1402802886335" lon="8.317768779431589"><ele>143.0</ele><time>2026-04-09T14:46:31Z</time></trkpt><trkpt lat="45.140363974292285" lon="8.317462871343805"><ele>143.0</ele><time>2026-04-09T14:46:32Z</time></trkpt><trkpt lat="45.14045169495163" lon="8.317163133441658"><ele>144.5</ele><time>2026-04-09T14:46:33Z</time></trkpt><trkpt lat="45.14054012771711" lon="8.316859552497288"><ele>146.0</ele><time>2026-04-09T14:46:34Z</time></trkpt><trkpt lat="45.14065035931285" lon="8.31656909758416"><ele>146.0</ele><time>2026-04-09T14:46:35Z</time></trkpt><trkpt lat="45.140754032082555" lon="8.316270860919422"><ele>146.0</ele><time>2026-04-09T14:46:36Z</time></trkpt><trkpt lat="45.14085937922273" lon="8.315976052713774"><ele>146.0</ele><time>2026-04-09T14:46:37Z</time></trkpt><trkpt lat="45.14095162375213" lon="8.315667912689447"><ele>146.0</ele><time>2026-04-09T14:46:38Z</time></trkpt><trkpt lat="45.141062047880084" lon="8.31537142590622"><ele>146.0</ele><time>2026-04-09T14:46:39Z</time></trkpt><trkpt lat="45.1411663709238" lon="8.315080412615732"><ele>146.0</ele><time>2026-04-09T14:46:40Z</time></trkpt><trkpt lat="45.141266004618714" lon="8.314791422313363"><ele>146.5</ele><time>2026-04-09T14:46:41Z</time></trkpt><trkpt lat="45.141366414700805" lon="8.314499260020948"><ele>147.0</ele><time>2026-04-09T14:46:42Z</time></trkpt><trkpt lat="45.141482953405294" lon="8.314216453616735"><ele>146.5</ele><time>2026-04-09T14:46:43Z</time></trkpt><trkpt lat="45.14158715091263" lon="8.313920723778542"><ele>146.0</ele><time>2026-04-09T14:46:44Z</time></trkpt><trkpt lat="45.14169173737497" lon="8.313623890093698"><ele>146.0</ele><time>2026-04-09T14:46:45Z</time></trkpt><trkpt lat="45.1417962071179" lon="8.313327387645394"><ele>146.0</ele><time>2026-04-09T14:46:46Z</time></trkpt><trkpt lat="45.14190283123041" lon="8.313026555969115"><ele>146.0</ele><time>2026-04-09T14:46:47Z</time></trkpt><trkpt lat="45.14201038164076" lon="8.312723254492807"><ele>146.0</ele><time>2026-04-09T14:46:48Z</time></trkpt><trkpt lat="45.14211706471597" lon="8.312422398994071"><ele>145.5</ele><time>2026-04-09T14:46:49Z</time></trkpt><trkpt lat="45.14222464469412" lon="8.312119014289292"><ele>145.0</ele><time>2026-04-09T14:46:50Z</time></trkpt><trkpt lat="45.14233316930124" lon="8.311817709693841"><ele>146.5</ele><time>2026-04-09T14:46:51Z</time></trkpt><trkpt lat="45.14244955912779" lon="8.311519435358697"><ele>148.0</ele><time>2026-04-09T14:46:52Z</time></trkpt><trkpt lat="45.142556550164194" lon="8.311216760921159"><ele>148.0</ele><time>2026-04-09T14:46:53Z</time></trkpt><trkpt lat="45.14269926062292" lon="8.310946392407445"><ele>148.0</ele><time>2026-04-09T14:46:54Z</time></trkpt><trkpt lat="45.142860891943684" lon="8.310700845900325"><ele>149.0</ele><time>2026-04-09T14:46:55Z</time></trkpt><trkpt lat="45.143036447754355" lon="8.31047272556082"><ele>150.0</ele><time>2026-04-09T14:46:56Z</time></trkpt><trkpt lat="45.14322022269646" lon="8.310253809300967"><ele>151.0</ele><time>2026-04-09T14:46:57Z</time></trkpt><trkpt lat="45.14340292133967" lon="8.31003385413919"><ele>152.0</ele><time>2026-04-09T14:46:58Z</time></trkpt><trkpt lat="45.143584002382774" lon="8.309809064096394"><ele>151.0</ele><time>2026-04-09T14:46:59Z</time></trkpt><trkpt lat="45.1437759438083" lon="8.309601319750712"><ele>150.0</ele><time>2026-04-09T14:47:00Z</time></trkpt><trkpt lat="45.14395711882647" lon="8.309379879916284"><ele>153.5</ele><time>2026-04-09T14:47:01Z</time></trkpt><trkpt lat="45.14413784999183" lon="8.309158982704352"><ele>157.0</ele><time>2026-04-09T14:47:02Z</time></trkpt><trkpt lat="45.14432032103236" lon="8.308935958957743"><ele>156.5</ele><time>2026-04-09T14:47:03Z</time></trkpt><trkpt lat="45.14450228687688" lon="8.308713552654176"><ele>156.0</ele><time>2026-04-09T14:47:04Z</time></trkpt><trkpt lat="45.14467383950317" lon="8.308474338004181"><ele>156.0</ele><time>2026-04-09T14:47:05Z</time></trkpt><trkpt lat="45.14485352998912" lon="8.308255830252158"><ele>156.0</ele><time>2026-04-09T14:47:06Z</time></trkpt><trkpt lat="45.145028254230084" lon="8.308046931755145"><ele>155.0</ele><time>2026-04-09T14:47:07Z</time></trkpt><trkpt lat="45.14519079782302" lon="8.307850506202367"><ele>154.0</ele><time>2026-04-09T14:47:08Z</time></trkpt><trkpt lat="45.145337792130384" lon="8.307664359670204"><ele>153.0</ele><time>2026-04-09T14:47:09Z</time></trkpt><trkpt lat="45.145473145507715" lon="8.307483485354819"><ele>153.0</ele><time>2026-04-09T14:47:10Z</time></trkpt><trkpt lat="45.14557482587094" lon="8.307251788945532"><ele>153.0</ele><time>2026-04-09T14:47:11Z</time></trkpt><trkpt lat="45.14565182022098" lon="8.306998771569686"><ele>153.0</ele><time>2026-04-09T14:47:12Z</time></trkpt><trkpt lat="45.14572581261397" lon="8.306740899895564"><ele>153.66666666666666</ele><time>2026-04-09T14:47:13Z</time></trkpt><trkpt lat="45.1457995559174" lon="8.306480822551354"><ele>154.33333333333331</ele><time>2026-04-09T14:47:14Z</time></trkpt><trkpt lat="45.145875481162534" lon="8.306213049885134"><ele>155.0</ele><time>2026-04-09T14:47:15Z</time></trkpt><trkpt lat="45.1459531813786" lon="8.305939017277176"><ele>155.0</ele><time>2026-04-09T14:47:16Z</time></trkpt><trkpt lat="45.14601815488539" lon="8.305653234436882"><ele>155.0</ele><time>2026-04-09T14:47:17Z</time></trkpt><trkpt lat="45.146111904244556" lon="8.30538160721962"><ele>155.0</ele><time>2026-04-09T14:47:18Z</time></trkpt><trkpt lat="45.14619192302308" lon="8.305101677861973"><ele>155.0</ele><time>2026-04-09T14:47:19Z</time></trkpt><trkpt lat="45.14627376708183" lon="8.304822062101639"><ele>155.0</ele><time>2026-04-09T14:47:20Z</time></trkpt><trkpt lat="45.1463559980079" lon="8.304542358871009"><ele>155.0</ele><time>2026-04-09T14:47:21Z</time></trkpt><trkpt lat="45.14644005323997" lon="8.30426902694076"><ele>154.66666666666666</ele><time>2026-04-09T14:47:22Z</time></trkpt><trkpt lat="45.14652407432496" lon="8.303994148556955"><ele>154.33333333333334</ele><time>2026-04-09T14:47:23Z</time></trkpt><trkpt lat="45.146637075281" lon="8.303739359779991"><ele>154.0</ele><time>2026-04-09T14:47:24Z</time></trkpt><trkpt lat="45.1467626933516" lon="8.303494407614291"><ele>155.66666666666669</ele><time>2026-04-09T14:47:25Z</time></trkpt><trkpt lat="45.14690373042829" lon="8.303262151109877"><ele>157.33333333333334</ele><time>2026-04-09T14:47:26Z</time></trkpt><trkpt lat="45.14705632505436" lon="8.30304242735184"><ele>159.0</ele><time>2026-04-09T14:47:27Z</time></trkpt><trkpt lat="45.14722530708466" lon="8.302846216755583"><ele>159.0</ele><time>2026-04-09T14:47:28Z</time></trkpt><trkpt lat="45.147401610936896" lon="8.302668500130062"><ele>159.0</ele><time>2026-04-09T14:47:29Z</time></trkpt><trkpt lat="45.14758823706744" lon="8.302507844349002"><ele>159.0</ele><time>2026-04-09T14:47:30Z</time></trkpt><trkpt lat="45.14777117493533" lon="8.302354194350299"><ele>159.66666666666666</ele><time>2026-04-09T14:47:31Z</time></trkpt><trkpt lat="45.147950486955864" lon="8.302194141045216"><ele>160.33333333333331</ele><time>2026-04-09T14:47:32Z</time></trkpt><trkpt lat="45.14812696012505" lon="8.30202662656015"><ele>161.0</ele><time>2026-04-09T14:47:33Z</time></trkpt><trkpt lat="45.1483026516068" lon="8.301858978424209"><ele>160.66666666666666</ele><time>2026-04-09T14:47:34Z</time></trkpt><trkpt lat="45.14847644995706" lon="8.30169078865517"><ele>160.33333333333334</ele><time>2026-04-09T14:47:35Z</time></trkpt><trkpt lat="45.148648575070155" lon="8.301525340451242"><ele>160.0</ele><time>2026-04-09T14:47:36Z</time></trkpt><trkpt lat="45.14881216847755" lon="8.301348338480537"><ele>160.0</ele><time>2026-04-09T14:47:37Z</time></trkpt><trkpt lat="45.14896435754352" lon="8.301151644496604"><ele>160.0</ele><time>2026-04-09T14:47:38Z</time></trkpt><trkpt lat="45.14910715519398" lon="8.300941252236049"><ele>160.0</ele><time>2026-04-09T14:47:39Z</time></trkpt><trkpt lat="45.14926090481095" lon="8.30074895059605"><ele>160.33333333333334</ele><time>2026-04-09T14:47:40Z</time></trkpt><trkpt lat="45.149402859707514" lon="8.300545907951905"><ele>160.66666666666666</ele><time>2026-04-09T14:47:41Z</time></trkpt><trkpt lat="45.14953227219979" lon="8.300345779747524"><ele>161.0</ele><time>2026-04-09T14:47:42Z</time></trkpt><trkpt lat="45.14969347698735" lon="8.300218180873998"><ele>161.0</ele><time>2026-04-09T14:47:43Z</time></trkpt><trkpt lat="45.14985544473846" lon="8.300102127940805"><ele>161.0</ele><time>2026-04-09T14:47:44Z</time></trkpt><trkpt lat="45.15001134159869" lon="8.299972163220659"><ele>161.0</ele><time>2026-04-09T14:47:45Z</time></trkpt><trkpt lat="45.15015657439797" lon="8.299807909884985"><ele>162.33333333333331</ele><time>2026-04-09T14:47:46Z</time></trkpt><trkpt lat="45.15027940765198" lon="8.299600797425317"><ele>163.66666666666666</ele><time>2026-04-09T14:47:47Z</time></trkpt><trkpt lat="45.150372469313645" lon="8.299360930794075"><ele>165.0</ele><time>2026-04-09T14:47:48Z</time></trkpt><trkpt lat="45.15044569891206" lon="8.299101449926045"><ele>164.66666666666666</ele><time>2026-04-09T14:47:49Z</time></trkpt><trkpt lat="45.15051832853849" lon="8.298846852400336"><ele>164.33333333333331</ele><time>2026-04-09T14:47:50Z</time></trkpt><trkpt lat="45.15059506005379" lon="8.298604347544313"><ele>164.0</ele><time>2026-04-09T14:47:51Z</time></trkpt><trkpt lat="45.1506808154311" lon="8.298378347496861"><ele>167.0</ele><time>2026-04-09T14:47:52Z</time></trkpt><trkpt lat="45.15077910724701" lon="8.29817273135209"><ele>170.0</ele><time>2026-04-09T14:47:53Z</time></trkpt><trkpt lat="45.15088488998277" lon="8.297969664627708"><ele>173.0</ele><time>2026-04-09T14:47:54Z</time></trkpt><trkpt lat="45.1510202185362" lon="8.297802501873864"><ele>173.0</ele><time>2026-04-09T14:47:55Z</time></trkpt><trkpt lat="45.15117064175842" lon="8.297662156030077"><ele>173.0</ele><time>2026-04-09T14:47:56Z</time></trkpt><trkpt lat="45.15133871328377" lon="8.297563633617704"><ele>173.0</ele><time>2026-04-09T14:47:57Z</time></trkpt><trkpt lat="45.151515356228956" lon="8.297504783753954"><ele>174.66666666666666</ele><time>2026-04-09T14:47:58Z</time></trkpt><trkpt lat="45.15169671258961" lon="8.29748391786366"><ele>176.33333333333334</ele><time>2026-04-09T14:47:59Z</time></trkpt><trkpt lat="45.15187907065809" lon="8.297489829397858"><ele>178.0</ele><time>2026-04-09T14:48:00Z</time></trkpt><trkpt lat="45.15206285244566" lon="8.29752951742713"><ele>178.0</ele><time>2026-04-09T14:48:01Z</time></trkpt><trkpt lat="45.152241460620324" lon="8.297606310731872"><ele>178.0</ele><time>2026-04-09T14:48:02Z</time></trkpt><trkpt lat="45.15241812594542" lon="8.29769378603171"><ele>178.0</ele><time>2026-04-09T14:48:03Z</time></trkpt><trkpt lat="45.15259467204222" lon="8.297783665045651"><ele>178.0</ele><time>2026-04-09T14:48:04Z</time></trkpt><trkpt lat="45.15276672217604" lon="8.29787353440614"><ele>178.0</ele><time>2026-04-09T14:48:05Z</time></trkpt><trkpt lat="45.152926167900596" lon="8.297955807697624"><ele>178.0</ele><time>2026-04-09T14:48:06Z</time></trkpt><trkpt lat="45.15307506840357" lon="8.298019031365031"><ele>178.75</ele><time>2026-04-09T14:48:07Z</time></trkpt><trkpt lat="45.153221425165384" lon="8.298058271164994"><ele>179.5</ele><time>2026-04-09T14:48:08Z</time></trkpt><trkpt lat="45.153365516740976" lon="8.298064165613688"><ele>180.25</ele><time>2026-04-09T14:48:09Z</time></trkpt><trkpt lat="45.15351219862145" lon="8.298024709739211"><ele>181.0</ele><time>2026-04-09T14:48:10Z</time></trkpt><trkpt lat="45.15365225165359" lon="8.297943673122141"><ele>181.0</ele><time>2026-04-09T14:48:11.001Z</time></trkpt><trkpt lat="45.153779976948556" lon="8.297826043552988"><ele>181.0</ele><time>2026-04-09T14:48:12.001Z</time></trkpt><trkpt lat="45.1538904608809" lon="8.2976719217424"><ele>181.0</ele><time>2026-04-09T14:48:13.001Z</time></trkpt><trkpt lat="45.15398690615777" lon="8.297494290551018"><ele>183.66666666666669</ele><time>2026-04-09T14:48:14.001Z</time></trkpt><trkpt lat="45.15408731814105" lon="8.297320052947008"><ele>186.33333333333334</ele><time>2026-04-09T14:48:15.001Z</time></trkpt><trkpt lat="45.15419852101355" lon="8.297158046200039"><ele>189.0</ele><time>2026-04-09T14:48:16.001Z</time></trkpt><trkpt lat="45.15431050008465" lon="8.297003684180051"><ele>189.0</ele><time>2026-04-09T14:48:17.001Z</time></trkpt><trkpt lat="45.15440476396301" lon="8.296829895176652"><ele>189.0</ele><time>2026-04-09T14:48:18.001Z</time></trkpt><trkpt lat="45.154475720124815" lon="8.29662956272948"><ele>189.0</ele><time>2026-04-09T14:48:19.001Z</time></trkpt><trkpt lat="45.15452422862269" lon="8.296413615937986"><ele>188.66666666666666</ele><time>2026-04-09T14:48:20.001Z</time></trkpt><trkpt lat="45.154552995376996" lon="8.296188570009292"><ele>188.33333333333331</ele><time>2026-04-09T14:48:21.001Z</time></trkpt><trkpt lat="45.1545461376603" lon="8.29596136626146"><ele>188.0</ele><time>2026-04-09T14:48:22.001Z</time></trkpt><trkpt lat="45.15450998016696" lon="8.295740095932844"><ele>190.66666666666666</ele><time>2026-04-09T14:48:23.001Z</time></trkpt><trkpt lat="45.15444283158275" lon="8.295530093231267"><ele>193.33333333333331</ele><time>2026-04-09T14:48:24.001Z</time></trkpt><trkpt lat="45.15436104627622" lon="8.295318110951968"><ele>196.0</ele><time>2026-04-09T14:48:25.001Z</time></trkpt><trkpt lat="45.15423425422306" lon="8.295145386971344"><ele>196.0</ele><time>2026-04-09T14:48:26.001Z</time></trkpt><trkpt lat="45.154103726070346" lon="8.294990380303554"><ele>196.0</ele><time>2026-04-09T14:48:27.001Z</time></trkpt><trkpt lat="45.15397346965772" lon="8.294840279823568"><ele>196.0</ele><time>2026-04-09T14:48:28.001Z</time></trkpt><trkpt lat="45.15384972457239" lon="8.29469653829238"><ele>195.25</ele><time>2026-04-09T14:48:29.001Z</time></trkpt><trkpt lat="45.15374310093765" lon="8.294543364222475"><ele>194.5</ele><time>2026-04-09T14:48:30.001Z</time></trkpt><trkpt lat="45.1536588950802" lon="8.294373905852975"><ele>193.75</ele><time>2026-04-09T14:48:31.001Z</time></trkpt><trkpt lat="45.153602440513616" lon="8.294193351186902"><ele>193.0</ele><time>2026-04-09T14:48:32.001Z</time></trkpt><trkpt lat="45.15358327483211" lon="8.29400137028218"><ele>193.0</ele><time>2026-04-09T14:48:33.001Z</time></trkpt><trkpt lat="45.15359194269516" lon="8.29380361534386"><ele>193.0</ele><time>2026-04-09T14:48:34.001Z</time></trkpt><trkpt lat="45.153626456139826" lon="8.293599728418185"><ele>193.0</ele><time>2026-04-09T14:48:35Z</time></trkpt><trkpt lat="45.153686828018756" lon="8.293409976656397"><ele>193.0</ele><time>2026-04-09T14:48:36Z</time></trkpt><trkpt lat="45.15377086853914" lon="8.293230817119158"><ele>192.25</ele><time>2026-04-09T14:48:37Z</time></trkpt><trkpt lat="45.153876426427175" lon="8.293082398266531"><ele>191.5</ele><time>2026-04-09T14:48:38Z</time></trkpt><trkpt lat="45.15400005556956" lon="8.29297774060184"><ele>190.75</ele><time>2026-04-09T14:48:39Z</time></trkpt><trkpt lat="45.15414138089274" lon="8.292918381400108"><ele>190.0</ele><time>2026-04-09T14:48:40Z</time></trkpt><trkpt lat="45.15429224475784" lon="8.292904076624213"><ele>192.0</ele><time>2026-04-09T14:48:41Z</time></trkpt><trkpt lat="45.15445181995461" lon="8.292926075764282"><ele>194.0</ele><time>2026-04-09T14:48:42Z</time></trkpt><trkpt lat="45.154619355577836" lon="8.2929653303215"><ele>196.0</ele><time>2026-04-09T14:48:43Z</time></trkpt><trkpt lat="45.15479497253498" lon="8.293007624262438"><ele>196.33333333333331</ele><time>2026-04-09T14:48:44Z</time></trkpt><trkpt lat="45.154978523645475" lon="8.293042416192753"><ele>196.66666666666669</ele><time>2026-04-09T14:48:45Z</time></trkpt><trkpt lat="45.155168527993126" lon="8.29306216932115"><ele>197.0</ele><time>2026-04-09T14:48:46Z</time></trkpt><trkpt lat="45.15536504883273" lon="8.29306886014369"><ele>197.0</ele><time>2026-04-09T14:48:47Z</time></trkpt><trkpt lat="45.15556548215909" lon="8.293066728057559"><ele>197.0</ele><time>2026-04-09T14:48:48Z</time></trkpt><trkpt lat="45.15576627680178" lon="8.293064267801649"><ele>197.0</ele><time>2026-04-09T14:48:49Z</time></trkpt><trkpt lat="45.15596745379743" lon="8.293061153306342"><ele>198.0</ele><time>2026-04-09T14:48:50Z</time></trkpt><trkpt lat="45.15616497973546" lon="8.293058149599197"><ele>199.0</ele><time>2026-04-09T14:48:51Z</time></trkpt><trkpt lat="45.15635898343053" lon="8.293054475602627"><ele>200.0</ele><time>2026-04-09T14:48:52Z</time></trkpt><trkpt lat="45.15654540548198" lon="8.29304338090054"><ele>202.66666666666669</ele><time>2026-04-09T14:48:53Z</time></trkpt><trkpt lat="45.15672829962147" lon="8.293018850466801"><ele>205.33333333333331</ele><time>2026-04-09T14:48:54Z</time></trkpt><trkpt lat="45.156905552968325" lon="8.292949108180414"><ele>208.0</ele><time>2026-04-09T14:48:55Z</time></trkpt><trkpt lat="45.15707173870934" lon="8.292838139816178"><ele>208.0</ele><time>2026-04-09T14:48:56Z</time></trkpt><trkpt lat="45.15722676597812" lon="8.292691750134313"><ele>208.0</ele><time>2026-04-09T14:48:57Z</time></trkpt><trkpt lat="45.15738106577959" lon="8.292548815018556"><ele>208.0</ele><time>2026-04-09T14:48:58Z</time></trkpt><trkpt lat="45.15754124549086" lon="8.2924177348242"><ele>206.66666666666666</ele><time>2026-04-09T14:48:59Z</time></trkpt><trkpt lat="45.15770872035896" lon="8.292306113076856"><ele>205.33333333333331</ele><time>2026-04-09T14:49:00Z</time></trkpt><trkpt lat="45.157883066787285" lon="8.292212249736437"><ele>204.0</ele><time>2026-04-09T14:49:01Z</time></trkpt><trkpt lat="45.15805666721413" lon="8.292124293287973"><ele>206.33333333333331</ele><time>2026-04-09T14:49:02Z</time></trkpt><trkpt lat="45.15823205414436" lon="8.29203825267148"><ele>208.66666666666666</ele><time>2026-04-09T14:49:03Z</time></trkpt><trkpt lat="45.15840391246498" lon="8.291956036475868"><ele>211.0</ele><time>2026-04-09T14:49:04Z</time></trkpt><trkpt lat="45.15856210906978" lon="8.291880864105531"><ele>211.0</ele><time>2026-04-09T14:49:05Z</time></trkpt><trkpt lat="45.15871403698354" lon="8.291813244307122"><ele>211.0</ele><time>2026-04-09T14:49:06Z</time></trkpt><trkpt lat="45.15886034480868" lon="8.291763099974462"><ele>211.0</ele><time>2026-04-09T14:49:07Z</time></trkpt><trkpt lat="45.15900227641379" lon="8.29172753721463"><ele>213.25</ele><time>2026-04-09T14:49:08Z</time></trkpt><trkpt lat="45.15914065540269" lon="8.291712705349903"><ele>215.5</ele><time>2026-04-09T14:49:09Z</time></trkpt><trkpt lat="45.159265869568486" lon="8.291694374485354"><ele>217.75</ele><time>2026-04-09T14:49:10Z</time></trkpt><trkpt lat="45.15938463302355" lon="8.291676537009476"><ele>220.0</ele><time>2026-04-09T14:49:11Z</time></trkpt><trkpt lat="45.15948954462085" lon="8.29167267457858"><ele>220.0</ele><time>2026-04-09T14:49:12Z</time></trkpt><trkpt lat="45.15957733687559" lon="8.29168042360307"><ele>220.0</ele><time>2026-04-09T14:49:13Z</time></trkpt><trkpt lat="45.15964679019694" lon="8.291691824805406"><ele>220.0</ele><time>2026-04-09T14:49:14Z</time></trkpt><trkpt lat="45.15976053056618" lon="8.291672154821601"><ele>220.0</ele><time>2026-04-09T14:49:16Z</time></trkpt><trkpt lat="45.15988297223232" lon="8.291561970476389"><ele>220.0</ele><time>2026-04-09T14:49:18Z</time></trkpt><trkpt lat="45.15993754878963" lon="8.291453584353057"><ele>220.25</ele><time>2026-04-09T14:49:19Z</time></trkpt><trkpt lat="45.159986085392646" lon="8.29132430969795"><ele>220.5</ele><time>2026-04-09T14:49:20Z</time></trkpt><trkpt lat="45.16006672693394" lon="8.29120390708433"><ele>220.75</ele><time>2026-04-09T14:49:21Z</time></trkpt><trkpt lat="45.160157377715876" lon="8.291083979207324"><ele>221.0</ele><time>2026-04-09T14:49:22Z</time></trkpt><trkpt lat="45.16024776840434" lon="8.290976167896792"><ele>221.0</ele><time>2026-04-09T14:49:23Z</time></trkpt><trkpt lat="45.16034378368291" lon="8.290874274280783"><ele>221.0</ele><time>2026-04-09T14:49:24Z</time></trkpt><trkpt lat="45.160448344143504" lon="8.290776177172944"><ele>221.0</ele><time>2026-04-09T14:49:25Z</time></trkpt><trkpt lat="45.16056075014405" lon="8.290681683953231"><ele>221.0</ele><time>2026-04-09T14:49:26Z</time></trkpt><trkpt lat="45.16068137584496" lon="8.290592148379355"><ele>221.75</ele><time>2026-04-09T14:49:27Z</time></trkpt><trkpt lat="45.16081201005178" lon="8.290515267090456"><ele>222.5</ele><time>2026-04-09T14:49:28Z</time></trkpt><trkpt lat="45.160954933081406" lon="8.290485413235643"><ele>223.25</ele><time>2026-04-09T14:49:29Z</time></trkpt><trkpt lat="45.161084823806696" lon="8.290413568506994"><ele>224.0</ele><time>2026-04-09T14:49:30Z</time></trkpt><trkpt lat="45.16121783524464" lon="8.290365786848545"><ele>224.0</ele><time>2026-04-09T14:49:31Z</time></trkpt><trkpt lat="45.161352924647225" lon="8.290302556606765"><ele>224.0</ele><time>2026-04-09T14:49:32Z</time></trkpt><trkpt lat="45.161459370745504" lon="8.290141788526048"><ele>224.0</ele><time>2026-04-09T14:49:33Z</time></trkpt><trkpt lat="45.16152756547486" lon="8.289922846523526"><ele>225.66666666666669</ele><time>2026-04-09T14:49:34Z</time></trkpt><trkpt lat="45.161592803942234" lon="8.289680208549319"><ele>227.33333333333331</ele><time>2026-04-09T14:49:35Z</time></trkpt><trkpt lat="45.16165342987722" lon="8.28943191642849"><ele>229.0</ele><time>2026-04-09T14:49:36Z</time></trkpt><trkpt lat="45.16173307844078" lon="8.289211341869072"><ele>229.0</ele><time>2026-04-09T14:49:37Z</time></trkpt><trkpt lat="45.16179998530146" lon="8.288978125973806"><ele>229.0</ele><time>2026-04-09T14:49:38Z</time></trkpt><trkpt lat="45.16186723995145" lon="8.288748617122055"><ele>229.0</ele><time>2026-04-09T14:49:39Z</time></trkpt><trkpt lat="45.161936350728816" lon="8.28851495233155"><ele>229.66666666666666</ele><time>2026-04-09T14:49:40Z</time></trkpt><trkpt lat="45.16200547914968" lon="8.288292154158125"><ele>230.33333333333331</ele><time>2026-04-09T14:49:41Z</time></trkpt><trkpt lat="45.162070294206956" lon="8.288076823110837"><ele>231.0</ele><time>2026-04-09T14:49:42Z</time></trkpt><trkpt lat="45.16212690599639" lon="8.287882171528961"><ele>231.8</ele><time>2026-04-09T14:49:43Z</time></trkpt><trkpt lat="45.162178499979056" lon="8.28770305149459"><ele>232.60000000000002</ele><time>2026-04-09T14:49:44Z</time></trkpt><trkpt lat="45.16222207024428" lon="8.287554401503176"><ele>233.4</ele><time>2026-04-09T14:49:45Z</time></trkpt><trkpt lat="45.162257309326925" lon="8.287438022902496"><ele>234.2</ele><time>2026-04-09T14:49:46Z</time></trkpt><trkpt lat="45.16228999937664" lon="8.287326204837404"><ele>235.0</ele><time>2026-04-09T14:49:47Z</time></trkpt><trkpt lat="45.16233953489993" lon="8.287247094483787"><ele>238.6</ele><time>2026-04-09T14:49:48.001Z</time></trkpt><trkpt lat="45.162424478847825" lon="8.287216425155409"><ele>242.2</ele><time>2026-04-09T14:49:49.001Z</time></trkpt><trkpt lat="45.16252151404184" lon="8.287169242014567"><ele>245.8</ele><time>2026-04-09T14:49:50.001Z</time></trkpt><trkpt lat="45.16262499881722" lon="8.287115720616963"><ele>249.4</ele><time>2026-04-09T14:49:51.001Z</time></trkpt><trkpt lat="45.162746284250154" lon="8.287079465621833"><ele>253.0</ele><time>2026-04-09T14:49:52.001Z</time></trkpt><trkpt lat="45.16286926712798" lon="8.287014592751154"><ele>253.0</ele><time>2026-04-09T14:49:53.001Z</time></trkpt><trkpt lat="45.16299893143558" lon="8.286942399099205"><ele>253.0</ele><time>2026-04-09T14:49:54.001Z</time></trkpt><trkpt lat="45.163132511808065" lon="8.286865943664598"><ele>253.0</ele><time>2026-04-09T14:49:55.001Z</time></trkpt><trkpt lat="45.163272302650554" lon="8.286787295350276"><ele>253.0</ele><time>2026-04-09T14:49:56.001Z</time></trkpt><trkpt lat="45.16341252441473" lon="8.28669937155066"><ele>253.5</ele><time>2026-04-09T14:49:57.001Z</time></trkpt><trkpt lat="45.16355064792606" lon="8.28661219910933"><ele>254.0</ele><time>2026-04-09T14:49:58.001Z</time></trkpt><trkpt lat="45.16368381014212" lon="8.28656790808291"><ele>254.5</ele><time>2026-04-09T14:49:59.001Z</time></trkpt><trkpt lat="45.16379778252437" lon="8.286487546332154"><ele>255.0</ele><time>2026-04-09T14:50:00.001Z</time></trkpt><trkpt lat="45.16390168774764" lon="8.28643774995864"><ele>255.4</ele><time>2026-04-09T14:50:01.001Z</time></trkpt><trkpt lat="45.163988248504275" lon="8.286398848838122"><ele>255.8</ele><time>2026-04-09T14:50:02.001Z</time></trkpt><trkpt lat="45.16406334564543" lon="8.2863520019302"><ele>256.2</ele><time>2026-04-09T14:50:03.001Z</time></trkpt><trkpt lat="45.16413165798455" lon="8.286285365694237"><ele>256.6</ele><time>2026-04-09T14:50:04.001Z</time></trkpt><trkpt lat="45.16420232613636" lon="8.286191468553836"><ele>257.0</ele><time>2026-04-09T14:50:05.001Z</time></trkpt><trkpt lat="45.16427091610101" lon="8.28608026265569"><ele>257.0</ele><time>2026-04-09T14:50:06.001Z</time></trkpt><trkpt lat="45.16433088937938" lon="8.285964043015623"><ele>257.0</ele><time>2026-04-09T14:50:07.001Z</time></trkpt><trkpt lat="45.164377938106945" lon="8.285848579995962"><ele>257.0</ele><time>2026-04-09T14:50:08.001Z</time></trkpt><trkpt lat="45.16441502225429" lon="8.285735646842978"><ele>257.0</ele><time>2026-04-09T14:50:09.001Z</time></trkpt><trkpt lat="45.16443969283697" lon="8.285617118190029"><ele>257.0</ele><time>2026-04-09T14:50:10.001Z</time></trkpt><trkpt lat="45.16447544218588" lon="8.28548601694162"><ele>257.6</ele><time>2026-04-09T14:50:11.001Z</time></trkpt><trkpt lat="45.164500574717955" lon="8.285339069290734"><ele>258.2</ele><time>2026-04-09T14:50:12.001Z</time></trkpt><trkpt lat="45.16452022656062" lon="8.285181264818622"><ele>258.8</ele><time>2026-04-09T14:50:13.001Z</time></trkpt><trkpt lat="45.16457514310542" lon="8.285041452142108"><ele>259.4</ele><time>2026-04-09T14:50:14.001Z</time></trkpt><trkpt lat="45.16464925522796" lon="8.284914078024322"><ele>260.0</ele><time>2026-04-09T14:50:15.001Z</time></trkpt><trkpt lat="45.1647415281998" lon="8.284814895751687"><ele>259.8</ele><time>2026-04-09T14:50:16.001Z</time></trkpt><trkpt lat="45.164848642594684" lon="8.284747208942285"><ele>259.6</ele><time>2026-04-09T14:50:17.001Z</time></trkpt><trkpt lat="45.16495941823951" lon="8.284700712312615"><ele>259.4</ele><time>2026-04-09T14:50:18.001Z</time></trkpt><trkpt lat="45.16505986432008" lon="8.28466637479449"><ele>259.2</ele><time>2026-04-09T14:50:19.001Z</time></trkpt><trkpt lat="45.16515546735433" lon="8.28463584711788"><ele>259.0</ele><time>2026-04-09T14:50:20.001Z</time></trkpt><trkpt lat="45.165242423944015" lon="8.284600546127232"><ele>256.59999999999997</ele><time>2026-04-09T14:50:21.001Z</time></trkpt><trkpt lat="45.16531725962473" lon="8.28453909129957"><ele>254.2</ele><time>2026-04-09T14:50:22.001Z</time></trkpt><trkpt lat="45.1653619533313" lon="8.284427690456377"><ele>251.79999999999998</ele><time>2026-04-09T14:50:23.001Z</time></trkpt><trkpt lat="45.165383789216854" lon="8.284291996959242"><ele>249.39999999999998</ele><time>2026-04-09T14:50:24.001Z</time></trkpt><trkpt lat="45.16537789884526" lon="8.28414264239719"><ele>247.0</ele><time>2026-04-09T14:50:25.001Z</time></trkpt><trkpt lat="45.16534627687025" lon="8.284004128433534"><ele>243.75</ele><time>2026-04-09T14:50:26.001Z</time></trkpt><trkpt lat="45.165275359818324" lon="8.283871301215997"><ele>240.5</ele><time>2026-04-09T14:50:27.001Z</time></trkpt><trkpt lat="45.16520225279405" lon="8.283724916307259"><ele>237.25</ele><time>2026-04-09T14:50:28.001Z</time></trkpt><trkpt lat="45.165100109924246" lon="8.283599339504992"><ele>234.0</ele><time>2026-04-09T14:50:29.001Z</time></trkpt><trkpt lat="45.164982546316956" lon="8.283482844278753"><ele>237.75</ele><time>2026-04-09T14:50:30.001Z</time></trkpt><trkpt lat="45.16485715353365" lon="8.28339634599922"><ele>241.5</ele><time>2026-04-09T14:50:31.001Z</time></trkpt><trkpt lat="45.16474418749463" lon="8.28329335930638"><ele>245.25</ele><time>2026-04-09T14:50:32.001Z</time></trkpt><trkpt lat="45.16464126168085" lon="8.283184143775802"><ele>249.0</ele><time>2026-04-09T14:50:33.001Z</time></trkpt><trkpt lat="45.16453170286229" lon="8.28311428603043"><ele>249.6</ele><time>2026-04-09T14:50:34.001Z</time></trkpt><trkpt lat="45.16442922208833" lon="8.283062211878642"><ele>250.2</ele><time>2026-04-09T14:50:35.001Z</time></trkpt><trkpt lat="45.164331052069166" lon="8.283026607836613"><ele>250.79999999999998</ele><time>2026-04-09T14:50:36.001Z</time></trkpt><trkpt lat="45.16425987262097" lon="8.28293721837391"><ele>251.39999999999998</ele><time>2026-04-09T14:50:37.001Z</time></trkpt><trkpt lat="45.16421218396337" lon="8.282816167722725"><ele>252.0</ele><time>2026-04-09T14:50:38.001Z</time></trkpt><trkpt lat="45.16421338073915" lon="8.28266289939317"><ele>252.0</ele><time>2026-04-09T14:50:39.001Z</time></trkpt><trkpt lat="45.16426309827781" lon="8.282516884263964"><ele>252.0</ele><time>2026-04-09T14:50:40.001Z</time></trkpt><trkpt lat="45.16432570833345" lon="8.282372401273552"><ele>252.0</ele><time>2026-04-09T14:50:41Z</time></trkpt><trkpt lat="45.164395811203825" lon="8.282215606564366"><ele>252.0</ele><time>2026-04-09T14:50:42Z</time></trkpt><trkpt lat="45.164494281543256" lon="8.282099858581118"><ele>249.8</ele><time>2026-04-09T14:50:43Z</time></trkpt><trkpt lat="45.16460727916815" lon="8.282025997781814"><ele>247.6</ele><time>2026-04-09T14:50:44Z</time></trkpt><trkpt lat="45.16472436795925" lon="8.2819902382573"><ele>245.40000000000003</ele><time>2026-04-09T14:50:45Z</time></trkpt><trkpt lat="45.16483423275923" lon="8.281979437410765"><ele>243.20000000000002</ele><time>2026-04-09T14:50:46Z</time></trkpt><trkpt lat="45.16491824339357" lon="8.281970997996064"><ele>241.0</ele><time>2026-04-09T14:50:47Z</time></trkpt><trkpt lat="45.164990063896575" lon="8.281933063513506"><ele>241.0</ele><time>2026-04-09T14:50:48Z</time></trkpt><trkpt lat="45.16506542277641" lon="8.281863324776545"><ele>241.00000000000003</ele><time>2026-04-09T14:50:49Z</time></trkpt><trkpt lat="45.16513232340293" lon="8.281767772472895"><ele>241.00000000000003</ele><time>2026-04-09T14:50:50Z</time></trkpt><trkpt lat="45.16519081578523" lon="8.281647361410847"><ele>241.0</ele><time>2026-04-09T14:50:51Z</time></trkpt><trkpt lat="45.165244716296826" lon="8.281511713113693"><ele>241.0</ele><time>2026-04-09T14:50:52Z</time></trkpt><trkpt lat="45.165295514174055" lon="8.281362032480303"><ele>244.25</ele><time>2026-04-09T14:50:53Z</time></trkpt><trkpt lat="45.16534970397123" lon="8.281205383555408"><ele>247.5</ele><time>2026-04-09T14:50:54Z</time></trkpt><trkpt lat="45.16540083252776" lon="8.281053382054576"><ele>250.75</ele><time>2026-04-09T14:50:55Z</time></trkpt><trkpt lat="45.165453809073874" lon="8.280885964778252"><ele>254.0</ele><time>2026-04-09T14:50:56Z</time></trkpt><trkpt lat="45.165509661528205" lon="8.280710096524754"><ele>255.5</ele><time>2026-04-09T14:50:57Z</time></trkpt><trkpt lat="45.165570251266956" lon="8.280527102100594"><ele>257.0</ele><time>2026-04-09T14:50:58Z</time></trkpt><trkpt lat="45.165636664069424" lon="8.280339236729684"><ele>258.5</ele><time>2026-04-09T14:50:59Z</time></trkpt><trkpt lat="45.165717137484975" lon="8.28015709789631"><ele>260.0</ele><time>2026-04-09T14:51:00Z</time></trkpt><trkpt lat="45.16580980862551" lon="8.279976316194201"><ele>253.33333333333334</ele><time>2026-04-09T14:51:01Z</time></trkpt><trkpt lat="45.16591081668173" lon="8.27979601392787"><ele>246.66666666666669</ele><time>2026-04-09T14:51:02Z</time></trkpt><trkpt lat="45.16601661782863" lon="8.279610932346998"><ele>240.0</ele><time>2026-04-09T14:51:03Z</time></trkpt><trkpt lat="45.16611389516397" lon="8.279438571020524"><ele>240.0</ele><time>2026-04-09T14:51:04Z</time></trkpt><trkpt lat="45.16620249328946" lon="8.279281597245994"><ele>240.0</ele><time>2026-04-09T14:51:05Z</time></trkpt></trkseg></trk></gpx>